<?xml version="1.0" encoding="UTF-8" standalone="no" ?>
<gpx xmlns="http://www.topografix.com/GPX/1/1" xmlns:xsi="http://www.w3.org/2001/XMLSchema-instance" xsi:schemaLocation="http://www.topografix.com/GPX/1/1 http://www.topografix.com/GPX/1/1/gpx.xsd" version="1.1" creator="VisuGPX - https://www.visugpx.com">
  <metadata>
    <name>pyrennées 2000- col del pam</name>
  </metadata>
  <trk>
    <name><![CDATA[pyrennées 2000- col del pam_1]]></name>
    <trkseg>
      <trkpt lat="42.52066" lon="2.0596">
        <ele>1830.0072970474</ele>
        <time>2001-05-23T11:48:13.4</time>
      </trkpt>
      <trkpt lat="42.52066" lon="2.0596">
        <ele>1830.0072970474</ele>
        <time>2001-05-23T11:48:14.4</time>
      </trkpt>
      <trkpt lat="42.52066" lon="2.05959">
        <ele>1829.9590618163</ele>
        <time>2001-05-23T11:48:15.4</time>
      </trkpt>
      <trkpt lat="42.52065" lon="2.05958">
        <ele>1829.7851603962</ele>
        <time>2001-05-23T11:48:16.4</time>
      </trkpt>
      <trkpt lat="42.52065" lon="2.05957">
        <ele>1829.9525411734</ele>
        <time>2001-05-23T11:48:17.4</time>
      </trkpt>
      <trkpt lat="42.52064" lon="2.05956">
        <ele>1829.9817868939</ele>
        <time>2001-05-23T11:48:18.4</time>
      </trkpt>
      <trkpt lat="42.52065" lon="2.05957">
        <ele>1830.1591576867</ele>
        <time>2001-05-23T11:48:19.4</time>
      </trkpt>
      <trkpt lat="42.52065" lon="2.05957">
        <ele>1830.3461755257</ele>
        <time>2001-05-23T11:48:20.4</time>
      </trkpt>
      <trkpt lat="42.52063" lon="2.05957">
        <ele>1830.9159847755</ele>
        <time>2001-05-23T11:48:21.13</time>
      </trkpt>
      <trkpt lat="42.52063" lon="2.05957">
        <ele>1831.4420481926</ele>
        <time>2001-05-23T11:48:22.13</time>
      </trkpt>
      <trkpt lat="42.52064" lon="2.05958">
        <ele>1831.9214228896</ele>
        <time>2001-05-23T11:48:23.12</time>
      </trkpt>
      <trkpt lat="42.52064" lon="2.05958">
        <ele>1832.2526725143</ele>
        <time>2001-05-23T11:48:24.12</time>
      </trkpt>
      <trkpt lat="42.52065" lon="2.05958">
        <ele>1832.7260699613</ele>
        <time>2001-05-23T11:48:25.11</time>
      </trkpt>
      <trkpt lat="42.52065" lon="2.05958">
        <ele>1832.8514562815</ele>
        <time>2001-05-23T11:48:26.11</time>
      </trkpt>
      <trkpt lat="42.52065" lon="2.05957">
        <ele>1833.1649842929</ele>
        <time>2001-05-23T11:48:27.10</time>
      </trkpt>
      <trkpt lat="42.52065" lon="2.05956">
        <ele>1833.5871114571</ele>
        <time>2001-05-23T11:48:28.10</time>
      </trkpt>
      <trkpt lat="42.52065" lon="2.05954">
        <ele>1834.0330383781</ele>
        <time>2001-05-23T11:48:29.10</time>
      </trkpt>
      <trkpt lat="42.52066" lon="2.05953">
        <ele>1834.3494887488</ele>
        <time>2001-05-23T11:48:30.10</time>
      </trkpt>
      <trkpt lat="42.52066" lon="2.05952">
        <ele>1834.7173856964</ele>
        <time>2001-05-23T11:48:31.10</time>
      </trkpt>
      <trkpt lat="42.52065" lon="2.0595">
        <ele>1834.9948932854</ele>
        <time>2001-05-23T11:48:32.10</time>
      </trkpt>
      <trkpt lat="42.52065" lon="2.05949">
        <ele>1834.9648962012</ele>
        <time>2001-05-23T11:48:33.10</time>
      </trkpt>
      <trkpt lat="42.52066" lon="2.05947">
        <ele>1834.7542016573</ele>
        <time>2001-05-23T11:48:34.10</time>
      </trkpt>
      <trkpt lat="42.52067" lon="2.05946">
        <ele>1834.021509698</ele>
        <time>2001-05-23T11:48:35.10</time>
      </trkpt>
      <trkpt lat="42.52068" lon="2.05944">
        <ele>1832.8387725571</ele>
        <time>2001-05-23T11:48:36.10</time>
      </trkpt>
      <trkpt lat="42.52068" lon="2.05942">
        <ele>1830.8084499052</ele>
        <time>2001-05-23T11:48:37.10</time>
      </trkpt>
      <trkpt lat="42.52068" lon="2.05941">
        <ele>1828.8549952997</ele>
        <time>2001-05-23T11:48:38.10</time>
      </trkpt>
      <trkpt lat="42.52068" lon="2.0594">
        <ele>1826.992726955</ele>
        <time>2001-05-23T11:48:39.10</time>
      </trkpt>
      <trkpt lat="42.5207" lon="2.05938">
        <ele>1825.0441192478</ele>
        <time>2001-05-23T11:48:40.10</time>
      </trkpt>
      <trkpt lat="42.5207" lon="2.05937">
        <ele>1823.7162515843</ele>
        <time>2001-05-23T11:48:41.10</time>
      </trkpt>
      <trkpt lat="42.52069" lon="2.05937">
        <ele>1823.4910856778</ele>
        <time>2001-05-23T11:48:42.10</time>
      </trkpt>
      <trkpt lat="42.52069" lon="2.05935">
        <ele>1823.6005353997</ele>
        <time>2001-05-23T11:48:43.10</time>
      </trkpt>
      <trkpt lat="42.52069" lon="2.05935">
        <ele>1824.0992530504</ele>
        <time>2001-05-23T11:48:44.10</time>
      </trkpt>
      <trkpt lat="42.52069" lon="2.05934">
        <ele>1825.8837513957</ele>
        <time>2001-05-23T11:48:45.8</time>
      </trkpt>
      <trkpt lat="42.52069" lon="2.05934">
        <ele>1827.4461083019</ele>
        <time>2001-05-23T11:48:46.8</time>
      </trkpt>
      <trkpt lat="42.52069" lon="2.05935">
        <ele>1828.8706925167</ele>
        <time>2001-05-23T11:48:47.10</time>
      </trkpt>
      <trkpt lat="42.52068" lon="2.05936">
        <ele>1830.2060198724</ele>
        <time>2001-05-23T11:48:48.10</time>
      </trkpt>
      <trkpt lat="42.52067" lon="2.05938">
        <ele>1831.3481341284</ele>
        <time>2001-05-23T11:48:49.10</time>
      </trkpt>
      <trkpt lat="42.52067" lon="2.05939">
        <ele>1831.8525880003</ele>
        <time>2001-05-23T11:48:50.10</time>
      </trkpt>
      <trkpt lat="42.52067" lon="2.05939">
        <ele>1832.3570418723</ele>
        <time>2001-05-23T11:48:51.10</time>
      </trkpt>
      <trkpt lat="42.52067" lon="2.05938">
        <ele>1832.343017544</ele>
        <time>2001-05-23T11:48:52.15</time>
      </trkpt>
      <trkpt lat="42.52068" lon="2.05937">
        <ele>1832.077690706</ele>
        <time>2001-05-23T11:48:53.15</time>
      </trkpt>
      <trkpt lat="42.52068" lon="2.05936">
        <ele>1831.7678479692</ele>
        <time>2001-05-23T11:48:54.15</time>
      </trkpt>
      <trkpt lat="42.52068" lon="2.05934">
        <ele>1831.7489198022</ele>
        <time>2001-05-23T11:48:55.14</time>
      </trkpt>
      <trkpt lat="42.52068" lon="2.05933">
        <ele>1831.8985028749</ele>
        <time>2001-05-23T11:48:56.14</time>
      </trkpt>
      <trkpt lat="42.52068" lon="2.05931">
        <ele>1832.548080913</ele>
        <time>2001-05-23T11:48:57.17</time>
      </trkpt>
      <trkpt lat="42.52067" lon="2.05929">
        <ele>1833.1941733645</ele>
        <time>2001-05-23T11:48:58.17</time>
      </trkpt>
      <trkpt lat="42.52067" lon="2.05928">
        <ele>1833.5844800154</ele>
        <time>2001-05-23T11:48:59.17</time>
      </trkpt>
      <trkpt lat="42.52069" lon="2.05926">
        <ele>1833.0119799238</ele>
        <time>2001-05-23T11:49:00.17</time>
      </trkpt>
      <trkpt lat="42.5207" lon="2.05923">
        <ele>1831.8363204433</ele>
        <time>2001-05-23T11:49:01.17</time>
      </trkpt>
      <trkpt lat="42.52071" lon="2.05921">
        <ele>1830.4128720589</ele>
        <time>2001-05-23T11:49:02.17</time>
      </trkpt>
      <trkpt lat="42.52071" lon="2.05921">
        <ele>1828.767456406</ele>
        <time>2001-05-23T11:49:03.17</time>
      </trkpt>
      <trkpt lat="42.52072" lon="2.0592">
        <ele>1827.0768348133</ele>
        <time>2001-05-23T11:49:04.17</time>
      </trkpt>
      <trkpt lat="42.52073" lon="2.05919">
        <ele>1826.1197887175</ele>
        <time>2001-05-23T11:49:05.17</time>
      </trkpt>
      <trkpt lat="42.52072" lon="2.05918">
        <ele>1825.6758853666</ele>
        <time>2001-05-23T11:49:06.17</time>
      </trkpt>
      <trkpt lat="42.52073" lon="2.05917">
        <ele>1825.3533760084</ele>
        <time>2001-05-23T11:49:07.17</time>
      </trkpt>
      <trkpt lat="42.52074" lon="2.05916">
        <ele>1824.9658110036</ele>
        <time>2001-05-23T11:49:08.17</time>
      </trkpt>
      <trkpt lat="42.52074" lon="2.05914">
        <ele>1824.7262220692</ele>
        <time>2001-05-23T11:49:09.17</time>
      </trkpt>
      <trkpt lat="42.52073" lon="2.05913">
        <ele>1824.5988601159</ele>
        <time>2001-05-23T11:49:10.17</time>
      </trkpt>
      <trkpt lat="42.52073" lon="2.05912">
        <ele>1824.4777834697</ele>
        <time>2001-05-23T11:49:11.17</time>
      </trkpt>
      <trkpt lat="42.52074" lon="2.05911">
        <ele>1824.6875043534</ele>
        <time>2001-05-23T11:49:12.17</time>
      </trkpt>
      <trkpt lat="42.52073" lon="2.0591">
        <ele>1825.6797552519</ele>
        <time>2001-05-23T11:49:13.17</time>
      </trkpt>
      <trkpt lat="42.52073" lon="2.05909">
        <ele>1826.9387614671</ele>
        <time>2001-05-23T11:49:14.17</time>
      </trkpt>
      <trkpt lat="42.52072" lon="2.05908">
        <ele>1828.1929251064</ele>
        <time>2001-05-23T11:49:15.17</time>
      </trkpt>
      <trkpt lat="42.52072" lon="2.05907">
        <ele>1829.440784459</ele>
        <time>2001-05-23T11:49:16.17</time>
      </trkpt>
      <trkpt lat="42.52071" lon="2.05905">
        <ele>1830.3166058451</ele>
        <time>2001-05-23T11:49:17.19</time>
      </trkpt>
      <trkpt lat="42.52071" lon="2.05903">
        <ele>1830.6200499516</ele>
        <time>2001-05-23T11:49:18.19</time>
      </trkpt>
      <trkpt lat="42.52071" lon="2.05902">
        <ele>1830.4931070792</ele>
        <time>2001-05-23T11:49:19.19</time>
      </trkpt>
      <trkpt lat="42.52071" lon="2.05901">
        <ele>1829.9858800625</ele>
        <time>2001-05-23T11:49:20.19</time>
      </trkpt>
      <trkpt lat="42.52071" lon="2.059">
        <ele>1829.2318664584</ele>
        <time>2001-05-23T11:49:21.19</time>
      </trkpt>
      <trkpt lat="42.52072" lon="2.05899">
        <ele>1828.3261966173</ele>
        <time>2001-05-23T11:49:22.19</time>
      </trkpt>
      <trkpt lat="42.52071" lon="2.05898">
        <ele>1827.821961399</ele>
        <time>2001-05-23T11:49:23.19</time>
      </trkpt>
      <trkpt lat="42.52071" lon="2.05897">
        <ele>1827.8624748869</ele>
        <time>2001-05-23T11:49:24.19</time>
      </trkpt>
      <trkpt lat="42.5207" lon="2.05895">
        <ele>1828.2446154214</ele>
        <time>2001-05-23T11:49:25.19</time>
      </trkpt>
      <trkpt lat="42.5207" lon="2.05893">
        <ele>1828.861744342</ele>
        <time>2001-05-23T11:49:26.19</time>
      </trkpt>
      <trkpt lat="42.52069" lon="2.05892">
        <ele>1829.7497046696</ele>
        <time>2001-05-23T11:49:27.19</time>
      </trkpt>
      <trkpt lat="42.52068" lon="2.05891">
        <ele>1830.6950351179</ele>
        <time>2001-05-23T11:49:28.19</time>
      </trkpt>
      <trkpt lat="42.52067" lon="2.0589">
        <ele>1831.5147348536</ele>
        <time>2001-05-23T11:49:29.19</time>
      </trkpt>
      <trkpt lat="42.52067" lon="2.05888">
        <ele>1832.1234789409</ele>
        <time>2001-05-23T11:49:30.19</time>
      </trkpt>
      <trkpt lat="42.52067" lon="2.05887">
        <ele>1832.5375630023</ele>
        <time>2001-05-23T11:49:31.19</time>
      </trkpt>
      <trkpt lat="42.52066" lon="2.05886">
        <ele>1832.7125564042</ele>
        <time>2001-05-23T11:49:32.19</time>
      </trkpt>
      <trkpt lat="42.52065" lon="2.05885">
        <ele>1832.5540955694</ele>
        <time>2001-05-23T11:49:33.19</time>
      </trkpt>
      <trkpt lat="42.52065" lon="2.05884">
        <ele>1832.0786589583</ele>
        <time>2001-05-23T11:49:34.19</time>
      </trkpt>
      <trkpt lat="42.52064" lon="2.05883">
        <ele>1831.8051398246</ele>
        <time>2001-05-23T11:49:35.19</time>
      </trkpt>
      <trkpt lat="42.52064" lon="2.05882">
        <ele>1831.8545828816</ele>
        <time>2001-05-23T11:49:36.19</time>
      </trkpt>
      <trkpt lat="42.52065" lon="2.0588">
        <ele>1831.6249633035</ele>
        <time>2001-05-23T11:49:37.19</time>
      </trkpt>
      <trkpt lat="42.52065" lon="2.05879">
        <ele>1831.165477697</ele>
        <time>2001-05-23T11:49:38.19</time>
      </trkpt>
      <trkpt lat="42.52065" lon="2.05877">
        <ele>1830.6440163409</ele>
        <time>2001-05-23T11:49:39.19</time>
      </trkpt>
      <trkpt lat="42.52065" lon="2.05876">
        <ele>1830.0719370253</ele>
        <time>2001-05-23T11:49:40.19</time>
      </trkpt>
      <trkpt lat="42.52065" lon="2.05875">
        <ele>1829.3104397979</ele>
        <time>2001-05-23T11:49:41.19</time>
      </trkpt>
      <trkpt lat="42.52064" lon="2.05874">
        <ele>1828.7764617372</ele>
        <time>2001-05-23T11:49:42.19</time>
      </trkpt>
      <trkpt lat="42.52064" lon="2.05874">
        <ele>1828.4971916817</ele>
        <time>2001-05-23T11:49:43.19</time>
      </trkpt>
      <trkpt lat="42.52063" lon="2.05874">
        <ele>1828.5417790951</ele>
        <time>2001-05-23T11:49:44.19</time>
      </trkpt>
      <trkpt lat="42.52061" lon="2.05875">
        <ele>1829.3250284424</ele>
        <time>2001-05-23T11:49:45.21</time>
      </trkpt>
      <trkpt lat="42.52061" lon="2.05876">
        <ele>1830.4799859947</ele>
        <time>2001-05-23T11:49:46.21</time>
      </trkpt>
      <trkpt lat="42.52062" lon="2.05876">
        <ele>1831.5938684573</ele>
        <time>2001-05-23T11:49:47.20</time>
      </trkpt>
      <trkpt lat="42.52063" lon="2.05877">
        <ele>1832.5767905405</ele>
        <time>2001-05-23T11:49:48.20</time>
      </trkpt>
      <trkpt lat="42.52063" lon="2.05878">
        <ele>1833.3164651573</ele>
        <time>2001-05-23T11:49:49.20</time>
      </trkpt>
      <trkpt lat="42.52064" lon="2.05878">
        <ele>1833.2522946069</ele>
        <time>2001-05-23T11:49:50.21</time>
      </trkpt>
      <trkpt lat="42.52065" lon="2.05879">
        <ele>1832.6604190189</ele>
        <time>2001-05-23T11:49:51.21</time>
      </trkpt>
      <trkpt lat="42.52064" lon="2.05878">
        <ele>1832.4321846176</ele>
        <time>2001-05-23T11:49:52.27</time>
      </trkpt>
      <trkpt lat="42.52064" lon="2.05878">
        <ele>1832.4098165952</ele>
        <time>2001-05-23T11:49:53.27</time>
      </trkpt>
      <trkpt lat="42.52064" lon="2.05877">
        <ele>1832.5955526626</ele>
        <time>2001-05-23T11:49:54.25</time>
      </trkpt>
      <trkpt lat="42.52064" lon="2.05877">
        <ele>1832.7232626578</ele>
        <time>2001-05-23T11:49:55.25</time>
      </trkpt>
      <trkpt lat="42.52064" lon="2.05874">
        <ele>1832.2897821723</ele>
        <time>2001-05-23T11:49:56.25</time>
      </trkpt>
      <trkpt lat="42.52064" lon="2.05872">
        <ele>1831.4185708551</ele>
        <time>2001-05-23T11:49:57.25</time>
      </trkpt>
      <trkpt lat="42.52064" lon="2.0587">
        <ele>1830.6858127389</ele>
        <time>2001-05-23T11:49:58.25</time>
      </trkpt>
      <trkpt lat="42.52064" lon="2.05868">
        <ele>1829.8958479177</ele>
        <time>2001-05-23T11:49:59.25</time>
      </trkpt>
      <trkpt lat="42.52064" lon="2.05867">
        <ele>1829.1854293581</ele>
        <time>2001-05-23T11:50:00.25</time>
      </trkpt>
      <trkpt lat="42.52064" lon="2.05865">
        <ele>1829.1990425583</ele>
        <time>2001-05-23T11:50:01.25</time>
      </trkpt>
      <trkpt lat="42.52064" lon="2.05863">
        <ele>1829.5244789492</ele>
        <time>2001-05-23T11:50:02.25</time>
      </trkpt>
      <trkpt lat="42.52064" lon="2.05862">
        <ele>1829.9750214683</ele>
        <time>2001-05-23T11:50:03.25</time>
      </trkpt>
      <trkpt lat="42.52065" lon="2.05861">
        <ele>1830.506077824</ele>
        <time>2001-05-23T11:50:04.25</time>
      </trkpt>
      <trkpt lat="42.52066" lon="2.0586">
        <ele>1830.6981007786</ele>
        <time>2001-05-23T11:50:05.25</time>
      </trkpt>
      <trkpt lat="42.52066" lon="2.0586">
        <ele>1831.0383674281</ele>
        <time>2001-05-23T11:50:06.25</time>
      </trkpt>
      <trkpt lat="42.52064" lon="2.05859">
        <ele>1831.3576410446</ele>
        <time>2001-05-23T11:50:07.26</time>
      </trkpt>
      <trkpt lat="42.52064" lon="2.05858">
        <ele>1831.4527884824</ele>
        <time>2001-05-23T11:50:08.26</time>
      </trkpt>
      <trkpt lat="42.52063" lon="2.05857">
        <ele>1831.6220024621</ele>
        <time>2001-05-23T11:50:09.26</time>
      </trkpt>
      <trkpt lat="42.52062" lon="2.05856">
        <ele>1832.1106568519</ele>
        <time>2001-05-23T11:50:10.26</time>
      </trkpt>
      <trkpt lat="42.52061" lon="2.05855">
        <ele>1832.4398375282</ele>
        <time>2001-05-23T11:50:11.26</time>
      </trkpt>
      <trkpt lat="42.52062" lon="2.05855">
        <ele>1832.2606387991</ele>
        <time>2001-05-23T11:50:12.26</time>
      </trkpt>
      <trkpt lat="42.52061" lon="2.05854">
        <ele>1832.0387797425</ele>
        <time>2001-05-23T11:50:13.26</time>
      </trkpt>
      <trkpt lat="42.52061" lon="2.05853">
        <ele>1831.5601110276</ele>
        <time>2001-05-23T11:50:14.26</time>
      </trkpt>
      <trkpt lat="42.52059" lon="2.05852">
        <ele>1831.1790012909</ele>
        <time>2001-05-23T11:50:15.26</time>
      </trkpt>
      <trkpt lat="42.52058" lon="2.05851">
        <ele>1831.1519251475</ele>
        <time>2001-05-23T11:50:16.26</time>
      </trkpt>
      <trkpt lat="42.52056" lon="2.05849">
        <ele>1831.9571587499</ele>
        <time>2001-05-23T11:50:17.26</time>
      </trkpt>
      <trkpt lat="42.52056" lon="2.05848">
        <ele>1832.8890640719</ele>
        <time>2001-05-23T11:50:18.26</time>
      </trkpt>
      <trkpt lat="42.52057" lon="2.05847">
        <ele>1833.5915801782</ele>
        <time>2001-05-23T11:50:19.26</time>
      </trkpt>
      <trkpt lat="42.52057" lon="2.05847">
        <ele>1833.8916111004</ele>
        <time>2001-05-23T11:50:20.26</time>
      </trkpt>
      <trkpt lat="42.52058" lon="2.05847">
        <ele>1833.3870369008</ele>
        <time>2001-05-23T11:50:21.26</time>
      </trkpt>
      <trkpt lat="42.52057" lon="2.05848">
        <ele>1832.5182160286</ele>
        <time>2001-05-23T11:50:22.27</time>
      </trkpt>
      <trkpt lat="42.52057" lon="2.05848">
        <ele>1831.5259506142</ele>
        <time>2001-05-23T11:50:23.27</time>
      </trkpt>
      <trkpt lat="42.52056" lon="2.05847">
        <ele>1831.0525097039</ele>
        <time>2001-05-23T11:50:24.28</time>
      </trkpt>
      <trkpt lat="42.52056" lon="2.05847">
        <ele>1830.8240417289</ele>
        <time>2001-05-23T11:50:25.28</time>
      </trkpt>
      <trkpt lat="42.52054" lon="2.05848">
        <ele>1831.7275353225</ele>
        <time>2001-05-23T11:50:26.28</time>
      </trkpt>
      <trkpt lat="42.52052" lon="2.05848">
        <ele>1833.2513113525</ele>
        <time>2001-05-23T11:50:27.28</time>
      </trkpt>
      <trkpt lat="42.52052" lon="2.05848">
        <ele>1834.7750873825</ele>
        <time>2001-05-23T11:50:28.28</time>
      </trkpt>
      <trkpt lat="42.52052" lon="2.05844">
        <ele>1835.4111410316</ele>
        <time>2001-05-23T11:50:29.26</time>
      </trkpt>
      <trkpt lat="42.52051" lon="2.05843">
        <ele>1835.9779948799</ele>
        <time>2001-05-23T11:50:30.26</time>
      </trkpt>
      <trkpt lat="42.5205" lon="2.05842">
        <ele>1835.776229761</ele>
        <time>2001-05-23T11:50:31.26</time>
      </trkpt>
      <trkpt lat="42.5205" lon="2.05841">
        <ele>1834.8072911726</ele>
        <time>2001-05-23T11:50:32.26</time>
      </trkpt>
      <trkpt lat="42.52049" lon="2.0584">
        <ele>1833.9102917865</ele>
        <time>2001-05-23T11:50:33.26</time>
      </trkpt>
      <trkpt lat="42.52049" lon="2.05839">
        <ele>1833.7882546673</ele>
        <time>2001-05-23T11:50:34.26</time>
      </trkpt>
      <trkpt lat="42.52049" lon="2.05839">
        <ele>1833.9648301756</ele>
        <time>2001-05-23T11:50:35.26</time>
      </trkpt>
      <trkpt lat="42.52048" lon="2.05836">
        <ele>1834.0599638244</ele>
        <time>2001-05-23T11:50:36.27</time>
      </trkpt>
      <trkpt lat="42.52047" lon="2.05835">
        <ele>1834.3228222333</ele>
        <time>2001-05-23T11:50:37.27</time>
      </trkpt>
      <trkpt lat="42.52047" lon="2.05834">
        <ele>1834.6753782736</ele>
        <time>2001-05-23T11:50:38.27</time>
      </trkpt>
      <trkpt lat="42.52046" lon="2.05833">
        <ele>1834.8396574931</ele>
        <time>2001-05-23T11:50:39.27</time>
      </trkpt>
      <trkpt lat="42.52046" lon="2.05832">
        <ele>1834.4996649323</ele>
        <time>2001-05-23T11:50:40.27</time>
      </trkpt>
      <trkpt lat="42.52045" lon="2.05832">
        <ele>1834.1693694791</ele>
        <time>2001-05-23T11:50:41.27</time>
      </trkpt>
      <trkpt lat="42.52045" lon="2.05831">
        <ele>1833.4879004681</ele>
        <time>2001-05-23T11:50:42.27</time>
      </trkpt>
      <trkpt lat="42.52045" lon="2.0583">
        <ele>1832.4998122068</ele>
        <time>2001-05-23T11:50:43.27</time>
      </trkpt>
      <trkpt lat="42.52044" lon="2.05829">
        <ele>1831.541395798</ele>
        <time>2001-05-23T11:50:44.27</time>
      </trkpt>
      <trkpt lat="42.52044" lon="2.05827">
        <ele>1831.3820929257</ele>
        <time>2001-05-23T11:50:45.27</time>
      </trkpt>
      <trkpt lat="42.52043" lon="2.05826">
        <ele>1831.5207677299</ele>
        <time>2001-05-23T11:50:46.27</time>
      </trkpt>
      <trkpt lat="42.52042" lon="2.05825">
        <ele>1832.0301431015</ele>
        <time>2001-05-23T11:50:47.27</time>
      </trkpt>
      <trkpt lat="42.52042" lon="2.05824">
        <ele>1832.4334943501</ele>
        <time>2001-05-23T11:50:48.27</time>
      </trkpt>
      <trkpt lat="42.52042" lon="2.05823">
        <ele>1832.5062067512</ele>
        <time>2001-05-23T11:50:49.27</time>
      </trkpt>
      <trkpt lat="42.52042" lon="2.05822">
        <ele>1831.9672934618</ele>
        <time>2001-05-23T11:50:50.27</time>
      </trkpt>
      <trkpt lat="42.52039" lon="2.05822">
        <ele>1831.8576991236</ele>
        <time>2001-05-23T11:50:51.28</time>
      </trkpt>
      <trkpt lat="42.52038" lon="2.05822">
        <ele>1831.8905991929</ele>
        <time>2001-05-23T11:50:52.28</time>
      </trkpt>
      <trkpt lat="42.52038" lon="2.05822">
        <ele>1832.1224249966</ele>
        <time>2001-05-23T11:50:53.28</time>
      </trkpt>
      <trkpt lat="42.52037" lon="2.05821">
        <ele>1832.9135209825</ele>
        <time>2001-05-23T11:50:54.28</time>
      </trkpt>
      <trkpt lat="42.52037" lon="2.0582">
        <ele>1833.8281992173</ele>
        <time>2001-05-23T11:50:55.28</time>
      </trkpt>
      <trkpt lat="42.52037" lon="2.05819">
        <ele>1833.8643635785</ele>
        <time>2001-05-23T11:50:56.28</time>
      </trkpt>
      <trkpt lat="42.52036" lon="2.05817">
        <ele>1833.5265269013</ele>
        <time>2001-05-23T11:50:57.28</time>
      </trkpt>
      <trkpt lat="42.52035" lon="2.05816">
        <ele>1833.4976000864</ele>
        <time>2001-05-23T11:50:58.28</time>
      </trkpt>
      <trkpt lat="42.52035" lon="2.05816">
        <ele>1833.2734029533</ele>
        <time>2001-05-23T11:50:59.28</time>
      </trkpt>
      <trkpt lat="42.52035" lon="2.05815">
        <ele>1832.582296494</ele>
        <time>2001-05-23T11:51:00.29</time>
      </trkpt>
      <trkpt lat="42.52034" lon="2.05814">
        <ele>1832.0649745392</ele>
        <time>2001-05-23T11:51:01.29</time>
      </trkpt>
      <trkpt lat="42.52033" lon="2.05813">
        <ele>1831.7487832656</ele>
        <time>2001-05-23T11:51:02.29</time>
      </trkpt>
      <trkpt lat="42.52032" lon="2.05812">
        <ele>1831.3412528493</ele>
        <time>2001-05-23T11:51:03.29</time>
      </trkpt>
      <trkpt lat="42.52031" lon="2.05811">
        <ele>1831.3116193585</ele>
        <time>2001-05-23T11:51:04.29</time>
      </trkpt>
      <trkpt lat="42.5203" lon="2.05811">
        <ele>1831.6696319079</ele>
        <time>2001-05-23T11:51:05.29</time>
      </trkpt>
      <trkpt lat="42.52029" lon="2.0581">
        <ele>1832.2035846958</ele>
        <time>2001-05-23T11:51:06.29</time>
      </trkpt>
      <trkpt lat="42.52029" lon="2.05809">
        <ele>1832.6798355877</ele>
        <time>2001-05-23T11:51:07.29</time>
      </trkpt>
      <trkpt lat="42.52029" lon="2.05808">
        <ele>1833.0723789297</ele>
        <time>2001-05-23T11:51:08.29</time>
      </trkpt>
      <trkpt lat="42.52029" lon="2.05808">
        <ele>1833.0144010741</ele>
        <time>2001-05-23T11:51:09.29</time>
      </trkpt>
      <trkpt lat="42.52028" lon="2.05806">
        <ele>1833.5566181628</ele>
        <time>2001-05-23T11:51:10.31</time>
      </trkpt>
      <trkpt lat="42.52028" lon="2.05804">
        <ele>1834.2599289609</ele>
        <time>2001-05-23T11:51:11.31</time>
      </trkpt>
      <trkpt lat="42.52027" lon="2.05803">
        <ele>1835.0118195035</ele>
        <time>2001-05-23T11:51:12.31</time>
      </trkpt>
      <trkpt lat="42.52026" lon="2.05802">
        <ele>1835.6303607894</ele>
        <time>2001-05-23T11:51:13.31</time>
      </trkpt>
      <trkpt lat="42.52025" lon="2.05802">
        <ele>1836.0366720406</ele>
        <time>2001-05-23T11:51:14.31</time>
      </trkpt>
      <trkpt lat="42.52026" lon="2.05801">
        <ele>1835.5001072807</ele>
        <time>2001-05-23T11:51:15.31</time>
      </trkpt>
      <trkpt lat="42.52025" lon="2.05801">
        <ele>1834.3379093656</ele>
        <time>2001-05-23T11:51:16.31</time>
      </trkpt>
      <trkpt lat="42.52024" lon="2.05801">
        <ele>1832.9284400253</ele>
        <time>2001-05-23T11:51:17.31</time>
      </trkpt>
      <trkpt lat="42.52023" lon="2.058">
        <ele>1831.5104882592</ele>
        <time>2001-05-23T11:51:18.31</time>
      </trkpt>
      <trkpt lat="42.52022" lon="2.05799">
        <ele>1830.647298383</ele>
        <time>2001-05-23T11:51:19.31</time>
      </trkpt>
      <trkpt lat="42.52021" lon="2.05798">
        <ele>1830.1452882662</ele>
        <time>2001-05-23T11:51:20.31</time>
      </trkpt>
      <trkpt lat="42.5202" lon="2.05799">
        <ele>1830.4047214646</ele>
        <time>2001-05-23T11:51:21.31</time>
      </trkpt>
      <trkpt lat="42.52021" lon="2.05797">
        <ele>1831.2011700118</ele>
        <time>2001-05-23T11:51:22.31</time>
      </trkpt>
      <trkpt lat="42.52021" lon="2.05797">
        <ele>1832.3390893146</ele>
        <time>2001-05-23T11:51:23.31</time>
      </trkpt>
      <trkpt lat="42.5202" lon="2.05796">
        <ele>1833.418114944</ele>
        <time>2001-05-23T11:51:24.31</time>
      </trkpt>
      <trkpt lat="42.5202" lon="2.05795">
        <ele>1834.5726528967</ele>
        <time>2001-05-23T11:51:25.31</time>
      </trkpt>
      <trkpt lat="42.5202" lon="2.05794">
        <ele>1835.1237711968</ele>
        <time>2001-05-23T11:51:26.31</time>
      </trkpt>
      <trkpt lat="42.5202" lon="2.05792">
        <ele>1835.1794637565</ele>
        <time>2001-05-23T11:51:27.31</time>
      </trkpt>
      <trkpt lat="42.52019" lon="2.05791">
        <ele>1834.9229851933</ele>
        <time>2001-05-23T11:51:28.31</time>
      </trkpt>
      <trkpt lat="42.52019" lon="2.05791">
        <ele>1834.6640073715</ele>
        <time>2001-05-23T11:51:29.31</time>
      </trkpt>
      <trkpt lat="42.52018" lon="2.0579">
        <ele>1834.2587281447</ele>
        <time>2001-05-23T11:51:30.29</time>
      </trkpt>
      <trkpt lat="42.52018" lon="2.05789">
        <ele>1834.1608881207</ele>
        <time>2001-05-23T11:51:31.29</time>
      </trkpt>
      <trkpt lat="42.52017" lon="2.05788">
        <ele>1834.5347209219</ele>
        <time>2001-05-23T11:51:32.29</time>
      </trkpt>
      <trkpt lat="42.52016" lon="2.05786">
        <ele>1834.9230432592</ele>
        <time>2001-05-23T11:51:33.34</time>
      </trkpt>
      <trkpt lat="42.52016" lon="2.05785">
        <ele>1835.1950660462</ele>
        <time>2001-05-23T11:51:34.34</time>
      </trkpt>
      <trkpt lat="42.52017" lon="2.05783">
        <ele>1835.6836420637</ele>
        <time>2001-05-23T11:51:35.34</time>
      </trkpt>
      <trkpt lat="42.52015" lon="2.05783">
        <ele>1836.5408639638</ele>
        <time>2001-05-23T11:51:36.34</time>
      </trkpt>
      <trkpt lat="42.52014" lon="2.05782">
        <ele>1837.0344470048</ele>
        <time>2001-05-23T11:51:37.34</time>
      </trkpt>
      <trkpt lat="42.52013" lon="2.05781">
        <ele>1837.9541667223</ele>
        <time>2001-05-23T11:51:38.34</time>
      </trkpt>
      <trkpt lat="42.52013" lon="2.0578">
        <ele>1838.7009503383</ele>
        <time>2001-05-23T11:51:39.34</time>
      </trkpt>
      <trkpt lat="42.52014" lon="2.05779">
        <ele>1839.2913946036</ele>
        <time>2001-05-23T11:51:40.34</time>
      </trkpt>
      <trkpt lat="42.52014" lon="2.05778">
        <ele>1839.4779151041</ele>
        <time>2001-05-23T11:51:41.34</time>
      </trkpt>
      <trkpt lat="42.52014" lon="2.05778">
        <ele>1839.7129482858</ele>
        <time>2001-05-23T11:51:42.34</time>
      </trkpt>
      <trkpt lat="42.52013" lon="2.05778">
        <ele>1839.5933394983</ele>
        <time>2001-05-23T11:51:43.34</time>
      </trkpt>
      <trkpt lat="42.52011" lon="2.05777">
        <ele>1840.1989256263</ele>
        <time>2001-05-23T11:51:44.32</time>
      </trkpt>
      <trkpt lat="42.52011" lon="2.05776">
        <ele>1841.1521859821</ele>
        <time>2001-05-23T11:51:45.32</time>
      </trkpt>
      <trkpt lat="42.52011" lon="2.05775">
        <ele>1842.3234998357</ele>
        <time>2001-05-23T11:51:46.32</time>
      </trkpt>
      <trkpt lat="42.5201" lon="2.05773">
        <ele>1843.862706897</ele>
        <time>2001-05-23T11:51:47.32</time>
      </trkpt>
      <trkpt lat="42.52009" lon="2.05773">
        <ele>1845.4238354644</ele>
        <time>2001-05-23T11:51:48.32</time>
      </trkpt>
      <trkpt lat="42.52007" lon="2.05771">
        <ele>1846.4785851033</ele>
        <time>2001-05-23T11:51:49.32</time>
      </trkpt>
      <trkpt lat="42.52007" lon="2.05771">
        <ele>1847.3622161577</ele>
        <time>2001-05-23T11:51:50.32</time>
      </trkpt>
      <trkpt lat="42.52007" lon="2.05771">
        <ele>1848.0089906091</ele>
        <time>2001-05-23T11:51:51.32</time>
      </trkpt>
      <trkpt lat="42.52007" lon="2.05769">
        <ele>1848.5671804296</ele>
        <time>2001-05-23T11:51:52.32</time>
      </trkpt>
      <trkpt lat="42.52006" lon="2.05769">
        <ele>1848.9763002811</ele>
        <time>2001-05-23T11:51:53.32</time>
      </trkpt>
      <trkpt lat="42.52006" lon="2.05766">
        <ele>1848.9247398991</ele>
        <time>2001-05-23T11:51:54.30</time>
      </trkpt>
      <trkpt lat="42.52005" lon="2.05765">
        <ele>1848.5204467462</ele>
        <time>2001-05-23T11:51:55.30</time>
      </trkpt>
      <trkpt lat="42.52005" lon="2.05764">
        <ele>1848.0103234243</ele>
        <time>2001-05-23T11:51:56.30</time>
      </trkpt>
      <trkpt lat="42.52004" lon="2.05764">
        <ele>1847.3776269846</ele>
        <time>2001-05-23T11:51:57.30</time>
      </trkpt>
      <trkpt lat="42.52003" lon="2.05763">
        <ele>1847.0245684119</ele>
        <time>2001-05-23T11:51:58.30</time>
      </trkpt>
      <trkpt lat="42.52003" lon="2.05763">
        <ele>1847.028558206</ele>
        <time>2001-05-23T11:51:59.30</time>
      </trkpt>
      <trkpt lat="42.52004" lon="2.05761">
        <ele>1847.1199191315</ele>
        <time>2001-05-23T11:52:00.27</time>
      </trkpt>
      <trkpt lat="42.52004" lon="2.05761">
        <ele>1847.4617114918</ele>
        <time>2001-05-23T11:52:01.27</time>
      </trkpt>
      <trkpt lat="42.52003" lon="2.05759">
        <ele>1847.760850754</ele>
        <time>2001-05-23T11:52:02.27</time>
      </trkpt>
      <trkpt lat="42.52002" lon="2.05758">
        <ele>1847.9181637252</ele>
        <time>2001-05-23T11:52:03.27</time>
      </trkpt>
      <trkpt lat="42.52001" lon="2.05758">
        <ele>1847.9828401474</ele>
        <time>2001-05-23T11:52:04.27</time>
      </trkpt>
      <trkpt lat="42.52" lon="2.05757">
        <ele>1848.0870797293</ele>
        <time>2001-05-23T11:52:05.27</time>
      </trkpt>
      <trkpt lat="42.51998" lon="2.05756">
        <ele>1848.1611014055</ele>
        <time>2001-05-23T11:52:06.28</time>
      </trkpt>
      <trkpt lat="42.51997" lon="2.05755">
        <ele>1848.6437286351</ele>
        <time>2001-05-23T11:52:07.28</time>
      </trkpt>
      <trkpt lat="42.51996" lon="2.05754">
        <ele>1849.2453135528</ele>
        <time>2001-05-23T11:52:08.30</time>
      </trkpt>
      <trkpt lat="42.51996" lon="2.05754">
        <ele>1849.9150159456</ele>
        <time>2001-05-23T11:52:09.30</time>
      </trkpt>
      <trkpt lat="42.51996" lon="2.05751">
        <ele>1850.7074797878</ele>
        <time>2001-05-23T11:52:09.990</time>
      </trkpt>
      <trkpt lat="42.51996" lon="2.0575">
        <ele>1851.348386622</ele>
        <time>2001-05-23T11:52:10.990</time>
      </trkpt>
      <trkpt lat="42.51996" lon="2.05749">
        <ele>1851.6147560522</ele>
        <time>2001-05-23T11:52:11.990</time>
      </trkpt>
      <trkpt lat="42.51995" lon="2.05747">
        <ele>1851.6498488387</ele>
        <time>2001-05-23T11:52:12.990</time>
      </trkpt>
      <trkpt lat="42.51994" lon="2.05747">
        <ele>1851.8082567545</ele>
        <time>2001-05-23T11:52:13.990</time>
      </trkpt>
      <trkpt lat="42.51992" lon="2.05746">
        <ele>1852.0171499785</ele>
        <time>2001-05-23T11:52:14.990</time>
      </trkpt>
      <trkpt lat="42.51992" lon="2.05746">
        <ele>1852.0246286999</ele>
        <time>2001-05-23T11:52:15.990</time>
      </trkpt>
      <trkpt lat="42.51992" lon="2.05746">
        <ele>1851.8093603142</ele>
        <time>2001-05-23T11:52:16.990</time>
      </trkpt>
      <trkpt lat="42.51991" lon="2.05746">
        <ele>1851.5231495356</ele>
        <time>2001-05-23T11:52:17.990</time>
      </trkpt>
      <trkpt lat="42.5199" lon="2.05744">
        <ele>1851.1681657745</ele>
        <time>2001-05-23T11:52:18.994</time>
      </trkpt>
      <trkpt lat="42.51988" lon="2.05743">
        <ele>1850.7242105419</ele>
        <time>2001-05-23T11:52:19.994</time>
      </trkpt>
      <trkpt lat="42.51987" lon="2.05743">
        <ele>1850.4572149135</ele>
        <time>2001-05-23T11:52:20.994</time>
      </trkpt>
      <trkpt lat="42.51986" lon="2.05743">
        <ele>1849.6403114203</ele>
        <time>2001-05-23T11:52:21.994</time>
      </trkpt>
      <trkpt lat="42.51986" lon="2.05743">
        <ele>1848.6980743596</ele>
        <time>2001-05-23T11:52:22.994</time>
      </trkpt>
      <trkpt lat="42.51986" lon="2.05741">
        <ele>1847.7066333354</ele>
        <time>2001-05-23T11:52:23.994</time>
      </trkpt>
      <trkpt lat="42.51985" lon="2.05741">
        <ele>1846.8206495045</ele>
        <time>2001-05-23T11:52:24.994</time>
      </trkpt>
      <trkpt lat="42.51984" lon="2.0574">
        <ele>1846.0948817225</ele>
        <time>2001-05-23T11:52:25.994</time>
      </trkpt>
      <trkpt lat="42.51984" lon="2.05739">
        <ele>1846.114679333</ele>
        <time>2001-05-23T11:52:26.994</time>
      </trkpt>
      <trkpt lat="42.51983" lon="2.05738">
        <ele>1846.2345814897</ele>
        <time>2001-05-23T11:52:27.994</time>
      </trkpt>
      <trkpt lat="42.51983" lon="2.05738">
        <ele>1846.1785558365</ele>
        <time>2001-05-23T11:52:28.994</time>
      </trkpt>
      <trkpt lat="42.51983" lon="2.05737">
        <ele>1845.8701343192</ele>
        <time>2001-05-23T11:52:29.994</time>
      </trkpt>
      <trkpt lat="42.51983" lon="2.05735">
        <ele>1845.5595149945</ele>
        <time>2001-05-23T11:52:30.994</time>
      </trkpt>
      <trkpt lat="42.51983" lon="2.05734">
        <ele>1845.2314374231</ele>
        <time>2001-05-23T11:52:31.994</time>
      </trkpt>
      <trkpt lat="42.51982" lon="2.05733">
        <ele>1845.2901318466</ele>
        <time>2001-05-23T11:52:32.994</time>
      </trkpt>
      <trkpt lat="42.51981" lon="2.05732">
        <ele>1845.802020544</ele>
        <time>2001-05-23T11:52:33.994</time>
      </trkpt>
      <trkpt lat="42.5198" lon="2.05731">
        <ele>1846.4669728948</ele>
        <time>2001-05-23T11:52:34.994</time>
      </trkpt>
      <trkpt lat="42.5198" lon="2.0573">
        <ele>1847.1860957514</ele>
        <time>2001-05-23T11:52:35.994</time>
      </trkpt>
      <trkpt lat="42.51981" lon="2.0573">
        <ele>1847.9617409153</ele>
        <time>2001-05-23T11:52:36.994</time>
      </trkpt>
      <trkpt lat="42.5198" lon="2.05729">
        <ele>1848.5674560344</ele>
        <time>2001-05-23T11:52:37.994</time>
      </trkpt>
      <trkpt lat="42.51978" lon="2.05727">
        <ele>1849.2086035777</ele>
        <time>2001-05-23T11:52:38.991</time>
      </trkpt>
      <trkpt lat="42.51976" lon="2.05727">
        <ele>1849.9877981281</ele>
        <time>2001-05-23T11:52:39.991</time>
      </trkpt>
      <trkpt lat="42.51975" lon="2.05726">
        <ele>1850.5790014921</ele>
        <time>2001-05-23T11:52:40.991</time>
      </trkpt>
      <trkpt lat="42.51975" lon="2.05725">
        <ele>1850.9944020333</ele>
        <time>2001-05-23T11:52:41.991</time>
      </trkpt>
      <trkpt lat="42.51974" lon="2.05725">
        <ele>1851.2729153559</ele>
        <time>2001-05-23T11:52:42.991</time>
      </trkpt>
      <trkpt lat="42.51974" lon="2.05724">
        <ele>1851.2682253465</ele>
        <time>2001-05-23T11:52:43.991</time>
      </trkpt>
      <trkpt lat="42.51975" lon="2.05723">
        <ele>1851.2328596307</ele>
        <time>2001-05-23T11:52:44.991</time>
      </trkpt>
      <trkpt lat="42.51975" lon="2.05721">
        <ele>1851.5116049504</ele>
        <time>2001-05-23T11:52:45.991</time>
      </trkpt>
      <trkpt lat="42.51975" lon="2.0572">
        <ele>1851.8091741102</ele>
        <time>2001-05-23T11:52:46.991</time>
      </trkpt>
      <trkpt lat="42.51975" lon="2.05721">
        <ele>1852.0642629029</ele>
        <time>2001-05-23T11:52:47.991</time>
      </trkpt>
      <trkpt lat="42.51975" lon="2.0572">
        <ele>1852.2762907207</ele>
        <time>2001-05-23T11:52:48.991</time>
      </trkpt>
      <trkpt lat="42.51974" lon="2.0572">
        <ele>1852.1503976481</ele>
        <time>2001-05-23T11:52:49.991</time>
      </trkpt>
      <trkpt lat="42.51973" lon="2.0572">
        <ele>1851.7338004537</ele>
        <time>2001-05-23T11:52:50.991</time>
      </trkpt>
      <trkpt lat="42.51972" lon="2.0572">
        <ele>1851.3278813841</ele>
        <time>2001-05-23T11:52:51.991</time>
      </trkpt>
      <trkpt lat="42.5197" lon="2.05719">
        <ele>1851.1967525981</ele>
        <time>2001-05-23T11:52:52.991</time>
      </trkpt>
      <trkpt lat="42.51969" lon="2.05718">
        <ele>1851.3483856203</ele>
        <time>2001-05-23T11:52:53.991</time>
      </trkpt>
      <trkpt lat="42.51969" lon="2.05717">
        <ele>1851.8288663641</ele>
        <time>2001-05-23T11:52:54.991</time>
      </trkpt>
      <trkpt lat="42.51969" lon="2.05716">
        <ele>1852.5007831385</ele>
        <time>2001-05-23T11:52:55.991</time>
      </trkpt>
      <trkpt lat="42.51969" lon="2.05715">
        <ele>1853.2141916253</ele>
        <time>2001-05-23T11:52:56.991</time>
      </trkpt>
      <trkpt lat="42.51969" lon="2.05714">
        <ele>1853.8446867786</ele>
        <time>2001-05-23T11:52:57.991</time>
      </trkpt>
      <trkpt lat="42.51968" lon="2.05713">
        <ele>1854.0726362774</ele>
        <time>2001-05-23T11:52:58.991</time>
      </trkpt>
      <trkpt lat="42.51967" lon="2.05713">
        <ele>1853.5875004511</ele>
        <time>2001-05-23T11:52:59.990</time>
      </trkpt>
      <trkpt lat="42.51967" lon="2.05712">
        <ele>1853.2505127065</ele>
        <time>2001-05-23T11:53:00.990</time>
      </trkpt>
      <trkpt lat="42.51965" lon="2.05711">
        <ele>1853.2881683361</ele>
        <time>2001-05-23T11:53:01.990</time>
      </trkpt>
      <trkpt lat="42.51965" lon="2.05711">
        <ele>1853.1340150109</ele>
        <time>2001-05-23T11:53:02.990</time>
      </trkpt>
      <trkpt lat="42.51966" lon="2.05709">
        <ele>1853.2329112023</ele>
        <time>2001-05-23T11:53:03.990</time>
      </trkpt>
      <trkpt lat="42.51966" lon="2.05708">
        <ele>1853.9177178508</ele>
        <time>2001-05-23T11:53:04.990</time>
      </trkpt>
      <trkpt lat="42.51965" lon="2.05706">
        <ele>1854.3246886404</ele>
        <time>2001-05-23T11:53:05.990</time>
      </trkpt>
      <trkpt lat="42.51964" lon="2.05705">
        <ele>1854.4747213362</ele>
        <time>2001-05-23T11:53:06.990</time>
      </trkpt>
      <trkpt lat="42.51963" lon="2.05705">
        <ele>1854.3523800055</ele>
        <time>2001-05-23T11:53:07.990</time>
      </trkpt>
      <trkpt lat="42.51962" lon="2.05704">
        <ele>1853.9293456081</ele>
        <time>2001-05-23T11:53:08.990</time>
      </trkpt>
      <trkpt lat="42.51962" lon="2.05704">
        <ele>1853.5485585803</ele>
        <time>2001-05-23T11:53:09.990</time>
      </trkpt>
      <trkpt lat="42.51961" lon="2.05704">
        <ele>1853.1185853187</ele>
        <time>2001-05-23T11:53:10.990</time>
      </trkpt>
      <trkpt lat="42.5196" lon="2.05703">
        <ele>1851.6979191827</ele>
        <time>2001-05-23T11:53:11.989</time>
      </trkpt>
      <trkpt lat="42.5196" lon="2.05703">
        <ele>1850.5031612236</ele>
        <time>2001-05-23T11:53:12.989</time>
      </trkpt>
      <trkpt lat="42.5196" lon="2.057">
        <ele>1849.8972342486</ele>
        <time>2001-05-23T11:53:13.991</time>
      </trkpt>
      <trkpt lat="42.5196" lon="2.057">
        <ele>1849.4339522313</ele>
        <time>2001-05-23T11:53:14.991</time>
      </trkpt>
      <trkpt lat="42.51959" lon="2.05698">
        <ele>1849.0798790123</ele>
        <time>2001-05-23T11:53:15.991</time>
      </trkpt>
      <trkpt lat="42.51958" lon="2.05698">
        <ele>1849.9864437452</ele>
        <time>2001-05-23T11:53:16.988</time>
      </trkpt>
      <trkpt lat="42.51958" lon="2.05697">
        <ele>1851.5707609177</ele>
        <time>2001-05-23T11:53:17.988</time>
      </trkpt>
      <trkpt lat="42.51957" lon="2.05695">
        <ele>1852.637537577</ele>
        <time>2001-05-23T11:53:18.991</time>
      </trkpt>
      <trkpt lat="42.51957" lon="2.05693">
        <ele>1853.3765723135</ele>
        <time>2001-05-23T11:53:19.991</time>
      </trkpt>
      <trkpt lat="42.51956" lon="2.05692">
        <ele>1854.0390657606</ele>
        <time>2001-05-23T11:53:20.991</time>
      </trkpt>
      <trkpt lat="42.51955" lon="2.05691">
        <ele>1854.2311785689</ele>
        <time>2001-05-23T11:53:21.991</time>
      </trkpt>
      <trkpt lat="42.51955" lon="2.0569">
        <ele>1853.6380194811</ele>
        <time>2001-05-23T11:53:22.991</time>
      </trkpt>
      <trkpt lat="42.51955" lon="2.0569">
        <ele>1853.0645310819</ele>
        <time>2001-05-23T11:53:23.991</time>
      </trkpt>
      <trkpt lat="42.51954" lon="2.0569">
        <ele>1852.5406114254</ele>
        <time>2001-05-23T11:53:24.991</time>
      </trkpt>
      <trkpt lat="42.51954" lon="2.0569">
        <ele>1851.9979339661</ele>
        <time>2001-05-23T11:53:25.991</time>
      </trkpt>
      <trkpt lat="42.51952" lon="2.0569">
        <ele>1851.7362772472</ele>
        <time>2001-05-23T11:53:26.992</time>
      </trkpt>
      <trkpt lat="42.51952" lon="2.0569">
        <ele>1851.7336561725</ele>
        <time>2001-05-23T11:53:27.992</time>
      </trkpt>
      <trkpt lat="42.51952" lon="2.05688">
        <ele>1852.2054883035</ele>
        <time>2001-05-23T11:53:28.990</time>
      </trkpt>
      <trkpt lat="42.51952" lon="2.05687">
        <ele>1852.6121107802</ele>
        <time>2001-05-23T11:53:29.990</time>
      </trkpt>
      <trkpt lat="42.51952" lon="2.05686">
        <ele>1853.1336733846</ele>
        <time>2001-05-23T11:53:30.990</time>
      </trkpt>
      <trkpt lat="42.51951" lon="2.05685">
        <ele>1853.5239846529</ele>
        <time>2001-05-23T11:53:31.990</time>
      </trkpt>
      <trkpt lat="42.51951" lon="2.05684">
        <ele>1853.8924757473</ele>
        <time>2001-05-23T11:53:32.990</time>
      </trkpt>
      <trkpt lat="42.5195" lon="2.05683">
        <ele>1853.8967315873</ele>
        <time>2001-05-23T11:53:33.990</time>
      </trkpt>
      <trkpt lat="42.5195" lon="2.05682">
        <ele>1853.642338836</ele>
        <time>2001-05-23T11:53:34.990</time>
      </trkpt>
      <trkpt lat="42.51951" lon="2.05681">
        <ele>1852.8389851315</ele>
        <time>2001-05-23T11:53:35.990</time>
      </trkpt>
      <trkpt lat="42.51951" lon="2.0568">
        <ele>1851.8764503347</ele>
        <time>2001-05-23T11:53:36.990</time>
      </trkpt>
      <trkpt lat="42.5195" lon="2.05678">
        <ele>1850.931996304</ele>
        <time>2001-05-23T11:53:37.990</time>
      </trkpt>
      <trkpt lat="42.5195" lon="2.05677">
        <ele>1849.987731649</ele>
        <time>2001-05-23T11:53:38.990</time>
      </trkpt>
      <trkpt lat="42.51949" lon="2.05676">
        <ele>1849.5144557146</ele>
        <time>2001-05-23T11:53:39.990</time>
      </trkpt>
      <trkpt lat="42.5195" lon="2.05675">
        <ele>1849.5397158101</ele>
        <time>2001-05-23T11:53:40.990</time>
      </trkpt>
      <trkpt lat="42.51949" lon="2.05674">
        <ele>1849.5437950375</ele>
        <time>2001-05-23T11:53:41.990</time>
      </trkpt>
      <trkpt lat="42.51949" lon="2.05673">
        <ele>1849.4886684364</ele>
        <time>2001-05-23T11:53:42.990</time>
      </trkpt>
      <trkpt lat="42.51948" lon="2.05672">
        <ele>1849.4756680137</ele>
        <time>2001-05-23T11:53:43.990</time>
      </trkpt>
      <trkpt lat="42.51948" lon="2.05671">
        <ele>1849.6525501056</ele>
        <time>2001-05-23T11:53:44.990</time>
      </trkpt>
      <trkpt lat="42.51947" lon="2.0567">
        <ele>1849.9930006854</ele>
        <time>2001-05-23T11:53:45.990</time>
      </trkpt>
      <trkpt lat="42.51947" lon="2.05669">
        <ele>1850.6988601234</ele>
        <time>2001-05-23T11:53:46.990</time>
      </trkpt>
      <trkpt lat="42.51949" lon="2.05667">
        <ele>1851.441031808</ele>
        <time>2001-05-23T11:53:47.990</time>
      </trkpt>
      <trkpt lat="42.51949" lon="2.05666">
        <ele>1852.0400274377</ele>
        <time>2001-05-23T11:53:48.990</time>
      </trkpt>
      <trkpt lat="42.51949" lon="2.05666">
        <ele>1852.4194003519</ele>
        <time>2001-05-23T11:53:49.990</time>
      </trkpt>
      <trkpt lat="42.51949" lon="2.05665">
        <ele>1852.6335667264</ele>
        <time>2001-05-23T11:53:50.990</time>
      </trkpt>
      <trkpt lat="42.51949" lon="2.05665">
        <ele>1852.5957363309</ele>
        <time>2001-05-23T11:53:51.990</time>
      </trkpt>
      <trkpt lat="42.51949" lon="2.05663">
        <ele>1852.5968207801</ele>
        <time>2001-05-23T11:53:52.991</time>
      </trkpt>
      <trkpt lat="42.5195" lon="2.05661">
        <ele>1851.8561869396</ele>
        <time>2001-05-23T11:53:53.991</time>
      </trkpt>
      <trkpt lat="42.51951" lon="2.05659">
        <ele>1850.999734359</ele>
        <time>2001-05-23T11:53:54.991</time>
      </trkpt>
      <trkpt lat="42.51951" lon="2.05658">
        <ele>1850.0875554692</ele>
        <time>2001-05-23T11:53:55.991</time>
      </trkpt>
      <trkpt lat="42.51951" lon="2.05656">
        <ele>1849.1915330196</ele>
        <time>2001-05-23T11:53:56.991</time>
      </trkpt>
      <trkpt lat="42.5195" lon="2.05655">
        <ele>1848.5126865152</ele>
        <time>2001-05-23T11:53:57.991</time>
      </trkpt>
      <trkpt lat="42.5195" lon="2.05653">
        <ele>1848.6837433053</ele>
        <time>2001-05-23T11:53:58.991</time>
      </trkpt>
      <trkpt lat="42.51951" lon="2.05652">
        <ele>1849.1014124807</ele>
        <time>2001-05-23T11:53:59.991</time>
      </trkpt>
      <trkpt lat="42.51951" lon="2.05651">
        <ele>1849.362771856</ele>
        <time>2001-05-23T11:54:00.991</time>
      </trkpt>
      <trkpt lat="42.51951" lon="2.0565">
        <ele>1849.7799017888</ele>
        <time>2001-05-23T11:54:01.991</time>
      </trkpt>
      <trkpt lat="42.51951" lon="2.0565">
        <ele>1849.9675739212</ele>
        <time>2001-05-23T11:54:02.991</time>
      </trkpt>
      <trkpt lat="42.51951" lon="2.05649">
        <ele>1850.2725386765</ele>
        <time>2001-05-23T11:54:03.988</time>
      </trkpt>
      <trkpt lat="42.51952" lon="2.05647">
        <ele>1849.9651991423</ele>
        <time>2001-05-23T11:54:04.988</time>
      </trkpt>
      <trkpt lat="42.51953" lon="2.05646">
        <ele>1849.6027699184</ele>
        <time>2001-05-23T11:54:05.988</time>
      </trkpt>
      <trkpt lat="42.51952" lon="2.05644">
        <ele>1849.3141016295</ele>
        <time>2001-05-23T11:54:06.988</time>
      </trkpt>
      <trkpt lat="42.51951" lon="2.05643">
        <ele>1849.1713924218</ele>
        <time>2001-05-23T11:54:07.988</time>
      </trkpt>
      <trkpt lat="42.51949" lon="2.05642">
        <ele>1848.8209530054</ele>
        <time>2001-05-23T11:54:08.988</time>
      </trkpt>
      <trkpt lat="42.51949" lon="2.05641">
        <ele>1848.9305659402</ele>
        <time>2001-05-23T11:54:09.988</time>
      </trkpt>
      <trkpt lat="42.51948" lon="2.0564">
        <ele>1849.185157185</ele>
        <time>2001-05-23T11:54:10.988</time>
      </trkpt>
      <trkpt lat="42.51949" lon="2.0564">
        <ele>1848.7025588766</ele>
        <time>2001-05-23T11:54:11.988</time>
      </trkpt>
      <trkpt lat="42.51949" lon="2.05639">
        <ele>1847.9597814947</ele>
        <time>2001-05-23T11:54:12.988</time>
      </trkpt>
      <trkpt lat="42.51949" lon="2.05638">
        <ele>1847.2984610856</ele>
        <time>2001-05-23T11:54:13.988</time>
      </trkpt>
      <trkpt lat="42.51949" lon="2.05637">
        <ele>1846.5596139176</ele>
        <time>2001-05-23T11:54:14.988</time>
      </trkpt>
      <trkpt lat="42.51947" lon="2.05636">
        <ele>1846.0663748281</ele>
        <time>2001-05-23T11:54:15.985</time>
      </trkpt>
      <trkpt lat="42.51947" lon="2.05635">
        <ele>1846.3192605551</ele>
        <time>2001-05-23T11:54:16.985</time>
      </trkpt>
      <trkpt lat="42.51947" lon="2.05634">
        <ele>1846.6449892113</ele>
        <time>2001-05-23T11:54:17.986</time>
      </trkpt>
      <trkpt lat="42.51946" lon="2.05633">
        <ele>1846.8985895175</ele>
        <time>2001-05-23T11:54:18.986</time>
      </trkpt>
      <trkpt lat="42.51947" lon="2.05632">
        <ele>1847.3326635124</ele>
        <time>2001-05-23T11:54:19.985</time>
      </trkpt>
      <trkpt lat="42.51947" lon="2.05631">
        <ele>1847.5834775891</ele>
        <time>2001-05-23T11:54:20.985</time>
      </trkpt>
      <trkpt lat="42.51947" lon="2.05629">
        <ele>1847.6618665596</ele>
        <time>2001-05-23T11:54:21.985</time>
      </trkpt>
      <trkpt lat="42.51946" lon="2.05628">
        <ele>1847.9882679259</ele>
        <time>2001-05-23T11:54:22.985</time>
      </trkpt>
      <trkpt lat="42.51946" lon="2.05626">
        <ele>1848.5050866717</ele>
        <time>2001-05-23T11:54:23.985</time>
      </trkpt>
      <trkpt lat="42.51946" lon="2.05625">
        <ele>1849.2231874462</ele>
        <time>2001-05-23T11:54:24.985</time>
      </trkpt>
      <trkpt lat="42.51947" lon="2.05623">
        <ele>1849.9322062714</ele>
        <time>2001-05-23T11:54:25.985</time>
      </trkpt>
      <trkpt lat="42.51946" lon="2.05621">
        <ele>1850.5102726592</ele>
        <time>2001-05-23T11:54:26.985</time>
      </trkpt>
      <trkpt lat="42.51945" lon="2.0562">
        <ele>1851.0105082745</ele>
        <time>2001-05-23T11:54:27.985</time>
      </trkpt>
      <trkpt lat="42.51945" lon="2.05619">
        <ele>1851.5095485773</ele>
        <time>2001-05-23T11:54:28.985</time>
      </trkpt>
      <trkpt lat="42.51945" lon="2.05618">
        <ele>1851.8837698858</ele>
        <time>2001-05-23T11:54:29.985</time>
      </trkpt>
      <trkpt lat="42.51945" lon="2.05617">
        <ele>1852.4142164456</ele>
        <time>2001-05-23T11:54:30.985</time>
      </trkpt>
      <trkpt lat="42.51944" lon="2.05617">
        <ele>1852.9810718754</ele>
        <time>2001-05-23T11:54:31.985</time>
      </trkpt>
      <trkpt lat="42.51945" lon="2.05615">
        <ele>1853.2190896912</ele>
        <time>2001-05-23T11:54:32.985</time>
      </trkpt>
      <trkpt lat="42.51945" lon="2.05614">
        <ele>1853.0217809832</ele>
        <time>2001-05-23T11:54:33.985</time>
      </trkpt>
      <trkpt lat="42.51943" lon="2.05614">
        <ele>1852.4122927736</ele>
        <time>2001-05-23T11:54:34.984</time>
      </trkpt>
      <trkpt lat="42.51941" lon="2.05614">
        <ele>1852.0865881462</ele>
        <time>2001-05-23T11:54:35.984</time>
      </trkpt>
      <trkpt lat="42.51942" lon="2.05613">
        <ele>1851.8312983572</ele>
        <time>2001-05-23T11:54:36.984</time>
      </trkpt>
      <trkpt lat="42.51942" lon="2.05612">
        <ele>1852.0591472842</ele>
        <time>2001-05-23T11:54:37.984</time>
      </trkpt>
      <trkpt lat="42.51944" lon="2.0561">
        <ele>1852.188285324</ele>
        <time>2001-05-23T11:54:38.984</time>
      </trkpt>
      <trkpt lat="42.51943" lon="2.05608">
        <ele>1852.4342651706</ele>
        <time>2001-05-23T11:54:39.984</time>
      </trkpt>
      <trkpt lat="42.51942" lon="2.05607">
        <ele>1852.1206420459</ele>
        <time>2001-05-23T11:54:40.984</time>
      </trkpt>
      <trkpt lat="42.51941" lon="2.05607">
        <ele>1852.1851908486</ele>
        <time>2001-05-23T11:54:41.984</time>
      </trkpt>
      <trkpt lat="42.51941" lon="2.05606">
        <ele>1851.9128189778</ele>
        <time>2001-05-23T11:54:42.984</time>
      </trkpt>
      <trkpt lat="42.51941" lon="2.05605">
        <ele>1852.0343504839</ele>
        <time>2001-05-23T11:54:43.984</time>
      </trkpt>
      <trkpt lat="42.51939" lon="2.05603">
        <ele>1852.4471791921</ele>
        <time>2001-05-23T11:54:44.984</time>
      </trkpt>
      <trkpt lat="42.51937" lon="2.05602">
        <ele>1853.2042134466</ele>
        <time>2001-05-23T11:54:45.984</time>
      </trkpt>
      <trkpt lat="42.51936" lon="2.05601">
        <ele>1853.3929433238</ele>
        <time>2001-05-23T11:54:46.984</time>
      </trkpt>
      <trkpt lat="42.51935" lon="2.056">
        <ele>1853.6269465506</ele>
        <time>2001-05-23T11:54:47.984</time>
      </trkpt>
      <trkpt lat="42.51935" lon="2.05598">
        <ele>1853.8599812541</ele>
        <time>2001-05-23T11:54:48.984</time>
      </trkpt>
      <trkpt lat="42.51935" lon="2.05596">
        <ele>1853.9768722123</ele>
        <time>2001-05-23T11:54:49.984</time>
      </trkpt>
      <trkpt lat="42.51933" lon="2.05596">
        <ele>1854.4420661742</ele>
        <time>2001-05-23T11:54:50.984</time>
      </trkpt>
      <trkpt lat="42.51933" lon="2.05595">
        <ele>1855.3528824512</ele>
        <time>2001-05-23T11:54:51.984</time>
      </trkpt>
      <trkpt lat="42.51933" lon="2.05594">
        <ele>1856.337433479</ele>
        <time>2001-05-23T11:54:52.984</time>
      </trkpt>
      <trkpt lat="42.51932" lon="2.05593">
        <ele>1857.4134051355</ele>
        <time>2001-05-23T11:54:53.984</time>
      </trkpt>
      <trkpt lat="42.51931" lon="2.05592">
        <ele>1858.555750645</ele>
        <time>2001-05-23T11:54:54.984</time>
      </trkpt>
      <trkpt lat="42.51931" lon="2.05591">
        <ele>1859.227779142</ele>
        <time>2001-05-23T11:54:55.984</time>
      </trkpt>
      <trkpt lat="42.51931" lon="2.0559">
        <ele>1859.5594662495</ele>
        <time>2001-05-23T11:54:56.984</time>
      </trkpt>
      <trkpt lat="42.51932" lon="2.05589">
        <ele>1859.4543656807</ele>
        <time>2001-05-23T11:54:57.984</time>
      </trkpt>
      <trkpt lat="42.51931" lon="2.05588">
        <ele>1859.2390667485</ele>
        <time>2001-05-23T11:54:58.984</time>
      </trkpt>
      <trkpt lat="42.51932" lon="2.05587">
        <ele>1858.800348635</ele>
        <time>2001-05-23T11:54:59.984</time>
      </trkpt>
      <trkpt lat="42.51932" lon="2.05586">
        <ele>1858.4226057122</ele>
        <time>2001-05-23T11:55:00.984</time>
      </trkpt>
      <trkpt lat="42.51931" lon="2.05585">
        <ele>1857.9939445211</ele>
        <time>2001-05-23T11:55:01.984</time>
      </trkpt>
      <trkpt lat="42.51931" lon="2.05584">
        <ele>1857.894281543</ele>
        <time>2001-05-23T11:55:02.984</time>
      </trkpt>
      <trkpt lat="42.51931" lon="2.05585">
        <ele>1857.8808531353</ele>
        <time>2001-05-23T11:55:03.984</time>
      </trkpt>
      <trkpt lat="42.5193" lon="2.05583">
        <ele>1857.8279878948</ele>
        <time>2001-05-23T11:55:04.984</time>
      </trkpt>
      <trkpt lat="42.51929" lon="2.05582">
        <ele>1857.5852883797</ele>
        <time>2001-05-23T11:55:05.984</time>
      </trkpt>
      <trkpt lat="42.51929" lon="2.05581">
        <ele>1857.2161995456</ele>
        <time>2001-05-23T11:55:06.984</time>
      </trkpt>
      <trkpt lat="42.51929" lon="2.05581">
        <ele>1856.7506044241</ele>
        <time>2001-05-23T11:55:07.984</time>
      </trkpt>
      <trkpt lat="42.51928" lon="2.0558">
        <ele>1856.3955181211</ele>
        <time>2001-05-23T11:55:08.984</time>
      </trkpt>
      <trkpt lat="42.51927" lon="2.05579">
        <ele>1856.4738923201</ele>
        <time>2001-05-23T11:55:09.984</time>
      </trkpt>
      <trkpt lat="42.51926" lon="2.05577">
        <ele>1856.4335913906</ele>
        <time>2001-05-23T11:55:10.984</time>
      </trkpt>
      <trkpt lat="42.51927" lon="2.05575">
        <ele>1856.3630669409</ele>
        <time>2001-05-23T11:55:11.984</time>
      </trkpt>
      <trkpt lat="42.51926" lon="2.05574">
        <ele>1856.4138966568</ele>
        <time>2001-05-23T11:55:12.984</time>
      </trkpt>
      <trkpt lat="42.51926" lon="2.05573">
        <ele>1856.2704047792</ele>
        <time>2001-05-23T11:55:13.984</time>
      </trkpt>
      <trkpt lat="42.51926" lon="2.05572">
        <ele>1855.6985501831</ele>
        <time>2001-05-23T11:55:14.984</time>
      </trkpt>
      <trkpt lat="42.51926" lon="2.05571">
        <ele>1855.3335485481</ele>
        <time>2001-05-23T11:55:15.984</time>
      </trkpt>
      <trkpt lat="42.51926" lon="2.05569">
        <ele>1855.4315600494</ele>
        <time>2001-05-23T11:55:16.983</time>
      </trkpt>
      <trkpt lat="42.51925" lon="2.05567">
        <ele>1855.7443927493</ele>
        <time>2001-05-23T11:55:17.983</time>
      </trkpt>
      <trkpt lat="42.51926" lon="2.05565">
        <ele>1855.5460442381</ele>
        <time>2001-05-23T11:55:18.983</time>
      </trkpt>
      <trkpt lat="42.51925" lon="2.05565">
        <ele>1855.610888638</ele>
        <time>2001-05-23T11:55:19.983</time>
      </trkpt>
      <trkpt lat="42.51924" lon="2.05564">
        <ele>1855.8286063006</ele>
        <time>2001-05-23T11:55:20.983</time>
      </trkpt>
      <trkpt lat="42.51923" lon="2.05564">
        <ele>1855.7155370221</ele>
        <time>2001-05-23T11:55:21.983</time>
      </trkpt>
      <trkpt lat="42.51922" lon="2.05563">
        <ele>1855.2581773294</ele>
        <time>2001-05-23T11:55:22.983</time>
      </trkpt>
      <trkpt lat="42.51923" lon="2.05562">
        <ele>1855.2588681005</ele>
        <time>2001-05-23T11:55:23.983</time>
      </trkpt>
      <trkpt lat="42.51923" lon="2.05561">
        <ele>1855.0260580301</ele>
        <time>2001-05-23T11:55:24.983</time>
      </trkpt>
      <trkpt lat="42.51923" lon="2.0556">
        <ele>1854.4995816991</ele>
        <time>2001-05-23T11:55:25.983</time>
      </trkpt>
      <trkpt lat="42.51923" lon="2.05559">
        <ele>1854.5866442576</ele>
        <time>2001-05-23T11:55:26.986</time>
      </trkpt>
      <trkpt lat="42.51923" lon="2.05558">
        <ele>1854.620777992</ele>
        <time>2001-05-23T11:55:27.986</time>
      </trkpt>
      <trkpt lat="42.51923" lon="2.05556">
        <ele>1854.8198010083</ele>
        <time>2001-05-23T11:55:28.987</time>
      </trkpt>
      <trkpt lat="42.51923" lon="2.05555">
        <ele>1855.1140782822</ele>
        <time>2001-05-23T11:55:29.987</time>
      </trkpt>
      <trkpt lat="42.51924" lon="2.05554">
        <ele>1855.5114169523</ele>
        <time>2001-05-23T11:55:30.987</time>
      </trkpt>
      <trkpt lat="42.5192" lon="2.05555">
        <ele>1855.8848626381</ele>
        <time>2001-05-23T11:55:31.986</time>
      </trkpt>
      <trkpt lat="42.51918" lon="2.05555">
        <ele>1856.6829048898</ele>
        <time>2001-05-23T11:55:32.986</time>
      </trkpt>
      <trkpt lat="42.51918" lon="2.05555">
        <ele>1857.385685017</ele>
        <time>2001-05-23T11:55:33.986</time>
      </trkpt>
      <trkpt lat="42.51919" lon="2.05554">
        <ele>1857.980510447</ele>
        <time>2001-05-23T11:55:34.986</time>
      </trkpt>
      <trkpt lat="42.51918" lon="2.05554">
        <ele>1859.1065916054</ele>
        <time>2001-05-23T11:55:35.991</time>
      </trkpt>
      <trkpt lat="42.51918" lon="2.05553">
        <ele>1859.5986754071</ele>
        <time>2001-05-23T11:55:36.991</time>
      </trkpt>
      <trkpt lat="42.51919" lon="2.05553">
        <ele>1859.666147607</ele>
        <time>2001-05-23T11:55:37.959</time>
      </trkpt>
      <trkpt lat="42.51919" lon="2.05553">
        <ele>1859.7336198069</ele>
        <time>2001-05-23T11:55:38.959</time>
      </trkpt>
      <trkpt lat="42.51917" lon="2.05553">
        <ele>1859.781146808</ele>
        <time>2001-05-23T11:55:39.987</time>
      </trkpt>
      <trkpt lat="42.51916" lon="2.05554">
        <ele>1859.2689889869</ele>
        <time>2001-05-23T11:55:40.987</time>
      </trkpt>
      <trkpt lat="42.51916" lon="2.05555">
        <ele>1858.9344960602</ele>
        <time>2001-05-23T11:55:41.987</time>
      </trkpt>
      <trkpt lat="42.51915" lon="2.05556">
        <ele>1858.8974400505</ele>
        <time>2001-05-23T11:55:42.987</time>
      </trkpt>
      <trkpt lat="42.51914" lon="2.05556">
        <ele>1858.9931718566</ele>
        <time>2001-05-23T11:55:43.987</time>
      </trkpt>
      <trkpt lat="42.51913" lon="2.05557">
        <ele>1859.2662095407</ele>
        <time>2001-05-23T11:55:44.987</time>
      </trkpt>
      <trkpt lat="42.51912" lon="2.05558">
        <ele>1859.3770395096</ele>
        <time>2001-05-23T11:55:45.987</time>
      </trkpt>
      <trkpt lat="42.51912" lon="2.05559">
        <ele>1859.3492947489</ele>
        <time>2001-05-23T11:55:46.987</time>
      </trkpt>
      <trkpt lat="42.51912" lon="2.05559">
        <ele>1859.14837655</ele>
        <time>2001-05-23T11:55:47.987</time>
      </trkpt>
      <trkpt lat="42.51911" lon="2.0556">
        <ele>1858.7536035424</ele>
        <time>2001-05-23T11:55:48.987</time>
      </trkpt>
      <trkpt lat="42.51909" lon="2.05561">
        <ele>1858.8546124138</ele>
        <time>2001-05-23T11:55:49.989</time>
      </trkpt>
      <trkpt lat="42.51908" lon="2.0556">
        <ele>1859.1867302014</ele>
        <time>2001-05-23T11:55:50.989</time>
      </trkpt>
      <trkpt lat="42.51907" lon="2.05561">
        <ele>1859.7385006998</ele>
        <time>2001-05-23T11:55:51.989</time>
      </trkpt>
      <trkpt lat="42.51906" lon="2.05562">
        <ele>1860.2826886458</ele>
        <time>2001-05-23T11:55:52.989</time>
      </trkpt>
      <trkpt lat="42.51905" lon="2.05563">
        <ele>1860.830348625</ele>
        <time>2001-05-23T11:55:53.989</time>
      </trkpt>
      <trkpt lat="42.51903" lon="2.05564">
        <ele>1860.9675060067</ele>
        <time>2001-05-23T11:55:54.989</time>
      </trkpt>
      <trkpt lat="42.51902" lon="2.05565">
        <ele>1860.8477625143</ele>
        <time>2001-05-23T11:55:55.989</time>
      </trkpt>
      <trkpt lat="42.51901" lon="2.05565">
        <ele>1860.7870320516</ele>
        <time>2001-05-23T11:55:56.989</time>
      </trkpt>
      <trkpt lat="42.519" lon="2.05566">
        <ele>1860.8188724192</ele>
        <time>2001-05-23T11:55:57.989</time>
      </trkpt>
      <trkpt lat="42.51899" lon="2.05566">
        <ele>1860.8736094812</ele>
        <time>2001-05-23T11:55:58.989</time>
      </trkpt>
      <trkpt lat="42.519" lon="2.05566">
        <ele>1860.3656897048</ele>
        <time>2001-05-23T11:55:59.989</time>
      </trkpt>
      <trkpt lat="42.51899" lon="2.05566">
        <ele>1860.3788345598</ele>
        <time>2001-05-23T11:56:00.989</time>
      </trkpt>
      <trkpt lat="42.51897" lon="2.05566">
        <ele>1860.4634473903</ele>
        <time>2001-05-23T11:56:01.989</time>
      </trkpt>
      <trkpt lat="42.51897" lon="2.05567">
        <ele>1860.4651825136</ele>
        <time>2001-05-23T11:56:02.989</time>
      </trkpt>
      <trkpt lat="42.51898" lon="2.05568">
        <ele>1860.2263684131</ele>
        <time>2001-05-23T11:56:03.989</time>
      </trkpt>
      <trkpt lat="42.519" lon="2.0557">
        <ele>1860.2578625521</ele>
        <time>2001-05-23T11:56:04.989</time>
      </trkpt>
      <trkpt lat="42.51903" lon="2.05571">
        <ele>1859.609587536</ele>
        <time>2001-05-23T11:56:05.989</time>
      </trkpt>
      <trkpt lat="42.51904" lon="2.05572">
        <ele>1858.6730816489</ele>
        <time>2001-05-23T11:56:06.989</time>
      </trkpt>
      <trkpt lat="42.51904" lon="2.05572">
        <ele>1857.8103632841</ele>
        <time>2001-05-23T11:56:07.989</time>
      </trkpt>
      <trkpt lat="42.51904" lon="2.05572">
        <ele>1857.2228924084</ele>
        <time>2001-05-23T11:56:08.989</time>
      </trkpt>
      <trkpt lat="42.51904" lon="2.05572">
        <ele>1856.7967220146</ele>
        <time>2001-05-23T11:56:09.989</time>
      </trkpt>
      <trkpt lat="42.519" lon="2.05572">
        <ele>1856.6898473833</ele>
        <time>2001-05-23T11:56:10.990</time>
      </trkpt>
      <trkpt lat="42.51898" lon="2.05571">
        <ele>1856.6789281437</ele>
        <time>2001-05-23T11:56:11.990</time>
      </trkpt>
      <trkpt lat="42.51897" lon="2.05571">
        <ele>1856.7677638013</ele>
        <time>2001-05-23T11:56:12.990</time>
      </trkpt>
      <trkpt lat="42.51896" lon="2.05571">
        <ele>1856.8591169175</ele>
        <time>2001-05-23T11:56:13.990</time>
      </trkpt>
      <trkpt lat="42.51895" lon="2.05571">
        <ele>1857.1398670848</ele>
        <time>2001-05-23T11:56:14.990</time>
      </trkpt>
      <trkpt lat="42.51894" lon="2.05572">
        <ele>1857.5022036429</ele>
        <time>2001-05-23T11:56:15.990</time>
      </trkpt>
      <trkpt lat="42.51894" lon="2.05572">
        <ele>1857.638787544</ele>
        <time>2001-05-23T11:56:16.990</time>
      </trkpt>
      <trkpt lat="42.51893" lon="2.05571">
        <ele>1857.6960810818</ele>
        <time>2001-05-23T11:56:17.990</time>
      </trkpt>
      <trkpt lat="42.51892" lon="2.05571">
        <ele>1857.8541447464</ele>
        <time>2001-05-23T11:56:18.990</time>
      </trkpt>
      <trkpt lat="42.51892" lon="2.05571">
        <ele>1857.7744682169</ele>
        <time>2001-05-23T11:56:19.990</time>
      </trkpt>
      <trkpt lat="42.51893" lon="2.05572">
        <ele>1857.2164699094</ele>
        <time>2001-05-23T11:56:20.990</time>
      </trkpt>
      <trkpt lat="42.51893" lon="2.05572">
        <ele>1856.8337143844</ele>
        <time>2001-05-23T11:56:21.990</time>
      </trkpt>
      <trkpt lat="42.51895" lon="2.05572">
        <ele>1856.4847627528</ele>
        <time>2001-05-23T11:56:22.990</time>
      </trkpt>
      <trkpt lat="42.51895" lon="2.05573">
        <ele>1856.1959072873</ele>
        <time>2001-05-23T11:56:23.990</time>
      </trkpt>
      <trkpt lat="42.51897" lon="2.05573">
        <ele>1856.1157714214</ele>
        <time>2001-05-23T11:56:24.990</time>
      </trkpt>
      <trkpt lat="42.51897" lon="2.05573">
        <ele>1856.7515536034</ele>
        <time>2001-05-23T11:56:25.990</time>
      </trkpt>
      <trkpt lat="42.51899" lon="2.05574">
        <ele>1857.7041395102</ele>
        <time>2001-05-23T11:56:26.990</time>
      </trkpt>
      <trkpt lat="42.519" lon="2.05573">
        <ele>1858.7670743018</ele>
        <time>2001-05-23T11:56:27.990</time>
      </trkpt>
      <trkpt lat="42.519" lon="2.05573">
        <ele>1859.8984145056</ele>
        <time>2001-05-23T11:56:28.990</time>
      </trkpt>
      <trkpt lat="42.51901" lon="2.05573">
        <ele>1860.8211799508</ele>
        <time>2001-05-23T11:56:29.990</time>
      </trkpt>
      <trkpt lat="42.51902" lon="2.05573">
        <ele>1861.3857086984</ele>
        <time>2001-05-23T11:56:30.990</time>
      </trkpt>
      <trkpt lat="42.51903" lon="2.05572">
        <ele>1861.7683652252</ele>
        <time>2001-05-23T11:56:31.995</time>
      </trkpt>
      <trkpt lat="42.51905" lon="2.05571">
        <ele>1862.1132696509</ele>
        <time>2001-05-23T11:56:32.995</time>
      </trkpt>
      <trkpt lat="42.51906" lon="2.0557">
        <ele>1861.8546209484</ele>
        <time>2001-05-23T11:56:33.995</time>
      </trkpt>
      <trkpt lat="42.51907" lon="2.0557">
        <ele>1861.7810827056</ele>
        <time>2001-05-23T11:56:34.995</time>
      </trkpt>
      <trkpt lat="42.51908" lon="2.05569">
        <ele>1861.786156271</ele>
        <time>2001-05-23T11:56:35.995</time>
      </trkpt>
      <trkpt lat="42.51909" lon="2.05569">
        <ele>1861.5621737875</ele>
        <time>2001-05-23T11:56:36.995</time>
      </trkpt>
      <trkpt lat="42.5191" lon="2.05568">
        <ele>1860.9343222413</ele>
        <time>2001-05-23T11:56:37.995</time>
      </trkpt>
      <trkpt lat="42.51909" lon="2.0557">
        <ele>1861.1656917209</ele>
        <time>2001-05-23T11:56:38.995</time>
      </trkpt>
      <trkpt lat="42.5191" lon="2.0557">
        <ele>1861.3866426086</ele>
        <time>2001-05-23T11:56:39.995</time>
      </trkpt>
      <trkpt lat="42.51911" lon="2.0557">
        <ele>1861.6895760791</ele>
        <time>2001-05-23T11:56:40.995</time>
      </trkpt>
      <trkpt lat="42.51911" lon="2.05571">
        <ele>1862.2846035488</ele>
        <time>2001-05-23T11:56:41.995</time>
      </trkpt>
      <trkpt lat="42.51911" lon="2.05571">
        <ele>1863.6980196809</ele>
        <time>2001-05-23T11:56:42.995</time>
      </trkpt>
      <trkpt lat="42.51913" lon="2.05569">
        <ele>1864.681999548</ele>
        <time>2001-05-23T11:56:43.994</time>
      </trkpt>
      <trkpt lat="42.51914" lon="2.05567">
        <ele>1865.5184097258</ele>
        <time>2001-05-23T11:56:44.994</time>
      </trkpt>
      <trkpt lat="42.51914" lon="2.05566">
        <ele>1866.5066407349</ele>
        <time>2001-05-23T11:56:45.994</time>
      </trkpt>
      <trkpt lat="42.51915" lon="2.05564">
        <ele>1867.3109428477</ele>
        <time>2001-05-23T11:56:46.994</time>
      </trkpt>
      <trkpt lat="42.51917" lon="2.05562">
        <ele>1867.0159689263</ele>
        <time>2001-05-23T11:56:47.994</time>
      </trkpt>
      <trkpt lat="42.51919" lon="2.0556">
        <ele>1866.2075059662</ele>
        <time>2001-05-23T11:56:48.994</time>
      </trkpt>
      <trkpt lat="42.5192" lon="2.0556">
        <ele>1865.2562369231</ele>
        <time>2001-05-23T11:56:49.994</time>
      </trkpt>
      <trkpt lat="42.5192" lon="2.05559">
        <ele>1864.1294304065</ele>
        <time>2001-05-23T11:56:50.994</time>
      </trkpt>
      <trkpt lat="42.5192" lon="2.05558">
        <ele>1863.1610511471</ele>
        <time>2001-05-23T11:56:51.994</time>
      </trkpt>
      <trkpt lat="42.5192" lon="2.05558">
        <ele>1862.7505631106</ele>
        <time>2001-05-23T11:56:52.994</time>
      </trkpt>
      <trkpt lat="42.51919" lon="2.05557">
        <ele>1863.0658606969</ele>
        <time>2001-05-23T11:56:53.994</time>
      </trkpt>
      <trkpt lat="42.51919" lon="2.05557">
        <ele>1863.5688124966</ele>
        <time>2001-05-23T11:56:54.994</time>
      </trkpt>
      <trkpt lat="42.5192" lon="2.05556">
        <ele>1863.9960817032</ele>
        <time>2001-05-23T11:56:55.994</time>
      </trkpt>
      <trkpt lat="42.51921" lon="2.05555">
        <ele>1863.895408386</ele>
        <time>2001-05-23T11:56:56.994</time>
      </trkpt>
      <trkpt lat="42.51922" lon="2.05555">
        <ele>1863.6563029192</ele>
        <time>2001-05-23T11:56:57.994</time>
      </trkpt>
      <trkpt lat="42.51922" lon="2.05555">
        <ele>1863.1468800724</ele>
        <time>2001-05-23T11:56:58.994</time>
      </trkpt>
      <trkpt lat="42.51923" lon="2.05554">
        <ele>1861.9863908898</ele>
        <time>2001-05-23T11:56:59.994</time>
      </trkpt>
      <trkpt lat="42.51923" lon="2.05554">
        <ele>1860.8414176956</ele>
        <time>2001-05-23T11:57:00.994</time>
      </trkpt>
      <trkpt lat="42.51922" lon="2.05554">
        <ele>1860.1193196161</ele>
        <time>2001-05-23T11:57:01.994</time>
      </trkpt>
      <trkpt lat="42.51921" lon="2.05554">
        <ele>1859.6107362974</ele>
        <time>2001-05-23T11:57:02.994</time>
      </trkpt>
      <trkpt lat="42.5192" lon="2.05553">
        <ele>1858.8873781897</ele>
        <time>2001-05-23T11:57:03.994</time>
      </trkpt>
      <trkpt lat="42.5192" lon="2.05553">
        <ele>1858.8150864176</ele>
        <time>2001-05-23T11:57:04.994</time>
      </trkpt>
      <trkpt lat="42.51921" lon="2.05551">
        <ele>1859.1877742065</ele>
        <time>2001-05-23T11:57:05.995</time>
      </trkpt>
      <trkpt lat="42.51921" lon="2.05551">
        <ele>1859.4899949966</ele>
        <time>2001-05-23T11:57:06.995</time>
      </trkpt>
      <trkpt lat="42.51923" lon="2.05551">
        <ele>1859.8167773928</ele>
        <time>2001-05-23T11:57:07.995</time>
      </trkpt>
      <trkpt lat="42.51923" lon="2.05551">
        <ele>1860.4831444656</ele>
        <time>2001-05-23T11:57:08.995</time>
      </trkpt>
      <trkpt lat="42.51924" lon="2.0555">
        <ele>1861.0663443835</ele>
        <time>2001-05-23T11:57:09.995</time>
      </trkpt>
      <trkpt lat="42.51925" lon="2.05549">
        <ele>1861.1380985077</ele>
        <time>2001-05-23T11:57:10.995</time>
      </trkpt>
      <trkpt lat="42.51926" lon="2.05548">
        <ele>1860.9463540228</ele>
        <time>2001-05-23T11:57:11.995</time>
      </trkpt>
      <trkpt lat="42.51927" lon="2.05546">
        <ele>1860.2583248995</ele>
        <time>2001-05-23T11:57:12.995</time>
      </trkpt>
      <trkpt lat="42.51928" lon="2.05545">
        <ele>1859.1539621605</ele>
        <time>2001-05-23T11:57:13.995</time>
      </trkpt>
      <trkpt lat="42.51929" lon="2.05544">
        <ele>1858.116568519</ele>
        <time>2001-05-23T11:57:14.995</time>
      </trkpt>
      <trkpt lat="42.51929" lon="2.05543">
        <ele>1857.3282775825</ele>
        <time>2001-05-23T11:57:15.995</time>
      </trkpt>
      <trkpt lat="42.5193" lon="2.05543">
        <ele>1856.79442035</ele>
        <time>2001-05-23T11:57:16.995</time>
      </trkpt>
      <trkpt lat="42.5193" lon="2.05542">
        <ele>1856.8199756579</ele>
        <time>2001-05-23T11:57:17.995</time>
      </trkpt>
      <trkpt lat="42.51931" lon="2.05541">
        <ele>1857.0911543123</ele>
        <time>2001-05-23T11:57:18.995</time>
      </trkpt>
      <trkpt lat="42.51932" lon="2.0554">
        <ele>1857.0862384895</ele>
        <time>2001-05-23T11:57:19.995</time>
      </trkpt>
      <trkpt lat="42.51933" lon="2.05539">
        <ele>1856.7860077066</ele>
        <time>2001-05-23T11:57:20.995</time>
      </trkpt>
      <trkpt lat="42.51933" lon="2.05538">
        <ele>1856.5388590507</ele>
        <time>2001-05-23T11:57:21.995</time>
      </trkpt>
      <trkpt lat="42.51934" lon="2.05537">
        <ele>1856.0953569045</ele>
        <time>2001-05-23T11:57:22.995</time>
      </trkpt>
      <trkpt lat="42.51935" lon="2.05536">
        <ele>1855.7611188712</ele>
        <time>2001-05-23T11:57:23.995</time>
      </trkpt>
      <trkpt lat="42.51935" lon="2.05536">
        <ele>1855.6230336927</ele>
        <time>2001-05-23T11:57:24.995</time>
      </trkpt>
      <trkpt lat="42.51935" lon="2.05536">
        <ele>1855.6832785349</ele>
        <time>2001-05-23T11:57:25.995</time>
      </trkpt>
      <trkpt lat="42.51936" lon="2.05535">
        <ele>1855.7531662488</ele>
        <time>2001-05-23T11:57:26.996</time>
      </trkpt>
      <trkpt lat="42.51937" lon="2.05533">
        <ele>1855.8058111276</ele>
        <time>2001-05-23T11:57:27.996</time>
      </trkpt>
      <trkpt lat="42.51938" lon="2.05532">
        <ele>1855.6071384914</ele>
        <time>2001-05-23T11:57:28.996</time>
      </trkpt>
      <trkpt lat="42.51938" lon="2.05531">
        <ele>1855.4842150994</ele>
        <time>2001-05-23T11:57:29.996</time>
      </trkpt>
      <trkpt lat="42.51938" lon="2.05531">
        <ele>1855.4070461299</ele>
        <time>2001-05-23T11:57:30.996</time>
      </trkpt>
      <trkpt lat="42.51938" lon="2.0553">
        <ele>1855.259319336</ele>
        <time>2001-05-23T11:57:31.996</time>
      </trkpt>
      <trkpt lat="42.51939" lon="2.05528">
        <ele>1855.5249114295</ele>
        <time>2001-05-23T11:57:32.998</time>
      </trkpt>
      <trkpt lat="42.5194" lon="2.05528">
        <ele>1856.1475119825</ele>
        <time>2001-05-23T11:57:33.998</time>
      </trkpt>
      <trkpt lat="42.51941" lon="2.05527">
        <ele>1856.8218206024</ele>
        <time>2001-05-23T11:57:34.998</time>
      </trkpt>
      <trkpt lat="42.51941" lon="2.05526">
        <ele>1857.6374487163</ele>
        <time>2001-05-23T11:57:35.998</time>
      </trkpt>
      <trkpt lat="42.5194" lon="2.05525">
        <ele>1858.9962526159</ele>
        <time>2001-05-23T11:57:36.998</time>
      </trkpt>
      <trkpt lat="42.5194" lon="2.05525">
        <ele>1860.1177239357</ele>
        <time>2001-05-23T11:57:37.998</time>
      </trkpt>
      <trkpt lat="42.51941" lon="2.05522">
        <ele>1860.7864137201</ele>
        <time>2001-05-23T11:57:38.999</time>
      </trkpt>
      <trkpt lat="42.5194" lon="2.05521">
        <ele>1861.6774010468</ele>
        <time>2001-05-23T11:57:39.999</time>
      </trkpt>
      <trkpt lat="42.51939" lon="2.0552">
        <ele>1862.360736312</ele>
        <time>2001-05-23T11:57:40.999</time>
      </trkpt>
      <trkpt lat="42.51937" lon="2.05519">
        <ele>1862.4420086704</ele>
        <time>2001-05-23T11:57:41.999</time>
      </trkpt>
      <trkpt lat="42.51937" lon="2.05518">
        <ele>1862.3634628301</ele>
        <time>2001-05-23T11:57:42.999</time>
      </trkpt>
      <trkpt lat="42.51937" lon="2.05518">
        <ele>1862.5686438499</ele>
        <time>2001-05-23T11:57:43.999</time>
      </trkpt>
      <trkpt lat="42.51939" lon="2.05518">
        <ele>1862.1080040952</ele>
        <time>2001-05-23T11:57:44.996</time>
      </trkpt>
      <trkpt lat="42.51939" lon="2.05517">
        <ele>1861.6820713224</ele>
        <time>2001-05-23T11:57:45.996</time>
      </trkpt>
      <trkpt lat="42.5194" lon="2.05517">
        <ele>1861.2954088792</ele>
        <time>2001-05-23T11:57:46.996</time>
      </trkpt>
      <trkpt lat="42.51941" lon="2.05517">
        <ele>1861.0179983702</ele>
        <time>2001-05-23T11:57:47.996</time>
      </trkpt>
      <trkpt lat="42.51942" lon="2.05516">
        <ele>1860.7879632544</ele>
        <time>2001-05-23T11:57:48.999</time>
      </trkpt>
      <trkpt lat="42.51942" lon="2.05515">
        <ele>1861.0310962262</ele>
        <time>2001-05-23T11:57:49.999</time>
      </trkpt>
      <trkpt lat="42.51943" lon="2.05515">
        <ele>1861.0597945886</ele>
        <time>2001-05-23T11:57:50.999</time>
      </trkpt>
      <trkpt lat="42.51944" lon="2.05514">
        <ele>1861.0961006809</ele>
        <time>2001-05-23T11:57:51.999</time>
      </trkpt>
      <trkpt lat="42.51944" lon="2.05514">
        <ele>1861.231616479</ele>
        <time>2001-05-23T11:57:52.999</time>
      </trkpt>
      <trkpt lat="42.51944" lon="2.05514">
        <ele>1861.4935360856</ele>
        <time>2001-05-23T11:57:53.999</time>
      </trkpt>
      <trkpt lat="42.51946" lon="2.05514">
        <ele>1862.6375890255</ele>
        <time>2001-05-23T11:57:55.2</time>
      </trkpt>
      <trkpt lat="42.51946" lon="2.05513">
        <ele>1864.0260467824</ele>
        <time>2001-05-23T11:57:56.2</time>
      </trkpt>
      <trkpt lat="42.51947" lon="2.05512">
        <ele>1865.665691396</ele>
        <time>2001-05-23T11:57:57.2</time>
      </trkpt>
      <trkpt lat="42.51947" lon="2.05511">
        <ele>1867.2960185988</ele>
        <time>2001-05-23T11:57:58.2</time>
      </trkpt>
      <trkpt lat="42.51949" lon="2.05509">
        <ele>1868.906913898</ele>
        <time>2001-05-23T11:57:59.2</time>
      </trkpt>
      <trkpt lat="42.5195" lon="2.05509">
        <ele>1869.5681290109</ele>
        <time>2001-05-23T11:58:00.2</time>
      </trkpt>
      <trkpt lat="42.51952" lon="2.05508">
        <ele>1869.8460454758</ele>
        <time>2001-05-23T11:58:01.2</time>
      </trkpt>
      <trkpt lat="42.51953" lon="2.05508">
        <ele>1869.5207171388</ele>
        <time>2001-05-23T11:58:02.2</time>
      </trkpt>
      <trkpt lat="42.51952" lon="2.05508">
        <ele>1869.1306149662</ele>
        <time>2001-05-23T11:58:03.2</time>
      </trkpt>
      <trkpt lat="42.51953" lon="2.05507">
        <ele>1868.7005630419</ele>
        <time>2001-05-23T11:58:04.2</time>
      </trkpt>
      <trkpt lat="42.51954" lon="2.05507">
        <ele>1868.3159159241</ele>
        <time>2001-05-23T11:58:05.2</time>
      </trkpt>
      <trkpt lat="42.51954" lon="2.05506">
        <ele>1868.3516946595</ele>
        <time>2001-05-23T11:58:06.2</time>
      </trkpt>
      <trkpt lat="42.51956" lon="2.05505">
        <ele>1868.5984183837</ele>
        <time>2001-05-23T11:58:07.2</time>
      </trkpt>
      <trkpt lat="42.51957" lon="2.05505">
        <ele>1868.3984968446</ele>
        <time>2001-05-23T11:58:08.2</time>
      </trkpt>
      <trkpt lat="42.51957" lon="2.05505">
        <ele>1868.225333222</ele>
        <time>2001-05-23T11:58:09.2</time>
      </trkpt>
      <trkpt lat="42.51957" lon="2.05504">
        <ele>1867.945870433</ele>
        <time>2001-05-23T11:58:10.2</time>
      </trkpt>
      <trkpt lat="42.51958" lon="2.05504">
        <ele>1867.5507365894</ele>
        <time>2001-05-23T11:58:11.2</time>
      </trkpt>
      <trkpt lat="42.51959" lon="2.05503">
        <ele>1867.2748446364</ele>
        <time>2001-05-23T11:58:12.2</time>
      </trkpt>
      <trkpt lat="42.51961" lon="2.05502">
        <ele>1867.5376803212</ele>
        <time>2001-05-23T11:58:13.2</time>
      </trkpt>
      <trkpt lat="42.51961" lon="2.05503">
        <ele>1867.8641241048</ele>
        <time>2001-05-23T11:58:14.2</time>
      </trkpt>
      <trkpt lat="42.51961" lon="2.05503">
        <ele>1868.5020286104</ele>
        <time>2001-05-23T11:58:15.3</time>
      </trkpt>
      <trkpt lat="42.51963" lon="2.05502">
        <ele>1868.8110513616</ele>
        <time>2001-05-23T11:58:16.3</time>
      </trkpt>
      <trkpt lat="42.51964" lon="2.055">
        <ele>1869.3623120211</ele>
        <time>2001-05-23T11:58:17.3</time>
      </trkpt>
      <trkpt lat="42.51965" lon="2.05499">
        <ele>1869.7017585682</ele>
        <time>2001-05-23T11:58:18.3</time>
      </trkpt>
      <trkpt lat="42.51966" lon="2.05498">
        <ele>1869.5699257134</ele>
        <time>2001-05-23T11:58:19.3</time>
      </trkpt>
      <trkpt lat="42.51967" lon="2.05497">
        <ele>1868.9874672672</ele>
        <time>2001-05-23T11:58:20.3</time>
      </trkpt>
      <trkpt lat="42.51969" lon="2.05497">
        <ele>1868.5203746468</ele>
        <time>2001-05-23T11:58:21.3</time>
      </trkpt>
      <trkpt lat="42.5197" lon="2.05497">
        <ele>1867.5050397782</ele>
        <time>2001-05-23T11:58:22.3</time>
      </trkpt>
      <trkpt lat="42.5197" lon="2.05497">
        <ele>1866.9579282967</ele>
        <time>2001-05-23T11:58:23.3</time>
      </trkpt>
      <trkpt lat="42.5197" lon="2.05496">
        <ele>1867.1148965895</ele>
        <time>2001-05-23T11:58:24.3</time>
      </trkpt>
      <trkpt lat="42.51972" lon="2.05495">
        <ele>1866.938324406</ele>
        <time>2001-05-23T11:58:25.6</time>
      </trkpt>
      <trkpt lat="42.51972" lon="2.05494">
        <ele>1866.859292254</ele>
        <time>2001-05-23T11:58:26.6</time>
      </trkpt>
      <trkpt lat="42.51974" lon="2.05492">
        <ele>1867.1629360227</ele>
        <time>2001-05-23T11:58:27.6</time>
      </trkpt>
      <trkpt lat="42.51975" lon="2.0549">
        <ele>1866.8340317637</ele>
        <time>2001-05-23T11:58:28.6</time>
      </trkpt>
      <trkpt lat="42.51976" lon="2.0549">
        <ele>1866.1997950191</ele>
        <time>2001-05-23T11:58:29.6</time>
      </trkpt>
      <trkpt lat="42.51977" lon="2.0549">
        <ele>1866.010277326</ele>
        <time>2001-05-23T11:58:30.6</time>
      </trkpt>
      <trkpt lat="42.51977" lon="2.0549">
        <ele>1866.0260309024</ele>
        <time>2001-05-23T11:58:31.6</time>
      </trkpt>
      <trkpt lat="42.51977" lon="2.05489">
        <ele>1865.9705648441</ele>
        <time>2001-05-23T11:58:32.6</time>
      </trkpt>
      <trkpt lat="42.51979" lon="2.05489">
        <ele>1866.2083755864</ele>
        <time>2001-05-23T11:58:33.8</time>
      </trkpt>
      <trkpt lat="42.51979" lon="2.05488">
        <ele>1866.4998974243</ele>
        <time>2001-05-23T11:58:34.8</time>
      </trkpt>
      <trkpt lat="42.5198" lon="2.05487">
        <ele>1866.8239734467</ele>
        <time>2001-05-23T11:58:35.8</time>
      </trkpt>
      <trkpt lat="42.51981" lon="2.05487">
        <ele>1866.9822612587</ele>
        <time>2001-05-23T11:58:36.8</time>
      </trkpt>
      <trkpt lat="42.51982" lon="2.05486">
        <ele>1867.3709796689</ele>
        <time>2001-05-23T11:58:37.8</time>
      </trkpt>
      <trkpt lat="42.51983" lon="2.05486">
        <ele>1867.6410174116</ele>
        <time>2001-05-23T11:58:38.8</time>
      </trkpt>
      <trkpt lat="42.51984" lon="2.05485">
        <ele>1867.560477099</ele>
        <time>2001-05-23T11:58:39.8</time>
      </trkpt>
      <trkpt lat="42.51984" lon="2.05484">
        <ele>1867.3923838073</ele>
        <time>2001-05-23T11:58:40.8</time>
      </trkpt>
      <trkpt lat="42.51985" lon="2.05483">
        <ele>1867.0387696022</ele>
        <time>2001-05-23T11:58:41.8</time>
      </trkpt>
      <trkpt lat="42.51986" lon="2.05483">
        <ele>1866.4534574086</ele>
        <time>2001-05-23T11:58:42.8</time>
      </trkpt>
      <trkpt lat="42.51987" lon="2.05482">
        <ele>1865.751315793</ele>
        <time>2001-05-23T11:58:43.8</time>
      </trkpt>
      <trkpt lat="42.51987" lon="2.05481">
        <ele>1865.1855159009</ele>
        <time>2001-05-23T11:58:44.8</time>
      </trkpt>
      <trkpt lat="42.51988" lon="2.0548">
        <ele>1864.8537813125</ele>
        <time>2001-05-23T11:58:45.8</time>
      </trkpt>
      <trkpt lat="42.51989" lon="2.0548">
        <ele>1864.8678180235</ele>
        <time>2001-05-23T11:58:46.8</time>
      </trkpt>
      <trkpt lat="42.5199" lon="2.0548">
        <ele>1865.0975283472</ele>
        <time>2001-05-23T11:58:47.8</time>
      </trkpt>
      <trkpt lat="42.5199" lon="2.05478">
        <ele>1865.6942375805</ele>
        <time>2001-05-23T11:58:48.8</time>
      </trkpt>
      <trkpt lat="42.5199" lon="2.05477">
        <ele>1866.3200048525</ele>
        <time>2001-05-23T11:58:49.8</time>
      </trkpt>
      <trkpt lat="42.51991" lon="2.05477">
        <ele>1867.0124926498</ele>
        <time>2001-05-23T11:58:50.8</time>
      </trkpt>
      <trkpt lat="42.51991" lon="2.05477">
        <ele>1867.7517141113</ele>
        <time>2001-05-23T11:58:51.8</time>
      </trkpt>
      <trkpt lat="42.51993" lon="2.05476">
        <ele>1868.1224984892</ele>
        <time>2001-05-23T11:58:52.8</time>
      </trkpt>
      <trkpt lat="42.51994" lon="2.05476">
        <ele>1868.2087846519</ele>
        <time>2001-05-23T11:58:53.8</time>
      </trkpt>
      <trkpt lat="42.51995" lon="2.05474">
        <ele>1867.8860982209</ele>
        <time>2001-05-23T11:58:54.9</time>
      </trkpt>
      <trkpt lat="42.51995" lon="2.05474">
        <ele>1867.6263615439</ele>
        <time>2001-05-23T11:58:55.9</time>
      </trkpt>
      <trkpt lat="42.51997" lon="2.05472">
        <ele>1867.3709038671</ele>
        <time>2001-05-23T11:58:56.11</time>
      </trkpt>
      <trkpt lat="42.51998" lon="2.05471">
        <ele>1867.2261791036</ele>
        <time>2001-05-23T11:58:57.11</time>
      </trkpt>
      <trkpt lat="42.51998" lon="2.0547">
        <ele>1867.1580484068</ele>
        <time>2001-05-23T11:58:58.11</time>
      </trkpt>
      <trkpt lat="42.51997" lon="2.0547">
        <ele>1867.4145111693</ele>
        <time>2001-05-23T11:58:59.11</time>
      </trkpt>
      <trkpt lat="42.51997" lon="2.05469">
        <ele>1867.7480638532</ele>
        <time>2001-05-23T11:59:00.11</time>
      </trkpt>
      <trkpt lat="42.51998" lon="2.05468">
        <ele>1867.5469898134</ele>
        <time>2001-05-23T11:59:01.11</time>
      </trkpt>
      <trkpt lat="42.51999" lon="2.05467">
        <ele>1867.3658729238</ele>
        <time>2001-05-23T11:59:02.11</time>
      </trkpt>
      <trkpt lat="42.52" lon="2.05466">
        <ele>1867.1608970268</ele>
        <time>2001-05-23T11:59:03.11</time>
      </trkpt>
      <trkpt lat="42.52001" lon="2.05465">
        <ele>1866.8335383091</ele>
        <time>2001-05-23T11:59:04.11</time>
      </trkpt>
      <trkpt lat="42.52003" lon="2.05462">
        <ele>1865.9211903665</ele>
        <time>2001-05-23T11:59:05.11</time>
      </trkpt>
      <trkpt lat="42.52004" lon="2.05461">
        <ele>1865.3582968203</ele>
        <time>2001-05-23T11:59:06.11</time>
      </trkpt>
      <trkpt lat="42.52004" lon="2.0546">
        <ele>1865.2154409414</ele>
        <time>2001-05-23T11:59:07.11</time>
      </trkpt>
      <trkpt lat="42.52005" lon="2.05459">
        <ele>1865.2467660304</ele>
        <time>2001-05-23T11:59:08.11</time>
      </trkpt>
      <trkpt lat="42.52006" lon="2.05458">
        <ele>1865.496953645</ele>
        <time>2001-05-23T11:59:09.11</time>
      </trkpt>
      <trkpt lat="42.52007" lon="2.05457">
        <ele>1865.4212422404</ele>
        <time>2001-05-23T11:59:10.11</time>
      </trkpt>
      <trkpt lat="42.52009" lon="2.05457">
        <ele>1864.9770748256</ele>
        <time>2001-05-23T11:59:11.11</time>
      </trkpt>
      <trkpt lat="42.52009" lon="2.05457">
        <ele>1864.173500572</ele>
        <time>2001-05-23T11:59:12.11</time>
      </trkpt>
      <trkpt lat="42.5201" lon="2.05456">
        <ele>1863.1328080192</ele>
        <time>2001-05-23T11:59:13.11</time>
      </trkpt>
      <trkpt lat="42.52011" lon="2.05456">
        <ele>1862.0113730995</ele>
        <time>2001-05-23T11:59:14.11</time>
      </trkpt>
      <trkpt lat="42.52012" lon="2.05455">
        <ele>1861.1078185799</ele>
        <time>2001-05-23T11:59:15.11</time>
      </trkpt>
      <trkpt lat="42.52012" lon="2.05455">
        <ele>1860.557546032</ele>
        <time>2001-05-23T11:59:16.11</time>
      </trkpt>
      <trkpt lat="42.52013" lon="2.05453">
        <ele>1860.1272290917</ele>
        <time>2001-05-23T11:59:17.17</time>
      </trkpt>
      <trkpt lat="42.52014" lon="2.05452">
        <ele>1860.0189886713</ele>
        <time>2001-05-23T11:59:18.17</time>
      </trkpt>
      <trkpt lat="42.52014" lon="2.05451">
        <ele>1859.9121393502</ele>
        <time>2001-05-23T11:59:19.17</time>
      </trkpt>
      <trkpt lat="42.52015" lon="2.0545">
        <ele>1860.0562592162</ele>
        <time>2001-05-23T11:59:20.17</time>
      </trkpt>
      <trkpt lat="42.52015" lon="2.05449">
        <ele>1860.2203424823</ele>
        <time>2001-05-23T11:59:21.17</time>
      </trkpt>
      <trkpt lat="42.52016" lon="2.05448">
        <ele>1860.2571563577</ele>
        <time>2001-05-23T11:59:22.17</time>
      </trkpt>
      <trkpt lat="42.52015" lon="2.05447">
        <ele>1859.9452708354</ele>
        <time>2001-05-23T11:59:23.17</time>
      </trkpt>
      <trkpt lat="42.52015" lon="2.05447">
        <ele>1859.7775453109</ele>
        <time>2001-05-23T11:59:24.17</time>
      </trkpt>
      <trkpt lat="42.52014" lon="2.05446">
        <ele>1859.5974506037</ele>
        <time>2001-05-23T11:59:25.17</time>
      </trkpt>
      <trkpt lat="42.52014" lon="2.05446">
        <ele>1859.4117619218</ele>
        <time>2001-05-23T11:59:26.17</time>
      </trkpt>
      <trkpt lat="42.52013" lon="2.05446">
        <ele>1859.4615634279</ele>
        <time>2001-05-23T11:59:27.17</time>
      </trkpt>
      <trkpt lat="42.52013" lon="2.05446">
        <ele>1859.5922647599</ele>
        <time>2001-05-23T11:59:28.17</time>
      </trkpt>
      <trkpt lat="42.52012" lon="2.05447">
        <ele>1859.9712765459</ele>
        <time>2001-05-23T11:59:29.17</time>
      </trkpt>
      <trkpt lat="42.52012" lon="2.05447">
        <ele>1860.5143344816</ele>
        <time>2001-05-23T11:59:30.17</time>
      </trkpt>
      <trkpt lat="42.52013" lon="2.05446">
        <ele>1860.7297804546</ele>
        <time>2001-05-23T11:59:31.16</time>
      </trkpt>
      <trkpt lat="42.52014" lon="2.05444">
        <ele>1860.8363991354</ele>
        <time>2001-05-23T11:59:32.16</time>
      </trkpt>
      <trkpt lat="42.52015" lon="2.05443">
        <ele>1860.8511823101</ele>
        <time>2001-05-23T11:59:33.16</time>
      </trkpt>
      <trkpt lat="42.52016" lon="2.05442">
        <ele>1860.5531051781</ele>
        <time>2001-05-23T11:59:34.16</time>
      </trkpt>
      <trkpt lat="42.52017" lon="2.05442">
        <ele>1860.0399425546</ele>
        <time>2001-05-23T11:59:35.16</time>
      </trkpt>
      <trkpt lat="42.52017" lon="2.05441">
        <ele>1859.8563797271</ele>
        <time>2001-05-23T11:59:36.16</time>
      </trkpt>
      <trkpt lat="42.52018" lon="2.05441">
        <ele>1859.4698221138</ele>
        <time>2001-05-23T11:59:37.16</time>
      </trkpt>
      <trkpt lat="42.52019" lon="2.0544">
        <ele>1859.1866495071</ele>
        <time>2001-05-23T11:59:38.16</time>
      </trkpt>
      <trkpt lat="42.5202" lon="2.05439">
        <ele>1859.1885683456</ele>
        <time>2001-05-23T11:59:39.16</time>
      </trkpt>
      <trkpt lat="42.5202" lon="2.05438">
        <ele>1859.4589812744</ele>
        <time>2001-05-23T11:59:40.16</time>
      </trkpt>
      <trkpt lat="42.52021" lon="2.05437">
        <ele>1859.724435257</ele>
        <time>2001-05-23T11:59:41.16</time>
      </trkpt>
      <trkpt lat="42.52021" lon="2.05436">
        <ele>1860.2408878906</ele>
        <time>2001-05-23T11:59:42.16</time>
      </trkpt>
      <trkpt lat="42.52023" lon="2.05435">
        <ele>1860.7648687834</ele>
        <time>2001-05-23T11:59:43.16</time>
      </trkpt>
      <trkpt lat="42.52024" lon="2.05434">
        <ele>1860.9281688174</ele>
        <time>2001-05-23T11:59:44.16</time>
      </trkpt>
      <trkpt lat="42.52024" lon="2.05434">
        <ele>1861.0158368066</ele>
        <time>2001-05-23T11:59:45.16</time>
      </trkpt>
      <trkpt lat="42.52025" lon="2.05433">
        <ele>1861.0836712066</ele>
        <time>2001-05-23T11:59:46.16</time>
      </trkpt>
      <trkpt lat="42.52026" lon="2.05432">
        <ele>1861.0080256896</ele>
        <time>2001-05-23T11:59:47.16</time>
      </trkpt>
      <trkpt lat="42.52027" lon="2.0543">
        <ele>1860.3869846141</ele>
        <time>2001-05-23T11:59:48.16</time>
      </trkpt>
      <trkpt lat="42.52027" lon="2.05429">
        <ele>1860.1091547167</ele>
        <time>2001-05-23T11:59:49.16</time>
      </trkpt>
      <trkpt lat="42.52028" lon="2.05428">
        <ele>1860.2039428113</ele>
        <time>2001-05-23T11:59:50.16</time>
      </trkpt>
      <trkpt lat="42.52028" lon="2.05427">
        <ele>1860.5722528271</ele>
        <time>2001-05-23T11:59:51.16</time>
      </trkpt>
      <trkpt lat="42.52028" lon="2.05426">
        <ele>1861.0892556142</ele>
        <time>2001-05-23T11:59:52.16</time>
      </trkpt>
      <trkpt lat="42.52028" lon="2.05425">
        <ele>1862.0705880316</ele>
        <time>2001-05-23T11:59:53.16</time>
      </trkpt>
      <trkpt lat="42.52029" lon="2.05424">
        <ele>1862.7803537492</ele>
        <time>2001-05-23T11:59:54.16</time>
      </trkpt>
      <trkpt lat="42.5203" lon="2.05423">
        <ele>1863.1928620307</ele>
        <time>2001-05-23T11:59:55.16</time>
      </trkpt>
      <trkpt lat="42.5203" lon="2.05422">
        <ele>1863.4548261417</ele>
        <time>2001-05-23T11:59:56.16</time>
      </trkpt>
      <trkpt lat="42.52031" lon="2.05422">
        <ele>1863.6284302916</ele>
        <time>2001-05-23T11:59:57.16</time>
      </trkpt>
      <trkpt lat="42.52032" lon="2.05422">
        <ele>1863.9135078434</ele>
        <time>2001-05-23T11:59:58.16</time>
      </trkpt>
      <trkpt lat="42.52032" lon="2.05421">
        <ele>1864.1203795215</ele>
        <time>2001-05-23T11:59:59.16</time>
      </trkpt>
      <trkpt lat="42.52033" lon="2.05419">
        <ele>1864.148155787</ele>
        <time>2001-05-23T12:00:00.16</time>
      </trkpt>
      <trkpt lat="42.52035" lon="2.05417">
        <ele>1863.6664431458</ele>
        <time>2001-05-23T12:00:01.16</time>
      </trkpt>
      <trkpt lat="42.52036" lon="2.05416">
        <ele>1863.0295667399</ele>
        <time>2001-05-23T12:00:02.16</time>
      </trkpt>
      <trkpt lat="42.52037" lon="2.05415">
        <ele>1862.3012965787</ele>
        <time>2001-05-23T12:00:03.16</time>
      </trkpt>
      <trkpt lat="42.52039" lon="2.05416">
        <ele>1861.724678356</ele>
        <time>2001-05-23T12:00:04.16</time>
      </trkpt>
      <trkpt lat="42.5204" lon="2.05415">
        <ele>1861.1832171002</ele>
        <time>2001-05-23T12:00:05.16</time>
      </trkpt>
      <trkpt lat="42.5204" lon="2.05415">
        <ele>1861.0543768844</ele>
        <time>2001-05-23T12:00:06.16</time>
      </trkpt>
      <trkpt lat="42.52041" lon="2.05413">
        <ele>1860.8700041292</ele>
        <time>2001-05-23T12:00:07.16</time>
      </trkpt>
      <trkpt lat="42.52043" lon="2.05411">
        <ele>1860.3332199436</ele>
        <time>2001-05-23T12:00:08.16</time>
      </trkpt>
      <trkpt lat="42.52044" lon="2.0541">
        <ele>1859.8493121212</ele>
        <time>2001-05-23T12:00:09.16</time>
      </trkpt>
      <trkpt lat="42.52045" lon="2.05409">
        <ele>1859.285922317</ele>
        <time>2001-05-23T12:00:10.16</time>
      </trkpt>
      <trkpt lat="42.52046" lon="2.05408">
        <ele>1858.5986670898</ele>
        <time>2001-05-23T12:00:11.16</time>
      </trkpt>
      <trkpt lat="42.52047" lon="2.05407">
        <ele>1858.1055552274</ele>
        <time>2001-05-23T12:00:12.16</time>
      </trkpt>
      <trkpt lat="42.52048" lon="2.05406">
        <ele>1858.0528373802</ele>
        <time>2001-05-23T12:00:13.16</time>
      </trkpt>
      <trkpt lat="42.52048" lon="2.05406">
        <ele>1857.8814468576</ele>
        <time>2001-05-23T12:00:14.16</time>
      </trkpt>
      <trkpt lat="42.52049" lon="2.05405">
        <ele>1857.9741020629</ele>
        <time>2001-05-23T12:00:15.16</time>
      </trkpt>
      <trkpt lat="42.52049" lon="2.05404">
        <ele>1858.7375176337</ele>
        <time>2001-05-23T12:00:16.16</time>
      </trkpt>
      <trkpt lat="42.52049" lon="2.05401">
        <ele>1860.2352153234</ele>
        <time>2001-05-23T12:00:17.16</time>
      </trkpt>
      <trkpt lat="42.52051" lon="2.05399">
        <ele>1861.3446157267</ele>
        <time>2001-05-23T12:00:18.16</time>
      </trkpt>
      <trkpt lat="42.52052" lon="2.05398">
        <ele>1862.5046545977</ele>
        <time>2001-05-23T12:00:19.16</time>
      </trkpt>
      <trkpt lat="42.52053" lon="2.05398">
        <ele>1863.6516610216</ele>
        <time>2001-05-23T12:00:20.16</time>
      </trkpt>
      <trkpt lat="42.52053" lon="2.05398">
        <ele>1864.79971918</ele>
        <time>2001-05-23T12:00:21.16</time>
      </trkpt>
      <trkpt lat="42.52052" lon="2.05398">
        <ele>1865.3675804367</ele>
        <time>2001-05-23T12:00:22.16</time>
      </trkpt>
      <trkpt lat="42.52053" lon="2.05398">
        <ele>1866.2575950846</ele>
        <time>2001-05-23T12:00:23.16</time>
      </trkpt>
      <trkpt lat="42.52055" lon="2.05396">
        <ele>1866.8724281358</ele>
        <time>2001-05-23T12:00:24.16</time>
      </trkpt>
      <trkpt lat="42.52055" lon="2.05395">
        <ele>1867.891314807</ele>
        <time>2001-05-23T12:00:25.16</time>
      </trkpt>
      <trkpt lat="42.52056" lon="2.05395">
        <ele>1868.5530779352</ele>
        <time>2001-05-23T12:00:26.16</time>
      </trkpt>
      <trkpt lat="42.52056" lon="2.05393">
        <ele>1869.3477718379</ele>
        <time>2001-05-23T12:00:27.16</time>
      </trkpt>
      <trkpt lat="42.52057" lon="2.05392">
        <ele>1870.2309275042</ele>
        <time>2001-05-23T12:00:28.16</time>
      </trkpt>
      <trkpt lat="42.52057" lon="2.05391">
        <ele>1871.3523197288</ele>
        <time>2001-05-23T12:00:29.16</time>
      </trkpt>
      <trkpt lat="42.52057" lon="2.05391">
        <ele>1872.03592673</ele>
        <time>2001-05-23T12:00:30.16</time>
      </trkpt>
      <trkpt lat="42.52058" lon="2.05389">
        <ele>1872.3969259355</ele>
        <time>2001-05-23T12:00:31.16</time>
      </trkpt>
      <trkpt lat="42.52059" lon="2.05388">
        <ele>1872.3538342638</ele>
        <time>2001-05-23T12:00:32.16</time>
      </trkpt>
      <trkpt lat="42.5206" lon="2.05387">
        <ele>1872.0755554449</ele>
        <time>2001-05-23T12:00:33.16</time>
      </trkpt>
      <trkpt lat="42.52061" lon="2.05386">
        <ele>1871.6887882235</ele>
        <time>2001-05-23T12:00:34.16</time>
      </trkpt>
      <trkpt lat="42.52062" lon="2.05385">
        <ele>1870.9473992432</ele>
        <time>2001-05-23T12:00:35.16</time>
      </trkpt>
      <trkpt lat="42.52063" lon="2.05385">
        <ele>1870.0967019193</ele>
        <time>2001-05-23T12:00:36.16</time>
      </trkpt>
      <trkpt lat="42.52064" lon="2.05385">
        <ele>1869.2904144218</ele>
        <time>2001-05-23T12:00:37.16</time>
      </trkpt>
      <trkpt lat="42.52065" lon="2.05386">
        <ele>1868.6882262491</ele>
        <time>2001-05-23T12:00:38.16</time>
      </trkpt>
      <trkpt lat="42.52065" lon="2.05385">
        <ele>1868.4249825295</ele>
        <time>2001-05-23T12:00:39.16</time>
      </trkpt>
      <trkpt lat="42.52066" lon="2.05385">
        <ele>1868.5294730427</ele>
        <time>2001-05-23T12:00:40.16</time>
      </trkpt>
      <trkpt lat="42.52067" lon="2.05385">
        <ele>1868.8395422516</ele>
        <time>2001-05-23T12:00:41.16</time>
      </trkpt>
      <trkpt lat="42.52066" lon="2.05383">
        <ele>1869.4553126207</ele>
        <time>2001-05-23T12:00:42.16</time>
      </trkpt>
      <trkpt lat="42.52067" lon="2.05382">
        <ele>1869.8829576133</ele>
        <time>2001-05-23T12:00:43.16</time>
      </trkpt>
      <trkpt lat="42.52067" lon="2.05381">
        <ele>1870.0843693491</ele>
        <time>2001-05-23T12:00:44.16</time>
      </trkpt>
      <trkpt lat="42.52068" lon="2.0538">
        <ele>1870.0570334805</ele>
        <time>2001-05-23T12:00:45.16</time>
      </trkpt>
      <trkpt lat="42.52069" lon="2.05379">
        <ele>1870.2145015214</ele>
        <time>2001-05-23T12:00:46.16</time>
      </trkpt>
      <trkpt lat="42.5207" lon="2.05378">
        <ele>1869.9865517568</ele>
        <time>2001-05-23T12:00:47.16</time>
      </trkpt>
      <trkpt lat="42.52071" lon="2.05377">
        <ele>1869.8191914456</ele>
        <time>2001-05-23T12:00:48.16</time>
      </trkpt>
      <trkpt lat="42.52072" lon="2.05376">
        <ele>1869.424789292</ele>
        <time>2001-05-23T12:00:49.16</time>
      </trkpt>
      <trkpt lat="42.52073" lon="2.05374">
        <ele>1868.8478184042</ele>
        <time>2001-05-23T12:00:50.16</time>
      </trkpt>
      <trkpt lat="42.52073" lon="2.05373">
        <ele>1868.0411556317</ele>
        <time>2001-05-23T12:00:51.16</time>
      </trkpt>
      <trkpt lat="42.52074" lon="2.05372">
        <ele>1867.1941578569</ele>
        <time>2001-05-23T12:00:52.16</time>
      </trkpt>
      <trkpt lat="42.52074" lon="2.05371">
        <ele>1866.401256703</ele>
        <time>2001-05-23T12:00:53.16</time>
      </trkpt>
      <trkpt lat="42.52075" lon="2.05371">
        <ele>1866.0166684929</ele>
        <time>2001-05-23T12:00:54.16</time>
      </trkpt>
      <trkpt lat="42.52076" lon="2.0537">
        <ele>1865.9044581465</ele>
        <time>2001-05-23T12:00:55.16</time>
      </trkpt>
      <trkpt lat="42.52077" lon="2.05369">
        <ele>1865.7563801957</ele>
        <time>2001-05-23T12:00:56.16</time>
      </trkpt>
      <trkpt lat="42.52077" lon="2.05369">
        <ele>1865.7910489514</ele>
        <time>2001-05-23T12:00:57.16</time>
      </trkpt>
      <trkpt lat="42.52078" lon="2.05368">
        <ele>1865.7002936454</ele>
        <time>2001-05-23T12:00:58.16</time>
      </trkpt>
      <trkpt lat="42.52079" lon="2.05367">
        <ele>1865.2594644964</ele>
        <time>2001-05-23T12:00:59.16</time>
      </trkpt>
      <trkpt lat="42.5208" lon="2.05368">
        <ele>1864.89867479</ele>
        <time>2001-05-23T12:01:00.16</time>
      </trkpt>
      <trkpt lat="42.52079" lon="2.05367">
        <ele>1864.9989829179</ele>
        <time>2001-05-23T12:01:01.16</time>
      </trkpt>
      <trkpt lat="42.5208" lon="2.05366">
        <ele>1865.0906168193</ele>
        <time>2001-05-23T12:01:02.16</time>
      </trkpt>
      <trkpt lat="42.52081" lon="2.05365">
        <ele>1865.1808849942</ele>
        <time>2001-05-23T12:01:03.16</time>
      </trkpt>
      <trkpt lat="42.52081" lon="2.05364">
        <ele>1865.5544298787</ele>
        <time>2001-05-23T12:01:04.16</time>
      </trkpt>
      <trkpt lat="42.5208" lon="2.05364">
        <ele>1866.0881742848</ele>
        <time>2001-05-23T12:01:05.16</time>
      </trkpt>
      <trkpt lat="42.5208" lon="2.05365">
        <ele>1866.3953794688</ele>
        <time>2001-05-23T12:01:06.12</time>
      </trkpt>
      <trkpt lat="42.52079" lon="2.05367">
        <ele>1866.953968966</ele>
        <time>2001-05-23T12:01:07.12</time>
      </trkpt>
      <trkpt lat="42.52079" lon="2.05367">
        <ele>1868.1520361265</ele>
        <time>2001-05-23T12:01:08.12</time>
      </trkpt>
      <trkpt lat="42.5208" lon="2.05366">
        <ele>1868.8659145162</ele>
        <time>2001-05-23T12:01:09.11</time>
      </trkpt>
      <trkpt lat="42.52081" lon="2.05365">
        <ele>1869.0547642618</ele>
        <time>2001-05-23T12:01:10.11</time>
      </trkpt>
      <trkpt lat="42.52081" lon="2.05364">
        <ele>1868.9691484066</ele>
        <time>2001-05-23T12:01:11.11</time>
      </trkpt>
      <trkpt lat="42.52082" lon="2.05362">
        <ele>1868.3064251075</ele>
        <time>2001-05-23T12:01:12.11</time>
      </trkpt>
      <trkpt lat="42.52083" lon="2.0536">
        <ele>1866.9289451512</ele>
        <time>2001-05-23T12:01:13.11</time>
      </trkpt>
      <trkpt lat="42.52084" lon="2.05358">
        <ele>1866.0405446254</ele>
        <time>2001-05-23T12:01:14.11</time>
      </trkpt>
      <trkpt lat="42.52084" lon="2.05356">
        <ele>1865.7174363922</ele>
        <time>2001-05-23T12:01:15.11</time>
      </trkpt>
      <trkpt lat="42.52085" lon="2.05355">
        <ele>1865.6926279392</ele>
        <time>2001-05-23T12:01:16.11</time>
      </trkpt>
      <trkpt lat="42.52085" lon="2.05353">
        <ele>1866.0618875301</ele>
        <time>2001-05-23T12:01:17.11</time>
      </trkpt>
      <trkpt lat="42.52086" lon="2.05352">
        <ele>1866.7215790328</ele>
        <time>2001-05-23T12:01:18.11</time>
      </trkpt>
      <trkpt lat="42.52085" lon="2.0535">
        <ele>1867.4435827436</ele>
        <time>2001-05-23T12:01:19.11</time>
      </trkpt>
      <trkpt lat="42.52086" lon="2.05349">
        <ele>1867.8310691373</ele>
        <time>2001-05-23T12:01:20.11</time>
      </trkpt>
      <trkpt lat="42.52087" lon="2.05347">
        <ele>1867.5585872166</ele>
        <time>2001-05-23T12:01:21.11</time>
      </trkpt>
      <trkpt lat="42.52088" lon="2.05346">
        <ele>1867.197086403</ele>
        <time>2001-05-23T12:01:22.11</time>
      </trkpt>
      <trkpt lat="42.52089" lon="2.05345">
        <ele>1866.7031811697</ele>
        <time>2001-05-23T12:01:23.11</time>
      </trkpt>
      <trkpt lat="42.52089" lon="2.05344">
        <ele>1865.9895570211</ele>
        <time>2001-05-23T12:01:24.11</time>
      </trkpt>
      <trkpt lat="42.52088" lon="2.05343">
        <ele>1865.3391867233</ele>
        <time>2001-05-23T12:01:25.11</time>
      </trkpt>
      <trkpt lat="42.52089" lon="2.05343">
        <ele>1865.2743581457</ele>
        <time>2001-05-23T12:01:26.11</time>
      </trkpt>
      <trkpt lat="42.52088" lon="2.05344">
        <ele>1865.4132309448</ele>
        <time>2001-05-23T12:01:27.11</time>
      </trkpt>
      <trkpt lat="42.52087" lon="2.05346">
        <ele>1866.494787408</ele>
        <time>2001-05-23T12:01:28.9</time>
      </trkpt>
      <trkpt lat="42.52087" lon="2.05346">
        <ele>1867.579641212</ele>
        <time>2001-05-23T12:01:29.9</time>
      </trkpt>
      <trkpt lat="42.52088" lon="2.05346">
        <ele>1868.5210433962</ele>
        <time>2001-05-23T12:01:30.12</time>
      </trkpt>
      <trkpt lat="42.52088" lon="2.05346">
        <ele>1869.3914440911</ele>
        <time>2001-05-23T12:01:31.12</time>
      </trkpt>
      <trkpt lat="42.52089" lon="2.05346">
        <ele>1869.7910143998</ele>
        <time>2001-05-23T12:01:32.4</time>
      </trkpt>
      <trkpt lat="42.52091" lon="2.05346">
        <ele>1869.1006629786</ele>
        <time>2001-05-23T12:01:33.4</time>
      </trkpt>
      <trkpt lat="42.52092" lon="2.05345">
        <ele>1868.1811293917</ele>
        <time>2001-05-23T12:01:34.4</time>
      </trkpt>
      <trkpt lat="42.52092" lon="2.05345">
        <ele>1867.4746359186</ele>
        <time>2001-05-23T12:01:35.4</time>
      </trkpt>
      <trkpt lat="42.52093" lon="2.05345">
        <ele>1866.5266541</ele>
        <time>2001-05-23T12:01:36.5</time>
      </trkpt>
      <trkpt lat="42.52093" lon="2.05345">
        <ele>1865.8285690401</ele>
        <time>2001-05-23T12:01:37.5</time>
      </trkpt>
      <trkpt lat="42.52095" lon="2.05345">
        <ele>1864.8563623015</ele>
        <time>2001-05-23T12:01:38.4</time>
      </trkpt>
      <trkpt lat="42.52096" lon="2.05345">
        <ele>1864.0413867569</ele>
        <time>2001-05-23T12:01:39.4</time>
      </trkpt>
      <trkpt lat="42.52095" lon="2.05345">
        <ele>1863.3222795768</ele>
        <time>2001-05-23T12:01:40.6</time>
      </trkpt>
      <trkpt lat="42.52095" lon="2.05345">
        <ele>1862.8446607422</ele>
        <time>2001-05-23T12:01:41.6</time>
      </trkpt>
      <trkpt lat="42.52096" lon="2.05346">
        <ele>1862.3114713753</ele>
        <time>2001-05-23T12:01:42.2</time>
      </trkpt>
      <trkpt lat="42.52096" lon="2.05346">
        <ele>1862.2798182357</ele>
        <time>2001-05-23T12:01:43.2</time>
      </trkpt>
      <trkpt lat="42.52098" lon="2.05346">
        <ele>1862.41541526</ele>
        <time>2001-05-23T12:01:44.2</time>
      </trkpt>
      <trkpt lat="42.52098" lon="2.05346">
        <ele>1862.4551439198</ele>
        <time>2001-05-23T12:01:45.2</time>
      </trkpt>
      <trkpt lat="42.52099" lon="2.05345">
        <ele>1862.3919418601</ele>
        <time>2001-05-23T12:01:46.7</time>
      </trkpt>
      <trkpt lat="42.52099" lon="2.05345">
        <ele>1862.3843103329</ele>
        <time>2001-05-23T12:01:47.7</time>
      </trkpt>
      <trkpt lat="42.52099" lon="2.05345">
        <ele>1862.2701605892</ele>
        <time>2001-05-23T12:01:48.34</time>
      </trkpt>
      <trkpt lat="42.52099" lon="2.05345">
        <ele>1862.0607116533</ele>
        <time>2001-05-23T12:01:49.34</time>
      </trkpt>
      <trkpt lat="42.52098" lon="2.05346">
        <ele>1862.2091608055</ele>
        <time>2001-05-23T12:01:50.31</time>
      </trkpt>
      <trkpt lat="42.52098" lon="2.05346">
        <ele>1862.460540677</ele>
        <time>2001-05-23T12:01:51.31</time>
      </trkpt>
      <trkpt lat="42.52097" lon="2.05347">
        <ele>1862.9609076822</ele>
        <time>2001-05-23T12:01:52.31</time>
      </trkpt>
      <trkpt lat="42.52097" lon="2.05347">
        <ele>1863.5677929038</ele>
        <time>2001-05-23T12:01:53.31</time>
      </trkpt>
      <trkpt lat="42.52096" lon="2.05347">
        <ele>1864.2111771716</ele>
        <time>2001-05-23T12:01:54.31</time>
      </trkpt>
      <trkpt lat="42.52096" lon="2.05347">
        <ele>1864.4966633514</ele>
        <time>2001-05-23T12:01:55.31</time>
      </trkpt>
      <trkpt lat="42.52097" lon="2.05348">
        <ele>1864.9251986582</ele>
        <time>2001-05-23T12:01:56.30</time>
      </trkpt>
      <trkpt lat="42.52097" lon="2.05348">
        <ele>1865.1047468314</ele>
        <time>2001-05-23T12:01:57.30</time>
      </trkpt>
      <trkpt lat="42.52098" lon="2.05349">
        <ele>1865.2081943115</ele>
        <time>2001-05-23T12:01:58.31</time>
      </trkpt>
      <trkpt lat="42.52098" lon="2.05349">
        <ele>1865.2751427455</ele>
        <time>2001-05-23T12:01:59.31</time>
      </trkpt>
      <trkpt lat="42.52097" lon="2.05348">
        <ele>1865.4169340152</ele>
        <time>2001-05-23T12:02:00.31</time>
      </trkpt>
      <trkpt lat="42.52097" lon="2.05348">
        <ele>1865.4156761579</ele>
        <time>2001-05-23T12:02:01.31</time>
      </trkpt>
      <trkpt lat="42.52096" lon="2.05348">
        <ele>1865.1964078916</ele>
        <time>2001-05-23T12:02:02.28</time>
      </trkpt>
      <trkpt lat="42.52095" lon="2.05347">
        <ele>1865.0419850888</ele>
        <time>2001-05-23T12:02:03.28</time>
      </trkpt>
      <trkpt lat="42.52094" lon="2.05347">
        <ele>1865.3358127533</ele>
        <time>2001-05-23T12:02:04.27</time>
      </trkpt>
      <trkpt lat="42.52094" lon="2.05347">
        <ele>1865.554797582</ele>
        <time>2001-05-23T12:02:05.27</time>
      </trkpt>
      <trkpt lat="42.52092" lon="2.05347">
        <ele>1865.5796858262</ele>
        <time>2001-05-23T12:02:06.30</time>
      </trkpt>
      <trkpt lat="42.52092" lon="2.05346">
        <ele>1865.3416728366</ele>
        <time>2001-05-23T12:02:07.30</time>
      </trkpt>
      <trkpt lat="42.52092" lon="2.05345">
        <ele>1864.9720032422</ele>
        <time>2001-05-23T12:02:08.28</time>
      </trkpt>
      <trkpt lat="42.52092" lon="2.05345">
        <ele>1864.1540831804</ele>
        <time>2001-05-23T12:02:09.28</time>
      </trkpt>
      <trkpt lat="42.52093" lon="2.05345">
        <ele>1863.1527693346</ele>
        <time>2001-05-23T12:02:10.27</time>
      </trkpt>
      <trkpt lat="42.52093" lon="2.05343">
        <ele>1862.1306028552</ele>
        <time>2001-05-23T12:02:11.27</time>
      </trkpt>
      <trkpt lat="42.52092" lon="2.05343">
        <ele>1861.7506263202</ele>
        <time>2001-05-23T12:02:12.27</time>
      </trkpt>
      <trkpt lat="42.52093" lon="2.05343">
        <ele>1861.482269777</ele>
        <time>2001-05-23T12:02:13.25</time>
      </trkpt>
      <trkpt lat="42.52093" lon="2.05343">
        <ele>1861.2139132338</ele>
        <time>2001-05-23T12:02:14.25</time>
      </trkpt>
      <trkpt lat="42.52092" lon="2.05343">
        <ele>1861.2202098582</ele>
        <time>2001-05-23T12:02:15.27</time>
      </trkpt>
      <trkpt lat="42.52092" lon="2.05343">
        <ele>1861.4414557006</ele>
        <time>2001-05-23T12:02:16.27</time>
      </trkpt>
      <trkpt lat="42.52091" lon="2.05342">
        <ele>1861.4899637686</ele>
        <time>2001-05-23T12:02:17.27</time>
      </trkpt>
      <trkpt lat="42.5209" lon="2.05342">
        <ele>1861.6770280002</ele>
        <time>2001-05-23T12:02:18.27</time>
      </trkpt>
      <trkpt lat="42.5209" lon="2.05341">
        <ele>1861.7120955959</ele>
        <time>2001-05-23T12:02:19.27</time>
      </trkpt>
      <trkpt lat="42.52089" lon="2.05342">
        <ele>1861.7678192105</ele>
        <time>2001-05-23T12:02:20.27</time>
      </trkpt>
      <trkpt lat="42.52088" lon="2.05345">
        <ele>1862.2556479536</ele>
        <time>2001-05-23T12:02:21.27</time>
      </trkpt>
      <trkpt lat="42.52088" lon="2.05345">
        <ele>1862.7549361696</ele>
        <time>2001-05-23T12:02:22.27</time>
      </trkpt>
      <trkpt lat="42.52087" lon="2.05345">
        <ele>1863.6453849921</ele>
        <time>2001-05-23T12:02:23.28</time>
      </trkpt>
      <trkpt lat="42.52086" lon="2.05346">
        <ele>1864.9812044831</ele>
        <time>2001-05-23T12:02:24.28</time>
      </trkpt>
      <trkpt lat="42.52085" lon="2.05346">
        <ele>1866.5586146226</ele>
        <time>2001-05-23T12:02:25.29</time>
      </trkpt>
      <trkpt lat="42.52085" lon="2.05345">
        <ele>1867.9914132873</ele>
        <time>2001-05-23T12:02:26.29</time>
      </trkpt>
      <trkpt lat="42.52084" lon="2.05346">
        <ele>1869.6778651988</ele>
        <time>2001-05-23T12:02:27.30</time>
      </trkpt>
      <trkpt lat="42.52084" lon="2.05346">
        <ele>1870.865892183</ele>
        <time>2001-05-23T12:02:28.30</time>
      </trkpt>
      <trkpt lat="42.52083" lon="2.05346">
        <ele>1872.4232239749</ele>
        <time>2001-05-23T12:02:29.32</time>
      </trkpt>
      <trkpt lat="42.52083" lon="2.05346">
        <ele>1873.6270497158</ele>
        <time>2001-05-23T12:02:30.32</time>
      </trkpt>
      <trkpt lat="42.52083" lon="2.05345">
        <ele>1874.3706727277</ele>
        <time>2001-05-23T12:02:31.33</time>
      </trkpt>
      <trkpt lat="42.52083" lon="2.05345">
        <ele>1874.8606424928</ele>
        <time>2001-05-23T12:02:32.33</time>
      </trkpt>
      <trkpt lat="42.52083" lon="2.05347">
        <ele>1875.5571077475</ele>
        <time>2001-05-23T12:02:33.34</time>
      </trkpt>
      <trkpt lat="42.52083" lon="2.05349">
        <ele>1875.6614266094</ele>
        <time>2001-05-23T12:02:34.34</time>
      </trkpt>
      <trkpt lat="42.52084" lon="2.05348">
        <ele>1875.6832416216</ele>
        <time>2001-05-23T12:02:34.983</time>
      </trkpt>
      <trkpt lat="42.52084" lon="2.05348">
        <ele>1875.8777657092</ele>
        <time>2001-05-23T12:02:35.983</time>
      </trkpt>
      <trkpt lat="42.52084" lon="2.05348">
        <ele>1876.4288843313</ele>
        <time>2001-05-23T12:02:37.19</time>
      </trkpt>
      <trkpt lat="42.52084" lon="2.05348">
        <ele>1876.7735074637</ele>
        <time>2001-05-23T12:02:38.19</time>
      </trkpt>
      <trkpt lat="42.52085" lon="2.05348">
        <ele>1877.0367935492</ele>
        <time>2001-05-23T12:02:39.21</time>
      </trkpt>
      <trkpt lat="42.52086" lon="2.05348">
        <ele>1877.4423492083</ele>
        <time>2001-05-23T12:02:40.21</time>
      </trkpt>
      <trkpt lat="42.52088" lon="2.05349">
        <ele>1878.0089812506</ele>
        <time>2001-05-23T12:02:41.22</time>
      </trkpt>
      <trkpt lat="42.52088" lon="2.05349">
        <ele>1878.2190187583</ele>
        <time>2001-05-23T12:02:42.22</time>
      </trkpt>
      <trkpt lat="42.52089" lon="2.05349">
        <ele>1878.3350183409</ele>
        <time>2001-05-23T12:02:43.22</time>
      </trkpt>
      <trkpt lat="42.5209" lon="2.05349">
        <ele>1878.5674465112</ele>
        <time>2001-05-23T12:02:44.22</time>
      </trkpt>
      <trkpt lat="42.52092" lon="2.05349">
        <ele>1878.753793647</ele>
        <time>2001-05-23T12:02:45.22</time>
      </trkpt>
      <trkpt lat="42.52093" lon="2.05349">
        <ele>1878.7631950647</ele>
        <time>2001-05-23T12:02:46.22</time>
      </trkpt>
      <trkpt lat="42.52095" lon="2.05348">
        <ele>1878.7471752526</ele>
        <time>2001-05-23T12:02:47.22</time>
      </trkpt>
      <trkpt lat="42.52096" lon="2.05346">
        <ele>1878.6771506833</ele>
        <time>2001-05-23T12:02:48.22</time>
      </trkpt>
      <trkpt lat="42.52097" lon="2.05343">
        <ele>1878.2549274893</ele>
        <time>2001-05-23T12:02:49.22</time>
      </trkpt>
      <trkpt lat="42.52098" lon="2.0534">
        <ele>1877.5666162193</ele>
        <time>2001-05-23T12:02:50.22</time>
      </trkpt>
      <trkpt lat="42.52099" lon="2.05338">
        <ele>1876.3945426149</ele>
        <time>2001-05-23T12:02:51.22</time>
      </trkpt>
      <trkpt lat="42.521" lon="2.05336">
        <ele>1875.1099080641</ele>
        <time>2001-05-23T12:02:52.22</time>
      </trkpt>
      <trkpt lat="42.52101" lon="2.05335">
        <ele>1873.9260244954</ele>
        <time>2001-05-23T12:02:53.22</time>
      </trkpt>
      <trkpt lat="42.52102" lon="2.05334">
        <ele>1872.7518381331</ele>
        <time>2001-05-23T12:02:54.22</time>
      </trkpt>
      <trkpt lat="42.52103" lon="2.05333">
        <ele>1871.5057753233</ele>
        <time>2001-05-23T12:02:55.22</time>
      </trkpt>
      <trkpt lat="42.52104" lon="2.05332">
        <ele>1870.2617609678</ele>
        <time>2001-05-23T12:02:56.22</time>
      </trkpt>
      <trkpt lat="42.52104" lon="2.05332">
        <ele>1869.2035328006</ele>
        <time>2001-05-23T12:02:57.22</time>
      </trkpt>
      <trkpt lat="42.52105" lon="2.05331">
        <ele>1868.0972570971</ele>
        <time>2001-05-23T12:02:58.22</time>
      </trkpt>
      <trkpt lat="42.52106" lon="2.0533">
        <ele>1867.1484153837</ele>
        <time>2001-05-23T12:02:59.22</time>
      </trkpt>
      <trkpt lat="42.52107" lon="2.05329">
        <ele>1866.2861030649</ele>
        <time>2001-05-23T12:03:00.22</time>
      </trkpt>
      <trkpt lat="42.52108" lon="2.05328">
        <ele>1865.7659370786</ele>
        <time>2001-05-23T12:03:01.22</time>
      </trkpt>
      <trkpt lat="42.52108" lon="2.05327">
        <ele>1865.3004153343</ele>
        <time>2001-05-23T12:03:02.22</time>
      </trkpt>
      <trkpt lat="42.52109" lon="2.05327">
        <ele>1864.8664836518</ele>
        <time>2001-05-23T12:03:03.22</time>
      </trkpt>
      <trkpt lat="42.52111" lon="2.05326">
        <ele>1864.2392969493</ele>
        <time>2001-05-23T12:03:04.22</time>
      </trkpt>
      <trkpt lat="42.52111" lon="2.05325">
        <ele>1863.626760501</ele>
        <time>2001-05-23T12:03:05.22</time>
      </trkpt>
      <trkpt lat="42.52112" lon="2.05324">
        <ele>1863.0133396199</ele>
        <time>2001-05-23T12:03:06.22</time>
      </trkpt>
      <trkpt lat="42.52113" lon="2.05323">
        <ele>1862.4825262396</ele>
        <time>2001-05-23T12:03:07.22</time>
      </trkpt>
      <trkpt lat="42.52113" lon="2.05322">
        <ele>1862.1645312876</ele>
        <time>2001-05-23T12:03:08.22</time>
      </trkpt>
      <trkpt lat="42.52114" lon="2.05322">
        <ele>1862.089952418</ele>
        <time>2001-05-23T12:03:09.22</time>
      </trkpt>
      <trkpt lat="42.52115" lon="2.05321">
        <ele>1862.1884072701</ele>
        <time>2001-05-23T12:03:10.22</time>
      </trkpt>
      <trkpt lat="42.52115" lon="2.0532">
        <ele>1862.6907358689</ele>
        <time>2001-05-23T12:03:11.22</time>
      </trkpt>
      <trkpt lat="42.52116" lon="2.05318">
        <ele>1863.0876383705</ele>
        <time>2001-05-23T12:03:12.22</time>
      </trkpt>
      <trkpt lat="42.52117" lon="2.05318">
        <ele>1863.18049359</ele>
        <time>2001-05-23T12:03:13.22</time>
      </trkpt>
      <trkpt lat="42.52117" lon="2.05317">
        <ele>1863.3150518589</ele>
        <time>2001-05-23T12:03:14.22</time>
      </trkpt>
      <trkpt lat="42.52118" lon="2.05316">
        <ele>1863.4880621757</ele>
        <time>2001-05-23T12:03:15.22</time>
      </trkpt>
      <trkpt lat="42.52119" lon="2.05315">
        <ele>1863.5069351334</ele>
        <time>2001-05-23T12:03:16.22</time>
      </trkpt>
      <trkpt lat="42.52119" lon="2.05314">
        <ele>1863.6487801118</ele>
        <time>2001-05-23T12:03:17.22</time>
      </trkpt>
      <trkpt lat="42.52119" lon="2.05314">
        <ele>1864.1259483935</ele>
        <time>2001-05-23T12:03:18.22</time>
      </trkpt>
      <trkpt lat="42.52121" lon="2.05313">
        <ele>1864.7211095272</ele>
        <time>2001-05-23T12:03:19.21</time>
      </trkpt>
      <trkpt lat="42.52122" lon="2.05313">
        <ele>1865.2426487422</ele>
        <time>2001-05-23T12:03:20.21</time>
      </trkpt>
      <trkpt lat="42.52124" lon="2.05312">
        <ele>1865.6511526773</ele>
        <time>2001-05-23T12:03:21.21</time>
      </trkpt>
      <trkpt lat="42.52124" lon="2.05312">
        <ele>1866.3447280414</ele>
        <time>2001-05-23T12:03:22.21</time>
      </trkpt>
      <trkpt lat="42.52125" lon="2.05311">
        <ele>1867.0069542434</ele>
        <time>2001-05-23T12:03:23.21</time>
      </trkpt>
      <trkpt lat="42.52125" lon="2.0531">
        <ele>1867.6513070766</ele>
        <time>2001-05-23T12:03:24.21</time>
      </trkpt>
      <trkpt lat="42.52126" lon="2.05309">
        <ele>1868.2312523969</ele>
        <time>2001-05-23T12:03:25.21</time>
      </trkpt>
      <trkpt lat="42.52127" lon="2.05308">
        <ele>1868.6287811432</ele>
        <time>2001-05-23T12:03:26.21</time>
      </trkpt>
      <trkpt lat="42.52127" lon="2.05307">
        <ele>1868.7662111128</ele>
        <time>2001-05-23T12:03:27.21</time>
      </trkpt>
      <trkpt lat="42.52128" lon="2.05307">
        <ele>1868.5889649518</ele>
        <time>2001-05-23T12:03:28.21</time>
      </trkpt>
      <trkpt lat="42.52127" lon="2.05309">
        <ele>1868.3737687694</ele>
        <time>2001-05-23T12:03:29.22</time>
      </trkpt>
      <trkpt lat="42.52127" lon="2.05309">
        <ele>1868.3082164342</ele>
        <time>2001-05-23T12:03:30.22</time>
      </trkpt>
      <trkpt lat="42.52128" lon="2.0531">
        <ele>1868.461913844</ele>
        <time>2001-05-23T12:03:31.21</time>
      </trkpt>
      <trkpt lat="42.52128" lon="2.0531">
        <ele>1868.3880369231</ele>
        <time>2001-05-23T12:03:32.21</time>
      </trkpt>
      <trkpt lat="42.5213" lon="2.05307">
        <ele>1867.8434591804</ele>
        <time>2001-05-23T12:03:33.18</time>
      </trkpt>
      <trkpt lat="42.52132" lon="2.05305">
        <ele>1866.8444463631</ele>
        <time>2001-05-23T12:03:34.18</time>
      </trkpt>
      <trkpt lat="42.52133" lon="2.05304">
        <ele>1865.7002571883</ele>
        <time>2001-05-23T12:03:35.18</time>
      </trkpt>
      <trkpt lat="42.52134" lon="2.05302">
        <ele>1864.9861334044</ele>
        <time>2001-05-23T12:03:36.18</time>
      </trkpt>
      <trkpt lat="42.52135" lon="2.053">
        <ele>1864.3235444829</ele>
        <time>2001-05-23T12:03:37.18</time>
      </trkpt>
      <trkpt lat="42.52136" lon="2.05298">
        <ele>1864.4902552728</ele>
        <time>2001-05-23T12:03:38.18</time>
      </trkpt>
      <trkpt lat="42.52136" lon="2.05298">
        <ele>1865.3399204014</ele>
        <time>2001-05-23T12:03:39.18</time>
      </trkpt>
      <trkpt lat="42.52138" lon="2.05298">
        <ele>1866.0693515388</ele>
        <time>2001-05-23T12:03:40.18</time>
      </trkpt>
      <trkpt lat="42.5214" lon="2.05298">
        <ele>1866.2689952191</ele>
        <time>2001-05-23T12:03:41.18</time>
      </trkpt>
      <trkpt lat="42.5214" lon="2.05298">
        <ele>1866.5758984091</ele>
        <time>2001-05-23T12:03:42.18</time>
      </trkpt>
      <trkpt lat="42.52142" lon="2.05296">
        <ele>1866.5961605951</ele>
        <time>2001-05-23T12:03:43.18</time>
      </trkpt>
      <trkpt lat="42.52142" lon="2.05297">
        <ele>1866.2805207239</ele>
        <time>2001-05-23T12:03:44.18</time>
      </trkpt>
      <trkpt lat="42.52142" lon="2.05296">
        <ele>1866.0604841145</ele>
        <time>2001-05-23T12:03:45.18</time>
      </trkpt>
      <trkpt lat="42.52142" lon="2.05295">
        <ele>1866.0412710039</ele>
        <time>2001-05-23T12:03:46.18</time>
      </trkpt>
      <trkpt lat="42.52143" lon="2.05294">
        <ele>1865.8280575853</ele>
        <time>2001-05-23T12:03:47.18</time>
      </trkpt>
      <trkpt lat="42.52143" lon="2.05292">
        <ele>1865.806068841</ele>
        <time>2001-05-23T12:03:48.18</time>
      </trkpt>
      <trkpt lat="42.52144" lon="2.05291">
        <ele>1865.950339089</ele>
        <time>2001-05-23T12:03:49.18</time>
      </trkpt>
      <trkpt lat="42.52145" lon="2.0529">
        <ele>1865.8743396204</ele>
        <time>2001-05-23T12:03:50.18</time>
      </trkpt>
      <trkpt lat="42.52146" lon="2.05289">
        <ele>1865.3302960668</ele>
        <time>2001-05-23T12:03:51.18</time>
      </trkpt>
      <trkpt lat="42.52147" lon="2.05289">
        <ele>1864.7361670313</ele>
        <time>2001-05-23T12:03:52.18</time>
      </trkpt>
      <trkpt lat="42.52148" lon="2.05288">
        <ele>1864.0563558185</ele>
        <time>2001-05-23T12:03:53.18</time>
      </trkpt>
      <trkpt lat="42.52148" lon="2.05288">
        <ele>1863.1656008082</ele>
        <time>2001-05-23T12:03:54.18</time>
      </trkpt>
      <trkpt lat="42.52149" lon="2.05287">
        <ele>1862.8256755665</ele>
        <time>2001-05-23T12:03:55.18</time>
      </trkpt>
      <trkpt lat="42.5215" lon="2.05284">
        <ele>1863.3635796497</ele>
        <time>2001-05-23T12:03:56.18</time>
      </trkpt>
      <trkpt lat="42.52151" lon="2.05283">
        <ele>1863.95631117</ele>
        <time>2001-05-23T12:03:57.18</time>
      </trkpt>
      <trkpt lat="42.52152" lon="2.05282">
        <ele>1864.4645872952</ele>
        <time>2001-05-23T12:03:58.18</time>
      </trkpt>
      <trkpt lat="42.52153" lon="2.05282">
        <ele>1865.0508925349</ele>
        <time>2001-05-23T12:03:59.18</time>
      </trkpt>
      <trkpt lat="42.52153" lon="2.05282">
        <ele>1865.730352352</ele>
        <time>2001-05-23T12:04:00.18</time>
      </trkpt>
      <trkpt lat="42.52153" lon="2.05281">
        <ele>1866.0582524965</ele>
        <time>2001-05-23T12:04:01.18</time>
      </trkpt>
      <trkpt lat="42.52154" lon="2.0528">
        <ele>1866.6302826283</ele>
        <time>2001-05-23T12:04:02.20</time>
      </trkpt>
      <trkpt lat="42.52155" lon="2.05279">
        <ele>1867.272783331</ele>
        <time>2001-05-23T12:04:03.20</time>
      </trkpt>
      <trkpt lat="42.52155" lon="2.05278">
        <ele>1867.9701577825</ele>
        <time>2001-05-23T12:04:04.20</time>
      </trkpt>
      <trkpt lat="42.52156" lon="2.05277">
        <ele>1868.2730815042</ele>
        <time>2001-05-23T12:04:05.20</time>
      </trkpt>
      <trkpt lat="42.52158" lon="2.05278">
        <ele>1869.3987556994</ele>
        <time>2001-05-23T12:04:06.21</time>
      </trkpt>
      <trkpt lat="42.52159" lon="2.05277">
        <ele>1870.3147265157</ele>
        <time>2001-05-23T12:04:07.21</time>
      </trkpt>
      <trkpt lat="42.5216" lon="2.05276">
        <ele>1870.9533213375</ele>
        <time>2001-05-23T12:04:08.21</time>
      </trkpt>
      <trkpt lat="42.52161" lon="2.05275">
        <ele>1871.1807801412</ele>
        <time>2001-05-23T12:04:09.21</time>
      </trkpt>
      <trkpt lat="42.52163" lon="2.05274">
        <ele>1871.2949414702</ele>
        <time>2001-05-23T12:04:10.21</time>
      </trkpt>
      <trkpt lat="42.52163" lon="2.05274">
        <ele>1870.3858691061</ele>
        <time>2001-05-23T12:04:11.21</time>
      </trkpt>
      <trkpt lat="42.52163" lon="2.05273">
        <ele>1869.832260246</ele>
        <time>2001-05-23T12:04:12.21</time>
      </trkpt>
      <trkpt lat="42.52163" lon="2.05272">
        <ele>1869.972115737</ele>
        <time>2001-05-23T12:04:13.21</time>
      </trkpt>
      <trkpt lat="42.52164" lon="2.05272">
        <ele>1870.733258589</ele>
        <time>2001-05-23T12:04:14.21</time>
      </trkpt>
      <trkpt lat="42.52165" lon="2.05271">
        <ele>1871.9193145398</ele>
        <time>2001-05-23T12:04:15.20</time>
      </trkpt>
      <trkpt lat="42.52166" lon="2.0527">
        <ele>1872.9578188408</ele>
        <time>2001-05-23T12:04:16.20</time>
      </trkpt>
      <trkpt lat="42.52167" lon="2.05268">
        <ele>1873.8031985689</ele>
        <time>2001-05-23T12:04:17.20</time>
      </trkpt>
      <trkpt lat="42.52168" lon="2.05268">
        <ele>1874.1515766397</ele>
        <time>2001-05-23T12:04:18.20</time>
      </trkpt>
      <trkpt lat="42.52169" lon="2.05268">
        <ele>1874.1415021226</ele>
        <time>2001-05-23T12:04:19.20</time>
      </trkpt>
      <trkpt lat="42.52169" lon="2.05268">
        <ele>1874.001937755</ele>
        <time>2001-05-23T12:04:20.20</time>
      </trkpt>
      <trkpt lat="42.5217" lon="2.05268">
        <ele>1874.1632604709</ele>
        <time>2001-05-23T12:04:21.20</time>
      </trkpt>
      <trkpt lat="42.52171" lon="2.05267">
        <ele>1874.0577706169</ele>
        <time>2001-05-23T12:04:22.20</time>
      </trkpt>
      <trkpt lat="42.52171" lon="2.05267">
        <ele>1873.8877896929</ele>
        <time>2001-05-23T12:04:23.20</time>
      </trkpt>
      <trkpt lat="42.52172" lon="2.05267">
        <ele>1873.5447824905</ele>
        <time>2001-05-23T12:04:24.20</time>
      </trkpt>
      <trkpt lat="42.52174" lon="2.05266">
        <ele>1872.6449272085</ele>
        <time>2001-05-23T12:04:25.20</time>
      </trkpt>
      <trkpt lat="42.52174" lon="2.05267">
        <ele>1871.7519246381</ele>
        <time>2001-05-23T12:04:26.20</time>
      </trkpt>
      <trkpt lat="42.52175" lon="2.05266">
        <ele>1871.047743856</ele>
        <time>2001-05-23T12:04:27.20</time>
      </trkpt>
      <trkpt lat="42.52175" lon="2.05266">
        <ele>1870.4864215765</ele>
        <time>2001-05-23T12:04:28.20</time>
      </trkpt>
      <trkpt lat="42.52177" lon="2.05266">
        <ele>1869.7453090545</ele>
        <time>2001-05-23T12:04:29.20</time>
      </trkpt>
      <trkpt lat="42.52177" lon="2.05265">
        <ele>1869.4542223629</ele>
        <time>2001-05-23T12:04:30.20</time>
      </trkpt>
      <trkpt lat="42.52178" lon="2.05265">
        <ele>1869.2112951316</ele>
        <time>2001-05-23T12:04:31.20</time>
      </trkpt>
      <trkpt lat="42.52177" lon="2.05264">
        <ele>1869.2815395391</ele>
        <time>2001-05-23T12:04:32.20</time>
      </trkpt>
      <trkpt lat="42.52178" lon="2.05262">
        <ele>1870.3960195372</ele>
        <time>2001-05-23T12:04:33.20</time>
      </trkpt>
      <trkpt lat="42.52179" lon="2.05262">
        <ele>1871.7495882208</ele>
        <time>2001-05-23T12:04:34.20</time>
      </trkpt>
      <trkpt lat="42.5218" lon="2.05261">
        <ele>1873.0033369234</ele>
        <time>2001-05-23T12:04:35.20</time>
      </trkpt>
      <trkpt lat="42.52181" lon="2.0526">
        <ele>1874.0610590659</ele>
        <time>2001-05-23T12:04:36.20</time>
      </trkpt>
      <trkpt lat="42.52181" lon="2.0526">
        <ele>1874.7822777381</ele>
        <time>2001-05-23T12:04:37.20</time>
      </trkpt>
      <trkpt lat="42.52181" lon="2.05259">
        <ele>1874.7852742048</ele>
        <time>2001-05-23T12:04:38.20</time>
      </trkpt>
      <trkpt lat="42.52181" lon="2.05258">
        <ele>1875.0661925014</ele>
        <time>2001-05-23T12:04:39.20</time>
      </trkpt>
      <trkpt lat="42.52182" lon="2.05258">
        <ele>1875.4242758187</ele>
        <time>2001-05-23T12:04:40.20</time>
      </trkpt>
      <trkpt lat="42.52184" lon="2.05258">
        <ele>1875.5953897718</ele>
        <time>2001-05-23T12:04:41.20</time>
      </trkpt>
      <trkpt lat="42.52184" lon="2.05258">
        <ele>1875.8122242333</ele>
        <time>2001-05-23T12:04:42.20</time>
      </trkpt>
      <trkpt lat="42.52184" lon="2.05258">
        <ele>1875.7077556374</ele>
        <time>2001-05-23T12:04:43.20</time>
      </trkpt>
      <trkpt lat="42.52185" lon="2.05257">
        <ele>1875.3597617919</ele>
        <time>2001-05-23T12:04:44.19</time>
      </trkpt>
      <trkpt lat="42.52185" lon="2.05257">
        <ele>1875.1912617013</ele>
        <time>2001-05-23T12:04:45.19</time>
      </trkpt>
      <trkpt lat="42.52188" lon="2.05256">
        <ele>1874.6246677263</ele>
        <time>2001-05-23T12:04:46.16</time>
      </trkpt>
      <trkpt lat="42.52189" lon="2.05253">
        <ele>1873.6523685541</ele>
        <time>2001-05-23T12:04:47.16</time>
      </trkpt>
      <trkpt lat="42.5219" lon="2.05252">
        <ele>1872.9444413554</ele>
        <time>2001-05-23T12:04:48.16</time>
      </trkpt>
      <trkpt lat="42.5219" lon="2.05252">
        <ele>1872.6194604564</ele>
        <time>2001-05-23T12:04:49.16</time>
      </trkpt>
      <trkpt lat="42.52191" lon="2.05251">
        <ele>1872.0599888621</ele>
        <time>2001-05-23T12:04:50.16</time>
      </trkpt>
      <trkpt lat="42.52191" lon="2.05251">
        <ele>1871.9594693679</ele>
        <time>2001-05-23T12:04:51.16</time>
      </trkpt>
      <trkpt lat="42.52193" lon="2.05251">
        <ele>1871.9351695977</ele>
        <time>2001-05-23T12:04:52.16</time>
      </trkpt>
      <trkpt lat="42.52194" lon="2.05249">
        <ele>1871.431067461</ele>
        <time>2001-05-23T12:04:53.16</time>
      </trkpt>
      <trkpt lat="42.52195" lon="2.05249">
        <ele>1870.6344376452</ele>
        <time>2001-05-23T12:04:54.16</time>
      </trkpt>
      <trkpt lat="42.52196" lon="2.05249">
        <ele>1869.860860851</ele>
        <time>2001-05-23T12:04:55.16</time>
      </trkpt>
      <trkpt lat="42.52197" lon="2.0525">
        <ele>1869.1952689674</ele>
        <time>2001-05-23T12:04:56.16</time>
      </trkpt>
      <trkpt lat="42.52197" lon="2.05249">
        <ele>1868.7881349828</ele>
        <time>2001-05-23T12:04:57.16</time>
      </trkpt>
      <trkpt lat="42.52199" lon="2.05248">
        <ele>1868.374550952</ele>
        <time>2001-05-23T12:04:58.16</time>
      </trkpt>
      <trkpt lat="42.52199" lon="2.05248">
        <ele>1868.1813142622</ele>
        <time>2001-05-23T12:04:59.16</time>
      </trkpt>
      <trkpt lat="42.522" lon="2.05247">
        <ele>1868.2552876247</ele>
        <time>2001-05-23T12:05:00.16</time>
      </trkpt>
      <trkpt lat="42.522" lon="2.05246">
        <ele>1868.4488786476</ele>
        <time>2001-05-23T12:05:01.16</time>
      </trkpt>
      <trkpt lat="42.52201" lon="2.05245">
        <ele>1868.6285373352</ele>
        <time>2001-05-23T12:05:02.16</time>
      </trkpt>
      <trkpt lat="42.52202" lon="2.05245">
        <ele>1868.9063476615</ele>
        <time>2001-05-23T12:05:03.16</time>
      </trkpt>
      <trkpt lat="42.52203" lon="2.05244">
        <ele>1869.0986817785</ele>
        <time>2001-05-23T12:05:04.16</time>
      </trkpt>
      <trkpt lat="42.52203" lon="2.05243">
        <ele>1869.2599346265</ele>
        <time>2001-05-23T12:05:05.16</time>
      </trkpt>
      <trkpt lat="42.52205" lon="2.05242">
        <ele>1869.2066550815</ele>
        <time>2001-05-23T12:05:06.16</time>
      </trkpt>
      <trkpt lat="42.52206" lon="2.05242">
        <ele>1868.8904609628</ele>
        <time>2001-05-23T12:05:07.16</time>
      </trkpt>
      <trkpt lat="42.52207" lon="2.05241">
        <ele>1868.5702750625</ele>
        <time>2001-05-23T12:05:08.16</time>
      </trkpt>
      <trkpt lat="42.52207" lon="2.05241">
        <ele>1868.3390491029</ele>
        <time>2001-05-23T12:05:09.16</time>
      </trkpt>
      <trkpt lat="42.52207" lon="2.05241">
        <ele>1867.7826005699</ele>
        <time>2001-05-23T12:05:10.16</time>
      </trkpt>
      <trkpt lat="42.5221" lon="2.05238">
        <ele>1867.5125737177</ele>
        <time>2001-05-23T12:05:11.17</time>
      </trkpt>
      <trkpt lat="42.5221" lon="2.05238">
        <ele>1867.5759882635</ele>
        <time>2001-05-23T12:05:12.17</time>
      </trkpt>
      <trkpt lat="42.5221" lon="2.05237">
        <ele>1868.4826167997</ele>
        <time>2001-05-23T12:05:13.19</time>
      </trkpt>
      <trkpt lat="42.5221" lon="2.05237">
        <ele>1869.2472027445</ele>
        <time>2001-05-23T12:05:14.19</time>
      </trkpt>
      <trkpt lat="42.52212" lon="2.05236">
        <ele>1871.0447786454</ele>
        <time>2001-05-23T12:05:15.19</time>
      </trkpt>
      <trkpt lat="42.52212" lon="2.05235">
        <ele>1872.8433591707</ele>
        <time>2001-05-23T12:05:16.19</time>
      </trkpt>
      <trkpt lat="42.52213" lon="2.05234">
        <ele>1874.6482365709</ele>
        <time>2001-05-23T12:05:17.19</time>
      </trkpt>
      <trkpt lat="42.52213" lon="2.05234">
        <ele>1876.1463571263</ele>
        <time>2001-05-23T12:05:18.19</time>
      </trkpt>
      <trkpt lat="42.52215" lon="2.05232">
        <ele>1877.3946228484</ele>
        <time>2001-05-23T12:05:19.18</time>
      </trkpt>
      <trkpt lat="42.52214" lon="2.05231">
        <ele>1878.0012362918</ele>
        <time>2001-05-23T12:05:20.18</time>
      </trkpt>
      <trkpt lat="42.52216" lon="2.05228">
        <ele>1878.4155041907</ele>
        <time>2001-05-23T12:05:21.18</time>
      </trkpt>
      <trkpt lat="42.52217" lon="2.05227">
        <ele>1878.7395001989</ele>
        <time>2001-05-23T12:05:22.18</time>
      </trkpt>
      <trkpt lat="42.52217" lon="2.05227">
        <ele>1878.4158348093</ele>
        <time>2001-05-23T12:05:23.18</time>
      </trkpt>
      <trkpt lat="42.52217" lon="2.05228">
        <ele>1878.2761598889</ele>
        <time>2001-05-23T12:05:24.18</time>
      </trkpt>
      <trkpt lat="42.52216" lon="2.05229">
        <ele>1878.3728726463</ele>
        <time>2001-05-23T12:05:25.18</time>
      </trkpt>
      <trkpt lat="42.52216" lon="2.05229">
        <ele>1878.4991678244</ele>
        <time>2001-05-23T12:05:26.18</time>
      </trkpt>
      <trkpt lat="42.52216" lon="2.0523">
        <ele>1879.2273185445</ele>
        <time>2001-05-23T12:05:27.17</time>
      </trkpt>
      <trkpt lat="42.52217" lon="2.05231">
        <ele>1880.3016400306</ele>
        <time>2001-05-23T12:05:28.17</time>
      </trkpt>
      <trkpt lat="42.52219" lon="2.05232">
        <ele>1881.2766208773</ele>
        <time>2001-05-23T12:05:29.17</time>
      </trkpt>
      <trkpt lat="42.5222" lon="2.05232">
        <ele>1881.8349764762</ele>
        <time>2001-05-23T12:05:30.17</time>
      </trkpt>
      <trkpt lat="42.52221" lon="2.05232">
        <ele>1882.3284140876</ele>
        <time>2001-05-23T12:05:31.17</time>
      </trkpt>
      <trkpt lat="42.52221" lon="2.05232">
        <ele>1882.2077048035</ele>
        <time>2001-05-23T12:05:32.17</time>
      </trkpt>
      <trkpt lat="42.52221" lon="2.05232">
        <ele>1881.9797495879</ele>
        <time>2001-05-23T12:05:33.17</time>
      </trkpt>
      <trkpt lat="42.52222" lon="2.05232">
        <ele>1881.4453373916</ele>
        <time>2001-05-23T12:05:34.18</time>
      </trkpt>
      <trkpt lat="42.52222" lon="2.05232">
        <ele>1880.9087574199</ele>
        <time>2001-05-23T12:05:35.18</time>
      </trkpt>
      <trkpt lat="42.52223" lon="2.05233">
        <ele>1880.4588301914</ele>
        <time>2001-05-23T12:05:36.19</time>
      </trkpt>
      <trkpt lat="42.52223" lon="2.05233">
        <ele>1880.0089029629</ele>
        <time>2001-05-23T12:05:37.19</time>
      </trkpt>
      <trkpt lat="42.52224" lon="2.05235">
        <ele>1878.7991537374</ele>
        <time>2001-05-23T12:05:38.20</time>
      </trkpt>
      <trkpt lat="42.52226" lon="2.05234">
        <ele>1877.3559341863</ele>
        <time>2001-05-23T12:05:39.20</time>
      </trkpt>
      <trkpt lat="42.52226" lon="2.05233">
        <ele>1875.8662574176</ele>
        <time>2001-05-23T12:05:40.20</time>
      </trkpt>
      <trkpt lat="42.52228" lon="2.05231">
        <ele>1874.1278808709</ele>
        <time>2001-05-23T12:05:41.20</time>
      </trkpt>
      <trkpt lat="42.52229" lon="2.0523">
        <ele>1872.5743089106</ele>
        <time>2001-05-23T12:05:42.20</time>
      </trkpt>
      <trkpt lat="42.5223" lon="2.05229">
        <ele>1871.679726211</ele>
        <time>2001-05-23T12:05:43.20</time>
      </trkpt>
      <trkpt lat="42.5223" lon="2.05229">
        <ele>1871.4902758211</ele>
        <time>2001-05-23T12:05:44.20</time>
      </trkpt>
      <trkpt lat="42.5223" lon="2.05229">
        <ele>1871.3472826488</ele>
        <time>2001-05-23T12:05:45.20</time>
      </trkpt>
      <trkpt lat="42.5223" lon="2.0523">
        <ele>1871.2527768597</ele>
        <time>2001-05-23T12:05:46.18</time>
      </trkpt>
      <trkpt lat="42.5223" lon="2.05231">
        <ele>1871.0984738341</ele>
        <time>2001-05-23T12:05:47.18</time>
      </trkpt>
      <trkpt lat="42.52228" lon="2.05232">
        <ele>1871.2527080234</ele>
        <time>2001-05-23T12:05:48.18</time>
      </trkpt>
      <trkpt lat="42.52228" lon="2.05232">
        <ele>1871.4069422128</ele>
        <time>2001-05-23T12:05:49.18</time>
      </trkpt>
      <trkpt lat="42.52228" lon="2.05235">
        <ele>1872.327074118</ele>
        <time>2001-05-23T12:05:50.36</time>
      </trkpt>
      <trkpt lat="42.52228" lon="2.05235">
        <ele>1873.4256836623</ele>
        <time>2001-05-23T12:05:51.36</time>
      </trkpt>
      <trkpt lat="42.5223" lon="2.05235">
        <ele>1873.3186559442</ele>
        <time>2001-05-23T12:05:52.50</time>
      </trkpt>
      <trkpt lat="42.5223" lon="2.05235">
        <ele>1873.0039237475</ele>
        <time>2001-05-23T12:05:53.50</time>
      </trkpt>
      <trkpt lat="42.52231" lon="2.05237">
        <ele>1872.9000639988</ele>
        <time>2001-05-23T12:05:54.45</time>
      </trkpt>
      <trkpt lat="42.52231" lon="2.05237">
        <ele>1872.0303065343</ele>
        <time>2001-05-23T12:05:55.45</time>
      </trkpt>
      <trkpt lat="42.52232" lon="2.05238">
        <ele>1871.165568614</ele>
        <time>2001-05-23T12:05:56.47</time>
      </trkpt>
      <trkpt lat="42.52232" lon="2.05238">
        <ele>1871.3814606063</ele>
        <time>2001-05-23T12:05:57.47</time>
      </trkpt>
      <trkpt lat="42.52233" lon="2.05239">
        <ele>1871.3892758572</ele>
        <time>2001-05-23T12:05:58.45</time>
      </trkpt>
      <trkpt lat="42.52233" lon="2.05239">
        <ele>1871.1862186601</ele>
        <time>2001-05-23T12:05:59.45</time>
      </trkpt>
      <trkpt lat="42.52234" lon="2.05238">
        <ele>1871.2023220954</ele>
        <time>2001-05-23T12:06:00.43</time>
      </trkpt>
      <trkpt lat="42.52234" lon="2.05238">
        <ele>1871.2134059865</ele>
        <time>2001-05-23T12:06:01.43</time>
      </trkpt>
      <trkpt lat="42.52235" lon="2.05236">
        <ele>1870.9409965541</ele>
        <time>2001-05-23T12:06:02.43</time>
      </trkpt>
      <trkpt lat="42.52236" lon="2.05235">
        <ele>1871.3572732769</ele>
        <time>2001-05-23T12:06:03.43</time>
      </trkpt>
      <trkpt lat="42.52233" lon="2.05236">
        <ele>1872.4081612607</ele>
        <time>2001-05-23T12:06:04.46</time>
      </trkpt>
      <trkpt lat="42.52232" lon="2.05236">
        <ele>1873.6488780672</ele>
        <time>2001-05-23T12:06:05.46</time>
      </trkpt>
      <trkpt lat="42.52231" lon="2.05237">
        <ele>1876.2509881534</ele>
        <time>2001-05-23T12:06:06.47</time>
      </trkpt>
      <trkpt lat="42.5223" lon="2.05237">
        <ele>1880.0253006399</ele>
        <time>2001-05-23T12:06:07.47</time>
      </trkpt>
      <trkpt lat="42.52231" lon="2.05238">
        <ele>1883.4697330294</ele>
        <time>2001-05-23T12:06:08.48</time>
      </trkpt>
      <trkpt lat="42.52232" lon="2.05238">
        <ele>1886.6062328393</ele>
        <time>2001-05-23T12:06:09.48</time>
      </trkpt>
      <trkpt lat="42.52233" lon="2.05237">
        <ele>1889.597628841</ele>
        <time>2001-05-23T12:06:10.48</time>
      </trkpt>
      <trkpt lat="42.52233" lon="2.05236">
        <ele>1891.42658439</ele>
        <time>2001-05-23T12:06:11.48</time>
      </trkpt>
      <trkpt lat="42.52236" lon="2.05237">
        <ele>1892.2416491741</ele>
        <time>2001-05-23T12:06:12.48</time>
      </trkpt>
      <trkpt lat="42.52237" lon="2.05237">
        <ele>1892.9167296899</ele>
        <time>2001-05-23T12:06:13.48</time>
      </trkpt>
      <trkpt lat="42.52237" lon="2.05237">
        <ele>1893.8327170895</ele>
        <time>2001-05-23T12:06:14.48</time>
      </trkpt>
      <trkpt lat="42.52237" lon="2.05237">
        <ele>1894.4848188423</ele>
        <time>2001-05-23T12:06:15.48</time>
      </trkpt>
      <trkpt lat="42.52237" lon="2.05237">
        <ele>1894.9379677679</ele>
        <time>2001-05-23T12:06:16.48</time>
      </trkpt>
      <trkpt lat="42.52239" lon="2.05237">
        <ele>1895.5364757579</ele>
        <time>2001-05-23T12:06:17.50</time>
      </trkpt>
      <trkpt lat="42.52239" lon="2.05237">
        <ele>1896.4439625554</ele>
        <time>2001-05-23T12:06:18.50</time>
      </trkpt>
      <trkpt lat="42.52239" lon="2.05239">
        <ele>1897.303860826</ele>
        <time>2001-05-23T12:06:19.44</time>
      </trkpt>
      <trkpt lat="42.52241" lon="2.05237">
        <ele>1897.7278534412</ele>
        <time>2001-05-23T12:06:20.44</time>
      </trkpt>
      <trkpt lat="42.52243" lon="2.05236">
        <ele>1898.0694695696</ele>
        <time>2001-05-23T12:06:21.44</time>
      </trkpt>
      <trkpt lat="42.52243" lon="2.05235">
        <ele>1898.6897770436</ele>
        <time>2001-05-23T12:06:22.44</time>
      </trkpt>
      <trkpt lat="42.52245" lon="2.05235">
        <ele>1899.017949779</ele>
        <time>2001-05-23T12:06:23.44</time>
      </trkpt>
      <trkpt lat="42.52247" lon="2.05235">
        <ele>1898.4286034716</ele>
        <time>2001-05-23T12:06:24.44</time>
      </trkpt>
      <trkpt lat="42.52247" lon="2.05234">
        <ele>1898.4002801923</ele>
        <time>2001-05-23T12:06:25.44</time>
      </trkpt>
      <trkpt lat="42.52248" lon="2.05234">
        <ele>1898.2229554001</ele>
        <time>2001-05-23T12:06:26.44</time>
      </trkpt>
      <trkpt lat="42.52249" lon="2.05234">
        <ele>1897.7750967868</ele>
        <time>2001-05-23T12:06:27.44</time>
      </trkpt>
      <trkpt lat="42.5225" lon="2.05234">
        <ele>1897.5154353335</ele>
        <time>2001-05-23T12:06:28.44</time>
      </trkpt>
      <trkpt lat="42.52252" lon="2.05234">
        <ele>1897.511295489</ele>
        <time>2001-05-23T12:06:29.44</time>
      </trkpt>
      <trkpt lat="42.52252" lon="2.05234">
        <ele>1897.382038272</ele>
        <time>2001-05-23T12:06:30.44</time>
      </trkpt>
      <trkpt lat="42.52255" lon="2.05234">
        <ele>1897.1652419662</ele>
        <time>2001-05-23T12:06:31.44</time>
      </trkpt>
      <trkpt lat="42.52257" lon="2.05233">
        <ele>1896.8819798004</ele>
        <time>2001-05-23T12:06:32.44</time>
      </trkpt>
      <trkpt lat="42.52259" lon="2.05233">
        <ele>1895.9016800214</ele>
        <time>2001-05-23T12:06:33.44</time>
      </trkpt>
      <trkpt lat="42.5226" lon="2.05233">
        <ele>1894.9656837525</ele>
        <time>2001-05-23T12:06:34.44</time>
      </trkpt>
      <trkpt lat="42.52259" lon="2.05232">
        <ele>1894.179377223</ele>
        <time>2001-05-23T12:06:35.44</time>
      </trkpt>
      <trkpt lat="42.5226" lon="2.05231">
        <ele>1893.4730530024</ele>
        <time>2001-05-23T12:06:36.44</time>
      </trkpt>
      <trkpt lat="42.5226" lon="2.05231">
        <ele>1892.804859741</ele>
        <time>2001-05-23T12:06:37.44</time>
      </trkpt>
      <trkpt lat="42.52261" lon="2.05231">
        <ele>1892.7144951418</ele>
        <time>2001-05-23T12:06:38.44</time>
      </trkpt>
      <trkpt lat="42.52263" lon="2.05231">
        <ele>1892.509196084</ele>
        <time>2001-05-23T12:06:39.44</time>
      </trkpt>
      <trkpt lat="42.52263" lon="2.0523">
        <ele>1892.0589443959</ele>
        <time>2001-05-23T12:06:40.44</time>
      </trkpt>
      <trkpt lat="42.52263" lon="2.0523">
        <ele>1891.8476274874</ele>
        <time>2001-05-23T12:06:41.44</time>
      </trkpt>
      <trkpt lat="42.52265" lon="2.05231">
        <ele>1891.2043680998</ele>
        <time>2001-05-23T12:06:42.44</time>
      </trkpt>
      <trkpt lat="42.52265" lon="2.05231">
        <ele>1890.4645313857</ele>
        <time>2001-05-23T12:06:43.44</time>
      </trkpt>
      <trkpt lat="42.52266" lon="2.0523">
        <ele>1890.5165931448</ele>
        <time>2001-05-23T12:06:44.45</time>
      </trkpt>
      <trkpt lat="42.52266" lon="2.0523">
        <ele>1890.8306451455</ele>
        <time>2001-05-23T12:06:45.45</time>
      </trkpt>
      <trkpt lat="42.52268" lon="2.05229">
        <ele>1890.822419169</ele>
        <time>2001-05-23T12:06:46.45</time>
      </trkpt>
      <trkpt lat="42.52269" lon="2.05228">
        <ele>1891.3306931524</ele>
        <time>2001-05-23T12:06:47.45</time>
      </trkpt>
      <trkpt lat="42.5227" lon="2.05226">
        <ele>1891.4559200848</ele>
        <time>2001-05-23T12:06:48.45</time>
      </trkpt>
      <trkpt lat="42.52271" lon="2.05225">
        <ele>1890.6893101562</ele>
        <time>2001-05-23T12:06:49.45</time>
      </trkpt>
      <trkpt lat="42.52272" lon="2.05224">
        <ele>1889.7173533006</ele>
        <time>2001-05-23T12:06:50.45</time>
      </trkpt>
      <trkpt lat="42.52272" lon="2.05224">
        <ele>1889.0676744221</ele>
        <time>2001-05-23T12:06:51.45</time>
      </trkpt>
      <trkpt lat="42.52272" lon="2.05224">
        <ele>1888.3334380629</ele>
        <time>2001-05-23T12:06:52.45</time>
      </trkpt>
      <trkpt lat="42.52274" lon="2.05223">
        <ele>1887.9635197062</ele>
        <time>2001-05-23T12:06:53.45</time>
      </trkpt>
      <trkpt lat="42.52275" lon="2.05223">
        <ele>1888.2343975641</ele>
        <time>2001-05-23T12:06:54.45</time>
      </trkpt>
      <trkpt lat="42.52275" lon="2.05222">
        <ele>1888.755067512</ele>
        <time>2001-05-23T12:06:55.45</time>
      </trkpt>
      <trkpt lat="42.52277" lon="2.05221">
        <ele>1889.0540977787</ele>
        <time>2001-05-23T12:06:56.45</time>
      </trkpt>
      <trkpt lat="42.52278" lon="2.05219">
        <ele>1888.8159883503</ele>
        <time>2001-05-23T12:06:57.45</time>
      </trkpt>
      <trkpt lat="42.52279" lon="2.05217">
        <ele>1888.8078716844</ele>
        <time>2001-05-23T12:06:58.45</time>
      </trkpt>
      <trkpt lat="42.52279" lon="2.05216">
        <ele>1888.515175892</ele>
        <time>2001-05-23T12:06:59.45</time>
      </trkpt>
      <trkpt lat="42.5228" lon="2.05215">
        <ele>1888.1364510952</ele>
        <time>2001-05-23T12:07:00.45</time>
      </trkpt>
      <trkpt lat="42.52281" lon="2.05216">
        <ele>1887.8718725776</ele>
        <time>2001-05-23T12:07:01.45</time>
      </trkpt>
      <trkpt lat="42.52281" lon="2.05216">
        <ele>1888.1444337552</ele>
        <time>2001-05-23T12:07:02.45</time>
      </trkpt>
      <trkpt lat="42.52282" lon="2.05216">
        <ele>1887.9645589512</ele>
        <time>2001-05-23T12:07:03.45</time>
      </trkpt>
      <trkpt lat="42.52283" lon="2.05215">
        <ele>1887.5456585741</ele>
        <time>2001-05-23T12:07:04.45</time>
      </trkpt>
      <trkpt lat="42.52284" lon="2.05214">
        <ele>1886.8448062986</ele>
        <time>2001-05-23T12:07:05.45</time>
      </trkpt>
      <trkpt lat="42.52285" lon="2.05212">
        <ele>1886.0656266509</ele>
        <time>2001-05-23T12:07:06.45</time>
      </trkpt>
      <trkpt lat="42.52286" lon="2.05211">
        <ele>1885.3216422658</ele>
        <time>2001-05-23T12:07:07.45</time>
      </trkpt>
      <trkpt lat="42.52286" lon="2.05211">
        <ele>1884.8597279074</ele>
        <time>2001-05-23T12:07:08.45</time>
      </trkpt>
      <trkpt lat="42.52288" lon="2.0521">
        <ele>1884.6238617605</ele>
        <time>2001-05-23T12:07:09.45</time>
      </trkpt>
      <trkpt lat="42.52288" lon="2.05209">
        <ele>1884.7573409209</ele>
        <time>2001-05-23T12:07:10.45</time>
      </trkpt>
      <trkpt lat="42.52288" lon="2.05208">
        <ele>1885.3496285679</ele>
        <time>2001-05-23T12:07:11.45</time>
      </trkpt>
      <trkpt lat="42.52289" lon="2.05208">
        <ele>1886.0950251197</ele>
        <time>2001-05-23T12:07:12.45</time>
      </trkpt>
      <trkpt lat="42.52289" lon="2.05207">
        <ele>1887.0813473957</ele>
        <time>2001-05-23T12:07:13.45</time>
      </trkpt>
      <trkpt lat="42.5229" lon="2.05206">
        <ele>1887.9313446125</ele>
        <time>2001-05-23T12:07:14.45</time>
      </trkpt>
      <trkpt lat="42.52291" lon="2.05205">
        <ele>1888.4681593385</ele>
        <time>2001-05-23T12:07:15.45</time>
      </trkpt>
      <trkpt lat="42.52292" lon="2.05203">
        <ele>1888.7243552795</ele>
        <time>2001-05-23T12:07:16.45</time>
      </trkpt>
      <trkpt lat="42.52292" lon="2.05203">
        <ele>1888.7631487356</ele>
        <time>2001-05-23T12:07:17.45</time>
      </trkpt>
      <trkpt lat="42.52293" lon="2.05203">
        <ele>1888.6086345766</ele>
        <time>2001-05-23T12:07:18.45</time>
      </trkpt>
      <trkpt lat="42.52293" lon="2.05203">
        <ele>1888.5228058649</ele>
        <time>2001-05-23T12:07:19.45</time>
      </trkpt>
      <trkpt lat="42.52294" lon="2.05204">
        <ele>1888.4951419812</ele>
        <time>2001-05-23T12:07:20.42</time>
      </trkpt>
      <trkpt lat="42.52295" lon="2.05205">
        <ele>1888.479698047</ele>
        <time>2001-05-23T12:07:21.42</time>
      </trkpt>
      <trkpt lat="42.52295" lon="2.05204">
        <ele>1888.6040476516</ele>
        <time>2001-05-23T12:07:22.42</time>
      </trkpt>
      <trkpt lat="42.523" lon="2.052">
        <ele>1888.8019289415</ele>
        <time>2001-05-23T12:07:23.42</time>
      </trkpt>
      <trkpt lat="42.52301" lon="2.05199">
        <ele>1889.0696554428</ele>
        <time>2001-05-23T12:07:24.42</time>
      </trkpt>
      <trkpt lat="42.52301" lon="2.05198">
        <ele>1889.7173646361</ele>
        <time>2001-05-23T12:07:25.42</time>
      </trkpt>
      <trkpt lat="42.52301" lon="2.05198">
        <ele>1890.5779126631</ele>
        <time>2001-05-23T12:07:26.42</time>
      </trkpt>
      <trkpt lat="42.52303" lon="2.05197">
        <ele>1892.0361862784</ele>
        <time>2001-05-23T12:07:27.41</time>
      </trkpt>
      <trkpt lat="42.52304" lon="2.05197">
        <ele>1893.3483090824</ele>
        <time>2001-05-23T12:07:28.41</time>
      </trkpt>
      <trkpt lat="42.52304" lon="2.05196">
        <ele>1894.5191126769</ele>
        <time>2001-05-23T12:07:29.41</time>
      </trkpt>
      <trkpt lat="42.52305" lon="2.05195">
        <ele>1895.4547015786</ele>
        <time>2001-05-23T12:07:30.41</time>
      </trkpt>
      <trkpt lat="42.52307" lon="2.05194">
        <ele>1896.0507406563</ele>
        <time>2001-05-23T12:07:31.41</time>
      </trkpt>
      <trkpt lat="42.52308" lon="2.05194">
        <ele>1895.5199423954</ele>
        <time>2001-05-23T12:07:32.41</time>
      </trkpt>
      <trkpt lat="42.52309" lon="2.05194">
        <ele>1894.8978322282</ele>
        <time>2001-05-23T12:07:33.41</time>
      </trkpt>
      <trkpt lat="42.52311" lon="2.05193">
        <ele>1894.270282736</ele>
        <time>2001-05-23T12:07:34.41</time>
      </trkpt>
      <trkpt lat="42.52311" lon="2.05193">
        <ele>1893.640107449</ele>
        <time>2001-05-23T12:07:35.41</time>
      </trkpt>
      <trkpt lat="42.52312" lon="2.05192">
        <ele>1893.3512031358</ele>
        <time>2001-05-23T12:07:36.41</time>
      </trkpt>
      <trkpt lat="42.52312" lon="2.05192">
        <ele>1893.4807153514</ele>
        <time>2001-05-23T12:07:37.41</time>
      </trkpt>
      <trkpt lat="42.52313" lon="2.05191">
        <ele>1893.7631747672</ele>
        <time>2001-05-23T12:07:38.40</time>
      </trkpt>
      <trkpt lat="42.52314" lon="2.05191">
        <ele>1893.7834985619</ele>
        <time>2001-05-23T12:07:39.40</time>
      </trkpt>
      <trkpt lat="42.52315" lon="2.05191">
        <ele>1893.5776470935</ele>
        <time>2001-05-23T12:07:40.40</time>
      </trkpt>
      <trkpt lat="42.52316" lon="2.0519">
        <ele>1893.1818291003</ele>
        <time>2001-05-23T12:07:41.40</time>
      </trkpt>
      <trkpt lat="42.52316" lon="2.0519">
        <ele>1892.9746602096</ele>
        <time>2001-05-23T12:07:42.40</time>
      </trkpt>
      <trkpt lat="42.52316" lon="2.0519">
        <ele>1893.042704034</ele>
        <time>2001-05-23T12:07:43.40</time>
      </trkpt>
      <trkpt lat="42.52318" lon="2.05189">
        <ele>1893.1957770078</ele>
        <time>2001-05-23T12:07:44.39</time>
      </trkpt>
      <trkpt lat="42.52319" lon="2.05189">
        <ele>1893.3819945177</ele>
        <time>2001-05-23T12:07:45.39</time>
      </trkpt>
      <trkpt lat="42.5232" lon="2.05189">
        <ele>1893.5815467669</ele>
        <time>2001-05-23T12:07:46.39</time>
      </trkpt>
      <trkpt lat="42.52321" lon="2.05188">
        <ele>1893.5517081665</ele>
        <time>2001-05-23T12:07:47.39</time>
      </trkpt>
      <trkpt lat="42.52321" lon="2.05189">
        <ele>1893.5847330121</ele>
        <time>2001-05-23T12:07:48.39</time>
      </trkpt>
      <trkpt lat="42.52322" lon="2.05189">
        <ele>1893.9290172532</ele>
        <time>2001-05-23T12:07:49.39</time>
      </trkpt>
      <trkpt lat="42.52323" lon="2.05188">
        <ele>1894.3757648379</ele>
        <time>2001-05-23T12:07:50.39</time>
      </trkpt>
      <trkpt lat="42.52323" lon="2.05188">
        <ele>1894.8017966751</ele>
        <time>2001-05-23T12:07:51.39</time>
      </trkpt>
      <trkpt lat="42.52324" lon="2.05187">
        <ele>1895.2687579885</ele>
        <time>2001-05-23T12:07:52.39</time>
      </trkpt>
      <trkpt lat="42.52325" lon="2.05186">
        <ele>1895.1163278494</ele>
        <time>2001-05-23T12:07:53.39</time>
      </trkpt>
      <trkpt lat="42.52325" lon="2.05185">
        <ele>1894.8118482562</ele>
        <time>2001-05-23T12:07:54.39</time>
      </trkpt>
      <trkpt lat="42.52323" lon="2.05184">
        <ele>1896.1905982163</ele>
        <time>2001-05-23T12:07:55.36</time>
      </trkpt>
      <trkpt lat="42.52323" lon="2.05184">
        <ele>1897.5475468487</ele>
        <time>2001-05-23T12:07:56.36</time>
      </trkpt>
      <trkpt lat="42.52324" lon="2.05184">
        <ele>1898.4649188017</ele>
        <time>2001-05-23T12:07:57.36</time>
      </trkpt>
      <trkpt lat="42.52324" lon="2.05184">
        <ele>1899.5860740103</ele>
        <time>2001-05-23T12:07:58.36</time>
      </trkpt>
      <trkpt lat="42.52325" lon="2.05183">
        <ele>1901.0109480586</ele>
        <time>2001-05-23T12:07:59.38</time>
      </trkpt>
      <trkpt lat="42.52325" lon="2.05183">
        <ele>1900.9669258403</ele>
        <time>2001-05-23T12:08:00.38</time>
      </trkpt>
      <trkpt lat="42.52326" lon="2.05182">
        <ele>1900.9939049643</ele>
        <time>2001-05-23T12:08:01.38</time>
      </trkpt>
      <trkpt lat="42.52327" lon="2.05181">
        <ele>1901.3920455728</ele>
        <time>2001-05-23T12:08:02.39</time>
      </trkpt>
      <trkpt lat="42.52327" lon="2.0518">
        <ele>1901.5174376357</ele>
        <time>2001-05-23T12:08:03.39</time>
      </trkpt>
      <trkpt lat="42.52327" lon="2.05178">
        <ele>1901.2680194162</ele>
        <time>2001-05-23T12:08:04.39</time>
      </trkpt>
      <trkpt lat="42.52327" lon="2.05178">
        <ele>1900.7951738339</ele>
        <time>2001-05-23T12:08:05.39</time>
      </trkpt>
      <trkpt lat="42.52328" lon="2.05177">
        <ele>1900.0209708938</ele>
        <time>2001-05-23T12:08:06.39</time>
      </trkpt>
      <trkpt lat="42.52328" lon="2.05176">
        <ele>1899.1794546936</ele>
        <time>2001-05-23T12:08:07.36</time>
      </trkpt>
      <trkpt lat="42.52328" lon="2.05176">
        <ele>1898.6106870389</ele>
        <time>2001-05-23T12:08:08.36</time>
      </trkpt>
      <trkpt lat="42.52329" lon="2.05174">
        <ele>1898.0038444392</ele>
        <time>2001-05-23T12:08:09.37</time>
      </trkpt>
      <trkpt lat="42.5233" lon="2.05173">
        <ele>1897.273301328</ele>
        <time>2001-05-23T12:08:10.37</time>
      </trkpt>
      <trkpt lat="42.5233" lon="2.05172">
        <ele>1896.6912225191</ele>
        <time>2001-05-23T12:08:11.37</time>
      </trkpt>
      <trkpt lat="42.52331" lon="2.05171">
        <ele>1896.1247340761</ele>
        <time>2001-05-23T12:08:12.37</time>
      </trkpt>
      <trkpt lat="42.52332" lon="2.05171">
        <ele>1895.5010692041</ele>
        <time>2001-05-23T12:08:13.37</time>
      </trkpt>
      <trkpt lat="42.52333" lon="2.0517">
        <ele>1894.9772272373</ele>
        <time>2001-05-23T12:08:14.37</time>
      </trkpt>
      <trkpt lat="42.52333" lon="2.05168">
        <ele>1894.7869828323</ele>
        <time>2001-05-23T12:08:15.37</time>
      </trkpt>
      <trkpt lat="42.52333" lon="2.05168">
        <ele>1894.966148423</ele>
        <time>2001-05-23T12:08:16.37</time>
      </trkpt>
      <trkpt lat="42.52333" lon="2.05166">
        <ele>1895.2908328397</ele>
        <time>2001-05-23T12:08:17.37</time>
      </trkpt>
      <trkpt lat="42.52334" lon="2.05165">
        <ele>1895.6516901147</ele>
        <time>2001-05-23T12:08:18.37</time>
      </trkpt>
      <trkpt lat="42.52334" lon="2.05165">
        <ele>1896.1358404685</ele>
        <time>2001-05-23T12:08:19.37</time>
      </trkpt>
      <trkpt lat="42.52335" lon="2.05164">
        <ele>1896.4898125671</ele>
        <time>2001-05-23T12:08:20.37</time>
      </trkpt>
      <trkpt lat="42.52335" lon="2.05163">
        <ele>1896.6590202134</ele>
        <time>2001-05-23T12:08:21.37</time>
      </trkpt>
      <trkpt lat="42.52335" lon="2.05164">
        <ele>1897.3333750468</ele>
        <time>2001-05-23T12:08:22.36</time>
      </trkpt>
      <trkpt lat="42.52334" lon="2.05166">
        <ele>1898.5776601093</ele>
        <time>2001-05-23T12:08:23.36</time>
      </trkpt>
      <trkpt lat="42.52335" lon="2.05164">
        <ele>1899.7629585918</ele>
        <time>2001-05-23T12:08:24.37</time>
      </trkpt>
      <trkpt lat="42.52337" lon="2.05163">
        <ele>1900.5143625796</ele>
        <time>2001-05-23T12:08:25.37</time>
      </trkpt>
      <trkpt lat="42.52337" lon="2.05162">
        <ele>1901.0858340953</ele>
        <time>2001-05-23T12:08:26.37</time>
      </trkpt>
      <trkpt lat="42.52338" lon="2.05161">
        <ele>1901.1176956696</ele>
        <time>2001-05-23T12:08:27.37</time>
      </trkpt>
      <trkpt lat="42.52338" lon="2.05161">
        <ele>1900.7596048906</ele>
        <time>2001-05-23T12:08:28.37</time>
      </trkpt>
      <trkpt lat="42.52338" lon="2.05161">
        <ele>1900.3053854527</ele>
        <time>2001-05-23T12:08:29.37</time>
      </trkpt>
      <trkpt lat="42.5234" lon="2.05161">
        <ele>1900.0627291536</ele>
        <time>2001-05-23T12:08:30.37</time>
      </trkpt>
      <trkpt lat="42.52341" lon="2.0516">
        <ele>1899.6149395959</ele>
        <time>2001-05-23T12:08:31.37</time>
      </trkpt>
      <trkpt lat="42.52342" lon="2.05159">
        <ele>1899.079299484</ele>
        <time>2001-05-23T12:08:32.37</time>
      </trkpt>
      <trkpt lat="42.52342" lon="2.05159">
        <ele>1898.6771685045</ele>
        <time>2001-05-23T12:08:33.37</time>
      </trkpt>
      <trkpt lat="42.52343" lon="2.05158">
        <ele>1898.7684543269</ele>
        <time>2001-05-23T12:08:34.37</time>
      </trkpt>
      <trkpt lat="42.52344" lon="2.05156">
        <ele>1898.674798556</ele>
        <time>2001-05-23T12:08:35.37</time>
      </trkpt>
      <trkpt lat="42.52345" lon="2.05156">
        <ele>1899.275520885</ele>
        <time>2001-05-23T12:08:36.37</time>
      </trkpt>
      <trkpt lat="42.52346" lon="2.05156">
        <ele>1900.3124909407</ele>
        <time>2001-05-23T12:08:37.37</time>
      </trkpt>
      <trkpt lat="42.52346" lon="2.05155">
        <ele>1901.1794491814</ele>
        <time>2001-05-23T12:08:38.37</time>
      </trkpt>
      <trkpt lat="42.52347" lon="2.05155">
        <ele>1901.4650498252</ele>
        <time>2001-05-23T12:08:39.37</time>
      </trkpt>
      <trkpt lat="42.52348" lon="2.05154">
        <ele>1902.222006717</ele>
        <time>2001-05-23T12:08:40.37</time>
      </trkpt>
      <trkpt lat="42.5235" lon="2.05153">
        <ele>1903.1589847388</ele>
        <time>2001-05-23T12:08:40.999</time>
      </trkpt>
      <trkpt lat="42.5235" lon="2.05153">
        <ele>1903.9499088848</ele>
        <time>2001-05-23T12:08:41.999</time>
      </trkpt>
      <trkpt lat="42.52353" lon="2.0515">
        <ele>1904.987122507</ele>
        <time>2001-05-23T12:08:43.6</time>
      </trkpt>
      <trkpt lat="42.52354" lon="2.05149">
        <ele>1906.1053442134</ele>
        <time>2001-05-23T12:08:44.6</time>
      </trkpt>
      <trkpt lat="42.52356" lon="2.05147">
        <ele>1906.3942138422</ele>
        <time>2001-05-23T12:08:45.6</time>
      </trkpt>
      <trkpt lat="42.52356" lon="2.05145">
        <ele>1905.8380110381</ele>
        <time>2001-05-23T12:08:46.6</time>
      </trkpt>
      <trkpt lat="42.52357" lon="2.05144">
        <ele>1904.9796235887</ele>
        <time>2001-05-23T12:08:47.6</time>
      </trkpt>
      <trkpt lat="42.52357" lon="2.05144">
        <ele>1903.6903350541</ele>
        <time>2001-05-23T12:08:48.6</time>
      </trkpt>
      <trkpt lat="42.52357" lon="2.05142">
        <ele>1902.9664106257</ele>
        <time>2001-05-23T12:08:49.6</time>
      </trkpt>
      <trkpt lat="42.52357" lon="2.0514">
        <ele>1902.9812138891</ele>
        <time>2001-05-23T12:08:50.6</time>
      </trkpt>
      <trkpt lat="42.52357" lon="2.05139">
        <ele>1903.2455154093</ele>
        <time>2001-05-23T12:08:51.6</time>
      </trkpt>
      <trkpt lat="42.52358" lon="2.05139">
        <ele>1903.4155042002</ele>
        <time>2001-05-23T12:08:52.6</time>
      </trkpt>
      <trkpt lat="42.52358" lon="2.05138">
        <ele>1903.6129146496</ele>
        <time>2001-05-23T12:08:53.6</time>
      </trkpt>
      <trkpt lat="42.52359" lon="2.05137">
        <ele>1903.487439413</ele>
        <time>2001-05-23T12:08:54.7</time>
      </trkpt>
      <trkpt lat="42.5236" lon="2.05136">
        <ele>1903.1290215468</ele>
        <time>2001-05-23T12:08:55.7</time>
      </trkpt>
      <trkpt lat="42.5236" lon="2.05135">
        <ele>1903.0594317045</ele>
        <time>2001-05-23T12:08:56.5</time>
      </trkpt>
      <trkpt lat="42.52361" lon="2.05134">
        <ele>1903.3392101204</ele>
        <time>2001-05-23T12:08:57.5</time>
      </trkpt>
      <trkpt lat="42.52361" lon="2.05132">
        <ele>1903.6494700888</ele>
        <time>2001-05-23T12:08:58.5</time>
      </trkpt>
      <trkpt lat="42.52361" lon="2.05131">
        <ele>1903.8188366693</ele>
        <time>2001-05-23T12:08:59.5</time>
      </trkpt>
      <trkpt lat="42.52362" lon="2.05128">
        <ele>1904.0899212452</ele>
        <time>2001-05-23T12:09:00.5</time>
      </trkpt>
      <trkpt lat="42.52363" lon="2.05127">
        <ele>1903.9638167655</ele>
        <time>2001-05-23T12:09:01.5</time>
      </trkpt>
      <trkpt lat="42.52363" lon="2.05127">
        <ele>1903.6238866204</ele>
        <time>2001-05-23T12:09:02.5</time>
      </trkpt>
      <trkpt lat="42.52363" lon="2.05127">
        <ele>1903.3707561234</ele>
        <time>2001-05-23T12:09:03.5</time>
      </trkpt>
      <trkpt lat="42.52363" lon="2.05126">
        <ele>1903.1964558095</ele>
        <time>2001-05-23T12:09:04.5</time>
      </trkpt>
      <trkpt lat="42.52365" lon="2.05125">
        <ele>1903.2945507476</ele>
        <time>2001-05-23T12:09:05.7</time>
      </trkpt>
      <trkpt lat="42.52366" lon="2.05124">
        <ele>1903.2184458468</ele>
        <time>2001-05-23T12:09:06.7</time>
      </trkpt>
      <trkpt lat="42.52367" lon="2.05124">
        <ele>1902.9583656736</ele>
        <time>2001-05-23T12:09:07.7</time>
      </trkpt>
      <trkpt lat="42.52368" lon="2.05124">
        <ele>1902.4220681107</ele>
        <time>2001-05-23T12:09:08.7</time>
      </trkpt>
      <trkpt lat="42.52369" lon="2.05123">
        <ele>1901.7895255193</ele>
        <time>2001-05-23T12:09:09.7</time>
      </trkpt>
      <trkpt lat="42.52369" lon="2.05122">
        <ele>1901.3305785051</ele>
        <time>2001-05-23T12:09:10.7</time>
      </trkpt>
      <trkpt lat="42.52369" lon="2.05122">
        <ele>1901.8010551367</ele>
        <time>2001-05-23T12:09:11.7</time>
      </trkpt>
      <trkpt lat="42.52367" lon="2.05122">
        <ele>1902.9742629526</ele>
        <time>2001-05-23T12:09:12.8</time>
      </trkpt>
      <trkpt lat="42.52367" lon="2.05122">
        <ele>1904.3411252856</ele>
        <time>2001-05-23T12:09:13.8</time>
      </trkpt>
      <trkpt lat="42.52368" lon="2.05121">
        <ele>1905.8267361665</ele>
        <time>2001-05-23T12:09:14.7</time>
      </trkpt>
      <trkpt lat="42.52369" lon="2.0512">
        <ele>1907.056440274</ele>
        <time>2001-05-23T12:09:15.7</time>
      </trkpt>
      <trkpt lat="42.5237" lon="2.05119">
        <ele>1907.6709202485</ele>
        <time>2001-05-23T12:09:16.7</time>
      </trkpt>
      <trkpt lat="42.5237" lon="2.05118">
        <ele>1907.8699390177</ele>
        <time>2001-05-23T12:09:17.7</time>
      </trkpt>
      <trkpt lat="42.52371" lon="2.05118">
        <ele>1907.9869414072</ele>
        <time>2001-05-23T12:09:18.7</time>
      </trkpt>
      <trkpt lat="42.52372" lon="2.05117">
        <ele>1907.9108639708</ele>
        <time>2001-05-23T12:09:19.7</time>
      </trkpt>
      <trkpt lat="42.52373" lon="2.05116">
        <ele>1907.4543322138</ele>
        <time>2001-05-23T12:09:20.7</time>
      </trkpt>
      <trkpt lat="42.52372" lon="2.05115">
        <ele>1907.1506331364</ele>
        <time>2001-05-23T12:09:21.7</time>
      </trkpt>
      <trkpt lat="42.52373" lon="2.05115">
        <ele>1907.0340147724</ele>
        <time>2001-05-23T12:09:22.7</time>
      </trkpt>
      <trkpt lat="42.52374" lon="2.05114">
        <ele>1907.3328860169</ele>
        <time>2001-05-23T12:09:23.7</time>
      </trkpt>
      <trkpt lat="42.52375" lon="2.05114">
        <ele>1907.6963895515</ele>
        <time>2001-05-23T12:09:24.7</time>
      </trkpt>
      <trkpt lat="42.52376" lon="2.05113">
        <ele>1908.3466713984</ele>
        <time>2001-05-23T12:09:25.7</time>
      </trkpt>
      <trkpt lat="42.52377" lon="2.05113">
        <ele>1908.6657032507</ele>
        <time>2001-05-23T12:09:26.7</time>
      </trkpt>
      <trkpt lat="42.52378" lon="2.05113">
        <ele>1908.9949546877</ele>
        <time>2001-05-23T12:09:27.7</time>
      </trkpt>
      <trkpt lat="42.52378" lon="2.05112">
        <ele>1909.0846060028</ele>
        <time>2001-05-23T12:09:28.7</time>
      </trkpt>
      <trkpt lat="42.52379" lon="2.05112">
        <ele>1909.1676878855</ele>
        <time>2001-05-23T12:09:29.7</time>
      </trkpt>
      <trkpt lat="42.5238" lon="2.05113">
        <ele>1909.3438145405</ele>
        <time>2001-05-23T12:09:30.7</time>
      </trkpt>
      <trkpt lat="42.52383" lon="2.05111">
        <ele>1909.6038404658</ele>
        <time>2001-05-23T12:09:31.7</time>
      </trkpt>
      <trkpt lat="42.52384" lon="2.05111">
        <ele>1909.4131820435</ele>
        <time>2001-05-23T12:09:32.7</time>
      </trkpt>
      <trkpt lat="42.52385" lon="2.0511">
        <ele>1908.8376017872</ele>
        <time>2001-05-23T12:09:33.7</time>
      </trkpt>
      <trkpt lat="42.52385" lon="2.0511">
        <ele>1908.361084481</ele>
        <time>2001-05-23T12:09:34.7</time>
      </trkpt>
      <trkpt lat="42.52385" lon="2.0511">
        <ele>1907.7530991914</ele>
        <time>2001-05-23T12:09:35.7</time>
      </trkpt>
      <trkpt lat="42.52386" lon="2.0511">
        <ele>1908.5709245633</ele>
        <time>2001-05-23T12:09:36.6</time>
      </trkpt>
      <trkpt lat="42.52387" lon="2.0511">
        <ele>1909.5619888719</ele>
        <time>2001-05-23T12:09:37.6</time>
      </trkpt>
      <trkpt lat="42.52388" lon="2.05109">
        <ele>1910.6898624154</ele>
        <time>2001-05-23T12:09:38.6</time>
      </trkpt>
      <trkpt lat="42.52389" lon="2.05107">
        <ele>1911.6593341859</ele>
        <time>2001-05-23T12:09:39.6</time>
      </trkpt>
      <trkpt lat="42.52389" lon="2.05106">
        <ele>1912.7812073562</ele>
        <time>2001-05-23T12:09:40.6</time>
      </trkpt>
      <trkpt lat="42.5239" lon="2.05105">
        <ele>1912.7593614485</ele>
        <time>2001-05-23T12:09:41.6</time>
      </trkpt>
      <trkpt lat="42.5239" lon="2.05105">
        <ele>1912.5780270034</ele>
        <time>2001-05-23T12:09:42.6</time>
      </trkpt>
      <trkpt lat="42.5239" lon="2.05105">
        <ele>1912.6451307828</ele>
        <time>2001-05-23T12:09:43.6</time>
      </trkpt>
      <trkpt lat="42.5239" lon="2.05103">
        <ele>1912.8999083878</ele>
        <time>2001-05-23T12:09:44.7</time>
      </trkpt>
      <trkpt lat="42.52391" lon="2.05102">
        <ele>1913.0089305796</ele>
        <time>2001-05-23T12:09:45.7</time>
      </trkpt>
      <trkpt lat="42.52392" lon="2.05101">
        <ele>1912.8197836757</ele>
        <time>2001-05-23T12:09:46.9</time>
      </trkpt>
      <trkpt lat="42.52392" lon="2.051">
        <ele>1912.7889606154</ele>
        <time>2001-05-23T12:09:47.9</time>
      </trkpt>
      <trkpt lat="42.52393" lon="2.05099">
        <ele>1912.5009778682</ele>
        <time>2001-05-23T12:09:48.9</time>
      </trkpt>
      <trkpt lat="42.52394" lon="2.05099">
        <ele>1912.0248595573</ele>
        <time>2001-05-23T12:09:49.9</time>
      </trkpt>
      <trkpt lat="42.52395" lon="2.05098">
        <ele>1911.7081190877</ele>
        <time>2001-05-23T12:09:50.9</time>
      </trkpt>
      <trkpt lat="42.52395" lon="2.05098">
        <ele>1911.4738223793</ele>
        <time>2001-05-23T12:09:51.9</time>
      </trkpt>
      <trkpt lat="42.52396" lon="2.05097">
        <ele>1911.2160490381</ele>
        <time>2001-05-23T12:09:52.9</time>
      </trkpt>
      <trkpt lat="42.52396" lon="2.05097">
        <ele>1911.1212366514</ele>
        <time>2001-05-23T12:09:53.9</time>
      </trkpt>
      <trkpt lat="42.52397" lon="2.05097">
        <ele>1911.0207720358</ele>
        <time>2001-05-23T12:09:54.7</time>
      </trkpt>
      <trkpt lat="42.52398" lon="2.05097">
        <ele>1910.6786816807</ele>
        <time>2001-05-23T12:09:55.7</time>
      </trkpt>
      <trkpt lat="42.524" lon="2.05097">
        <ele>1910.1496877676</ele>
        <time>2001-05-23T12:09:56.7</time>
      </trkpt>
      <trkpt lat="42.524" lon="2.05097">
        <ele>1909.6896913607</ele>
        <time>2001-05-23T12:09:57.7</time>
      </trkpt>
      <trkpt lat="42.524" lon="2.05096">
        <ele>1909.4401765013</ele>
        <time>2001-05-23T12:09:58.7</time>
      </trkpt>
      <trkpt lat="42.52401" lon="2.05096">
        <ele>1909.9190173173</ele>
        <time>2001-05-23T12:09:59.7</time>
      </trkpt>
      <trkpt lat="42.52402" lon="2.05093">
        <ele>1910.7183249153</ele>
        <time>2001-05-23T12:10:00.10</time>
      </trkpt>
      <trkpt lat="42.52403" lon="2.05092">
        <ele>1911.5382368047</ele>
        <time>2001-05-23T12:10:01.10</time>
      </trkpt>
      <trkpt lat="42.52404" lon="2.05092">
        <ele>1912.0295278363</ele>
        <time>2001-05-23T12:10:02.10</time>
      </trkpt>
      <trkpt lat="42.52405" lon="2.05092">
        <ele>1912.1285944529</ele>
        <time>2001-05-23T12:10:03.10</time>
      </trkpt>
      <trkpt lat="42.52405" lon="2.05091">
        <ele>1911.8592551282</ele>
        <time>2001-05-23T12:10:04.10</time>
      </trkpt>
      <trkpt lat="42.52405" lon="2.05091">
        <ele>1911.3651130224</ele>
        <time>2001-05-23T12:10:05.10</time>
      </trkpt>
      <trkpt lat="42.52407" lon="2.0509">
        <ele>1910.723449561</ele>
        <time>2001-05-23T12:10:06.10</time>
      </trkpt>
      <trkpt lat="42.52407" lon="2.0509">
        <ele>1910.4104069574</ele>
        <time>2001-05-23T12:10:07.10</time>
      </trkpt>
      <trkpt lat="42.52408" lon="2.05091">
        <ele>1910.3651483314</ele>
        <time>2001-05-23T12:10:08.10</time>
      </trkpt>
      <trkpt lat="42.52409" lon="2.0509">
        <ele>1910.3614741741</ele>
        <time>2001-05-23T12:10:09.10</time>
      </trkpt>
      <trkpt lat="42.52411" lon="2.05088">
        <ele>1910.5959108695</ele>
        <time>2001-05-23T12:10:10.9</time>
      </trkpt>
      <trkpt lat="42.52411" lon="2.05088">
        <ele>1911.1441681873</ele>
        <time>2001-05-23T12:10:11.9</time>
      </trkpt>
      <trkpt lat="42.52413" lon="2.05088">
        <ele>1911.4959422052</ele>
        <time>2001-05-23T12:10:12.9</time>
      </trkpt>
      <trkpt lat="42.52413" lon="2.05088">
        <ele>1911.7616751129</ele>
        <time>2001-05-23T12:10:13.9</time>
      </trkpt>
      <trkpt lat="42.52414" lon="2.05088">
        <ele>1911.6262983302</ele>
        <time>2001-05-23T12:10:14.9</time>
      </trkpt>
      <trkpt lat="42.52416" lon="2.05087">
        <ele>1910.998248804</ele>
        <time>2001-05-23T12:10:15.9</time>
      </trkpt>
      <trkpt lat="42.52416" lon="2.05087">
        <ele>1910.3701992778</ele>
        <time>2001-05-23T12:10:16.9</time>
      </trkpt>
      <trkpt lat="42.52417" lon="2.05088">
        <ele>1909.9404861432</ele>
        <time>2001-05-23T12:10:17.9</time>
      </trkpt>
      <trkpt lat="42.52417" lon="2.05088">
        <ele>1909.5107730085</ele>
        <time>2001-05-23T12:10:18.9</time>
      </trkpt>
      <trkpt lat="42.52418" lon="2.05088">
        <ele>1909.4812153373</ele>
        <time>2001-05-23T12:10:19.9</time>
      </trkpt>
      <trkpt lat="42.52419" lon="2.05087">
        <ele>1909.8224837841</ele>
        <time>2001-05-23T12:10:20.9</time>
      </trkpt>
      <trkpt lat="42.5242" lon="2.05087">
        <ele>1910.3705729591</ele>
        <time>2001-05-23T12:10:21.9</time>
      </trkpt>
      <trkpt lat="42.52422" lon="2.05087">
        <ele>1910.9766176529</ele>
        <time>2001-05-23T12:10:22.9</time>
      </trkpt>
      <trkpt lat="42.52422" lon="2.05087">
        <ele>1911.5826623468</ele>
        <time>2001-05-23T12:10:23.9</time>
      </trkpt>
      <trkpt lat="42.52423" lon="2.05086">
        <ele>1912.1200776884</ele>
        <time>2001-05-23T12:10:24.8</time>
      </trkpt>
      <trkpt lat="42.52423" lon="2.05086">
        <ele>1912.5412288027</ele>
        <time>2001-05-23T12:10:25.8</time>
      </trkpt>
      <trkpt lat="42.52424" lon="2.05086">
        <ele>1912.4553956367</ele>
        <time>2001-05-23T12:10:26.8</time>
      </trkpt>
      <trkpt lat="42.52426" lon="2.05084">
        <ele>1912.0242748382</ele>
        <time>2001-05-23T12:10:27.8</time>
      </trkpt>
      <trkpt lat="42.52427" lon="2.05083">
        <ele>1911.6813790612</ele>
        <time>2001-05-23T12:10:28.8</time>
      </trkpt>
      <trkpt lat="42.52427" lon="2.05083">
        <ele>1911.4369318204</ele>
        <time>2001-05-23T12:10:29.8</time>
      </trkpt>
      <trkpt lat="42.52428" lon="2.05083">
        <ele>1911.4526063882</ele>
        <time>2001-05-23T12:10:30.8</time>
      </trkpt>
      <trkpt lat="42.52429" lon="2.05081">
        <ele>1911.467798722</ele>
        <time>2001-05-23T12:10:31.8</time>
      </trkpt>
      <trkpt lat="42.5243" lon="2.0508">
        <ele>1911.7229693882</ele>
        <time>2001-05-23T12:10:32.8</time>
      </trkpt>
      <trkpt lat="42.5243" lon="2.0508">
        <ele>1911.8899150329</ele>
        <time>2001-05-23T12:10:33.8</time>
      </trkpt>
      <trkpt lat="42.52431" lon="2.05079">
        <ele>1912.0279986288</ele>
        <time>2001-05-23T12:10:34.8</time>
      </trkpt>
      <trkpt lat="42.52432" lon="2.05078">
        <ele>1911.9156862963</ele>
        <time>2001-05-23T12:10:35.8</time>
      </trkpt>
      <trkpt lat="42.52432" lon="2.05078">
        <ele>1912.1040197499</ele>
        <time>2001-05-23T12:10:36.8</time>
      </trkpt>
      <trkpt lat="42.52433" lon="2.05078">
        <ele>1912.3764111172</ele>
        <time>2001-05-23T12:10:37.10</time>
      </trkpt>
      <trkpt lat="42.52434" lon="2.05077">
        <ele>1912.8348397931</ele>
        <time>2001-05-23T12:10:38.10</time>
      </trkpt>
      <trkpt lat="42.52434" lon="2.05076">
        <ele>1913.1279952135</ele>
        <time>2001-05-23T12:10:39.10</time>
      </trkpt>
      <trkpt lat="42.52435" lon="2.05075">
        <ele>1913.4502051502</ele>
        <time>2001-05-23T12:10:40.10</time>
      </trkpt>
      <trkpt lat="42.52436" lon="2.05074">
        <ele>1913.697826216</ele>
        <time>2001-05-23T12:10:41.10</time>
      </trkpt>
      <trkpt lat="42.52437" lon="2.05073">
        <ele>1913.8680977954</ele>
        <time>2001-05-23T12:10:42.10</time>
      </trkpt>
      <trkpt lat="42.52438" lon="2.05073">
        <ele>1913.6937147165</ele>
        <time>2001-05-23T12:10:43.10</time>
      </trkpt>
      <trkpt lat="42.52438" lon="2.05073">
        <ele>1913.46049663</ele>
        <time>2001-05-23T12:10:44.10</time>
      </trkpt>
      <trkpt lat="42.52439" lon="2.05073">
        <ele>1913.6030610666</ele>
        <time>2001-05-23T12:10:45.9</time>
      </trkpt>
      <trkpt lat="42.52439" lon="2.05073">
        <ele>1913.8202143742</ele>
        <time>2001-05-23T12:10:46.9</time>
      </trkpt>
      <trkpt lat="42.5244" lon="2.05072">
        <ele>1914.0394503716</ele>
        <time>2001-05-23T12:10:47.10</time>
      </trkpt>
      <trkpt lat="42.52441" lon="2.05072">
        <ele>1914.4595875379</ele>
        <time>2001-05-23T12:10:48.10</time>
      </trkpt>
      <trkpt lat="42.52442" lon="2.05071">
        <ele>1914.6123057183</ele>
        <time>2001-05-23T12:10:49.13</time>
      </trkpt>
      <trkpt lat="42.52442" lon="2.05071">
        <ele>1914.3504609792</ele>
        <time>2001-05-23T12:10:50.13</time>
      </trkpt>
      <trkpt lat="42.52443" lon="2.0507">
        <ele>1914.346438781</ele>
        <time>2001-05-23T12:10:51.13</time>
      </trkpt>
      <trkpt lat="42.52445" lon="2.0507">
        <ele>1914.0521395909</ele>
        <time>2001-05-23T12:10:52.13</time>
      </trkpt>
      <trkpt lat="42.52446" lon="2.05069">
        <ele>1913.6418416997</ele>
        <time>2001-05-23T12:10:53.13</time>
      </trkpt>
      <trkpt lat="42.52446" lon="2.05069">
        <ele>1913.4989627944</ele>
        <time>2001-05-23T12:10:54.13</time>
      </trkpt>
      <trkpt lat="42.52446" lon="2.05068">
        <ele>1913.2396405926</ele>
        <time>2001-05-23T12:10:55.13</time>
      </trkpt>
      <trkpt lat="42.52446" lon="2.05068">
        <ele>1912.7224958498</ele>
        <time>2001-05-23T12:10:56.13</time>
      </trkpt>
      <trkpt lat="42.52448" lon="2.0507">
        <ele>1913.0758370766</ele>
        <time>2001-05-23T12:10:57.14</time>
      </trkpt>
      <trkpt lat="42.52449" lon="2.05071">
        <ele>1914.1137512518</ele>
        <time>2001-05-23T12:10:58.14</time>
      </trkpt>
      <trkpt lat="42.5245" lon="2.05071">
        <ele>1915.3424907904</ele>
        <time>2001-05-23T12:10:59.13</time>
      </trkpt>
      <trkpt lat="42.5245" lon="2.05071">
        <ele>1916.6876736255</ele>
        <time>2001-05-23T12:11:00.13</time>
      </trkpt>
      <trkpt lat="42.52451" lon="2.05072">
        <ele>1918.9858621258</ele>
        <time>2001-05-23T12:11:01.13</time>
      </trkpt>
      <trkpt lat="42.52452" lon="2.05073">
        <ele>1920.7727799386</ele>
        <time>2001-05-23T12:11:02.13</time>
      </trkpt>
      <trkpt lat="42.52453" lon="2.05072">
        <ele>1922.130196169</ele>
        <time>2001-05-23T12:11:03.12</time>
      </trkpt>
      <trkpt lat="42.52454" lon="2.05072">
        <ele>1923.6538166024</ele>
        <time>2001-05-23T12:11:04.12</time>
      </trkpt>
      <trkpt lat="42.52456" lon="2.0507">
        <ele>1924.9644054778</ele>
        <time>2001-05-23T12:11:05.12</time>
      </trkpt>
      <trkpt lat="42.52457" lon="2.0507">
        <ele>1925.3613978812</ele>
        <time>2001-05-23T12:11:06.12</time>
      </trkpt>
      <trkpt lat="42.52458" lon="2.0507">
        <ele>1925.7109477324</ele>
        <time>2001-05-23T12:11:07.12</time>
      </trkpt>
      <trkpt lat="42.52459" lon="2.0507">
        <ele>1925.9449609369</ele>
        <time>2001-05-23T12:11:08.12</time>
      </trkpt>
      <trkpt lat="42.52459" lon="2.0507">
        <ele>1925.821944575</ele>
        <time>2001-05-23T12:11:09.12</time>
      </trkpt>
      <trkpt lat="42.5246" lon="2.05069">
        <ele>1925.8559428286</ele>
        <time>2001-05-23T12:11:10.11</time>
      </trkpt>
      <trkpt lat="42.52462" lon="2.05069">
        <ele>1925.6749949366</ele>
        <time>2001-05-23T12:11:11.11</time>
      </trkpt>
      <trkpt lat="42.52462" lon="2.05069">
        <ele>1925.5092608791</ele>
        <time>2001-05-23T12:11:12.11</time>
      </trkpt>
      <trkpt lat="42.52462" lon="2.05069">
        <ele>1925.6652727567</ele>
        <time>2001-05-23T12:11:13.11</time>
      </trkpt>
      <trkpt lat="42.52463" lon="2.05068">
        <ele>1925.6319568874</ele>
        <time>2001-05-23T12:11:14.12</time>
      </trkpt>
      <trkpt lat="42.52464" lon="2.05068">
        <ele>1925.451707954</ele>
        <time>2001-05-23T12:11:15.12</time>
      </trkpt>
      <trkpt lat="42.52465" lon="2.05068">
        <ele>1925.1841746096</ele>
        <time>2001-05-23T12:11:16.12</time>
      </trkpt>
      <trkpt lat="42.52465" lon="2.05068">
        <ele>1924.9166412652</ele>
        <time>2001-05-23T12:11:17.12</time>
      </trkpt>
      <trkpt lat="42.52466" lon="2.05068">
        <ele>1924.052291261</ele>
        <time>2001-05-23T12:11:18.11</time>
      </trkpt>
      <trkpt lat="42.52466" lon="2.05068">
        <ele>1923.3772690037</ele>
        <time>2001-05-23T12:11:19.11</time>
      </trkpt>
      <trkpt lat="42.52467" lon="2.05068">
        <ele>1923.0860212436</ele>
        <time>2001-05-23T12:11:20.10</time>
      </trkpt>
      <trkpt lat="42.52469" lon="2.05068">
        <ele>1922.9886919608</ele>
        <time>2001-05-23T12:11:21.10</time>
      </trkpt>
      <trkpt lat="42.52469" lon="2.05068">
        <ele>1922.8913626781</ele>
        <time>2001-05-23T12:11:22.10</time>
      </trkpt>
      <trkpt lat="42.5247" lon="2.05069">
        <ele>1923.3694593456</ele>
        <time>2001-05-23T12:11:22.965</time>
      </trkpt>
      <trkpt lat="42.5247" lon="2.05069">
        <ele>1923.8475560131</ele>
        <time>2001-05-23T12:11:23.965</time>
      </trkpt>
      <trkpt lat="42.52471" lon="2.0507">
        <ele>1923.9005721221</ele>
        <time>2001-05-23T12:11:24.976</time>
      </trkpt>
      <trkpt lat="42.52471" lon="2.0507">
        <ele>1924.022491117</ele>
        <time>2001-05-23T12:11:25.976</time>
      </trkpt>
      <trkpt lat="42.52472" lon="2.0507">
        <ele>1924.1759121791</ele>
        <time>2001-05-23T12:11:26.994</time>
      </trkpt>
      <trkpt lat="42.52472" lon="2.0507">
        <ele>1923.9631581781</ele>
        <time>2001-05-23T12:11:27.994</time>
      </trkpt>
      <trkpt lat="42.52472" lon="2.05071">
        <ele>1924.5973984523</ele>
        <time>2001-05-23T12:11:28.995</time>
      </trkpt>
      <trkpt lat="42.52472" lon="2.05071">
        <ele>1925.4758947944</ele>
        <time>2001-05-23T12:11:29.995</time>
      </trkpt>
      <trkpt lat="42.52471" lon="2.05072">
        <ele>1926.4570502911</ele>
        <time>2001-05-23T12:11:30.995</time>
      </trkpt>
      <trkpt lat="42.52469" lon="2.05074">
        <ele>1927.9797398027</ele>
        <time>2001-05-23T12:11:31.995</time>
      </trkpt>
      <trkpt lat="42.52469" lon="2.05074">
        <ele>1929.5024293143</ele>
        <time>2001-05-23T12:11:32.995</time>
      </trkpt>
      <trkpt lat="42.52471" lon="2.05073">
        <ele>1929.84965505</ele>
        <time>2001-05-23T12:11:33.995</time>
      </trkpt>
      <trkpt lat="42.52471" lon="2.05073">
        <ele>1930.1968807857</ele>
        <time>2001-05-23T12:11:34.995</time>
      </trkpt>
      <trkpt lat="42.52473" lon="2.05074">
        <ele>1930.5205534361</ele>
        <time>2001-05-23T12:11:35.995</time>
      </trkpt>
      <trkpt lat="42.52473" lon="2.05074">
        <ele>1930.2711900044</ele>
        <time>2001-05-23T12:11:36.995</time>
      </trkpt>
      <trkpt lat="42.52472" lon="2.05073">
        <ele>1931.2896125318</ele>
        <time>2001-05-23T12:11:37.995</time>
      </trkpt>
      <trkpt lat="42.52471" lon="2.05074">
        <ele>1933.3763782319</ele>
        <time>2001-05-23T12:11:38.995</time>
      </trkpt>
      <trkpt lat="42.52471" lon="2.05075">
        <ele>1935.9092708373</ele>
        <time>2001-05-23T12:11:39.995</time>
      </trkpt>
      <trkpt lat="42.52473" lon="2.05076">
        <ele>1938.4858089175</ele>
        <time>2001-05-23T12:11:40.995</time>
      </trkpt>
      <trkpt lat="42.52474" lon="2.05075">
        <ele>1940.9494598333</ele>
        <time>2001-05-23T12:11:41.995</time>
      </trkpt>
      <trkpt lat="42.52474" lon="2.05075">
        <ele>1942.1453247899</ele>
        <time>2001-05-23T12:11:42.995</time>
      </trkpt>
      <trkpt lat="42.52474" lon="2.05075">
        <ele>1942.6013160748</ele>
        <time>2001-05-23T12:11:43.995</time>
      </trkpt>
      <trkpt lat="42.52476" lon="2.05073">
        <ele>1942.0491670208</ele>
        <time>2001-05-23T12:11:44.995</time>
      </trkpt>
      <trkpt lat="42.52476" lon="2.05073">
        <ele>1941.3742664229</ele>
        <time>2001-05-23T12:11:45.995</time>
      </trkpt>
      <trkpt lat="42.52475" lon="2.05073">
        <ele>1941.6500760699</ele>
        <time>2001-05-23T12:11:46.994</time>
      </trkpt>
      <trkpt lat="42.52477" lon="2.05075">
        <ele>1941.4365011966</ele>
        <time>2001-05-23T12:11:47.994</time>
      </trkpt>
      <trkpt lat="42.52477" lon="2.05075">
        <ele>1941.3761941282</ele>
        <time>2001-05-23T12:11:48.994</time>
      </trkpt>
      <trkpt lat="42.52478" lon="2.05075">
        <ele>1942.6198056906</ele>
        <time>2001-05-23T12:11:49.994</time>
      </trkpt>
      <trkpt lat="42.52478" lon="2.05075">
        <ele>1944.1910275368</ele>
        <time>2001-05-23T12:11:50.994</time>
      </trkpt>
      <trkpt lat="42.52479" lon="2.05075">
        <ele>1945.2530618779</ele>
        <time>2001-05-23T12:11:51.994</time>
      </trkpt>
      <trkpt lat="42.5248" lon="2.05075">
        <ele>1947.2629920723</ele>
        <time>2001-05-23T12:11:52.996</time>
      </trkpt>
      <trkpt lat="42.52482" lon="2.05074">
        <ele>1949.6291875631</ele>
        <time>2001-05-23T12:11:53.996</time>
      </trkpt>
      <trkpt lat="42.52483" lon="2.05073">
        <ele>1951.1107811375</ele>
        <time>2001-05-23T12:11:54.996</time>
      </trkpt>
      <trkpt lat="42.52483" lon="2.05073">
        <ele>1952.2647644281</ele>
        <time>2001-05-23T12:11:55.996</time>
      </trkpt>
      <trkpt lat="42.52483" lon="2.05073">
        <ele>1953.0901121434</ele>
        <time>2001-05-23T12:11:56.996</time>
      </trkpt>
      <trkpt lat="42.52482" lon="2.05071">
        <ele>1955.422342542</ele>
        <time>2001-05-23T12:11:57.993</time>
      </trkpt>
      <trkpt lat="42.52482" lon="2.05071">
        <ele>1957.2450398393</ele>
        <time>2001-05-23T12:11:58.993</time>
      </trkpt>
      <trkpt lat="42.52483" lon="2.05072">
        <ele>1960.3687918371</ele>
        <time>2001-05-23T12:11:59.992</time>
      </trkpt>
      <trkpt lat="42.52484" lon="2.05072">
        <ele>1963.3459713016</ele>
        <time>2001-05-23T12:12:00.992</time>
      </trkpt>
      <trkpt lat="42.52485" lon="2.05072">
        <ele>1966.3662883369</ele>
        <time>2001-05-23T12:12:01.992</time>
      </trkpt>
      <trkpt lat="42.52486" lon="2.05073">
        <ele>1967.7096094176</ele>
        <time>2001-05-23T12:12:02.993</time>
      </trkpt>
      <trkpt lat="42.52486" lon="2.05074">
        <ele>1969.282835285</ele>
        <time>2001-05-23T12:12:03.993</time>
      </trkpt>
      <trkpt lat="42.52487" lon="2.05073">
        <ele>1969.5149350313</ele>
        <time>2001-05-23T12:12:04.993</time>
      </trkpt>
      <trkpt lat="42.52488" lon="2.05073">
        <ele>1969.5720184719</ele>
        <time>2001-05-23T12:12:05.993</time>
      </trkpt>
      <trkpt lat="42.5249" lon="2.05073">
        <ele>1969.5013040222</ele>
        <time>2001-05-23T12:12:06.993</time>
      </trkpt>
      <trkpt lat="42.52491" lon="2.05073">
        <ele>1969.1151083676</ele>
        <time>2001-05-23T12:12:07.993</time>
      </trkpt>
      <trkpt lat="42.52491" lon="2.05073">
        <ele>1968.4990079263</ele>
        <time>2001-05-23T12:12:08.993</time>
      </trkpt>
      <trkpt lat="42.52491" lon="2.05073">
        <ele>1968.0656756246</ele>
        <time>2001-05-23T12:12:09.993</time>
      </trkpt>
      <trkpt lat="42.52492" lon="2.05073">
        <ele>1968.4095483853</ele>
        <time>2001-05-23T12:12:10.992</time>
      </trkpt>
      <trkpt lat="42.52493" lon="2.05073">
        <ele>1968.9593654105</ele>
        <time>2001-05-23T12:12:11.992</time>
      </trkpt>
      <trkpt lat="42.52494" lon="2.05074">
        <ele>1969.707678289</ele>
        <time>2001-05-23T12:12:12.992</time>
      </trkpt>
      <trkpt lat="42.52494" lon="2.05074">
        <ele>1970.3530592924</ele>
        <time>2001-05-23T12:12:13.992</time>
      </trkpt>
      <trkpt lat="42.52494" lon="2.05074">
        <ele>1970.8978193173</ele>
        <time>2001-05-23T12:12:14.992</time>
      </trkpt>
      <trkpt lat="42.52495" lon="2.05075">
        <ele>1971.0753478605</ele>
        <time>2001-05-23T12:12:15.992</time>
      </trkpt>
      <trkpt lat="42.52497" lon="2.05075">
        <ele>1970.6432637565</ele>
        <time>2001-05-23T12:12:16.992</time>
      </trkpt>
      <trkpt lat="42.52499" lon="2.05074">
        <ele>1969.6141438609</ele>
        <time>2001-05-23T12:12:17.992</time>
      </trkpt>
      <trkpt lat="42.525" lon="2.05075">
        <ele>1968.7730683357</ele>
        <time>2001-05-23T12:12:18.992</time>
      </trkpt>
      <trkpt lat="42.525" lon="2.05075">
        <ele>1968.1550296826</ele>
        <time>2001-05-23T12:12:19.992</time>
      </trkpt>
      <trkpt lat="42.52501" lon="2.05074">
        <ele>1967.4169682186</ele>
        <time>2001-05-23T12:12:20.992</time>
      </trkpt>
      <trkpt lat="42.52502" lon="2.05076">
        <ele>1967.9219404135</ele>
        <time>2001-05-23T12:12:21.992</time>
      </trkpt>
      <trkpt lat="42.52502" lon="2.05076">
        <ele>1968.85253569</ele>
        <time>2001-05-23T12:12:22.992</time>
      </trkpt>
      <trkpt lat="42.52502" lon="2.05078">
        <ele>1970.241840107</ele>
        <time>2001-05-23T12:12:23.992</time>
      </trkpt>
      <trkpt lat="42.52503" lon="2.05078">
        <ele>1971.1972375574</ele>
        <time>2001-05-23T12:12:24.992</time>
      </trkpt>
      <trkpt lat="42.52503" lon="2.05078">
        <ele>1972.1842730772</ele>
        <time>2001-05-23T12:12:25.992</time>
      </trkpt>
      <trkpt lat="42.52505" lon="2.05081">
        <ele>1972.277637583</ele>
        <time>2001-05-23T12:12:26.993</time>
      </trkpt>
      <trkpt lat="42.5251" lon="2.05081">
        <ele>1971.5341529239</ele>
        <time>2001-05-23T12:12:27.993</time>
      </trkpt>
      <trkpt lat="42.52514" lon="2.05083">
        <ele>1969.6867359955</ele>
        <time>2001-05-23T12:12:28.993</time>
      </trkpt>
      <trkpt lat="42.52516" lon="2.05084">
        <ele>1968.2617108125</ele>
        <time>2001-05-23T12:12:29.993</time>
      </trkpt>
      <trkpt lat="42.52516" lon="2.05084">
        <ele>1966.8366856296</ele>
        <time>2001-05-23T12:12:30.993</time>
      </trkpt>
      <trkpt lat="42.52519" lon="2.05084">
        <ele>1965.0228841376</ele>
        <time>2001-05-23T12:12:31.993</time>
      </trkpt>
      <trkpt lat="42.52521" lon="2.05084">
        <ele>1963.7264760414</ele>
        <time>2001-05-23T12:12:32.993</time>
      </trkpt>
      <trkpt lat="42.52521" lon="2.05084">
        <ele>1962.9901785787</ele>
        <time>2001-05-23T12:12:33.993</time>
      </trkpt>
      <trkpt lat="42.52521" lon="2.05084">
        <ele>1962.1429804435</ele>
        <time>2001-05-23T12:12:34.993</time>
      </trkpt>
      <trkpt lat="42.52522" lon="2.05084">
        <ele>1961.2616635425</ele>
        <time>2001-05-23T12:12:35.993</time>
      </trkpt>
      <trkpt lat="42.52523" lon="2.05085">
        <ele>1960.9530392112</ele>
        <time>2001-05-23T12:12:36.993</time>
      </trkpt>
      <trkpt lat="42.52523" lon="2.05085">
        <ele>1960.963870649</ele>
        <time>2001-05-23T12:12:37.993</time>
      </trkpt>
      <trkpt lat="42.52525" lon="2.05085">
        <ele>1960.5720386945</ele>
        <time>2001-05-23T12:12:38.994</time>
      </trkpt>
      <trkpt lat="42.52527" lon="2.05085">
        <ele>1959.8424953545</ele>
        <time>2001-05-23T12:12:39.994</time>
      </trkpt>
      <trkpt lat="42.52527" lon="2.05085">
        <ele>1959.1470707802</ele>
        <time>2001-05-23T12:12:40.994</time>
      </trkpt>
      <trkpt lat="42.52528" lon="2.05085">
        <ele>1958.2238544686</ele>
        <time>2001-05-23T12:12:41.994</time>
      </trkpt>
      <trkpt lat="42.52528" lon="2.05085">
        <ele>1957.3006381569</ele>
        <time>2001-05-23T12:12:42.994</time>
      </trkpt>
      <trkpt lat="42.52528" lon="2.05086">
        <ele>1956.7331832647</ele>
        <time>2001-05-23T12:12:43.993</time>
      </trkpt>
      <trkpt lat="42.52529" lon="2.05087">
        <ele>1956.6106121326</ele>
        <time>2001-05-23T12:12:44.993</time>
      </trkpt>
      <trkpt lat="42.52531" lon="2.05088">
        <ele>1955.9405226432</ele>
        <time>2001-05-23T12:12:45.993</time>
      </trkpt>
      <trkpt lat="42.52533" lon="2.05089">
        <ele>1954.9772825396</ele>
        <time>2001-05-23T12:12:46.993</time>
      </trkpt>
      <trkpt lat="42.52533" lon="2.05089">
        <ele>1954.014042436</ele>
        <time>2001-05-23T12:12:47.993</time>
      </trkpt>
      <trkpt lat="42.52533" lon="2.05089">
        <ele>1953.0977043053</ele>
        <time>2001-05-23T12:12:48.993</time>
      </trkpt>
      <trkpt lat="42.52533" lon="2.05089">
        <ele>1952.0741938001</ele>
        <time>2001-05-23T12:12:49.993</time>
      </trkpt>
      <trkpt lat="42.52535" lon="2.05091">
        <ele>1951.3402624965</ele>
        <time>2001-05-23T12:12:50.993</time>
      </trkpt>
      <trkpt lat="42.52537" lon="2.05091">
        <ele>1951.4143149622</ele>
        <time>2001-05-23T12:12:51.993</time>
      </trkpt>
      <trkpt lat="42.52538" lon="2.05092">
        <ele>1951.8855432188</ele>
        <time>2001-05-23T12:12:52.993</time>
      </trkpt>
      <trkpt lat="42.52538" lon="2.05093">
        <ele>1952.4179463299</ele>
        <time>2001-05-23T12:12:53.993</time>
      </trkpt>
      <trkpt lat="42.52539" lon="2.05094">
        <ele>1953.5708556574</ele>
        <time>2001-05-23T12:12:54.994</time>
      </trkpt>
      <trkpt lat="42.5254" lon="2.05095">
        <ele>1955.3374079226</ele>
        <time>2001-05-23T12:12:55.994</time>
      </trkpt>
      <trkpt lat="42.52541" lon="2.05095">
        <ele>1956.6952900901</ele>
        <time>2001-05-23T12:12:56.995</time>
      </trkpt>
      <trkpt lat="42.52543" lon="2.05094">
        <ele>1957.3850902097</ele>
        <time>2001-05-23T12:12:57.995</time>
      </trkpt>
      <trkpt lat="42.52545" lon="2.05093">
        <ele>1957.6031918915</ele>
        <time>2001-05-23T12:12:58.995</time>
      </trkpt>
      <trkpt lat="42.52545" lon="2.05093">
        <ele>1957.2007873569</ele>
        <time>2001-05-23T12:12:59.995</time>
      </trkpt>
      <trkpt lat="42.52548" lon="2.05094">
        <ele>1956.2772575989</ele>
        <time>2001-05-23T12:13:00.995</time>
      </trkpt>
      <trkpt lat="42.52548" lon="2.05094">
        <ele>1955.4304063173</ele>
        <time>2001-05-23T12:13:01.995</time>
      </trkpt>
      <trkpt lat="42.52548" lon="2.05094">
        <ele>1954.8544612927</ele>
        <time>2001-05-23T12:13:02.995</time>
      </trkpt>
      <trkpt lat="42.52551" lon="2.05093">
        <ele>1953.4562312232</ele>
        <time>2001-05-23T12:13:03.996</time>
      </trkpt>
      <trkpt lat="42.52553" lon="2.05093">
        <ele>1950.4516040217</ele>
        <time>2001-05-23T12:13:04.996</time>
      </trkpt>
      <trkpt lat="42.52554" lon="2.05093">
        <ele>1946.8699090067</ele>
        <time>2001-05-23T12:13:05.996</time>
      </trkpt>
      <trkpt lat="42.52554" lon="2.05093">
        <ele>1943.2882139917</ele>
        <time>2001-05-23T12:13:06.996</time>
      </trkpt>
      <trkpt lat="42.52554" lon="2.05093">
        <ele>1939.7065189768</ele>
        <time>2001-05-23T12:13:07.996</time>
      </trkpt>
      <trkpt lat="42.52555" lon="2.05094">
        <ele>1937.473981408</ele>
        <time>2001-05-23T12:13:08.998</time>
      </trkpt>
      <trkpt lat="42.52555" lon="2.05094">
        <ele>1936.8478409713</ele>
        <time>2001-05-23T12:13:09.998</time>
      </trkpt>
      <trkpt lat="42.52556" lon="2.05095">
        <ele>1936.9883333046</ele>
        <time>2001-05-23T12:13:11</time>
      </trkpt>
      <trkpt lat="42.52556" lon="2.05095">
        <ele>1937.1288256379</ele>
        <time>2001-05-23T12:13:12</time>
      </trkpt>
      <trkpt lat="42.52556" lon="2.05099">
        <ele>1937.6968738232</ele>
        <time>2001-05-23T12:13:13.1</time>
      </trkpt>
      <trkpt lat="42.52556" lon="2.05101">
        <ele>1938.2410217177</ele>
        <time>2001-05-23T12:13:14.1</time>
      </trkpt>
      <trkpt lat="42.52556" lon="2.05103">
        <ele>1938.9075398123</ele>
        <time>2001-05-23T12:13:15.1</time>
      </trkpt>
      <trkpt lat="42.52557" lon="2.05104">
        <ele>1939.032601835</ele>
        <time>2001-05-23T12:13:16.1</time>
      </trkpt>
      <trkpt lat="42.52557" lon="2.05104">
        <ele>1939.1576638578</ele>
        <time>2001-05-23T12:13:17.1</time>
      </trkpt>
      <trkpt lat="42.52557" lon="2.05104">
        <ele>1938.8551700285</ele>
        <time>2001-05-23T12:13:18.1</time>
      </trkpt>
      <trkpt lat="42.52559" lon="2.05105">
        <ele>1938.0443704065</ele>
        <time>2001-05-23T12:13:19.1</time>
      </trkpt>
      <trkpt lat="42.5256" lon="2.05107">
        <ele>1936.8155831693</ele>
        <time>2001-05-23T12:13:20.1</time>
      </trkpt>
      <trkpt lat="42.52561" lon="2.05108">
        <ele>1936.012939726</ele>
        <time>2001-05-23T12:13:21.1</time>
      </trkpt>
      <trkpt lat="42.52562" lon="2.05107">
        <ele>1934.8348743394</ele>
        <time>2001-05-23T12:13:22.1</time>
      </trkpt>
      <trkpt lat="42.52562" lon="2.05107">
        <ele>1933.8477155343</ele>
        <time>2001-05-23T12:13:23.1</time>
      </trkpt>
      <trkpt lat="42.52562" lon="2.05105">
        <ele>1934.0503623813</ele>
        <time>2001-05-23T12:13:24.1</time>
      </trkpt>
      <trkpt lat="42.52562" lon="2.05103">
        <ele>1934.8613778796</ele>
        <time>2001-05-23T12:13:25.1</time>
      </trkpt>
      <trkpt lat="42.52562" lon="2.05103">
        <ele>1935.7635621404</ele>
        <time>2001-05-23T12:13:26.1</time>
      </trkpt>
      <trkpt lat="42.52563" lon="2.05104">
        <ele>1936.7736476291</ele>
        <time>2001-05-23T12:13:27.2</time>
      </trkpt>
      <trkpt lat="42.52563" lon="2.05104">
        <ele>1937.5928265363</ele>
        <time>2001-05-23T12:13:28.2</time>
      </trkpt>
      <trkpt lat="42.52563" lon="2.05105">
        <ele>1937.7132548882</ele>
        <time>2001-05-23T12:13:29.1</time>
      </trkpt>
      <trkpt lat="42.52563" lon="2.05106">
        <ele>1937.6015366627</ele>
        <time>2001-05-23T12:13:30.1</time>
      </trkpt>
      <trkpt lat="42.52563" lon="2.05107">
        <ele>1937.5711350068</ele>
        <time>2001-05-23T12:13:31.1</time>
      </trkpt>
      <trkpt lat="42.52565" lon="2.05109">
        <ele>1937.3406341655</ele>
        <time>2001-05-23T12:13:32.1</time>
      </trkpt>
      <trkpt lat="42.52566" lon="2.05111">
        <ele>1936.6189707741</ele>
        <time>2001-05-23T12:13:33.1</time>
      </trkpt>
      <trkpt lat="42.52566" lon="2.05111">
        <ele>1935.7124955794</ele>
        <time>2001-05-23T12:13:34.1</time>
      </trkpt>
      <trkpt lat="42.52566" lon="2.05112">
        <ele>1934.7509985281</ele>
        <time>2001-05-23T12:13:35.1</time>
      </trkpt>
      <trkpt lat="42.52566" lon="2.05113">
        <ele>1933.6761416357</ele>
        <time>2001-05-23T12:13:36.1</time>
      </trkpt>
      <trkpt lat="42.52567" lon="2.05114">
        <ele>1932.8219643077</ele>
        <time>2001-05-23T12:13:37.1</time>
      </trkpt>
      <trkpt lat="42.52568" lon="2.05115">
        <ele>1932.4543230617</ele>
        <time>2001-05-23T12:13:38.1</time>
      </trkpt>
      <trkpt lat="42.52568" lon="2.05116">
        <ele>1932.2312102672</ele>
        <time>2001-05-23T12:13:39.1</time>
      </trkpt>
      <trkpt lat="42.52569" lon="2.05117">
        <ele>1931.7090500489</ele>
        <time>2001-05-23T12:13:40.1</time>
      </trkpt>
      <trkpt lat="42.5257" lon="2.05117">
        <ele>1930.8373872682</ele>
        <time>2001-05-23T12:13:41.1</time>
      </trkpt>
      <trkpt lat="42.5257" lon="2.05116">
        <ele>1930.1655935036</ele>
        <time>2001-05-23T12:13:41.996</time>
      </trkpt>
      <trkpt lat="42.5257" lon="2.05116">
        <ele>1929.498426207</ele>
        <time>2001-05-23T12:13:42.996</time>
      </trkpt>
      <trkpt lat="42.52571" lon="2.05115">
        <ele>1928.8989860278</ele>
        <time>2001-05-23T12:13:43.997</time>
      </trkpt>
      <trkpt lat="42.52571" lon="2.05115">
        <ele>1928.5730104702</ele>
        <time>2001-05-23T12:13:44.997</time>
      </trkpt>
      <trkpt lat="42.52572" lon="2.05115">
        <ele>1928.5038054865</ele>
        <time>2001-05-23T12:13:45.998</time>
      </trkpt>
      <trkpt lat="42.52573" lon="2.05115">
        <ele>1928.3032190092</ele>
        <time>2001-05-23T12:13:46.998</time>
      </trkpt>
      <trkpt lat="42.52572" lon="2.05116">
        <ele>1928.3616799064</ele>
        <time>2001-05-23T12:13:47.996</time>
      </trkpt>
      <trkpt lat="42.5257" lon="2.05119">
        <ele>1929.0731626436</ele>
        <time>2001-05-23T12:13:48.996</time>
      </trkpt>
      <trkpt lat="42.52569" lon="2.05119">
        <ele>1930.1170779785</ele>
        <time>2001-05-23T12:13:49.996</time>
      </trkpt>
      <trkpt lat="42.52569" lon="2.05119">
        <ele>1931.2857685734</ele>
        <time>2001-05-23T12:13:50.996</time>
      </trkpt>
      <trkpt lat="42.52569" lon="2.05119">
        <ele>1932.6329119824</ele>
        <time>2001-05-23T12:13:51.996</time>
      </trkpt>
      <trkpt lat="42.52569" lon="2.05119">
        <ele>1933.7210080169</ele>
        <time>2001-05-23T12:13:52.996</time>
      </trkpt>
      <trkpt lat="42.5257" lon="2.05119">
        <ele>1934.1666330339</ele>
        <time>2001-05-23T12:13:53.993</time>
      </trkpt>
      <trkpt lat="42.52571" lon="2.05118">
        <ele>1934.583686945</ele>
        <time>2001-05-23T12:13:54.993</time>
      </trkpt>
      <trkpt lat="42.52573" lon="2.05117">
        <ele>1935.2908323852</ele>
        <time>2001-05-23T12:13:55.993</time>
      </trkpt>
      <trkpt lat="42.52574" lon="2.05115">
        <ele>1936.2095480114</ele>
        <time>2001-05-23T12:13:56.993</time>
      </trkpt>
      <trkpt lat="42.52575" lon="2.05114">
        <ele>1937.2797757884</ele>
        <time>2001-05-23T12:13:57.993</time>
      </trkpt>
      <trkpt lat="42.52575" lon="2.05114">
        <ele>1938.3561634621</ele>
        <time>2001-05-23T12:13:58.993</time>
      </trkpt>
      <trkpt lat="42.52575" lon="2.05113">
        <ele>1939.3017997669</ele>
        <time>2001-05-23T12:13:59.993</time>
      </trkpt>
      <trkpt lat="42.52575" lon="2.05111">
        <ele>1940.1789505316</ele>
        <time>2001-05-23T12:14:00.993</time>
      </trkpt>
      <trkpt lat="42.52575" lon="2.0511">
        <ele>1940.9707282079</ele>
        <time>2001-05-23T12:14:01.993</time>
      </trkpt>
      <trkpt lat="42.52577" lon="2.05108">
        <ele>1942.1512384675</ele>
        <time>2001-05-23T12:14:02.996</time>
      </trkpt>
      <trkpt lat="42.52578" lon="2.05107">
        <ele>1943.242546827</ele>
        <time>2001-05-23T12:14:03.996</time>
      </trkpt>
      <trkpt lat="42.52581" lon="2.05103">
        <ele>1944.6875548635</ele>
        <time>2001-05-23T12:14:04.995</time>
      </trkpt>
      <trkpt lat="42.52581" lon="2.05102">
        <ele>1945.9280948212</ele>
        <time>2001-05-23T12:14:05.995</time>
      </trkpt>
      <trkpt lat="42.52582" lon="2.05101">
        <ele>1947.187263228</ele>
        <time>2001-05-23T12:14:06.995</time>
      </trkpt>
      <trkpt lat="42.52583" lon="2.05101">
        <ele>1948.0482901381</ele>
        <time>2001-05-23T12:14:07.995</time>
      </trkpt>
      <trkpt lat="42.52583" lon="2.05101">
        <ele>1948.9668248594</ele>
        <time>2001-05-23T12:14:08.995</time>
      </trkpt>
      <trkpt lat="42.52584" lon="2.051">
        <ele>1949.6532360073</ele>
        <time>2001-05-23T12:14:09.994</time>
      </trkpt>
      <trkpt lat="42.52584" lon="2.051">
        <ele>1950.322509245</ele>
        <time>2001-05-23T12:14:10.994</time>
      </trkpt>
      <trkpt lat="42.52586" lon="2.05099">
        <ele>1950.8925583405</ele>
        <time>2001-05-23T12:14:11.999</time>
      </trkpt>
      <trkpt lat="42.52587" lon="2.05098">
        <ele>1951.1822008202</ele>
        <time>2001-05-23T12:14:12.999</time>
      </trkpt>
      <trkpt lat="42.52588" lon="2.05099">
        <ele>1951.1169085773</ele>
        <time>2001-05-23T12:14:14.13</time>
      </trkpt>
      <trkpt lat="42.52589" lon="2.05099">
        <ele>1950.3996405596</ele>
        <time>2001-05-23T12:14:15.13</time>
      </trkpt>
      <trkpt lat="42.5259" lon="2.05099">
        <ele>1949.5469564684</ele>
        <time>2001-05-23T12:14:16.13</time>
      </trkpt>
      <trkpt lat="42.52591" lon="2.051">
        <ele>1948.441008167</ele>
        <time>2001-05-23T12:14:17.13</time>
      </trkpt>
      <trkpt lat="42.52592" lon="2.051">
        <ele>1947.5543133669</ele>
        <time>2001-05-23T12:14:18.13</time>
      </trkpt>
      <trkpt lat="42.52592" lon="2.051">
        <ele>1947.1387597293</ele>
        <time>2001-05-23T12:14:19.13</time>
      </trkpt>
      <trkpt lat="42.52592" lon="2.05101">
        <ele>1947.2910114443</ele>
        <time>2001-05-23T12:14:20.13</time>
      </trkpt>
      <trkpt lat="42.52593" lon="2.051">
        <ele>1947.4976161662</ele>
        <time>2001-05-23T12:14:21.13</time>
      </trkpt>
      <trkpt lat="42.52594" lon="2.051">
        <ele>1948.0958818009</ele>
        <time>2001-05-23T12:14:22.13</time>
      </trkpt>
      <trkpt lat="42.52594" lon="2.05101">
        <ele>1948.7627956489</ele>
        <time>2001-05-23T12:14:23.12</time>
      </trkpt>
      <trkpt lat="42.52595" lon="2.05101">
        <ele>1949.3805481538</ele>
        <time>2001-05-23T12:14:24.12</time>
      </trkpt>
      <trkpt lat="42.52596" lon="2.05102">
        <ele>1949.7246471917</ele>
        <time>2001-05-23T12:14:25.12</time>
      </trkpt>
      <trkpt lat="42.52596" lon="2.05102">
        <ele>1950.1498092962</ele>
        <time>2001-05-23T12:14:26.12</time>
      </trkpt>
      <trkpt lat="42.52597" lon="2.05101">
        <ele>1949.9733550917</ele>
        <time>2001-05-23T12:14:27.13</time>
      </trkpt>
      <trkpt lat="42.52599" lon="2.05102">
        <ele>1949.1530495498</ele>
        <time>2001-05-23T12:14:28.13</time>
      </trkpt>
      <trkpt lat="42.52601" lon="2.05103">
        <ele>1947.1607512938</ele>
        <time>2001-05-23T12:14:29.13</time>
      </trkpt>
      <trkpt lat="42.52602" lon="2.05104">
        <ele>1944.8064619731</ele>
        <time>2001-05-23T12:14:30.13</time>
      </trkpt>
      <trkpt lat="42.52603" lon="2.05105">
        <ele>1942.4355278103</ele>
        <time>2001-05-23T12:14:31.13</time>
      </trkpt>
      <trkpt lat="42.52602" lon="2.05105">
        <ele>1940.4219835507</ele>
        <time>2001-05-23T12:14:32.13</time>
      </trkpt>
      <trkpt lat="42.52603" lon="2.05105">
        <ele>1938.8249989111</ele>
        <time>2001-05-23T12:14:33.13</time>
      </trkpt>
      <trkpt lat="42.52604" lon="2.05106">
        <ele>1938.3789492857</ele>
        <time>2001-05-23T12:14:34.13</time>
      </trkpt>
      <trkpt lat="42.52605" lon="2.05107">
        <ele>1938.7881187504</ele>
        <time>2001-05-23T12:14:35.13</time>
      </trkpt>
      <trkpt lat="42.52605" lon="2.05107">
        <ele>1939.417642197</ele>
        <time>2001-05-23T12:14:36.13</time>
      </trkpt>
      <trkpt lat="42.52606" lon="2.05107">
        <ele>1939.9376142109</ele>
        <time>2001-05-23T12:14:37.13</time>
      </trkpt>
      <trkpt lat="42.52607" lon="2.05109">
        <ele>1940.7791774563</ele>
        <time>2001-05-23T12:14:38.13</time>
      </trkpt>
      <trkpt lat="42.52607" lon="2.05109">
        <ele>1941.4870950781</ele>
        <time>2001-05-23T12:14:39.13</time>
      </trkpt>
      <trkpt lat="42.52608" lon="2.05109">
        <ele>1941.5770215822</ele>
        <time>2001-05-23T12:14:40.6</time>
      </trkpt>
      <trkpt lat="42.5261" lon="2.05111">
        <ele>1941.3716589844</ele>
        <time>2001-05-23T12:14:41.6</time>
      </trkpt>
      <trkpt lat="42.5261" lon="2.05112">
        <ele>1941.835099747</ele>
        <time>2001-05-23T12:14:42.6</time>
      </trkpt>
      <trkpt lat="42.5261" lon="2.05113">
        <ele>1942.2635632282</ele>
        <time>2001-05-23T12:14:43.6</time>
      </trkpt>
      <trkpt lat="42.5261" lon="2.05113">
        <ele>1942.6920267094</ele>
        <time>2001-05-23T12:14:44.6</time>
      </trkpt>
      <trkpt lat="42.5261" lon="2.05112">
        <ele>1943.1877969246</ele>
        <time>2001-05-23T12:14:45.6</time>
      </trkpt>
      <trkpt lat="42.5261" lon="2.05112">
        <ele>1943.7751471022</ele>
        <time>2001-05-23T12:14:46.6</time>
      </trkpt>
      <trkpt lat="42.52612" lon="2.05112">
        <ele>1943.3177400604</ele>
        <time>2001-05-23T12:14:47.6</time>
      </trkpt>
      <trkpt lat="42.52612" lon="2.05111">
        <ele>1943.2162946392</ele>
        <time>2001-05-23T12:14:48.6</time>
      </trkpt>
      <trkpt lat="42.52612" lon="2.05112">
        <ele>1943.2257374128</ele>
        <time>2001-05-23T12:14:49.8</time>
      </trkpt>
      <trkpt lat="42.52612" lon="2.05112">
        <ele>1943.3557742069</ele>
        <time>2001-05-23T12:14:50.8</time>
      </trkpt>
      <trkpt lat="42.52612" lon="2.05112">
        <ele>1943.6736395439</ele>
        <time>2001-05-23T12:14:51.10</time>
      </trkpt>
      <trkpt lat="42.52613" lon="2.05113">
        <ele>1944.5738737615</ele>
        <time>2001-05-23T12:14:52.10</time>
      </trkpt>
      <trkpt lat="42.52615" lon="2.05115">
        <ele>1945.110749938</ele>
        <time>2001-05-23T12:14:53.10</time>
      </trkpt>
      <trkpt lat="42.52615" lon="2.05116">
        <ele>1945.7219105724</ele>
        <time>2001-05-23T12:14:54.10</time>
      </trkpt>
      <trkpt lat="42.52616" lon="2.05117">
        <ele>1946.1148825677</ele>
        <time>2001-05-23T12:14:55.10</time>
      </trkpt>
      <trkpt lat="42.52616" lon="2.05117">
        <ele>1946.32002602</ele>
        <time>2001-05-23T12:14:56.10</time>
      </trkpt>
      <trkpt lat="42.52617" lon="2.05117">
        <ele>1946.1869828308</ele>
        <time>2001-05-23T12:14:57.8</time>
      </trkpt>
      <trkpt lat="42.52618" lon="2.05118">
        <ele>1945.5276499458</ele>
        <time>2001-05-23T12:14:58.8</time>
      </trkpt>
      <trkpt lat="42.52618" lon="2.05119">
        <ele>1944.6144280879</ele>
        <time>2001-05-23T12:14:59.8</time>
      </trkpt>
      <trkpt lat="42.52619" lon="2.05119">
        <ele>1944.1588393576</ele>
        <time>2001-05-23T12:15:00.8</time>
      </trkpt>
      <trkpt lat="42.52621" lon="2.05119">
        <ele>1943.4862879995</ele>
        <time>2001-05-23T12:15:01.7</time>
      </trkpt>
      <trkpt lat="42.52622" lon="2.0512">
        <ele>1943.1762539057</ele>
        <time>2001-05-23T12:15:02.7</time>
      </trkpt>
      <trkpt lat="42.52622" lon="2.05121">
        <ele>1943.0805694923</ele>
        <time>2001-05-23T12:15:03.7</time>
      </trkpt>
      <trkpt lat="42.52623" lon="2.05122">
        <ele>1943.0682890566</ele>
        <time>2001-05-23T12:15:04.7</time>
      </trkpt>
      <trkpt lat="42.52623" lon="2.05123">
        <ele>1943.0451632055</ele>
        <time>2001-05-23T12:15:05.7</time>
      </trkpt>
      <trkpt lat="42.52623" lon="2.05123">
        <ele>1943.2389999822</ele>
        <time>2001-05-23T12:15:06.7</time>
      </trkpt>
      <trkpt lat="42.52623" lon="2.05124">
        <ele>1943.9563789861</ele>
        <time>2001-05-23T12:15:07.8</time>
      </trkpt>
      <trkpt lat="42.52625" lon="2.05125">
        <ele>1944.7303805938</ele>
        <time>2001-05-23T12:15:08.8</time>
      </trkpt>
      <trkpt lat="42.52626" lon="2.05125">
        <ele>1945.3755104227</ele>
        <time>2001-05-23T12:15:09.8</time>
      </trkpt>
      <trkpt lat="42.52626" lon="2.05125">
        <ele>1945.7920411786</ele>
        <time>2001-05-23T12:15:10.8</time>
      </trkpt>
      <trkpt lat="42.52627" lon="2.05124">
        <ele>1946.2933294417</ele>
        <time>2001-05-23T12:15:11.7</time>
      </trkpt>
      <trkpt lat="42.52627" lon="2.05124">
        <ele>1946.2101095647</ele>
        <time>2001-05-23T12:15:12.7</time>
      </trkpt>
      <trkpt lat="42.52627" lon="2.05123">
        <ele>1946.5558476929</ele>
        <time>2001-05-23T12:15:13.8</time>
      </trkpt>
      <trkpt lat="42.52628" lon="2.05122">
        <ele>1947.2840939192</ele>
        <time>2001-05-23T12:15:14.8</time>
      </trkpt>
      <trkpt lat="42.52628" lon="2.05121">
        <ele>1948.1618235938</ele>
        <time>2001-05-23T12:15:15.8</time>
      </trkpt>
      <trkpt lat="42.52629" lon="2.0512">
        <ele>1948.9941158354</ele>
        <time>2001-05-23T12:15:16.9</time>
      </trkpt>
      <trkpt lat="42.52629" lon="2.0512">
        <ele>1949.826408077</ele>
        <time>2001-05-23T12:15:17.9</time>
      </trkpt>
      <trkpt lat="42.5263" lon="2.05118">
        <ele>1950.5896033501</ele>
        <time>2001-05-23T12:15:18.9</time>
      </trkpt>
      <trkpt lat="42.5263" lon="2.05118">
        <ele>1951.0844746461</ele>
        <time>2001-05-23T12:15:19.9</time>
      </trkpt>
      <trkpt lat="42.52629" lon="2.05119">
        <ele>1951.5600480491</ele>
        <time>2001-05-23T12:15:20.8</time>
      </trkpt>
      <trkpt lat="42.52629" lon="2.0512">
        <ele>1951.9488985002</ele>
        <time>2001-05-23T12:15:21.8</time>
      </trkpt>
      <trkpt lat="42.52628" lon="2.0512">
        <ele>1952.6165084969</ele>
        <time>2001-05-23T12:15:22.6</time>
      </trkpt>
      <trkpt lat="42.52628" lon="2.0512">
        <ele>1952.9780507201</ele>
        <time>2001-05-23T12:15:23.6</time>
      </trkpt>
      <trkpt lat="42.52628" lon="2.05122">
        <ele>1954.294899153</ele>
        <time>2001-05-23T12:15:24.5</time>
      </trkpt>
      <trkpt lat="42.52628" lon="2.05122">
        <ele>1955.4815620305</ele>
        <time>2001-05-23T12:15:25.5</time>
      </trkpt>
      <trkpt lat="42.52627" lon="2.05122">
        <ele>1957.2106282594</ele>
        <time>2001-05-23T12:15:26.5</time>
      </trkpt>
      <trkpt lat="42.52627" lon="2.05123">
        <ele>1959.1554529116</ele>
        <time>2001-05-23T12:15:27.5</time>
      </trkpt>
      <trkpt lat="42.52627" lon="2.05123">
        <ele>1960.7859415181</ele>
        <time>2001-05-23T12:15:28.4</time>
      </trkpt>
      <trkpt lat="42.52627" lon="2.05123">
        <ele>1961.461123915</ele>
        <time>2001-05-23T12:15:29.4</time>
      </trkpt>
      <trkpt lat="42.52627" lon="2.05127">
        <ele>1961.6796152323</ele>
        <time>2001-05-23T12:15:30.3</time>
      </trkpt>
      <trkpt lat="42.52627" lon="2.05127">
        <ele>1961.3266495384</ele>
        <time>2001-05-23T12:15:31.3</time>
      </trkpt>
      <trkpt lat="42.52628" lon="2.05128">
        <ele>1960.4139139021</ele>
        <time>2001-05-23T12:15:32.3</time>
      </trkpt>
      <trkpt lat="42.52628" lon="2.05129">
        <ele>1959.7076005295</ele>
        <time>2001-05-23T12:15:33.3</time>
      </trkpt>
      <trkpt lat="42.52629" lon="2.0513">
        <ele>1959.029347674</ele>
        <time>2001-05-23T12:15:34.3</time>
      </trkpt>
      <trkpt lat="42.5263" lon="2.05132">
        <ele>1958.6234327869</ele>
        <time>2001-05-23T12:15:35.3</time>
      </trkpt>
      <trkpt lat="42.5263" lon="2.05132">
        <ele>1958.2939744376</ele>
        <time>2001-05-23T12:15:36.3</time>
      </trkpt>
      <trkpt lat="42.52631" lon="2.05132">
        <ele>1957.8928275261</ele>
        <time>2001-05-23T12:15:37.4</time>
      </trkpt>
      <trkpt lat="42.52631" lon="2.05132">
        <ele>1957.5995943965</ele>
        <time>2001-05-23T12:15:38.4</time>
      </trkpt>
      <trkpt lat="42.52631" lon="2.05134">
        <ele>1957.3467451653</ele>
        <time>2001-05-23T12:15:39.7</time>
      </trkpt>
      <trkpt lat="42.52631" lon="2.05135">
        <ele>1957.5079005972</ele>
        <time>2001-05-23T12:15:40.7</time>
      </trkpt>
      <trkpt lat="42.52628" lon="2.05137">
        <ele>1958.0907162437</ele>
        <time>2001-05-23T12:15:41.6</time>
      </trkpt>
      <trkpt lat="42.52627" lon="2.05139">
        <ele>1959.7153949631</ele>
        <time>2001-05-23T12:15:42.6</time>
      </trkpt>
      <trkpt lat="42.52627" lon="2.05139">
        <ele>1961.3400736826</ele>
        <time>2001-05-23T12:15:43.6</time>
      </trkpt>
      <trkpt lat="42.52628" lon="2.0514">
        <ele>1962.5137173729</ele>
        <time>2001-05-23T12:15:44.6</time>
      </trkpt>
      <trkpt lat="42.52629" lon="2.05141">
        <ele>1963.6258689098</ele>
        <time>2001-05-23T12:15:45.6</time>
      </trkpt>
      <trkpt lat="42.5263" lon="2.05142">
        <ele>1963.8978402441</ele>
        <time>2001-05-23T12:15:46.6</time>
      </trkpt>
      <trkpt lat="42.5263" lon="2.05142">
        <ele>1963.2648890411</ele>
        <time>2001-05-23T12:15:47.6</time>
      </trkpt>
      <trkpt lat="42.5263" lon="2.05142">
        <ele>1962.6319378382</ele>
        <time>2001-05-23T12:15:48.6</time>
      </trkpt>
      <trkpt lat="42.52628" lon="2.05143">
        <ele>1962.7977616446</ele>
        <time>2001-05-23T12:15:49.4</time>
      </trkpt>
      <trkpt lat="42.52628" lon="2.05143">
        <ele>1962.7954260524</ele>
        <time>2001-05-23T12:15:50.4</time>
      </trkpt>
      <trkpt lat="42.52628" lon="2.05142">
        <ele>1963.7507148053</ele>
        <time>2001-05-23T12:15:51.5</time>
      </trkpt>
      <trkpt lat="42.52628" lon="2.05142">
        <ele>1964.7060035583</ele>
        <time>2001-05-23T12:15:52.5</time>
      </trkpt>
      <trkpt lat="42.52629" lon="2.05141">
        <ele>1965.4679862203</ele>
        <time>2001-05-23T12:15:53.5</time>
      </trkpt>
      <trkpt lat="42.52629" lon="2.05141">
        <ele>1965.8137844866</ele>
        <time>2001-05-23T12:15:54.5</time>
      </trkpt>
      <trkpt lat="42.52628" lon="2.05141">
        <ele>1966.8405815294</ele>
        <time>2001-05-23T12:15:55.5</time>
      </trkpt>
      <trkpt lat="42.52628" lon="2.05141">
        <ele>1967.328274215</ele>
        <time>2001-05-23T12:15:56.5</time>
      </trkpt>
      <trkpt lat="42.52626" lon="2.05142">
        <ele>1968.4244022828</ele>
        <time>2001-05-23T12:15:57.5</time>
      </trkpt>
      <trkpt lat="42.52626" lon="2.05142">
        <ele>1969.7138364414</ele>
        <time>2001-05-23T12:15:58.5</time>
      </trkpt>
      <trkpt lat="42.52626" lon="2.05145">
        <ele>1970.7710610323</ele>
        <time>2001-05-23T12:15:59.6</time>
      </trkpt>
      <trkpt lat="42.52626" lon="2.05145">
        <ele>1971.1472868467</ele>
        <time>2001-05-23T12:16:00.6</time>
      </trkpt>
      <trkpt lat="42.52627" lon="2.05144">
        <ele>1971.3988004532</ele>
        <time>2001-05-23T12:16:00.993</time>
      </trkpt>
      <trkpt lat="42.52626" lon="2.05143">
        <ele>1971.2801904088</ele>
        <time>2001-05-23T12:16:01.993</time>
      </trkpt>
      <trkpt lat="42.52628" lon="2.05143">
        <ele>1970.7077393318</ele>
        <time>2001-05-23T12:16:02.998</time>
      </trkpt>
      <trkpt lat="42.52628" lon="2.05143">
        <ele>1970.3674978225</ele>
        <time>2001-05-23T12:16:03.998</time>
      </trkpt>
      <trkpt lat="42.52628" lon="2.05142">
        <ele>1970.0153501544</ele>
        <time>2001-05-23T12:16:04.996</time>
      </trkpt>
      <trkpt lat="42.52628" lon="2.05142">
        <ele>1969.7879146943</ele>
        <time>2001-05-23T12:16:05.996</time>
      </trkpt>
      <trkpt lat="42.52628" lon="2.05142">
        <ele>1970.5321751865</ele>
        <time>2001-05-23T12:16:06.998</time>
      </trkpt>
      <trkpt lat="42.52629" lon="2.05143">
        <ele>1971.6622445842</ele>
        <time>2001-05-23T12:16:07.998</time>
      </trkpt>
      <trkpt lat="42.52628" lon="2.05143">
        <ele>1973.2545683434</ele>
        <time>2001-05-23T12:16:08.999</time>
      </trkpt>
      <trkpt lat="42.52628" lon="2.05143">
        <ele>1974.8587982614</ele>
        <time>2001-05-23T12:16:09.999</time>
      </trkpt>
      <trkpt lat="42.52628" lon="2.05145">
        <ele>1976.3169453721</ele>
        <time>2001-05-23T12:16:11.1</time>
      </trkpt>
      <trkpt lat="42.52629" lon="2.05145">
        <ele>1976.204188736</ele>
        <time>2001-05-23T12:16:12.1</time>
      </trkpt>
      <trkpt lat="42.5263" lon="2.05146">
        <ele>1976.1309042396</ele>
        <time>2001-05-23T12:16:13.1</time>
      </trkpt>
      <trkpt lat="42.5263" lon="2.05147">
        <ele>1975.48950816</ele>
        <time>2001-05-23T12:16:14.1</time>
      </trkpt>
      <trkpt lat="42.5263" lon="2.05148">
        <ele>1974.5286632547</ele>
        <time>2001-05-23T12:16:15.1</time>
      </trkpt>
      <trkpt lat="42.52632" lon="2.0515">
        <ele>1973.4609686915</ele>
        <time>2001-05-23T12:16:16.1</time>
      </trkpt>
      <trkpt lat="42.52633" lon="2.05151">
        <ele>1972.2880222034</ele>
        <time>2001-05-23T12:16:17.1</time>
      </trkpt>
      <trkpt lat="42.52633" lon="2.05152">
        <ele>1971.3167778209</ele>
        <time>2001-05-23T12:16:18.1</time>
      </trkpt>
      <trkpt lat="42.52633" lon="2.05152">
        <ele>1970.4513906602</ele>
        <time>2001-05-23T12:16:19.1</time>
      </trkpt>
      <trkpt lat="42.52634" lon="2.05153">
        <ele>1969.510313216</ele>
        <time>2001-05-23T12:16:20.1</time>
      </trkpt>
      <trkpt lat="42.52634" lon="2.05155">
        <ele>1968.9138533743</ele>
        <time>2001-05-23T12:16:21.1</time>
      </trkpt>
      <trkpt lat="42.52635" lon="2.05156">
        <ele>1968.3259970807</ele>
        <time>2001-05-23T12:16:22.1</time>
      </trkpt>
      <trkpt lat="42.52635" lon="2.05157">
        <ele>1967.6504925713</ele>
        <time>2001-05-23T12:16:23.1</time>
      </trkpt>
      <trkpt lat="42.52635" lon="2.05158">
        <ele>1966.943161669</ele>
        <time>2001-05-23T12:16:24.1</time>
      </trkpt>
      <trkpt lat="42.52636" lon="2.05159">
        <ele>1966.1418590471</ele>
        <time>2001-05-23T12:16:25.1</time>
      </trkpt>
      <trkpt lat="42.52636" lon="2.05159">
        <ele>1965.2488712879</ele>
        <time>2001-05-23T12:16:26.1</time>
      </trkpt>
      <trkpt lat="42.52637" lon="2.0516">
        <ele>1964.8401684316</ele>
        <time>2001-05-23T12:16:27.3</time>
      </trkpt>
      <trkpt lat="42.52637" lon="2.05161">
        <ele>1964.565916219</ele>
        <time>2001-05-23T12:16:28.3</time>
      </trkpt>
      <trkpt lat="42.52637" lon="2.05162">
        <ele>1964.2512308136</ele>
        <time>2001-05-23T12:16:29.3</time>
      </trkpt>
      <trkpt lat="42.52638" lon="2.05163">
        <ele>1964.2141970105</ele>
        <time>2001-05-23T12:16:30.3</time>
      </trkpt>
      <trkpt lat="42.52639" lon="2.05164">
        <ele>1964.1434859548</ele>
        <time>2001-05-23T12:16:31.3</time>
      </trkpt>
      <trkpt lat="42.52638" lon="2.05164">
        <ele>1964.34113115</ele>
        <time>2001-05-23T12:16:32.4</time>
      </trkpt>
      <trkpt lat="42.52638" lon="2.05164">
        <ele>1964.3188317988</ele>
        <time>2001-05-23T12:16:33.4</time>
      </trkpt>
      <trkpt lat="42.52638" lon="2.05165">
        <ele>1964.218936727</ele>
        <time>2001-05-23T12:16:34.11</time>
      </trkpt>
      <trkpt lat="42.52638" lon="2.05167">
        <ele>1964.2842446886</ele>
        <time>2001-05-23T12:16:35.11</time>
      </trkpt>
      <trkpt lat="42.52639" lon="2.05168">
        <ele>1964.2758743806</ele>
        <time>2001-05-23T12:16:36.11</time>
      </trkpt>
      <trkpt lat="42.52639" lon="2.05169">
        <ele>1964.0890934994</ele>
        <time>2001-05-23T12:16:37.11</time>
      </trkpt>
      <trkpt lat="42.52639" lon="2.05169">
        <ele>1963.9023126183</ele>
        <time>2001-05-23T12:16:38.11</time>
      </trkpt>
      <trkpt lat="42.5264" lon="2.0517">
        <ele>1963.8271378711</ele>
        <time>2001-05-23T12:16:39.11</time>
      </trkpt>
      <trkpt lat="42.5264" lon="2.05171">
        <ele>1963.4479976527</ele>
        <time>2001-05-23T12:16:40.11</time>
      </trkpt>
      <trkpt lat="42.52639" lon="2.05172">
        <ele>1963.4102986801</ele>
        <time>2001-05-23T12:16:41.8</time>
      </trkpt>
      <trkpt lat="42.52638" lon="2.05173">
        <ele>1963.4710857464</ele>
        <time>2001-05-23T12:16:42.8</time>
      </trkpt>
      <trkpt lat="42.52637" lon="2.05174">
        <ele>1963.7552125782</ele>
        <time>2001-05-23T12:16:43.8</time>
      </trkpt>
      <trkpt lat="42.52637" lon="2.05175">
        <ele>1964.4089887133</ele>
        <time>2001-05-23T12:16:44.8</time>
      </trkpt>
      <trkpt lat="42.52638" lon="2.05176">
        <ele>1965.2929827981</ele>
        <time>2001-05-23T12:16:45.8</time>
      </trkpt>
      <trkpt lat="42.52638" lon="2.05177">
        <ele>1966.2375370421</ele>
        <time>2001-05-23T12:16:46.8</time>
      </trkpt>
      <trkpt lat="42.52638" lon="2.05178">
        <ele>1966.8977663243</ele>
        <time>2001-05-23T12:16:47.8</time>
      </trkpt>
      <trkpt lat="42.52638" lon="2.05178">
        <ele>1967.3346558411</ele>
        <time>2001-05-23T12:16:48.8</time>
      </trkpt>
      <trkpt lat="42.52637" lon="2.05179">
        <ele>1967.7262459267</ele>
        <time>2001-05-23T12:16:49.8</time>
      </trkpt>
      <trkpt lat="42.52638" lon="2.0518">
        <ele>1967.8422080494</ele>
        <time>2001-05-23T12:16:50.4</time>
      </trkpt>
      <trkpt lat="42.52638" lon="2.0518">
        <ele>1967.6635242896</ele>
        <time>2001-05-23T12:16:51.4</time>
      </trkpt>
      <trkpt lat="42.52639" lon="2.05182">
        <ele>1967.3925323056</ele>
        <time>2001-05-23T12:16:52.5</time>
      </trkpt>
      <trkpt lat="42.52639" lon="2.05183">
        <ele>1967.2779604496</ele>
        <time>2001-05-23T12:16:53.5</time>
      </trkpt>
      <trkpt lat="42.52638" lon="2.05184">
        <ele>1966.9939611731</ele>
        <time>2001-05-23T12:16:54.5</time>
      </trkpt>
      <trkpt lat="42.52638" lon="2.05185">
        <ele>1967.490958102</ele>
        <time>2001-05-23T12:16:55.5</time>
      </trkpt>
      <trkpt lat="42.52637" lon="2.05186">
        <ele>1968.0746269813</ele>
        <time>2001-05-23T12:16:56.5</time>
      </trkpt>
      <trkpt lat="42.52637" lon="2.05186">
        <ele>1968.819756867</ele>
        <time>2001-05-23T12:16:57.5</time>
      </trkpt>
      <trkpt lat="42.52637" lon="2.05188">
        <ele>1969.4375969443</ele>
        <time>2001-05-23T12:16:58.11</time>
      </trkpt>
      <trkpt lat="42.52637" lon="2.05189">
        <ele>1969.8631861625</ele>
        <time>2001-05-23T12:16:59.11</time>
      </trkpt>
      <trkpt lat="42.52637" lon="2.0519">
        <ele>1969.8655796673</ele>
        <time>2001-05-23T12:17:00.11</time>
      </trkpt>
      <trkpt lat="42.52638" lon="2.0519">
        <ele>1969.6793089712</ele>
        <time>2001-05-23T12:17:01.16</time>
      </trkpt>
      <trkpt lat="42.52638" lon="2.0519">
        <ele>1969.4930382751</ele>
        <time>2001-05-23T12:17:02.16</time>
      </trkpt>
      <trkpt lat="42.52638" lon="2.05191">
        <ele>1969.4360597648</ele>
        <time>2001-05-23T12:17:03.18</time>
      </trkpt>
      <trkpt lat="42.52638" lon="2.05191">
        <ele>1969.4546588344</ele>
        <time>2001-05-23T12:17:04.18</time>
      </trkpt>
      <trkpt lat="42.52636" lon="2.05192">
        <ele>1969.4722966243</ele>
        <time>2001-05-23T12:17:05.19</time>
      </trkpt>
      <trkpt lat="42.52636" lon="2.05192">
        <ele>1969.5919266647</ele>
        <time>2001-05-23T12:17:06.19</time>
      </trkpt>
      <trkpt lat="42.52637" lon="2.05192">
        <ele>1969.6145467637</ele>
        <time>2001-05-23T12:17:07.9</time>
      </trkpt>
      <trkpt lat="42.52637" lon="2.05192">
        <ele>1969.4787443573</ele>
        <time>2001-05-23T12:17:08.9</time>
      </trkpt>
      <trkpt lat="42.52636" lon="2.05194">
        <ele>1969.4510817392</ele>
        <time>2001-05-23T12:17:09.9</time>
      </trkpt>
      <trkpt lat="42.52635" lon="2.05194">
        <ele>1969.5251944721</ele>
        <time>2001-05-23T12:17:10.9</time>
      </trkpt>
      <trkpt lat="42.52635" lon="2.05196">
        <ele>1969.223006176</ele>
        <time>2001-05-23T12:17:11.12</time>
      </trkpt>
      <trkpt lat="42.52635" lon="2.05196">
        <ele>1969.2513659529</ele>
        <time>2001-05-23T12:17:12.12</time>
      </trkpt>
      <trkpt lat="42.52634" lon="2.05197">
        <ele>1969.7256893475</ele>
        <time>2001-05-23T12:17:13.11</time>
      </trkpt>
      <trkpt lat="42.52634" lon="2.05197">
        <ele>1970.0918729536</ele>
        <time>2001-05-23T12:17:14.11</time>
      </trkpt>
      <trkpt lat="42.52636" lon="2.05197">
        <ele>1970.357981546</ele>
        <time>2001-05-23T12:17:15.11</time>
      </trkpt>
      <trkpt lat="42.52636" lon="2.05197">
        <ele>1971.1959550973</ele>
        <time>2001-05-23T12:17:16.11</time>
      </trkpt>
      <trkpt lat="42.52637" lon="2.05197">
        <ele>1971.7734321361</ele>
        <time>2001-05-23T12:17:17.11</time>
      </trkpt>
      <trkpt lat="42.52639" lon="2.05198">
        <ele>1971.5715555506</ele>
        <time>2001-05-23T12:17:18.11</time>
      </trkpt>
      <trkpt lat="42.5264" lon="2.05198">
        <ele>1971.4704055177</ele>
        <time>2001-05-23T12:17:19.11</time>
      </trkpt>
      <trkpt lat="42.5264" lon="2.05198">
        <ele>1971.5493241992</ele>
        <time>2001-05-23T12:17:20.11</time>
      </trkpt>
      <trkpt lat="42.5264" lon="2.05198">
        <ele>1971.4326789508</ele>
        <time>2001-05-23T12:17:21.11</time>
      </trkpt>
      <trkpt lat="42.52641" lon="2.052">
        <ele>1971.408952499</ele>
        <time>2001-05-23T12:17:22.9</time>
      </trkpt>
      <trkpt lat="42.52641" lon="2.052">
        <ele>1971.718616054</ele>
        <time>2001-05-23T12:17:23.9</time>
      </trkpt>
      <trkpt lat="42.52641" lon="2.05201">
        <ele>1971.9969966916</ele>
        <time>2001-05-23T12:17:24.6</time>
      </trkpt>
      <trkpt lat="42.52642" lon="2.05202">
        <ele>1972.1804215141</ele>
        <time>2001-05-23T12:17:25.6</time>
      </trkpt>
      <trkpt lat="42.52643" lon="2.05202">
        <ele>1972.7568683099</ele>
        <time>2001-05-23T12:17:26.6</time>
      </trkpt>
      <trkpt lat="42.52643" lon="2.05204">
        <ele>1973.2941379486</ele>
        <time>2001-05-23T12:17:27.9</time>
      </trkpt>
      <trkpt lat="42.52644" lon="2.05205">
        <ele>1973.7511609854</ele>
        <time>2001-05-23T12:17:28.9</time>
      </trkpt>
      <trkpt lat="42.52645" lon="2.05206">
        <ele>1973.7314629249</ele>
        <time>2001-05-23T12:17:29.11</time>
      </trkpt>
      <trkpt lat="42.52647" lon="2.05206">
        <ele>1973.5076018754</ele>
        <time>2001-05-23T12:17:30.11</time>
      </trkpt>
      <trkpt lat="42.52647" lon="2.05208">
        <ele>1972.6485313155</ele>
        <time>2001-05-23T12:17:31.11</time>
      </trkpt>
      <trkpt lat="42.52648" lon="2.05208">
        <ele>1971.925183579</ele>
        <time>2001-05-23T12:17:32.11</time>
      </trkpt>
      <trkpt lat="42.52649" lon="2.05209">
        <ele>1971.1908360606</ele>
        <time>2001-05-23T12:17:33.11</time>
      </trkpt>
      <trkpt lat="42.5265" lon="2.0521">
        <ele>1970.8816072764</ele>
        <time>2001-05-23T12:17:34.11</time>
      </trkpt>
      <trkpt lat="42.52652" lon="2.0521">
        <ele>1970.5234590089</ele>
        <time>2001-05-23T12:17:35.11</time>
      </trkpt>
      <trkpt lat="42.52653" lon="2.0521">
        <ele>1970.6124878151</ele>
        <time>2001-05-23T12:17:36.11</time>
      </trkpt>
      <trkpt lat="42.52653" lon="2.0521">
        <ele>1970.5390105393</ele>
        <time>2001-05-23T12:17:37.11</time>
      </trkpt>
      <trkpt lat="42.52653" lon="2.0521">
        <ele>1970.5567796471</ele>
        <time>2001-05-23T12:17:38.11</time>
      </trkpt>
      <trkpt lat="42.52653" lon="2.05211">
        <ele>1970.8941242456</ele>
        <time>2001-05-23T12:17:39.11</time>
      </trkpt>
      <trkpt lat="42.52653" lon="2.05213">
        <ele>1971.432158508</ele>
        <time>2001-05-23T12:17:40.11</time>
      </trkpt>
      <trkpt lat="42.52652" lon="2.05214">
        <ele>1971.7677942324</ele>
        <time>2001-05-23T12:17:41.11</time>
      </trkpt>
      <trkpt lat="42.52653" lon="2.05214">
        <ele>1972.0944031827</ele>
        <time>2001-05-23T12:17:42.16</time>
      </trkpt>
      <trkpt lat="42.52653" lon="2.05214">
        <ele>1972.421012133</ele>
        <time>2001-05-23T12:17:43.16</time>
      </trkpt>
      <trkpt lat="42.52654" lon="2.05214">
        <ele>1972.5658636909</ele>
        <time>2001-05-23T12:17:44.16</time>
      </trkpt>
      <trkpt lat="42.52655" lon="2.05214">
        <ele>1972.7974743655</ele>
        <time>2001-05-23T12:17:45.16</time>
      </trkpt>
      <trkpt lat="42.52656" lon="2.05214">
        <ele>1972.8574138477</ele>
        <time>2001-05-23T12:17:46.18</time>
      </trkpt>
      <trkpt lat="42.52657" lon="2.05215">
        <ele>1972.909457761</ele>
        <time>2001-05-23T12:17:47.18</time>
      </trkpt>
      <trkpt lat="42.52658" lon="2.05214">
        <ele>1973.1642876804</ele>
        <time>2001-05-23T12:17:48.18</time>
      </trkpt>
      <trkpt lat="42.52659" lon="2.05214">
        <ele>1973.5359654579</ele>
        <time>2001-05-23T12:17:49.18</time>
      </trkpt>
      <trkpt lat="42.5266" lon="2.05215">
        <ele>1974.0860566674</ele>
        <time>2001-05-23T12:17:50.18</time>
      </trkpt>
      <trkpt lat="42.5266" lon="2.05215">
        <ele>1974.8052280704</ele>
        <time>2001-05-23T12:17:51.18</time>
      </trkpt>
      <trkpt lat="42.52661" lon="2.05215">
        <ele>1975.4917987423</ele>
        <time>2001-05-23T12:17:52.21</time>
      </trkpt>
      <trkpt lat="42.52661" lon="2.05215">
        <ele>1976.3263367331</ele>
        <time>2001-05-23T12:17:53.21</time>
      </trkpt>
      <trkpt lat="42.52662" lon="2.05216">
        <ele>1977.1759243434</ele>
        <time>2001-05-23T12:17:54.20</time>
      </trkpt>
      <trkpt lat="42.52662" lon="2.05216">
        <ele>1977.7647114424</ele>
        <time>2001-05-23T12:17:55.20</time>
      </trkpt>
      <trkpt lat="42.52661" lon="2.05218">
        <ele>1978.5718876185</ele>
        <time>2001-05-23T12:17:56.18</time>
      </trkpt>
      <trkpt lat="42.52662" lon="2.05217">
        <ele>1979.1954630857</ele>
        <time>2001-05-23T12:17:57.18</time>
      </trkpt>
      <trkpt lat="42.52663" lon="2.0522">
        <ele>1979.5633016758</ele>
        <time>2001-05-23T12:17:58.16</time>
      </trkpt>
      <trkpt lat="42.52663" lon="2.05221">
        <ele>1979.5704406088</ele>
        <time>2001-05-23T12:17:59.16</time>
      </trkpt>
      <trkpt lat="42.52665" lon="2.05223">
        <ele>1979.0753960945</ele>
        <time>2001-05-23T12:18:00.14</time>
      </trkpt>
      <trkpt lat="42.52666" lon="2.05224">
        <ele>1977.7675292559</ele>
        <time>2001-05-23T12:18:01.14</time>
      </trkpt>
      <trkpt lat="42.52666" lon="2.05225">
        <ele>1976.7681594759</ele>
        <time>2001-05-23T12:18:02.15</time>
      </trkpt>
      <trkpt lat="42.52666" lon="2.05227">
        <ele>1975.6107647831</ele>
        <time>2001-05-23T12:18:03.15</time>
      </trkpt>
      <trkpt lat="42.52666" lon="2.05228">
        <ele>1974.4328376951</ele>
        <time>2001-05-23T12:18:04.15</time>
      </trkpt>
      <trkpt lat="42.52667" lon="2.05228">
        <ele>1973.7226051481</ele>
        <time>2001-05-23T12:18:05.15</time>
      </trkpt>
      <trkpt lat="42.52668" lon="2.0523">
        <ele>1973.630358791</ele>
        <time>2001-05-23T12:18:06.18</time>
      </trkpt>
      <trkpt lat="42.52668" lon="2.05232">
        <ele>1973.1910569709</ele>
        <time>2001-05-23T12:18:07.18</time>
      </trkpt>
      <trkpt lat="42.52669" lon="2.05233">
        <ele>1972.7675574347</ele>
        <time>2001-05-23T12:18:08.18</time>
      </trkpt>
      <trkpt lat="42.52669" lon="2.05235">
        <ele>1972.513279661</ele>
        <time>2001-05-23T12:18:09.18</time>
      </trkpt>
      <trkpt lat="42.52669" lon="2.05235">
        <ele>1972.2934907936</ele>
        <time>2001-05-23T12:18:10.18</time>
      </trkpt>
      <trkpt lat="42.5267" lon="2.05236">
        <ele>1971.9075692985</ele>
        <time>2001-05-23T12:18:11.20</time>
      </trkpt>
      <trkpt lat="42.5267" lon="2.05237">
        <ele>1971.8889231652</ele>
        <time>2001-05-23T12:18:12.20</time>
      </trkpt>
      <trkpt lat="42.5267" lon="2.05239">
        <ele>1972.0154035926</ele>
        <time>2001-05-23T12:18:13.20</time>
      </trkpt>
      <trkpt lat="42.5267" lon="2.05239">
        <ele>1972.0178887736</ele>
        <time>2001-05-23T12:18:14.20</time>
      </trkpt>
      <trkpt lat="42.5267" lon="2.0524">
        <ele>1972.132078696</ele>
        <time>2001-05-23T12:18:15.20</time>
      </trkpt>
      <trkpt lat="42.52671" lon="2.05244">
        <ele>1972.0588569166</ele>
        <time>2001-05-23T12:18:16.37</time>
      </trkpt>
      <trkpt lat="42.52671" lon="2.05246">
        <ele>1971.6104892874</ele>
        <time>2001-05-23T12:18:17.37</time>
      </trkpt>
      <trkpt lat="42.52671" lon="2.05247">
        <ele>1971.1803068403</ele>
        <time>2001-05-23T12:18:18.37</time>
      </trkpt>
      <trkpt lat="42.5267" lon="2.05248">
        <ele>1971.1056976575</ele>
        <time>2001-05-23T12:18:19.37</time>
      </trkpt>
      <trkpt lat="42.5267" lon="2.05248">
        <ele>1971.2446140483</ele>
        <time>2001-05-23T12:18:20.37</time>
      </trkpt>
      <trkpt lat="42.5267" lon="2.05249">
        <ele>1971.9536495183</ele>
        <time>2001-05-23T12:18:21.37</time>
      </trkpt>
      <trkpt lat="42.52671" lon="2.0525">
        <ele>1972.8833188944</ele>
        <time>2001-05-23T12:18:22.37</time>
      </trkpt>
      <trkpt lat="42.52671" lon="2.0525">
        <ele>1973.6968827089</ele>
        <time>2001-05-23T12:18:23.37</time>
      </trkpt>
      <trkpt lat="42.5267" lon="2.05252">
        <ele>1974.6868740443</ele>
        <time>2001-05-23T12:18:24.35</time>
      </trkpt>
      <trkpt lat="42.52671" lon="2.05253">
        <ele>1975.4074035969</ele>
        <time>2001-05-23T12:18:25.35</time>
      </trkpt>
      <trkpt lat="42.52671" lon="2.05254">
        <ele>1975.8739940593</ele>
        <time>2001-05-23T12:18:26.35</time>
      </trkpt>
      <trkpt lat="42.52671" lon="2.05255">
        <ele>1976.5904506873</ele>
        <time>2001-05-23T12:18:27.37</time>
      </trkpt>
      <trkpt lat="42.52672" lon="2.05255">
        <ele>1977.3005119534</ele>
        <time>2001-05-23T12:18:28.37</time>
      </trkpt>
      <trkpt lat="42.52673" lon="2.05255">
        <ele>1977.5504252538</ele>
        <time>2001-05-23T12:18:29.37</time>
      </trkpt>
      <trkpt lat="42.52673" lon="2.05255">
        <ele>1977.3887254454</ele>
        <time>2001-05-23T12:18:30.37</time>
      </trkpt>
      <trkpt lat="42.52674" lon="2.05256">
        <ele>1977.3095793115</ele>
        <time>2001-05-23T12:18:31.37</time>
      </trkpt>
      <trkpt lat="42.52673" lon="2.05257">
        <ele>1977.2825785002</ele>
        <time>2001-05-23T12:18:32.37</time>
      </trkpt>
      <trkpt lat="42.52673" lon="2.05258">
        <ele>1977.2846688012</ele>
        <time>2001-05-23T12:18:33.37</time>
      </trkpt>
      <trkpt lat="42.52673" lon="2.0526">
        <ele>1977.6768575108</ele>
        <time>2001-05-23T12:18:34.37</time>
      </trkpt>
      <trkpt lat="42.52673" lon="2.05261">
        <ele>1978.6319977906</ele>
        <time>2001-05-23T12:18:35.37</time>
      </trkpt>
      <trkpt lat="42.52673" lon="2.05262">
        <ele>1979.1789427621</ele>
        <time>2001-05-23T12:18:36.37</time>
      </trkpt>
      <trkpt lat="42.52674" lon="2.05264">
        <ele>1979.892628981</ele>
        <time>2001-05-23T12:18:37.37</time>
      </trkpt>
      <trkpt lat="42.52673" lon="2.05266">
        <ele>1980.7549519997</ele>
        <time>2001-05-23T12:18:38.37</time>
      </trkpt>
      <trkpt lat="42.52673" lon="2.05266">
        <ele>1981.2037724782</ele>
        <time>2001-05-23T12:18:39.37</time>
      </trkpt>
      <trkpt lat="42.52673" lon="2.05266">
        <ele>1981.4454859631</ele>
        <time>2001-05-23T12:18:40.37</time>
      </trkpt>
      <trkpt lat="42.52672" lon="2.05267">
        <ele>1981.7330538852</ele>
        <time>2001-05-23T12:18:41.36</time>
      </trkpt>
      <trkpt lat="42.52672" lon="2.05267">
        <ele>1981.6107878411</ele>
        <time>2001-05-23T12:18:42.36</time>
      </trkpt>
      <trkpt lat="42.52672" lon="2.0527">
        <ele>1981.5765646148</ele>
        <time>2001-05-23T12:18:43.37</time>
      </trkpt>
      <trkpt lat="42.52673" lon="2.0527">
        <ele>1981.3491569184</ele>
        <time>2001-05-23T12:18:44.37</time>
      </trkpt>
      <trkpt lat="42.52674" lon="2.0527">
        <ele>1981.1541102663</ele>
        <time>2001-05-23T12:18:45.37</time>
      </trkpt>
      <trkpt lat="42.52674" lon="2.0527">
        <ele>1981.2526622085</ele>
        <time>2001-05-23T12:18:46.37</time>
      </trkpt>
      <trkpt lat="42.52674" lon="2.05271">
        <ele>1982.0345209824</ele>
        <time>2001-05-23T12:18:47.36</time>
      </trkpt>
      <trkpt lat="42.52674" lon="2.05271">
        <ele>1982.5570043882</ele>
        <time>2001-05-23T12:18:48.36</time>
      </trkpt>
      <trkpt lat="42.52674" lon="2.05272">
        <ele>1983.3808240023</ele>
        <time>2001-05-23T12:18:49.31</time>
      </trkpt>
      <trkpt lat="42.52675" lon="2.05273">
        <ele>1983.9965259241</ele>
        <time>2001-05-23T12:18:50.31</time>
      </trkpt>
      <trkpt lat="42.52675" lon="2.05274">
        <ele>1985.0283083182</ele>
        <time>2001-05-23T12:18:51.31</time>
      </trkpt>
      <trkpt lat="42.52675" lon="2.05273">
        <ele>1985.1541744394</ele>
        <time>2001-05-23T12:18:52.29</time>
      </trkpt>
      <trkpt lat="42.52675" lon="2.05273">
        <ele>1985.2800405607</ele>
        <time>2001-05-23T12:18:53.29</time>
      </trkpt>
      <trkpt lat="42.52675" lon="2.05272">
        <ele>1984.9696636938</ele>
        <time>2001-05-23T12:18:54.30</time>
      </trkpt>
      <trkpt lat="42.52674" lon="2.05271">
        <ele>1984.6701766431</ele>
        <time>2001-05-23T12:18:55.30</time>
      </trkpt>
      <trkpt lat="42.52674" lon="2.0527">
        <ele>1983.9347977987</ele>
        <time>2001-05-23T12:18:56.30</time>
      </trkpt>
      <trkpt lat="42.52673" lon="2.0527">
        <ele>1983.1802376207</ele>
        <time>2001-05-23T12:18:57.26</time>
      </trkpt>
      <trkpt lat="42.52673" lon="2.0527">
        <ele>1982.4256774427</ele>
        <time>2001-05-23T12:18:58.26</time>
      </trkpt>
      <trkpt lat="42.52673" lon="2.05269">
        <ele>1982.2075027909</ele>
        <time>2001-05-23T12:18:59.26</time>
      </trkpt>
      <trkpt lat="42.52673" lon="2.05269">
        <ele>1982.1541949706</ele>
        <time>2001-05-23T12:19:00.26</time>
      </trkpt>
      <trkpt lat="42.52674" lon="2.05267">
        <ele>1982.2064200707</ele>
        <time>2001-05-23T12:19:01.23</time>
      </trkpt>
      <trkpt lat="42.52674" lon="2.05266">
        <ele>1982.9277660023</ele>
        <time>2001-05-23T12:19:02.23</time>
      </trkpt>
      <trkpt lat="42.52674" lon="2.05265">
        <ele>1983.5559810672</ele>
        <time>2001-05-23T12:19:03.23</time>
      </trkpt>
      <trkpt lat="42.52676" lon="2.05263">
        <ele>1983.6784656374</ele>
        <time>2001-05-23T12:19:04.23</time>
      </trkpt>
      <trkpt lat="42.52676" lon="2.05262">
        <ele>1983.8923352007</ele>
        <time>2001-05-23T12:19:05.23</time>
      </trkpt>
      <trkpt lat="42.52675" lon="2.05261">
        <ele>1984.2697174296</ele>
        <time>2001-05-23T12:19:06.23</time>
      </trkpt>
      <trkpt lat="42.52675" lon="2.05261">
        <ele>1984.2197696015</ele>
        <time>2001-05-23T12:19:07.23</time>
      </trkpt>
      <trkpt lat="42.52675" lon="2.0526">
        <ele>1984.2141334016</ele>
        <time>2001-05-23T12:19:08.24</time>
      </trkpt>
      <trkpt lat="42.52675" lon="2.05259">
        <ele>1984.6816906435</ele>
        <time>2001-05-23T12:19:09.24</time>
      </trkpt>
      <trkpt lat="42.52676" lon="2.0526">
        <ele>1985.0974024968</ele>
        <time>2001-05-23T12:19:10.25</time>
      </trkpt>
      <trkpt lat="42.52677" lon="2.05261">
        <ele>1985.2561427785</ele>
        <time>2001-05-23T12:19:11.25</time>
      </trkpt>
      <trkpt lat="42.52677" lon="2.05261">
        <ele>1985.3686717099</ele>
        <time>2001-05-23T12:19:12.25</time>
      </trkpt>
      <trkpt lat="42.52677" lon="2.05262">
        <ele>1985.5281369261</ele>
        <time>2001-05-23T12:19:13.25</time>
      </trkpt>
      <trkpt lat="42.52678" lon="2.05263">
        <ele>1985.5304216398</ele>
        <time>2001-05-23T12:19:14.25</time>
      </trkpt>
      <trkpt lat="42.52679" lon="2.05262">
        <ele>1985.6002256151</ele>
        <time>2001-05-23T12:19:15.25</time>
      </trkpt>
      <trkpt lat="42.5268" lon="2.05262">
        <ele>1985.5711333159</ele>
        <time>2001-05-23T12:19:16.25</time>
      </trkpt>
      <trkpt lat="42.5268" lon="2.05262">
        <ele>1985.5623902604</ele>
        <time>2001-05-23T12:19:17.25</time>
      </trkpt>
      <trkpt lat="42.52681" lon="2.05262">
        <ele>1985.7668638429</ele>
        <time>2001-05-23T12:19:18.26</time>
      </trkpt>
      <trkpt lat="42.52681" lon="2.05262">
        <ele>1985.9136921536</ele>
        <time>2001-05-23T12:19:19.26</time>
      </trkpt>
      <trkpt lat="42.52683" lon="2.05262">
        <ele>1985.5896668648</ele>
        <time>2001-05-23T12:19:20.26</time>
      </trkpt>
      <trkpt lat="42.52684" lon="2.05262">
        <ele>1985.2788224071</ele>
        <time>2001-05-23T12:19:21.26</time>
      </trkpt>
      <trkpt lat="42.52685" lon="2.05261">
        <ele>1984.985567764</ele>
        <time>2001-05-23T12:19:22.26</time>
      </trkpt>
      <trkpt lat="42.52686" lon="2.05261">
        <ele>1984.8276818195</ele>
        <time>2001-05-23T12:19:23.26</time>
      </trkpt>
      <trkpt lat="42.52687" lon="2.05261">
        <ele>1984.8325754583</ele>
        <time>2001-05-23T12:19:24.26</time>
      </trkpt>
      <trkpt lat="42.52687" lon="2.0526">
        <ele>1985.0476453332</ele>
        <time>2001-05-23T12:19:25.26</time>
      </trkpt>
      <trkpt lat="42.52688" lon="2.05259">
        <ele>1985.2887949897</ele>
        <time>2001-05-23T12:19:26.26</time>
      </trkpt>
      <trkpt lat="42.52688" lon="2.05259">
        <ele>1985.5382169383</ele>
        <time>2001-05-23T12:19:27.26</time>
      </trkpt>
      <trkpt lat="42.52688" lon="2.05258">
        <ele>1985.3048849083</ele>
        <time>2001-05-23T12:19:28.26</time>
      </trkpt>
      <trkpt lat="42.52688" lon="2.05258">
        <ele>1984.9478418464</ele>
        <time>2001-05-23T12:19:29.26</time>
      </trkpt>
      <trkpt lat="42.5269" lon="2.05258">
        <ele>1985.2832695249</ele>
        <time>2001-05-23T12:19:30.26</time>
      </trkpt>
      <trkpt lat="42.5269" lon="2.05258">
        <ele>1985.7059365101</ele>
        <time>2001-05-23T12:19:31.26</time>
      </trkpt>
      <trkpt lat="42.52691" lon="2.05256">
        <ele>1986.2066930315</ele>
        <time>2001-05-23T12:19:32.25</time>
      </trkpt>
      <trkpt lat="42.52692" lon="2.05255">
        <ele>1986.8623984972</ele>
        <time>2001-05-23T12:19:33.25</time>
      </trkpt>
      <trkpt lat="42.52693" lon="2.05255">
        <ele>1987.4997895243</ele>
        <time>2001-05-23T12:19:34.25</time>
      </trkpt>
      <trkpt lat="42.52694" lon="2.05253">
        <ele>1987.3648745349</ele>
        <time>2001-05-23T12:19:35.25</time>
      </trkpt>
      <trkpt lat="42.52695" lon="2.05253">
        <ele>1987.1962730778</ele>
        <time>2001-05-23T12:19:36.25</time>
      </trkpt>
      <trkpt lat="42.52695" lon="2.05252">
        <ele>1986.8051819405</ele>
        <time>2001-05-23T12:19:37.25</time>
      </trkpt>
      <trkpt lat="42.52696" lon="2.05252">
        <ele>1986.2779511191</ele>
        <time>2001-05-23T12:19:38.25</time>
      </trkpt>
      <trkpt lat="42.52697" lon="2.05252">
        <ele>1985.7592949234</ele>
        <time>2001-05-23T12:19:39.25</time>
      </trkpt>
      <trkpt lat="42.52698" lon="2.05251">
        <ele>1985.2614372469</ele>
        <time>2001-05-23T12:19:40.25</time>
      </trkpt>
      <trkpt lat="42.52699" lon="2.05251">
        <ele>1984.4810804473</ele>
        <time>2001-05-23T12:19:41.25</time>
      </trkpt>
      <trkpt lat="42.52699" lon="2.0525">
        <ele>1984.2204049161</ele>
        <time>2001-05-23T12:19:42.25</time>
      </trkpt>
      <trkpt lat="42.52699" lon="2.0525">
        <ele>1984.2087468319</ele>
        <time>2001-05-23T12:19:43.25</time>
      </trkpt>
      <trkpt lat="42.52699" lon="2.05249">
        <ele>1984.0897176115</ele>
        <time>2001-05-23T12:19:44.25</time>
      </trkpt>
      <trkpt lat="42.527" lon="2.05247">
        <ele>1984.3290226886</ele>
        <time>2001-05-23T12:19:45.28</time>
      </trkpt>
      <trkpt lat="42.52701" lon="2.05247">
        <ele>1984.8830750264</ele>
        <time>2001-05-23T12:19:46.28</time>
      </trkpt>
      <trkpt lat="42.52702" lon="2.05246">
        <ele>1985.1682706898</ele>
        <time>2001-05-23T12:19:47.28</time>
      </trkpt>
      <trkpt lat="42.52702" lon="2.05245">
        <ele>1985.3857573442</ele>
        <time>2001-05-23T12:19:48.28</time>
      </trkpt>
      <trkpt lat="42.52703" lon="2.05244">
        <ele>1985.8107725518</ele>
        <time>2001-05-23T12:19:49.28</time>
      </trkpt>
      <trkpt lat="42.52702" lon="2.05244">
        <ele>1985.5047481399</ele>
        <time>2001-05-23T12:19:50.24</time>
      </trkpt>
      <trkpt lat="42.52701" lon="2.05244">
        <ele>1985.1573260115</ele>
        <time>2001-05-23T12:19:51.24</time>
      </trkpt>
      <trkpt lat="42.527" lon="2.05245">
        <ele>1984.8745764753</ele>
        <time>2001-05-23T12:19:52.24</time>
      </trkpt>
      <trkpt lat="42.52701" lon="2.05244">
        <ele>1984.896805013</ele>
        <time>2001-05-23T12:19:53.23</time>
      </trkpt>
      <trkpt lat="42.52702" lon="2.05243">
        <ele>1985.0119162019</ele>
        <time>2001-05-23T12:19:54.23</time>
      </trkpt>
      <trkpt lat="42.52702" lon="2.05242">
        <ele>1985.6162041888</ele>
        <time>2001-05-23T12:19:55.23</time>
      </trkpt>
      <trkpt lat="42.52703" lon="2.05242">
        <ele>1986.2867592584</ele>
        <time>2001-05-23T12:19:56.23</time>
      </trkpt>
      <trkpt lat="42.52704" lon="2.05241">
        <ele>1986.8292360442</ele>
        <time>2001-05-23T12:19:57.23</time>
      </trkpt>
      <trkpt lat="42.52704" lon="2.05241">
        <ele>1986.9019611623</ele>
        <time>2001-05-23T12:19:58.23</time>
      </trkpt>
      <trkpt lat="42.52705" lon="2.0524">
        <ele>1986.7570783528</ele>
        <time>2001-05-23T12:19:59.23</time>
      </trkpt>
      <trkpt lat="42.52706" lon="2.05239">
        <ele>1986.7071093708</ele>
        <time>2001-05-23T12:20:00.23</time>
      </trkpt>
      <trkpt lat="42.52706" lon="2.05238">
        <ele>1986.5444390679</ele>
        <time>2001-05-23T12:20:01.23</time>
      </trkpt>
      <trkpt lat="42.52707" lon="2.05237">
        <ele>1986.142986976</ele>
        <time>2001-05-23T12:20:02.23</time>
      </trkpt>
      <trkpt lat="42.52708" lon="2.05236">
        <ele>1985.7486841055</ele>
        <time>2001-05-23T12:20:03.23</time>
      </trkpt>
      <trkpt lat="42.52708" lon="2.05236">
        <ele>1985.2798027124</ele>
        <time>2001-05-23T12:20:04.23</time>
      </trkpt>
      <trkpt lat="42.52709" lon="2.05235">
        <ele>1984.8330621477</ele>
        <time>2001-05-23T12:20:05.23</time>
      </trkpt>
      <trkpt lat="42.52709" lon="2.05234">
        <ele>1984.3175078284</ele>
        <time>2001-05-23T12:20:06.23</time>
      </trkpt>
      <trkpt lat="42.5271" lon="2.05231">
        <ele>1983.549797981</ele>
        <time>2001-05-23T12:20:06.992</time>
      </trkpt>
      <trkpt lat="42.52711" lon="2.05231">
        <ele>1983.0357295671</ele>
        <time>2001-05-23T12:20:07.992</time>
      </trkpt>
      <trkpt lat="42.52712" lon="2.05231">
        <ele>1982.5894370254</ele>
        <time>2001-05-23T12:20:08.992</time>
      </trkpt>
      <trkpt lat="42.52712" lon="2.05229">
        <ele>1982.2701936075</ele>
        <time>2001-05-23T12:20:09.992</time>
      </trkpt>
      <trkpt lat="42.52713" lon="2.05229">
        <ele>1982.230398006</ele>
        <time>2001-05-23T12:20:10.992</time>
      </trkpt>
      <trkpt lat="42.52713" lon="2.05228">
        <ele>1982.6852032682</ele>
        <time>2001-05-23T12:20:11.992</time>
      </trkpt>
      <trkpt lat="42.52714" lon="2.05228">
        <ele>1983.4123081082</ele>
        <time>2001-05-23T12:20:12.992</time>
      </trkpt>
      <trkpt lat="42.52714" lon="2.05227">
        <ele>1984.2627741212</ele>
        <time>2001-05-23T12:20:13.992</time>
      </trkpt>
      <trkpt lat="42.52715" lon="2.05226">
        <ele>1984.7733837578</ele>
        <time>2001-05-23T12:20:14.992</time>
      </trkpt>
      <trkpt lat="42.52716" lon="2.05226">
        <ele>1984.9974411657</ele>
        <time>2001-05-23T12:20:15.992</time>
      </trkpt>
      <trkpt lat="42.52717" lon="2.05225">
        <ele>1985.5304129213</ele>
        <time>2001-05-23T12:20:16.992</time>
      </trkpt>
      <trkpt lat="42.52718" lon="2.05224">
        <ele>1985.6150885232</ele>
        <time>2001-05-23T12:20:17.992</time>
      </trkpt>
      <trkpt lat="42.52719" lon="2.05223">
        <ele>1985.5800746664</ele>
        <time>2001-05-23T12:20:18.992</time>
      </trkpt>
      <trkpt lat="42.52719" lon="2.05222">
        <ele>1985.6501163201</ele>
        <time>2001-05-23T12:20:19.992</time>
      </trkpt>
      <trkpt lat="42.5272" lon="2.05222">
        <ele>1985.6968621546</ele>
        <time>2001-05-23T12:20:20.992</time>
      </trkpt>
      <trkpt lat="42.5272" lon="2.0522">
        <ele>1985.0045476915</ele>
        <time>2001-05-23T12:20:21.992</time>
      </trkpt>
      <trkpt lat="42.5272" lon="2.05219">
        <ele>1984.2428305339</ele>
        <time>2001-05-23T12:20:22.992</time>
      </trkpt>
      <trkpt lat="42.52721" lon="2.05218">
        <ele>1983.662557405</ele>
        <time>2001-05-23T12:20:23.992</time>
      </trkpt>
      <trkpt lat="42.52722" lon="2.05216">
        <ele>1983.2718978923</ele>
        <time>2001-05-23T12:20:24.992</time>
      </trkpt>
      <trkpt lat="42.52723" lon="2.05215">
        <ele>1982.8086709086</ele>
        <time>2001-05-23T12:20:25.992</time>
      </trkpt>
      <trkpt lat="42.52724" lon="2.05215">
        <ele>1982.6563392559</ele>
        <time>2001-05-23T12:20:26.992</time>
      </trkpt>
      <trkpt lat="42.52725" lon="2.05214">
        <ele>1982.4136558894</ele>
        <time>2001-05-23T12:20:27.992</time>
      </trkpt>
      <trkpt lat="42.52725" lon="2.05213">
        <ele>1981.850452943</ele>
        <time>2001-05-23T12:20:28.992</time>
      </trkpt>
      <trkpt lat="42.52725" lon="2.05212">
        <ele>1981.1581425434</ele>
        <time>2001-05-23T12:20:29.992</time>
      </trkpt>
      <trkpt lat="42.52727" lon="2.0521">
        <ele>1980.790070362</ele>
        <time>2001-05-23T12:20:30.997</time>
      </trkpt>
      <trkpt lat="42.52728" lon="2.05209">
        <ele>1980.6805811871</ele>
        <time>2001-05-23T12:20:31.997</time>
      </trkpt>
      <trkpt lat="42.52729" lon="2.05208">
        <ele>1980.6162417738</ele>
        <time>2001-05-23T12:20:32.997</time>
      </trkpt>
      <trkpt lat="42.52729" lon="2.05208">
        <ele>1980.7792554351</ele>
        <time>2001-05-23T12:20:33.997</time>
      </trkpt>
      <trkpt lat="42.5273" lon="2.05207">
        <ele>1980.8148594366</ele>
        <time>2001-05-23T12:20:34.997</time>
      </trkpt>
      <trkpt lat="42.5273" lon="2.05207">
        <ele>1980.8636662368</ele>
        <time>2001-05-23T12:20:35.997</time>
      </trkpt>
      <trkpt lat="42.52732" lon="2.05206">
        <ele>1980.636658548</ele>
        <time>2001-05-23T12:20:36.997</time>
      </trkpt>
      <trkpt lat="42.52732" lon="2.05205">
        <ele>1980.4818935536</ele>
        <time>2001-05-23T12:20:37.997</time>
      </trkpt>
      <trkpt lat="42.52733" lon="2.05204">
        <ele>1980.4682275411</ele>
        <time>2001-05-23T12:20:38.997</time>
      </trkpt>
      <trkpt lat="42.52734" lon="2.05204">
        <ele>1980.6522882748</ele>
        <time>2001-05-23T12:20:39.997</time>
      </trkpt>
      <trkpt lat="42.52734" lon="2.05203">
        <ele>1980.8009225124</ele>
        <time>2001-05-23T12:20:40.997</time>
      </trkpt>
      <trkpt lat="42.52735" lon="2.05202">
        <ele>1980.9584939769</ele>
        <time>2001-05-23T12:20:41.997</time>
      </trkpt>
      <trkpt lat="42.52735" lon="2.05201">
        <ele>1981.0098082833</ele>
        <time>2001-05-23T12:20:42.997</time>
      </trkpt>
      <trkpt lat="42.52736" lon="2.05201">
        <ele>1980.7075405797</ele>
        <time>2001-05-23T12:20:43.997</time>
      </trkpt>
      <trkpt lat="42.52736" lon="2.05201">
        <ele>1980.3563835025</ele>
        <time>2001-05-23T12:20:44.997</time>
      </trkpt>
      <trkpt lat="42.52737" lon="2.052">
        <ele>1979.9964812087</ele>
        <time>2001-05-23T12:20:45.997</time>
      </trkpt>
      <trkpt lat="42.52738" lon="2.05199">
        <ele>1979.6940277839</ele>
        <time>2001-05-23T12:20:46.997</time>
      </trkpt>
      <trkpt lat="42.52739" lon="2.05198">
        <ele>1979.6515780026</ele>
        <time>2001-05-23T12:20:47.997</time>
      </trkpt>
      <trkpt lat="42.52738" lon="2.05196">
        <ele>1980.1404457016</ele>
        <time>2001-05-23T12:20:48.997</time>
      </trkpt>
      <trkpt lat="42.52739" lon="2.05195">
        <ele>1980.5622079376</ele>
        <time>2001-05-23T12:20:49.997</time>
      </trkpt>
      <trkpt lat="42.52739" lon="2.05194">
        <ele>1980.929062891</ele>
        <time>2001-05-23T12:20:50.997</time>
      </trkpt>
      <trkpt lat="42.5274" lon="2.05194">
        <ele>1981.1909455243</ele>
        <time>2001-05-23T12:20:51.997</time>
      </trkpt>
      <trkpt lat="42.5274" lon="2.05194">
        <ele>1981.3533230234</ele>
        <time>2001-05-23T12:20:52.997</time>
      </trkpt>
      <trkpt lat="42.52742" lon="2.05193">
        <ele>1981.7008810502</ele>
        <time>2001-05-23T12:20:53.997</time>
      </trkpt>
      <trkpt lat="42.52743" lon="2.05192">
        <ele>1982.4429322248</ele>
        <time>2001-05-23T12:20:54.997</time>
      </trkpt>
      <trkpt lat="42.52744" lon="2.05191">
        <ele>1983.2623077448</ele>
        <time>2001-05-23T12:20:55.997</time>
      </trkpt>
      <trkpt lat="42.52744" lon="2.05189">
        <ele>1983.9364894161</ele>
        <time>2001-05-23T12:20:56.997</time>
      </trkpt>
      <trkpt lat="42.52745" lon="2.05188">
        <ele>1984.3628001951</ele>
        <time>2001-05-23T12:20:57.997</time>
      </trkpt>
      <trkpt lat="42.52745" lon="2.05188">
        <ele>1983.9008356337</ele>
        <time>2001-05-23T12:20:58.997</time>
      </trkpt>
      <trkpt lat="42.52745" lon="2.05187">
        <ele>1983.0273181243</ele>
        <time>2001-05-23T12:20:59.997</time>
      </trkpt>
      <trkpt lat="42.52747" lon="2.05186">
        <ele>1982.1992515765</ele>
        <time>2001-05-23T12:21:00.997</time>
      </trkpt>
      <trkpt lat="42.52747" lon="2.05186">
        <ele>1981.7100941049</ele>
        <time>2001-05-23T12:21:01.997</time>
      </trkpt>
      <trkpt lat="42.52748" lon="2.05185">
        <ele>1981.4363004409</ele>
        <time>2001-05-23T12:21:02.997</time>
      </trkpt>
      <trkpt lat="42.52749" lon="2.05184">
        <ele>1981.4280319456</ele>
        <time>2001-05-23T12:21:03.997</time>
      </trkpt>
      <trkpt lat="42.52749" lon="2.05183">
        <ele>1981.5208946813</ele>
        <time>2001-05-23T12:21:04.997</time>
      </trkpt>
      <trkpt lat="42.52751" lon="2.0518">
        <ele>1981.3254227635</ele>
        <time>2001-05-23T12:21:05.999</time>
      </trkpt>
      <trkpt lat="42.52752" lon="2.05179">
        <ele>1981.2133910533</ele>
        <time>2001-05-23T12:21:06.999</time>
      </trkpt>
      <trkpt lat="42.52753" lon="2.05178">
        <ele>1981.183909454</ele>
        <time>2001-05-23T12:21:07.999</time>
      </trkpt>
      <trkpt lat="42.52754" lon="2.05177">
        <ele>1980.9382160673</ele>
        <time>2001-05-23T12:21:08.999</time>
      </trkpt>
      <trkpt lat="42.52754" lon="2.05177">
        <ele>1980.668181497</ele>
        <time>2001-05-23T12:21:09.999</time>
      </trkpt>
      <trkpt lat="42.52754" lon="2.05177">
        <ele>1980.5712676795</ele>
        <time>2001-05-23T12:21:10.999</time>
      </trkpt>
      <trkpt lat="42.52756" lon="2.05176">
        <ele>1980.1112982795</ele>
        <time>2001-05-23T12:21:11.996</time>
      </trkpt>
      <trkpt lat="42.52757" lon="2.05175">
        <ele>1979.6843286622</ele>
        <time>2001-05-23T12:21:12.996</time>
      </trkpt>
      <trkpt lat="42.52758" lon="2.05172">
        <ele>1979.9333450858</ele>
        <time>2001-05-23T12:21:13.996</time>
      </trkpt>
      <trkpt lat="42.52758" lon="2.05172">
        <ele>1980.0067520559</ele>
        <time>2001-05-23T12:21:14.996</time>
      </trkpt>
      <trkpt lat="42.52758" lon="2.05171">
        <ele>1980.2670121295</ele>
        <time>2001-05-23T12:21:15.996</time>
      </trkpt>
      <trkpt lat="42.52758" lon="2.05171">
        <ele>1980.7415583715</ele>
        <time>2001-05-23T12:21:16.996</time>
      </trkpt>
      <trkpt lat="42.52757" lon="2.05173">
        <ele>1980.9713751402</ele>
        <time>2001-05-23T12:21:17.997</time>
      </trkpt>
      <trkpt lat="42.52757" lon="2.05174">
        <ele>1980.7517624322</ele>
        <time>2001-05-23T12:21:18.997</time>
      </trkpt>
      <trkpt lat="42.52755" lon="2.05173">
        <ele>1980.8635014361</ele>
        <time>2001-05-23T12:21:19.998</time>
      </trkpt>
      <trkpt lat="42.52755" lon="2.05173">
        <ele>1980.7836493134</ele>
        <time>2001-05-23T12:21:20.998</time>
      </trkpt>
      <trkpt lat="42.52756" lon="2.05173">
        <ele>1980.6895009549</ele>
        <time>2001-05-23T12:21:21.997</time>
      </trkpt>
      <trkpt lat="42.52756" lon="2.05173">
        <ele>1980.7610732736</ele>
        <time>2001-05-23T12:21:22.997</time>
      </trkpt>
      <trkpt lat="42.52757" lon="2.05172">
        <ele>1980.9649383111</ele>
        <time>2001-05-23T12:21:23.953</time>
      </trkpt>
      <trkpt lat="42.52757" lon="2.05171">
        <ele>1981.1254044842</ele>
        <time>2001-05-23T12:21:24.953</time>
      </trkpt>
      <trkpt lat="42.52758" lon="2.05172">
        <ele>1980.9611268504</ele>
        <time>2001-05-23T12:21:25.992</time>
      </trkpt>
      <trkpt lat="42.52758" lon="2.05172">
        <ele>1980.8111454524</ele>
        <time>2001-05-23T12:21:26.992</time>
      </trkpt>
      <trkpt lat="42.52757" lon="2.05172">
        <ele>1980.6007670153</ele>
        <time>2001-05-23T12:21:27.992</time>
      </trkpt>
      <trkpt lat="42.52757" lon="2.05173">
        <ele>1980.1646463787</ele>
        <time>2001-05-23T12:21:28.992</time>
      </trkpt>
      <trkpt lat="42.52756" lon="2.05174">
        <ele>1979.7590554811</ele>
        <time>2001-05-23T12:21:29.992</time>
      </trkpt>
      <trkpt lat="42.52756" lon="2.05176">
        <ele>1979.8858614625</ele>
        <time>2001-05-23T12:21:30.996</time>
      </trkpt>
      <trkpt lat="42.52756" lon="2.05176">
        <ele>1980.012667444</ele>
        <time>2001-05-23T12:21:31.996</time>
      </trkpt>
      <trkpt lat="42.52755" lon="2.05177">
        <ele>1980.0101656064</ele>
        <time>2001-05-23T12:21:32.996</time>
      </trkpt>
      <trkpt lat="42.52755" lon="2.05177">
        <ele>1980.1586647497</ele>
        <time>2001-05-23T12:21:33.996</time>
      </trkpt>
      <trkpt lat="42.52756" lon="2.05176">
        <ele>1980.1217222122</ele>
        <time>2001-05-23T12:21:34.995</time>
      </trkpt>
      <trkpt lat="42.52756" lon="2.05176">
        <ele>1979.8771266026</ele>
        <time>2001-05-23T12:21:35.995</time>
      </trkpt>
      <trkpt lat="42.52757" lon="2.05175">
        <ele>1979.4202840602</ele>
        <time>2001-05-23T12:21:36.995</time>
      </trkpt>
      <trkpt lat="42.52757" lon="2.05174">
        <ele>1979.2602613587</ele>
        <time>2001-05-23T12:21:37.995</time>
      </trkpt>
      <trkpt lat="42.52758" lon="2.05172">
        <ele>1979.4056041662</ele>
        <time>2001-05-23T12:21:38.995</time>
      </trkpt>
      <trkpt lat="42.52757" lon="2.0517">
        <ele>1979.6875389067</ele>
        <time>2001-05-23T12:21:39.995</time>
      </trkpt>
      <trkpt lat="42.52757" lon="2.0517">
        <ele>1979.9203147886</ele>
        <time>2001-05-23T12:21:40.995</time>
      </trkpt>
      <trkpt lat="42.52757" lon="2.05169">
        <ele>1980.3484844867</ele>
        <time>2001-05-23T12:21:41.995</time>
      </trkpt>
      <trkpt lat="42.52758" lon="2.05169">
        <ele>1980.7230283506</ele>
        <time>2001-05-23T12:21:42.995</time>
      </trkpt>
      <trkpt lat="42.52758" lon="2.05168">
        <ele>1980.7951267175</ele>
        <time>2001-05-23T12:21:43.995</time>
      </trkpt>
      <trkpt lat="42.5276" lon="2.05166">
        <ele>1980.5700088032</ele>
        <time>2001-05-23T12:21:44.994</time>
      </trkpt>
      <trkpt lat="42.52761" lon="2.05166">
        <ele>1980.0781125762</ele>
        <time>2001-05-23T12:21:45.994</time>
      </trkpt>
      <trkpt lat="42.52762" lon="2.05165">
        <ele>1979.6117622385</ele>
        <time>2001-05-23T12:21:46.994</time>
      </trkpt>
      <trkpt lat="42.52763" lon="2.05165">
        <ele>1979.1371453242</ele>
        <time>2001-05-23T12:21:47.994</time>
      </trkpt>
      <trkpt lat="42.52764" lon="2.05164">
        <ele>1978.6491550779</ele>
        <time>2001-05-23T12:21:48.994</time>
      </trkpt>
      <trkpt lat="42.52763" lon="2.05163">
        <ele>1978.5939866284</ele>
        <time>2001-05-23T12:21:49.994</time>
      </trkpt>
      <trkpt lat="42.52764" lon="2.05162">
        <ele>1978.9642552054</ele>
        <time>2001-05-23T12:21:50.994</time>
      </trkpt>
      <trkpt lat="42.52764" lon="2.05161">
        <ele>1979.3901813537</ele>
        <time>2001-05-23T12:21:51.994</time>
      </trkpt>
      <trkpt lat="42.52765" lon="2.05161">
        <ele>1979.7153837811</ele>
        <time>2001-05-23T12:21:52.994</time>
      </trkpt>
      <trkpt lat="42.52767" lon="2.05161">
        <ele>1980.1969621833</ele>
        <time>2001-05-23T12:21:53.995</time>
      </trkpt>
      <trkpt lat="42.52768" lon="2.0516">
        <ele>1980.7507428791</ele>
        <time>2001-05-23T12:21:54.995</time>
      </trkpt>
      <trkpt lat="42.52769" lon="2.05159">
        <ele>1981.1779195303</ele>
        <time>2001-05-23T12:21:55.995</time>
      </trkpt>
      <trkpt lat="42.5277" lon="2.05159">
        <ele>1981.3271992594</ele>
        <time>2001-05-23T12:21:56.995</time>
      </trkpt>
      <trkpt lat="42.5277" lon="2.05159">
        <ele>1981.7451389277</ele>
        <time>2001-05-23T12:21:57.995</time>
      </trkpt>
      <trkpt lat="42.52771" lon="2.05159">
        <ele>1981.834622867</ele>
        <time>2001-05-23T12:21:58.995</time>
      </trkpt>
      <trkpt lat="42.52772" lon="2.05158">
        <ele>1980.8481826114</ele>
        <time>2001-05-23T12:21:59.995</time>
      </trkpt>
      <trkpt lat="42.52772" lon="2.05157">
        <ele>1979.4711119199</ele>
        <time>2001-05-23T12:22:00.995</time>
      </trkpt>
      <trkpt lat="42.52772" lon="2.05155">
        <ele>1978.3413437467</ele>
        <time>2001-05-23T12:22:01.995</time>
      </trkpt>
      <trkpt lat="42.52773" lon="2.05154">
        <ele>1976.8566993469</ele>
        <time>2001-05-23T12:22:02.995</time>
      </trkpt>
      <trkpt lat="42.52774" lon="2.05154">
        <ele>1975.4764654312</ele>
        <time>2001-05-23T12:22:03.995</time>
      </trkpt>
      <trkpt lat="42.52775" lon="2.05154">
        <ele>1974.7332370855</ele>
        <time>2001-05-23T12:22:04.995</time>
      </trkpt>
      <trkpt lat="42.52776" lon="2.05154">
        <ele>1974.4504583327</ele>
        <time>2001-05-23T12:22:05.995</time>
      </trkpt>
      <trkpt lat="42.52775" lon="2.05153">
        <ele>1974.0092738673</ele>
        <time>2001-05-23T12:22:06.995</time>
      </trkpt>
      <trkpt lat="42.52776" lon="2.05152">
        <ele>1973.7732173592</ele>
        <time>2001-05-23T12:22:07.995</time>
      </trkpt>
      <trkpt lat="42.52776" lon="2.05151">
        <ele>1973.5454528723</ele>
        <time>2001-05-23T12:22:08.995</time>
      </trkpt>
      <trkpt lat="42.52776" lon="2.0515">
        <ele>1973.4856843984</ele>
        <time>2001-05-23T12:22:09.995</time>
      </trkpt>
      <trkpt lat="42.52776" lon="2.05148">
        <ele>1973.4392275725</ele>
        <time>2001-05-23T12:22:10.993</time>
      </trkpt>
      <trkpt lat="42.52776" lon="2.05147">
        <ele>1973.7371336613</ele>
        <time>2001-05-23T12:22:11.993</time>
      </trkpt>
      <trkpt lat="42.52777" lon="2.05145">
        <ele>1974.1343416624</ele>
        <time>2001-05-23T12:22:12.993</time>
      </trkpt>
      <trkpt lat="42.52778" lon="2.05145">
        <ele>1974.558479795</ele>
        <time>2001-05-23T12:22:13.993</time>
      </trkpt>
      <trkpt lat="42.52779" lon="2.05144">
        <ele>1975.0040109811</ele>
        <time>2001-05-23T12:22:14.993</time>
      </trkpt>
      <trkpt lat="42.5278" lon="2.05143">
        <ele>1975.4100298226</ele>
        <time>2001-05-23T12:22:15.993</time>
      </trkpt>
      <trkpt lat="42.52781" lon="2.05142">
        <ele>1975.6292437686</ele>
        <time>2001-05-23T12:22:16.993</time>
      </trkpt>
      <trkpt lat="42.52782" lon="2.05141">
        <ele>1975.8283583004</ele>
        <time>2001-05-23T12:22:17.993</time>
      </trkpt>
      <trkpt lat="42.52782" lon="2.0514">
        <ele>1976.0401552334</ele>
        <time>2001-05-23T12:22:18.993</time>
      </trkpt>
      <trkpt lat="42.52783" lon="2.05139">
        <ele>1975.5300181087</ele>
        <time>2001-05-23T12:22:19.993</time>
      </trkpt>
      <trkpt lat="42.52784" lon="2.05139">
        <ele>1974.7956754668</ele>
        <time>2001-05-23T12:22:20.993</time>
      </trkpt>
      <trkpt lat="42.52785" lon="2.05137">
        <ele>1974.10059276</ele>
        <time>2001-05-23T12:22:21.993</time>
      </trkpt>
      <trkpt lat="42.52786" lon="2.05136">
        <ele>1973.5369099807</ele>
        <time>2001-05-23T12:22:22.993</time>
      </trkpt>
      <trkpt lat="42.52787" lon="2.05135">
        <ele>1973.4887538396</ele>
        <time>2001-05-23T12:22:23.993</time>
      </trkpt>
      <trkpt lat="42.52787" lon="2.05134">
        <ele>1974.4966913464</ele>
        <time>2001-05-23T12:22:24.993</time>
      </trkpt>
      <trkpt lat="42.52788" lon="2.05133">
        <ele>1975.7582389615</ele>
        <time>2001-05-23T12:22:25.993</time>
      </trkpt>
      <trkpt lat="42.52789" lon="2.05133">
        <ele>1976.9254609043</ele>
        <time>2001-05-23T12:22:26.993</time>
      </trkpt>
      <trkpt lat="42.52789" lon="2.05133">
        <ele>1977.6341749314</ele>
        <time>2001-05-23T12:22:27.993</time>
      </trkpt>
      <trkpt lat="42.5279" lon="2.05132">
        <ele>1977.9993645906</ele>
        <time>2001-05-23T12:22:28.993</time>
      </trkpt>
      <trkpt lat="42.5279" lon="2.05131">
        <ele>1978.0989617102</ele>
        <time>2001-05-23T12:22:29.993</time>
      </trkpt>
      <trkpt lat="42.52791" lon="2.05131">
        <ele>1978.0478244172</ele>
        <time>2001-05-23T12:22:30.993</time>
      </trkpt>
      <trkpt lat="42.52792" lon="2.05131">
        <ele>1977.9422992665</ele>
        <time>2001-05-23T12:22:31.993</time>
      </trkpt>
      <trkpt lat="42.52793" lon="2.05131">
        <ele>1977.8513147159</ele>
        <time>2001-05-23T12:22:32.993</time>
      </trkpt>
      <trkpt lat="42.52794" lon="2.05131">
        <ele>1977.4665949669</ele>
        <time>2001-05-23T12:22:33.993</time>
      </trkpt>
      <trkpt lat="42.52795" lon="2.0513">
        <ele>1976.9626975207</ele>
        <time>2001-05-23T12:22:34.993</time>
      </trkpt>
      <trkpt lat="42.52796" lon="2.05129">
        <ele>1976.7086553071</ele>
        <time>2001-05-23T12:22:35.993</time>
      </trkpt>
      <trkpt lat="42.52796" lon="2.05129">
        <ele>1976.5311584417</ele>
        <time>2001-05-23T12:22:36.993</time>
      </trkpt>
      <trkpt lat="42.52797" lon="2.05128">
        <ele>1976.5967834013</ele>
        <time>2001-05-23T12:22:37.993</time>
      </trkpt>
      <trkpt lat="42.52797" lon="2.05127">
        <ele>1977.0822158551</ele>
        <time>2001-05-23T12:22:38.993</time>
      </trkpt>
      <trkpt lat="42.52798" lon="2.05125">
        <ele>1977.7511108559</ele>
        <time>2001-05-23T12:22:39.993</time>
      </trkpt>
      <trkpt lat="42.52799" lon="2.05125">
        <ele>1978.41179993</ele>
        <time>2001-05-23T12:22:40.993</time>
      </trkpt>
      <trkpt lat="42.528" lon="2.05125">
        <ele>1979.1403408401</ele>
        <time>2001-05-23T12:22:41.993</time>
      </trkpt>
      <trkpt lat="42.52801" lon="2.05124">
        <ele>1979.8716078112</ele>
        <time>2001-05-23T12:22:42.993</time>
      </trkpt>
      <trkpt lat="42.52801" lon="2.05123">
        <ele>1980.2497749826</ele>
        <time>2001-05-23T12:22:43.993</time>
      </trkpt>
      <trkpt lat="42.52801" lon="2.05122">
        <ele>1980.345060046</ele>
        <time>2001-05-23T12:22:44.993</time>
      </trkpt>
      <trkpt lat="42.52802" lon="2.05121">
        <ele>1980.1470378438</ele>
        <time>2001-05-23T12:22:45.993</time>
      </trkpt>
      <trkpt lat="42.52802" lon="2.05119">
        <ele>1979.6900908468</ele>
        <time>2001-05-23T12:22:46.993</time>
      </trkpt>
      <trkpt lat="42.52802" lon="2.05118">
        <ele>1979.1372737544</ele>
        <time>2001-05-23T12:22:47.993</time>
      </trkpt>
      <trkpt lat="42.52801" lon="2.05117">
        <ele>1978.6876266506</ele>
        <time>2001-05-23T12:22:48.993</time>
      </trkpt>
      <trkpt lat="42.52802" lon="2.05116">
        <ele>1978.4124602765</ele>
        <time>2001-05-23T12:22:49.993</time>
      </trkpt>
      <trkpt lat="42.52803" lon="2.05115">
        <ele>1978.547439591</ele>
        <time>2001-05-23T12:22:50.993</time>
      </trkpt>
      <trkpt lat="42.52803" lon="2.05114">
        <ele>1978.9229980018</ele>
        <time>2001-05-23T12:22:51.993</time>
      </trkpt>
      <trkpt lat="42.52803" lon="2.05113">
        <ele>1979.3204853257</ele>
        <time>2001-05-23T12:22:52.993</time>
      </trkpt>
      <trkpt lat="42.52803" lon="2.05112">
        <ele>1979.8122260572</ele>
        <time>2001-05-23T12:22:53.993</time>
      </trkpt>
      <trkpt lat="42.52804" lon="2.0511">
        <ele>1980.405238945</ele>
        <time>2001-05-23T12:22:54.996</time>
      </trkpt>
      <trkpt lat="42.52804" lon="2.05109">
        <ele>1980.6010288443</ele>
        <time>2001-05-23T12:22:55.996</time>
      </trkpt>
      <trkpt lat="42.52805" lon="2.05108">
        <ele>1980.7141821144</ele>
        <time>2001-05-23T12:22:56.996</time>
      </trkpt>
      <trkpt lat="42.52805" lon="2.05107">
        <ele>1980.6926088437</ele>
        <time>2001-05-23T12:22:57.996</time>
      </trkpt>
      <trkpt lat="42.52806" lon="2.05107">
        <ele>1980.5526113922</ele>
        <time>2001-05-23T12:22:58.996</time>
      </trkpt>
      <trkpt lat="42.52807" lon="2.05106">
        <ele>1980.3359108267</ele>
        <time>2001-05-23T12:22:59.996</time>
      </trkpt>
      <trkpt lat="42.52807" lon="2.05105">
        <ele>1979.8834231803</ele>
        <time>2001-05-23T12:23:00.996</time>
      </trkpt>
      <trkpt lat="42.52808" lon="2.05104">
        <ele>1979.496423712</ele>
        <time>2001-05-23T12:23:01.996</time>
      </trkpt>
      <trkpt lat="42.52809" lon="2.05104">
        <ele>1979.5008748876</ele>
        <time>2001-05-23T12:23:02.996</time>
      </trkpt>
      <trkpt lat="42.52809" lon="2.05103">
        <ele>1979.5933661962</ele>
        <time>2001-05-23T12:23:03.996</time>
      </trkpt>
      <trkpt lat="42.5281" lon="2.05102">
        <ele>1979.8985023266</ele>
        <time>2001-05-23T12:23:04.996</time>
      </trkpt>
      <trkpt lat="42.52811" lon="2.05101">
        <ele>1980.7718406249</ele>
        <time>2001-05-23T12:23:05.996</time>
      </trkpt>
      <trkpt lat="42.52812" lon="2.051">
        <ele>1981.84039676</ele>
        <time>2001-05-23T12:23:06.996</time>
      </trkpt>
      <trkpt lat="42.52813" lon="2.05099">
        <ele>1982.7038467729</ele>
        <time>2001-05-23T12:23:07.996</time>
      </trkpt>
      <trkpt lat="42.52814" lon="2.05097">
        <ele>1983.3924065994</ele>
        <time>2001-05-23T12:23:08.996</time>
      </trkpt>
      <trkpt lat="42.52815" lon="2.05096">
        <ele>1983.6019150954</ele>
        <time>2001-05-23T12:23:09.996</time>
      </trkpt>
      <trkpt lat="42.52815" lon="2.05094">
        <ele>1983.088208106</ele>
        <time>2001-05-23T12:23:10.996</time>
      </trkpt>
      <trkpt lat="42.52816" lon="2.05094">
        <ele>1982.3633985935</ele>
        <time>2001-05-23T12:23:11.996</time>
      </trkpt>
      <trkpt lat="42.52816" lon="2.05093">
        <ele>1981.5098497141</ele>
        <time>2001-05-23T12:23:12.996</time>
      </trkpt>
      <trkpt lat="42.52816" lon="2.05093">
        <ele>1980.7493949426</ele>
        <time>2001-05-23T12:23:13.996</time>
      </trkpt>
      <trkpt lat="42.52816" lon="2.05094">
        <ele>1979.8582169287</ele>
        <time>2001-05-23T12:23:14.996</time>
      </trkpt>
      <trkpt lat="42.52818" lon="2.05094">
        <ele>1979.362378156</ele>
        <time>2001-05-23T12:23:15.996</time>
      </trkpt>
      <trkpt lat="42.52819" lon="2.05095">
        <ele>1978.8041932832</ele>
        <time>2001-05-23T12:23:16.996</time>
      </trkpt>
      <trkpt lat="42.5282" lon="2.05094">
        <ele>1978.2627902225</ele>
        <time>2001-05-23T12:23:17.996</time>
      </trkpt>
      <trkpt lat="42.5282" lon="2.05093">
        <ele>1977.6805357302</ele>
        <time>2001-05-23T12:23:18.996</time>
      </trkpt>
      <trkpt lat="42.5282" lon="2.05091">
        <ele>1977.5642472157</ele>
        <time>2001-05-23T12:23:19.996</time>
      </trkpt>
      <trkpt lat="42.52821" lon="2.0509">
        <ele>1977.31896793</ele>
        <time>2001-05-23T12:23:20.996</time>
      </trkpt>
      <trkpt lat="42.52822" lon="2.05089">
        <ele>1977.1584866563</ele>
        <time>2001-05-23T12:23:21.996</time>
      </trkpt>
      <trkpt lat="42.52822" lon="2.05088">
        <ele>1976.987111159</ele>
        <time>2001-05-23T12:23:22.996</time>
      </trkpt>
      <trkpt lat="42.52823" lon="2.05087">
        <ele>1976.8389061483</ele>
        <time>2001-05-23T12:23:23.996</time>
      </trkpt>
      <trkpt lat="42.52823" lon="2.05087">
        <ele>1976.6472840097</ele>
        <time>2001-05-23T12:23:24.996</time>
      </trkpt>
      <trkpt lat="42.52825" lon="2.05084">
        <ele>1976.5989486599</ele>
        <time>2001-05-23T12:23:25.998</time>
      </trkpt>
      <trkpt lat="42.52826" lon="2.05083">
        <ele>1976.5945237197</ele>
        <time>2001-05-23T12:23:26.998</time>
      </trkpt>
      <trkpt lat="42.52826" lon="2.05082">
        <ele>1976.7194992475</ele>
        <time>2001-05-23T12:23:27.998</time>
      </trkpt>
      <trkpt lat="42.52827" lon="2.0508">
        <ele>1977.3784417398</ele>
        <time>2001-05-23T12:23:28.998</time>
      </trkpt>
      <trkpt lat="42.52828" lon="2.05079">
        <ele>1978.3959121283</ele>
        <time>2001-05-23T12:23:29.998</time>
      </trkpt>
      <trkpt lat="42.52828" lon="2.05078">
        <ele>1979.6389788464</ele>
        <time>2001-05-23T12:23:30.998</time>
      </trkpt>
      <trkpt lat="42.52829" lon="2.05077">
        <ele>1980.9315324299</ele>
        <time>2001-05-23T12:23:31.998</time>
      </trkpt>
      <trkpt lat="42.5283" lon="2.05076">
        <ele>1982.386544947</ele>
        <time>2001-05-23T12:23:32.998</time>
      </trkpt>
      <trkpt lat="42.5283" lon="2.05076">
        <ele>1983.3252714446</ele>
        <time>2001-05-23T12:23:33.998</time>
      </trkpt>
      <trkpt lat="42.5283" lon="2.05074">
        <ele>1983.1670832613</ele>
        <time>2001-05-23T12:23:34.999</time>
      </trkpt>
      <trkpt lat="42.5283" lon="2.05074">
        <ele>1982.8270591751</ele>
        <time>2001-05-23T12:23:35.999</time>
      </trkpt>
      <trkpt lat="42.52831" lon="2.05072">
        <ele>1982.6685721194</ele>
        <time>2001-05-23T12:23:36.999</time>
      </trkpt>
      <trkpt lat="42.52832" lon="2.05072">
        <ele>1982.3493283024</ele>
        <time>2001-05-23T12:23:37.999</time>
      </trkpt>
      <trkpt lat="42.52831" lon="2.0507">
        <ele>1982.854779442</ele>
        <time>2001-05-23T12:23:38.999</time>
      </trkpt>
      <trkpt lat="42.52833" lon="2.05069">
        <ele>1984.3007722164</ele>
        <time>2001-05-23T12:23:39.998</time>
      </trkpt>
      <trkpt lat="42.52834" lon="2.05069">
        <ele>1985.7885205282</ele>
        <time>2001-05-23T12:23:40.998</time>
      </trkpt>
      <trkpt lat="42.52834" lon="2.05068">
        <ele>1986.7721176056</ele>
        <time>2001-05-23T12:23:41.998</time>
      </trkpt>
      <trkpt lat="42.52836" lon="2.05067">
        <ele>1987.4868677201</ele>
        <time>2001-05-23T12:23:42.998</time>
      </trkpt>
      <trkpt lat="42.52837" lon="2.05067">
        <ele>1987.5304872548</ele>
        <time>2001-05-23T12:23:43.998</time>
      </trkpt>
      <trkpt lat="42.52837" lon="2.05066">
        <ele>1987.1185313277</ele>
        <time>2001-05-23T12:23:44.998</time>
      </trkpt>
      <trkpt lat="42.52838" lon="2.05066">
        <ele>1986.5665532883</ele>
        <time>2001-05-23T12:23:45.998</time>
      </trkpt>
      <trkpt lat="42.52838" lon="2.05064">
        <ele>1986.171541201</ele>
        <time>2001-05-23T12:23:46.998</time>
      </trkpt>
      <trkpt lat="42.52838" lon="2.05063">
        <ele>1985.9333884215</ele>
        <time>2001-05-23T12:23:47.998</time>
      </trkpt>
      <trkpt lat="42.52838" lon="2.05062">
        <ele>1985.6454008631</ele>
        <time>2001-05-23T12:23:48.998</time>
      </trkpt>
      <trkpt lat="42.52836" lon="2.05063">
        <ele>1985.2774975624</ele>
        <time>2001-05-23T12:23:49.997</time>
      </trkpt>
      <trkpt lat="42.52836" lon="2.05063">
        <ele>1985.0788163591</ele>
        <time>2001-05-23T12:23:50.997</time>
      </trkpt>
      <trkpt lat="42.52838" lon="2.05064">
        <ele>1984.8422849271</ele>
        <time>2001-05-23T12:23:52</time>
      </trkpt>
      <trkpt lat="42.52838" lon="2.05065">
        <ele>1984.8387967303</ele>
        <time>2001-05-23T12:23:53</time>
      </trkpt>
      <trkpt lat="42.52839" lon="2.05065">
        <ele>1984.9933186965</ele>
        <time>2001-05-23T12:23:54</time>
      </trkpt>
      <trkpt lat="42.52839" lon="2.05064">
        <ele>1985.5265246617</ele>
        <time>2001-05-23T12:23:55</time>
      </trkpt>
      <trkpt lat="42.52839" lon="2.05063">
        <ele>1986.283983493</ele>
        <time>2001-05-23T12:23:56</time>
      </trkpt>
      <trkpt lat="42.5284" lon="2.05061">
        <ele>1987.5768483723</ele>
        <time>2001-05-23T12:23:57</time>
      </trkpt>
      <trkpt lat="42.5284" lon="2.05061">
        <ele>1988.6868364938</ele>
        <time>2001-05-23T12:23:58</time>
      </trkpt>
      <trkpt lat="42.52841" lon="2.05059">
        <ele>1989.7137925124</ele>
        <time>2001-05-23T12:23:58.999</time>
      </trkpt>
      <trkpt lat="42.52841" lon="2.05058">
        <ele>1990.6033034083</ele>
        <time>2001-05-23T12:23:59.999</time>
      </trkpt>
      <trkpt lat="42.52842" lon="2.05057">
        <ele>1991.2353986081</ele>
        <time>2001-05-23T12:24:00.999</time>
      </trkpt>
      <trkpt lat="42.52842" lon="2.05056">
        <ele>1991.1920290982</ele>
        <time>2001-05-23T12:24:01.999</time>
      </trkpt>
      <trkpt lat="42.52843" lon="2.05055">
        <ele>1991.2128219813</ele>
        <time>2001-05-23T12:24:02.999</time>
      </trkpt>
      <trkpt lat="42.52844" lon="2.05054">
        <ele>1990.9846272929</ele>
        <time>2001-05-23T12:24:03.999</time>
      </trkpt>
      <trkpt lat="42.52844" lon="2.05054">
        <ele>1990.6994798418</ele>
        <time>2001-05-23T12:24:04.999</time>
      </trkpt>
      <trkpt lat="42.52845" lon="2.05052">
        <ele>1990.0629165463</ele>
        <time>2001-05-23T12:24:05.999</time>
      </trkpt>
      <trkpt lat="42.52846" lon="2.05051">
        <ele>1989.252480042</ele>
        <time>2001-05-23T12:24:06.999</time>
      </trkpt>
      <trkpt lat="42.52846" lon="2.05051">
        <ele>1988.3778811447</ele>
        <time>2001-05-23T12:24:07.999</time>
      </trkpt>
      <trkpt lat="42.52845" lon="2.0505">
        <ele>1987.7307200877</ele>
        <time>2001-05-23T12:24:08.999</time>
      </trkpt>
      <trkpt lat="42.52846" lon="2.0505">
        <ele>1987.2559396505</ele>
        <time>2001-05-23T12:24:10.1</time>
      </trkpt>
      <trkpt lat="42.52846" lon="2.0505">
        <ele>1987.1657378877</ele>
        <time>2001-05-23T12:24:11.1</time>
      </trkpt>
      <trkpt lat="42.52848" lon="2.05049">
        <ele>1987.8774915468</ele>
        <time>2001-05-23T12:24:12.1</time>
      </trkpt>
      <trkpt lat="42.52849" lon="2.05048">
        <ele>1988.8683947342</ele>
        <time>2001-05-23T12:24:13.1</time>
      </trkpt>
      <trkpt lat="42.5285" lon="2.05048">
        <ele>1989.8121478887</ele>
        <time>2001-05-23T12:24:14.1</time>
      </trkpt>
      <trkpt lat="42.52851" lon="2.05047">
        <ele>1990.3205948617</ele>
        <time>2001-05-23T12:24:15.1</time>
      </trkpt>
      <trkpt lat="42.52852" lon="2.05046">
        <ele>1991.04388947</ele>
        <time>2001-05-23T12:24:16.1</time>
      </trkpt>
      <trkpt lat="42.52852" lon="2.05045">
        <ele>1991.5048734531</ele>
        <time>2001-05-23T12:24:17.1</time>
      </trkpt>
      <trkpt lat="42.52852" lon="2.05045">
        <ele>1991.6867079079</ele>
        <time>2001-05-23T12:24:18.1</time>
      </trkpt>
      <trkpt lat="42.52853" lon="2.05045">
        <ele>1991.7950102923</ele>
        <time>2001-05-23T12:24:19.1</time>
      </trkpt>
      <trkpt lat="42.52853" lon="2.05045">
        <ele>1992.2008703837</ele>
        <time>2001-05-23T12:24:20.1</time>
      </trkpt>
      <trkpt lat="42.52854" lon="2.05043">
        <ele>1992.0328058321</ele>
        <time>2001-05-23T12:24:21.1</time>
      </trkpt>
      <trkpt lat="42.52855" lon="2.05042">
        <ele>1991.4800245894</ele>
        <time>2001-05-23T12:24:22.1</time>
      </trkpt>
      <trkpt lat="42.52856" lon="2.05041">
        <ele>1990.9209690895</ele>
        <time>2001-05-23T12:24:23.1</time>
      </trkpt>
      <trkpt lat="42.52856" lon="2.0504">
        <ele>1990.2481056307</ele>
        <time>2001-05-23T12:24:24.1</time>
      </trkpt>
      <trkpt lat="42.52856" lon="2.05039">
        <ele>1989.3535762398</ele>
        <time>2001-05-23T12:24:25.1</time>
      </trkpt>
      <trkpt lat="42.52856" lon="2.05038">
        <ele>1988.4058181951</ele>
        <time>2001-05-23T12:24:26.1</time>
      </trkpt>
      <trkpt lat="42.52856" lon="2.05037">
        <ele>1987.6933535734</ele>
        <time>2001-05-23T12:24:27.1</time>
      </trkpt>
      <trkpt lat="42.52856" lon="2.05036">
        <ele>1986.8842387201</ele>
        <time>2001-05-23T12:24:28.1</time>
      </trkpt>
      <trkpt lat="42.52857" lon="2.05036">
        <ele>1986.1660035668</ele>
        <time>2001-05-23T12:24:29.1</time>
      </trkpt>
      <trkpt lat="42.52858" lon="2.05035">
        <ele>1985.754080647</ele>
        <time>2001-05-23T12:24:30.1</time>
      </trkpt>
      <trkpt lat="42.52859" lon="2.05035">
        <ele>1985.8215150448</ele>
        <time>2001-05-23T12:24:31.1</time>
      </trkpt>
      <trkpt lat="42.5286" lon="2.05034">
        <ele>1985.9357257573</ele>
        <time>2001-05-23T12:24:32.1</time>
      </trkpt>
      <trkpt lat="42.5286" lon="2.05032">
        <ele>1986.2183741061</ele>
        <time>2001-05-23T12:24:33.1</time>
      </trkpt>
      <trkpt lat="42.52861" lon="2.05032">
        <ele>1986.6251313373</ele>
        <time>2001-05-23T12:24:34.1</time>
      </trkpt>
      <trkpt lat="42.52862" lon="2.05033">
        <ele>1987.4552163893</ele>
        <time>2001-05-23T12:24:35.1</time>
      </trkpt>
      <trkpt lat="42.52862" lon="2.05032">
        <ele>1988.2759770587</ele>
        <time>2001-05-23T12:24:36.1</time>
      </trkpt>
      <trkpt lat="42.52863" lon="2.05031">
        <ele>1988.959893685</ele>
        <time>2001-05-23T12:24:37.2</time>
      </trkpt>
      <trkpt lat="42.52863" lon="2.0503">
        <ele>1989.5579437014</ele>
        <time>2001-05-23T12:24:38.2</time>
      </trkpt>
      <trkpt lat="42.52864" lon="2.0503">
        <ele>1990.1360923123</ele>
        <time>2001-05-23T12:24:39.2</time>
      </trkpt>
      <trkpt lat="42.52865" lon="2.0503">
        <ele>1990.0043974681</ele>
        <time>2001-05-23T12:24:40.2</time>
      </trkpt>
      <trkpt lat="42.52865" lon="2.05029">
        <ele>1989.6933828311</ele>
        <time>2001-05-23T12:24:41.2</time>
      </trkpt>
      <trkpt lat="42.52866" lon="2.05028">
        <ele>1989.1483114554</ele>
        <time>2001-05-23T12:24:42.2</time>
      </trkpt>
      <trkpt lat="42.52866" lon="2.05027">
        <ele>1988.2268226366</ele>
        <time>2001-05-23T12:24:43.2</time>
      </trkpt>
      <trkpt lat="42.52867" lon="2.05025">
        <ele>1986.6815145226</ele>
        <time>2001-05-23T12:24:44.2</time>
      </trkpt>
      <trkpt lat="42.52867" lon="2.05025">
        <ele>1985.0966642547</ele>
        <time>2001-05-23T12:24:45.2</time>
      </trkpt>
      <trkpt lat="42.52868" lon="2.05023">
        <ele>1983.6226326177</ele>
        <time>2001-05-23T12:24:46.2</time>
      </trkpt>
      <trkpt lat="42.52869" lon="2.05023">
        <ele>1982.3931364981</ele>
        <time>2001-05-23T12:24:47.2</time>
      </trkpt>
      <trkpt lat="42.5287" lon="2.05022">
        <ele>1981.6868083138</ele>
        <time>2001-05-23T12:24:48.2</time>
      </trkpt>
      <trkpt lat="42.52871" lon="2.05021">
        <ele>1981.6165560136</ele>
        <time>2001-05-23T12:24:49.2</time>
      </trkpt>
      <trkpt lat="42.52872" lon="2.0502">
        <ele>1981.7966687864</ele>
        <time>2001-05-23T12:24:50.2</time>
      </trkpt>
      <trkpt lat="42.52873" lon="2.05019">
        <ele>1982.1426009502</ele>
        <time>2001-05-23T12:24:51.2</time>
      </trkpt>
      <trkpt lat="42.52873" lon="2.05019">
        <ele>1982.5630086992</ele>
        <time>2001-05-23T12:24:52.2</time>
      </trkpt>
      <trkpt lat="42.52874" lon="2.05019">
        <ele>1982.8899612622</ele>
        <time>2001-05-23T12:24:53.2</time>
      </trkpt>
      <trkpt lat="42.52875" lon="2.05018">
        <ele>1982.8648941524</ele>
        <time>2001-05-23T12:24:54.2</time>
      </trkpt>
      <trkpt lat="42.52875" lon="2.05017">
        <ele>1982.8843205031</ele>
        <time>2001-05-23T12:24:55.2</time>
      </trkpt>
      <trkpt lat="42.52877" lon="2.05016">
        <ele>1982.6294280421</ele>
        <time>2001-05-23T12:24:56.2</time>
      </trkpt>
      <trkpt lat="42.52878" lon="2.05015">
        <ele>1982.3321337797</ele>
        <time>2001-05-23T12:24:57.2</time>
      </trkpt>
      <trkpt lat="42.52879" lon="2.05014">
        <ele>1982.2565110542</ele>
        <time>2001-05-23T12:24:58.1</time>
      </trkpt>
      <trkpt lat="42.52879" lon="2.05014">
        <ele>1982.4028963711</ele>
        <time>2001-05-23T12:24:59.1</time>
      </trkpt>
      <trkpt lat="42.52879" lon="2.05012">
        <ele>1982.2480668312</ele>
        <time>2001-05-23T12:25:00.1</time>
      </trkpt>
      <trkpt lat="42.52879" lon="2.05012">
        <ele>1982.2125106005</ele>
        <time>2001-05-23T12:25:01.1</time>
      </trkpt>
      <trkpt lat="42.5288" lon="2.05013">
        <ele>1982.1228101287</ele>
        <time>2001-05-23T12:25:02.2</time>
      </trkpt>
      <trkpt lat="42.5288" lon="2.05013">
        <ele>1981.7779199122</ele>
        <time>2001-05-23T12:25:03.2</time>
      </trkpt>
      <trkpt lat="42.52882" lon="2.05014">
        <ele>1981.5489996618</ele>
        <time>2001-05-23T12:25:04.2</time>
      </trkpt>
      <trkpt lat="42.52883" lon="2.05014">
        <ele>1981.9181121178</ele>
        <time>2001-05-23T12:25:05.2</time>
      </trkpt>
      <trkpt lat="42.52884" lon="2.05014">
        <ele>1982.3868980866</ele>
        <time>2001-05-23T12:25:06.2</time>
      </trkpt>
      <trkpt lat="42.52884" lon="2.05014">
        <ele>1983.0915234167</ele>
        <time>2001-05-23T12:25:07.2</time>
      </trkpt>
      <trkpt lat="42.52885" lon="2.05014">
        <ele>1983.5236583909</ele>
        <time>2001-05-23T12:25:08.2</time>
      </trkpt>
      <trkpt lat="42.52885" lon="2.05014">
        <ele>1983.8398233989</ele>
        <time>2001-05-23T12:25:09.2</time>
      </trkpt>
      <trkpt lat="42.52886" lon="2.05014">
        <ele>1983.7554875076</ele>
        <time>2001-05-23T12:25:10.5</time>
      </trkpt>
      <trkpt lat="42.52887" lon="2.05014">
        <ele>1983.7216315283</ele>
        <time>2001-05-23T12:25:11.5</time>
      </trkpt>
      <trkpt lat="42.52888" lon="2.05015">
        <ele>1983.519358924</ele>
        <time>2001-05-23T12:25:12.5</time>
      </trkpt>
      <trkpt lat="42.52889" lon="2.05016">
        <ele>1983.8660748433</ele>
        <time>2001-05-23T12:25:13.5</time>
      </trkpt>
      <trkpt lat="42.5289" lon="2.05017">
        <ele>1984.0480964696</ele>
        <time>2001-05-23T12:25:14.4</time>
      </trkpt>
      <trkpt lat="42.52891" lon="2.05017">
        <ele>1984.3658757379</ele>
        <time>2001-05-23T12:25:15.4</time>
      </trkpt>
      <trkpt lat="42.5289" lon="2.05019">
        <ele>1984.4723245502</ele>
        <time>2001-05-23T12:25:16.2</time>
      </trkpt>
      <trkpt lat="42.5289" lon="2.05019">
        <ele>1984.6078966685</ele>
        <time>2001-05-23T12:25:17.2</time>
      </trkpt>
      <trkpt lat="42.52892" lon="2.0502">
        <ele>1984.6731681693</ele>
        <time>2001-05-23T12:25:18.2</time>
      </trkpt>
      <trkpt lat="42.52893" lon="2.05022">
        <ele>1984.8876371237</ele>
        <time>2001-05-23T12:25:19.2</time>
      </trkpt>
      <trkpt lat="42.52894" lon="2.05023">
        <ele>1984.926019772</ele>
        <time>2001-05-23T12:25:20.2</time>
      </trkpt>
      <trkpt lat="42.52893" lon="2.05023">
        <ele>1984.9643320076</ele>
        <time>2001-05-23T12:25:21.2</time>
      </trkpt>
      <trkpt lat="42.52893" lon="2.05025">
        <ele>1984.8872386025</ele>
        <time>2001-05-23T12:25:22.2</time>
      </trkpt>
      <trkpt lat="42.52894" lon="2.05026">
        <ele>1984.541222756</ele>
        <time>2001-05-23T12:25:23.2</time>
      </trkpt>
      <trkpt lat="42.52894" lon="2.05028">
        <ele>1983.9888467496</ele>
        <time>2001-05-23T12:25:24.2</time>
      </trkpt>
      <trkpt lat="42.52894" lon="2.05029">
        <ele>1983.2684551224</ele>
        <time>2001-05-23T12:25:25.2</time>
      </trkpt>
      <trkpt lat="42.52894" lon="2.05031">
        <ele>1982.7043525083</ele>
        <time>2001-05-23T12:25:26.2</time>
      </trkpt>
      <trkpt lat="42.52895" lon="2.05033">
        <ele>1982.178269244</ele>
        <time>2001-05-23T12:25:27.2</time>
      </trkpt>
      <trkpt lat="42.52897" lon="2.05034">
        <ele>1981.8083137108</ele>
        <time>2001-05-23T12:25:28.2</time>
      </trkpt>
      <trkpt lat="42.52898" lon="2.05034">
        <ele>1981.9621081345</ele>
        <time>2001-05-23T12:25:29.2</time>
      </trkpt>
      <trkpt lat="42.52899" lon="2.05035">
        <ele>1982.3811243419</ele>
        <time>2001-05-23T12:25:30.2</time>
      </trkpt>
      <trkpt lat="42.529" lon="2.05035">
        <ele>1982.8866060389</ele>
        <time>2001-05-23T12:25:31.2</time>
      </trkpt>
      <trkpt lat="42.529" lon="2.05035">
        <ele>1983.3044781946</ele>
        <time>2001-05-23T12:25:32.2</time>
      </trkpt>
      <trkpt lat="42.529" lon="2.05036">
        <ele>1983.6071493536</ele>
        <time>2001-05-23T12:25:33.2</time>
      </trkpt>
      <trkpt lat="42.52902" lon="2.05038">
        <ele>1985.0805350963</ele>
        <time>2001-05-23T12:25:34.16</time>
      </trkpt>
      <trkpt lat="42.52903" lon="2.05039">
        <ele>1986.5952859776</ele>
        <time>2001-05-23T12:25:35.16</time>
      </trkpt>
      <trkpt lat="42.52902" lon="2.05037">
        <ele>1987.6712648673</ele>
        <time>2001-05-23T12:25:36.21</time>
      </trkpt>
      <trkpt lat="42.52902" lon="2.05038">
        <ele>1988.8023823539</ele>
        <time>2001-05-23T12:25:37.21</time>
      </trkpt>
      <trkpt lat="42.52904" lon="2.05041">
        <ele>1990.9219180755</ele>
        <time>2001-05-23T12:25:38.19</time>
      </trkpt>
      <trkpt lat="42.52904" lon="2.05041">
        <ele>1991.5688462561</ele>
        <time>2001-05-23T12:25:39.19</time>
      </trkpt>
      <trkpt lat="42.52905" lon="2.0504">
        <ele>1992.1907353114</ele>
        <time>2001-05-23T12:25:40.19</time>
      </trkpt>
      <trkpt lat="42.52905" lon="2.0504">
        <ele>1993.0698892996</ele>
        <time>2001-05-23T12:25:41.19</time>
      </trkpt>
      <trkpt lat="42.52906" lon="2.05042">
        <ele>1993.7825130688</ele>
        <time>2001-05-23T12:25:42.17</time>
      </trkpt>
      <trkpt lat="42.52906" lon="2.05043">
        <ele>1993.7040772542</ele>
        <time>2001-05-23T12:25:43.17</time>
      </trkpt>
      <trkpt lat="42.52907" lon="2.05044">
        <ele>1993.3625941403</ele>
        <time>2001-05-23T12:25:44.17</time>
      </trkpt>
      <trkpt lat="42.52907" lon="2.05043">
        <ele>1993.2163666712</ele>
        <time>2001-05-23T12:25:45.17</time>
      </trkpt>
      <trkpt lat="42.52908" lon="2.05042">
        <ele>1993.0920621924</ele>
        <time>2001-05-23T12:25:46.17</time>
      </trkpt>
      <trkpt lat="42.52908" lon="2.05042">
        <ele>1993.244145168</ele>
        <time>2001-05-23T12:25:47.17</time>
      </trkpt>
      <trkpt lat="42.5291" lon="2.05042">
        <ele>1993.888939984</ele>
        <time>2001-05-23T12:25:48.15</time>
      </trkpt>
      <trkpt lat="42.52909" lon="2.05043">
        <ele>1995.3684025157</ele>
        <time>2001-05-23T12:25:49.15</time>
      </trkpt>
      <trkpt lat="42.52911" lon="2.05044">
        <ele>1996.9203409772</ele>
        <time>2001-05-23T12:25:50.15</time>
      </trkpt>
      <trkpt lat="42.52911" lon="2.05045">
        <ele>1998.3896734638</ele>
        <time>2001-05-23T12:25:51.15</time>
      </trkpt>
      <trkpt lat="42.52911" lon="2.05045">
        <ele>1999.8590059504</ele>
        <time>2001-05-23T12:25:52.15</time>
      </trkpt>
      <trkpt lat="42.52912" lon="2.05045">
        <ele>2000.8207037143</ele>
        <time>2001-05-23T12:25:53.12</time>
      </trkpt>
      <trkpt lat="42.52913" lon="2.05045">
        <ele>2001.691822237</ele>
        <time>2001-05-23T12:25:54.12</time>
      </trkpt>
      <trkpt lat="42.52914" lon="2.05046">
        <ele>2002.5108382339</ele>
        <time>2001-05-23T12:25:55.12</time>
      </trkpt>
      <trkpt lat="42.52915" lon="2.05046">
        <ele>2003.3447824782</ele>
        <time>2001-05-23T12:25:56.12</time>
      </trkpt>
      <trkpt lat="42.52915" lon="2.05046">
        <ele>2004.1787267225</ele>
        <time>2001-05-23T12:25:57.12</time>
      </trkpt>
      <trkpt lat="42.52915" lon="2.05046">
        <ele>2004.8526097186</ele>
        <time>2001-05-23T12:25:58.12</time>
      </trkpt>
      <trkpt lat="42.52916" lon="2.05045">
        <ele>2005.0195144555</ele>
        <time>2001-05-23T12:25:59.12</time>
      </trkpt>
      <trkpt lat="42.52916" lon="2.05045">
        <ele>2004.9478226341</ele>
        <time>2001-05-23T12:26:00.12</time>
      </trkpt>
      <trkpt lat="42.52918" lon="2.05047">
        <ele>2004.2177985258</ele>
        <time>2001-05-23T12:26:01.13</time>
      </trkpt>
      <trkpt lat="42.52919" lon="2.05047">
        <ele>2003.4208633171</ele>
        <time>2001-05-23T12:26:02.13</time>
      </trkpt>
      <trkpt lat="42.5292" lon="2.05048">
        <ele>2002.7328744458</ele>
        <time>2001-05-23T12:26:03.13</time>
      </trkpt>
      <trkpt lat="42.5292" lon="2.05048">
        <ele>2002.0708226586</ele>
        <time>2001-05-23T12:26:04.13</time>
      </trkpt>
      <trkpt lat="42.52921" lon="2.05047">
        <ele>2001.6079806535</ele>
        <time>2001-05-23T12:26:05.10</time>
      </trkpt>
      <trkpt lat="42.52921" lon="2.05047">
        <ele>2001.8492256725</ele>
        <time>2001-05-23T12:26:06.10</time>
      </trkpt>
      <trkpt lat="42.52921" lon="2.05046">
        <ele>2002.0921690803</ele>
        <time>2001-05-23T12:26:07.9</time>
      </trkpt>
      <trkpt lat="42.52921" lon="2.05046">
        <ele>2002.2261661507</ele>
        <time>2001-05-23T12:26:08.9</time>
      </trkpt>
      <trkpt lat="42.52923" lon="2.05047">
        <ele>2002.6796333071</ele>
        <time>2001-05-23T12:26:09.9</time>
      </trkpt>
      <trkpt lat="42.52923" lon="2.05047">
        <ele>2002.9338906813</ele>
        <time>2001-05-23T12:26:10.9</time>
      </trkpt>
      <trkpt lat="42.52924" lon="2.05048">
        <ele>2003.292716304</ele>
        <time>2001-05-23T12:26:11.9</time>
      </trkpt>
      <trkpt lat="42.52925" lon="2.05049">
        <ele>2003.6786611488</ele>
        <time>2001-05-23T12:26:12.9</time>
      </trkpt>
      <trkpt lat="42.52926" lon="2.0505">
        <ele>2003.625128446</ele>
        <time>2001-05-23T12:26:13.9</time>
      </trkpt>
      <trkpt lat="42.52926" lon="2.0505">
        <ele>2003.2521256572</ele>
        <time>2001-05-23T12:26:14.9</time>
      </trkpt>
      <trkpt lat="42.52928" lon="2.0505">
        <ele>2002.6665473917</ele>
        <time>2001-05-23T12:26:15.7</time>
      </trkpt>
      <trkpt lat="42.52929" lon="2.0505">
        <ele>2002.0603335915</ele>
        <time>2001-05-23T12:26:16.7</time>
      </trkpt>
      <trkpt lat="42.5293" lon="2.0505">
        <ele>2002.080551758</ele>
        <time>2001-05-23T12:26:17.7</time>
      </trkpt>
      <trkpt lat="42.52931" lon="2.0505">
        <ele>2002.7626437869</ele>
        <time>2001-05-23T12:26:18.7</time>
      </trkpt>
      <trkpt lat="42.52932" lon="2.0505">
        <ele>2003.7093427714</ele>
        <time>2001-05-23T12:26:19.7</time>
      </trkpt>
      <trkpt lat="42.52932" lon="2.05049">
        <ele>2004.920009084</ele>
        <time>2001-05-23T12:26:20.7</time>
      </trkpt>
      <trkpt lat="42.52933" lon="2.05048">
        <ele>2006.0794031998</ele>
        <time>2001-05-23T12:26:21.7</time>
      </trkpt>
      <trkpt lat="42.52934" lon="2.05047">
        <ele>2006.484898689</ele>
        <time>2001-05-23T12:26:22.7</time>
      </trkpt>
      <trkpt lat="42.52934" lon="2.05046">
        <ele>2006.542813568</ele>
        <time>2001-05-23T12:26:23.7</time>
      </trkpt>
      <trkpt lat="42.52935" lon="2.05046">
        <ele>2006.2742161717</ele>
        <time>2001-05-23T12:26:24.7</time>
      </trkpt>
      <trkpt lat="42.52935" lon="2.05046">
        <ele>2005.8722901324</ele>
        <time>2001-05-23T12:26:25.7</time>
      </trkpt>
      <trkpt lat="42.52936" lon="2.05047">
        <ele>2005.2759683652</ele>
        <time>2001-05-23T12:26:26.7</time>
      </trkpt>
      <trkpt lat="42.52938" lon="2.05046">
        <ele>2004.7852898356</ele>
        <time>2001-05-23T12:26:27.7</time>
      </trkpt>
      <trkpt lat="42.52937" lon="2.05048">
        <ele>2004.5043100549</ele>
        <time>2001-05-23T12:26:28.9</time>
      </trkpt>
      <trkpt lat="42.52937" lon="2.05048">
        <ele>2004.2852355938</ele>
        <time>2001-05-23T12:26:29.9</time>
      </trkpt>
      <trkpt lat="42.52937" lon="2.05049">
        <ele>2004.2992191814</ele>
        <time>2001-05-23T12:26:30.4</time>
      </trkpt>
      <trkpt lat="42.52937" lon="2.05049">
        <ele>2004.4749379801</ele>
        <time>2001-05-23T12:26:31.4</time>
      </trkpt>
      <trkpt lat="42.52938" lon="2.05049">
        <ele>2004.948717404</ele>
        <time>2001-05-23T12:26:32.4</time>
      </trkpt>
      <trkpt lat="42.52939" lon="2.05048">
        <ele>2005.2622000596</ele>
        <time>2001-05-23T12:26:33.4</time>
      </trkpt>
      <trkpt lat="42.5294" lon="2.05047">
        <ele>2005.4935120139</ele>
        <time>2001-05-23T12:26:34.4</time>
      </trkpt>
      <trkpt lat="42.52941" lon="2.05047">
        <ele>2005.5994211687</ele>
        <time>2001-05-23T12:26:35.4</time>
      </trkpt>
      <trkpt lat="42.52941" lon="2.05047">
        <ele>2005.7053303234</ele>
        <time>2001-05-23T12:26:36.4</time>
      </trkpt>
      <trkpt lat="42.52942" lon="2.05045">
        <ele>2005.4160098651</ele>
        <time>2001-05-23T12:26:37.4</time>
      </trkpt>
      <trkpt lat="42.52943" lon="2.05045">
        <ele>2005.5601875013</ele>
        <time>2001-05-23T12:26:38.4</time>
      </trkpt>
      <trkpt lat="42.52943" lon="2.05044">
        <ele>2005.506322322</ele>
        <time>2001-05-23T12:26:39.4</time>
      </trkpt>
      <trkpt lat="42.52943" lon="2.05042">
        <ele>2005.2061072448</ele>
        <time>2001-05-23T12:26:40.4</time>
      </trkpt>
      <trkpt lat="42.52943" lon="2.05042">
        <ele>2004.9058921676</ele>
        <time>2001-05-23T12:26:41.4</time>
      </trkpt>
      <trkpt lat="42.52945" lon="2.05041">
        <ele>2004.8871970745</ele>
        <time>2001-05-23T12:26:42.3</time>
      </trkpt>
      <trkpt lat="42.52945" lon="2.0504">
        <ele>2005.0201166153</ele>
        <time>2001-05-23T12:26:43.3</time>
      </trkpt>
      <trkpt lat="42.52946" lon="2.05039">
        <ele>2005.645518399</ele>
        <time>2001-05-23T12:26:44.3</time>
      </trkpt>
      <trkpt lat="42.52946" lon="2.05039">
        <ele>2006.4915516233</ele>
        <time>2001-05-23T12:26:45.3</time>
      </trkpt>
      <trkpt lat="42.52947" lon="2.05039">
        <ele>2008.3608461415</ele>
        <time>2001-05-23T12:26:46.4</time>
      </trkpt>
      <trkpt lat="42.52947" lon="2.05039">
        <ele>2010.1057065753</ele>
        <time>2001-05-23T12:26:47.4</time>
      </trkpt>
      <trkpt lat="42.52949" lon="2.0504">
        <ele>2011.7383948874</ele>
        <time>2001-05-23T12:26:48.4</time>
      </trkpt>
      <trkpt lat="42.52949" lon="2.0504">
        <ele>2013.4027945854</ele>
        <time>2001-05-23T12:26:49.4</time>
      </trkpt>
      <trkpt lat="42.5295" lon="2.05039">
        <ele>2014.7263374351</ele>
        <time>2001-05-23T12:26:50.3</time>
      </trkpt>
      <trkpt lat="42.5295" lon="2.05039">
        <ele>2015.0266189909</ele>
        <time>2001-05-23T12:26:51.3</time>
      </trkpt>
      <trkpt lat="42.52951" lon="2.0504">
        <ele>2015.7683694279</ele>
        <time>2001-05-23T12:26:52.3</time>
      </trkpt>
      <trkpt lat="42.52951" lon="2.0504">
        <ele>2016.1129615732</ele>
        <time>2001-05-23T12:26:53.3</time>
      </trkpt>
      <trkpt lat="42.52952" lon="2.0504">
        <ele>2016.088019627</ele>
        <time>2001-05-23T12:26:54.3</time>
      </trkpt>
      <trkpt lat="42.52953" lon="2.05039">
        <ele>2016.4950812016</ele>
        <time>2001-05-23T12:26:55.3</time>
      </trkpt>
      <trkpt lat="42.52954" lon="2.05038">
        <ele>2016.951063071</ele>
        <time>2001-05-23T12:26:56.4</time>
      </trkpt>
      <trkpt lat="42.52954" lon="2.05038">
        <ele>2016.9655760592</ele>
        <time>2001-05-23T12:26:57.4</time>
      </trkpt>
      <trkpt lat="42.52957" lon="2.05038">
        <ele>2016.5595443504</ele>
        <time>2001-05-23T12:26:58.4</time>
      </trkpt>
      <trkpt lat="42.52957" lon="2.05038">
        <ele>2016.2790666208</ele>
        <time>2001-05-23T12:26:59.4</time>
      </trkpt>
      <trkpt lat="42.52958" lon="2.05038">
        <ele>2015.8417350212</ele>
        <time>2001-05-23T12:27:00.3</time>
      </trkpt>
      <trkpt lat="42.52958" lon="2.05038">
        <ele>2015.3554831268</ele>
        <time>2001-05-23T12:27:01.3</time>
      </trkpt>
      <trkpt lat="42.52959" lon="2.05036">
        <ele>2014.8757868795</ele>
        <time>2001-05-23T12:27:02.1</time>
      </trkpt>
      <trkpt lat="42.52959" lon="2.05036">
        <ele>2014.8166353291</ele>
        <time>2001-05-23T12:27:03.1</time>
      </trkpt>
      <trkpt lat="42.5296" lon="2.05037">
        <ele>2015.2818553913</ele>
        <time>2001-05-23T12:27:04.2</time>
      </trkpt>
      <trkpt lat="42.5296" lon="2.05037">
        <ele>2015.812782651</ele>
        <time>2001-05-23T12:27:05.2</time>
      </trkpt>
      <trkpt lat="42.52961" lon="2.05036">
        <ele>2017.0106346609</ele>
        <time>2001-05-23T12:27:06.2</time>
      </trkpt>
      <trkpt lat="42.52961" lon="2.05034">
        <ele>2018.1185299763</ele>
        <time>2001-05-23T12:27:07.2</time>
      </trkpt>
      <trkpt lat="42.52962" lon="2.05032">
        <ele>2019.2060301397</ele>
        <time>2001-05-23T12:27:08.2</time>
      </trkpt>
      <trkpt lat="42.52963" lon="2.05031">
        <ele>2019.7076003393</ele>
        <time>2001-05-23T12:27:09.2</time>
      </trkpt>
      <trkpt lat="42.52964" lon="2.05029">
        <ele>2020.1150053216</ele>
        <time>2001-05-23T12:27:10.2</time>
      </trkpt>
      <trkpt lat="42.52964" lon="2.05029">
        <ele>2019.8554855537</ele>
        <time>2001-05-23T12:27:11.2</time>
      </trkpt>
      <trkpt lat="42.52964" lon="2.05029">
        <ele>2019.6793668332</ele>
        <time>2001-05-23T12:27:12.2</time>
      </trkpt>
      <trkpt lat="42.52965" lon="2.05028">
        <ele>2019.7744756673</ele>
        <time>2001-05-23T12:27:13.4</time>
      </trkpt>
      <trkpt lat="42.52967" lon="2.05028">
        <ele>2020.0179396465</ele>
        <time>2001-05-23T12:27:14.4</time>
      </trkpt>
      <trkpt lat="42.52968" lon="2.05028">
        <ele>2020.4981723208</ele>
        <time>2001-05-23T12:27:15.4</time>
      </trkpt>
      <trkpt lat="42.52968" lon="2.05028">
        <ele>2020.9784049951</ele>
        <time>2001-05-23T12:27:16.4</time>
      </trkpt>
      <trkpt lat="42.52969" lon="2.05027">
        <ele>2021.0938001368</ele>
        <time>2001-05-23T12:27:17.4</time>
      </trkpt>
      <trkpt lat="42.52971" lon="2.05026">
        <ele>2020.9539245065</ele>
        <time>2001-05-23T12:27:18.4</time>
      </trkpt>
      <trkpt lat="42.52973" lon="2.05023">
        <ele>2020.9096015183</ele>
        <time>2001-05-23T12:27:19.4</time>
      </trkpt>
      <trkpt lat="42.52975" lon="2.05022">
        <ele>2020.2621312784</ele>
        <time>2001-05-23T12:27:20.4</time>
      </trkpt>
      <trkpt lat="42.52976" lon="2.05021">
        <ele>2019.3657669013</ele>
        <time>2001-05-23T12:27:21.4</time>
      </trkpt>
      <trkpt lat="42.52977" lon="2.0502">
        <ele>2018.6786297709</ele>
        <time>2001-05-23T12:27:22.4</time>
      </trkpt>
      <trkpt lat="42.52977" lon="2.05019">
        <ele>2018.0419502633</ele>
        <time>2001-05-23T12:27:23.4</time>
      </trkpt>
      <trkpt lat="42.52977" lon="2.05017">
        <ele>2017.3894098574</ele>
        <time>2001-05-23T12:27:24.4</time>
      </trkpt>
      <trkpt lat="42.52977" lon="2.05016">
        <ele>2017.4136748601</ele>
        <time>2001-05-23T12:27:25.4</time>
      </trkpt>
      <trkpt lat="42.52977" lon="2.05015">
        <ele>2017.8391918534</ele>
        <time>2001-05-23T12:27:26.4</time>
      </trkpt>
      <trkpt lat="42.52977" lon="2.05014">
        <ele>2018.2518056076</ele>
        <time>2001-05-23T12:27:27.4</time>
      </trkpt>
      <trkpt lat="42.52976" lon="2.05012">
        <ele>2018.328680959</ele>
        <time>2001-05-23T12:27:28.4</time>
      </trkpt>
      <trkpt lat="42.52975" lon="2.05011">
        <ele>2017.9265248396</ele>
        <time>2001-05-23T12:27:29.4</time>
      </trkpt>
      <trkpt lat="42.52975" lon="2.0501">
        <ele>2017.3277167812</ele>
        <time>2001-05-23T12:27:30.4</time>
      </trkpt>
      <trkpt lat="42.52975" lon="2.0501">
        <ele>2016.5154584756</ele>
        <time>2001-05-23T12:27:31.4</time>
      </trkpt>
      <trkpt lat="42.52975" lon="2.05009">
        <ele>2015.1183093233</ele>
        <time>2001-05-23T12:27:32.2</time>
      </trkpt>
      <trkpt lat="42.52976" lon="2.05008">
        <ele>2013.597934719</ele>
        <time>2001-05-23T12:27:33.2</time>
      </trkpt>
      <trkpt lat="42.52978" lon="2.05008">
        <ele>2012.7733855706</ele>
        <time>2001-05-23T12:27:34.22</time>
      </trkpt>
      <trkpt lat="42.52979" lon="2.05007">
        <ele>2012.0027223414</ele>
        <time>2001-05-23T12:27:35.22</time>
      </trkpt>
      <trkpt lat="42.5298" lon="2.05008">
        <ele>2011.6270308597</ele>
        <time>2001-05-23T12:27:36.22</time>
      </trkpt>
      <trkpt lat="42.52981" lon="2.05007">
        <ele>2012.1521155685</ele>
        <time>2001-05-23T12:27:37.22</time>
      </trkpt>
      <trkpt lat="42.52982" lon="2.05008">
        <ele>2013.5527621549</ele>
        <time>2001-05-23T12:27:38.22</time>
      </trkpt>
      <trkpt lat="42.52983" lon="2.05008">
        <ele>2015.0921655996</ele>
        <time>2001-05-23T12:27:39.22</time>
      </trkpt>
      <trkpt lat="42.52983" lon="2.05008">
        <ele>2016.5580734296</ele>
        <time>2001-05-23T12:27:40.22</time>
      </trkpt>
      <trkpt lat="42.52983" lon="2.05008">
        <ele>2017.6901019057</ele>
        <time>2001-05-23T12:27:41.22</time>
      </trkpt>
      <trkpt lat="42.52984" lon="2.05005">
        <ele>2019.0802047843</ele>
        <time>2001-05-23T12:27:42.22</time>
      </trkpt>
      <trkpt lat="42.52985" lon="2.05004">
        <ele>2019.948364896</ele>
        <time>2001-05-23T12:27:43.22</time>
      </trkpt>
      <trkpt lat="42.52986" lon="2.05004">
        <ele>2020.1652124215</ele>
        <time>2001-05-23T12:27:44.22</time>
      </trkpt>
      <trkpt lat="42.52986" lon="2.05003">
        <ele>2020.7069930797</ele>
        <time>2001-05-23T12:27:45.22</time>
      </trkpt>
      <trkpt lat="42.52986" lon="2.05003">
        <ele>2021.248773738</ele>
        <time>2001-05-23T12:27:46.22</time>
      </trkpt>
      <trkpt lat="42.52987" lon="2.05002">
        <ele>2021.8390393587</ele>
        <time>2001-05-23T12:27:47.20</time>
      </trkpt>
      <trkpt lat="42.52988" lon="2.05001">
        <ele>2022.5926270487</ele>
        <time>2001-05-23T12:27:48.20</time>
      </trkpt>
      <trkpt lat="42.52989" lon="2.05">
        <ele>2023.5847089197</ele>
        <time>2001-05-23T12:27:49.21</time>
      </trkpt>
      <trkpt lat="42.52989" lon="2.05">
        <ele>2024.2518576581</ele>
        <time>2001-05-23T12:27:50.21</time>
      </trkpt>
      <trkpt lat="42.5299" lon="2.04997">
        <ele>2024.3769352598</ele>
        <time>2001-05-23T12:27:51.20</time>
      </trkpt>
      <trkpt lat="42.5299" lon="2.04996">
        <ele>2023.6097620035</ele>
        <time>2001-05-23T12:27:52.20</time>
      </trkpt>
      <trkpt lat="42.52992" lon="2.04995">
        <ele>2022.8863247909</ele>
        <time>2001-05-23T12:27:53.21</time>
      </trkpt>
      <trkpt lat="42.52992" lon="2.04995">
        <ele>2022.0536666019</ele>
        <time>2001-05-23T12:27:54.21</time>
      </trkpt>
      <trkpt lat="42.52993" lon="2.04995">
        <ele>2021.5154653095</ele>
        <time>2001-05-23T12:27:55.20</time>
      </trkpt>
      <trkpt lat="42.52993" lon="2.04995">
        <ele>2021.5193351537</ele>
        <time>2001-05-23T12:27:56.20</time>
      </trkpt>
      <trkpt lat="42.52994" lon="2.04995">
        <ele>2022.0223877728</ele>
        <time>2001-05-23T12:27:57.19</time>
      </trkpt>
      <trkpt lat="42.52995" lon="2.04996">
        <ele>2021.9231369289</ele>
        <time>2001-05-23T12:27:58.19</time>
      </trkpt>
      <trkpt lat="42.52996" lon="2.04995">
        <ele>2021.9961169831</ele>
        <time>2001-05-23T12:27:59.19</time>
      </trkpt>
      <trkpt lat="42.52997" lon="2.04995">
        <ele>2022.1754111115</ele>
        <time>2001-05-23T12:28:00.19</time>
      </trkpt>
      <trkpt lat="42.52998" lon="2.04993">
        <ele>2022.8867318682</ele>
        <time>2001-05-23T12:28:01.22</time>
      </trkpt>
      <trkpt lat="42.52998" lon="2.04993">
        <ele>2023.5371895246</ele>
        <time>2001-05-23T12:28:02.22</time>
      </trkpt>
      <trkpt lat="42.52998" lon="2.04992">
        <ele>2024.4420381846</ele>
        <time>2001-05-23T12:28:03.23</time>
      </trkpt>
      <trkpt lat="42.52998" lon="2.04992">
        <ele>2025.1746559463</ele>
        <time>2001-05-23T12:28:04.23</time>
      </trkpt>
      <trkpt lat="42.52997" lon="2.04992">
        <ele>2025.411519382</ele>
        <time>2001-05-23T12:28:05.23</time>
      </trkpt>
      <trkpt lat="42.52997" lon="2.04992">
        <ele>2025.1163561892</ele>
        <time>2001-05-23T12:28:06.23</time>
      </trkpt>
      <trkpt lat="42.52998" lon="2.04991">
        <ele>2024.7834461132</ele>
        <time>2001-05-23T12:28:07.24</time>
      </trkpt>
      <trkpt lat="42.52998" lon="2.04991">
        <ele>2024.6507158745</ele>
        <time>2001-05-23T12:28:08.24</time>
      </trkpt>
      <trkpt lat="42.52997" lon="2.04989">
        <ele>2024.2262145746</ele>
        <time>2001-05-23T12:28:09.25</time>
      </trkpt>
      <trkpt lat="42.52997" lon="2.04989">
        <ele>2023.8966966303</ele>
        <time>2001-05-23T12:28:10.25</time>
      </trkpt>
      <trkpt lat="42.52996" lon="2.04987">
        <ele>2023.1047948649</ele>
        <time>2001-05-23T12:28:11.23</time>
      </trkpt>
      <trkpt lat="42.52996" lon="2.04985">
        <ele>2022.5042912969</ele>
        <time>2001-05-23T12:28:12.23</time>
      </trkpt>
      <trkpt lat="42.52995" lon="2.04982">
        <ele>2021.6213168984</ele>
        <time>2001-05-23T12:28:13.23</time>
      </trkpt>
      <trkpt lat="42.52995" lon="2.04981">
        <ele>2021.0798356472</ele>
        <time>2001-05-23T12:28:14.23</time>
      </trkpt>
      <trkpt lat="42.52996" lon="2.04979">
        <ele>2020.589477252</ele>
        <time>2001-05-23T12:28:15.23</time>
      </trkpt>
      <trkpt lat="42.52996" lon="2.04978">
        <ele>2020.6226454053</ele>
        <time>2001-05-23T12:28:16.23</time>
      </trkpt>
      <trkpt lat="42.52996" lon="2.04977">
        <ele>2020.4683325902</ele>
        <time>2001-05-23T12:28:17.23</time>
      </trkpt>
      <trkpt lat="42.52997" lon="2.04976">
        <ele>2020.5344683638</ele>
        <time>2001-05-23T12:28:18.23</time>
      </trkpt>
      <trkpt lat="42.52998" lon="2.04975">
        <ele>2020.5457137063</ele>
        <time>2001-05-23T12:28:19.23</time>
      </trkpt>
      <trkpt lat="42.52998" lon="2.04975">
        <ele>2020.5058361927</ele>
        <time>2001-05-23T12:28:20.23</time>
      </trkpt>
      <trkpt lat="42.52998" lon="2.04974">
        <ele>2020.6376337562</ele>
        <time>2001-05-23T12:28:21.23</time>
      </trkpt>
      <trkpt lat="42.52997" lon="2.04971">
        <ele>2021.0807651095</ele>
        <time>2001-05-23T12:28:22.23</time>
      </trkpt>
      <trkpt lat="42.52998" lon="2.0497">
        <ele>2021.5786282375</ele>
        <time>2001-05-23T12:28:23.23</time>
      </trkpt>
      <trkpt lat="42.52997" lon="2.04968">
        <ele>2021.730094442</ele>
        <time>2001-05-23T12:28:24.23</time>
      </trkpt>
      <trkpt lat="42.52997" lon="2.04967">
        <ele>2021.8449147627</ele>
        <time>2001-05-23T12:28:25.23</time>
      </trkpt>
      <trkpt lat="42.52996" lon="2.04966">
        <ele>2021.4495948911</ele>
        <time>2001-05-23T12:28:26.23</time>
      </trkpt>
      <trkpt lat="42.52996" lon="2.04965">
        <ele>2020.6740410525</ele>
        <time>2001-05-23T12:28:27.23</time>
      </trkpt>
      <trkpt lat="42.52996" lon="2.04963">
        <ele>2019.8972443487</ele>
        <time>2001-05-23T12:28:28.23</time>
      </trkpt>
      <trkpt lat="42.52996" lon="2.04962">
        <ele>2019.4421403514</ele>
        <time>2001-05-23T12:28:29.23</time>
      </trkpt>
      <trkpt lat="42.52996" lon="2.04961">
        <ele>2019.0902315002</ele>
        <time>2001-05-23T12:28:30.23</time>
      </trkpt>
      <trkpt lat="42.52996" lon="2.0496">
        <ele>2018.98297331</ele>
        <time>2001-05-23T12:28:31.23</time>
      </trkpt>
      <trkpt lat="42.52995" lon="2.04958">
        <ele>2018.4689642878</ele>
        <time>2001-05-23T12:28:32.23</time>
      </trkpt>
      <trkpt lat="42.52996" lon="2.04956">
        <ele>2017.8954685334</ele>
        <time>2001-05-23T12:28:33.23</time>
      </trkpt>
      <trkpt lat="42.52996" lon="2.04954">
        <ele>2017.5392353687</ele>
        <time>2001-05-23T12:28:34.23</time>
      </trkpt>
      <trkpt lat="42.52997" lon="2.04952">
        <ele>2017.1920125682</ele>
        <time>2001-05-23T12:28:35.23</time>
      </trkpt>
      <trkpt lat="42.52998" lon="2.0495">
        <ele>2017.039562848</ele>
        <time>2001-05-23T12:28:36.23</time>
      </trkpt>
      <trkpt lat="42.52998" lon="2.0495">
        <ele>2017.5740468899</ele>
        <time>2001-05-23T12:28:37.23</time>
      </trkpt>
      <trkpt lat="42.52998" lon="2.0495">
        <ele>2018.1765509963</ele>
        <time>2001-05-23T12:28:38.23</time>
      </trkpt>
      <trkpt lat="42.52998" lon="2.0495">
        <ele>2018.5916650752</ele>
        <time>2001-05-23T12:28:39.23</time>
      </trkpt>
      <trkpt lat="42.53" lon="2.04949">
        <ele>2019.0105516588</ele>
        <time>2001-05-23T12:28:40.20</time>
      </trkpt>
      <trkpt lat="42.53" lon="2.04949">
        <ele>2019.7293132665</ele>
        <time>2001-05-23T12:28:41.20</time>
      </trkpt>
      <trkpt lat="42.53001" lon="2.04949">
        <ele>2020.0759258378</ele>
        <time>2001-05-23T12:28:42.20</time>
      </trkpt>
      <trkpt lat="42.53" lon="2.04947">
        <ele>2020.1658901632</ele>
        <time>2001-05-23T12:28:43.19</time>
      </trkpt>
      <trkpt lat="42.52999" lon="2.04946">
        <ele>2019.8966696987</ele>
        <time>2001-05-23T12:28:44.19</time>
      </trkpt>
      <trkpt lat="42.52999" lon="2.04945">
        <ele>2019.2870192256</ele>
        <time>2001-05-23T12:28:45.19</time>
      </trkpt>
      <trkpt lat="42.52997" lon="2.04943">
        <ele>2017.8572417231</ele>
        <time>2001-05-23T12:28:46.19</time>
      </trkpt>
      <trkpt lat="42.52997" lon="2.04942">
        <ele>2016.4564675165</ele>
        <time>2001-05-23T12:28:47.19</time>
      </trkpt>
      <trkpt lat="42.52998" lon="2.04941">
        <ele>2015.154238186</ele>
        <time>2001-05-23T12:28:48.19</time>
      </trkpt>
      <trkpt lat="42.52999" lon="2.0494">
        <ele>2014.6910429688</ele>
        <time>2001-05-23T12:28:49.19</time>
      </trkpt>
      <trkpt lat="42.52999" lon="2.0494">
        <ele>2014.4889456289</ele>
        <time>2001-05-23T12:28:50.19</time>
      </trkpt>
      <trkpt lat="42.53" lon="2.04938">
        <ele>2014.5614259835</ele>
        <time>2001-05-23T12:28:51.17</time>
      </trkpt>
      <trkpt lat="42.53" lon="2.04937">
        <ele>2014.9330594204</ele>
        <time>2001-05-23T12:28:52.17</time>
      </trkpt>
      <trkpt lat="42.52999" lon="2.04935">
        <ele>2015.6000698065</ele>
        <time>2001-05-23T12:28:53.17</time>
      </trkpt>
      <trkpt lat="42.53" lon="2.04933">
        <ele>2015.6213409966</ele>
        <time>2001-05-23T12:28:54.17</time>
      </trkpt>
      <trkpt lat="42.52998" lon="2.04932">
        <ele>2015.5225072145</ele>
        <time>2001-05-23T12:28:55.17</time>
      </trkpt>
      <trkpt lat="42.52998" lon="2.04931">
        <ele>2015.5456840532</ele>
        <time>2001-05-23T12:28:56.17</time>
      </trkpt>
      <trkpt lat="42.52998" lon="2.04931">
        <ele>2015.4354004512</ele>
        <time>2001-05-23T12:28:57.17</time>
      </trkpt>
      <trkpt lat="42.52997" lon="2.0493">
        <ele>2015.245614312</ele>
        <time>2001-05-23T12:28:58.17</time>
      </trkpt>
      <trkpt lat="42.52998" lon="2.04928">
        <ele>2015.3149730576</ele>
        <time>2001-05-23T12:28:59.19</time>
      </trkpt>
      <trkpt lat="42.52998" lon="2.04927">
        <ele>2015.6476537973</ele>
        <time>2001-05-23T12:29:00.19</time>
      </trkpt>
      <trkpt lat="42.52998" lon="2.04925">
        <ele>2015.8952905061</ele>
        <time>2001-05-23T12:29:01.18</time>
      </trkpt>
      <trkpt lat="42.52998" lon="2.04924">
        <ele>2016.014446648</ele>
        <time>2001-05-23T12:29:02.18</time>
      </trkpt>
      <trkpt lat="42.52998" lon="2.04923">
        <ele>2015.7912516685</ele>
        <time>2001-05-23T12:29:03.18</time>
      </trkpt>
      <trkpt lat="42.52997" lon="2.04922">
        <ele>2015.2619471306</ele>
        <time>2001-05-23T12:29:04.18</time>
      </trkpt>
      <trkpt lat="42.52996" lon="2.04921">
        <ele>2014.6002939302</ele>
        <time>2001-05-23T12:29:05.11</time>
      </trkpt>
      <trkpt lat="42.52996" lon="2.0492">
        <ele>2013.932241171</ele>
        <time>2001-05-23T12:29:06.11</time>
      </trkpt>
      <trkpt lat="42.52996" lon="2.04918">
        <ele>2013.485012242</ele>
        <time>2001-05-23T12:29:07.11</time>
      </trkpt>
      <trkpt lat="42.52996" lon="2.04917">
        <ele>2013.3485679889</ele>
        <time>2001-05-23T12:29:08.11</time>
      </trkpt>
      <trkpt lat="42.52996" lon="2.04916">
        <ele>2013.5954685027</ele>
        <time>2001-05-23T12:29:09.11</time>
      </trkpt>
      <trkpt lat="42.52996" lon="2.04916">
        <ele>2013.6735870669</ele>
        <time>2001-05-23T12:29:10.11</time>
      </trkpt>
      <trkpt lat="42.52997" lon="2.04916">
        <ele>2014.1720521845</ele>
        <time>2001-05-23T12:29:11.11</time>
      </trkpt>
      <trkpt lat="42.52999" lon="2.04916">
        <ele>2014.8230936758</ele>
        <time>2001-05-23T12:29:12.11</time>
      </trkpt>
      <trkpt lat="42.53" lon="2.04915">
        <ele>2015.8223429412</ele>
        <time>2001-05-23T12:29:13.11</time>
      </trkpt>
      <trkpt lat="42.53" lon="2.04915">
        <ele>2016.6511019859</ele>
        <time>2001-05-23T12:29:14.11</time>
      </trkpt>
      <trkpt lat="42.53" lon="2.04915">
        <ele>2017.6377746208</ele>
        <time>2001-05-23T12:29:15.11</time>
      </trkpt>
      <trkpt lat="42.53" lon="2.04913">
        <ele>2018.2246410036</ele>
        <time>2001-05-23T12:29:16.16</time>
      </trkpt>
      <trkpt lat="42.53" lon="2.04912">
        <ele>2018.5164788121</ele>
        <time>2001-05-23T12:29:17.16</time>
      </trkpt>
      <trkpt lat="42.52999" lon="2.0491">
        <ele>2018.308505415</ele>
        <time>2001-05-23T12:29:18.16</time>
      </trkpt>
      <trkpt lat="42.52999" lon="2.04909">
        <ele>2017.8093487153</ele>
        <time>2001-05-23T12:29:19.16</time>
      </trkpt>
      <trkpt lat="42.52999" lon="2.04908">
        <ele>2017.4961898383</ele>
        <time>2001-05-23T12:29:20.16</time>
      </trkpt>
      <trkpt lat="42.53" lon="2.04907">
        <ele>2017.4059883719</ele>
        <time>2001-05-23T12:29:21.16</time>
      </trkpt>
      <trkpt lat="42.53" lon="2.04906">
        <ele>2017.6424648896</ele>
        <time>2001-05-23T12:29:22.16</time>
      </trkpt>
      <trkpt lat="42.53" lon="2.04905">
        <ele>2017.8660774939</ele>
        <time>2001-05-23T12:29:23.16</time>
      </trkpt>
      <trkpt lat="42.52999" lon="2.04904">
        <ele>2018.4991534051</ele>
        <time>2001-05-23T12:29:24.16</time>
      </trkpt>
      <trkpt lat="42.53" lon="2.04903">
        <ele>2019.2072843358</ele>
        <time>2001-05-23T12:29:25.16</time>
      </trkpt>
      <trkpt lat="42.53" lon="2.04902">
        <ele>2019.9401830221</ele>
        <time>2001-05-23T12:29:26.16</time>
      </trkpt>
      <trkpt lat="42.53" lon="2.04901">
        <ele>2020.3697903929</ele>
        <time>2001-05-23T12:29:27.16</time>
      </trkpt>
      <trkpt lat="42.53" lon="2.04899">
        <ele>2020.8315876873</ele>
        <time>2001-05-23T12:29:28.16</time>
      </trkpt>
      <trkpt lat="42.53" lon="2.04898">
        <ele>2021.0706618413</ele>
        <time>2001-05-23T12:29:29.16</time>
      </trkpt>
      <trkpt lat="42.52999" lon="2.04897">
        <ele>2021.0284240277</ele>
        <time>2001-05-23T12:29:30.16</time>
      </trkpt>
      <trkpt lat="42.52998" lon="2.04896">
        <ele>2020.3875173869</ele>
        <time>2001-05-23T12:29:31.16</time>
      </trkpt>
      <trkpt lat="42.52997" lon="2.04894">
        <ele>2019.5123227874</ele>
        <time>2001-05-23T12:29:32.16</time>
      </trkpt>
      <trkpt lat="42.52997" lon="2.04894">
        <ele>2018.7432010127</ele>
        <time>2001-05-23T12:29:33.16</time>
      </trkpt>
      <trkpt lat="42.52997" lon="2.04893">
        <ele>2018.0676924549</ele>
        <time>2001-05-23T12:29:34.16</time>
      </trkpt>
      <trkpt lat="42.52998" lon="2.04893">
        <ele>2017.5638434956</ele>
        <time>2001-05-23T12:29:35.16</time>
      </trkpt>
      <trkpt lat="42.52998" lon="2.04893">
        <ele>2017.4434038222</ele>
        <time>2001-05-23T12:29:36.16</time>
      </trkpt>
      <trkpt lat="42.52997" lon="2.0489">
        <ele>2017.2975745538</ele>
        <time>2001-05-23T12:29:37.16</time>
      </trkpt>
      <trkpt lat="42.52997" lon="2.04889">
        <ele>2016.8083618483</ele>
        <time>2001-05-23T12:29:38.16</time>
      </trkpt>
      <trkpt lat="42.52996" lon="2.04888">
        <ele>2016.092162572</ele>
        <time>2001-05-23T12:29:39.16</time>
      </trkpt>
      <trkpt lat="42.52995" lon="2.04887">
        <ele>2014.9884018099</ele>
        <time>2001-05-23T12:29:40.16</time>
      </trkpt>
      <trkpt lat="42.52994" lon="2.04886">
        <ele>2013.6576400325</ele>
        <time>2001-05-23T12:29:41.16</time>
      </trkpt>
      <trkpt lat="42.52994" lon="2.04884">
        <ele>2012.3569272112</ele>
        <time>2001-05-23T12:29:42.16</time>
      </trkpt>
      <trkpt lat="42.52994" lon="2.04883">
        <ele>2011.5980857654</ele>
        <time>2001-05-23T12:29:43.16</time>
      </trkpt>
      <trkpt lat="42.52995" lon="2.04884">
        <ele>2011.1818878882</ele>
        <time>2001-05-23T12:29:44.16</time>
      </trkpt>
      <trkpt lat="42.52996" lon="2.04884">
        <ele>2011.2045926731</ele>
        <time>2001-05-23T12:29:45.16</time>
      </trkpt>
      <trkpt lat="42.52997" lon="2.04883">
        <ele>2011.4443217721</ele>
        <time>2001-05-23T12:29:46.16</time>
      </trkpt>
      <trkpt lat="42.52997" lon="2.04881">
        <ele>2011.7295724759</ele>
        <time>2001-05-23T12:29:47.16</time>
      </trkpt>
      <trkpt lat="42.52997" lon="2.0488">
        <ele>2011.6782869542</ele>
        <time>2001-05-23T12:29:48.16</time>
      </trkpt>
      <trkpt lat="42.52998" lon="2.04879">
        <ele>2011.7735505817</ele>
        <time>2001-05-23T12:29:49.16</time>
      </trkpt>
      <trkpt lat="42.52999" lon="2.04878">
        <ele>2011.9713644397</ele>
        <time>2001-05-23T12:29:50.16</time>
      </trkpt>
      <trkpt lat="42.52998" lon="2.04876">
        <ele>2012.5242296429</ele>
        <time>2001-05-23T12:29:51.16</time>
      </trkpt>
      <trkpt lat="42.52997" lon="2.04875">
        <ele>2013.2977928624</ele>
        <time>2001-05-23T12:29:52.16</time>
      </trkpt>
      <trkpt lat="42.52998" lon="2.04874">
        <ele>2014.4567375861</ele>
        <time>2001-05-23T12:29:53.16</time>
      </trkpt>
      <trkpt lat="42.52997" lon="2.04874">
        <ele>2015.1462014582</ele>
        <time>2001-05-23T12:29:54.16</time>
      </trkpt>
      <trkpt lat="42.52996" lon="2.04873">
        <ele>2015.3843457153</ele>
        <time>2001-05-23T12:29:55.16</time>
      </trkpt>
      <trkpt lat="42.52993" lon="2.04872">
        <ele>2015.0560673671</ele>
        <time>2001-05-23T12:29:56.16</time>
      </trkpt>
      <trkpt lat="42.52992" lon="2.04871">
        <ele>2014.3921581922</ele>
        <time>2001-05-23T12:29:57.16</time>
      </trkpt>
      <trkpt lat="42.52991" lon="2.0487">
        <ele>2012.9215900624</ele>
        <time>2001-05-23T12:29:58.16</time>
      </trkpt>
      <trkpt lat="42.5299" lon="2.04869">
        <ele>2011.5483426906</ele>
        <time>2001-05-23T12:29:59.16</time>
      </trkpt>
      <trkpt lat="42.52991" lon="2.04868">
        <ele>2010.4479955068</ele>
        <time>2001-05-23T12:30:00.16</time>
      </trkpt>
      <trkpt lat="42.52989" lon="2.04866">
        <ele>2009.6680899229</ele>
        <time>2001-05-23T12:30:01.16</time>
      </trkpt>
      <trkpt lat="42.52989" lon="2.04866">
        <ele>2009.2139464108</ele>
        <time>2001-05-23T12:30:02.16</time>
      </trkpt>
      <trkpt lat="42.52991" lon="2.04866">
        <ele>2009.646569512</ele>
        <time>2001-05-23T12:30:03.16</time>
      </trkpt>
      <trkpt lat="42.52991" lon="2.04866">
        <ele>2010.1999764789</ele>
        <time>2001-05-23T12:30:04.16</time>
      </trkpt>
      <trkpt lat="42.52991" lon="2.04865">
        <ele>2010.9129453503</ele>
        <time>2001-05-23T12:30:05.16</time>
      </trkpt>
      <trkpt lat="42.52991" lon="2.04865">
        <ele>2011.5268205829</ele>
        <time>2001-05-23T12:30:06.16</time>
      </trkpt>
      <trkpt lat="42.52991" lon="2.04862">
        <ele>2012.5922685087</ele>
        <time>2001-05-23T12:30:07.14</time>
      </trkpt>
      <trkpt lat="42.52993" lon="2.0486">
        <ele>2013.6132503169</ele>
        <time>2001-05-23T12:30:08.14</time>
      </trkpt>
      <trkpt lat="42.52993" lon="2.04857">
        <ele>2014.6167191867</ele>
        <time>2001-05-23T12:30:09.14</time>
      </trkpt>
      <trkpt lat="42.52993" lon="2.04856">
        <ele>2015.5961828543</ele>
        <time>2001-05-23T12:30:10.14</time>
      </trkpt>
      <trkpt lat="42.52993" lon="2.04856">
        <ele>2016.3219784746</ele>
        <time>2001-05-23T12:30:11.14</time>
      </trkpt>
      <trkpt lat="42.52993" lon="2.04856">
        <ele>2016.5962014018</ele>
        <time>2001-05-23T12:30:12.14</time>
      </trkpt>
      <trkpt lat="42.52992" lon="2.04855">
        <ele>2016.53034756</ele>
        <time>2001-05-23T12:30:13.14</time>
      </trkpt>
      <trkpt lat="42.52993" lon="2.04853">
        <ele>2016.171065701</ele>
        <time>2001-05-23T12:30:14.13</time>
      </trkpt>
      <trkpt lat="42.52992" lon="2.04853">
        <ele>2015.173529226</ele>
        <time>2001-05-23T12:30:15.13</time>
      </trkpt>
      <trkpt lat="42.52994" lon="2.04852">
        <ele>2014.7319688715</ele>
        <time>2001-05-23T12:30:16.14</time>
      </trkpt>
      <trkpt lat="42.52995" lon="2.04851">
        <ele>2014.5583787616</ele>
        <time>2001-05-23T12:30:17.14</time>
      </trkpt>
      <trkpt lat="42.52996" lon="2.0485">
        <ele>2014.5350677809</ele>
        <time>2001-05-23T12:30:18.14</time>
      </trkpt>
      <trkpt lat="42.52996" lon="2.04849">
        <ele>2014.9492290635</ele>
        <time>2001-05-23T12:30:19.14</time>
      </trkpt>
      <trkpt lat="42.52996" lon="2.04849">
        <ele>2015.7392158071</ele>
        <time>2001-05-23T12:30:20.14</time>
      </trkpt>
      <trkpt lat="42.52995" lon="2.04849">
        <ele>2016.1461327938</ele>
        <time>2001-05-23T12:30:21.18</time>
      </trkpt>
      <trkpt lat="42.52995" lon="2.04849">
        <ele>2016.285079536</ele>
        <time>2001-05-23T12:30:22.18</time>
      </trkpt>
      <trkpt lat="42.52993" lon="2.04849">
        <ele>2016.6768257588</ele>
        <time>2001-05-23T12:30:23.18</time>
      </trkpt>
      <trkpt lat="42.52992" lon="2.04849">
        <ele>2017.076985017</ele>
        <time>2001-05-23T12:30:24.18</time>
      </trkpt>
      <trkpt lat="42.52993" lon="2.04849">
        <ele>2017.6171900157</ele>
        <time>2001-05-23T12:30:25.37</time>
      </trkpt>
      <trkpt lat="42.52994" lon="2.04848">
        <ele>2018.1823894871</ele>
        <time>2001-05-23T12:30:26.37</time>
      </trkpt>
      <trkpt lat="42.52995" lon="2.04848">
        <ele>2018.7196769364</ele>
        <time>2001-05-23T12:30:27.32</time>
      </trkpt>
      <trkpt lat="42.52995" lon="2.04848">
        <ele>2018.9109877871</ele>
        <time>2001-05-23T12:30:28.32</time>
      </trkpt>
      <trkpt lat="42.52996" lon="2.04848">
        <ele>2019.0595717993</ele>
        <time>2001-05-23T12:30:29.30</time>
      </trkpt>
      <trkpt lat="42.52998" lon="2.04847">
        <ele>2018.9872519489</ele>
        <time>2001-05-23T12:30:30.30</time>
      </trkpt>
      <trkpt lat="42.53" lon="2.04846">
        <ele>2019.0181510918</ele>
        <time>2001-05-23T12:30:31.30</time>
      </trkpt>
      <trkpt lat="42.53001" lon="2.04845">
        <ele>2018.8463282444</ele>
        <time>2001-05-23T12:30:32.30</time>
      </trkpt>
      <trkpt lat="42.53001" lon="2.04844">
        <ele>2018.091448079</ele>
        <time>2001-05-23T12:30:33.30</time>
      </trkpt>
      <trkpt lat="42.53001" lon="2.04844">
        <ele>2017.2443504091</ele>
        <time>2001-05-23T12:30:34.30</time>
      </trkpt>
      <trkpt lat="42.53001" lon="2.04844">
        <ele>2016.4781108612</ele>
        <time>2001-05-23T12:30:35.30</time>
      </trkpt>
      <trkpt lat="42.53002" lon="2.04843">
        <ele>2015.6866549509</ele>
        <time>2001-05-23T12:30:36.31</time>
      </trkpt>
      <trkpt lat="42.53002" lon="2.04843">
        <ele>2014.9951716378</ele>
        <time>2001-05-23T12:30:37.31</time>
      </trkpt>
      <trkpt lat="42.53002" lon="2.04842">
        <ele>2015.3711700443</ele>
        <time>2001-05-23T12:30:38.31</time>
      </trkpt>
      <trkpt lat="42.53002" lon="2.04842">
        <ele>2015.7471684508</ele>
        <time>2001-05-23T12:30:39.31</time>
      </trkpt>
      <trkpt lat="42.53003" lon="2.04841">
        <ele>2016.1707478581</ele>
        <time>2001-05-23T12:30:40.31</time>
      </trkpt>
      <trkpt lat="42.53004" lon="2.0484">
        <ele>2016.8496219929</ele>
        <time>2001-05-23T12:30:41.31</time>
      </trkpt>
      <trkpt lat="42.53005" lon="2.0484">
        <ele>2017.8125131104</ele>
        <time>2001-05-23T12:30:42.31</time>
      </trkpt>
      <trkpt lat="42.53006" lon="2.0484">
        <ele>2018.6146796677</ele>
        <time>2001-05-23T12:30:43.31</time>
      </trkpt>
      <trkpt lat="42.53007" lon="2.04838">
        <ele>2019.9670629727</ele>
        <time>2001-05-23T12:30:44.31</time>
      </trkpt>
      <trkpt lat="42.53007" lon="2.04838">
        <ele>2021.6886767322</ele>
        <time>2001-05-23T12:30:45.31</time>
      </trkpt>
      <trkpt lat="42.53007" lon="2.04837">
        <ele>2022.7544027705</ele>
        <time>2001-05-23T12:30:46.33</time>
      </trkpt>
      <trkpt lat="42.53007" lon="2.04837">
        <ele>2023.6667732412</ele>
        <time>2001-05-23T12:30:47.33</time>
      </trkpt>
      <trkpt lat="42.53008" lon="2.04834">
        <ele>2024.5332392748</ele>
        <time>2001-05-23T12:30:48.33</time>
      </trkpt>
      <trkpt lat="42.53009" lon="2.04833">
        <ele>2025.0101566887</ele>
        <time>2001-05-23T12:30:49.33</time>
      </trkpt>
      <trkpt lat="42.53009" lon="2.04832">
        <ele>2024.7889583539</ele>
        <time>2001-05-23T12:30:50.32</time>
      </trkpt>
      <trkpt lat="42.5301" lon="2.04831">
        <ele>2024.7693231015</ele>
        <time>2001-05-23T12:30:51.32</time>
      </trkpt>
      <trkpt lat="42.5301" lon="2.04829">
        <ele>2024.7353010844</ele>
        <time>2001-05-23T12:30:52.33</time>
      </trkpt>
      <trkpt lat="42.5301" lon="2.04829">
        <ele>2024.4234836631</ele>
        <time>2001-05-23T12:30:53.33</time>
      </trkpt>
      <trkpt lat="42.53012" lon="2.04828">
        <ele>2024.3280562321</ele>
        <time>2001-05-23T12:30:54.35</time>
      </trkpt>
      <trkpt lat="42.53011" lon="2.04826">
        <ele>2024.4937787957</ele>
        <time>2001-05-23T12:30:55.35</time>
      </trkpt>
      <trkpt lat="42.53012" lon="2.04825">
        <ele>2024.5165429197</ele>
        <time>2001-05-23T12:30:56.35</time>
      </trkpt>
      <trkpt lat="42.53013" lon="2.04824">
        <ele>2024.3767579287</ele>
        <time>2001-05-23T12:30:57.35</time>
      </trkpt>
      <trkpt lat="42.53013" lon="2.04825">
        <ele>2024.4500865979</ele>
        <time>2001-05-23T12:30:58.35</time>
      </trkpt>
      <trkpt lat="42.53013" lon="2.04823">
        <ele>2023.8687021649</ele>
        <time>2001-05-23T12:30:59.35</time>
      </trkpt>
      <trkpt lat="42.53014" lon="2.04822">
        <ele>2023.2819745686</ele>
        <time>2001-05-23T12:31:00.35</time>
      </trkpt>
      <trkpt lat="42.53015" lon="2.0482">
        <ele>2023.291118421</ele>
        <time>2001-05-23T12:31:01.35</time>
      </trkpt>
      <trkpt lat="42.53016" lon="2.0482">
        <ele>2023.5493624425</ele>
        <time>2001-05-23T12:31:02.35</time>
      </trkpt>
      <trkpt lat="42.53016" lon="2.04819">
        <ele>2023.2971012525</ele>
        <time>2001-05-23T12:31:03.35</time>
      </trkpt>
      <trkpt lat="42.53017" lon="2.04818">
        <ele>2023.3097500099</ele>
        <time>2001-05-23T12:31:04.35</time>
      </trkpt>
      <trkpt lat="42.53018" lon="2.04818">
        <ele>2023.3680134997</ele>
        <time>2001-05-23T12:31:05.35</time>
      </trkpt>
      <trkpt lat="42.53018" lon="2.04817">
        <ele>2023.1701869315</ele>
        <time>2001-05-23T12:31:06.35</time>
      </trkpt>
      <trkpt lat="42.53019" lon="2.04816">
        <ele>2023.0011718649</ele>
        <time>2001-05-23T12:31:07.35</time>
      </trkpt>
      <trkpt lat="42.53019" lon="2.04815">
        <ele>2023.0700917633</ele>
        <time>2001-05-23T12:31:08.35</time>
      </trkpt>
      <trkpt lat="42.5302" lon="2.04814">
        <ele>2022.4487288952</ele>
        <time>2001-05-23T12:31:09.34</time>
      </trkpt>
      <trkpt lat="42.5302" lon="2.04813">
        <ele>2021.8055806421</ele>
        <time>2001-05-23T12:31:10.34</time>
      </trkpt>
      <trkpt lat="42.53021" lon="2.04812">
        <ele>2021.3661692526</ele>
        <time>2001-05-23T12:31:11.34</time>
      </trkpt>
      <trkpt lat="42.53023" lon="2.04811">
        <ele>2021.2384104006</ele>
        <time>2001-05-23T12:31:12.34</time>
      </trkpt>
      <trkpt lat="42.53024" lon="2.04811">
        <ele>2021.5231893286</ele>
        <time>2001-05-23T12:31:13.34</time>
      </trkpt>
      <trkpt lat="42.53024" lon="2.04811">
        <ele>2022.5109960599</ele>
        <time>2001-05-23T12:31:14.34</time>
      </trkpt>
      <trkpt lat="42.53023" lon="2.0481">
        <ele>2023.396757685</ele>
        <time>2001-05-23T12:31:15.36</time>
      </trkpt>
      <trkpt lat="42.53023" lon="2.0481">
        <ele>2024.058753987</ele>
        <time>2001-05-23T12:31:16.36</time>
      </trkpt>
      <trkpt lat="42.53022" lon="2.04809">
        <ele>2024.4321425691</ele>
        <time>2001-05-23T12:31:17.37</time>
      </trkpt>
      <trkpt lat="42.53022" lon="2.04809">
        <ele>2024.4524499575</ele>
        <time>2001-05-23T12:31:18.37</time>
      </trkpt>
      <trkpt lat="42.53022" lon="2.04808">
        <ele>2024.0936036011</ele>
        <time>2001-05-23T12:31:19.39</time>
      </trkpt>
      <trkpt lat="42.53022" lon="2.04808">
        <ele>2023.8384704651</ele>
        <time>2001-05-23T12:31:20.39</time>
      </trkpt>
      <trkpt lat="42.53023" lon="2.04806">
        <ele>2024.1520034848</ele>
        <time>2001-05-23T12:31:21.41</time>
      </trkpt>
      <trkpt lat="42.53024" lon="2.04806">
        <ele>2024.8940797908</ele>
        <time>2001-05-23T12:31:22.41</time>
      </trkpt>
      <trkpt lat="42.53025" lon="2.04805">
        <ele>2025.8871537754</ele>
        <time>2001-05-23T12:31:23.41</time>
      </trkpt>
      <trkpt lat="42.53025" lon="2.04805">
        <ele>2027.2593815047</ele>
        <time>2001-05-23T12:31:24.41</time>
      </trkpt>
      <trkpt lat="42.53027" lon="2.04804">
        <ele>2028.0115061417</ele>
        <time>2001-05-23T12:31:25.40</time>
      </trkpt>
      <trkpt lat="42.53028" lon="2.04803">
        <ele>2028.3071886493</ele>
        <time>2001-05-23T12:31:26.40</time>
      </trkpt>
      <trkpt lat="42.53029" lon="2.04801">
        <ele>2028.4531630453</ele>
        <time>2001-05-23T12:31:27.40</time>
      </trkpt>
      <trkpt lat="42.5303" lon="2.048">
        <ele>2028.0250070222</ele>
        <time>2001-05-23T12:31:28.40</time>
      </trkpt>
      <trkpt lat="42.53031" lon="2.048">
        <ele>2027.4797453361</ele>
        <time>2001-05-23T12:31:29.40</time>
      </trkpt>
      <trkpt lat="42.53032" lon="2.048">
        <ele>2027.4089512663</ele>
        <time>2001-05-23T12:31:30.40</time>
      </trkpt>
      <trkpt lat="42.53032" lon="2.048">
        <ele>2027.3424392723</ele>
        <time>2001-05-23T12:31:31.40</time>
      </trkpt>
      <trkpt lat="42.53032" lon="2.048">
        <ele>2026.8730714947</ele>
        <time>2001-05-23T12:31:32.40</time>
      </trkpt>
      <trkpt lat="42.53033" lon="2.04798">
        <ele>2026.9221077736</ele>
        <time>2001-05-23T12:31:33.39</time>
      </trkpt>
      <trkpt lat="42.53033" lon="2.04798">
        <ele>2027.4134760542</ele>
        <time>2001-05-23T12:31:34.39</time>
      </trkpt>
      <trkpt lat="42.53035" lon="2.04797">
        <ele>2028.3920567527</ele>
        <time>2001-05-23T12:31:35.40</time>
      </trkpt>
      <trkpt lat="42.53036" lon="2.04797">
        <ele>2029.340633834</ele>
        <time>2001-05-23T12:31:36.40</time>
      </trkpt>
      <trkpt lat="42.53035" lon="2.04795">
        <ele>2029.8882794427</ele>
        <time>2001-05-23T12:31:37.39</time>
      </trkpt>
      <trkpt lat="42.53035" lon="2.04794">
        <ele>2029.8834991504</ele>
        <time>2001-05-23T12:31:38.39</time>
      </trkpt>
      <trkpt lat="42.53035" lon="2.04792">
        <ele>2029.0392142531</ele>
        <time>2001-05-23T12:31:39.39</time>
      </trkpt>
      <trkpt lat="42.53035" lon="2.04791">
        <ele>2027.664810266</ele>
        <time>2001-05-23T12:31:40.39</time>
      </trkpt>
      <trkpt lat="42.53035" lon="2.0479">
        <ele>2025.9601910103</ele>
        <time>2001-05-23T12:31:41.39</time>
      </trkpt>
      <trkpt lat="42.53035" lon="2.0479">
        <ele>2024.6565032272</ele>
        <time>2001-05-23T12:31:42.39</time>
      </trkpt>
      <trkpt lat="42.53036" lon="2.04789">
        <ele>2023.8462008102</ele>
        <time>2001-05-23T12:31:43.38</time>
      </trkpt>
      <trkpt lat="42.53037" lon="2.04788">
        <ele>2023.801478806</ele>
        <time>2001-05-23T12:31:44.38</time>
      </trkpt>
      <trkpt lat="42.53038" lon="2.04787">
        <ele>2024.2131796241</ele>
        <time>2001-05-23T12:31:45.38</time>
      </trkpt>
      <trkpt lat="42.53039" lon="2.04787">
        <ele>2024.3463248303</ele>
        <time>2001-05-23T12:31:46.38</time>
      </trkpt>
      <trkpt lat="42.53038" lon="2.04785">
        <ele>2024.107358259</ele>
        <time>2001-05-23T12:31:47.38</time>
      </trkpt>
      <trkpt lat="42.53038" lon="2.04784">
        <ele>2023.5356343454</ele>
        <time>2001-05-23T12:31:48.38</time>
      </trkpt>
      <trkpt lat="42.53039" lon="2.04783">
        <ele>2022.5932168879</ele>
        <time>2001-05-23T12:31:49.38</time>
      </trkpt>
      <trkpt lat="42.5304" lon="2.04783">
        <ele>2021.7516723724</ele>
        <time>2001-05-23T12:31:50.38</time>
      </trkpt>
      <trkpt lat="42.53041" lon="2.04782">
        <ele>2021.4781171625</ele>
        <time>2001-05-23T12:31:51.38</time>
      </trkpt>
      <trkpt lat="42.53041" lon="2.04782">
        <ele>2021.5766737303</ele>
        <time>2001-05-23T12:31:52.38</time>
      </trkpt>
      <trkpt lat="42.53041" lon="2.04782">
        <ele>2021.8717568591</ele>
        <time>2001-05-23T12:31:53.38</time>
      </trkpt>
      <trkpt lat="42.53043" lon="2.04782">
        <ele>2022.5670185907</ele>
        <time>2001-05-23T12:31:54.38</time>
      </trkpt>
      <trkpt lat="42.53043" lon="2.04782">
        <ele>2022.8935267055</ele>
        <time>2001-05-23T12:31:55.38</time>
      </trkpt>
      <trkpt lat="42.53044" lon="2.0478">
        <ele>2023.4414020712</ele>
        <time>2001-05-23T12:31:56.38</time>
      </trkpt>
      <trkpt lat="42.53046" lon="2.0478">
        <ele>2023.7720599759</ele>
        <time>2001-05-23T12:31:57.38</time>
      </trkpt>
      <trkpt lat="42.53048" lon="2.04781">
        <ele>2024.3663017767</ele>
        <time>2001-05-23T12:31:58.38</time>
      </trkpt>
      <trkpt lat="42.53048" lon="2.04781">
        <ele>2024.6797563722</ele>
        <time>2001-05-23T12:31:59.38</time>
      </trkpt>
      <trkpt lat="42.53048" lon="2.04781">
        <ele>2024.9932109678</ele>
        <time>2001-05-23T12:32:00.38</time>
      </trkpt>
      <trkpt lat="42.53049" lon="2.04781">
        <ele>2025.0208736166</ele>
        <time>2001-05-23T12:32:01.38</time>
      </trkpt>
      <trkpt lat="42.53049" lon="2.04779">
        <ele>2025.5504982896</ele>
        <time>2001-05-23T12:32:02.39</time>
      </trkpt>
      <trkpt lat="42.5305" lon="2.04778">
        <ele>2026.1583181947</ele>
        <time>2001-05-23T12:32:03.39</time>
      </trkpt>
      <trkpt lat="42.5305" lon="2.04776">
        <ele>2027.1049224319</ele>
        <time>2001-05-23T12:32:04.39</time>
      </trkpt>
      <trkpt lat="42.53049" lon="2.04775">
        <ele>2027.8390236204</ele>
        <time>2001-05-23T12:32:05.39</time>
      </trkpt>
      <trkpt lat="42.53049" lon="2.04774">
        <ele>2028.2828484325</ele>
        <time>2001-05-23T12:32:06.39</time>
      </trkpt>
      <trkpt lat="42.5305" lon="2.04774">
        <ele>2028.7446702523</ele>
        <time>2001-05-23T12:32:07.39</time>
      </trkpt>
      <trkpt lat="42.53051" lon="2.04771">
        <ele>2028.6018607646</ele>
        <time>2001-05-23T12:32:08.38</time>
      </trkpt>
      <trkpt lat="42.53052" lon="2.0477">
        <ele>2028.3861501398</ele>
        <time>2001-05-23T12:32:09.38</time>
      </trkpt>
      <trkpt lat="42.53053" lon="2.04769">
        <ele>2028.5733164484</ele>
        <time>2001-05-23T12:32:10.38</time>
      </trkpt>
      <trkpt lat="42.53054" lon="2.04769">
        <ele>2029.3257999828</ele>
        <time>2001-05-23T12:32:11.38</time>
      </trkpt>
      <trkpt lat="42.53053" lon="2.04768">
        <ele>2029.4903077025</ele>
        <time>2001-05-23T12:32:12.38</time>
      </trkpt>
      <trkpt lat="42.53053" lon="2.04768">
        <ele>2029.9176676016</ele>
        <time>2001-05-23T12:32:13.38</time>
      </trkpt>
      <trkpt lat="42.53054" lon="2.04768">
        <ele>2030.0137283033</ele>
        <time>2001-05-23T12:32:14.40</time>
      </trkpt>
      <trkpt lat="42.53055" lon="2.04767">
        <ele>2029.9822253067</ele>
        <time>2001-05-23T12:32:15.40</time>
      </trkpt>
      <trkpt lat="42.53056" lon="2.04767">
        <ele>2029.4249081273</ele>
        <time>2001-05-23T12:32:16.40</time>
      </trkpt>
      <trkpt lat="42.53057" lon="2.04766">
        <ele>2029.2830853404</ele>
        <time>2001-05-23T12:32:17.40</time>
      </trkpt>
      <trkpt lat="42.53059" lon="2.04766">
        <ele>2029.3944130013</ele>
        <time>2001-05-23T12:32:18.40</time>
      </trkpt>
      <trkpt lat="42.5306" lon="2.04765">
        <ele>2030.1052071091</ele>
        <time>2001-05-23T12:32:19.40</time>
      </trkpt>
      <trkpt lat="42.53062" lon="2.04764">
        <ele>2030.8604599966</ele>
        <time>2001-05-23T12:32:20.40</time>
      </trkpt>
      <trkpt lat="42.53062" lon="2.04762">
        <ele>2032.0165501781</ele>
        <time>2001-05-23T12:32:21.40</time>
      </trkpt>
      <trkpt lat="42.53061" lon="2.04759">
        <ele>2032.1866856555</ele>
        <time>2001-05-23T12:32:22.40</time>
      </trkpt>
      <trkpt lat="42.53062" lon="2.04759">
        <ele>2032.0591943888</ele>
        <time>2001-05-23T12:32:23.40</time>
      </trkpt>
      <trkpt lat="42.53063" lon="2.04758">
        <ele>2031.2212911531</ele>
        <time>2001-05-23T12:32:24.40</time>
      </trkpt>
      <trkpt lat="42.53064" lon="2.04757">
        <ele>2030.3260297745</ele>
        <time>2001-05-23T12:32:25.40</time>
      </trkpt>
      <trkpt lat="42.53064" lon="2.04756">
        <ele>2029.1608364156</ele>
        <time>2001-05-23T12:32:26.40</time>
      </trkpt>
      <trkpt lat="42.53064" lon="2.04755">
        <ele>2028.9695040401</ele>
        <time>2001-05-23T12:32:27.40</time>
      </trkpt>
      <trkpt lat="42.53065" lon="2.04754">
        <ele>2028.8273507014</ele>
        <time>2001-05-23T12:32:28.40</time>
      </trkpt>
      <trkpt lat="42.53065" lon="2.04753">
        <ele>2028.8767354054</ele>
        <time>2001-05-23T12:32:29.40</time>
      </trkpt>
      <trkpt lat="42.53065" lon="2.04752">
        <ele>2028.8959798347</ele>
        <time>2001-05-23T12:32:30.40</time>
      </trkpt>
      <trkpt lat="42.53066" lon="2.04752">
        <ele>2029.0689004349</ele>
        <time>2001-05-23T12:32:31.40</time>
      </trkpt>
      <trkpt lat="42.53069" lon="2.04751">
        <ele>2029.4388021292</ele>
        <time>2001-05-23T12:32:32.40</time>
      </trkpt>
      <trkpt lat="42.53069" lon="2.04751">
        <ele>2029.5409697754</ele>
        <time>2001-05-23T12:32:33.40</time>
      </trkpt>
      <trkpt lat="42.53069" lon="2.04751">
        <ele>2029.6279609036</ele>
        <time>2001-05-23T12:32:34.40</time>
      </trkpt>
      <trkpt lat="42.53069" lon="2.04751">
        <ele>2029.695181483</ele>
        <time>2001-05-23T12:32:35.40</time>
      </trkpt>
      <trkpt lat="42.53069" lon="2.04753">
        <ele>2029.3177603019</ele>
        <time>2001-05-23T12:32:36.40</time>
      </trkpt>
      <trkpt lat="42.53069" lon="2.04754">
        <ele>2028.4140234396</ele>
        <time>2001-05-23T12:32:37.38</time>
      </trkpt>
      <trkpt lat="42.53069" lon="2.04754">
        <ele>2027.773317885</ele>
        <time>2001-05-23T12:32:38.38</time>
      </trkpt>
      <trkpt lat="42.53071" lon="2.04755">
        <ele>2027.3915111145</ele>
        <time>2001-05-23T12:32:39.35</time>
      </trkpt>
      <trkpt lat="42.53071" lon="2.04755">
        <ele>2027.009704344</ele>
        <time>2001-05-23T12:32:40.35</time>
      </trkpt>
      <trkpt lat="42.53072" lon="2.04753">
        <ele>2026.2520731527</ele>
        <time>2001-05-23T12:32:41.33</time>
      </trkpt>
      <trkpt lat="42.53073" lon="2.04752">
        <ele>2025.5334921792</ele>
        <time>2001-05-23T12:32:42.33</time>
      </trkpt>
      <trkpt lat="42.53074" lon="2.04751">
        <ele>2025.1082626441</ele>
        <time>2001-05-23T12:32:43.33</time>
      </trkpt>
      <trkpt lat="42.53076" lon="2.04749">
        <ele>2024.9435179211</ele>
        <time>2001-05-23T12:32:44.33</time>
      </trkpt>
      <trkpt lat="42.53076" lon="2.04749">
        <ele>2024.8136158783</ele>
        <time>2001-05-23T12:32:45.33</time>
      </trkpt>
      <trkpt lat="42.53076" lon="2.04748">
        <ele>2025.5774432756</ele>
        <time>2001-05-23T12:32:46.33</time>
      </trkpt>
      <trkpt lat="42.53077" lon="2.04747">
        <ele>2026.7975493057</ele>
        <time>2001-05-23T12:32:47.33</time>
      </trkpt>
      <trkpt lat="42.53078" lon="2.04746">
        <ele>2027.9713793579</ele>
        <time>2001-05-23T12:32:48.33</time>
      </trkpt>
      <trkpt lat="42.53078" lon="2.04745">
        <ele>2028.5695673538</ele>
        <time>2001-05-23T12:32:49.33</time>
      </trkpt>
      <trkpt lat="42.53079" lon="2.04743">
        <ele>2029.0328086827</ele>
        <time>2001-05-23T12:32:50.46</time>
      </trkpt>
      <trkpt lat="42.5308" lon="2.04742">
        <ele>2029.688151427</ele>
        <time>2001-05-23T12:32:51.46</time>
      </trkpt>
      <trkpt lat="42.5308" lon="2.04741">
        <ele>2029.678986375</ele>
        <time>2001-05-23T12:32:52.46</time>
      </trkpt>
      <trkpt lat="42.53079" lon="2.0474">
        <ele>2028.9805085402</ele>
        <time>2001-05-23T12:32:53.46</time>
      </trkpt>
      <trkpt lat="42.5308" lon="2.04738">
        <ele>2028.3832158525</ele>
        <time>2001-05-23T12:32:54.46</time>
      </trkpt>
      <trkpt lat="42.53079" lon="2.04737">
        <ele>2027.5943357918</ele>
        <time>2001-05-23T12:32:55.46</time>
      </trkpt>
      <trkpt lat="42.5308" lon="2.04737">
        <ele>2026.4815150494</ele>
        <time>2001-05-23T12:32:56.46</time>
      </trkpt>
      <trkpt lat="42.5308" lon="2.04736">
        <ele>2025.7198321944</ele>
        <time>2001-05-23T12:32:57.46</time>
      </trkpt>
      <trkpt lat="42.53081" lon="2.04735">
        <ele>2025.4470193926</ele>
        <time>2001-05-23T12:32:58.40</time>
      </trkpt>
      <trkpt lat="42.53082" lon="2.04734">
        <ele>2025.0600244904</ele>
        <time>2001-05-23T12:32:59.40</time>
      </trkpt>
      <trkpt lat="42.53082" lon="2.04733">
        <ele>2024.6652771456</ele>
        <time>2001-05-23T12:33:00.40</time>
      </trkpt>
      <trkpt lat="42.53084" lon="2.04732">
        <ele>2024.5862550816</ele>
        <time>2001-05-23T12:33:01.40</time>
      </trkpt>
      <trkpt lat="42.53085" lon="2.04731">
        <ele>2025.0754357602</ele>
        <time>2001-05-23T12:33:02.40</time>
      </trkpt>
      <trkpt lat="42.53085" lon="2.04731">
        <ele>2025.5850968082</ele>
        <time>2001-05-23T12:33:03.40</time>
      </trkpt>
      <trkpt lat="42.53086" lon="2.0473">
        <ele>2026.0567829879</ele>
        <time>2001-05-23T12:33:04.40</time>
      </trkpt>
      <trkpt lat="42.53086" lon="2.04729">
        <ele>2026.6832046608</ele>
        <time>2001-05-23T12:33:05.40</time>
      </trkpt>
      <trkpt lat="42.53087" lon="2.04727">
        <ele>2026.845411285</ele>
        <time>2001-05-23T12:33:06.40</time>
      </trkpt>
      <trkpt lat="42.53087" lon="2.04726">
        <ele>2026.5193093158</ele>
        <time>2001-05-23T12:33:07.40</time>
      </trkpt>
      <trkpt lat="42.53086" lon="2.04726">
        <ele>2025.8030214505</ele>
        <time>2001-05-23T12:33:08.40</time>
      </trkpt>
      <trkpt lat="42.53086" lon="2.04726">
        <ele>2025.1939638671</ele>
        <time>2001-05-23T12:33:09.40</time>
      </trkpt>
      <trkpt lat="42.53084" lon="2.04725">
        <ele>2024.8551374886</ele>
        <time>2001-05-23T12:33:10.39</time>
      </trkpt>
      <trkpt lat="42.53084" lon="2.04725">
        <ele>2024.708272521</ele>
        <time>2001-05-23T12:33:11.39</time>
      </trkpt>
      <trkpt lat="42.53083" lon="2.04725">
        <ele>2024.2741419055</ele>
        <time>2001-05-23T12:33:12.39</time>
      </trkpt>
      <trkpt lat="42.53083" lon="2.04725">
        <ele>2024.1630840858</ele>
        <time>2001-05-23T12:33:13.39</time>
      </trkpt>
      <trkpt lat="42.53083" lon="2.04727">
        <ele>2023.8993680241</ele>
        <time>2001-05-23T12:33:14.39</time>
      </trkpt>
      <trkpt lat="42.53083" lon="2.04727">
        <ele>2023.5101290664</ele>
        <time>2001-05-23T12:33:15.39</time>
      </trkpt>
      <trkpt lat="42.53085" lon="2.04727">
        <ele>2023.4694342325</ele>
        <time>2001-05-23T12:33:16.38</time>
      </trkpt>
      <trkpt lat="42.53085" lon="2.04727">
        <ele>2023.665320114</ele>
        <time>2001-05-23T12:33:17.38</time>
      </trkpt>
      <trkpt lat="42.53086" lon="2.04726">
        <ele>2024.0402010504</ele>
        <time>2001-05-23T12:33:18.38</time>
      </trkpt>
      <trkpt lat="42.53087" lon="2.04725">
        <ele>2024.7324412381</ele>
        <time>2001-05-23T12:33:19.38</time>
      </trkpt>
      <trkpt lat="42.53088" lon="2.04724">
        <ele>2025.4539496627</ele>
        <time>2001-05-23T12:33:20.38</time>
      </trkpt>
      <trkpt lat="42.53088" lon="2.04723">
        <ele>2025.9887429357</ele>
        <time>2001-05-23T12:33:21.38</time>
      </trkpt>
      <trkpt lat="42.53088" lon="2.04722">
        <ele>2026.7231123433</ele>
        <time>2001-05-23T12:33:22.38</time>
      </trkpt>
      <trkpt lat="42.53088" lon="2.04722">
        <ele>2027.1189423993</ele>
        <time>2001-05-23T12:33:23.38</time>
      </trkpt>
      <trkpt lat="42.53088" lon="2.04723">
        <ele>2027.3699063145</ele>
        <time>2001-05-23T12:33:24.37</time>
      </trkpt>
      <trkpt lat="42.53088" lon="2.04723">
        <ele>2027.5916019928</ele>
        <time>2001-05-23T12:33:25.37</time>
      </trkpt>
      <trkpt lat="42.53089" lon="2.04722">
        <ele>2027.768893812</ele>
        <time>2001-05-23T12:33:26.38</time>
      </trkpt>
      <trkpt lat="42.53089" lon="2.04721">
        <ele>2027.8276870087</ele>
        <time>2001-05-23T12:33:27.38</time>
      </trkpt>
      <trkpt lat="42.53089" lon="2.0472">
        <ele>2028.0733854949</ele>
        <time>2001-05-23T12:33:28.38</time>
      </trkpt>
      <trkpt lat="42.5309" lon="2.04719">
        <ele>2028.4720154511</ele>
        <time>2001-05-23T12:33:29.38</time>
      </trkpt>
      <trkpt lat="42.53091" lon="2.04718">
        <ele>2029.0920949189</ele>
        <time>2001-05-23T12:33:30.38</time>
      </trkpt>
      <trkpt lat="42.53091" lon="2.04716">
        <ele>2029.8421371132</ele>
        <time>2001-05-23T12:33:31.38</time>
      </trkpt>
      <trkpt lat="42.53092" lon="2.04715">
        <ele>2030.5872330813</ele>
        <time>2001-05-23T12:33:32.38</time>
      </trkpt>
      <trkpt lat="42.53092" lon="2.04714">
        <ele>2031.2973770602</ele>
        <time>2001-05-23T12:33:33.38</time>
      </trkpt>
      <trkpt lat="42.53092" lon="2.04713">
        <ele>2031.7552522676</ele>
        <time>2001-05-23T12:33:34.38</time>
      </trkpt>
      <trkpt lat="42.53093" lon="2.04712">
        <ele>2031.932204256</ele>
        <time>2001-05-23T12:33:35.38</time>
      </trkpt>
      <trkpt lat="42.53094" lon="2.04711">
        <ele>2031.978166688</ele>
        <time>2001-05-23T12:33:36.38</time>
      </trkpt>
      <trkpt lat="42.53095" lon="2.04711">
        <ele>2032.198386544</ele>
        <time>2001-05-23T12:33:37.38</time>
      </trkpt>
      <trkpt lat="42.53095" lon="2.04711">
        <ele>2032.5662197564</ele>
        <time>2001-05-23T12:33:38.38</time>
      </trkpt>
      <trkpt lat="42.53095" lon="2.04711">
        <ele>2033.0135554021</ele>
        <time>2001-05-23T12:33:39.38</time>
      </trkpt>
      <trkpt lat="42.53096" lon="2.0471">
        <ele>2033.9063351797</ele>
        <time>2001-05-23T12:33:40.37</time>
      </trkpt>
      <trkpt lat="42.53096" lon="2.0471">
        <ele>2034.682716674</ele>
        <time>2001-05-23T12:33:41.37</time>
      </trkpt>
      <trkpt lat="42.53096" lon="2.04711">
        <ele>2035.101544001</ele>
        <time>2001-05-23T12:33:42.36</time>
      </trkpt>
      <trkpt lat="42.53096" lon="2.04711">
        <ele>2035.3803489678</ele>
        <time>2001-05-23T12:33:43.36</time>
      </trkpt>
      <trkpt lat="42.53096" lon="2.04711">
        <ele>2035.5969597412</ele>
        <time>2001-05-23T12:33:44.37</time>
      </trkpt>
      <trkpt lat="42.53096" lon="2.0471">
        <ele>2035.2857501723</ele>
        <time>2001-05-23T12:33:45.37</time>
      </trkpt>
      <trkpt lat="42.53095" lon="2.04707">
        <ele>2034.2759930072</ele>
        <time>2001-05-23T12:33:46.37</time>
      </trkpt>
      <trkpt lat="42.53095" lon="2.04706">
        <ele>2033.0063575601</ele>
        <time>2001-05-23T12:33:47.37</time>
      </trkpt>
      <trkpt lat="42.53096" lon="2.04705">
        <ele>2031.6457789458</ele>
        <time>2001-05-23T12:33:48.37</time>
      </trkpt>
      <trkpt lat="42.53096" lon="2.04704">
        <ele>2030.1978950119</ele>
        <time>2001-05-23T12:33:49.37</time>
      </trkpt>
      <trkpt lat="42.53096" lon="2.04703">
        <ele>2028.7866932478</ele>
        <time>2001-05-23T12:33:50.37</time>
      </trkpt>
      <trkpt lat="42.53097" lon="2.04701">
        <ele>2028.4738139011</ele>
        <time>2001-05-23T12:33:51.36</time>
      </trkpt>
      <trkpt lat="42.53098" lon="2.04701">
        <ele>2028.5658402316</ele>
        <time>2001-05-23T12:33:52.36</time>
      </trkpt>
      <trkpt lat="42.531" lon="2.047">
        <ele>2029.1858405158</ele>
        <time>2001-05-23T12:33:53.36</time>
      </trkpt>
      <trkpt lat="42.53101" lon="2.047">
        <ele>2029.9513683505</ele>
        <time>2001-05-23T12:33:54.36</time>
      </trkpt>
      <trkpt lat="42.53101" lon="2.04699">
        <ele>2030.7809919801</ele>
        <time>2001-05-23T12:33:55.36</time>
      </trkpt>
      <trkpt lat="42.53101" lon="2.04698">
        <ele>2031.2236094337</ele>
        <time>2001-05-23T12:33:56.36</time>
      </trkpt>
      <trkpt lat="42.53101" lon="2.04697">
        <ele>2031.6811333343</ele>
        <time>2001-05-23T12:33:57.36</time>
      </trkpt>
      <trkpt lat="42.53103" lon="2.04697">
        <ele>2032.3175603194</ele>
        <time>2001-05-23T12:33:58.38</time>
      </trkpt>
      <trkpt lat="42.53104" lon="2.04697">
        <ele>2032.610929884</ele>
        <time>2001-05-23T12:33:59.38</time>
      </trkpt>
      <trkpt lat="42.53105" lon="2.04696">
        <ele>2033.1302606421</ele>
        <time>2001-05-23T12:34:00.38</time>
      </trkpt>
      <trkpt lat="42.53106" lon="2.04695">
        <ele>2033.9319962557</ele>
        <time>2001-05-23T12:34:01.38</time>
      </trkpt>
      <trkpt lat="42.53107" lon="2.04694">
        <ele>2034.7349237327</ele>
        <time>2001-05-23T12:34:02.38</time>
      </trkpt>
      <trkpt lat="42.53107" lon="2.04694">
        <ele>2034.7616640208</ele>
        <time>2001-05-23T12:34:03.38</time>
      </trkpt>
      <trkpt lat="42.53107" lon="2.04693">
        <ele>2034.8357755186</ele>
        <time>2001-05-23T12:34:04.38</time>
      </trkpt>
      <trkpt lat="42.53108" lon="2.04692">
        <ele>2034.647984048</ele>
        <time>2001-05-23T12:34:05.38</time>
      </trkpt>
      <trkpt lat="42.53109" lon="2.04691">
        <ele>2034.4273476919</ele>
        <time>2001-05-23T12:34:06.39</time>
      </trkpt>
      <trkpt lat="42.53109" lon="2.04691">
        <ele>2034.1527510881</ele>
        <time>2001-05-23T12:34:07.39</time>
      </trkpt>
      <trkpt lat="42.53112" lon="2.04687">
        <ele>2034.0908212695</ele>
        <time>2001-05-23T12:34:08.40</time>
      </trkpt>
      <trkpt lat="42.53112" lon="2.04686">
        <ele>2034.5991890922</ele>
        <time>2001-05-23T12:34:09.40</time>
      </trkpt>
      <trkpt lat="42.53114" lon="2.04683">
        <ele>2035.0310740434</ele>
        <time>2001-05-23T12:34:10.42</time>
      </trkpt>
      <trkpt lat="42.53115" lon="2.04682">
        <ele>2035.1697675757</ele>
        <time>2001-05-23T12:34:11.42</time>
      </trkpt>
      <trkpt lat="42.53115" lon="2.0468">
        <ele>2035.0776160887</ele>
        <time>2001-05-23T12:34:12.42</time>
      </trkpt>
      <trkpt lat="42.53115" lon="2.04679">
        <ele>2035.0773799267</ele>
        <time>2001-05-23T12:34:13.42</time>
      </trkpt>
      <trkpt lat="42.53116" lon="2.04678">
        <ele>2034.523725025</ele>
        <time>2001-05-23T12:34:14.41</time>
      </trkpt>
      <trkpt lat="42.53116" lon="2.04677">
        <ele>2034.0774047885</ele>
        <time>2001-05-23T12:34:15.41</time>
      </trkpt>
      <trkpt lat="42.53118" lon="2.04676">
        <ele>2033.942367118</ele>
        <time>2001-05-23T12:34:16.42</time>
      </trkpt>
      <trkpt lat="42.5312" lon="2.04675">
        <ele>2034.1127832117</ele>
        <time>2001-05-23T12:34:17.42</time>
      </trkpt>
      <trkpt lat="42.5312" lon="2.04673">
        <ele>2034.440963392</ele>
        <time>2001-05-23T12:34:18.42</time>
      </trkpt>
      <trkpt lat="42.53122" lon="2.04672">
        <ele>2035.2145934081</ele>
        <time>2001-05-23T12:34:19.42</time>
      </trkpt>
      <trkpt lat="42.53122" lon="2.04672">
        <ele>2035.9023561349</ele>
        <time>2001-05-23T12:34:20.42</time>
      </trkpt>
      <trkpt lat="42.53122" lon="2.04671">
        <ele>2036.2505956929</ele>
        <time>2001-05-23T12:34:21.42</time>
      </trkpt>
      <trkpt lat="42.53122" lon="2.0467">
        <ele>2036.5245091153</ele>
        <time>2001-05-23T12:34:22.42</time>
      </trkpt>
      <trkpt lat="42.53124" lon="2.0467">
        <ele>2036.5872012611</ele>
        <time>2001-05-23T12:34:23.42</time>
      </trkpt>
      <trkpt lat="42.53124" lon="2.0467">
        <ele>2036.4872228429</ele>
        <time>2001-05-23T12:34:24.42</time>
      </trkpt>
      <trkpt lat="42.53125" lon="2.0467">
        <ele>2036.6888121545</ele>
        <time>2001-05-23T12:34:25.40</time>
      </trkpt>
      <trkpt lat="42.53125" lon="2.04669">
        <ele>2036.7175400294</ele>
        <time>2001-05-23T12:34:26.40</time>
      </trkpt>
      <trkpt lat="42.53126" lon="2.04668">
        <ele>2036.4811077209</ele>
        <time>2001-05-23T12:34:27.40</time>
      </trkpt>
      <trkpt lat="42.53126" lon="2.04666">
        <ele>2035.8076086449</ele>
        <time>2001-05-23T12:34:28.40</time>
      </trkpt>
      <trkpt lat="42.53127" lon="2.04666">
        <ele>2035.0153938619</ele>
        <time>2001-05-23T12:34:29.40</time>
      </trkpt>
      <trkpt lat="42.53127" lon="2.04667">
        <ele>2033.7175830172</ele>
        <time>2001-05-23T12:34:30.40</time>
      </trkpt>
      <trkpt lat="42.53127" lon="2.04667">
        <ele>2032.6517370153</ele>
        <time>2001-05-23T12:34:31.40</time>
      </trkpt>
      <trkpt lat="42.53126" lon="2.04667">
        <ele>2031.7901055168</ele>
        <time>2001-05-23T12:34:32.41</time>
      </trkpt>
      <trkpt lat="42.53126" lon="2.04667">
        <ele>2031.2746691834</ele>
        <time>2001-05-23T12:34:33.41</time>
      </trkpt>
      <trkpt lat="42.53125" lon="2.04666">
        <ele>2031.0336766766</ele>
        <time>2001-05-23T12:34:34.38</time>
      </trkpt>
      <trkpt lat="42.53124" lon="2.04667">
        <ele>2030.8343286162</ele>
        <time>2001-05-23T12:34:35.38</time>
      </trkpt>
      <trkpt lat="42.53125" lon="2.04666">
        <ele>2030.5441146666</ele>
        <time>2001-05-23T12:34:36.40</time>
      </trkpt>
      <trkpt lat="42.53125" lon="2.04665">
        <ele>2030.3755146993</ele>
        <time>2001-05-23T12:34:37.40</time>
      </trkpt>
      <trkpt lat="42.53126" lon="2.04664">
        <ele>2030.3402663751</ele>
        <time>2001-05-23T12:34:38.40</time>
      </trkpt>
      <trkpt lat="42.53126" lon="2.04662">
        <ele>2030.0827976173</ele>
        <time>2001-05-23T12:34:39.40</time>
      </trkpt>
      <trkpt lat="42.53127" lon="2.04661">
        <ele>2030.077506621</ele>
        <time>2001-05-23T12:34:40.40</time>
      </trkpt>
      <trkpt lat="42.53127" lon="2.04661">
        <ele>2030.146761835</ele>
        <time>2001-05-23T12:34:41.40</time>
      </trkpt>
      <trkpt lat="42.53128" lon="2.0466">
        <ele>2030.0608055433</ele>
        <time>2001-05-23T12:34:42.40</time>
      </trkpt>
      <trkpt lat="42.53128" lon="2.0466">
        <ele>2029.9142864799</ele>
        <time>2001-05-23T12:34:43.40</time>
      </trkpt>
      <trkpt lat="42.5313" lon="2.04658">
        <ele>2030.6987721769</ele>
        <time>2001-05-23T12:34:44.40</time>
      </trkpt>
      <trkpt lat="42.53131" lon="2.04657">
        <ele>2031.9982993001</ele>
        <time>2001-05-23T12:34:45.40</time>
      </trkpt>
      <trkpt lat="42.53132" lon="2.04657">
        <ele>2033.1111826444</ele>
        <time>2001-05-23T12:34:46.40</time>
      </trkpt>
      <trkpt lat="42.53132" lon="2.04656">
        <ele>2033.9486557072</ele>
        <time>2001-05-23T12:34:47.40</time>
      </trkpt>
      <trkpt lat="42.53132" lon="2.04655">
        <ele>2034.6080761319</ele>
        <time>2001-05-23T12:34:48.40</time>
      </trkpt>
      <trkpt lat="42.53134" lon="2.04654">
        <ele>2034.5763491504</ele>
        <time>2001-05-23T12:34:49.40</time>
      </trkpt>
      <trkpt lat="42.53134" lon="2.04653">
        <ele>2033.9962010728</ele>
        <time>2001-05-23T12:34:50.40</time>
      </trkpt>
      <trkpt lat="42.53134" lon="2.04653">
        <ele>2033.7361109424</ele>
        <time>2001-05-23T12:34:51.40</time>
      </trkpt>
      <trkpt lat="42.53136" lon="2.04652">
        <ele>2034.0832923783</ele>
        <time>2001-05-23T12:34:52.40</time>
      </trkpt>
      <trkpt lat="42.53136" lon="2.04651">
        <ele>2034.577917812</ele>
        <time>2001-05-23T12:34:53.40</time>
      </trkpt>
      <trkpt lat="42.53136" lon="2.0465">
        <ele>2035.4939876236</ele>
        <time>2001-05-23T12:34:54.40</time>
      </trkpt>
      <trkpt lat="42.53137" lon="2.04649">
        <ele>2036.5955187669</ele>
        <time>2001-05-23T12:34:55.40</time>
      </trkpt>
      <trkpt lat="42.53138" lon="2.04648">
        <ele>2037.6682335086</ele>
        <time>2001-05-23T12:34:56.40</time>
      </trkpt>
      <trkpt lat="42.53139" lon="2.04647">
        <ele>2038.5568632957</ele>
        <time>2001-05-23T12:34:57.40</time>
      </trkpt>
      <trkpt lat="42.5314" lon="2.04647">
        <ele>2039.1909999151</ele>
        <time>2001-05-23T12:34:58.40</time>
      </trkpt>
      <trkpt lat="42.5314" lon="2.04646">
        <ele>2039.1433098335</ele>
        <time>2001-05-23T12:34:59.40</time>
      </trkpt>
      <trkpt lat="42.53141" lon="2.04645">
        <ele>2038.8434913239</ele>
        <time>2001-05-23T12:35:00.40</time>
      </trkpt>
      <trkpt lat="42.5314" lon="2.04643">
        <ele>2038.1502977448</ele>
        <time>2001-05-23T12:35:01.40</time>
      </trkpt>
      <trkpt lat="42.5314" lon="2.04642">
        <ele>2037.2457660148</ele>
        <time>2001-05-23T12:35:02.40</time>
      </trkpt>
      <trkpt lat="42.53141" lon="2.04642">
        <ele>2036.5110765526</ele>
        <time>2001-05-23T12:35:03.40</time>
      </trkpt>
      <trkpt lat="42.53142" lon="2.04641">
        <ele>2035.8686460948</ele>
        <time>2001-05-23T12:35:04.40</time>
      </trkpt>
      <trkpt lat="42.53143" lon="2.0464">
        <ele>2035.6092114618</ele>
        <time>2001-05-23T12:35:05.40</time>
      </trkpt>
      <trkpt lat="42.53143" lon="2.04639">
        <ele>2035.4868189743</ele>
        <time>2001-05-23T12:35:06.40</time>
      </trkpt>
      <trkpt lat="42.53143" lon="2.04639">
        <ele>2035.3659168551</ele>
        <time>2001-05-23T12:35:07.40</time>
      </trkpt>
      <trkpt lat="42.53143" lon="2.04638">
        <ele>2035.1708066138</ele>
        <time>2001-05-23T12:35:08.40</time>
      </trkpt>
      <trkpt lat="42.53145" lon="2.04636">
        <ele>2035.4176197158</ele>
        <time>2001-05-23T12:35:09.41</time>
      </trkpt>
      <trkpt lat="42.53147" lon="2.04635">
        <ele>2035.5007348569</ele>
        <time>2001-05-23T12:35:10.41</time>
      </trkpt>
      <trkpt lat="42.53148" lon="2.04635">
        <ele>2035.8715914739</ele>
        <time>2001-05-23T12:35:11.41</time>
      </trkpt>
      <trkpt lat="42.53149" lon="2.04635">
        <ele>2036.5909982698</ele>
        <time>2001-05-23T12:35:12.41</time>
      </trkpt>
      <trkpt lat="42.5315" lon="2.04635">
        <ele>2037.655335719</ele>
        <time>2001-05-23T12:35:13.41</time>
      </trkpt>
      <trkpt lat="42.53151" lon="2.04635">
        <ele>2038.2272262909</ele>
        <time>2001-05-23T12:35:14.41</time>
      </trkpt>
      <trkpt lat="42.53151" lon="2.04633">
        <ele>2038.63606191</ele>
        <time>2001-05-23T12:35:15.41</time>
      </trkpt>
      <trkpt lat="42.53152" lon="2.04633">
        <ele>2038.8754398035</ele>
        <time>2001-05-23T12:35:16.41</time>
      </trkpt>
      <trkpt lat="42.53153" lon="2.04632">
        <ele>2038.8404726069</ele>
        <time>2001-05-23T12:35:17.41</time>
      </trkpt>
      <trkpt lat="42.53153" lon="2.04631">
        <ele>2038.3698123259</ele>
        <time>2001-05-23T12:35:18.41</time>
      </trkpt>
      <trkpt lat="42.53153" lon="2.0463">
        <ele>2037.7621658523</ele>
        <time>2001-05-23T12:35:19.41</time>
      </trkpt>
      <trkpt lat="42.53154" lon="2.04629">
        <ele>2037.2769848185</ele>
        <time>2001-05-23T12:35:20.41</time>
      </trkpt>
      <trkpt lat="42.53154" lon="2.04629">
        <ele>2036.9167463701</ele>
        <time>2001-05-23T12:35:21.41</time>
      </trkpt>
      <trkpt lat="42.53156" lon="2.04629">
        <ele>2036.7689533386</ele>
        <time>2001-05-23T12:35:22.37</time>
      </trkpt>
      <trkpt lat="42.53156" lon="2.04628">
        <ele>2036.8213466359</ele>
        <time>2001-05-23T12:35:23.37</time>
      </trkpt>
      <trkpt lat="42.53156" lon="2.04627">
        <ele>2037.1688903634</ele>
        <time>2001-05-23T12:35:24.35</time>
      </trkpt>
      <trkpt lat="42.53157" lon="2.04626">
        <ele>2037.6191384489</ele>
        <time>2001-05-23T12:35:25.35</time>
      </trkpt>
      <trkpt lat="42.53158" lon="2.04626">
        <ele>2038.131659425</ele>
        <time>2001-05-23T12:35:26.35</time>
      </trkpt>
      <trkpt lat="42.53159" lon="2.04625">
        <ele>2038.6783412004</ele>
        <time>2001-05-23T12:35:27.35</time>
      </trkpt>
      <trkpt lat="42.5316" lon="2.04625">
        <ele>2039.3014185337</ele>
        <time>2001-05-23T12:35:28.35</time>
      </trkpt>
      <trkpt lat="42.53161" lon="2.04624">
        <ele>2039.7675007731</ele>
        <time>2001-05-23T12:35:29.35</time>
      </trkpt>
      <trkpt lat="42.53161" lon="2.04623">
        <ele>2040.2640469449</ele>
        <time>2001-05-23T12:35:30.35</time>
      </trkpt>
      <trkpt lat="42.53162" lon="2.04623">
        <ele>2040.6306502279</ele>
        <time>2001-05-23T12:35:31.35</time>
      </trkpt>
      <trkpt lat="42.53162" lon="2.04622">
        <ele>2040.5868997507</ele>
        <time>2001-05-23T12:35:32.35</time>
      </trkpt>
      <trkpt lat="42.53164" lon="2.04622">
        <ele>2040.2672784779</ele>
        <time>2001-05-23T12:35:33.35</time>
      </trkpt>
      <trkpt lat="42.53165" lon="2.04622">
        <ele>2040.1148450086</ele>
        <time>2001-05-23T12:35:34.35</time>
      </trkpt>
      <trkpt lat="42.53166" lon="2.04621">
        <ele>2039.9307972047</ele>
        <time>2001-05-23T12:35:35.35</time>
      </trkpt>
      <trkpt lat="42.53167" lon="2.04621">
        <ele>2039.7757837225</ele>
        <time>2001-05-23T12:35:36.35</time>
      </trkpt>
      <trkpt lat="42.53168" lon="2.0462">
        <ele>2039.918102723</ele>
        <time>2001-05-23T12:35:37.35</time>
      </trkpt>
      <trkpt lat="42.53169" lon="2.04619">
        <ele>2040.4107027346</ele>
        <time>2001-05-23T12:35:38.35</time>
      </trkpt>
      <trkpt lat="42.5317" lon="2.04618">
        <ele>2040.9116326667</ele>
        <time>2001-05-23T12:35:39.35</time>
      </trkpt>
      <trkpt lat="42.53169" lon="2.04616">
        <ele>2040.8138558228</ele>
        <time>2001-05-23T12:35:40.35</time>
      </trkpt>
      <trkpt lat="42.5317" lon="2.04615">
        <ele>2040.5976828774</ele>
        <time>2001-05-23T12:35:41.35</time>
      </trkpt>
      <trkpt lat="42.5317" lon="2.04615">
        <ele>2040.200813194</ele>
        <time>2001-05-23T12:35:42.35</time>
      </trkpt>
      <trkpt lat="42.5317" lon="2.04614">
        <ele>2039.6149877416</ele>
        <time>2001-05-23T12:35:43.35</time>
      </trkpt>
      <trkpt lat="42.5317" lon="2.04613">
        <ele>2038.6408412049</ele>
        <time>2001-05-23T12:35:44.35</time>
      </trkpt>
      <trkpt lat="42.53172" lon="2.04612">
        <ele>2038.2847097501</ele>
        <time>2001-05-23T12:35:45.40</time>
      </trkpt>
      <trkpt lat="42.53172" lon="2.04611">
        <ele>2038.1356784265</ele>
        <time>2001-05-23T12:35:46.40</time>
      </trkpt>
      <trkpt lat="42.53173" lon="2.04609">
        <ele>2038.185537535</ele>
        <time>2001-05-23T12:35:47.42</time>
      </trkpt>
      <trkpt lat="42.53174" lon="2.04609">
        <ele>2038.1957423272</ele>
        <time>2001-05-23T12:35:48.42</time>
      </trkpt>
      <trkpt lat="42.53174" lon="2.04608">
        <ele>2038.2955452915</ele>
        <time>2001-05-23T12:35:49.42</time>
      </trkpt>
      <trkpt lat="42.53175" lon="2.04606">
        <ele>2038.1757153668</ele>
        <time>2001-05-23T12:35:50.42</time>
      </trkpt>
      <trkpt lat="42.53177" lon="2.04605">
        <ele>2038.3458455998</ele>
        <time>2001-05-23T12:35:51.42</time>
      </trkpt>
      <trkpt lat="42.53177" lon="2.04604">
        <ele>2038.6481245453</ele>
        <time>2001-05-23T12:35:52.42</time>
      </trkpt>
      <trkpt lat="42.53178" lon="2.04603">
        <ele>2039.2115479605</ele>
        <time>2001-05-23T12:35:53.42</time>
      </trkpt>
      <trkpt lat="42.53179" lon="2.04603">
        <ele>2040.1232457887</ele>
        <time>2001-05-23T12:35:54.42</time>
      </trkpt>
      <trkpt lat="42.53179" lon="2.04602">
        <ele>2041.21858906</ele>
        <time>2001-05-23T12:35:55.42</time>
      </trkpt>
      <trkpt lat="42.53179" lon="2.04601">
        <ele>2041.7828028483</ele>
        <time>2001-05-23T12:35:56.42</time>
      </trkpt>
      <trkpt lat="42.53182" lon="2.04598">
        <ele>2042.4877628759</ele>
        <time>2001-05-23T12:35:57.41</time>
      </trkpt>
      <trkpt lat="42.53183" lon="2.04598">
        <ele>2043.1308222068</ele>
        <time>2001-05-23T12:35:58.41</time>
      </trkpt>
      <trkpt lat="42.53184" lon="2.04598">
        <ele>2043.7024492139</ele>
        <time>2001-05-23T12:35:59.41</time>
      </trkpt>
      <trkpt lat="42.53185" lon="2.04597">
        <ele>2044.2930549111</ele>
        <time>2001-05-23T12:36:00.41</time>
      </trkpt>
      <trkpt lat="42.53185" lon="2.04597">
        <ele>2045.0317691475</ele>
        <time>2001-05-23T12:36:01.41</time>
      </trkpt>
      <trkpt lat="42.53187" lon="2.04595">
        <ele>2045.8649615211</ele>
        <time>2001-05-23T12:36:02.41</time>
      </trkpt>
      <trkpt lat="42.53186" lon="2.04592">
        <ele>2046.1998196736</ele>
        <time>2001-05-23T12:36:03.41</time>
      </trkpt>
      <trkpt lat="42.53187" lon="2.0459">
        <ele>2046.1843521228</ele>
        <time>2001-05-23T12:36:04.41</time>
      </trkpt>
      <trkpt lat="42.53187" lon="2.04589">
        <ele>2045.9277252614</ele>
        <time>2001-05-23T12:36:05.41</time>
      </trkpt>
      <trkpt lat="42.53187" lon="2.04588">
        <ele>2045.4976913193</ele>
        <time>2001-05-23T12:36:06.41</time>
      </trkpt>
      <trkpt lat="42.53188" lon="2.04588">
        <ele>2044.9271031847</ele>
        <time>2001-05-23T12:36:07.41</time>
      </trkpt>
      <trkpt lat="42.53188" lon="2.04588">
        <ele>2044.9598424407</ele>
        <time>2001-05-23T12:36:08.41</time>
      </trkpt>
      <trkpt lat="42.53187" lon="2.04588">
        <ele>2044.94913502</ele>
        <time>2001-05-23T12:36:09.48</time>
      </trkpt>
      <trkpt lat="42.53187" lon="2.04588">
        <ele>2045.0393071668</ele>
        <time>2001-05-23T12:36:10.48</time>
      </trkpt>
      <trkpt lat="42.53188" lon="2.04589">
        <ele>2045.3676489633</ele>
        <time>2001-05-23T12:36:11.47</time>
      </trkpt>
      <trkpt lat="42.53188" lon="2.04589">
        <ele>2045.3995201889</ele>
        <time>2001-05-23T12:36:12.47</time>
      </trkpt>
      <trkpt lat="42.53189" lon="2.04587">
        <ele>2044.7833654935</ele>
        <time>2001-05-23T12:36:13.47</time>
      </trkpt>
      <trkpt lat="42.53189" lon="2.04587">
        <ele>2044.4556309311</ele>
        <time>2001-05-23T12:36:14.47</time>
      </trkpt>
      <trkpt lat="42.5319" lon="2.04586">
        <ele>2044.2424336411</ele>
        <time>2001-05-23T12:36:15.47</time>
      </trkpt>
      <trkpt lat="42.5319" lon="2.04585">
        <ele>2043.9398500811</ele>
        <time>2001-05-23T12:36:16.47</time>
      </trkpt>
      <trkpt lat="42.53191" lon="2.04584">
        <ele>2043.6822885472</ele>
        <time>2001-05-23T12:36:17.47</time>
      </trkpt>
      <trkpt lat="42.53192" lon="2.04584">
        <ele>2043.797523571</ele>
        <time>2001-05-23T12:36:18.53</time>
      </trkpt>
      <trkpt lat="42.53193" lon="2.04583">
        <ele>2043.9391737694</ele>
        <time>2001-05-23T12:36:19.53</time>
      </trkpt>
      <trkpt lat="42.53194" lon="2.04583">
        <ele>2044.1017789846</ele>
        <time>2001-05-23T12:36:20.53</time>
      </trkpt>
      <trkpt lat="42.53194" lon="2.04582">
        <ele>2044.3056294534</ele>
        <time>2001-05-23T12:36:21.53</time>
      </trkpt>
      <trkpt lat="42.53195" lon="2.04581">
        <ele>2044.5152386721</ele>
        <time>2001-05-23T12:36:22.53</time>
      </trkpt>
      <trkpt lat="42.53194" lon="2.0458">
        <ele>2044.2845702015</ele>
        <time>2001-05-23T12:36:23.53</time>
      </trkpt>
      <trkpt lat="42.53194" lon="2.04579">
        <ele>2043.9482485745</ele>
        <time>2001-05-23T12:36:24.53</time>
      </trkpt>
      <trkpt lat="42.53195" lon="2.04577">
        <ele>2044.0947128206</ele>
        <time>2001-05-23T12:36:25.54</time>
      </trkpt>
      <trkpt lat="42.53196" lon="2.04577">
        <ele>2044.2597685792</ele>
        <time>2001-05-23T12:36:26.54</time>
      </trkpt>
      <trkpt lat="42.53195" lon="2.04575">
        <ele>2043.9918567523</ele>
        <time>2001-05-23T12:36:27.54</time>
      </trkpt>
      <trkpt lat="42.53195" lon="2.04574">
        <ele>2043.9404270943</ele>
        <time>2001-05-23T12:36:28.54</time>
      </trkpt>
      <trkpt lat="42.53195" lon="2.04573">
        <ele>2043.8397125991</ele>
        <time>2001-05-23T12:36:29.54</time>
      </trkpt>
      <trkpt lat="42.53196" lon="2.04573">
        <ele>2043.2676441967</ele>
        <time>2001-05-23T12:36:30.54</time>
      </trkpt>
      <trkpt lat="42.53198" lon="2.04572">
        <ele>2042.6744118687</ele>
        <time>2001-05-23T12:36:31.54</time>
      </trkpt>
      <trkpt lat="42.53199" lon="2.04571">
        <ele>2042.2513897965</ele>
        <time>2001-05-23T12:36:32.54</time>
      </trkpt>
      <trkpt lat="42.53201" lon="2.0457">
        <ele>2042.4166894885</ele>
        <time>2001-05-23T12:36:33.54</time>
      </trkpt>
      <trkpt lat="42.53202" lon="2.04569">
        <ele>2042.7800424302</ele>
        <time>2001-05-23T12:36:34.54</time>
      </trkpt>
      <trkpt lat="42.53201" lon="2.04568">
        <ele>2042.8944907663</ele>
        <time>2001-05-23T12:36:35.54</time>
      </trkpt>
      <trkpt lat="42.53202" lon="2.04569">
        <ele>2043.0344888328</ele>
        <time>2001-05-23T12:36:36.54</time>
      </trkpt>
      <trkpt lat="42.53202" lon="2.04569">
        <ele>2043.3864634527</ele>
        <time>2001-05-23T12:36:37.54</time>
      </trkpt>
      <trkpt lat="42.53203" lon="2.04568">
        <ele>2043.478616027</ele>
        <time>2001-05-23T12:36:38.53</time>
      </trkpt>
      <trkpt lat="42.53204" lon="2.04568">
        <ele>2043.4560355248</ele>
        <time>2001-05-23T12:36:39.53</time>
      </trkpt>
      <trkpt lat="42.53205" lon="2.04566">
        <ele>2043.4718724469</ele>
        <time>2001-05-23T12:36:40.55</time>
      </trkpt>
      <trkpt lat="42.53205" lon="2.04566">
        <ele>2043.4868066851</ele>
        <time>2001-05-23T12:36:41.55</time>
      </trkpt>
      <trkpt lat="42.53205" lon="2.04565">
        <ele>2043.6042455977</ele>
        <time>2001-05-23T12:36:42.55</time>
      </trkpt>
      <trkpt lat="42.53204" lon="2.04564">
        <ele>2043.3358304953</ele>
        <time>2001-05-23T12:36:43.55</time>
      </trkpt>
      <trkpt lat="42.53205" lon="2.04564">
        <ele>2043.4518907167</ele>
        <time>2001-05-23T12:36:44.55</time>
      </trkpt>
      <trkpt lat="42.53205" lon="2.04564">
        <ele>2043.6315138642</ele>
        <time>2001-05-23T12:36:45.55</time>
      </trkpt>
      <trkpt lat="42.53206" lon="2.04563">
        <ele>2043.849067938</ele>
        <time>2001-05-23T12:36:46.54</time>
      </trkpt>
      <trkpt lat="42.53207" lon="2.04562">
        <ele>2043.9635457443</ele>
        <time>2001-05-23T12:36:47.54</time>
      </trkpt>
      <trkpt lat="42.53209" lon="2.04561">
        <ele>2044.8285528008</ele>
        <time>2001-05-23T12:36:48.54</time>
      </trkpt>
      <trkpt lat="42.5321" lon="2.0456">
        <ele>2045.5025140582</ele>
        <time>2001-05-23T12:36:49.54</time>
      </trkpt>
      <trkpt lat="42.5321" lon="2.04558">
        <ele>2046.3846827144</ele>
        <time>2001-05-23T12:36:50.54</time>
      </trkpt>
      <trkpt lat="42.53211" lon="2.04558">
        <ele>2047.2624445328</ele>
        <time>2001-05-23T12:36:51.54</time>
      </trkpt>
      <trkpt lat="42.53211" lon="2.04558">
        <ele>2048.0863672782</ele>
        <time>2001-05-23T12:36:52.54</time>
      </trkpt>
      <trkpt lat="42.53214" lon="2.04557">
        <ele>2048.4152444985</ele>
        <time>2001-05-23T12:36:53.50</time>
      </trkpt>
      <trkpt lat="42.53215" lon="2.04557">
        <ele>2048.8200601051</ele>
        <time>2001-05-23T12:36:54.50</time>
      </trkpt>
      <trkpt lat="42.53216" lon="2.04556">
        <ele>2049.3053237375</ele>
        <time>2001-05-23T12:36:55.50</time>
      </trkpt>
      <trkpt lat="42.53216" lon="2.04556">
        <ele>2049.6861880289</ele>
        <time>2001-05-23T12:36:56.50</time>
      </trkpt>
      <trkpt lat="42.53217" lon="2.04556">
        <ele>2050.0528094839</ele>
        <time>2001-05-23T12:36:57.49</time>
      </trkpt>
      <trkpt lat="42.53219" lon="2.04556">
        <ele>2050.5787648547</ele>
        <time>2001-05-23T12:36:58.49</time>
      </trkpt>
      <trkpt lat="42.53219" lon="2.04556">
        <ele>2050.8763829751</ele>
        <time>2001-05-23T12:36:59.49</time>
      </trkpt>
      <trkpt lat="42.53219" lon="2.04555">
        <ele>2050.8322194081</ele>
        <time>2001-05-23T12:37:00.49</time>
      </trkpt>
      <trkpt lat="42.5322" lon="2.04554">
        <ele>2051.0942066524</ele>
        <time>2001-05-23T12:37:01.49</time>
      </trkpt>
      <trkpt lat="42.53221" lon="2.04553">
        <ele>2051.7833931519</ele>
        <time>2001-05-23T12:37:02.49</time>
      </trkpt>
      <trkpt lat="42.53222" lon="2.04552">
        <ele>2052.8809216725</ele>
        <time>2001-05-23T12:37:03.50</time>
      </trkpt>
      <trkpt lat="42.53223" lon="2.0455">
        <ele>2053.6047536734</ele>
        <time>2001-05-23T12:37:04.50</time>
      </trkpt>
      <trkpt lat="42.53223" lon="2.04549">
        <ele>2054.2474659575</ele>
        <time>2001-05-23T12:37:05.50</time>
      </trkpt>
      <trkpt lat="42.53223" lon="2.04549">
        <ele>2054.5840274302</ele>
        <time>2001-05-23T12:37:06.50</time>
      </trkpt>
      <trkpt lat="42.53223" lon="2.04549">
        <ele>2054.5620431505</ele>
        <time>2001-05-23T12:37:07.50</time>
      </trkpt>
      <trkpt lat="42.53224" lon="2.04548">
        <ele>2053.9416699227</ele>
        <time>2001-05-23T12:37:08.49</time>
      </trkpt>
      <trkpt lat="42.53224" lon="2.04548">
        <ele>2053.6949932145</ele>
        <time>2001-05-23T12:37:09.49</time>
      </trkpt>
      <trkpt lat="42.53228" lon="2.04549">
        <ele>2054.2439550808</ele>
        <time>2001-05-23T12:37:10.49</time>
      </trkpt>
      <trkpt lat="42.53228" lon="2.04549">
        <ele>2054.792916947</ele>
        <time>2001-05-23T12:37:11.49</time>
      </trkpt>
      <trkpt lat="42.53229" lon="2.04549">
        <ele>2055.3715566836</ele>
        <time>2001-05-23T12:37:12.49</time>
      </trkpt>
      <trkpt lat="42.53229" lon="2.04549">
        <ele>2056.0626271488</ele>
        <time>2001-05-23T12:37:13.49</time>
      </trkpt>
      <trkpt lat="42.5323" lon="2.04548">
        <ele>2056.7497027282</ele>
        <time>2001-05-23T12:37:14.45</time>
      </trkpt>
      <trkpt lat="42.5323" lon="2.04548">
        <ele>2056.7753857126</ele>
        <time>2001-05-23T12:37:15.45</time>
      </trkpt>
      <trkpt lat="42.53231" lon="2.04548">
        <ele>2056.8971122734</ele>
        <time>2001-05-23T12:37:16.47</time>
      </trkpt>
      <trkpt lat="42.53231" lon="2.04548">
        <ele>2056.9891609639</ele>
        <time>2001-05-23T12:37:17.47</time>
      </trkpt>
      <trkpt lat="42.53231" lon="2.04545">
        <ele>2056.679225599</ele>
        <time>2001-05-23T12:37:18.45</time>
      </trkpt>
      <trkpt lat="42.53231" lon="2.04545">
        <ele>2056.37328512</ele>
        <time>2001-05-23T12:37:19.45</time>
      </trkpt>
      <trkpt lat="42.53231" lon="2.04545">
        <ele>2056.2105312815</ele>
        <time>2001-05-23T12:37:20.43</time>
      </trkpt>
      <trkpt lat="42.53232" lon="2.04544">
        <ele>2055.9184935315</ele>
        <time>2001-05-23T12:37:21.43</time>
      </trkpt>
      <trkpt lat="42.53233" lon="2.04543">
        <ele>2055.6476585627</ele>
        <time>2001-05-23T12:37:22.43</time>
      </trkpt>
      <trkpt lat="42.53233" lon="2.04542">
        <ele>2055.4364594178</ele>
        <time>2001-05-23T12:37:23.42</time>
      </trkpt>
      <trkpt lat="42.53234" lon="2.04541">
        <ele>2055.1822892936</ele>
        <time>2001-05-23T12:37:24.42</time>
      </trkpt>
      <trkpt lat="42.53235" lon="2.0454">
        <ele>2054.7904349225</ele>
        <time>2001-05-23T12:37:25.42</time>
      </trkpt>
      <trkpt lat="42.53236" lon="2.04539">
        <ele>2054.5946982367</ele>
        <time>2001-05-23T12:37:26.42</time>
      </trkpt>
      <trkpt lat="42.53237" lon="2.04538">
        <ele>2054.0818017384</ele>
        <time>2001-05-23T12:37:27.42</time>
      </trkpt>
      <trkpt lat="42.53238" lon="2.04538">
        <ele>2053.9234320814</ele>
        <time>2001-05-23T12:37:28.42</time>
      </trkpt>
      <trkpt lat="42.53239" lon="2.04538">
        <ele>2053.8920505019</ele>
        <time>2001-05-23T12:37:29.42</time>
      </trkpt>
      <trkpt lat="42.5324" lon="2.04537">
        <ele>2054.1007037295</ele>
        <time>2001-05-23T12:37:30.42</time>
      </trkpt>
      <trkpt lat="42.53241" lon="2.04537">
        <ele>2054.439744769</ele>
        <time>2001-05-23T12:37:31.42</time>
      </trkpt>
      <trkpt lat="42.53242" lon="2.04536">
        <ele>2054.8584986072</ele>
        <time>2001-05-23T12:37:32.42</time>
      </trkpt>
      <trkpt lat="42.53243" lon="2.04536">
        <ele>2055.1958479004</ele>
        <time>2001-05-23T12:37:33.42</time>
      </trkpt>
      <trkpt lat="42.53243" lon="2.04535">
        <ele>2055.4851334831</ele>
        <time>2001-05-23T12:37:34.42</time>
      </trkpt>
      <trkpt lat="42.53243" lon="2.04534">
        <ele>2055.4574388107</ele>
        <time>2001-05-23T12:37:35.42</time>
      </trkpt>
      <trkpt lat="42.53243" lon="2.04533">
        <ele>2055.0483857194</ele>
        <time>2001-05-23T12:37:36.42</time>
      </trkpt>
      <trkpt lat="42.53245" lon="2.04531">
        <ele>2055.0455704784</ele>
        <time>2001-05-23T12:37:37.42</time>
      </trkpt>
      <trkpt lat="42.53246" lon="2.04532">
        <ele>2055.1486274276</ele>
        <time>2001-05-23T12:37:38.42</time>
      </trkpt>
      <trkpt lat="42.53247" lon="2.04531">
        <ele>2055.2213318659</ele>
        <time>2001-05-23T12:37:39.40</time>
      </trkpt>
      <trkpt lat="42.53247" lon="2.0453">
        <ele>2055.1454364024</ele>
        <time>2001-05-23T12:37:40.40</time>
      </trkpt>
      <trkpt lat="42.53248" lon="2.04529">
        <ele>2055.1847389532</ele>
        <time>2001-05-23T12:37:41.40</time>
      </trkpt>
      <trkpt lat="42.53248" lon="2.04528">
        <ele>2055.0645294352</ele>
        <time>2001-05-23T12:37:42.40</time>
      </trkpt>
      <trkpt lat="42.53248" lon="2.04526">
        <ele>2054.5399786986</ele>
        <time>2001-05-23T12:37:43.40</time>
      </trkpt>
      <trkpt lat="42.53249" lon="2.04525">
        <ele>2053.8747812271</ele>
        <time>2001-05-23T12:37:44.40</time>
      </trkpt>
      <trkpt lat="42.5325" lon="2.04524">
        <ele>2053.4660553321</ele>
        <time>2001-05-23T12:37:45.40</time>
      </trkpt>
      <trkpt lat="42.53251" lon="2.04524">
        <ele>2053.2230521381</ele>
        <time>2001-05-23T12:37:46.40</time>
      </trkpt>
      <trkpt lat="42.53251" lon="2.04523">
        <ele>2052.883775604</ele>
        <time>2001-05-23T12:37:47.40</time>
      </trkpt>
      <trkpt lat="42.53251" lon="2.04523">
        <ele>2052.9565475576</ele>
        <time>2001-05-23T12:37:48.40</time>
      </trkpt>
      <trkpt lat="42.53253" lon="2.04521">
        <ele>2053.6353493724</ele>
        <time>2001-05-23T12:37:49.45</time>
      </trkpt>
      <trkpt lat="42.53254" lon="2.0452">
        <ele>2054.8772699306</ele>
        <time>2001-05-23T12:37:50.45</time>
      </trkpt>
      <trkpt lat="42.53254" lon="2.0452">
        <ele>2055.8819634635</ele>
        <time>2001-05-23T12:37:51.45</time>
      </trkpt>
      <trkpt lat="42.53253" lon="2.0452">
        <ele>2056.8203871427</ele>
        <time>2001-05-23T12:37:52.45</time>
      </trkpt>
      <trkpt lat="42.53253" lon="2.0452">
        <ele>2057.7144572975</ele>
        <time>2001-05-23T12:37:53.45</time>
      </trkpt>
      <trkpt lat="42.53255" lon="2.0452">
        <ele>2058.5562371049</ele>
        <time>2001-05-23T12:37:54.47</time>
      </trkpt>
      <trkpt lat="42.53256" lon="2.0452">
        <ele>2058.9682434522</ele>
        <time>2001-05-23T12:37:55.47</time>
      </trkpt>
      <trkpt lat="42.53257" lon="2.04518">
        <ele>2059.1859144459</ele>
        <time>2001-05-23T12:37:56.47</time>
      </trkpt>
      <trkpt lat="42.53257" lon="2.04518">
        <ele>2059.5356470846</ele>
        <time>2001-05-23T12:37:57.47</time>
      </trkpt>
      <trkpt lat="42.5326" lon="2.04518">
        <ele>2059.6449020455</ele>
        <time>2001-05-23T12:37:58.46</time>
      </trkpt>
      <trkpt lat="42.5326" lon="2.04518">
        <ele>2059.3354633508</ele>
        <time>2001-05-23T12:37:59.46</time>
      </trkpt>
      <trkpt lat="42.53259" lon="2.04517">
        <ele>2058.594918987</ele>
        <time>2001-05-23T12:38:00.46</time>
      </trkpt>
      <trkpt lat="42.53257" lon="2.04517">
        <ele>2057.7490794342</ele>
        <time>2001-05-23T12:38:01.46</time>
      </trkpt>
      <trkpt lat="42.53257" lon="2.04517">
        <ele>2056.9032398814</ele>
        <time>2001-05-23T12:38:02.46</time>
      </trkpt>
      <trkpt lat="42.53257" lon="2.04516">
        <ele>2056.0028330009</ele>
        <time>2001-05-23T12:38:03.48</time>
      </trkpt>
      <trkpt lat="42.53256" lon="2.04515">
        <ele>2054.8371596178</ele>
        <time>2001-05-23T12:38:04.48</time>
      </trkpt>
      <trkpt lat="42.53257" lon="2.04513">
        <ele>2053.8340020802</ele>
        <time>2001-05-23T12:38:05.48</time>
      </trkpt>
      <trkpt lat="42.53257" lon="2.04512">
        <ele>2052.8013563637</ele>
        <time>2001-05-23T12:38:06.48</time>
      </trkpt>
      <trkpt lat="42.53257" lon="2.04511">
        <ele>2051.8647334816</ele>
        <time>2001-05-23T12:38:07.48</time>
      </trkpt>
      <trkpt lat="42.53259" lon="2.0451">
        <ele>2051.3353564944</ele>
        <time>2001-05-23T12:38:08.48</time>
      </trkpt>
      <trkpt lat="42.5326" lon="2.04509">
        <ele>2051.2229113244</ele>
        <time>2001-05-23T12:38:09.48</time>
      </trkpt>
      <trkpt lat="42.5326" lon="2.04507">
        <ele>2051.1099582219</ele>
        <time>2001-05-23T12:38:10.48</time>
      </trkpt>
      <trkpt lat="42.53261" lon="2.04506">
        <ele>2051.3296955395</ele>
        <time>2001-05-23T12:38:11.48</time>
      </trkpt>
      <trkpt lat="42.53262" lon="2.04506">
        <ele>2051.5350396706</ele>
        <time>2001-05-23T12:38:12.48</time>
      </trkpt>
      <trkpt lat="42.53263" lon="2.04505">
        <ele>2051.8910149015</ele>
        <time>2001-05-23T12:38:13.48</time>
      </trkpt>
      <trkpt lat="42.53265" lon="2.04504">
        <ele>2052.3964644143</ele>
        <time>2001-05-23T12:38:14.48</time>
      </trkpt>
      <trkpt lat="42.53264" lon="2.04503">
        <ele>2052.7408293655</ele>
        <time>2001-05-23T12:38:15.48</time>
      </trkpt>
      <trkpt lat="42.53265" lon="2.04502">
        <ele>2052.9759837644</ele>
        <time>2001-05-23T12:38:16.48</time>
      </trkpt>
      <trkpt lat="42.53265" lon="2.04501">
        <ele>2053.0852788275</ele>
        <time>2001-05-23T12:38:17.48</time>
      </trkpt>
      <trkpt lat="42.53266" lon="2.045">
        <ele>2052.8045682848</ele>
        <time>2001-05-23T12:38:18.48</time>
      </trkpt>
      <trkpt lat="42.53266" lon="2.04499">
        <ele>2052.220134243</ele>
        <time>2001-05-23T12:38:19.48</time>
      </trkpt>
      <trkpt lat="42.53267" lon="2.04498">
        <ele>2052.5986942707</ele>
        <time>2001-05-23T12:38:20.48</time>
      </trkpt>
      <trkpt lat="42.53269" lon="2.04497">
        <ele>2053.2696034662</ele>
        <time>2001-05-23T12:38:21.48</time>
      </trkpt>
      <trkpt lat="42.5327" lon="2.04496">
        <ele>2054.0780825812</ele>
        <time>2001-05-23T12:38:22.48</time>
      </trkpt>
      <trkpt lat="42.53271" lon="2.04495">
        <ele>2055.0526044782</ele>
        <time>2001-05-23T12:38:23.48</time>
      </trkpt>
      <trkpt lat="42.53271" lon="2.04495">
        <ele>2056.0140358249</ele>
        <time>2001-05-23T12:38:24.48</time>
      </trkpt>
      <trkpt lat="42.53271" lon="2.04495">
        <ele>2056.2728815161</ele>
        <time>2001-05-23T12:38:25.48</time>
      </trkpt>
      <trkpt lat="42.53269" lon="2.04495">
        <ele>2056.1245722968</ele>
        <time>2001-05-23T12:38:26.54</time>
      </trkpt>
      <trkpt lat="42.53269" lon="2.04495">
        <ele>2055.8829228461</ele>
        <time>2001-05-23T12:38:27.54</time>
      </trkpt>
      <trkpt lat="42.5327" lon="2.04495">
        <ele>2055.7176525222</ele>
        <time>2001-05-23T12:38:28.54</time>
      </trkpt>
      <trkpt lat="42.5327" lon="2.04495">
        <ele>2055.5680566514</ele>
        <time>2001-05-23T12:38:29.54</time>
      </trkpt>
      <trkpt lat="42.53271" lon="2.04493">
        <ele>2054.449854235</ele>
        <time>2001-05-23T12:38:30.54</time>
      </trkpt>
      <trkpt lat="42.53271" lon="2.04492">
        <ele>2053.6325286889</ele>
        <time>2001-05-23T12:38:31.54</time>
      </trkpt>
      <trkpt lat="42.53272" lon="2.04491">
        <ele>2052.857565687</ele>
        <time>2001-05-23T12:38:32.54</time>
      </trkpt>
      <trkpt lat="42.53272" lon="2.0449">
        <ele>2052.2497019792</ele>
        <time>2001-05-23T12:38:33.54</time>
      </trkpt>
      <trkpt lat="42.53273" lon="2.04489">
        <ele>2051.8564761957</ele>
        <time>2001-05-23T12:38:34.54</time>
      </trkpt>
      <trkpt lat="42.53274" lon="2.04489">
        <ele>2052.7071870621</ele>
        <time>2001-05-23T12:38:35.54</time>
      </trkpt>
      <trkpt lat="42.53274" lon="2.04489">
        <ele>2053.5218652213</ele>
        <time>2001-05-23T12:38:36.54</time>
      </trkpt>
      <trkpt lat="42.53275" lon="2.04488">
        <ele>2054.3213107247</ele>
        <time>2001-05-23T12:38:37.54</time>
      </trkpt>
      <trkpt lat="42.53276" lon="2.04488">
        <ele>2054.8838358274</ele>
        <time>2001-05-23T12:38:38.54</time>
      </trkpt>
      <trkpt lat="42.53277" lon="2.04486">
        <ele>2055.6643446183</ele>
        <time>2001-05-23T12:38:39.54</time>
      </trkpt>
      <trkpt lat="42.53277" lon="2.04485">
        <ele>2056.1357107595</ele>
        <time>2001-05-23T12:38:40.54</time>
      </trkpt>
      <trkpt lat="42.53278" lon="2.04484">
        <ele>2056.5888551095</ele>
        <time>2001-05-23T12:38:41.54</time>
      </trkpt>
      <trkpt lat="42.53278" lon="2.04483">
        <ele>2057.0811111789</ele>
        <time>2001-05-23T12:38:42.54</time>
      </trkpt>
      <trkpt lat="42.53278" lon="2.04482">
        <ele>2057.6527185936</ele>
        <time>2001-05-23T12:38:43.54</time>
      </trkpt>
      <trkpt lat="42.53279" lon="2.04481">
        <ele>2057.9009977492</ele>
        <time>2001-05-23T12:38:44.54</time>
      </trkpt>
      <trkpt lat="42.5328" lon="2.04481">
        <ele>2058.3833034502</ele>
        <time>2001-05-23T12:38:45.54</time>
      </trkpt>
      <trkpt lat="42.53278" lon="2.0448">
        <ele>2058.7885504181</ele>
        <time>2001-05-23T12:38:46.57</time>
      </trkpt>
      <trkpt lat="42.53278" lon="2.0448">
        <ele>2059.1275557783</ele>
        <time>2001-05-23T12:38:47.57</time>
      </trkpt>
      <trkpt lat="42.53279" lon="2.04481">
        <ele>2059.5288444966</ele>
        <time>2001-05-23T12:38:48.57</time>
      </trkpt>
      <trkpt lat="42.53279" lon="2.04481">
        <ele>2059.8208398614</ele>
        <time>2001-05-23T12:38:49.57</time>
      </trkpt>
      <trkpt lat="42.53279" lon="2.04479">
        <ele>2059.4299371336</ele>
        <time>2001-05-23T12:38:50.56</time>
      </trkpt>
      <trkpt lat="42.53279" lon="2.04477">
        <ele>2059.0359964872</ele>
        <time>2001-05-23T12:38:51.56</time>
      </trkpt>
      <trkpt lat="42.5328" lon="2.04476">
        <ele>2058.4029771665</ele>
        <time>2001-05-23T12:38:52.56</time>
      </trkpt>
      <trkpt lat="42.53281" lon="2.04475">
        <ele>2057.4883628918</ele>
        <time>2001-05-23T12:38:53.56</time>
      </trkpt>
      <trkpt lat="42.53282" lon="2.04474">
        <ele>2056.8178467058</ele>
        <time>2001-05-23T12:38:54.56</time>
      </trkpt>
      <trkpt lat="42.53282" lon="2.04473">
        <ele>2056.8068802161</ele>
        <time>2001-05-23T12:38:55.56</time>
      </trkpt>
      <trkpt lat="42.53282" lon="2.04472">
        <ele>2056.9447287759</ele>
        <time>2001-05-23T12:38:56.56</time>
      </trkpt>
      <trkpt lat="42.53283" lon="2.04471">
        <ele>2057.235970051</ele>
        <time>2001-05-23T12:38:57.56</time>
      </trkpt>
      <trkpt lat="42.53283" lon="2.0447">
        <ele>2056.7857766112</ele>
        <time>2001-05-23T12:38:58.56</time>
      </trkpt>
      <trkpt lat="42.53283" lon="2.04469">
        <ele>2055.901837185</ele>
        <time>2001-05-23T12:38:59.56</time>
      </trkpt>
      <trkpt lat="42.53283" lon="2.04469">
        <ele>2054.8611775985</ele>
        <time>2001-05-23T12:39:00.56</time>
      </trkpt>
      <trkpt lat="42.53284" lon="2.04468">
        <ele>2053.9199495008</ele>
        <time>2001-05-23T12:39:01.56</time>
      </trkpt>
      <trkpt lat="42.53285" lon="2.04467">
        <ele>2053.3240557799</ele>
        <time>2001-05-23T12:39:02.56</time>
      </trkpt>
      <trkpt lat="42.53286" lon="2.04466">
        <ele>2053.7209814126</ele>
        <time>2001-05-23T12:39:03.55</time>
      </trkpt>
      <trkpt lat="42.53286" lon="2.04466">
        <ele>2054.3075549429</ele>
        <time>2001-05-23T12:39:04.55</time>
      </trkpt>
      <trkpt lat="42.53286" lon="2.04465">
        <ele>2054.4617131002</ele>
        <time>2001-05-23T12:39:05.55</time>
      </trkpt>
      <trkpt lat="42.53286" lon="2.04464">
        <ele>2054.3144907529</ele>
        <time>2001-05-23T12:39:06.55</time>
      </trkpt>
      <trkpt lat="42.53289" lon="2.04462">
        <ele>2053.9638827134</ele>
        <time>2001-05-23T12:39:07.55</time>
      </trkpt>
      <trkpt lat="42.53289" lon="2.04462">
        <ele>2053.5836940372</ele>
        <time>2001-05-23T12:39:08.55</time>
      </trkpt>
      <trkpt lat="42.5329" lon="2.0446">
        <ele>2053.2931379072</ele>
        <time>2001-05-23T12:39:09.52</time>
      </trkpt>
      <trkpt lat="42.53291" lon="2.04459">
        <ele>2053.5519943226</ele>
        <time>2001-05-23T12:39:10.52</time>
      </trkpt>
      <trkpt lat="42.53291" lon="2.04459">
        <ele>2054.0542689394</ele>
        <time>2001-05-23T12:39:11.55</time>
      </trkpt>
      <trkpt lat="42.53293" lon="2.04458">
        <ele>2054.6931605007</ele>
        <time>2001-05-23T12:39:12.55</time>
      </trkpt>
      <trkpt lat="42.53295" lon="2.04459">
        <ele>2055.0656231703</ele>
        <time>2001-05-23T12:39:13.55</time>
      </trkpt>
      <trkpt lat="42.53295" lon="2.04458">
        <ele>2055.4187299892</ele>
        <time>2001-05-23T12:39:14.55</time>
      </trkpt>
      <trkpt lat="42.53297" lon="2.04457">
        <ele>2055.7074922549</ele>
        <time>2001-05-23T12:39:15.55</time>
      </trkpt>
      <trkpt lat="42.53296" lon="2.04456">
        <ele>2055.5176803639</ele>
        <time>2001-05-23T12:39:16.55</time>
      </trkpt>
      <trkpt lat="42.53296" lon="2.04452">
        <ele>2054.7525756745</ele>
        <time>2001-05-23T12:39:17.55</time>
      </trkpt>
      <trkpt lat="42.53296" lon="2.04451">
        <ele>2053.8671024971</ele>
        <time>2001-05-23T12:39:18.55</time>
      </trkpt>
      <trkpt lat="42.53297" lon="2.04451">
        <ele>2052.9084176879</ele>
        <time>2001-05-23T12:39:19.55</time>
      </trkpt>
      <trkpt lat="42.53297" lon="2.04449">
        <ele>2051.9111692257</ele>
        <time>2001-05-23T12:39:20.55</time>
      </trkpt>
      <trkpt lat="42.53298" lon="2.04449">
        <ele>2051.2497796813</ele>
        <time>2001-05-23T12:39:21.55</time>
      </trkpt>
      <trkpt lat="42.53298" lon="2.04448">
        <ele>2050.9104049128</ele>
        <time>2001-05-23T12:39:22.55</time>
      </trkpt>
      <trkpt lat="42.53299" lon="2.04446">
        <ele>2050.3927004829</ele>
        <time>2001-05-23T12:39:23.55</time>
      </trkpt>
      <trkpt lat="42.53298" lon="2.04445">
        <ele>2049.7689394314</ele>
        <time>2001-05-23T12:39:24.55</time>
      </trkpt>
      <trkpt lat="42.53298" lon="2.04445">
        <ele>2048.843982558</ele>
        <time>2001-05-23T12:39:25.55</time>
      </trkpt>
      <trkpt lat="42.53296" lon="2.04445">
        <ele>2047.5831235051</ele>
        <time>2001-05-23T12:39:26.55</time>
      </trkpt>
      <trkpt lat="42.53294" lon="2.04445">
        <ele>2046.4827259189</ele>
        <time>2001-05-23T12:39:27.55</time>
      </trkpt>
      <trkpt lat="42.53294" lon="2.04445">
        <ele>2045.8201844366</ele>
        <time>2001-05-23T12:39:28.55</time>
      </trkpt>
      <trkpt lat="42.53293" lon="2.04444">
        <ele>2045.0922971491</ele>
        <time>2001-05-23T12:39:29.57</time>
      </trkpt>
      <trkpt lat="42.53292" lon="2.04443">
        <ele>2044.468465534</ele>
        <time>2001-05-23T12:39:30.57</time>
      </trkpt>
      <trkpt lat="42.53292" lon="2.04441">
        <ele>2044.3096141588</ele>
        <time>2001-05-23T12:39:31.57</time>
      </trkpt>
      <trkpt lat="42.53292" lon="2.0444">
        <ele>2044.0048723524</ele>
        <time>2001-05-23T12:39:32.57</time>
      </trkpt>
      <trkpt lat="42.53291" lon="2.04439">
        <ele>2043.5749554245</ele>
        <time>2001-05-23T12:39:33.57</time>
      </trkpt>
      <trkpt lat="42.5329" lon="2.04438">
        <ele>2043.3032656977</ele>
        <time>2001-05-23T12:39:34.58</time>
      </trkpt>
      <trkpt lat="42.5329" lon="2.04438">
        <ele>2043.1944817109</ele>
        <time>2001-05-23T12:39:35.58</time>
      </trkpt>
      <trkpt lat="42.53289" lon="2.04437">
        <ele>2042.8022083789</ele>
        <time>2001-05-23T12:39:36.60</time>
      </trkpt>
      <trkpt lat="42.53288" lon="2.04438">
        <ele>2042.2312382653</ele>
        <time>2001-05-23T12:39:37.60</time>
      </trkpt>
      <trkpt lat="42.53289" lon="2.04438">
        <ele>2041.9129423806</ele>
        <time>2001-05-23T12:39:38.60</time>
      </trkpt>
      <trkpt lat="42.53291" lon="2.04438">
        <ele>2041.8892735368</ele>
        <time>2001-05-23T12:39:39.60</time>
      </trkpt>
      <trkpt lat="42.53292" lon="2.04438">
        <ele>2042.0343295321</ele>
        <time>2001-05-23T12:39:40.60</time>
      </trkpt>
      <trkpt lat="42.53294" lon="2.04437">
        <ele>2042.8416412869</ele>
        <time>2001-05-23T12:39:41.60</time>
      </trkpt>
      <trkpt lat="42.53294" lon="2.04436">
        <ele>2043.9233020589</ele>
        <time>2001-05-23T12:39:42.60</time>
      </trkpt>
      <trkpt lat="42.53295" lon="2.04435">
        <ele>2044.7444835033</ele>
        <time>2001-05-23T12:39:43.60</time>
      </trkpt>
      <trkpt lat="42.53298" lon="2.04435">
        <ele>2045.4033980189</ele>
        <time>2001-05-23T12:39:44.60</time>
      </trkpt>
      <trkpt lat="42.53298" lon="2.04434">
        <ele>2045.6298194714</ele>
        <time>2001-05-23T12:39:45.60</time>
      </trkpt>
      <trkpt lat="42.533" lon="2.04434">
        <ele>2045.4615632985</ele>
        <time>2001-05-23T12:39:46.60</time>
      </trkpt>
      <trkpt lat="42.533" lon="2.04433">
        <ele>2045.2166090587</ele>
        <time>2001-05-23T12:39:47.60</time>
      </trkpt>
      <trkpt lat="42.53302" lon="2.04433">
        <ele>2045.487350844</ele>
        <time>2001-05-23T12:39:48.60</time>
      </trkpt>
      <trkpt lat="42.53303" lon="2.04433">
        <ele>2045.8481327901</ele>
        <time>2001-05-23T12:39:49.60</time>
      </trkpt>
      <trkpt lat="42.53303" lon="2.04433">
        <ele>2046.47268296</ele>
        <time>2001-05-23T12:39:50.60</time>
      </trkpt>
      <trkpt lat="42.53304" lon="2.04433">
        <ele>2047.2184109779</ele>
        <time>2001-05-23T12:39:51.60</time>
      </trkpt>
      <trkpt lat="42.53306" lon="2.04433">
        <ele>2048.3932984373</ele>
        <time>2001-05-23T12:39:52.60</time>
      </trkpt>
      <trkpt lat="42.53307" lon="2.04433">
        <ele>2049.2535097102</ele>
        <time>2001-05-23T12:39:53.60</time>
      </trkpt>
      <trkpt lat="42.53307" lon="2.04433">
        <ele>2049.8795075413</ele>
        <time>2001-05-23T12:39:54.60</time>
      </trkpt>
      <trkpt lat="42.53307" lon="2.04432">
        <ele>2050.5577021651</ele>
        <time>2001-05-23T12:39:55.60</time>
      </trkpt>
      <trkpt lat="42.53307" lon="2.04432">
        <ele>2051.0523015382</ele>
        <time>2001-05-23T12:39:56.60</time>
      </trkpt>
      <trkpt lat="42.53309" lon="2.04431">
        <ele>2050.9961805001</ele>
        <time>2001-05-23T12:39:57.60</time>
      </trkpt>
      <trkpt lat="42.53309" lon="2.04431">
        <ele>2051.073762095</ele>
        <time>2001-05-23T12:39:58.60</time>
      </trkpt>
      <trkpt lat="42.5331" lon="2.0443">
        <ele>2051.3000357585</ele>
        <time>2001-05-23T12:39:59.60</time>
      </trkpt>
      <trkpt lat="42.53312" lon="2.0443">
        <ele>2051.6411207607</ele>
        <time>2001-05-23T12:40:00.60</time>
      </trkpt>
      <trkpt lat="42.53312" lon="2.0443">
        <ele>2051.9822057629</ele>
        <time>2001-05-23T12:40:01.60</time>
      </trkpt>
      <trkpt lat="42.53314" lon="2.04428">
        <ele>2052.4331198538</ele>
        <time>2001-05-23T12:40:02.61</time>
      </trkpt>
      <trkpt lat="42.53315" lon="2.04427">
        <ele>2052.9162940189</ele>
        <time>2001-05-23T12:40:03.61</time>
      </trkpt>
      <trkpt lat="42.53316" lon="2.04428">
        <ele>2053.4986600345</ele>
        <time>2001-05-23T12:40:04.61</time>
      </trkpt>
      <trkpt lat="42.53316" lon="2.04428">
        <ele>2053.9140179187</ele>
        <time>2001-05-23T12:40:05.61</time>
      </trkpt>
      <trkpt lat="42.53319" lon="2.04428">
        <ele>2055.1647061322</ele>
        <time>2001-05-23T12:40:06.61</time>
      </trkpt>
      <trkpt lat="42.53318" lon="2.04429">
        <ele>2056.4863701012</ele>
        <time>2001-05-23T12:40:07.61</time>
      </trkpt>
      <trkpt lat="42.53319" lon="2.04428">
        <ele>2057.7085545966</ele>
        <time>2001-05-23T12:40:08.61</time>
      </trkpt>
      <trkpt lat="42.53319" lon="2.04427">
        <ele>2058.8426932242</ele>
        <time>2001-05-23T12:40:09.61</time>
      </trkpt>
      <trkpt lat="42.53321" lon="2.04424">
        <ele>2059.8079329297</ele>
        <time>2001-05-23T12:40:10.61</time>
      </trkpt>
      <trkpt lat="42.53322" lon="2.04421">
        <ele>2059.6355236227</ele>
        <time>2001-05-23T12:40:11.61</time>
      </trkpt>
      <trkpt lat="42.53322" lon="2.0442">
        <ele>2059.2251994865</ele>
        <time>2001-05-23T12:40:12.61</time>
      </trkpt>
      <trkpt lat="42.53322" lon="2.04419">
        <ele>2058.4277642976</ele>
        <time>2001-05-23T12:40:13.61</time>
      </trkpt>
      <trkpt lat="42.53322" lon="2.04419">
        <ele>2057.4984143889</ele>
        <time>2001-05-23T12:40:14.61</time>
      </trkpt>
      <trkpt lat="42.53322" lon="2.04419">
        <ele>2056.7379634021</ele>
        <time>2001-05-23T12:40:15.61</time>
      </trkpt>
      <trkpt lat="42.53325" lon="2.0442">
        <ele>2056.2692330861</ele>
        <time>2001-05-23T12:40:16.62</time>
      </trkpt>
      <trkpt lat="42.53325" lon="2.04419">
        <ele>2055.9002483999</ele>
        <time>2001-05-23T12:40:17.62</time>
      </trkpt>
      <trkpt lat="42.53327" lon="2.04417">
        <ele>2055.421170854</ele>
        <time>2001-05-23T12:40:18.62</time>
      </trkpt>
      <trkpt lat="42.53327" lon="2.04417">
        <ele>2054.9420933081</ele>
        <time>2001-05-23T12:40:19.62</time>
      </trkpt>
      <trkpt lat="42.53327" lon="2.04416">
        <ele>2054.2200422559</ele>
        <time>2001-05-23T12:40:20.63</time>
      </trkpt>
      <trkpt lat="42.53328" lon="2.04415">
        <ele>2053.3984822892</ele>
        <time>2001-05-23T12:40:21.63</time>
      </trkpt>
      <trkpt lat="42.53329" lon="2.04415">
        <ele>2052.6847180562</ele>
        <time>2001-05-23T12:40:22.63</time>
      </trkpt>
      <trkpt lat="42.5333" lon="2.04414">
        <ele>2052.3462354863</ele>
        <time>2001-05-23T12:40:23.63</time>
      </trkpt>
      <trkpt lat="42.5333" lon="2.04414">
        <ele>2052.0077529164</ele>
        <time>2001-05-23T12:40:24.63</time>
      </trkpt>
      <trkpt lat="42.53331" lon="2.04414">
        <ele>2052.0635456266</ele>
        <time>2001-05-23T12:40:25.63</time>
      </trkpt>
      <trkpt lat="42.53329" lon="2.04413">
        <ele>2052.0771416787</ele>
        <time>2001-05-23T12:40:26.64</time>
      </trkpt>
      <trkpt lat="42.53329" lon="2.04413">
        <ele>2052.0887404703</ele>
        <time>2001-05-23T12:40:27.64</time>
      </trkpt>
      <trkpt lat="42.5333" lon="2.04413">
        <ele>2052.305557989</ele>
        <time>2001-05-23T12:40:28.62</time>
      </trkpt>
      <trkpt lat="42.53332" lon="2.04413">
        <ele>2052.7706022862</ele>
        <time>2001-05-23T12:40:29.62</time>
      </trkpt>
      <trkpt lat="42.53334" lon="2.04412">
        <ele>2053.2295146905</ele>
        <time>2001-05-23T12:40:30.62</time>
      </trkpt>
      <trkpt lat="42.53334" lon="2.0441">
        <ele>2053.4063602898</ele>
        <time>2001-05-23T12:40:31.62</time>
      </trkpt>
      <trkpt lat="42.53335" lon="2.0441">
        <ele>2053.6321116347</ele>
        <time>2001-05-23T12:40:32.62</time>
      </trkpt>
      <trkpt lat="42.53336" lon="2.04409">
        <ele>2053.5947887396</ele>
        <time>2001-05-23T12:40:33.62</time>
      </trkpt>
      <trkpt lat="42.53337" lon="2.04408">
        <ele>2053.392866949</ele>
        <time>2001-05-23T12:40:34.62</time>
      </trkpt>
      <trkpt lat="42.53337" lon="2.04407">
        <ele>2053.1242625166</ele>
        <time>2001-05-23T12:40:35.62</time>
      </trkpt>
      <trkpt lat="42.53338" lon="2.04406">
        <ele>2053.2917188864</ele>
        <time>2001-05-23T12:40:36.62</time>
      </trkpt>
      <trkpt lat="42.53338" lon="2.04406">
        <ele>2053.4102695107</ele>
        <time>2001-05-23T12:40:37.62</time>
      </trkpt>
      <trkpt lat="42.53339" lon="2.04404">
        <ele>2052.9782117924</ele>
        <time>2001-05-23T12:40:38.62</time>
      </trkpt>
      <trkpt lat="42.5334" lon="2.04403">
        <ele>2052.641425024</ele>
        <time>2001-05-23T12:40:39.62</time>
      </trkpt>
      <trkpt lat="42.53341" lon="2.04402">
        <ele>2052.2686974173</ele>
        <time>2001-05-23T12:40:40.63</time>
      </trkpt>
      <trkpt lat="42.53341" lon="2.04402">
        <ele>2051.8650741221</ele>
        <time>2001-05-23T12:40:41.63</time>
      </trkpt>
      <trkpt lat="42.53341" lon="2.04401">
        <ele>2051.0656785274</ele>
        <time>2001-05-23T12:40:42.67</time>
      </trkpt>
      <trkpt lat="42.53341" lon="2.04401">
        <ele>2050.8621461853</ele>
        <time>2001-05-23T12:40:43.67</time>
      </trkpt>
      <trkpt lat="42.53343" lon="2.04402">
        <ele>2050.4473711196</ele>
        <time>2001-05-23T12:40:44.70</time>
      </trkpt>
      <trkpt lat="42.53344" lon="2.04402">
        <ele>2049.8236501157</ele>
        <time>2001-05-23T12:40:45.70</time>
      </trkpt>
      <trkpt lat="42.53346" lon="2.04403">
        <ele>2049.2454236787</ele>
        <time>2001-05-23T12:40:46.70</time>
      </trkpt>
      <trkpt lat="42.53347" lon="2.04404">
        <ele>2048.9886308538</ele>
        <time>2001-05-23T12:40:47.70</time>
      </trkpt>
      <trkpt lat="42.53347" lon="2.04404">
        <ele>2048.7318380289</ele>
        <time>2001-05-23T12:40:48.70</time>
      </trkpt>
      <trkpt lat="42.53347" lon="2.04404">
        <ele>2048.5073890947</ele>
        <time>2001-05-23T12:40:49.70</time>
      </trkpt>
      <trkpt lat="42.53348" lon="2.04404">
        <ele>2048.460960569</ele>
        <time>2001-05-23T12:40:50.70</time>
      </trkpt>
      <trkpt lat="42.53349" lon="2.04404">
        <ele>2048.4417099494</ele>
        <time>2001-05-23T12:40:51.70</time>
      </trkpt>
      <trkpt lat="42.53352" lon="2.04406">
        <ele>2048.3080363488</ele>
        <time>2001-05-23T12:40:52.71</time>
      </trkpt>
      <trkpt lat="42.53352" lon="2.04406">
        <ele>2048.2817270113</ele>
        <time>2001-05-23T12:40:53.71</time>
      </trkpt>
      <trkpt lat="42.53353" lon="2.04405">
        <ele>2048.1334227422</ele>
        <time>2001-05-23T12:40:54.71</time>
      </trkpt>
      <trkpt lat="42.53355" lon="2.04405">
        <ele>2048.2655290436</ele>
        <time>2001-05-23T12:40:55.71</time>
      </trkpt>
      <trkpt lat="42.53356" lon="2.04405">
        <ele>2048.6877815219</ele>
        <time>2001-05-23T12:40:56.71</time>
      </trkpt>
      <trkpt lat="42.53358" lon="2.04406">
        <ele>2049.4469331017</ele>
        <time>2001-05-23T12:40:57.71</time>
      </trkpt>
      <trkpt lat="42.53359" lon="2.04406">
        <ele>2050.2154042127</ele>
        <time>2001-05-23T12:40:58.71</time>
      </trkpt>
      <trkpt lat="42.53359" lon="2.04406">
        <ele>2051.1058702553</ele>
        <time>2001-05-23T12:40:59.71</time>
      </trkpt>
      <trkpt lat="42.53359" lon="2.04406">
        <ele>2051.7043048562</ele>
        <time>2001-05-23T12:41:00.71</time>
      </trkpt>
      <trkpt lat="42.53359" lon="2.04405">
        <ele>2052.2727004096</ele>
        <time>2001-05-23T12:41:01.72</time>
      </trkpt>
      <trkpt lat="42.53361" lon="2.04405">
        <ele>2052.802437591</ele>
        <time>2001-05-23T12:41:02.72</time>
      </trkpt>
      <trkpt lat="42.53361" lon="2.04405">
        <ele>2053.4091347478</ele>
        <time>2001-05-23T12:41:03.72</time>
      </trkpt>
      <trkpt lat="42.53362" lon="2.04404">
        <ele>2053.8663085075</ele>
        <time>2001-05-23T12:41:04.74</time>
      </trkpt>
      <trkpt lat="42.53364" lon="2.04403">
        <ele>2054.5610068912</ele>
        <time>2001-05-23T12:41:05.74</time>
      </trkpt>
      <trkpt lat="42.53364" lon="2.04401">
        <ele>2054.6261904739</ele>
        <time>2001-05-23T12:41:06.74</time>
      </trkpt>
      <trkpt lat="42.53366" lon="2.044">
        <ele>2054.8359344756</ele>
        <time>2001-05-23T12:41:07.74</time>
      </trkpt>
      <trkpt lat="42.53366" lon="2.044">
        <ele>2054.8520347076</ele>
        <time>2001-05-23T12:41:08.74</time>
      </trkpt>
      <trkpt lat="42.53366" lon="2.044">
        <ele>2055.1268590307</ele>
        <time>2001-05-23T12:41:09.74</time>
      </trkpt>
      <trkpt lat="42.53367" lon="2.04399">
        <ele>2055.2925716946</ele>
        <time>2001-05-23T12:41:10.74</time>
      </trkpt>
      <trkpt lat="42.53367" lon="2.04398">
        <ele>2055.4389387563</ele>
        <time>2001-05-23T12:41:11.74</time>
      </trkpt>
      <trkpt lat="42.53367" lon="2.04397">
        <ele>2055.038452645</ele>
        <time>2001-05-23T12:41:12.74</time>
      </trkpt>
      <trkpt lat="42.53367" lon="2.04397">
        <ele>2054.6379665338</ele>
        <time>2001-05-23T12:41:13.74</time>
      </trkpt>
      <trkpt lat="42.53368" lon="2.04396">
        <ele>2054.1315811092</ele>
        <time>2001-05-23T12:41:14.73</time>
      </trkpt>
      <trkpt lat="42.53368" lon="2.04395">
        <ele>2053.2936911825</ele>
        <time>2001-05-23T12:41:15.73</time>
      </trkpt>
      <trkpt lat="42.53369" lon="2.04394">
        <ele>2052.522656733</ele>
        <time>2001-05-23T12:41:16.73</time>
      </trkpt>
      <trkpt lat="42.53369" lon="2.04394">
        <ele>2052.0300168971</ele>
        <time>2001-05-23T12:41:17.73</time>
      </trkpt>
      <trkpt lat="42.53371" lon="2.04393">
        <ele>2051.6427280433</ele>
        <time>2001-05-23T12:41:18.73</time>
      </trkpt>
      <trkpt lat="42.53371" lon="2.04393">
        <ele>2051.2521378089</ele>
        <time>2001-05-23T12:41:19.73</time>
      </trkpt>
      <trkpt lat="42.53371" lon="2.04391">
        <ele>2050.5880663708</ele>
        <time>2001-05-23T12:41:20.72</time>
      </trkpt>
      <trkpt lat="42.53371" lon="2.04391">
        <ele>2050.2024255328</ele>
        <time>2001-05-23T12:41:21.72</time>
      </trkpt>
      <trkpt lat="42.53373" lon="2.0439">
        <ele>2050.0265192226</ele>
        <time>2001-05-23T12:41:22.72</time>
      </trkpt>
      <trkpt lat="42.53374" lon="2.04389">
        <ele>2049.8930923188</ele>
        <time>2001-05-23T12:41:23.72</time>
      </trkpt>
      <trkpt lat="42.53377" lon="2.04389">
        <ele>2050.1797679648</ele>
        <time>2001-05-23T12:41:24.72</time>
      </trkpt>
      <trkpt lat="42.53377" lon="2.04388">
        <ele>2051.2303224133</ele>
        <time>2001-05-23T12:41:25.72</time>
      </trkpt>
      <trkpt lat="42.53378" lon="2.04387">
        <ele>2052.0461533891</ele>
        <time>2001-05-23T12:41:26.72</time>
      </trkpt>
      <trkpt lat="42.53378" lon="2.04387">
        <ele>2052.6666689163</ele>
        <time>2001-05-23T12:41:27.72</time>
      </trkpt>
      <trkpt lat="42.53379" lon="2.04386">
        <ele>2052.9431428788</ele>
        <time>2001-05-23T12:41:28.72</time>
      </trkpt>
      <trkpt lat="42.5338" lon="2.04385">
        <ele>2052.7782480478</ele>
        <time>2001-05-23T12:41:29.72</time>
      </trkpt>
      <trkpt lat="42.53381" lon="2.04384">
        <ele>2052.4268254953</ele>
        <time>2001-05-23T12:41:30.72</time>
      </trkpt>
      <trkpt lat="42.53382" lon="2.04383">
        <ele>2052.6011542216</ele>
        <time>2001-05-23T12:41:31.72</time>
      </trkpt>
      <trkpt lat="42.53382" lon="2.04382">
        <ele>2052.6520180697</ele>
        <time>2001-05-23T12:41:32.72</time>
      </trkpt>
      <trkpt lat="42.53381" lon="2.04381">
        <ele>2052.8710114721</ele>
        <time>2001-05-23T12:41:33.72</time>
      </trkpt>
      <trkpt lat="42.53381" lon="2.0438">
        <ele>2053.0449646138</ele>
        <time>2001-05-23T12:41:34.72</time>
      </trkpt>
      <trkpt lat="42.53381" lon="2.04379">
        <ele>2052.9461602379</ele>
        <time>2001-05-23T12:41:35.72</time>
      </trkpt>
      <trkpt lat="42.53382" lon="2.04379">
        <ele>2052.5664513137</ele>
        <time>2001-05-23T12:41:36.72</time>
      </trkpt>
      <trkpt lat="42.53383" lon="2.04378">
        <ele>2052.4217701726</ele>
        <time>2001-05-23T12:41:37.72</time>
      </trkpt>
      <trkpt lat="42.53383" lon="2.04378">
        <ele>2052.3786260659</ele>
        <time>2001-05-23T12:41:38.72</time>
      </trkpt>
      <trkpt lat="42.53384" lon="2.04377">
        <ele>2052.7022632068</ele>
        <time>2001-05-23T12:41:39.72</time>
      </trkpt>
      <trkpt lat="42.53385" lon="2.04376">
        <ele>2053.357833386</ele>
        <time>2001-05-23T12:41:40.72</time>
      </trkpt>
      <trkpt lat="42.53387" lon="2.04375">
        <ele>2054.2414388109</ele>
        <time>2001-05-23T12:41:41.72</time>
      </trkpt>
      <trkpt lat="42.53388" lon="2.04375">
        <ele>2054.840564619</ele>
        <time>2001-05-23T12:41:42.72</time>
      </trkpt>
      <trkpt lat="42.53388" lon="2.04375">
        <ele>2055.2619565755</ele>
        <time>2001-05-23T12:41:43.72</time>
      </trkpt>
      <trkpt lat="42.53388" lon="2.04374">
        <ele>2055.5179267462</ele>
        <time>2001-05-23T12:41:44.72</time>
      </trkpt>
      <trkpt lat="42.53388" lon="2.04373">
        <ele>2055.4546029976</ele>
        <time>2001-05-23T12:41:45.72</time>
      </trkpt>
      <trkpt lat="42.53388" lon="2.04371">
        <ele>2054.725840966</ele>
        <time>2001-05-23T12:41:46.72</time>
      </trkpt>
      <trkpt lat="42.53388" lon="2.0437">
        <ele>2054.0078137018</ele>
        <time>2001-05-23T12:41:47.72</time>
      </trkpt>
      <trkpt lat="42.53388" lon="2.0437">
        <ele>2053.1715701578</ele>
        <time>2001-05-23T12:41:48.72</time>
      </trkpt>
      <trkpt lat="42.53389" lon="2.04369">
        <ele>2052.3371354263</ele>
        <time>2001-05-23T12:41:49.72</time>
      </trkpt>
      <trkpt lat="42.53389" lon="2.04369">
        <ele>2051.747742771</ele>
        <time>2001-05-23T12:41:50.71</time>
      </trkpt>
      <trkpt lat="42.53389" lon="2.04369">
        <ele>2051.585629895</ele>
        <time>2001-05-23T12:41:51.71</time>
      </trkpt>
      <trkpt lat="42.5339" lon="2.04368">
        <ele>2051.6374441948</ele>
        <time>2001-05-23T12:41:52.64</time>
      </trkpt>
      <trkpt lat="42.53391" lon="2.04367">
        <ele>2051.7581569744</ele>
        <time>2001-05-23T12:41:53.64</time>
      </trkpt>
      <trkpt lat="42.53391" lon="2.04366">
        <ele>2051.3495300258</ele>
        <time>2001-05-23T12:41:54.64</time>
      </trkpt>
      <trkpt lat="42.53391" lon="2.04365">
        <ele>2050.8309434077</ele>
        <time>2001-05-23T12:41:55.64</time>
      </trkpt>
      <trkpt lat="42.53393" lon="2.04364">
        <ele>2050.4023425043</ele>
        <time>2001-05-23T12:41:56.67</time>
      </trkpt>
      <trkpt lat="42.53393" lon="2.04364">
        <ele>2049.9219963698</ele>
        <time>2001-05-23T12:41:57.67</time>
      </trkpt>
      <trkpt lat="42.53393" lon="2.04365">
        <ele>2049.8627380958</ele>
        <time>2001-05-23T12:41:58.68</time>
      </trkpt>
      <trkpt lat="42.53394" lon="2.04365">
        <ele>2050.4945656219</ele>
        <time>2001-05-23T12:41:59.68</time>
      </trkpt>
      <trkpt lat="42.53395" lon="2.04364">
        <ele>2051.0348166686</ele>
        <time>2001-05-23T12:42:00.69</time>
      </trkpt>
      <trkpt lat="42.53395" lon="2.04364">
        <ele>2051.4850820005</ele>
        <time>2001-05-23T12:42:01.69</time>
      </trkpt>
      <trkpt lat="42.53395" lon="2.04363">
        <ele>2052.3200281311</ele>
        <time>2001-05-23T12:42:02.68</time>
      </trkpt>
      <trkpt lat="42.53395" lon="2.04363">
        <ele>2052.8874826398</ele>
        <time>2001-05-23T12:42:03.68</time>
      </trkpt>
      <trkpt lat="42.53396" lon="2.04362">
        <ele>2052.9825763743</ele>
        <time>2001-05-23T12:42:04.67</time>
      </trkpt>
      <trkpt lat="42.53396" lon="2.04361">
        <ele>2053.2019498412</ele>
        <time>2001-05-23T12:42:05.67</time>
      </trkpt>
      <trkpt lat="42.53397" lon="2.04361">
        <ele>2053.6960642448</ele>
        <time>2001-05-23T12:42:06.67</time>
      </trkpt>
      <trkpt lat="42.53399" lon="2.04361">
        <ele>2053.9577777043</ele>
        <time>2001-05-23T12:42:07.67</time>
      </trkpt>
      <trkpt lat="42.53399" lon="2.04361">
        <ele>2054.2194911638</ele>
        <time>2001-05-23T12:42:08.67</time>
      </trkpt>
      <trkpt lat="42.534" lon="2.04362">
        <ele>2055.0224802876</ele>
        <time>2001-05-23T12:42:09.68</time>
      </trkpt>
      <trkpt lat="42.534" lon="2.04362">
        <ele>2055.8170238106</ele>
        <time>2001-05-23T12:42:10.68</time>
      </trkpt>
      <trkpt lat="42.53402" lon="2.04364">
        <ele>2055.9427549548</ele>
        <time>2001-05-23T12:42:11.68</time>
      </trkpt>
      <trkpt lat="42.53402" lon="2.04364">
        <ele>2055.9162062446</ele>
        <time>2001-05-23T12:42:12.68</time>
      </trkpt>
      <trkpt lat="42.53402" lon="2.04365">
        <ele>2055.3671343088</ele>
        <time>2001-05-23T12:42:13.68</time>
      </trkpt>
      <trkpt lat="42.53403" lon="2.04366">
        <ele>2054.5483830692</ele>
        <time>2001-05-23T12:42:14.68</time>
      </trkpt>
      <trkpt lat="42.53404" lon="2.04365">
        <ele>2053.8720313471</ele>
        <time>2001-05-23T12:42:15.68</time>
      </trkpt>
      <trkpt lat="42.53405" lon="2.04365">
        <ele>2053.774297276</ele>
        <time>2001-05-23T12:42:16.69</time>
      </trkpt>
      <trkpt lat="42.53405" lon="2.04365">
        <ele>2053.6765632048</ele>
        <time>2001-05-23T12:42:17.69</time>
      </trkpt>
      <trkpt lat="42.53406" lon="2.04366">
        <ele>2054.2155160021</ele>
        <time>2001-05-23T12:42:18.71</time>
      </trkpt>
      <trkpt lat="42.53406" lon="2.04366">
        <ele>2054.7715893105</ele>
        <time>2001-05-23T12:42:19.71</time>
      </trkpt>
      <trkpt lat="42.53408" lon="2.04368">
        <ele>2055.4711311208</ele>
        <time>2001-05-23T12:42:20.71</time>
      </trkpt>
      <trkpt lat="42.53408" lon="2.04369">
        <ele>2056.0934339184</ele>
        <time>2001-05-23T12:42:21.71</time>
      </trkpt>
      <trkpt lat="42.53408" lon="2.04369">
        <ele>2056.7157367161</ele>
        <time>2001-05-23T12:42:22.71</time>
      </trkpt>
      <trkpt lat="42.53408" lon="2.04369">
        <ele>2057.2238758707</ele>
        <time>2001-05-23T12:42:23.71</time>
      </trkpt>
      <trkpt lat="42.53408" lon="2.0437">
        <ele>2057.5880182454</ele>
        <time>2001-05-23T12:42:24.71</time>
      </trkpt>
      <trkpt lat="42.53407" lon="2.04369">
        <ele>2057.5154625509</ele>
        <time>2001-05-23T12:42:25.69</time>
      </trkpt>
      <trkpt lat="42.53407" lon="2.04369">
        <ele>2057.3355996599</ele>
        <time>2001-05-23T12:42:26.69</time>
      </trkpt>
      <trkpt lat="42.53408" lon="2.04369">
        <ele>2057.1590005498</ele>
        <time>2001-05-23T12:42:27.66</time>
      </trkpt>
      <trkpt lat="42.53411" lon="2.0437">
        <ele>2057.4308890577</ele>
        <time>2001-05-23T12:42:28.66</time>
      </trkpt>
      <trkpt lat="42.53412" lon="2.04369">
        <ele>2057.9543615006</ele>
        <time>2001-05-23T12:42:29.66</time>
      </trkpt>
      <trkpt lat="42.53412" lon="2.04369">
        <ele>2058.6286639933</ele>
        <time>2001-05-23T12:42:30.66</time>
      </trkpt>
      <trkpt lat="42.53412" lon="2.04369">
        <ele>2059.3029664859</ele>
        <time>2001-05-23T12:42:31.66</time>
      </trkpt>
      <trkpt lat="42.53412" lon="2.04369">
        <ele>2059.9740051977</ele>
        <time>2001-05-23T12:42:32.66</time>
      </trkpt>
      <trkpt lat="42.53414" lon="2.04371">
        <ele>2060.3974981181</ele>
        <time>2001-05-23T12:42:33.68</time>
      </trkpt>
      <trkpt lat="42.53414" lon="2.04371">
        <ele>2060.5984399447</ele>
        <time>2001-05-23T12:42:34.68</time>
      </trkpt>
      <trkpt lat="42.53416" lon="2.04372">
        <ele>2060.658233477</ele>
        <time>2001-05-23T12:42:35.69</time>
      </trkpt>
      <trkpt lat="42.53416" lon="2.04372">
        <ele>2060.7180270093</ele>
        <time>2001-05-23T12:42:36.69</time>
      </trkpt>
      <trkpt lat="42.53417" lon="2.04373">
        <ele>2060.6628527448</ele>
        <time>2001-05-23T12:42:37.71</time>
      </trkpt>
      <trkpt lat="42.53417" lon="2.04374">
        <ele>2060.7047926238</ele>
        <time>2001-05-23T12:42:38.71</time>
      </trkpt>
      <trkpt lat="42.53417" lon="2.04376">
        <ele>2060.8892454127</ele>
        <time>2001-05-23T12:42:39.71</time>
      </trkpt>
      <trkpt lat="42.53417" lon="2.04377">
        <ele>2061.2106041178</ele>
        <time>2001-05-23T12:42:40.71</time>
      </trkpt>
      <trkpt lat="42.53417" lon="2.04378">
        <ele>2061.5615257489</ele>
        <time>2001-05-23T12:42:41.71</time>
      </trkpt>
      <trkpt lat="42.53417" lon="2.04379">
        <ele>2061.8307076069</ele>
        <time>2001-05-23T12:42:42.71</time>
      </trkpt>
      <trkpt lat="42.53417" lon="2.0438">
        <ele>2061.9412772959</ele>
        <time>2001-05-23T12:42:43.73</time>
      </trkpt>
      <trkpt lat="42.53418" lon="2.04382">
        <ele>2062.0593497949</ele>
        <time>2001-05-23T12:42:44.73</time>
      </trkpt>
      <trkpt lat="42.53419" lon="2.04382">
        <ele>2062.4100446133</ele>
        <time>2001-05-23T12:42:45.73</time>
      </trkpt>
      <trkpt lat="42.53419" lon="2.04382">
        <ele>2062.5837093886</ele>
        <time>2001-05-23T12:42:46.73</time>
      </trkpt>
      <trkpt lat="42.53419" lon="2.04383">
        <ele>2063.0365155438</ele>
        <time>2001-05-23T12:42:47.73</time>
      </trkpt>
      <trkpt lat="42.53419" lon="2.04385">
        <ele>2063.368675069</ele>
        <time>2001-05-23T12:42:48.73</time>
      </trkpt>
      <trkpt lat="42.53419" lon="2.04386">
        <ele>2063.4952064605</ele>
        <time>2001-05-23T12:42:49.73</time>
      </trkpt>
      <trkpt lat="42.5342" lon="2.04387">
        <ele>2063.4078575004</ele>
        <time>2001-05-23T12:42:50.73</time>
      </trkpt>
      <trkpt lat="42.5342" lon="2.04388">
        <ele>2063.5625744021</ele>
        <time>2001-05-23T12:42:51.73</time>
      </trkpt>
      <trkpt lat="42.53419" lon="2.0439">
        <ele>2063.0495809805</ele>
        <time>2001-05-23T12:42:52.73</time>
      </trkpt>
      <trkpt lat="42.53418" lon="2.04391">
        <ele>2062.4312917123</ele>
        <time>2001-05-23T12:42:53.73</time>
      </trkpt>
      <trkpt lat="42.53418" lon="2.04392">
        <ele>2061.5307441881</ele>
        <time>2001-05-23T12:42:54.73</time>
      </trkpt>
      <trkpt lat="42.53419" lon="2.04393">
        <ele>2060.40056268</ele>
        <time>2001-05-23T12:42:55.73</time>
      </trkpt>
      <trkpt lat="42.53419" lon="2.04395">
        <ele>2059.1820565348</ele>
        <time>2001-05-23T12:42:56.73</time>
      </trkpt>
      <trkpt lat="42.53419" lon="2.04395">
        <ele>2058.451937251</ele>
        <time>2001-05-23T12:42:57.73</time>
      </trkpt>
      <trkpt lat="42.5342" lon="2.04397">
        <ele>2057.8600897929</ele>
        <time>2001-05-23T12:42:58.73</time>
      </trkpt>
      <trkpt lat="42.53421" lon="2.04399">
        <ele>2057.540676312</ele>
        <time>2001-05-23T12:42:59.73</time>
      </trkpt>
      <trkpt lat="42.53422" lon="2.04401">
        <ele>2057.5321784865</ele>
        <time>2001-05-23T12:43:00.73</time>
      </trkpt>
      <trkpt lat="42.53422" lon="2.04402">
        <ele>2057.3878365396</ele>
        <time>2001-05-23T12:43:01.73</time>
      </trkpt>
      <trkpt lat="42.53422" lon="2.04402">
        <ele>2057.2941077908</ele>
        <time>2001-05-23T12:43:02.73</time>
      </trkpt>
      <trkpt lat="42.53422" lon="2.04403">
        <ele>2057.1962690765</ele>
        <time>2001-05-23T12:43:03.73</time>
      </trkpt>
      <trkpt lat="42.53424" lon="2.04403">
        <ele>2057.4388160024</ele>
        <time>2001-05-23T12:43:04.73</time>
      </trkpt>
      <trkpt lat="42.53425" lon="2.04405">
        <ele>2057.8864865294</ele>
        <time>2001-05-23T12:43:05.74</time>
      </trkpt>
      <trkpt lat="42.53425" lon="2.04406">
        <ele>2058.5293201871</ele>
        <time>2001-05-23T12:43:06.74</time>
      </trkpt>
      <trkpt lat="42.53426" lon="2.04406">
        <ele>2059.2227630055</ele>
        <time>2001-05-23T12:43:07.74</time>
      </trkpt>
      <trkpt lat="42.53426" lon="2.04408">
        <ele>2060.0693774404</ele>
        <time>2001-05-23T12:43:08.74</time>
      </trkpt>
      <trkpt lat="42.53427" lon="2.04409">
        <ele>2060.7713946609</ele>
        <time>2001-05-23T12:43:09.74</time>
      </trkpt>
      <trkpt lat="42.53427" lon="2.04411">
        <ele>2061.2641389826</ele>
        <time>2001-05-23T12:43:10.74</time>
      </trkpt>
      <trkpt lat="42.53428" lon="2.04412">
        <ele>2061.9029265387</ele>
        <time>2001-05-23T12:43:11.74</time>
      </trkpt>
      <trkpt lat="42.53429" lon="2.04413">
        <ele>2062.7215654794</ele>
        <time>2001-05-23T12:43:12.72</time>
      </trkpt>
      <trkpt lat="42.53429" lon="2.04414">
        <ele>2063.4879981874</ele>
        <time>2001-05-23T12:43:13.72</time>
      </trkpt>
      <trkpt lat="42.53429" lon="2.04415">
        <ele>2064.4496690683</ele>
        <time>2001-05-23T12:43:14.72</time>
      </trkpt>
      <trkpt lat="42.53429" lon="2.04418">
        <ele>2065.5743896287</ele>
        <time>2001-05-23T12:43:15.81</time>
      </trkpt>
      <trkpt lat="42.5343" lon="2.04419">
        <ele>2066.2841954166</ele>
        <time>2001-05-23T12:43:16.81</time>
      </trkpt>
      <trkpt lat="42.53431" lon="2.0442">
        <ele>2066.9310826741</ele>
        <time>2001-05-23T12:43:17.81</time>
      </trkpt>
      <trkpt lat="42.53433" lon="2.0442">
        <ele>2067.5099279888</ele>
        <time>2001-05-23T12:43:18.81</time>
      </trkpt>
      <trkpt lat="42.53434" lon="2.04421">
        <ele>2067.7152871341</ele>
        <time>2001-05-23T12:43:19.81</time>
      </trkpt>
      <trkpt lat="42.53435" lon="2.04421">
        <ele>2067.9303049384</ele>
        <time>2001-05-23T12:43:20.81</time>
      </trkpt>
      <trkpt lat="42.53435" lon="2.04421">
        <ele>2068.3486011639</ele>
        <time>2001-05-23T12:43:21.81</time>
      </trkpt>
      <trkpt lat="42.53436" lon="2.0442">
        <ele>2068.3167962845</ele>
        <time>2001-05-23T12:43:22.85</time>
      </trkpt>
      <trkpt lat="42.53436" lon="2.0442">
        <ele>2068.2044047795</ele>
        <time>2001-05-23T12:43:23.85</time>
      </trkpt>
      <trkpt lat="42.53437" lon="2.04421">
        <ele>2068.2915437125</ele>
        <time>2001-05-23T12:43:24.94</time>
      </trkpt>
      <trkpt lat="42.53437" lon="2.04421">
        <ele>2068.1143423434</ele>
        <time>2001-05-23T12:43:25.94</time>
      </trkpt>
      <trkpt lat="42.53438" lon="2.04421">
        <ele>2068.2337725563</ele>
        <time>2001-05-23T12:43:26.95</time>
      </trkpt>
      <trkpt lat="42.53438" lon="2.04421">
        <ele>2068.682038313</ele>
        <time>2001-05-23T12:43:27.95</time>
      </trkpt>
      <trkpt lat="42.53439" lon="2.04421">
        <ele>2068.9770272687</ele>
        <time>2001-05-23T12:43:28.97</time>
      </trkpt>
      <trkpt lat="42.53439" lon="2.04422">
        <ele>2068.8816746227</ele>
        <time>2001-05-23T12:43:29.97</time>
      </trkpt>
      <trkpt lat="42.5344" lon="2.04423">
        <ele>2068.8358294079</ele>
        <time>2001-05-23T12:43:30.97</time>
      </trkpt>
      <trkpt lat="42.5344" lon="2.04424">
        <ele>2068.6723378804</ele>
        <time>2001-05-23T12:43:31.97</time>
      </trkpt>
      <trkpt lat="42.53439" lon="2.04424">
        <ele>2067.7877340641</ele>
        <time>2001-05-23T12:43:32.102</time>
      </trkpt>
      <trkpt lat="42.53439" lon="2.04424">
        <ele>2067.0564070487</ele>
        <time>2001-05-23T12:43:33.102</time>
      </trkpt>
      <trkpt lat="42.5344" lon="2.04424">
        <ele>2066.359411741</ele>
        <time>2001-05-23T12:43:34.101</time>
      </trkpt>
      <trkpt lat="42.5344" lon="2.04424">
        <ele>2065.6129090022</ele>
        <time>2001-05-23T12:43:35.101</time>
      </trkpt>
      <trkpt lat="42.53442" lon="2.04423">
        <ele>2064.7336522512</ele>
        <time>2001-05-23T12:43:36.100</time>
      </trkpt>
      <trkpt lat="42.53444" lon="2.04423">
        <ele>2064.670622055</ele>
        <time>2001-05-23T12:43:37.100</time>
      </trkpt>
      <trkpt lat="42.53444" lon="2.04423">
        <ele>2064.6075918589</ele>
        <time>2001-05-23T12:43:38.100</time>
      </trkpt>
      <trkpt lat="42.53444" lon="2.04423">
        <ele>2064.1465807354</ele>
        <time>2001-05-23T12:43:39.104</time>
      </trkpt>
      <trkpt lat="42.53448" lon="2.04424">
        <ele>2063.8634333991</ele>
        <time>2001-05-23T12:43:40.104</time>
      </trkpt>
      <trkpt lat="42.5345" lon="2.04424">
        <ele>2063.6184259953</ele>
        <time>2001-05-23T12:43:41.104</time>
      </trkpt>
      <trkpt lat="42.5345" lon="2.04424">
        <ele>2063.2783043254</ele>
        <time>2001-05-23T12:43:42.104</time>
      </trkpt>
      <trkpt lat="42.5345" lon="2.04424">
        <ele>2062.9381826555</ele>
        <time>2001-05-23T12:43:43.104</time>
      </trkpt>
      <trkpt lat="42.5345" lon="2.04424">
        <ele>2063.2004176322</ele>
        <time>2001-05-23T12:43:44.104</time>
      </trkpt>
      <trkpt lat="42.53449" lon="2.04424">
        <ele>2063.0661554117</ele>
        <time>2001-05-23T12:43:45.105</time>
      </trkpt>
      <trkpt lat="42.53449" lon="2.04424">
        <ele>2062.8475220015</ele>
        <time>2001-05-23T12:43:46.105</time>
      </trkpt>
      <trkpt lat="42.5345" lon="2.04424">
        <ele>2062.8708456293</ele>
        <time>2001-05-23T12:43:47.105</time>
      </trkpt>
      <trkpt lat="42.53451" lon="2.04424">
        <ele>2063.1359195154</ele>
        <time>2001-05-23T12:43:48.105</time>
      </trkpt>
      <trkpt lat="42.53451" lon="2.04424">
        <ele>2063.4511940004</ele>
        <time>2001-05-23T12:43:49.104</time>
      </trkpt>
      <trkpt lat="42.53451" lon="2.04424">
        <ele>2063.9851018956</ele>
        <time>2001-05-23T12:43:50.104</time>
      </trkpt>
      <trkpt lat="42.53452" lon="2.04424">
        <ele>2064.5805368183</ele>
        <time>2001-05-23T12:43:51.106</time>
      </trkpt>
      <trkpt lat="42.53452" lon="2.04424">
        <ele>2064.9340147031</ele>
        <time>2001-05-23T12:43:52.106</time>
      </trkpt>
      <trkpt lat="42.53452" lon="2.04424">
        <ele>2064.9440607578</ele>
        <time>2001-05-23T12:43:53.106</time>
      </trkpt>
      <trkpt lat="42.53452" lon="2.04424">
        <ele>2064.9039062135</ele>
        <time>2001-05-23T12:43:54.106</time>
      </trkpt>
      <trkpt lat="42.53451" lon="2.04423">
        <ele>2064.7602130461</ele>
        <time>2001-05-23T12:43:55.106</time>
      </trkpt>
      <trkpt lat="42.53451" lon="2.04423">
        <ele>2064.5549928512</ele>
        <time>2001-05-23T12:43:56.106</time>
      </trkpt>
      <trkpt lat="42.5345" lon="2.04424">
        <ele>2063.8384153511</ele>
        <time>2001-05-23T12:43:57.108</time>
      </trkpt>
      <trkpt lat="42.53449" lon="2.04424">
        <ele>2062.9380913803</ele>
        <time>2001-05-23T12:43:58.108</time>
      </trkpt>
      <trkpt lat="42.53448" lon="2.04423">
        <ele>2061.7112244437</ele>
        <time>2001-05-23T12:43:59.111</time>
      </trkpt>
      <trkpt lat="42.53448" lon="2.04423">
        <ele>2060.632707453</ele>
        <time>2001-05-23T12:44:00.111</time>
      </trkpt>
      <trkpt lat="42.53448" lon="2.04423">
        <ele>2059.614912759</ele>
        <time>2001-05-23T12:44:01.112</time>
      </trkpt>
      <trkpt lat="42.53448" lon="2.04423">
        <ele>2059.1084753701</ele>
        <time>2001-05-23T12:44:02.112</time>
      </trkpt>
      <trkpt lat="42.53446" lon="2.04423">
        <ele>2058.7166660992</ele>
        <time>2001-05-23T12:44:03.112</time>
      </trkpt>
      <trkpt lat="42.53446" lon="2.04422">
        <ele>2058.3038685046</ele>
        <time>2001-05-23T12:44:04.112</time>
      </trkpt>
      <trkpt lat="42.53445" lon="2.04423">
        <ele>2058.0369853977</ele>
        <time>2001-05-23T12:44:05.113</time>
      </trkpt>
      <trkpt lat="42.53445" lon="2.04423">
        <ele>2057.7093799941</ele>
        <time>2001-05-23T12:44:06.113</time>
      </trkpt>
      <trkpt lat="42.53446" lon="2.04422">
        <ele>2057.5178520573</ele>
        <time>2001-05-23T12:44:07.117</time>
      </trkpt>
      <trkpt lat="42.53446" lon="2.0442">
        <ele>2057.3099337203</ele>
        <time>2001-05-23T12:44:08.117</time>
      </trkpt>
      <trkpt lat="42.53446" lon="2.04419">
        <ele>2057.3365691295</ele>
        <time>2001-05-23T12:44:09.117</time>
      </trkpt>
      <trkpt lat="42.53445" lon="2.04418">
        <ele>2056.910947294</ele>
        <time>2001-05-23T12:44:10.117</time>
      </trkpt>
      <trkpt lat="42.53444" lon="2.04418">
        <ele>2056.285246361</ele>
        <time>2001-05-23T12:44:11.117</time>
      </trkpt>
      <trkpt lat="42.53443" lon="2.04417">
        <ele>2055.2283334598</ele>
        <time>2001-05-23T12:44:12.117</time>
      </trkpt>
      <trkpt lat="42.53442" lon="2.04416">
        <ele>2054.1220088551</ele>
        <time>2001-05-23T12:44:13.117</time>
      </trkpt>
      <trkpt lat="42.53442" lon="2.04415">
        <ele>2053.2907271909</ele>
        <time>2001-05-23T12:44:14.117</time>
      </trkpt>
      <trkpt lat="42.53442" lon="2.04415">
        <ele>2052.7209769607</ele>
        <time>2001-05-23T12:44:15.117</time>
      </trkpt>
      <trkpt lat="42.5344" lon="2.04414">
        <ele>2052.2685159562</ele>
        <time>2001-05-23T12:44:16.117</time>
      </trkpt>
      <trkpt lat="42.53439" lon="2.04415">
        <ele>2052.2926497411</ele>
        <time>2001-05-23T12:44:17.117</time>
      </trkpt>
      <trkpt lat="42.53438" lon="2.04414">
        <ele>2053.1379702259</ele>
        <time>2001-05-23T12:44:18.117</time>
      </trkpt>
      <trkpt lat="42.53437" lon="2.04414">
        <ele>2053.4944138546</ele>
        <time>2001-05-23T12:44:19.124</time>
      </trkpt>
      <trkpt lat="42.53437" lon="2.04414">
        <ele>2053.8508574832</ele>
        <time>2001-05-23T12:44:20.124</time>
      </trkpt>
      <trkpt lat="42.53435" lon="2.04413">
        <ele>2054.1868676567</ele>
        <time>2001-05-23T12:44:21.155</time>
      </trkpt>
      <trkpt lat="42.53433" lon="2.04413">
        <ele>2054.266901207</ele>
        <time>2001-05-23T12:44:22.155</time>
      </trkpt>
      <trkpt lat="42.53432" lon="2.04412">
        <ele>2053.7184563249</ele>
        <time>2001-05-23T12:44:23.155</time>
      </trkpt>
      <trkpt lat="42.53431" lon="2.04411">
        <ele>2053.4835114494</ele>
        <time>2001-05-23T12:44:24.155</time>
      </trkpt>
      <trkpt lat="42.53431" lon="2.04411">
        <ele>2053.2313612217</ele>
        <time>2001-05-23T12:44:25.155</time>
      </trkpt>
      <trkpt lat="42.53431" lon="2.04411">
        <ele>2053.1007646602</ele>
        <time>2001-05-23T12:44:26.155</time>
      </trkpt>
      <trkpt lat="42.53431" lon="2.04409">
        <ele>2052.9707122812</ele>
        <time>2001-05-23T12:44:27.154</time>
      </trkpt>
      <trkpt lat="42.53432" lon="2.04409">
        <ele>2052.884350328</ele>
        <time>2001-05-23T12:44:28.154</time>
      </trkpt>
      <trkpt lat="42.5343" lon="2.04408">
        <ele>2052.894506493</ele>
        <time>2001-05-23T12:44:29.155</time>
      </trkpt>
      <trkpt lat="42.5343" lon="2.04408">
        <ele>2052.9218680102</ele>
        <time>2001-05-23T12:44:30.155</time>
      </trkpt>
      <trkpt lat="42.53429" lon="2.04408">
        <ele>2052.7596909881</ele>
        <time>2001-05-23T12:44:31.156</time>
      </trkpt>
      <trkpt lat="42.53427" lon="2.04407">
        <ele>2052.5391783232</ele>
        <time>2001-05-23T12:44:32.156</time>
      </trkpt>
      <trkpt lat="42.53427" lon="2.04406">
        <ele>2052.5089190193</ele>
        <time>2001-05-23T12:44:33.156</time>
      </trkpt>
      <trkpt lat="42.53426" lon="2.04405">
        <ele>2052.4084028991</ele>
        <time>2001-05-23T12:44:34.156</time>
      </trkpt>
      <trkpt lat="42.53425" lon="2.04404">
        <ele>2052.6084815394</ele>
        <time>2001-05-23T12:44:35.156</time>
      </trkpt>
      <trkpt lat="42.53424" lon="2.04403">
        <ele>2053.1588209433</ele>
        <time>2001-05-23T12:44:36.156</time>
      </trkpt>
      <trkpt lat="42.53423" lon="2.04401">
        <ele>2053.5876126414</ele>
        <time>2001-05-23T12:44:37.156</time>
      </trkpt>
      <trkpt lat="42.53423" lon="2.044">
        <ele>2053.8393485798</ele>
        <time>2001-05-23T12:44:38.156</time>
      </trkpt>
      <trkpt lat="42.53423" lon="2.044">
        <ele>2054.0781346686</ele>
        <time>2001-05-23T12:44:39.156</time>
      </trkpt>
      <trkpt lat="42.53423" lon="2.044">
        <ele>2054.016325997</ele>
        <time>2001-05-23T12:44:40.156</time>
      </trkpt>
      <trkpt lat="42.53421" lon="2.04399">
        <ele>2053.7089388279</ele>
        <time>2001-05-23T12:44:41.156</time>
      </trkpt>
      <trkpt lat="42.53419" lon="2.04396">
        <ele>2053.5807618093</ele>
        <time>2001-05-23T12:44:42.156</time>
      </trkpt>
      <trkpt lat="42.53419" lon="2.04395">
        <ele>2053.4310011473</ele>
        <time>2001-05-23T12:44:43.156</time>
      </trkpt>
      <trkpt lat="42.53419" lon="2.04393">
        <ele>2053.284564651</ele>
        <time>2001-05-23T12:44:44.156</time>
      </trkpt>
      <trkpt lat="42.53419" lon="2.04392">
        <ele>2053.151101326</ele>
        <time>2001-05-23T12:44:45.156</time>
      </trkpt>
      <trkpt lat="42.5342" lon="2.04392">
        <ele>2053.2516212873</ele>
        <time>2001-05-23T12:44:46.156</time>
      </trkpt>
      <trkpt lat="42.5342" lon="2.0439">
        <ele>2053.4197425963</ele>
        <time>2001-05-23T12:44:47.156</time>
      </trkpt>
      <trkpt lat="42.5342" lon="2.04389">
        <ele>2053.6757437525</ele>
        <time>2001-05-23T12:44:48.156</time>
      </trkpt>
      <trkpt lat="42.53418" lon="2.04388">
        <ele>2053.8579847865</ele>
        <time>2001-05-23T12:44:49.158</time>
      </trkpt>
      <trkpt lat="42.53418" lon="2.04388">
        <ele>2054.0272526491</ele>
        <time>2001-05-23T12:44:50.158</time>
      </trkpt>
      <trkpt lat="42.53417" lon="2.04385">
        <ele>2053.7483401047</ele>
        <time>2001-05-23T12:44:51.160</time>
      </trkpt>
      <trkpt lat="42.53417" lon="2.04384">
        <ele>2053.5486804897</ele>
        <time>2001-05-23T12:44:52.160</time>
      </trkpt>
      <trkpt lat="42.53415" lon="2.04382">
        <ele>2053.1128900545</ele>
        <time>2001-05-23T12:44:53.162</time>
      </trkpt>
      <trkpt lat="42.53415" lon="2.04381">
        <ele>2052.6508843994</ele>
        <time>2001-05-23T12:44:54.162</time>
      </trkpt>
      <trkpt lat="42.53414" lon="2.0438">
        <ele>2052.2749191379</ele>
        <time>2001-05-23T12:44:55.162</time>
      </trkpt>
      <trkpt lat="42.53413" lon="2.04379">
        <ele>2052.2817758128</ele>
        <time>2001-05-23T12:44:56.162</time>
      </trkpt>
      <trkpt lat="42.53412" lon="2.04378">
        <ele>2052.2004749693</ele>
        <time>2001-05-23T12:44:57.162</time>
      </trkpt>
      <trkpt lat="42.53412" lon="2.04377">
        <ele>2052.2859608555</ele>
        <time>2001-05-23T12:44:58.162</time>
      </trkpt>
      <trkpt lat="42.5341" lon="2.04375">
        <ele>2052.520256428</ele>
        <time>2001-05-23T12:44:59.162</time>
      </trkpt>
      <trkpt lat="42.5341" lon="2.04374">
        <ele>2052.6640938019</ele>
        <time>2001-05-23T12:45:00.162</time>
      </trkpt>
      <trkpt lat="42.5341" lon="2.04374">
        <ele>2052.7058322942</ele>
        <time>2001-05-23T12:45:01.162</time>
      </trkpt>
      <trkpt lat="42.53409" lon="2.04373">
        <ele>2052.7374602623</ele>
        <time>2001-05-23T12:45:02.162</time>
      </trkpt>
      <trkpt lat="42.53409" lon="2.04373">
        <ele>2052.9505627271</ele>
        <time>2001-05-23T12:45:03.161</time>
      </trkpt>
      <trkpt lat="42.53407" lon="2.04371">
        <ele>2053.039130296</ele>
        <time>2001-05-23T12:45:04.161</time>
      </trkpt>
      <trkpt lat="42.53406" lon="2.04371">
        <ele>2052.989179494</ele>
        <time>2001-05-23T12:45:05.161</time>
      </trkpt>
      <trkpt lat="42.53405" lon="2.0437">
        <ele>2052.7457168361</ele>
        <time>2001-05-23T12:45:06.161</time>
      </trkpt>
      <trkpt lat="42.53404" lon="2.04369">
        <ele>2052.4304623026</ele>
        <time>2001-05-23T12:45:07.161</time>
      </trkpt>
      <trkpt lat="42.53404" lon="2.04368">
        <ele>2052.2144443342</ele>
        <time>2001-05-23T12:45:08.161</time>
      </trkpt>
      <trkpt lat="42.53403" lon="2.04367">
        <ele>2052.0405452039</ele>
        <time>2001-05-23T12:45:09.161</time>
      </trkpt>
      <trkpt lat="42.53403" lon="2.04366">
        <ele>2051.9842010913</ele>
        <time>2001-05-23T12:45:10.161</time>
      </trkpt>
      <trkpt lat="42.53403" lon="2.04366">
        <ele>2052.1267103456</ele>
        <time>2001-05-23T12:45:11.161</time>
      </trkpt>
      <trkpt lat="42.53401" lon="2.04362">
        <ele>2052.5911771983</ele>
        <time>2001-05-23T12:45:12.161</time>
      </trkpt>
      <trkpt lat="42.53401" lon="2.04362">
        <ele>2052.5660823964</ele>
        <time>2001-05-23T12:45:13.161</time>
      </trkpt>
      <trkpt lat="42.53401" lon="2.0436">
        <ele>2052.2206230383</ele>
        <time>2001-05-23T12:45:14.160</time>
      </trkpt>
      <trkpt lat="42.53401" lon="2.04359">
        <ele>2051.839645076</ele>
        <time>2001-05-23T12:45:15.160</time>
      </trkpt>
      <trkpt lat="42.53401" lon="2.04358">
        <ele>2051.4363172833</ele>
        <time>2001-05-23T12:45:16.160</time>
      </trkpt>
      <trkpt lat="42.53401" lon="2.04357">
        <ele>2050.724258204</ele>
        <time>2001-05-23T12:45:17.160</time>
      </trkpt>
      <trkpt lat="42.53398" lon="2.04354">
        <ele>2049.9723284079</ele>
        <time>2001-05-23T12:45:18.160</time>
      </trkpt>
      <trkpt lat="42.53398" lon="2.04353">
        <ele>2049.5365027044</ele>
        <time>2001-05-23T12:45:19.160</time>
      </trkpt>
      <trkpt lat="42.53397" lon="2.04352">
        <ele>2049.2197890028</ele>
        <time>2001-05-23T12:45:20.160</time>
      </trkpt>
      <trkpt lat="42.53396" lon="2.04351">
        <ele>2049.0683070447</ele>
        <time>2001-05-23T12:45:21.160</time>
      </trkpt>
      <trkpt lat="42.53396" lon="2.0435">
        <ele>2049.1922954166</ele>
        <time>2001-05-23T12:45:22.160</time>
      </trkpt>
      <trkpt lat="42.53397" lon="2.0435">
        <ele>2049.5018865874</ele>
        <time>2001-05-23T12:45:23.161</time>
      </trkpt>
      <trkpt lat="42.53397" lon="2.0435">
        <ele>2049.8459957695</ele>
        <time>2001-05-23T12:45:24.161</time>
      </trkpt>
      <trkpt lat="42.53397" lon="2.04347">
        <ele>2050.7501069365</ele>
        <time>2001-05-23T12:45:25.163</time>
      </trkpt>
      <trkpt lat="42.53395" lon="2.04346">
        <ele>2051.5970642978</ele>
        <time>2001-05-23T12:45:26.163</time>
      </trkpt>
      <trkpt lat="42.53394" lon="2.04345">
        <ele>2052.3864486134</ele>
        <time>2001-05-23T12:45:27.163</time>
      </trkpt>
      <trkpt lat="42.53393" lon="2.04344">
        <ele>2053.2789733399</ele>
        <time>2001-05-23T12:45:28.163</time>
      </trkpt>
      <trkpt lat="42.53392" lon="2.04344">
        <ele>2054.1137388255</ele>
        <time>2001-05-23T12:45:29.163</time>
      </trkpt>
      <trkpt lat="42.53391" lon="2.04344">
        <ele>2054.2739309592</ele>
        <time>2001-05-23T12:45:30.163</time>
      </trkpt>
      <trkpt lat="42.53389" lon="2.04341">
        <ele>2054.2139988691</ele>
        <time>2001-05-23T12:45:31.163</time>
      </trkpt>
      <trkpt lat="42.53389" lon="2.04341">
        <ele>2054.0207941748</ele>
        <time>2001-05-23T12:45:32.163</time>
      </trkpt>
      <trkpt lat="42.53388" lon="2.04341">
        <ele>2053.6878120303</ele>
        <time>2001-05-23T12:45:33.163</time>
      </trkpt>
      <trkpt lat="42.53388" lon="2.0434">
        <ele>2053.5321084343</ele>
        <time>2001-05-23T12:45:34.163</time>
      </trkpt>
      <trkpt lat="42.53388" lon="2.0434">
        <ele>2053.4214698415</ele>
        <time>2001-05-23T12:45:35.163</time>
      </trkpt>
      <trkpt lat="42.53387" lon="2.04339">
        <ele>2053.7326978169</ele>
        <time>2001-05-23T12:45:36.162</time>
      </trkpt>
      <trkpt lat="42.53386" lon="2.04338">
        <ele>2054.3145788457</ele>
        <time>2001-05-23T12:45:37.162</time>
      </trkpt>
      <trkpt lat="42.53385" lon="2.04338">
        <ele>2055.0642248737</ele>
        <time>2001-05-23T12:45:38.162</time>
      </trkpt>
      <trkpt lat="42.53384" lon="2.04339">
        <ele>2055.5684025608</ele>
        <time>2001-05-23T12:45:39.162</time>
      </trkpt>
      <trkpt lat="42.53383" lon="2.0434">
        <ele>2055.7546927968</ele>
        <time>2001-05-23T12:45:40.162</time>
      </trkpt>
      <trkpt lat="42.53383" lon="2.04342">
        <ele>2055.874704645</ele>
        <time>2001-05-23T12:45:41.160</time>
      </trkpt>
      <trkpt lat="42.53382" lon="2.04344">
        <ele>2055.7797156125</ele>
        <time>2001-05-23T12:45:42.160</time>
      </trkpt>
      <trkpt lat="42.53381" lon="2.04345">
        <ele>2055.4212314758</ele>
        <time>2001-05-23T12:45:43.160</time>
      </trkpt>
      <trkpt lat="42.5338" lon="2.04346">
        <ele>2055.087383086</ele>
        <time>2001-05-23T12:45:44.160</time>
      </trkpt>
      <trkpt lat="42.5338" lon="2.04346">
        <ele>2054.8054990424</ele>
        <time>2001-05-23T12:45:45.160</time>
      </trkpt>
      <trkpt lat="42.5338" lon="2.04346">
        <ele>2054.2970814239</ele>
        <time>2001-05-23T12:45:46.160</time>
      </trkpt>
      <trkpt lat="42.53381" lon="2.04347">
        <ele>2053.7402930267</ele>
        <time>2001-05-23T12:45:47.157</time>
      </trkpt>
      <trkpt lat="42.53381" lon="2.04347">
        <ele>2053.3690439051</ele>
        <time>2001-05-23T12:45:48.157</time>
      </trkpt>
      <trkpt lat="42.53381" lon="2.04346">
        <ele>2053.0557365172</ele>
        <time>2001-05-23T12:45:49.157</time>
      </trkpt>
      <trkpt lat="42.53381" lon="2.04346">
        <ele>2053.0196463585</ele>
        <time>2001-05-23T12:45:50.157</time>
      </trkpt>
      <trkpt lat="42.5338" lon="2.04346">
        <ele>2053.136154741</ele>
        <time>2001-05-23T12:45:51.157</time>
      </trkpt>
      <trkpt lat="42.5338" lon="2.04346">
        <ele>2053.2453817297</ele>
        <time>2001-05-23T12:45:52.157</time>
      </trkpt>
      <trkpt lat="42.5338" lon="2.04345">
        <ele>2053.5399933485</ele>
        <time>2001-05-23T12:45:53.112</time>
      </trkpt>
      <trkpt lat="42.5338" lon="2.04345">
        <ele>2053.87797652</ele>
        <time>2001-05-23T12:45:54.112</time>
      </trkpt>
      <trkpt lat="42.53379" lon="2.04347">
        <ele>2054.0819464235</ele>
        <time>2001-05-23T12:45:55.148</time>
      </trkpt>
      <trkpt lat="42.53379" lon="2.04347">
        <ele>2054.1333177857</ele>
        <time>2001-05-23T12:45:56.148</time>
      </trkpt>
      <trkpt lat="42.53378" lon="2.04346">
        <ele>2054.1482256927</ele>
        <time>2001-05-23T12:45:57.150</time>
      </trkpt>
      <trkpt lat="42.53377" lon="2.04346">
        <ele>2053.865597618</ele>
        <time>2001-05-23T12:45:58.150</time>
      </trkpt>
      <trkpt lat="42.53375" lon="2.04346">
        <ele>2053.5331280423</ele>
        <time>2001-05-23T12:45:59.151</time>
      </trkpt>
      <trkpt lat="42.53375" lon="2.04346">
        <ele>2053.3346717346</ele>
        <time>2001-05-23T12:46:00.151</time>
      </trkpt>
      <trkpt lat="42.53374" lon="2.04346">
        <ele>2053.2372983743</ele>
        <time>2001-05-23T12:46:01.149</time>
      </trkpt>
      <trkpt lat="42.53373" lon="2.04347">
        <ele>2053.1731246347</ele>
        <time>2001-05-23T12:46:02.149</time>
      </trkpt>
      <trkpt lat="42.53376" lon="2.04347">
        <ele>2053.6256540436</ele>
        <time>2001-05-23T12:46:03.150</time>
      </trkpt>
      <trkpt lat="42.53376" lon="2.04347">
        <ele>2054.1280249536</ele>
        <time>2001-05-23T12:46:04.150</time>
      </trkpt>
      <trkpt lat="42.53375" lon="2.04347">
        <ele>2054.4675782455</ele>
        <time>2001-05-23T12:46:05.148</time>
      </trkpt>
      <trkpt lat="42.53375" lon="2.04347">
        <ele>2054.7060485901</ele>
        <time>2001-05-23T12:46:06.148</time>
      </trkpt>
      <trkpt lat="42.53375" lon="2.04348">
        <ele>2055.2056559369</ele>
        <time>2001-05-23T12:46:07.150</time>
      </trkpt>
      <trkpt lat="42.53375" lon="2.04348">
        <ele>2055.3007114865</ele>
        <time>2001-05-23T12:46:08.150</time>
      </trkpt>
      <trkpt lat="42.53375" lon="2.0435">
        <ele>2055.7795955479</ele>
        <time>2001-05-23T12:46:09.151</time>
      </trkpt>
      <trkpt lat="42.53375" lon="2.0435">
        <ele>2056.4212972274</ele>
        <time>2001-05-23T12:46:10.151</time>
      </trkpt>
      <trkpt lat="42.53376" lon="2.04349">
        <ele>2057.3792453619</ele>
        <time>2001-05-23T12:46:11.200</time>
      </trkpt>
      <trkpt lat="42.53376" lon="2.04349">
        <ele>2058.0793203287</ele>
        <time>2001-05-23T12:46:12.200</time>
      </trkpt>
      <trkpt lat="42.53376" lon="2.04348">
        <ele>2058.5867873283</ele>
        <time>2001-05-23T12:46:13.200</time>
      </trkpt>
      <trkpt lat="42.53375" lon="2.04348">
        <ele>2058.4914138127</ele>
        <time>2001-05-23T12:46:14.200</time>
      </trkpt>
      <trkpt lat="42.53374" lon="2.04347">
        <ele>2058.0269528154</ele>
        <time>2001-05-23T12:46:15.200</time>
      </trkpt>
      <trkpt lat="42.53373" lon="2.04346">
        <ele>2056.9565156626</ele>
        <time>2001-05-23T12:46:16.200</time>
      </trkpt>
      <trkpt lat="42.53374" lon="2.04347">
        <ele>2056.2745003261</ele>
        <time>2001-05-23T12:46:17.200</time>
      </trkpt>
      <trkpt lat="42.53374" lon="2.04347">
        <ele>2055.7850929568</ele>
        <time>2001-05-23T12:46:18.200</time>
      </trkpt>
      <trkpt lat="42.53375" lon="2.04346">
        <ele>2055.6164993631</ele>
        <time>2001-05-23T12:46:19.206</time>
      </trkpt>
      <trkpt lat="42.53375" lon="2.04346">
        <ele>2055.8169932511</ele>
        <time>2001-05-23T12:46:20.206</time>
      </trkpt>
      <trkpt lat="42.53376" lon="2.04346">
        <ele>2056.4943124052</ele>
        <time>2001-05-23T12:46:21.203</time>
      </trkpt>
      <trkpt lat="42.53376" lon="2.04346">
        <ele>2056.783209743</ele>
        <time>2001-05-23T12:46:22.203</time>
      </trkpt>
      <trkpt lat="42.53375" lon="2.04346">
        <ele>2056.943606535</ele>
        <time>2001-05-23T12:46:23.204</time>
      </trkpt>
      <trkpt lat="42.53374" lon="2.04346">
        <ele>2056.9101629673</ele>
        <time>2001-05-23T12:46:24.204</time>
      </trkpt>
      <trkpt lat="42.53375" lon="2.04345">
        <ele>2056.7750950864</ele>
        <time>2001-05-23T12:46:25.201</time>
      </trkpt>
      <trkpt lat="42.53375" lon="2.04345">
        <ele>2056.4529316399</ele>
        <time>2001-05-23T12:46:26.201</time>
      </trkpt>
      <trkpt lat="42.53374" lon="2.04346">
        <ele>2056.4276053518</ele>
        <time>2001-05-23T12:46:27.204</time>
      </trkpt>
      <trkpt lat="42.53374" lon="2.04346">
        <ele>2056.5307796095</ele>
        <time>2001-05-23T12:46:28.204</time>
      </trkpt>
      <trkpt lat="42.53374" lon="2.04345">
        <ele>2056.6326166708</ele>
        <time>2001-05-23T12:46:29.202</time>
      </trkpt>
      <trkpt lat="42.53374" lon="2.04345">
        <ele>2056.8360780453</ele>
        <time>2001-05-23T12:46:30.202</time>
      </trkpt>
      <trkpt lat="42.53372" lon="2.04344">
        <ele>2057.1490572976</ele>
        <time>2001-05-23T12:46:31.201</time>
      </trkpt>
      <trkpt lat="42.53372" lon="2.04344">
        <ele>2057.1651993915</ele>
        <time>2001-05-23T12:46:32.201</time>
      </trkpt>
      <trkpt lat="42.53373" lon="2.04343">
        <ele>2057.2245743554</ele>
        <time>2001-05-23T12:46:33.199</time>
      </trkpt>
      <trkpt lat="42.53374" lon="2.04342">
        <ele>2057.4520559909</ele>
        <time>2001-05-23T12:46:34.199</time>
      </trkpt>
      <trkpt lat="42.53373" lon="2.04341">
        <ele>2057.95627995</ele>
        <time>2001-05-23T12:46:35.199</time>
      </trkpt>
      <trkpt lat="42.53373" lon="2.04341">
        <ele>2058.3509860314</ele>
        <time>2001-05-23T12:46:36.199</time>
      </trkpt>
      <trkpt lat="42.53374" lon="2.04341">
        <ele>2058.9011805627</ele>
        <time>2001-05-23T12:46:37.199</time>
      </trkpt>
      <trkpt lat="42.53374" lon="2.04341">
        <ele>2059.4081422241</ele>
        <time>2001-05-23T12:46:38.199</time>
      </trkpt>
      <trkpt lat="42.53374" lon="2.04339">
        <ele>2059.5102002604</ele>
        <time>2001-05-23T12:46:39.198</time>
      </trkpt>
      <trkpt lat="42.53374" lon="2.04339">
        <ele>2059.335515973</ele>
        <time>2001-05-23T12:46:40.198</time>
      </trkpt>
      <trkpt lat="42.53375" lon="2.04339">
        <ele>2059.402699336</ele>
        <time>2001-05-23T12:46:41.201</time>
      </trkpt>
      <trkpt lat="42.53376" lon="2.04339">
        <ele>2060.0367401751</ele>
        <time>2001-05-23T12:46:42.201</time>
      </trkpt>
      <trkpt lat="42.53378" lon="2.0434">
        <ele>2061.1288100125</ele>
        <time>2001-05-23T12:46:43.201</time>
      </trkpt>
      <trkpt lat="42.53379" lon="2.04341">
        <ele>2062.923843872</ele>
        <time>2001-05-23T12:46:44.201</time>
      </trkpt>
      <trkpt lat="42.53379" lon="2.04341">
        <ele>2064.7188777314</ele>
        <time>2001-05-23T12:46:45.201</time>
      </trkpt>
      <trkpt lat="42.53379" lon="2.04341">
        <ele>2066.2720439404</ele>
        <time>2001-05-23T12:46:46.201</time>
      </trkpt>
      <trkpt lat="42.53379" lon="2.04341">
        <ele>2067.1028642235</ele>
        <time>2001-05-23T12:46:47.201</time>
      </trkpt>
      <trkpt lat="42.53378" lon="2.04342">
        <ele>2067.5492199827</ele>
        <time>2001-05-23T12:46:48.205</time>
      </trkpt>
      <trkpt lat="42.53378" lon="2.04342">
        <ele>2067.6227844572</ele>
        <time>2001-05-23T12:46:49.205</time>
      </trkpt>
      <trkpt lat="42.53377" lon="2.04342">
        <ele>2067.6727805801</ele>
        <time>2001-05-23T12:46:50.209</time>
      </trkpt>
      <trkpt lat="42.53376" lon="2.04342">
        <ele>2067.571219416</ele>
        <time>2001-05-23T12:46:51.209</time>
      </trkpt>
      <trkpt lat="42.53377" lon="2.04342">
        <ele>2067.4586309455</ele>
        <time>2001-05-23T12:46:52.213</time>
      </trkpt>
      <trkpt lat="42.53377" lon="2.04342">
        <ele>2067.2724780006</ele>
        <time>2001-05-23T12:46:53.213</time>
      </trkpt>
      <trkpt lat="42.53376" lon="2.04343">
        <ele>2066.9445207542</ele>
        <time>2001-05-23T12:46:54.215</time>
      </trkpt>
      <trkpt lat="42.53376" lon="2.04343">
        <ele>2066.6401318593</ele>
        <time>2001-05-23T12:46:55.215</time>
      </trkpt>
      <trkpt lat="42.53378" lon="2.04343">
        <ele>2066.4957167095</ele>
        <time>2001-05-23T12:46:56.216</time>
      </trkpt>
      <trkpt lat="42.53379" lon="2.04343">
        <ele>2066.6031073637</ele>
        <time>2001-05-23T12:46:57.216</time>
      </trkpt>
      <trkpt lat="42.53378" lon="2.04343">
        <ele>2066.5764568733</ele>
        <time>2001-05-23T12:46:58.216</time>
      </trkpt>
      <trkpt lat="42.53378" lon="2.04343">
        <ele>2066.6916106844</ele>
        <time>2001-05-23T12:46:59.216</time>
      </trkpt>
      <trkpt lat="42.53379" lon="2.04342">
        <ele>2067.4535541909</ele>
        <time>2001-05-23T12:47:00.219</time>
      </trkpt>
      <trkpt lat="42.53379" lon="2.04342">
        <ele>2068.2070812393</ele>
        <time>2001-05-23T12:47:01.219</time>
      </trkpt>
      <trkpt lat="42.53381" lon="2.04343">
        <ele>2068.332413543</ele>
        <time>2001-05-23T12:47:02.219</time>
      </trkpt>
      <trkpt lat="42.5338" lon="2.04345">
        <ele>2068.4435644314</ele>
        <time>2001-05-23T12:47:03.219</time>
      </trkpt>
      <trkpt lat="42.5338" lon="2.04345">
        <ele>2068.5547153197</ele>
        <time>2001-05-23T12:47:04.219</time>
      </trkpt>
      <trkpt lat="42.5338" lon="2.04346">
        <ele>2068.0526530774</ele>
        <time>2001-05-23T12:47:05.219</time>
      </trkpt>
      <trkpt lat="42.5338" lon="2.04346">
        <ele>2067.5505908351</ele>
        <time>2001-05-23T12:47:06.219</time>
      </trkpt>
      <trkpt lat="42.53379" lon="2.04347">
        <ele>2067.4194357108</ele>
        <time>2001-05-23T12:47:07.220</time>
      </trkpt>
      <trkpt lat="42.53379" lon="2.04347">
        <ele>2067.4365031466</ele>
        <time>2001-05-23T12:47:08.220</time>
      </trkpt>
      <trkpt lat="42.53379" lon="2.04346">
        <ele>2067.6771749597</ele>
        <time>2001-05-23T12:47:09.220</time>
      </trkpt>
      <trkpt lat="42.53379" lon="2.04346">
        <ele>2067.8842702081</ele>
        <time>2001-05-23T12:47:10.220</time>
      </trkpt>
      <trkpt lat="42.5338" lon="2.04345">
        <ele>2068.9013373489</ele>
        <time>2001-05-23T12:47:11.223</time>
      </trkpt>
      <trkpt lat="42.5338" lon="2.04345">
        <ele>2069.9349136185</ele>
        <time>2001-05-23T12:47:12.223</time>
      </trkpt>
      <trkpt lat="42.53377" lon="2.04344">
        <ele>2075.4495355265</ele>
        <time>2001-05-23T12:47:13.224</time>
      </trkpt>
      <trkpt lat="42.53377" lon="2.04344">
        <ele>2080.7405530572</ele>
        <time>2001-05-23T12:47:14.224</time>
      </trkpt>
      <trkpt lat="42.53377" lon="2.04342">
        <ele>2085.6307222055</ele>
        <time>2001-05-23T12:47:15.227</time>
      </trkpt>
      <trkpt lat="42.53377" lon="2.04341">
        <ele>2089.3907351634</ele>
        <time>2001-05-23T12:47:16.227</time>
      </trkpt>
      <trkpt lat="42.53377" lon="2.04342">
        <ele>2093.4041996084</ele>
        <time>2001-05-23T12:47:17.227</time>
      </trkpt>
      <trkpt lat="42.53377" lon="2.04342">
        <ele>2092.9366184151</ele>
        <time>2001-05-23T12:47:18.227</time>
      </trkpt>
      <trkpt lat="42.53377" lon="2.04341">
        <ele>2091.9222333478</ele>
        <time>2001-05-23T12:47:19.229</time>
      </trkpt>
      <trkpt lat="42.53377" lon="2.04341">
        <ele>2091.3086966628</ele>
        <time>2001-05-23T12:47:20.229</time>
      </trkpt>
      <trkpt lat="42.53377" lon="2.04339">
        <ele>2091.2793188406</ele>
        <time>2001-05-23T12:47:21.229</time>
      </trkpt>
      <trkpt lat="42.53377" lon="2.04339">
        <ele>2090.9964895312</ele>
        <time>2001-05-23T12:47:22.229</time>
      </trkpt>
      <trkpt lat="42.53377" lon="2.04339">
        <ele>2090.766575559</ele>
        <time>2001-05-23T12:47:23.231</time>
      </trkpt>
      <trkpt lat="42.53376" lon="2.04338">
        <ele>2091.2612969784</ele>
        <time>2001-05-23T12:47:24.231</time>
      </trkpt>
      <trkpt lat="42.53376" lon="2.04337">
        <ele>2091.7752094282</ele>
        <time>2001-05-23T12:47:25.233</time>
      </trkpt>
      <trkpt lat="42.53376" lon="2.04337">
        <ele>2092.0251473134</ele>
        <time>2001-05-23T12:47:26.233</time>
      </trkpt>
      <trkpt lat="42.53376" lon="2.04338">
        <ele>2092.1777090032</ele>
        <time>2001-05-23T12:47:27.281</time>
      </trkpt>
      <trkpt lat="42.53376" lon="2.04338">
        <ele>2092.2773553556</ele>
        <time>2001-05-23T12:47:28.281</time>
      </trkpt>
      <trkpt lat="42.53376" lon="2.04336">
        <ele>2091.0493070928</ele>
        <time>2001-05-23T12:47:29.281</time>
      </trkpt>
      <trkpt lat="42.53376" lon="2.04336">
        <ele>2089.8020677997</ele>
        <time>2001-05-23T12:47:30.281</time>
      </trkpt>
      <trkpt lat="42.53375" lon="2.04337">
        <ele>2088.2459610462</ele>
        <time>2001-05-23T12:47:31.283</time>
      </trkpt>
      <trkpt lat="42.53375" lon="2.04337">
        <ele>2086.7872304883</ele>
        <time>2001-05-23T12:47:32.283</time>
      </trkpt>
      <trkpt lat="42.53375" lon="2.04338">
        <ele>2085.2944184804</ele>
        <time>2001-05-23T12:47:33.283</time>
      </trkpt>
      <trkpt lat="42.53375" lon="2.04338">
        <ele>2084.9514695702</ele>
        <time>2001-05-23T12:47:34.283</time>
      </trkpt>
      <trkpt lat="42.53376" lon="2.04337">
        <ele>2084.7554264255</ele>
        <time>2001-05-23T12:47:35.280</time>
      </trkpt>
      <trkpt lat="42.53376" lon="2.04337">
        <ele>2084.8682507411</ele>
        <time>2001-05-23T12:47:36.280</time>
      </trkpt>
      <trkpt lat="42.53377" lon="2.04338">
        <ele>2085.2117686814</ele>
        <time>2001-05-23T12:47:37.279</time>
      </trkpt>
      <trkpt lat="42.53377" lon="2.04338">
        <ele>2085.5893680716</ele>
        <time>2001-05-23T12:47:38.279</time>
      </trkpt>
      <trkpt lat="42.53376" lon="2.04338">
        <ele>2085.7411289295</ele>
        <time>2001-05-23T12:47:39.281</time>
      </trkpt>
      <trkpt lat="42.53376" lon="2.04338">
        <ele>2085.7459840219</ele>
        <time>2001-05-23T12:47:40.281</time>
      </trkpt>
      <trkpt lat="42.53378" lon="2.04338">
        <ele>2086.4722652132</ele>
        <time>2001-05-23T12:47:41.278</time>
      </trkpt>
      <trkpt lat="42.53378" lon="2.04338">
        <ele>2086.9678527797</ele>
        <time>2001-05-23T12:47:42.278</time>
      </trkpt>
      <trkpt lat="42.53379" lon="2.04337">
        <ele>2087.9686962081</ele>
        <time>2001-05-23T12:47:43.276</time>
      </trkpt>
      <trkpt lat="42.53379" lon="2.04337">
        <ele>2089.1953781689</ele>
        <time>2001-05-23T12:47:44.276</time>
      </trkpt>
      <trkpt lat="42.53379" lon="2.04338">
        <ele>2090.6080787759</ele>
        <time>2001-05-23T12:47:45.281</time>
      </trkpt>
      <trkpt lat="42.53379" lon="2.04338">
        <ele>2091.2993532842</ele>
        <time>2001-05-23T12:47:46.281</time>
      </trkpt>
      <trkpt lat="42.5338" lon="2.04338">
        <ele>2092.2056215463</ele>
        <time>2001-05-23T12:47:47.280</time>
      </trkpt>
      <trkpt lat="42.5338" lon="2.04338">
        <ele>2092.6066339465</ele>
        <time>2001-05-23T12:47:48.280</time>
      </trkpt>
      <trkpt lat="42.53381" lon="2.04336">
        <ele>2092.3861088773</ele>
        <time>2001-05-23T12:47:49.280</time>
      </trkpt>
      <trkpt lat="42.53381" lon="2.04336">
        <ele>2091.9795651618</ele>
        <time>2001-05-23T12:47:50.280</time>
      </trkpt>
      <trkpt lat="42.53382" lon="2.04337">
        <ele>2090.9403660301</ele>
        <time>2001-05-23T12:47:51.281</time>
      </trkpt>
      <trkpt lat="42.53381" lon="2.04338">
        <ele>2089.0876933727</ele>
        <time>2001-05-23T12:47:52.281</time>
      </trkpt>
      <trkpt lat="42.5338" lon="2.04339">
        <ele>2087.0645544091</ele>
        <time>2001-05-23T12:47:53.281</time>
      </trkpt>
      <trkpt lat="42.5338" lon="2.04339">
        <ele>2085.6629529148</ele>
        <time>2001-05-23T12:47:54.281</time>
      </trkpt>
      <trkpt lat="42.53379" lon="2.0434">
        <ele>2084.1424087577</ele>
        <time>2001-05-23T12:47:55.280</time>
      </trkpt>
      <trkpt lat="42.53379" lon="2.04339">
        <ele>2084.4468940372</ele>
        <time>2001-05-23T12:47:56.280</time>
      </trkpt>
      <trkpt lat="42.53378" lon="2.04338">
        <ele>2085.5286923928</ele>
        <time>2001-05-23T12:47:57.280</time>
      </trkpt>
      <trkpt lat="42.53377" lon="2.04341">
        <ele>2086.2963708322</ele>
        <time>2001-05-23T12:47:58.281</time>
      </trkpt>
      <trkpt lat="42.53376" lon="2.04342">
        <ele>2086.9514604006</ele>
        <time>2001-05-23T12:47:59.281</time>
      </trkpt>
      <trkpt lat="42.53376" lon="2.04343">
        <ele>2087.6255161321</ele>
        <time>2001-05-23T12:48:00.281</time>
      </trkpt>
      <trkpt lat="42.53377" lon="2.04345">
        <ele>2086.2871921532</ele>
        <time>2001-05-23T12:48:01.281</time>
      </trkpt>
      <trkpt lat="42.53377" lon="2.04346">
        <ele>2084.6487373225</ele>
        <time>2001-05-23T12:48:02.281</time>
      </trkpt>
      <trkpt lat="42.53376" lon="2.04347">
        <ele>2083.3520971896</ele>
        <time>2001-05-23T12:48:03.279</time>
      </trkpt>
      <trkpt lat="42.53376" lon="2.04347">
        <ele>2082.1680459278</ele>
        <time>2001-05-23T12:48:04.279</time>
      </trkpt>
      <trkpt lat="42.53377" lon="2.04346">
        <ele>2081.0592245363</ele>
        <time>2001-05-23T12:48:05.280</time>
      </trkpt>
      <trkpt lat="42.53377" lon="2.04346">
        <ele>2080.801007512</ele>
        <time>2001-05-23T12:48:06.280</time>
      </trkpt>
      <trkpt lat="42.53377" lon="2.04346">
        <ele>2080.9094345864</ele>
        <time>2001-05-23T12:48:07.280</time>
      </trkpt>
      <trkpt lat="42.53377" lon="2.04346">
        <ele>2081.1606331855</ele>
        <time>2001-05-23T12:48:08.280</time>
      </trkpt>
      <trkpt lat="42.53376" lon="2.04346">
        <ele>2079.3294793807</ele>
        <time>2001-05-23T12:48:09.249</time>
      </trkpt>
      <trkpt lat="42.53375" lon="2.04347">
        <ele>2077.3909840353</ele>
        <time>2001-05-23T12:48:10.249</time>
      </trkpt>
      <trkpt lat="42.53374" lon="2.04349">
        <ele>2074.8700105485</ele>
        <time>2001-05-23T12:48:11.260</time>
      </trkpt>
      <trkpt lat="42.53374" lon="2.04349">
        <ele>2072.1036905104</ele>
        <time>2001-05-23T12:48:12.260</time>
      </trkpt>
      <trkpt lat="42.53373" lon="2.04351">
        <ele>2069.6867930721</ele>
        <time>2001-05-23T12:48:13.262</time>
      </trkpt>
      <trkpt lat="42.53373" lon="2.04351">
        <ele>2069.3522480378</ele>
        <time>2001-05-23T12:48:14.262</time>
      </trkpt>
      <trkpt lat="42.53371" lon="2.04351">
        <ele>2070.1365304992</ele>
        <time>2001-05-23T12:48:15.262</time>
      </trkpt>
      <trkpt lat="42.53371" lon="2.04351">
        <ele>2071.4726924246</ele>
        <time>2001-05-23T12:48:16.262</time>
      </trkpt>
      <trkpt lat="42.5337" lon="2.04352">
        <ele>2072.5759355705</ele>
        <time>2001-05-23T12:48:17.264</time>
      </trkpt>
      <trkpt lat="42.5337" lon="2.04352">
        <ele>2073.3297561167</ele>
        <time>2001-05-23T12:48:18.264</time>
      </trkpt>
      <trkpt lat="42.53372" lon="2.04351">
        <ele>2073.9305900916</ele>
        <time>2001-05-23T12:48:19.264</time>
      </trkpt>
      <trkpt lat="42.53372" lon="2.04351">
        <ele>2073.5446847409</ele>
        <time>2001-05-23T12:48:20.264</time>
      </trkpt>
      <trkpt lat="42.53372" lon="2.04352">
        <ele>2073.1710998014</ele>
        <time>2001-05-23T12:48:21.264</time>
      </trkpt>
      <trkpt lat="42.53371" lon="2.04353">
        <ele>2073.009099775</ele>
        <time>2001-05-23T12:48:22.264</time>
      </trkpt>
      <trkpt lat="42.53371" lon="2.04352">
        <ele>2073.14139504</ele>
        <time>2001-05-23T12:48:23.267</time>
      </trkpt>
      <trkpt lat="42.53371" lon="2.04352">
        <ele>2073.4266768763</ele>
        <time>2001-05-23T12:48:24.267</time>
      </trkpt>
      <trkpt lat="42.53373" lon="2.04352">
        <ele>2073.6450377529</ele>
        <time>2001-05-23T12:48:25.268</time>
      </trkpt>
      <trkpt lat="42.53373" lon="2.04352">
        <ele>2073.8510782184</ele>
        <time>2001-05-23T12:48:26.268</time>
      </trkpt>
      <trkpt lat="42.53373" lon="2.0435">
        <ele>2074.102679665</ele>
        <time>2001-05-23T12:48:27.264</time>
      </trkpt>
      <trkpt lat="42.53374" lon="2.04349">
        <ele>2074.0825483605</ele>
        <time>2001-05-23T12:48:28.264</time>
      </trkpt>
      <trkpt lat="42.53375" lon="2.04348">
        <ele>2074.0762683865</ele>
        <time>2001-05-23T12:48:29.264</time>
      </trkpt>
      <trkpt lat="42.53375" lon="2.04348">
        <ele>2074.1495812586</ele>
        <time>2001-05-23T12:48:30.264</time>
      </trkpt>
      <trkpt lat="42.53375" lon="2.04347">
        <ele>2074.2385999067</ele>
        <time>2001-05-23T12:48:31.263</time>
      </trkpt>
      <trkpt lat="42.53376" lon="2.04345">
        <ele>2074.2847590059</ele>
        <time>2001-05-23T12:48:32.263</time>
      </trkpt>
      <trkpt lat="42.53377" lon="2.04345">
        <ele>2073.8703069121</ele>
        <time>2001-05-23T12:48:33.264</time>
      </trkpt>
      <trkpt lat="42.53379" lon="2.04345">
        <ele>2072.8678226274</ele>
        <time>2001-05-23T12:48:34.264</time>
      </trkpt>
      <trkpt lat="42.5338" lon="2.04344">
        <ele>2071.1654571468</ele>
        <time>2001-05-23T12:48:35.264</time>
      </trkpt>
      <trkpt lat="42.5338" lon="2.04344">
        <ele>2069.4473858902</ele>
        <time>2001-05-23T12:48:36.264</time>
      </trkpt>
      <trkpt lat="42.53379" lon="2.04345">
        <ele>2067.0372384055</ele>
        <time>2001-05-23T12:48:37.264</time>
      </trkpt>
      <trkpt lat="42.53379" lon="2.04345">
        <ele>2065.0651395734</ele>
        <time>2001-05-23T12:48:38.264</time>
      </trkpt>
      <trkpt lat="42.53381" lon="2.04344">
        <ele>2063.8231677536</ele>
        <time>2001-05-23T12:48:39.264</time>
      </trkpt>
      <trkpt lat="42.53381" lon="2.04344">
        <ele>2063.1543824246</ele>
        <time>2001-05-23T12:48:40.263</time>
      </trkpt>
      <trkpt lat="42.53381" lon="2.04345">
        <ele>2063.0591820266</ele>
        <time>2001-05-23T12:48:41.263</time>
      </trkpt>
      <trkpt lat="42.53381" lon="2.04345">
        <ele>2063.542379351</ele>
        <time>2001-05-23T12:48:42.267</time>
      </trkpt>
      <trkpt lat="42.53382" lon="2.04344">
        <ele>2063.9696766177</ele>
        <time>2001-05-23T12:48:43.267</time>
      </trkpt>
      <trkpt lat="42.53383" lon="2.04343">
        <ele>2064.1799602112</ele>
        <time>2001-05-23T12:48:44.267</time>
      </trkpt>
      <trkpt lat="42.53384" lon="2.04343">
        <ele>2064.4428072449</ele>
        <time>2001-05-23T12:48:45.267</time>
      </trkpt>
      <trkpt lat="42.53384" lon="2.04342">
        <ele>2064.0544605669</ele>
        <time>2001-05-23T12:48:46.267</time>
      </trkpt>
      <trkpt lat="42.53382" lon="2.04341">
        <ele>2063.9160960877</ele>
        <time>2001-05-23T12:48:47.267</time>
      </trkpt>
      <trkpt lat="42.53382" lon="2.04341">
        <ele>2063.8336316662</ele>
        <time>2001-05-23T12:48:48.267</time>
      </trkpt>
      <trkpt lat="42.53384" lon="2.04338">
        <ele>2064.0373866247</ele>
        <time>2001-05-23T12:48:49.267</time>
      </trkpt>
      <trkpt lat="42.53386" lon="2.04336">
        <ele>2064.2898439037</ele>
        <time>2001-05-23T12:48:50.267</time>
      </trkpt>
      <trkpt lat="42.53388" lon="2.04333">
        <ele>2064.6255151123</ele>
        <time>2001-05-23T12:48:51.267</time>
      </trkpt>
      <trkpt lat="42.53388" lon="2.04332">
        <ele>2064.7159902629</ele>
        <time>2001-05-23T12:48:52.267</time>
      </trkpt>
      <trkpt lat="42.5339" lon="2.0433">
        <ele>2065.0893038355</ele>
        <time>2001-05-23T12:48:53.267</time>
      </trkpt>
      <trkpt lat="42.53388" lon="2.04332">
        <ele>2064.7345130933</ele>
        <time>2001-05-23T12:48:54.267</time>
      </trkpt>
      <trkpt lat="42.53389" lon="2.04332">
        <ele>2064.3482179603</ele>
        <time>2001-05-23T12:48:55.267</time>
      </trkpt>
      <trkpt lat="42.53389" lon="2.04332">
        <ele>2063.9563176783</ele>
        <time>2001-05-23T12:48:56.267</time>
      </trkpt>
      <trkpt lat="42.53389" lon="2.04332">
        <ele>2063.6919421954</ele>
        <time>2001-05-23T12:48:57.267</time>
      </trkpt>
      <trkpt lat="42.53388" lon="2.04333">
        <ele>2063.0738486428</ele>
        <time>2001-05-23T12:48:58.271</time>
      </trkpt>
      <trkpt lat="42.53388" lon="2.04333">
        <ele>2062.6914871953</ele>
        <time>2001-05-23T12:48:59.271</time>
      </trkpt>
      <trkpt lat="42.53386" lon="2.04335">
        <ele>2062.4335084567</ele>
        <time>2001-05-23T12:49:00.276</time>
      </trkpt>
      <trkpt lat="42.53386" lon="2.04335">
        <ele>2062.175529718</ele>
        <time>2001-05-23T12:49:01.276</time>
      </trkpt>
      <trkpt lat="42.53387" lon="2.04336">
        <ele>2061.7482481638</ele>
        <time>2001-05-23T12:49:02.278</time>
      </trkpt>
      <trkpt lat="42.53386" lon="2.04338">
        <ele>2060.9727735702</ele>
        <time>2001-05-23T12:49:03.278</time>
      </trkpt>
      <trkpt lat="42.53386" lon="2.04338">
        <ele>2060.4645193277</ele>
        <time>2001-05-23T12:49:04.278</time>
      </trkpt>
      <trkpt lat="42.53385" lon="2.04341">
        <ele>2059.5549639124</ele>
        <time>2001-05-23T12:49:05.278</time>
      </trkpt>
      <trkpt lat="42.53384" lon="2.04341">
        <ele>2058.5337763034</ele>
        <time>2001-05-23T12:49:06.278</time>
      </trkpt>
      <trkpt lat="42.53382" lon="2.04343">
        <ele>2057.8600362264</ele>
        <time>2001-05-23T12:49:07.278</time>
      </trkpt>
      <trkpt lat="42.5338" lon="2.04346">
        <ele>2056.5676469477</ele>
        <time>2001-05-23T12:49:08.278</time>
      </trkpt>
      <trkpt lat="42.5338" lon="2.04346">
        <ele>2055.1271265645</ele>
        <time>2001-05-23T12:49:09.278</time>
      </trkpt>
      <trkpt lat="42.5338" lon="2.04345">
        <ele>2053.0722127372</ele>
        <time>2001-05-23T12:49:10.278</time>
      </trkpt>
      <trkpt lat="42.53379" lon="2.04346">
        <ele>2050.87253001</ele>
        <time>2001-05-23T12:49:11.278</time>
      </trkpt>
      <trkpt lat="42.53379" lon="2.04344">
        <ele>2048.4745947428</ele>
        <time>2001-05-23T12:49:12.278</time>
      </trkpt>
      <trkpt lat="42.53379" lon="2.04344">
        <ele>2046.9888407389</ele>
        <time>2001-05-23T12:49:13.277</time>
      </trkpt>
      <trkpt lat="42.53377" lon="2.04345">
        <ele>2045.3738760497</ele>
        <time>2001-05-23T12:49:14.277</time>
      </trkpt>
      <trkpt lat="42.53377" lon="2.04347">
        <ele>2044.0218243806</ele>
        <time>2001-05-23T12:49:15.277</time>
      </trkpt>
      <trkpt lat="42.53375" lon="2.04348">
        <ele>2042.321531098</ele>
        <time>2001-05-23T12:49:16.277</time>
      </trkpt>
      <trkpt lat="42.53375" lon="2.04348">
        <ele>2040.6413456388</ele>
        <time>2001-05-23T12:49:17.277</time>
      </trkpt>
      <trkpt lat="42.53375" lon="2.04348">
        <ele>2039.0867008051</ele>
        <time>2001-05-23T12:49:18.277</time>
      </trkpt>
      <trkpt lat="42.53376" lon="2.04347">
        <ele>2038.1577568166</ele>
        <time>2001-05-23T12:49:19.277</time>
      </trkpt>
      <trkpt lat="42.53377" lon="2.04346">
        <ele>2038.0039239872</ele>
        <time>2001-05-23T12:49:20.277</time>
      </trkpt>
      <trkpt lat="42.53377" lon="2.04345">
        <ele>2038.8966110246</ele>
        <time>2001-05-23T12:49:21.276</time>
      </trkpt>
      <trkpt lat="42.53378" lon="2.04343">
        <ele>2040.1053533502</ele>
        <time>2001-05-23T12:49:22.276</time>
      </trkpt>
      <trkpt lat="42.53378" lon="2.04343">
        <ele>2041.3140956758</ele>
        <time>2001-05-23T12:49:23.276</time>
      </trkpt>
      <trkpt lat="42.53378" lon="2.04345">
        <ele>2042.4722966034</ele>
        <time>2001-05-23T12:49:24.277</time>
      </trkpt>
      <trkpt lat="42.53378" lon="2.04346">
        <ele>2043.9156644909</ele>
        <time>2001-05-23T12:49:25.277</time>
      </trkpt>
      <trkpt lat="42.53377" lon="2.04348">
        <ele>2045.6867666448</ele>
        <time>2001-05-23T12:49:26.276</time>
      </trkpt>
      <trkpt lat="42.53377" lon="2.04348">
        <ele>2047.1418135105</ele>
        <time>2001-05-23T12:49:27.276</time>
      </trkpt>
      <trkpt lat="42.53377" lon="2.04346">
        <ele>2048.1121478718</ele>
        <time>2001-05-23T12:49:28.275</time>
      </trkpt>
      <trkpt lat="42.53377" lon="2.04346">
        <ele>2048.7846645756</ele>
        <time>2001-05-23T12:49:29.275</time>
      </trkpt>
      <trkpt lat="42.53377" lon="2.04345">
        <ele>2049.5387024449</ele>
        <time>2001-05-23T12:49:30.273</time>
      </trkpt>
      <trkpt lat="42.53377" lon="2.04345">
        <ele>2049.5231288884</ele>
        <time>2001-05-23T12:49:31.273</time>
      </trkpt>
      <trkpt lat="42.53377" lon="2.04345">
        <ele>2049.7021012116</ele>
        <time>2001-05-23T12:49:32.269</time>
      </trkpt>
      <trkpt lat="42.53377" lon="2.04345">
        <ele>2050.3657860393</ele>
        <time>2001-05-23T12:49:33.269</time>
      </trkpt>
      <trkpt lat="42.53376" lon="2.04346">
        <ele>2051.263546619</ele>
        <time>2001-05-23T12:49:34.268</time>
      </trkpt>
      <trkpt lat="42.53376" lon="2.04346">
        <ele>2051.9925315076</ele>
        <time>2001-05-23T12:49:35.268</time>
      </trkpt>
      <trkpt lat="42.53374" lon="2.04348">
        <ele>2053.4132152583</ele>
        <time>2001-05-23T12:49:36.270</time>
      </trkpt>
      <trkpt lat="42.53376" lon="2.04347">
        <ele>2055.2193385946</ele>
        <time>2001-05-23T12:49:37.270</time>
      </trkpt>
      <trkpt lat="42.53376" lon="2.04347">
        <ele>2057.0254619308</ele>
        <time>2001-05-23T12:49:38.270</time>
      </trkpt>
      <trkpt lat="42.53375" lon="2.04347">
        <ele>2058.7088509945</ele>
        <time>2001-05-23T12:49:39.269</time>
      </trkpt>
      <trkpt lat="42.53375" lon="2.04347">
        <ele>2060.0918768015</ele>
        <time>2001-05-23T12:49:40.269</time>
      </trkpt>
      <trkpt lat="42.53376" lon="2.04346">
        <ele>2060.450075466</ele>
        <time>2001-05-23T12:49:41.270</time>
      </trkpt>
      <trkpt lat="42.53376" lon="2.04346">
        <ele>2060.082819115</ele>
        <time>2001-05-23T12:49:42.270</time>
      </trkpt>
      <trkpt lat="42.53375" lon="2.04345">
        <ele>2059.7830251073</ele>
        <time>2001-05-23T12:49:43.270</time>
      </trkpt>
      <trkpt lat="42.53375" lon="2.04346">
        <ele>2059.2369160784</ele>
        <time>2001-05-23T12:49:44.270</time>
      </trkpt>
      <trkpt lat="42.53374" lon="2.04346">
        <ele>2058.5720543852</ele>
        <time>2001-05-23T12:49:45.270</time>
      </trkpt>
      <trkpt lat="42.53374" lon="2.04346">
        <ele>2058.2403209724</ele>
        <time>2001-05-23T12:49:46.270</time>
      </trkpt>
      <trkpt lat="42.53373" lon="2.04345">
        <ele>2057.8459900707</ele>
        <time>2001-05-23T12:49:47.268</time>
      </trkpt>
      <trkpt lat="42.53373" lon="2.04345">
        <ele>2057.3841968257</ele>
        <time>2001-05-23T12:49:48.268</time>
      </trkpt>
      <trkpt lat="42.53374" lon="2.04345">
        <ele>2057.2751310484</ele>
        <time>2001-05-23T12:49:49.269</time>
      </trkpt>
      <trkpt lat="42.53374" lon="2.04346">
        <ele>2057.4618605301</ele>
        <time>2001-05-23T12:49:50.269</time>
      </trkpt>
      <trkpt lat="42.53373" lon="2.04347">
        <ele>2057.5854944892</ele>
        <time>2001-05-23T12:49:51.267</time>
      </trkpt>
      <trkpt lat="42.53373" lon="2.04347">
        <ele>2057.9171954874</ele>
        <time>2001-05-23T12:49:52.267</time>
      </trkpt>
      <trkpt lat="42.53375" lon="2.04347">
        <ele>2058.1810730897</ele>
        <time>2001-05-23T12:49:53.267</time>
      </trkpt>
      <trkpt lat="42.53374" lon="2.04349">
        <ele>2058.0330434207</ele>
        <time>2001-05-23T12:49:54.267</time>
      </trkpt>
      <trkpt lat="42.53374" lon="2.04349">
        <ele>2057.7079711571</ele>
        <time>2001-05-23T12:49:55.267</time>
      </trkpt>
      <trkpt lat="42.53373" lon="2.04349">
        <ele>2057.3322017731</ele>
        <time>2001-05-23T12:49:56.266</time>
      </trkpt>
      <trkpt lat="42.53373" lon="2.04349">
        <ele>2056.9564323891</ele>
        <time>2001-05-23T12:49:57.266</time>
      </trkpt>
      <trkpt lat="42.53374" lon="2.04349">
        <ele>2056.5655839652</ele>
        <time>2001-05-23T12:49:58.267</time>
      </trkpt>
      <trkpt lat="42.53374" lon="2.04349">
        <ele>2056.3688888865</ele>
        <time>2001-05-23T12:49:59.267</time>
      </trkpt>
      <trkpt lat="42.53375" lon="2.04348">
        <ele>2056.2124485714</ele>
        <time>2001-05-23T12:50:00.263</time>
      </trkpt>
      <trkpt lat="42.53375" lon="2.04348">
        <ele>2056.1698008994</ele>
        <time>2001-05-23T12:50:01.263</time>
      </trkpt>
      <trkpt lat="42.53375" lon="2.04348">
        <ele>2055.823519516</ele>
        <time>2001-05-23T12:50:02.264</time>
      </trkpt>
      <trkpt lat="42.53375" lon="2.04348">
        <ele>2055.8362189718</ele>
        <time>2001-05-23T12:50:03.264</time>
      </trkpt>
      <trkpt lat="42.53375" lon="2.04348">
        <ele>2056.2295958288</ele>
        <time>2001-05-23T12:50:04.267</time>
      </trkpt>
      <trkpt lat="42.53375" lon="2.04349">
        <ele>2056.4304197047</ele>
        <time>2001-05-23T12:50:05.267</time>
      </trkpt>
      <trkpt lat="42.53374" lon="2.04347">
        <ele>2056.8898847664</ele>
        <time>2001-05-23T12:50:06.268</time>
      </trkpt>
      <trkpt lat="42.53375" lon="2.04347">
        <ele>2057.6603511205</ele>
        <time>2001-05-23T12:50:07.268</time>
      </trkpt>
      <trkpt lat="42.53376" lon="2.04348">
        <ele>2057.7091782149</ele>
        <time>2001-05-23T12:50:08.269</time>
      </trkpt>
      <trkpt lat="42.53376" lon="2.04348">
        <ele>2057.377327908</ele>
        <time>2001-05-23T12:50:09.269</time>
      </trkpt>
      <trkpt lat="42.53377" lon="2.04346">
        <ele>2057.3329453535</ele>
        <time>2001-05-23T12:50:10.271</time>
      </trkpt>
      <trkpt lat="42.53377" lon="2.04346">
        <ele>2057.0299216133</ele>
        <time>2001-05-23T12:50:11.271</time>
      </trkpt>
      <trkpt lat="42.53376" lon="2.04347">
        <ele>2056.9265872914</ele>
        <time>2001-05-23T12:50:12.271</time>
      </trkpt>
      <trkpt lat="42.53376" lon="2.04347">
        <ele>2057.268813826</ele>
        <time>2001-05-23T12:50:13.271</time>
      </trkpt>
      <trkpt lat="42.53377" lon="2.04347">
        <ele>2056.9359799448</ele>
        <time>2001-05-23T12:50:14.268</time>
      </trkpt>
      <trkpt lat="42.53379" lon="2.04348">
        <ele>2055.9259209745</ele>
        <time>2001-05-23T12:50:15.268</time>
      </trkpt>
      <trkpt lat="42.53379" lon="2.04349">
        <ele>2054.6096766131</ele>
        <time>2001-05-23T12:50:16.269</time>
      </trkpt>
      <trkpt lat="42.53379" lon="2.04349">
        <ele>2053.0863752522</ele>
        <time>2001-05-23T12:50:17.269</time>
      </trkpt>
      <trkpt lat="42.53378" lon="2.04351">
        <ele>2051.3671719696</ele>
        <time>2001-05-23T12:50:18.266</time>
      </trkpt>
      <trkpt lat="42.53378" lon="2.04351">
        <ele>2050.3230291028</ele>
        <time>2001-05-23T12:50:19.266</time>
      </trkpt>
      <trkpt lat="42.53378" lon="2.04352">
        <ele>2049.6937411051</ele>
        <time>2001-05-23T12:50:20.268</time>
      </trkpt>
      <trkpt lat="42.53378" lon="2.04352">
        <ele>2049.3706384985</ele>
        <time>2001-05-23T12:50:21.268</time>
      </trkpt>
      <trkpt lat="42.53378" lon="2.04351">
        <ele>2049.5262835626</ele>
        <time>2001-05-23T12:50:22.268</time>
      </trkpt>
      <trkpt lat="42.53378" lon="2.04351">
        <ele>2049.8778305482</ele>
        <time>2001-05-23T12:50:23.268</time>
      </trkpt>
      <trkpt lat="42.53377" lon="2.04352">
        <ele>2050.4170648703</ele>
        <time>2001-05-23T12:50:24.271</time>
      </trkpt>
      <trkpt lat="42.53377" lon="2.04352">
        <ele>2051.0834998775</ele>
        <time>2001-05-23T12:50:25.271</time>
      </trkpt>
      <trkpt lat="42.53377" lon="2.04352">
        <ele>2052.0235198792</ele>
        <time>2001-05-23T12:50:26.273</time>
      </trkpt>
      <trkpt lat="42.53377" lon="2.04352">
        <ele>2052.4847922102</ele>
        <time>2001-05-23T12:50:27.273</time>
      </trkpt>
      <trkpt lat="42.53378" lon="2.04352">
        <ele>2053.0102495994</ele>
        <time>2001-05-23T12:50:28.276</time>
      </trkpt>
      <trkpt lat="42.53378" lon="2.04352">
        <ele>2053.3480196523</ele>
        <time>2001-05-23T12:50:29.276</time>
      </trkpt>
      <trkpt lat="42.53377" lon="2.04355">
        <ele>2053.9776174506</ele>
        <time>2001-05-23T12:50:30.273</time>
      </trkpt>
      <trkpt lat="42.53376" lon="2.04353">
        <ele>2054.5585999787</ele>
        <time>2001-05-23T12:50:31.273</time>
      </trkpt>
      <trkpt lat="42.53377" lon="2.04349">
        <ele>2055.1921584696</ele>
        <time>2001-05-23T12:50:32.273</time>
      </trkpt>
      <trkpt lat="42.53377" lon="2.04349">
        <ele>2055.7615319021</ele>
        <time>2001-05-23T12:50:33.273</time>
      </trkpt>
      <trkpt lat="42.53378" lon="2.04348">
        <ele>2056.2679507183</ele>
        <time>2001-05-23T12:50:34.273</time>
      </trkpt>
      <trkpt lat="42.53378" lon="2.04348">
        <ele>2056.4825417889</ele>
        <time>2001-05-23T12:50:35.273</time>
      </trkpt>
      <trkpt lat="42.53378" lon="2.04348">
        <ele>2056.4721631354</ele>
        <time>2001-05-23T12:50:36.273</time>
      </trkpt>
      <trkpt lat="42.53376" lon="2.04351">
        <ele>2056.2231377834</ele>
        <time>2001-05-23T12:50:37.273</time>
      </trkpt>
      <trkpt lat="42.53376" lon="2.04353">
        <ele>2055.8282068461</ele>
        <time>2001-05-23T12:50:38.273</time>
      </trkpt>
      <trkpt lat="42.53375" lon="2.04354">
        <ele>2055.4200590104</ele>
        <time>2001-05-23T12:50:39.272</time>
      </trkpt>
      <trkpt lat="42.53375" lon="2.04354">
        <ele>2055.0119111747</ele>
        <time>2001-05-23T12:50:40.272</time>
      </trkpt>
      <trkpt lat="42.53375" lon="2.04352">
        <ele>2057.2103662999</ele>
        <time>2001-05-23T12:50:41.314</time>
      </trkpt>
      <trkpt lat="42.53376" lon="2.04349">
        <ele>2061.1517015338</ele>
        <time>2001-05-23T12:50:42.314</time>
      </trkpt>
      <trkpt lat="42.53377" lon="2.04347">
        <ele>2065.4769974219</ele>
        <time>2001-05-23T12:50:43.314</time>
      </trkpt>
      <trkpt lat="42.53378" lon="2.04346">
        <ele>2070.0454770179</ele>
        <time>2001-05-23T12:50:44.314</time>
      </trkpt>
      <trkpt lat="42.53379" lon="2.04344">
        <ele>2074.770453079</ele>
        <time>2001-05-23T12:50:45.314</time>
      </trkpt>
      <trkpt lat="42.5338" lon="2.04343">
        <ele>2077.090583558</ele>
        <time>2001-05-23T12:50:46.314</time>
      </trkpt>
      <trkpt lat="42.53378" lon="2.04345">
        <ele>2078.2385843301</ele>
        <time>2001-05-23T12:50:47.314</time>
      </trkpt>
      <trkpt lat="42.53378" lon="2.04345">
        <ele>2079.1485300334</ele>
        <time>2001-05-23T12:50:48.314</time>
      </trkpt>
      <trkpt lat="42.53377" lon="2.04347">
        <ele>2079.795219066</ele>
        <time>2001-05-23T12:50:49.314</time>
      </trkpt>
      <trkpt lat="42.53377" lon="2.04347">
        <ele>2080.2854116336</ele>
        <time>2001-05-23T12:50:50.314</time>
      </trkpt>
      <trkpt lat="42.53377" lon="2.04347">
        <ele>2080.5738468222</ele>
        <time>2001-05-23T12:50:51.314</time>
      </trkpt>
      <trkpt lat="42.53378" lon="2.04345">
        <ele>2080.2505037906</ele>
        <time>2001-05-23T12:50:52.313</time>
      </trkpt>
      <trkpt lat="42.53378" lon="2.04345">
        <ele>2079.9271607589</ele>
        <time>2001-05-23T12:50:53.313</time>
      </trkpt>
      <trkpt lat="42.53378" lon="2.04346">
        <ele>2078.9808831982</ele>
        <time>2001-05-23T12:50:54.314</time>
      </trkpt>
      <trkpt lat="42.53379" lon="2.04345">
        <ele>2078.1456134669</ele>
        <time>2001-05-23T12:50:55.314</time>
      </trkpt>
      <trkpt lat="42.5338" lon="2.04345">
        <ele>2076.9825492721</ele>
        <time>2001-05-23T12:50:56.314</time>
      </trkpt>
      <trkpt lat="42.5338" lon="2.04345">
        <ele>2076.0465836314</ele>
        <time>2001-05-23T12:50:57.314</time>
      </trkpt>
      <trkpt lat="42.5338" lon="2.04345">
        <ele>2075.1106179908</ele>
        <time>2001-05-23T12:50:58.314</time>
      </trkpt>
      <trkpt lat="42.53383" lon="2.04345">
        <ele>2074.1072546117</ele>
        <time>2001-05-23T12:50:59.311</time>
      </trkpt>
      <trkpt lat="42.53383" lon="2.04345">
        <ele>2072.9928834032</ele>
        <time>2001-05-23T12:51:00.311</time>
      </trkpt>
      <trkpt lat="42.53381" lon="2.04345">
        <ele>2072.1408891736</ele>
        <time>2001-05-23T12:51:01.314</time>
      </trkpt>
      <trkpt lat="42.53381" lon="2.04345">
        <ele>2071.2888949439</ele>
        <time>2001-05-23T12:51:02.314</time>
      </trkpt>
      <trkpt lat="42.5338" lon="2.04346">
        <ele>2070.2738057725</ele>
        <time>2001-05-23T12:51:03.314</time>
      </trkpt>
      <trkpt lat="42.5338" lon="2.04346">
        <ele>2070.045293346</ele>
        <time>2001-05-23T12:51:04.314</time>
      </trkpt>
      <trkpt lat="42.53379" lon="2.04345">
        <ele>2069.7268095316</ele>
        <time>2001-05-23T12:51:05.313</time>
      </trkpt>
      <trkpt lat="42.53379" lon="2.04345">
        <ele>2069.473743202</ele>
        <time>2001-05-23T12:51:06.313</time>
      </trkpt>
      <trkpt lat="42.53378" lon="2.04346">
        <ele>2068.9035272352</ele>
        <time>2001-05-23T12:51:07.313</time>
      </trkpt>
      <trkpt lat="42.53378" lon="2.04346">
        <ele>2068.4964062102</ele>
        <time>2001-05-23T12:51:08.313</time>
      </trkpt>
      <trkpt lat="42.5338" lon="2.04346">
        <ele>2067.5002114419</ele>
        <time>2001-05-23T12:51:09.313</time>
      </trkpt>
      <trkpt lat="42.5338" lon="2.04346">
        <ele>2066.5939880615</ele>
        <time>2001-05-23T12:51:10.313</time>
      </trkpt>
      <trkpt lat="42.53379" lon="2.04347">
        <ele>2065.6126243109</ele>
        <time>2001-05-23T12:51:11.313</time>
      </trkpt>
      <trkpt lat="42.53379" lon="2.04347">
        <ele>2064.9484101973</ele>
        <time>2001-05-23T12:51:12.313</time>
      </trkpt>
      <trkpt lat="42.5338" lon="2.04346">
        <ele>2064.335196</ele>
        <time>2001-05-23T12:51:13.313</time>
      </trkpt>
      <trkpt lat="42.5338" lon="2.04346">
        <ele>2064.3110555459</ele>
        <time>2001-05-23T12:51:14.313</time>
      </trkpt>
      <trkpt lat="42.53381" lon="2.04346">
        <ele>2063.9092860967</ele>
        <time>2001-05-23T12:51:15.314</time>
      </trkpt>
      <trkpt lat="42.53381" lon="2.04346">
        <ele>2063.5826570177</ele>
        <time>2001-05-23T12:51:16.314</time>
      </trkpt>
      <trkpt lat="42.53381" lon="2.04344">
        <ele>2062.969911837</ele>
        <time>2001-05-23T12:51:17.313</time>
      </trkpt>
      <trkpt lat="42.53381" lon="2.04344">
        <ele>2062.3061667401</ele>
        <time>2001-05-23T12:51:18.313</time>
      </trkpt>
      <trkpt lat="42.5338" lon="2.04341">
        <ele>2062.3033068709</ele>
        <time>2001-05-23T12:51:19.315</time>
      </trkpt>
      <trkpt lat="42.53379" lon="2.0434">
        <ele>2062.5722299505</ele>
        <time>2001-05-23T12:51:20.315</time>
      </trkpt>
      <trkpt lat="42.53379" lon="2.04339">
        <ele>2062.8428674664</ele>
        <time>2001-05-23T12:51:21.315</time>
      </trkpt>
      <trkpt lat="42.53378" lon="2.04338">
        <ele>2062.7288822643</ele>
        <time>2001-05-23T12:51:22.315</time>
      </trkpt>
      <trkpt lat="42.53379" lon="2.04339">
        <ele>2062.7653070904</ele>
        <time>2001-05-23T12:51:23.314</time>
      </trkpt>
      <trkpt lat="42.53379" lon="2.04339">
        <ele>2062.1408466889</ele>
        <time>2001-05-23T12:51:24.314</time>
      </trkpt>
      <trkpt lat="42.53378" lon="2.04341">
        <ele>2061.5059331078</ele>
        <time>2001-05-23T12:51:25.314</time>
      </trkpt>
      <trkpt lat="42.53378" lon="2.04341">
        <ele>2060.8693050904</ele>
        <time>2001-05-23T12:51:26.314</time>
      </trkpt>
      <trkpt lat="42.53377" lon="2.04342">
        <ele>2060.8415235184</ele>
        <time>2001-05-23T12:51:27.313</time>
      </trkpt>
      <trkpt lat="42.53377" lon="2.04342">
        <ele>2060.6633319182</ele>
        <time>2001-05-23T12:51:28.313</time>
      </trkpt>
      <trkpt lat="42.53377" lon="2.04343">
        <ele>2060.5655107018</ele>
        <time>2001-05-23T12:51:29.313</time>
      </trkpt>
      <trkpt lat="42.53377" lon="2.04344">
        <ele>2060.5454788217</ele>
        <time>2001-05-23T12:51:30.313</time>
      </trkpt>
      <trkpt lat="42.53377" lon="2.04345">
        <ele>2060.4601408893</ele>
        <time>2001-05-23T12:51:31.313</time>
      </trkpt>
      <trkpt lat="42.53377" lon="2.04345">
        <ele>2060.4366953313</ele>
        <time>2001-05-23T12:51:32.313</time>
      </trkpt>
      <trkpt lat="42.53377" lon="2.04346">
        <ele>2060.2285949394</ele>
        <time>2001-05-23T12:51:33.314</time>
      </trkpt>
      <trkpt lat="42.53377" lon="2.04347">
        <ele>2059.9769402994</ele>
        <time>2001-05-23T12:51:34.314</time>
      </trkpt>
      <trkpt lat="42.53377" lon="2.04348">
        <ele>2059.5915957712</ele>
        <time>2001-05-23T12:51:35.313</time>
      </trkpt>
      <trkpt lat="42.53377" lon="2.04348">
        <ele>2059.2715572953</ele>
        <time>2001-05-23T12:51:36.313</time>
      </trkpt>
      <trkpt lat="42.53376" lon="2.04349">
        <ele>2058.8084535768</ele>
        <time>2001-05-23T12:51:37.314</time>
      </trkpt>
      <trkpt lat="42.53376" lon="2.04349">
        <ele>2058.5300046923</ele>
        <time>2001-05-23T12:51:38.314</time>
      </trkpt>
      <trkpt lat="42.53375" lon="2.04351">
        <ele>2058.4411980759</ele>
        <time>2001-05-23T12:51:39.311</time>
      </trkpt>
      <trkpt lat="42.53375" lon="2.04351">
        <ele>2058.5245912371</ele>
        <time>2001-05-23T12:51:40.311</time>
      </trkpt>
      <trkpt lat="42.53376" lon="2.04352">
        <ele>2058.3591035465</ele>
        <time>2001-05-23T12:51:41.304</time>
      </trkpt>
      <trkpt lat="42.53376" lon="2.04354">
        <ele>2058.2752789605</ele>
        <time>2001-05-23T12:51:42.304</time>
      </trkpt>
      <trkpt lat="42.53376" lon="2.04356">
        <ele>2057.9909497311</ele>
        <time>2001-05-23T12:51:43.304</time>
      </trkpt>
      <trkpt lat="42.53375" lon="2.0436">
        <ele>2057.377249109</ele>
        <time>2001-05-23T12:51:44.304</time>
      </trkpt>
      <trkpt lat="42.53375" lon="2.04361">
        <ele>2056.7804093989</ele>
        <time>2001-05-23T12:51:45.304</time>
      </trkpt>
      <trkpt lat="42.53375" lon="2.04363">
        <ele>2056.4188105665</ele>
        <time>2001-05-23T12:51:46.304</time>
      </trkpt>
      <trkpt lat="42.53376" lon="2.04364">
        <ele>2056.1849038403</ele>
        <time>2001-05-23T12:51:47.304</time>
      </trkpt>
      <trkpt lat="42.53376" lon="2.04365">
        <ele>2055.8395729516</ele>
        <time>2001-05-23T12:51:48.304</time>
      </trkpt>
      <trkpt lat="42.53377" lon="2.04366">
        <ele>2055.498598185</ele>
        <time>2001-05-23T12:51:49.304</time>
      </trkpt>
      <trkpt lat="42.53377" lon="2.04368">
        <ele>2054.8757797003</ele>
        <time>2001-05-23T12:51:50.304</time>
      </trkpt>
      <trkpt lat="42.53377" lon="2.04368">
        <ele>2053.9292284617</ele>
        <time>2001-05-23T12:51:51.304</time>
      </trkpt>
      <trkpt lat="42.53378" lon="2.04369">
        <ele>2052.8455337556</ele>
        <time>2001-05-23T12:51:52.304</time>
      </trkpt>
      <trkpt lat="42.53378" lon="2.04369">
        <ele>2052.3491509534</ele>
        <time>2001-05-23T12:51:53.304</time>
      </trkpt>
      <trkpt lat="42.5338" lon="2.04374">
        <ele>2051.8656717798</ele>
        <time>2001-05-23T12:51:54.304</time>
      </trkpt>
      <trkpt lat="42.53381" lon="2.04375">
        <ele>2051.6629843328</ele>
        <time>2001-05-23T12:51:55.304</time>
      </trkpt>
      <trkpt lat="42.53381" lon="2.04376">
        <ele>2051.2526061689</ele>
        <time>2001-05-23T12:51:56.304</time>
      </trkpt>
      <trkpt lat="42.53381" lon="2.04377">
        <ele>2050.7464242211</ele>
        <time>2001-05-23T12:51:57.304</time>
      </trkpt>
      <trkpt lat="42.5338" lon="2.04379">
        <ele>2050.6515212469</ele>
        <time>2001-05-23T12:51:58.309</time>
      </trkpt>
      <trkpt lat="42.5338" lon="2.0438">
        <ele>2050.6859504057</ele>
        <time>2001-05-23T12:51:59.309</time>
      </trkpt>
      <trkpt lat="42.5338" lon="2.04382">
        <ele>2050.7021139421</ele>
        <time>2001-05-23T12:52:00.309</time>
      </trkpt>
      <trkpt lat="42.53379" lon="2.04383">
        <ele>2051.4108586783</ele>
        <time>2001-05-23T12:52:01.309</time>
      </trkpt>
      <trkpt lat="42.53379" lon="2.04384">
        <ele>2052.2136968901</ele>
        <time>2001-05-23T12:52:02.309</time>
      </trkpt>
      <trkpt lat="42.53378" lon="2.04385">
        <ele>2052.2840816343</ele>
        <time>2001-05-23T12:52:03.309</time>
      </trkpt>
      <trkpt lat="42.53378" lon="2.04385">
        <ele>2052.3360925319</ele>
        <time>2001-05-23T12:52:04.309</time>
      </trkpt>
      <trkpt lat="42.53377" lon="2.04385">
        <ele>2052.3706907179</ele>
        <time>2001-05-23T12:52:05.309</time>
      </trkpt>
      <trkpt lat="42.53375" lon="2.04388">
        <ele>2052.093405957</ele>
        <time>2001-05-23T12:52:06.309</time>
      </trkpt>
      <trkpt lat="42.53375" lon="2.04388">
        <ele>2051.923325273</ele>
        <time>2001-05-23T12:52:07.309</time>
      </trkpt>
      <trkpt lat="42.53371" lon="2.0439">
        <ele>2052.4241268715</ele>
        <time>2001-05-23T12:52:08.310</time>
      </trkpt>
      <trkpt lat="42.5337" lon="2.0439">
        <ele>2052.7635519436</ele>
        <time>2001-05-23T12:52:09.310</time>
      </trkpt>
      <trkpt lat="42.53368" lon="2.04391">
        <ele>2052.8144069724</ele>
        <time>2001-05-23T12:52:10.310</time>
      </trkpt>
      <trkpt lat="42.53368" lon="2.04391">
        <ele>2053.0155926123</ele>
        <time>2001-05-23T12:52:11.310</time>
      </trkpt>
      <trkpt lat="42.53368" lon="2.04391">
        <ele>2053.1838512214</ele>
        <time>2001-05-23T12:52:12.310</time>
      </trkpt>
      <trkpt lat="42.53367" lon="2.04391">
        <ele>2053.0417325346</ele>
        <time>2001-05-23T12:52:13.309</time>
      </trkpt>
      <trkpt lat="42.53367" lon="2.04391">
        <ele>2053.035685326</ele>
        <time>2001-05-23T12:52:14.309</time>
      </trkpt>
      <trkpt lat="42.53366" lon="2.0439">
        <ele>2053.435807622</ele>
        <time>2001-05-23T12:52:15.309</time>
      </trkpt>
      <trkpt lat="42.53365" lon="2.0439">
        <ele>2053.8277655121</ele>
        <time>2001-05-23T12:52:16.309</time>
      </trkpt>
      <trkpt lat="42.53364" lon="2.0439">
        <ele>2054.1836119538</ele>
        <time>2001-05-23T12:52:17.309</time>
      </trkpt>
      <trkpt lat="42.53364" lon="2.0439">
        <ele>2054.2438290123</ele>
        <time>2001-05-23T12:52:18.309</time>
      </trkpt>
      <trkpt lat="42.5336" lon="2.04391">
        <ele>2054.0347078331</ele>
        <time>2001-05-23T12:52:19.313</time>
      </trkpt>
      <trkpt lat="42.5336" lon="2.04391">
        <ele>2053.7278566059</ele>
        <time>2001-05-23T12:52:20.313</time>
      </trkpt>
      <trkpt lat="42.53359" lon="2.04391">
        <ele>2053.1485457458</ele>
        <time>2001-05-23T12:52:21.314</time>
      </trkpt>
      <trkpt lat="42.53359" lon="2.04391">
        <ele>2052.6036330955</ele>
        <time>2001-05-23T12:52:22.314</time>
      </trkpt>
      <trkpt lat="42.53359" lon="2.04391">
        <ele>2052.1018683102</ele>
        <time>2001-05-23T12:52:23.267</time>
      </trkpt>
      <trkpt lat="42.53358" lon="2.04391">
        <ele>2052.1425750807</ele>
        <time>2001-05-23T12:52:24.267</time>
      </trkpt>
      <trkpt lat="42.53357" lon="2.04392">
        <ele>2052.2770974351</ele>
        <time>2001-05-23T12:52:25.267</time>
      </trkpt>
      <trkpt lat="42.53356" lon="2.04392">
        <ele>2052.5813040603</ele>
        <time>2001-05-23T12:52:26.267</time>
      </trkpt>
      <trkpt lat="42.53355" lon="2.04392">
        <ele>2052.9299057746</ele>
        <time>2001-05-23T12:52:27.270</time>
      </trkpt>
      <trkpt lat="42.53352" lon="2.04393">
        <ele>2053.1643908745</ele>
        <time>2001-05-23T12:52:28.270</time>
      </trkpt>
      <trkpt lat="42.5335" lon="2.04393">
        <ele>2053.1503126662</ele>
        <time>2001-05-23T12:52:29.270</time>
      </trkpt>
      <trkpt lat="42.53349" lon="2.04393">
        <ele>2052.934966054</ele>
        <time>2001-05-23T12:52:30.270</time>
      </trkpt>
      <trkpt lat="42.53348" lon="2.04394">
        <ele>2052.5437081324</ele>
        <time>2001-05-23T12:52:31.270</time>
      </trkpt>
      <trkpt lat="42.53348" lon="2.04395">
        <ele>2051.6583686206</ele>
        <time>2001-05-23T12:52:32.270</time>
      </trkpt>
      <trkpt lat="42.53347" lon="2.04395">
        <ele>2050.6161598293</ele>
        <time>2001-05-23T12:52:33.270</time>
      </trkpt>
      <trkpt lat="42.53347" lon="2.04397">
        <ele>2049.491283448</ele>
        <time>2001-05-23T12:52:34.270</time>
      </trkpt>
      <trkpt lat="42.53347" lon="2.04397">
        <ele>2048.6396759935</ele>
        <time>2001-05-23T12:52:35.270</time>
      </trkpt>
      <trkpt lat="42.53345" lon="2.04397">
        <ele>2048.3130791362</ele>
        <time>2001-05-23T12:52:36.272</time>
      </trkpt>
      <trkpt lat="42.53345" lon="2.04398">
        <ele>2048.3003227388</ele>
        <time>2001-05-23T12:52:37.272</time>
      </trkpt>
      <trkpt lat="42.53343" lon="2.04402">
        <ele>2048.4990904372</ele>
        <time>2001-05-23T12:52:38.272</time>
      </trkpt>
      <trkpt lat="42.53343" lon="2.04403">
        <ele>2048.5232125739</ele>
        <time>2001-05-23T12:52:39.272</time>
      </trkpt>
      <trkpt lat="42.53342" lon="2.04404">
        <ele>2048.2906139944</ele>
        <time>2001-05-23T12:52:40.272</time>
      </trkpt>
      <trkpt lat="42.53342" lon="2.04405">
        <ele>2047.8530136893</ele>
        <time>2001-05-23T12:52:41.272</time>
      </trkpt>
      <trkpt lat="42.5334" lon="2.04405">
        <ele>2047.639314831</ele>
        <time>2001-05-23T12:52:42.269</time>
      </trkpt>
      <trkpt lat="42.53339" lon="2.04406">
        <ele>2047.4987570588</ele>
        <time>2001-05-23T12:52:43.269</time>
      </trkpt>
      <trkpt lat="42.53338" lon="2.04406">
        <ele>2047.5868011862</ele>
        <time>2001-05-23T12:52:44.269</time>
      </trkpt>
      <trkpt lat="42.53337" lon="2.04407">
        <ele>2047.607287311</ele>
        <time>2001-05-23T12:52:45.272</time>
      </trkpt>
      <trkpt lat="42.53336" lon="2.04408">
        <ele>2047.4050262598</ele>
        <time>2001-05-23T12:52:46.272</time>
      </trkpt>
      <trkpt lat="42.53335" lon="2.04409">
        <ele>2047.3357432246</ele>
        <time>2001-05-23T12:52:47.272</time>
      </trkpt>
      <trkpt lat="42.53334" lon="2.04409">
        <ele>2047.2531229327</ele>
        <time>2001-05-23T12:52:48.272</time>
      </trkpt>
      <trkpt lat="42.53334" lon="2.0441">
        <ele>2047.2252881337</ele>
        <time>2001-05-23T12:52:49.272</time>
      </trkpt>
      <trkpt lat="42.53334" lon="2.04411">
        <ele>2047.3483156763</ele>
        <time>2001-05-23T12:52:50.272</time>
      </trkpt>
      <trkpt lat="42.5333" lon="2.04415">
        <ele>2047.8005793143</ele>
        <time>2001-05-23T12:52:51.269</time>
      </trkpt>
      <trkpt lat="42.5333" lon="2.04415">
        <ele>2048.2849855745</ele>
        <time>2001-05-23T12:52:52.269</time>
      </trkpt>
      <trkpt lat="42.53329" lon="2.04415">
        <ele>2048.9373972304</ele>
        <time>2001-05-23T12:52:53.269</time>
      </trkpt>
      <trkpt lat="42.53328" lon="2.04417">
        <ele>2049.4680628626</ele>
        <time>2001-05-23T12:52:54.269</time>
      </trkpt>
      <trkpt lat="42.53329" lon="2.04418">
        <ele>2050.0622780813</ele>
        <time>2001-05-23T12:52:55.269</time>
      </trkpt>
      <trkpt lat="42.53329" lon="2.04418">
        <ele>2050.7483963206</ele>
        <time>2001-05-23T12:52:56.269</time>
      </trkpt>
      <trkpt lat="42.53329" lon="2.04419">
        <ele>2051.2174676819</ele>
        <time>2001-05-23T12:52:57.269</time>
      </trkpt>
      <trkpt lat="42.53326" lon="2.04421">
        <ele>2050.8485302689</ele>
        <time>2001-05-23T12:52:58.271</time>
      </trkpt>
      <trkpt lat="42.53325" lon="2.04422">
        <ele>2050.48664867</ele>
        <time>2001-05-23T12:52:59.271</time>
      </trkpt>
      <trkpt lat="42.53323" lon="2.04423">
        <ele>2050.0924772168</ele>
        <time>2001-05-23T12:53:00.272</time>
      </trkpt>
      <trkpt lat="42.53322" lon="2.04423">
        <ele>2049.3903542599</ele>
        <time>2001-05-23T12:53:01.272</time>
      </trkpt>
      <trkpt lat="42.53322" lon="2.04426">
        <ele>2048.5687191833</ele>
        <time>2001-05-23T12:53:02.280</time>
      </trkpt>
      <trkpt lat="42.53322" lon="2.04426">
        <ele>2048.3545133824</ele>
        <time>2001-05-23T12:53:03.280</time>
      </trkpt>
      <trkpt lat="42.53322" lon="2.04427">
        <ele>2048.3137792239</ele>
        <time>2001-05-23T12:53:04.281</time>
      </trkpt>
      <trkpt lat="42.53322" lon="2.04429">
        <ele>2048.1280617172</ele>
        <time>2001-05-23T12:53:05.281</time>
      </trkpt>
      <trkpt lat="42.53322" lon="2.04429">
        <ele>2048.0495642912</ele>
        <time>2001-05-23T12:53:06.281</time>
      </trkpt>
      <trkpt lat="42.53323" lon="2.0443">
        <ele>2048.6149843872</ele>
        <time>2001-05-23T12:53:07.279</time>
      </trkpt>
      <trkpt lat="42.53323" lon="2.0443">
        <ele>2049.473811225</ele>
        <time>2001-05-23T12:53:08.279</time>
      </trkpt>
      <trkpt lat="42.53322" lon="2.04432">
        <ele>2050.1582493531</ele>
        <time>2001-05-23T12:53:09.282</time>
      </trkpt>
      <trkpt lat="42.53322" lon="2.04433">
        <ele>2050.7070814848</ele>
        <time>2001-05-23T12:53:10.282</time>
      </trkpt>
      <trkpt lat="42.53322" lon="2.04434">
        <ele>2051.3272660306</ele>
        <time>2001-05-23T12:53:11.282</time>
      </trkpt>
      <trkpt lat="42.53322" lon="2.04435">
        <ele>2051.6896104436</ele>
        <time>2001-05-23T12:53:12.282</time>
      </trkpt>
      <trkpt lat="42.53322" lon="2.04437">
        <ele>2051.8041929957</ele>
        <time>2001-05-23T12:53:13.282</time>
      </trkpt>
      <trkpt lat="42.53322" lon="2.04438">
        <ele>2052.0844893863</ele>
        <time>2001-05-23T12:53:14.282</time>
      </trkpt>
      <trkpt lat="42.53323" lon="2.04438">
        <ele>2052.6024448473</ele>
        <time>2001-05-23T12:53:15.282</time>
      </trkpt>
      <trkpt lat="42.53322" lon="2.0444">
        <ele>2052.6968435219</ele>
        <time>2001-05-23T12:53:16.282</time>
      </trkpt>
      <trkpt lat="42.53322" lon="2.04441">
        <ele>2052.4577756857</ele>
        <time>2001-05-23T12:53:17.282</time>
      </trkpt>
      <trkpt lat="42.53322" lon="2.04442">
        <ele>2052.2870098144</ele>
        <time>2001-05-23T12:53:18.282</time>
      </trkpt>
      <trkpt lat="42.53322" lon="2.04443">
        <ele>2052.3683217766</ele>
        <time>2001-05-23T12:53:19.282</time>
      </trkpt>
      <trkpt lat="42.53322" lon="2.04445">
        <ele>2052.4492861805</ele>
        <time>2001-05-23T12:53:20.282</time>
      </trkpt>
      <trkpt lat="42.53321" lon="2.04446">
        <ele>2052.5990813306</ele>
        <time>2001-05-23T12:53:21.282</time>
      </trkpt>
      <trkpt lat="42.53321" lon="2.04448">
        <ele>2052.5031672487</ele>
        <time>2001-05-23T12:53:22.282</time>
      </trkpt>
      <trkpt lat="42.5332" lon="2.0445">
        <ele>2052.1614759963</ele>
        <time>2001-05-23T12:53:23.282</time>
      </trkpt>
      <trkpt lat="42.5332" lon="2.04451">
        <ele>2051.2096862307</ele>
        <time>2001-05-23T12:53:24.282</time>
      </trkpt>
      <trkpt lat="42.53321" lon="2.04452">
        <ele>2050.199194032</ele>
        <time>2001-05-23T12:53:25.282</time>
      </trkpt>
      <trkpt lat="42.53321" lon="2.04452">
        <ele>2049.6411226623</ele>
        <time>2001-05-23T12:53:26.282</time>
      </trkpt>
      <trkpt lat="42.5332" lon="2.04454">
        <ele>2049.3611568866</ele>
        <time>2001-05-23T12:53:27.281</time>
      </trkpt>
      <trkpt lat="42.5332" lon="2.04456">
        <ele>2049.3661698485</ele>
        <time>2001-05-23T12:53:28.281</time>
      </trkpt>
      <trkpt lat="42.5332" lon="2.04457">
        <ele>2049.9312553879</ele>
        <time>2001-05-23T12:53:29.281</time>
      </trkpt>
      <trkpt lat="42.53317" lon="2.04459">
        <ele>2050.5151858518</ele>
        <time>2001-05-23T12:53:30.281</time>
      </trkpt>
      <trkpt lat="42.53318" lon="2.04461">
        <ele>2050.490962192</ele>
        <time>2001-05-23T12:53:31.281</time>
      </trkpt>
      <trkpt lat="42.53318" lon="2.04463">
        <ele>2050.1961109227</ele>
        <time>2001-05-23T12:53:32.281</time>
      </trkpt>
      <trkpt lat="42.53317" lon="2.04464">
        <ele>2050.3595757665</ele>
        <time>2001-05-23T12:53:33.281</time>
      </trkpt>
      <trkpt lat="42.53318" lon="2.04465">
        <ele>2050.3300239783</ele>
        <time>2001-05-23T12:53:34.281</time>
      </trkpt>
      <trkpt lat="42.53318" lon="2.04467">
        <ele>2050.2200576968</ele>
        <time>2001-05-23T12:53:35.281</time>
      </trkpt>
      <trkpt lat="42.53318" lon="2.04468">
        <ele>2050.3890109938</ele>
        <time>2001-05-23T12:53:36.281</time>
      </trkpt>
      <trkpt lat="42.53318" lon="2.0447">
        <ele>2050.6821551088</ele>
        <time>2001-05-23T12:53:37.281</time>
      </trkpt>
      <trkpt lat="42.53318" lon="2.0447">
        <ele>2050.4842924029</ele>
        <time>2001-05-23T12:53:38.281</time>
      </trkpt>
      <trkpt lat="42.53318" lon="2.04471">
        <ele>2050.4205464741</ele>
        <time>2001-05-23T12:53:39.281</time>
      </trkpt>
      <trkpt lat="42.53318" lon="2.04472">
        <ele>2050.5988933843</ele>
        <time>2001-05-23T12:53:40.281</time>
      </trkpt>
      <trkpt lat="42.53318" lon="2.04474">
        <ele>2050.7558964744</ele>
        <time>2001-05-23T12:53:41.280</time>
      </trkpt>
      <trkpt lat="42.53318" lon="2.04474">
        <ele>2051.0558303405</ele>
        <time>2001-05-23T12:53:42.280</time>
      </trkpt>
      <trkpt lat="42.53317" lon="2.04475">
        <ele>2051.0595241981</ele>
        <time>2001-05-23T12:53:43.280</time>
      </trkpt>
      <trkpt lat="42.53316" lon="2.04476">
        <ele>2050.7764938029</ele>
        <time>2001-05-23T12:53:44.280</time>
      </trkpt>
      <trkpt lat="42.53316" lon="2.04477">
        <ele>2050.5255066665</ele>
        <time>2001-05-23T12:53:45.280</time>
      </trkpt>
      <trkpt lat="42.53316" lon="2.04478">
        <ele>2050.5796542972</ele>
        <time>2001-05-23T12:53:46.280</time>
      </trkpt>
      <trkpt lat="42.53315" lon="2.04479">
        <ele>2050.5704633964</ele>
        <time>2001-05-23T12:53:47.280</time>
      </trkpt>
      <trkpt lat="42.53315" lon="2.04481">
        <ele>2050.7935116498</ele>
        <time>2001-05-23T12:53:48.280</time>
      </trkpt>
      <trkpt lat="42.53315" lon="2.04482">
        <ele>2051.2476151677</ele>
        <time>2001-05-23T12:53:49.280</time>
      </trkpt>
      <trkpt lat="42.53314" lon="2.04483">
        <ele>2051.6486858802</ele>
        <time>2001-05-23T12:53:50.280</time>
      </trkpt>
      <trkpt lat="42.53313" lon="2.04485">
        <ele>2052.0496225465</ele>
        <time>2001-05-23T12:53:51.280</time>
      </trkpt>
      <trkpt lat="42.53313" lon="2.04486">
        <ele>2052.4313444708</ele>
        <time>2001-05-23T12:53:52.280</time>
      </trkpt>
      <trkpt lat="42.53313" lon="2.04487">
        <ele>2052.6489646491</ele>
        <time>2001-05-23T12:53:53.280</time>
      </trkpt>
      <trkpt lat="42.53313" lon="2.04487">
        <ele>2052.8150536723</ele>
        <time>2001-05-23T12:53:54.280</time>
      </trkpt>
      <trkpt lat="42.53314" lon="2.04487">
        <ele>2053.0353803456</ele>
        <time>2001-05-23T12:53:55.280</time>
      </trkpt>
      <trkpt lat="42.53314" lon="2.04489">
        <ele>2053.1679304793</ele>
        <time>2001-05-23T12:53:56.280</time>
      </trkpt>
      <trkpt lat="42.53313" lon="2.0449">
        <ele>2053.5246885987</ele>
        <time>2001-05-23T12:53:57.280</time>
      </trkpt>
      <trkpt lat="42.53312" lon="2.04491">
        <ele>2054.1399375148</ele>
        <time>2001-05-23T12:53:58.280</time>
      </trkpt>
      <trkpt lat="42.53312" lon="2.04491">
        <ele>2054.7194452001</ele>
        <time>2001-05-23T12:53:59.280</time>
      </trkpt>
      <trkpt lat="42.53311" lon="2.04492">
        <ele>2055.2190589566</ele>
        <time>2001-05-23T12:54:00.280</time>
      </trkpt>
      <trkpt lat="42.53311" lon="2.04493">
        <ele>2055.5615746774</ele>
        <time>2001-05-23T12:54:01.280</time>
      </trkpt>
      <trkpt lat="42.53311" lon="2.04494">
        <ele>2055.7989617795</ele>
        <time>2001-05-23T12:54:02.280</time>
      </trkpt>
      <trkpt lat="42.53312" lon="2.04496">
        <ele>2055.6125172878</ele>
        <time>2001-05-23T12:54:03.279</time>
      </trkpt>
      <trkpt lat="42.53313" lon="2.04497">
        <ele>2055.2589683572</ele>
        <time>2001-05-23T12:54:04.279</time>
      </trkpt>
      <trkpt lat="42.53313" lon="2.04498">
        <ele>2054.7906025628</ele>
        <time>2001-05-23T12:54:05.279</time>
      </trkpt>
      <trkpt lat="42.53313" lon="2.04499">
        <ele>2054.3578332365</ele>
        <time>2001-05-23T12:54:06.279</time>
      </trkpt>
      <trkpt lat="42.53313" lon="2.04501">
        <ele>2054.0343207804</ele>
        <time>2001-05-23T12:54:07.279</time>
      </trkpt>
      <trkpt lat="42.53313" lon="2.04503">
        <ele>2054.0768300397</ele>
        <time>2001-05-23T12:54:08.279</time>
      </trkpt>
      <trkpt lat="42.53313" lon="2.04503">
        <ele>2053.9100206569</ele>
        <time>2001-05-23T12:54:09.279</time>
      </trkpt>
      <trkpt lat="42.53313" lon="2.04504">
        <ele>2053.7554842176</ele>
        <time>2001-05-23T12:54:10.279</time>
      </trkpt>
      <trkpt lat="42.53313" lon="2.04506">
        <ele>2053.5577038083</ele>
        <time>2001-05-23T12:54:11.279</time>
      </trkpt>
      <trkpt lat="42.53313" lon="2.04507">
        <ele>2053.3031633925</ele>
        <time>2001-05-23T12:54:12.279</time>
      </trkpt>
      <trkpt lat="42.53313" lon="2.04508">
        <ele>2053.001620619</ele>
        <time>2001-05-23T12:54:13.279</time>
      </trkpt>
      <trkpt lat="42.53313" lon="2.04508">
        <ele>2052.8870098481</ele>
        <time>2001-05-23T12:54:14.279</time>
      </trkpt>
      <trkpt lat="42.53311" lon="2.0451">
        <ele>2053.3335067542</ele>
        <time>2001-05-23T12:54:15.279</time>
      </trkpt>
      <trkpt lat="42.53311" lon="2.04511">
        <ele>2053.805060504</ele>
        <time>2001-05-23T12:54:16.279</time>
      </trkpt>
      <trkpt lat="42.5331" lon="2.04512">
        <ele>2054.3081427576</ele>
        <time>2001-05-23T12:54:17.279</time>
      </trkpt>
      <trkpt lat="42.5331" lon="2.04513">
        <ele>2054.6892961472</ele>
        <time>2001-05-23T12:54:18.279</time>
      </trkpt>
      <trkpt lat="42.5331" lon="2.04515">
        <ele>2055.1786741633</ele>
        <time>2001-05-23T12:54:19.279</time>
      </trkpt>
      <trkpt lat="42.53308" lon="2.04516">
        <ele>2055.1700556453</ele>
        <time>2001-05-23T12:54:20.279</time>
      </trkpt>
      <trkpt lat="42.53308" lon="2.04517">
        <ele>2055.159805079</ele>
        <time>2001-05-23T12:54:21.279</time>
      </trkpt>
      <trkpt lat="42.53307" lon="2.04518">
        <ele>2054.6882939359</ele>
        <time>2001-05-23T12:54:22.279</time>
      </trkpt>
      <trkpt lat="42.53306" lon="2.0452">
        <ele>2054.0925471619</ele>
        <time>2001-05-23T12:54:23.279</time>
      </trkpt>
      <trkpt lat="42.53305" lon="2.0452">
        <ele>2053.3834894964</ele>
        <time>2001-05-23T12:54:24.279</time>
      </trkpt>
      <trkpt lat="42.53305" lon="2.04521">
        <ele>2052.5121781267</ele>
        <time>2001-05-23T12:54:25.279</time>
      </trkpt>
      <trkpt lat="42.53304" lon="2.04521">
        <ele>2051.6374180011</ele>
        <time>2001-05-23T12:54:26.279</time>
      </trkpt>
      <trkpt lat="42.53303" lon="2.04522">
        <ele>2051.3325786339</ele>
        <time>2001-05-23T12:54:27.279</time>
      </trkpt>
      <trkpt lat="42.53302" lon="2.04522">
        <ele>2051.1709326446</ele>
        <time>2001-05-23T12:54:28.279</time>
      </trkpt>
      <trkpt lat="42.53302" lon="2.04523">
        <ele>2050.9827430863</ele>
        <time>2001-05-23T12:54:29.279</time>
      </trkpt>
      <trkpt lat="42.53302" lon="2.04523">
        <ele>2050.882290693</ele>
        <time>2001-05-23T12:54:30.279</time>
      </trkpt>
      <trkpt lat="42.53301" lon="2.04525">
        <ele>2050.9656560175</ele>
        <time>2001-05-23T12:54:31.279</time>
      </trkpt>
      <trkpt lat="42.53299" lon="2.04527">
        <ele>2050.7929846842</ele>
        <time>2001-05-23T12:54:32.280</time>
      </trkpt>
      <trkpt lat="42.53299" lon="2.04527">
        <ele>2050.5668521635</ele>
        <time>2001-05-23T12:54:33.280</time>
      </trkpt>
      <trkpt lat="42.53298" lon="2.04529">
        <ele>2050.4730781103</ele>
        <time>2001-05-23T12:54:34.282</time>
      </trkpt>
      <trkpt lat="42.53297" lon="2.0453">
        <ele>2050.5028363423</ele>
        <time>2001-05-23T12:54:35.282</time>
      </trkpt>
      <trkpt lat="42.53297" lon="2.04531">
        <ele>2050.6392269785</ele>
        <time>2001-05-23T12:54:36.282</time>
      </trkpt>
      <trkpt lat="42.53296" lon="2.04532">
        <ele>2050.9121850528</ele>
        <time>2001-05-23T12:54:37.282</time>
      </trkpt>
      <trkpt lat="42.53296" lon="2.04533">
        <ele>2051.3087270994</ele>
        <time>2001-05-23T12:54:38.282</time>
      </trkpt>
      <trkpt lat="42.53295" lon="2.04535">
        <ele>2051.3781699009</ele>
        <time>2001-05-23T12:54:39.282</time>
      </trkpt>
      <trkpt lat="42.53295" lon="2.04536">
        <ele>2051.4864000628</ele>
        <time>2001-05-23T12:54:40.282</time>
      </trkpt>
      <trkpt lat="42.53294" lon="2.04537">
        <ele>2051.3253365438</ele>
        <time>2001-05-23T12:54:41.282</time>
      </trkpt>
      <trkpt lat="42.53294" lon="2.04538">
        <ele>2050.9578055194</ele>
        <time>2001-05-23T12:54:42.282</time>
      </trkpt>
      <trkpt lat="42.53293" lon="2.04538">
        <ele>2050.6893809613</ele>
        <time>2001-05-23T12:54:43.282</time>
      </trkpt>
      <trkpt lat="42.53292" lon="2.04539">
        <ele>2050.7433227757</ele>
        <time>2001-05-23T12:54:44.282</time>
      </trkpt>
      <trkpt lat="42.53292" lon="2.0454">
        <ele>2050.5471788997</ele>
        <time>2001-05-23T12:54:45.282</time>
      </trkpt>
      <trkpt lat="42.53289" lon="2.04545">
        <ele>2050.1442156456</ele>
        <time>2001-05-23T12:54:46.283</time>
      </trkpt>
      <trkpt lat="42.53289" lon="2.04545">
        <ele>2049.8987302359</ele>
        <time>2001-05-23T12:54:47.283</time>
      </trkpt>
      <trkpt lat="42.53287" lon="2.04549">
        <ele>2049.9404800564</ele>
        <time>2001-05-23T12:54:48.285</time>
      </trkpt>
      <trkpt lat="42.53286" lon="2.0455">
        <ele>2049.8995972395</ele>
        <time>2001-05-23T12:54:49.285</time>
      </trkpt>
      <trkpt lat="42.53285" lon="2.04552">
        <ele>2049.744841847</ele>
        <time>2001-05-23T12:54:50.284</time>
      </trkpt>
      <trkpt lat="42.53283" lon="2.04553">
        <ele>2049.9803366773</ele>
        <time>2001-05-23T12:54:51.284</time>
      </trkpt>
      <trkpt lat="42.53282" lon="2.04554">
        <ele>2050.1030530576</ele>
        <time>2001-05-23T12:54:52.284</time>
      </trkpt>
      <trkpt lat="42.53282" lon="2.04554">
        <ele>2049.9412848504</ele>
        <time>2001-05-23T12:54:53.284</time>
      </trkpt>
      <trkpt lat="42.53281" lon="2.04555">
        <ele>2049.7667149613</ele>
        <time>2001-05-23T12:54:54.284</time>
      </trkpt>
      <trkpt lat="42.53281" lon="2.04555">
        <ele>2049.8876715748</ele>
        <time>2001-05-23T12:54:55.284</time>
      </trkpt>
      <trkpt lat="42.53278" lon="2.04558">
        <ele>2049.7083194131</ele>
        <time>2001-05-23T12:54:56.286</time>
      </trkpt>
      <trkpt lat="42.53277" lon="2.04558">
        <ele>2049.6477989845</ele>
        <time>2001-05-23T12:54:57.286</time>
      </trkpt>
      <trkpt lat="42.53276" lon="2.04559">
        <ele>2049.598797659</ele>
        <time>2001-05-23T12:54:58.286</time>
      </trkpt>
      <trkpt lat="42.53276" lon="2.0456">
        <ele>2049.6072063457</ele>
        <time>2001-05-23T12:54:59.286</time>
      </trkpt>
      <trkpt lat="42.53276" lon="2.04561">
        <ele>2049.5713299735</ele>
        <time>2001-05-23T12:55:00.286</time>
      </trkpt>
      <trkpt lat="42.53276" lon="2.04561">
        <ele>2049.8518574294</ele>
        <time>2001-05-23T12:55:01.286</time>
      </trkpt>
      <trkpt lat="42.53276" lon="2.04563">
        <ele>2050.0365354212</ele>
        <time>2001-05-23T12:55:02.284</time>
      </trkpt>
      <trkpt lat="42.53276" lon="2.04564">
        <ele>2050.0471952908</ele>
        <time>2001-05-23T12:55:03.284</time>
      </trkpt>
      <trkpt lat="42.53277" lon="2.04565">
        <ele>2049.9439597294</ele>
        <time>2001-05-23T12:55:04.284</time>
      </trkpt>
      <trkpt lat="42.53277" lon="2.04566">
        <ele>2049.8495555054</ele>
        <time>2001-05-23T12:55:05.284</time>
      </trkpt>
      <trkpt lat="42.53278" lon="2.04566">
        <ele>2049.921189419</ele>
        <time>2001-05-23T12:55:06.284</time>
      </trkpt>
      <trkpt lat="42.53279" lon="2.04566">
        <ele>2049.979780332</ele>
        <time>2001-05-23T12:55:07.284</time>
      </trkpt>
      <trkpt lat="42.53278" lon="2.04566">
        <ele>2050.0190489642</ele>
        <time>2001-05-23T12:55:08.284</time>
      </trkpt>
      <trkpt lat="42.53278" lon="2.04567">
        <ele>2050.0487245679</ele>
        <time>2001-05-23T12:55:09.284</time>
      </trkpt>
      <trkpt lat="42.53278" lon="2.04569">
        <ele>2049.6879592808</ele>
        <time>2001-05-23T12:55:10.284</time>
      </trkpt>
      <trkpt lat="42.53277" lon="2.0457">
        <ele>2049.1726616915</ele>
        <time>2001-05-23T12:55:11.284</time>
      </trkpt>
      <trkpt lat="42.53277" lon="2.04571">
        <ele>2048.8589296812</ele>
        <time>2001-05-23T12:55:12.284</time>
      </trkpt>
      <trkpt lat="42.53277" lon="2.04572">
        <ele>2048.3878413606</ele>
        <time>2001-05-23T12:55:13.286</time>
      </trkpt>
      <trkpt lat="42.53277" lon="2.04574">
        <ele>2047.9897196963</ele>
        <time>2001-05-23T12:55:14.286</time>
      </trkpt>
      <trkpt lat="42.53277" lon="2.04575">
        <ele>2047.9377265319</ele>
        <time>2001-05-23T12:55:15.286</time>
      </trkpt>
      <trkpt lat="42.53276" lon="2.04576">
        <ele>2047.7063756945</ele>
        <time>2001-05-23T12:55:16.286</time>
      </trkpt>
      <trkpt lat="42.53276" lon="2.04577">
        <ele>2047.4053212516</ele>
        <time>2001-05-23T12:55:17.286</time>
      </trkpt>
      <trkpt lat="42.53275" lon="2.0458">
        <ele>2047.2356228501</ele>
        <time>2001-05-23T12:55:18.287</time>
      </trkpt>
      <trkpt lat="42.53275" lon="2.04581">
        <ele>2046.9929378884</ele>
        <time>2001-05-23T12:55:19.287</time>
      </trkpt>
      <trkpt lat="42.53275" lon="2.04582">
        <ele>2046.8517252365</ele>
        <time>2001-05-23T12:55:20.287</time>
      </trkpt>
      <trkpt lat="42.53275" lon="2.04583">
        <ele>2046.9287634218</ele>
        <time>2001-05-23T12:55:21.288</time>
      </trkpt>
      <trkpt lat="42.53274" lon="2.04584">
        <ele>2046.9815893646</ele>
        <time>2001-05-23T12:55:22.288</time>
      </trkpt>
      <trkpt lat="42.53273" lon="2.04586">
        <ele>2047.250294151</ele>
        <time>2001-05-23T12:55:23.288</time>
      </trkpt>
      <trkpt lat="42.53273" lon="2.04587">
        <ele>2047.7972277787</ele>
        <time>2001-05-23T12:55:24.288</time>
      </trkpt>
      <trkpt lat="42.53273" lon="2.04589">
        <ele>2048.2517201666</ele>
        <time>2001-05-23T12:55:25.288</time>
      </trkpt>
      <trkpt lat="42.53273" lon="2.0459">
        <ele>2048.2540671675</ele>
        <time>2001-05-23T12:55:26.288</time>
      </trkpt>
      <trkpt lat="42.53272" lon="2.04591">
        <ele>2048.1087434327</ele>
        <time>2001-05-23T12:55:27.288</time>
      </trkpt>
      <trkpt lat="42.53272" lon="2.04591">
        <ele>2047.7229871601</ele>
        <time>2001-05-23T12:55:28.288</time>
      </trkpt>
      <trkpt lat="42.53272" lon="2.04593">
        <ele>2047.097939425</ele>
        <time>2001-05-23T12:55:29.288</time>
      </trkpt>
      <trkpt lat="42.53272" lon="2.04595">
        <ele>2046.2540311921</ele>
        <time>2001-05-23T12:55:30.288</time>
      </trkpt>
      <trkpt lat="42.53272" lon="2.04597">
        <ele>2045.3208063183</ele>
        <time>2001-05-23T12:55:31.288</time>
      </trkpt>
      <trkpt lat="42.53272" lon="2.04598">
        <ele>2044.2520061009</ele>
        <time>2001-05-23T12:55:32.288</time>
      </trkpt>
      <trkpt lat="42.53272" lon="2.04599">
        <ele>2043.4503048563</ele>
        <time>2001-05-23T12:55:33.288</time>
      </trkpt>
      <trkpt lat="42.53272" lon="2.04601">
        <ele>2042.8469533194</ele>
        <time>2001-05-23T12:55:34.288</time>
      </trkpt>
      <trkpt lat="42.53271" lon="2.04603">
        <ele>2042.5974162407</ele>
        <time>2001-05-23T12:55:35.288</time>
      </trkpt>
      <trkpt lat="42.53271" lon="2.04604">
        <ele>2042.7238384111</ele>
        <time>2001-05-23T12:55:36.288</time>
      </trkpt>
      <trkpt lat="42.5327" lon="2.04605">
        <ele>2043.1408940665</ele>
        <time>2001-05-23T12:55:37.288</time>
      </trkpt>
      <trkpt lat="42.5327" lon="2.04606">
        <ele>2043.1289053733</ele>
        <time>2001-05-23T12:55:38.288</time>
      </trkpt>
      <trkpt lat="42.53269" lon="2.04607">
        <ele>2042.7140701545</ele>
        <time>2001-05-23T12:55:39.288</time>
      </trkpt>
      <trkpt lat="42.53269" lon="2.04609">
        <ele>2041.8659515487</ele>
        <time>2001-05-23T12:55:40.288</time>
      </trkpt>
      <trkpt lat="42.53269" lon="2.0461">
        <ele>2041.0059456758</ele>
        <time>2001-05-23T12:55:41.288</time>
      </trkpt>
      <trkpt lat="42.53269" lon="2.04611">
        <ele>2040.1123874385</ele>
        <time>2001-05-23T12:55:42.288</time>
      </trkpt>
      <trkpt lat="42.53268" lon="2.04611">
        <ele>2039.5298389943</ele>
        <time>2001-05-23T12:55:43.288</time>
      </trkpt>
      <trkpt lat="42.53268" lon="2.04612">
        <ele>2039.4180105012</ele>
        <time>2001-05-23T12:55:44.288</time>
      </trkpt>
      <trkpt lat="42.53266" lon="2.04615">
        <ele>2040.1899462342</ele>
        <time>2001-05-23T12:55:45.244</time>
      </trkpt>
      <trkpt lat="42.53266" lon="2.04616">
        <ele>2041.2153493762</ele>
        <time>2001-05-23T12:55:46.244</time>
      </trkpt>
      <trkpt lat="42.53265" lon="2.04618">
        <ele>2042.3267180303</ele>
        <time>2001-05-23T12:55:47.244</time>
      </trkpt>
      <trkpt lat="42.53265" lon="2.0462">
        <ele>2043.5868001617</ele>
        <time>2001-05-23T12:55:48.244</time>
      </trkpt>
      <trkpt lat="42.53264" lon="2.04621">
        <ele>2044.7108786535</ele>
        <time>2001-05-23T12:55:49.244</time>
      </trkpt>
      <trkpt lat="42.53264" lon="2.04622">
        <ele>2045.1023177661</ele>
        <time>2001-05-23T12:55:50.244</time>
      </trkpt>
      <trkpt lat="42.53263" lon="2.04623">
        <ele>2045.0274762511</ele>
        <time>2001-05-23T12:55:51.244</time>
      </trkpt>
      <trkpt lat="42.53263" lon="2.04624">
        <ele>2044.7124427225</ele>
        <time>2001-05-23T12:55:52.244</time>
      </trkpt>
      <trkpt lat="42.53262" lon="2.04624">
        <ele>2044.0615779817</ele>
        <time>2001-05-23T12:55:53.244</time>
      </trkpt>
      <trkpt lat="42.53262" lon="2.04626">
        <ele>2043.4008619366</ele>
        <time>2001-05-23T12:55:54.246</time>
      </trkpt>
      <trkpt lat="42.53261" lon="2.04627">
        <ele>2042.9117192782</ele>
        <time>2001-05-23T12:55:55.246</time>
      </trkpt>
      <trkpt lat="42.53261" lon="2.04628">
        <ele>2042.6568981119</ele>
        <time>2001-05-23T12:55:56.246</time>
      </trkpt>
      <trkpt lat="42.53262" lon="2.04629">
        <ele>2042.5371010378</ele>
        <time>2001-05-23T12:55:57.246</time>
      </trkpt>
      <trkpt lat="42.53262" lon="2.0463">
        <ele>2042.4203140417</ele>
        <time>2001-05-23T12:55:58.246</time>
      </trkpt>
      <trkpt lat="42.53261" lon="2.04631">
        <ele>2042.1690108759</ele>
        <time>2001-05-23T12:55:59.246</time>
      </trkpt>
      <trkpt lat="42.5326" lon="2.04631">
        <ele>2041.8087172439</ele>
        <time>2001-05-23T12:56:00.246</time>
      </trkpt>
      <trkpt lat="42.53259" lon="2.04632">
        <ele>2041.4217287904</ele>
        <time>2001-05-23T12:56:01.246</time>
      </trkpt>
      <trkpt lat="42.53258" lon="2.04633">
        <ele>2041.0452326432</ele>
        <time>2001-05-23T12:56:02.246</time>
      </trkpt>
      <trkpt lat="42.53258" lon="2.04635">
        <ele>2040.6429108331</ele>
        <time>2001-05-23T12:56:03.246</time>
      </trkpt>
      <trkpt lat="42.53258" lon="2.04637">
        <ele>2040.2970802279</ele>
        <time>2001-05-23T12:56:04.246</time>
      </trkpt>
      <trkpt lat="42.53258" lon="2.04638">
        <ele>2040.1253485302</ele>
        <time>2001-05-23T12:56:05.246</time>
      </trkpt>
      <trkpt lat="42.53257" lon="2.04639">
        <ele>2039.9919822672</ele>
        <time>2001-05-23T12:56:06.246</time>
      </trkpt>
      <trkpt lat="42.53256" lon="2.0464">
        <ele>2039.8668046229</ele>
        <time>2001-05-23T12:56:07.246</time>
      </trkpt>
      <trkpt lat="42.53255" lon="2.04641">
        <ele>2040.1003887396</ele>
        <time>2001-05-23T12:56:08.246</time>
      </trkpt>
      <trkpt lat="42.53255" lon="2.04642">
        <ele>2040.3604988134</ele>
        <time>2001-05-23T12:56:09.246</time>
      </trkpt>
      <trkpt lat="42.53255" lon="2.04642">
        <ele>2040.6303820657</ele>
        <time>2001-05-23T12:56:10.246</time>
      </trkpt>
      <trkpt lat="42.53255" lon="2.04643">
        <ele>2041.0181516672</ele>
        <time>2001-05-23T12:56:11.246</time>
      </trkpt>
      <trkpt lat="42.53256" lon="2.04646">
        <ele>2042.1771521697</ele>
        <time>2001-05-23T12:56:12.245</time>
      </trkpt>
      <trkpt lat="42.53256" lon="2.04648">
        <ele>2043.1303157648</ele>
        <time>2001-05-23T12:56:13.245</time>
      </trkpt>
      <trkpt lat="42.53256" lon="2.04648">
        <ele>2044.1672317725</ele>
        <time>2001-05-23T12:56:14.245</time>
      </trkpt>
      <trkpt lat="42.53255" lon="2.0465">
        <ele>2045.2385919206</ele>
        <time>2001-05-23T12:56:15.245</time>
      </trkpt>
      <trkpt lat="42.53255" lon="2.04651">
        <ele>2046.1765482293</ele>
        <time>2001-05-23T12:56:16.245</time>
      </trkpt>
      <trkpt lat="42.53256" lon="2.04652">
        <ele>2046.3008840958</ele>
        <time>2001-05-23T12:56:17.245</time>
      </trkpt>
      <trkpt lat="42.53256" lon="2.04653">
        <ele>2046.3314784054</ele>
        <time>2001-05-23T12:56:18.245</time>
      </trkpt>
      <trkpt lat="42.53256" lon="2.04654">
        <ele>2046.3183004703</ele>
        <time>2001-05-23T12:56:19.245</time>
      </trkpt>
      <trkpt lat="42.53256" lon="2.04655">
        <ele>2046.4653567422</ele>
        <time>2001-05-23T12:56:20.245</time>
      </trkpt>
      <trkpt lat="42.53256" lon="2.04656">
        <ele>2046.4670323834</ele>
        <time>2001-05-23T12:56:21.245</time>
      </trkpt>
      <trkpt lat="42.53256" lon="2.04657">
        <ele>2046.5395937093</ele>
        <time>2001-05-23T12:56:22.245</time>
      </trkpt>
      <trkpt lat="42.53256" lon="2.04658">
        <ele>2046.8361341767</ele>
        <time>2001-05-23T12:56:23.245</time>
      </trkpt>
      <trkpt lat="42.53256" lon="2.04659">
        <ele>2047.2064672386</ele>
        <time>2001-05-23T12:56:24.245</time>
      </trkpt>
      <trkpt lat="42.53255" lon="2.04661">
        <ele>2047.388548586</ele>
        <time>2001-05-23T12:56:25.245</time>
      </trkpt>
      <trkpt lat="42.53255" lon="2.04662">
        <ele>2047.6346325994</ele>
        <time>2001-05-23T12:56:26.245</time>
      </trkpt>
      <trkpt lat="42.53254" lon="2.04663">
        <ele>2047.9873780396</ele>
        <time>2001-05-23T12:56:27.245</time>
      </trkpt>
      <trkpt lat="42.53253" lon="2.04665">
        <ele>2048.1718093812</ele>
        <time>2001-05-23T12:56:28.245</time>
      </trkpt>
      <trkpt lat="42.53253" lon="2.04667">
        <ele>2048.0069814162</ele>
        <time>2001-05-23T12:56:29.245</time>
      </trkpt>
      <trkpt lat="42.53253" lon="2.04668">
        <ele>2047.8540102905</ele>
        <time>2001-05-23T12:56:30.245</time>
      </trkpt>
      <trkpt lat="42.53253" lon="2.04668">
        <ele>2047.8270912487</ele>
        <time>2001-05-23T12:56:31.245</time>
      </trkpt>
      <trkpt lat="42.53253" lon="2.04669">
        <ele>2047.6265062748</ele>
        <time>2001-05-23T12:56:32.245</time>
      </trkpt>
      <trkpt lat="42.53253" lon="2.04671">
        <ele>2047.5412182678</ele>
        <time>2001-05-23T12:56:33.244</time>
      </trkpt>
      <trkpt lat="42.53252" lon="2.04673">
        <ele>2047.5729060665</ele>
        <time>2001-05-23T12:56:34.244</time>
      </trkpt>
      <trkpt lat="42.53252" lon="2.04674">
        <ele>2047.4637863429</ele>
        <time>2001-05-23T12:56:35.244</time>
      </trkpt>
      <trkpt lat="42.53252" lon="2.04674">
        <ele>2047.1893102527</ele>
        <time>2001-05-23T12:56:36.244</time>
      </trkpt>
      <trkpt lat="42.53251" lon="2.04675">
        <ele>2047.0524116149</ele>
        <time>2001-05-23T12:56:37.244</time>
      </trkpt>
      <trkpt lat="42.53252" lon="2.04679">
        <ele>2046.8648606431</ele>
        <time>2001-05-23T12:56:38.244</time>
      </trkpt>
      <trkpt lat="42.53251" lon="2.0468">
        <ele>2047.0553885084</ele>
        <time>2001-05-23T12:56:39.244</time>
      </trkpt>
      <trkpt lat="42.53251" lon="2.04681">
        <ele>2047.661548179</ele>
        <time>2001-05-23T12:56:40.244</time>
      </trkpt>
      <trkpt lat="42.53251" lon="2.04682">
        <ele>2048.3504173769</ele>
        <time>2001-05-23T12:56:41.244</time>
      </trkpt>
      <trkpt lat="42.5325" lon="2.04683">
        <ele>2048.8000158831</ele>
        <time>2001-05-23T12:56:42.244</time>
      </trkpt>
      <trkpt lat="42.5325" lon="2.04684">
        <ele>2049.0832396436</ele>
        <time>2001-05-23T12:56:43.244</time>
      </trkpt>
      <trkpt lat="42.53251" lon="2.04686">
        <ele>2048.8820791163</ele>
        <time>2001-05-23T12:56:44.244</time>
      </trkpt>
      <trkpt lat="42.53251" lon="2.04687">
        <ele>2047.8643300219</ele>
        <time>2001-05-23T12:56:45.244</time>
      </trkpt>
      <trkpt lat="42.53251" lon="2.04688">
        <ele>2046.7957937624</ele>
        <time>2001-05-23T12:56:46.244</time>
      </trkpt>
      <trkpt lat="42.53251" lon="2.04688">
        <ele>2045.8501400702</ele>
        <time>2001-05-23T12:56:47.244</time>
      </trkpt>
      <trkpt lat="42.5325" lon="2.04691">
        <ele>2045.2270002665</ele>
        <time>2001-05-23T12:56:48.241</time>
      </trkpt>
      <trkpt lat="42.5325" lon="2.04692">
        <ele>2044.9631221885</ele>
        <time>2001-05-23T12:56:49.241</time>
      </trkpt>
      <trkpt lat="42.5325" lon="2.04694">
        <ele>2045.3590875683</ele>
        <time>2001-05-23T12:56:50.241</time>
      </trkpt>
      <trkpt lat="42.5325" lon="2.04696">
        <ele>2045.9401575072</ele>
        <time>2001-05-23T12:56:51.241</time>
      </trkpt>
      <trkpt lat="42.53251" lon="2.04696">
        <ele>2046.7154372236</ele>
        <time>2001-05-23T12:56:52.241</time>
      </trkpt>
      <trkpt lat="42.53251" lon="2.04698">
        <ele>2047.179559581</ele>
        <time>2001-05-23T12:56:53.241</time>
      </trkpt>
      <trkpt lat="42.53251" lon="2.047">
        <ele>2046.7701353323</ele>
        <time>2001-05-23T12:56:54.241</time>
      </trkpt>
      <trkpt lat="42.53251" lon="2.04701">
        <ele>2045.9071902173</ele>
        <time>2001-05-23T12:56:55.241</time>
      </trkpt>
      <trkpt lat="42.53251" lon="2.04703">
        <ele>2044.8430908324</ele>
        <time>2001-05-23T12:56:56.241</time>
      </trkpt>
      <trkpt lat="42.5325" lon="2.04704">
        <ele>2043.8283240387</ele>
        <time>2001-05-23T12:56:57.241</time>
      </trkpt>
      <trkpt lat="42.53251" lon="2.04704">
        <ele>2043.064374068</ele>
        <time>2001-05-23T12:56:58.241</time>
      </trkpt>
      <trkpt lat="42.53251" lon="2.04706">
        <ele>2043.1030719124</ele>
        <time>2001-05-23T12:56:59.241</time>
      </trkpt>
      <trkpt lat="42.53251" lon="2.04706">
        <ele>2043.4620678177</ele>
        <time>2001-05-23T12:57:00.241</time>
      </trkpt>
      <trkpt lat="42.53251" lon="2.04708">
        <ele>2044.1018425522</ele>
        <time>2001-05-23T12:57:01.243</time>
      </trkpt>
      <trkpt lat="42.5325" lon="2.04709">
        <ele>2044.1847967001</ele>
        <time>2001-05-23T12:57:02.243</time>
      </trkpt>
      <trkpt lat="42.5325" lon="2.04711">
        <ele>2043.9891735418</ele>
        <time>2001-05-23T12:57:03.243</time>
      </trkpt>
      <trkpt lat="42.53249" lon="2.04712">
        <ele>2043.5464305814</ele>
        <time>2001-05-23T12:57:04.243</time>
      </trkpt>
      <trkpt lat="42.5325" lon="2.04712">
        <ele>2043.2411256146</ele>
        <time>2001-05-23T12:57:05.243</time>
      </trkpt>
      <trkpt lat="42.5325" lon="2.04712">
        <ele>2042.8141020115</ele>
        <time>2001-05-23T12:57:06.243</time>
      </trkpt>
      <trkpt lat="42.5325" lon="2.04713">
        <ele>2043.113341308</ele>
        <time>2001-05-23T12:57:07.243</time>
      </trkpt>
      <trkpt lat="42.5325" lon="2.04716">
        <ele>2043.4910908185</ele>
        <time>2001-05-23T12:57:08.243</time>
      </trkpt>
      <trkpt lat="42.5325" lon="2.04717">
        <ele>2044.0482736694</ele>
        <time>2001-05-23T12:57:09.243</time>
      </trkpt>
      <trkpt lat="42.53249" lon="2.04718">
        <ele>2044.2000092635</ele>
        <time>2001-05-23T12:57:10.243</time>
      </trkpt>
      <trkpt lat="42.5325" lon="2.04721">
        <ele>2044.0040207302</ele>
        <time>2001-05-23T12:57:11.243</time>
      </trkpt>
      <trkpt lat="42.5325" lon="2.04723">
        <ele>2043.2147759872</ele>
        <time>2001-05-23T12:57:12.243</time>
      </trkpt>
      <trkpt lat="42.5325" lon="2.04724">
        <ele>2042.4921067171</ele>
        <time>2001-05-23T12:57:13.243</time>
      </trkpt>
      <trkpt lat="42.5325" lon="2.04725">
        <ele>2041.7956390675</ele>
        <time>2001-05-23T12:57:14.243</time>
      </trkpt>
      <trkpt lat="42.5325" lon="2.04726">
        <ele>2041.2028286617</ele>
        <time>2001-05-23T12:57:15.243</time>
      </trkpt>
      <trkpt lat="42.53251" lon="2.04727">
        <ele>2040.6247112626</ele>
        <time>2001-05-23T12:57:16.243</time>
      </trkpt>
      <trkpt lat="42.53251" lon="2.04727">
        <ele>2040.2040079663</ele>
        <time>2001-05-23T12:57:17.243</time>
      </trkpt>
      <trkpt lat="42.53251" lon="2.04728">
        <ele>2039.8546352688</ele>
        <time>2001-05-23T12:57:18.243</time>
      </trkpt>
      <trkpt lat="42.53251" lon="2.0473">
        <ele>2039.7277361915</ele>
        <time>2001-05-23T12:57:19.243</time>
      </trkpt>
      <trkpt lat="42.53251" lon="2.04731">
        <ele>2039.6708390081</ele>
        <time>2001-05-23T12:57:20.243</time>
      </trkpt>
      <trkpt lat="42.5325" lon="2.04735">
        <ele>2039.9186751854</ele>
        <time>2001-05-23T12:57:21.241</time>
      </trkpt>
      <trkpt lat="42.5325" lon="2.04735">
        <ele>2040.1696926825</ele>
        <time>2001-05-23T12:57:22.241</time>
      </trkpt>
      <trkpt lat="42.53251" lon="2.04734">
        <ele>2040.1768208066</ele>
        <time>2001-05-23T12:57:23.240</time>
      </trkpt>
      <trkpt lat="42.53252" lon="2.04733">
        <ele>2039.6616332831</ele>
        <time>2001-05-23T12:57:24.240</time>
      </trkpt>
      <trkpt lat="42.53253" lon="2.04732">
        <ele>2039.3121621625</ele>
        <time>2001-05-23T12:57:25.240</time>
      </trkpt>
      <trkpt lat="42.53253" lon="2.04735">
        <ele>2038.9318835847</ele>
        <time>2001-05-23T12:57:26.239</time>
      </trkpt>
      <trkpt lat="42.53253" lon="2.04736">
        <ele>2038.5431981828</ele>
        <time>2001-05-23T12:57:27.239</time>
      </trkpt>
      <trkpt lat="42.53253" lon="2.04737">
        <ele>2038.1538646681</ele>
        <time>2001-05-23T12:57:28.242</time>
      </trkpt>
      <trkpt lat="42.53254" lon="2.04738">
        <ele>2038.1365422862</ele>
        <time>2001-05-23T12:57:29.242</time>
      </trkpt>
      <trkpt lat="42.53254" lon="2.0474">
        <ele>2037.9997860109</ele>
        <time>2001-05-23T12:57:30.242</time>
      </trkpt>
      <trkpt lat="42.53254" lon="2.04741">
        <ele>2037.945984979</ele>
        <time>2001-05-23T12:57:31.242</time>
      </trkpt>
      <trkpt lat="42.53254" lon="2.04743">
        <ele>2037.888283731</ele>
        <time>2001-05-23T12:57:32.242</time>
      </trkpt>
      <trkpt lat="42.53254" lon="2.04744">
        <ele>2038.0723593032</ele>
        <time>2001-05-23T12:57:33.242</time>
      </trkpt>
      <trkpt lat="42.53253" lon="2.04745">
        <ele>2038.1040557217</ele>
        <time>2001-05-23T12:57:34.242</time>
      </trkpt>
      <trkpt lat="42.53253" lon="2.04745">
        <ele>2038.2980305387</ele>
        <time>2001-05-23T12:57:35.242</time>
      </trkpt>
      <trkpt lat="42.53254" lon="2.04747">
        <ele>2038.4560541287</ele>
        <time>2001-05-23T12:57:36.241</time>
      </trkpt>
      <trkpt lat="42.53254" lon="2.04748">
        <ele>2038.8685721634</ele>
        <time>2001-05-23T12:57:37.241</time>
      </trkpt>
      <trkpt lat="42.53253" lon="2.0475">
        <ele>2039.1789498741</ele>
        <time>2001-05-23T12:57:38.240</time>
      </trkpt>
      <trkpt lat="42.53253" lon="2.04752">
        <ele>2039.4165501967</ele>
        <time>2001-05-23T12:57:39.240</time>
      </trkpt>
      <trkpt lat="42.53252" lon="2.04753">
        <ele>2039.3412264854</ele>
        <time>2001-05-23T12:57:40.240</time>
      </trkpt>
      <trkpt lat="42.53252" lon="2.04754">
        <ele>2039.3631225459</ele>
        <time>2001-05-23T12:57:41.240</time>
      </trkpt>
      <trkpt lat="42.53251" lon="2.04754">
        <ele>2039.2098260939</ele>
        <time>2001-05-23T12:57:42.240</time>
      </trkpt>
      <trkpt lat="42.53251" lon="2.04755">
        <ele>2039.0484352475</ele>
        <time>2001-05-23T12:57:43.240</time>
      </trkpt>
      <trkpt lat="42.5325" lon="2.04757">
        <ele>2038.9053256478</ele>
        <time>2001-05-23T12:57:44.240</time>
      </trkpt>
      <trkpt lat="42.5325" lon="2.04758">
        <ele>2038.9366988618</ele>
        <time>2001-05-23T12:57:45.240</time>
      </trkpt>
      <trkpt lat="42.53251" lon="2.04761">
        <ele>2038.9582312699</ele>
        <time>2001-05-23T12:57:46.241</time>
      </trkpt>
      <trkpt lat="42.53251" lon="2.04762">
        <ele>2038.9674359204</ele>
        <time>2001-05-23T12:57:47.241</time>
      </trkpt>
      <trkpt lat="42.5325" lon="2.04763">
        <ele>2039.1712397713</ele>
        <time>2001-05-23T12:57:48.241</time>
      </trkpt>
      <trkpt lat="42.5325" lon="2.04764">
        <ele>2039.2350027354</ele>
        <time>2001-05-23T12:57:49.241</time>
      </trkpt>
      <trkpt lat="42.5325" lon="2.04764">
        <ele>2039.2229711534</ele>
        <time>2001-05-23T12:57:50.241</time>
      </trkpt>
      <trkpt lat="42.5325" lon="2.04767">
        <ele>2039.2130073134</ele>
        <time>2001-05-23T12:57:51.241</time>
      </trkpt>
      <trkpt lat="42.53249" lon="2.04768">
        <ele>2039.1830915229</ele>
        <time>2001-05-23T12:57:52.241</time>
      </trkpt>
      <trkpt lat="42.53248" lon="2.04769">
        <ele>2038.8625183707</ele>
        <time>2001-05-23T12:57:53.241</time>
      </trkpt>
      <trkpt lat="42.53249" lon="2.0477">
        <ele>2038.9117025465</ele>
        <time>2001-05-23T12:57:54.241</time>
      </trkpt>
      <trkpt lat="42.53249" lon="2.04771">
        <ele>2038.9555867231</ele>
        <time>2001-05-23T12:57:55.241</time>
      </trkpt>
      <trkpt lat="42.53248" lon="2.04772">
        <ele>2038.9243838385</ele>
        <time>2001-05-23T12:57:56.241</time>
      </trkpt>
      <trkpt lat="42.53248" lon="2.04773">
        <ele>2038.7582269164</ele>
        <time>2001-05-23T12:57:57.241</time>
      </trkpt>
      <trkpt lat="42.53248" lon="2.04775">
        <ele>2038.7719877353</ele>
        <time>2001-05-23T12:57:58.241</time>
      </trkpt>
      <trkpt lat="42.53248" lon="2.04776">
        <ele>2038.6794122431</ele>
        <time>2001-05-23T12:57:59.241</time>
      </trkpt>
      <trkpt lat="42.53248" lon="2.04777">
        <ele>2038.4351092275</ele>
        <time>2001-05-23T12:58:00.241</time>
      </trkpt>
      <trkpt lat="42.53248" lon="2.04778">
        <ele>2037.9830303537</ele>
        <time>2001-05-23T12:58:01.241</time>
      </trkpt>
      <trkpt lat="42.53248" lon="2.04779">
        <ele>2037.571794525</ele>
        <time>2001-05-23T12:58:02.241</time>
      </trkpt>
      <trkpt lat="42.53248" lon="2.04781">
        <ele>2036.9195608295</ele>
        <time>2001-05-23T12:58:03.241</time>
      </trkpt>
      <trkpt lat="42.53248" lon="2.04782">
        <ele>2036.3129752532</ele>
        <time>2001-05-23T12:58:04.241</time>
      </trkpt>
      <trkpt lat="42.53248" lon="2.04782">
        <ele>2035.8288426794</ele>
        <time>2001-05-23T12:58:05.241</time>
      </trkpt>
      <trkpt lat="42.53247" lon="2.04785">
        <ele>2035.9717950577</ele>
        <time>2001-05-23T12:58:06.243</time>
      </trkpt>
      <trkpt lat="42.53246" lon="2.04787">
        <ele>2035.9266019264</ele>
        <time>2001-05-23T12:58:07.243</time>
      </trkpt>
      <trkpt lat="42.53246" lon="2.04788">
        <ele>2036.110107787</ele>
        <time>2001-05-23T12:58:08.243</time>
      </trkpt>
      <trkpt lat="42.53246" lon="2.04789">
        <ele>2036.3631607141</ele>
        <time>2001-05-23T12:58:09.243</time>
      </trkpt>
      <trkpt lat="42.53245" lon="2.04791">
        <ele>2036.7226719672</ele>
        <time>2001-05-23T12:58:10.243</time>
      </trkpt>
      <trkpt lat="42.53245" lon="2.04792">
        <ele>2036.605541539</ele>
        <time>2001-05-23T12:58:11.243</time>
      </trkpt>
      <trkpt lat="42.53245" lon="2.04794">
        <ele>2036.9459687289</ele>
        <time>2001-05-23T12:58:12.243</time>
      </trkpt>
      <trkpt lat="42.53245" lon="2.04795">
        <ele>2037.4108371688</ele>
        <time>2001-05-23T12:58:13.243</time>
      </trkpt>
      <trkpt lat="42.53244" lon="2.04796">
        <ele>2037.8045111973</ele>
        <time>2001-05-23T12:58:14.243</time>
      </trkpt>
      <trkpt lat="42.53244" lon="2.04798">
        <ele>2037.9774881763</ele>
        <time>2001-05-23T12:58:15.243</time>
      </trkpt>
      <trkpt lat="42.53244" lon="2.04799">
        <ele>2038.1957141092</ele>
        <time>2001-05-23T12:58:16.243</time>
      </trkpt>
      <trkpt lat="42.53244" lon="2.04799">
        <ele>2038.2362724205</ele>
        <time>2001-05-23T12:58:17.243</time>
      </trkpt>
      <trkpt lat="42.53243" lon="2.048">
        <ele>2038.1722832222</ele>
        <time>2001-05-23T12:58:18.243</time>
      </trkpt>
      <trkpt lat="42.53243" lon="2.04801">
        <ele>2037.9478155473</ele>
        <time>2001-05-23T12:58:19.243</time>
      </trkpt>
      <trkpt lat="42.53243" lon="2.04803">
        <ele>2037.889335542</ele>
        <time>2001-05-23T12:58:20.243</time>
      </trkpt>
      <trkpt lat="42.53242" lon="2.04804">
        <ele>2037.6444988631</ele>
        <time>2001-05-23T12:58:21.243</time>
      </trkpt>
      <trkpt lat="42.53242" lon="2.04806">
        <ele>2037.1442614673</ele>
        <time>2001-05-23T12:58:22.243</time>
      </trkpt>
      <trkpt lat="42.53242" lon="2.04806">
        <ele>2036.8180951953</ele>
        <time>2001-05-23T12:58:23.243</time>
      </trkpt>
      <trkpt lat="42.53241" lon="2.04807">
        <ele>2036.6037536249</ele>
        <time>2001-05-23T12:58:24.243</time>
      </trkpt>
      <trkpt lat="42.53241" lon="2.04808">
        <ele>2036.5485118905</ele>
        <time>2001-05-23T12:58:25.243</time>
      </trkpt>
      <trkpt lat="42.5324" lon="2.04809">
        <ele>2036.7279671215</ele>
        <time>2001-05-23T12:58:26.243</time>
      </trkpt>
      <trkpt lat="42.5324" lon="2.04811">
        <ele>2037.0785441307</ele>
        <time>2001-05-23T12:58:27.243</time>
      </trkpt>
      <trkpt lat="42.53239" lon="2.04812">
        <ele>2037.2325429926</ele>
        <time>2001-05-23T12:58:28.243</time>
      </trkpt>
      <trkpt lat="42.53239" lon="2.04814">
        <ele>2037.5216340872</ele>
        <time>2001-05-23T12:58:29.243</time>
      </trkpt>
      <trkpt lat="42.53238" lon="2.04815">
        <ele>2037.8733944798</ele>
        <time>2001-05-23T12:58:30.243</time>
      </trkpt>
      <trkpt lat="42.53238" lon="2.04816">
        <ele>2037.9877517324</ele>
        <time>2001-05-23T12:58:31.243</time>
      </trkpt>
      <trkpt lat="42.53238" lon="2.04817">
        <ele>2038.27656068</ele>
        <time>2001-05-23T12:58:32.243</time>
      </trkpt>
      <trkpt lat="42.53237" lon="2.04819">
        <ele>2038.5544100638</ele>
        <time>2001-05-23T12:58:33.243</time>
      </trkpt>
      <trkpt lat="42.53236" lon="2.0482">
        <ele>2038.7894589366</ele>
        <time>2001-05-23T12:58:34.243</time>
      </trkpt>
      <trkpt lat="42.53236" lon="2.0482">
        <ele>2038.7603810433</ele>
        <time>2001-05-23T12:58:35.243</time>
      </trkpt>
      <trkpt lat="42.53236" lon="2.04821">
        <ele>2038.8509231471</ele>
        <time>2001-05-23T12:58:36.243</time>
      </trkpt>
      <trkpt lat="42.53236" lon="2.04823">
        <ele>2038.976730682</ele>
        <time>2001-05-23T12:58:37.243</time>
      </trkpt>
      <trkpt lat="42.53236" lon="2.04824">
        <ele>2039.002754616</ele>
        <time>2001-05-23T12:58:38.243</time>
      </trkpt>
      <trkpt lat="42.53236" lon="2.04825">
        <ele>2038.8791487569</ele>
        <time>2001-05-23T12:58:39.243</time>
      </trkpt>
      <trkpt lat="42.53236" lon="2.04826">
        <ele>2038.6682915138</ele>
        <time>2001-05-23T12:58:40.243</time>
      </trkpt>
      <trkpt lat="42.53235" lon="2.04828">
        <ele>2038.2681433633</ele>
        <time>2001-05-23T12:58:41.243</time>
      </trkpt>
      <trkpt lat="42.53235" lon="2.04829">
        <ele>2037.5880835304</ele>
        <time>2001-05-23T12:58:42.243</time>
      </trkpt>
      <trkpt lat="42.53235" lon="2.0483">
        <ele>2036.9540699974</ele>
        <time>2001-05-23T12:58:43.243</time>
      </trkpt>
      <trkpt lat="42.53235" lon="2.04831">
        <ele>2036.3693607621</ele>
        <time>2001-05-23T12:58:44.243</time>
      </trkpt>
      <trkpt lat="42.53234" lon="2.04832">
        <ele>2035.8524965283</ele>
        <time>2001-05-23T12:58:45.243</time>
      </trkpt>
      <trkpt lat="42.53234" lon="2.04832">
        <ele>2035.3683863834</ele>
        <time>2001-05-23T12:58:46.243</time>
      </trkpt>
      <trkpt lat="42.53233" lon="2.04836">
        <ele>2035.0113881318</ele>
        <time>2001-05-23T12:58:47.242</time>
      </trkpt>
      <trkpt lat="42.53232" lon="2.04837">
        <ele>2034.8010595849</ele>
        <time>2001-05-23T12:58:48.242</time>
      </trkpt>
      <trkpt lat="42.53232" lon="2.04838">
        <ele>2034.7111323433</ele>
        <time>2001-05-23T12:58:49.242</time>
      </trkpt>
      <trkpt lat="42.53231" lon="2.04839">
        <ele>2034.7051417904</ele>
        <time>2001-05-23T12:58:50.242</time>
      </trkpt>
      <trkpt lat="42.53231" lon="2.0484">
        <ele>2034.7243659979</ele>
        <time>2001-05-23T12:58:51.242</time>
      </trkpt>
      <trkpt lat="42.53231" lon="2.04841">
        <ele>2034.787073978</ele>
        <time>2001-05-23T12:58:52.242</time>
      </trkpt>
      <trkpt lat="42.5323" lon="2.04843">
        <ele>2034.7877647305</ele>
        <time>2001-05-23T12:58:53.242</time>
      </trkpt>
      <trkpt lat="42.5323" lon="2.04844">
        <ele>2034.6625617519</ele>
        <time>2001-05-23T12:58:54.242</time>
      </trkpt>
      <trkpt lat="42.53229" lon="2.04845">
        <ele>2034.4533568358</ele>
        <time>2001-05-23T12:58:55.242</time>
      </trkpt>
      <trkpt lat="42.53229" lon="2.04846">
        <ele>2034.4185276328</ele>
        <time>2001-05-23T12:58:56.242</time>
      </trkpt>
      <trkpt lat="42.53228" lon="2.04847">
        <ele>2034.5700400133</ele>
        <time>2001-05-23T12:58:57.242</time>
      </trkpt>
      <trkpt lat="42.53228" lon="2.04848">
        <ele>2034.8067229863</ele>
        <time>2001-05-23T12:58:58.242</time>
      </trkpt>
      <trkpt lat="42.53227" lon="2.04849">
        <ele>2035.1831322867</ele>
        <time>2001-05-23T12:58:59.242</time>
      </trkpt>
      <trkpt lat="42.53227" lon="2.0485">
        <ele>2035.5896361997</ele>
        <time>2001-05-23T12:59:00.242</time>
      </trkpt>
      <trkpt lat="42.53226" lon="2.04851">
        <ele>2035.9515731307</ele>
        <time>2001-05-23T12:59:01.242</time>
      </trkpt>
      <trkpt lat="42.53226" lon="2.04852">
        <ele>2035.9028638108</ele>
        <time>2001-05-23T12:59:02.242</time>
      </trkpt>
      <trkpt lat="42.53225" lon="2.04853">
        <ele>2035.6508172946</ele>
        <time>2001-05-23T12:59:03.242</time>
      </trkpt>
      <trkpt lat="42.53226" lon="2.04855">
        <ele>2034.9772361552</ele>
        <time>2001-05-23T12:59:04.242</time>
      </trkpt>
      <trkpt lat="42.53226" lon="2.04856">
        <ele>2034.2815964967</ele>
        <time>2001-05-23T12:59:05.242</time>
      </trkpt>
      <trkpt lat="42.53226" lon="2.04857">
        <ele>2033.526752614</ele>
        <time>2001-05-23T12:59:06.242</time>
      </trkpt>
      <trkpt lat="42.53225" lon="2.04857">
        <ele>2033.3372163815</ele>
        <time>2001-05-23T12:59:07.242</time>
      </trkpt>
      <trkpt lat="42.53224" lon="2.04859">
        <ele>2033.2325981442</ele>
        <time>2001-05-23T12:59:08.242</time>
      </trkpt>
      <trkpt lat="42.53224" lon="2.0486">
        <ele>2033.4089159377</ele>
        <time>2001-05-23T12:59:09.242</time>
      </trkpt>
      <trkpt lat="42.53224" lon="2.04861">
        <ele>2033.4949822498</ele>
        <time>2001-05-23T12:59:10.242</time>
      </trkpt>
      <trkpt lat="42.53223" lon="2.04862">
        <ele>2033.6969991054</ele>
        <time>2001-05-23T12:59:11.242</time>
      </trkpt>
      <trkpt lat="42.53222" lon="2.04863">
        <ele>2033.557265196</ele>
        <time>2001-05-23T12:59:12.242</time>
      </trkpt>
      <trkpt lat="42.53222" lon="2.04864">
        <ele>2033.4973185541</ele>
        <time>2001-05-23T12:59:13.242</time>
      </trkpt>
      <trkpt lat="42.53221" lon="2.04864">
        <ele>2033.6467586881</ele>
        <time>2001-05-23T12:59:14.242</time>
      </trkpt>
      <trkpt lat="42.53221" lon="2.04865">
        <ele>2033.9752021706</ele>
        <time>2001-05-23T12:59:15.242</time>
      </trkpt>
      <trkpt lat="42.53221" lon="2.04868">
        <ele>2034.0572531011</ele>
        <time>2001-05-23T12:59:16.242</time>
      </trkpt>
      <trkpt lat="42.53221" lon="2.04869">
        <ele>2034.1348826395</ele>
        <time>2001-05-23T12:59:17.242</time>
      </trkpt>
      <trkpt lat="42.5322" lon="2.0487">
        <ele>2034.1697715865</ele>
        <time>2001-05-23T12:59:18.242</time>
      </trkpt>
      <trkpt lat="42.53219" lon="2.04871">
        <ele>2033.9232726058</ele>
        <time>2001-05-23T12:59:19.242</time>
      </trkpt>
      <trkpt lat="42.53219" lon="2.04872">
        <ele>2033.6737041831</ele>
        <time>2001-05-23T12:59:20.242</time>
      </trkpt>
      <trkpt lat="42.53219" lon="2.04873">
        <ele>2033.5441127971</ele>
        <time>2001-05-23T12:59:21.242</time>
      </trkpt>
      <trkpt lat="42.53219" lon="2.04874">
        <ele>2033.3449244153</ele>
        <time>2001-05-23T12:59:22.242</time>
      </trkpt>
      <trkpt lat="42.53218" lon="2.04874">
        <ele>2033.1688927282</ele>
        <time>2001-05-23T12:59:23.242</time>
      </trkpt>
      <trkpt lat="42.53218" lon="2.04876">
        <ele>2033.1565743357</ele>
        <time>2001-05-23T12:59:24.242</time>
      </trkpt>
      <trkpt lat="42.53218" lon="2.04877">
        <ele>2033.2643807525</ele>
        <time>2001-05-23T12:59:25.242</time>
      </trkpt>
      <trkpt lat="42.53218" lon="2.04879">
        <ele>2033.3444938788</ele>
        <time>2001-05-23T12:59:26.242</time>
      </trkpt>
      <trkpt lat="42.53217" lon="2.0488">
        <ele>2033.5290065058</ele>
        <time>2001-05-23T12:59:27.242</time>
      </trkpt>
      <trkpt lat="42.53217" lon="2.0488">
        <ele>2033.6954964735</ele>
        <time>2001-05-23T12:59:28.242</time>
      </trkpt>
      <trkpt lat="42.53216" lon="2.0488">
        <ele>2033.8631128617</ele>
        <time>2001-05-23T12:59:29.242</time>
      </trkpt>
      <trkpt lat="42.53216" lon="2.04881">
        <ele>2033.8613367112</ele>
        <time>2001-05-23T12:59:30.242</time>
      </trkpt>
      <trkpt lat="42.53215" lon="2.04882">
        <ele>2033.9546945129</ele>
        <time>2001-05-23T12:59:31.242</time>
      </trkpt>
      <trkpt lat="42.53214" lon="2.04883">
        <ele>2033.9307654042</ele>
        <time>2001-05-23T12:59:32.242</time>
      </trkpt>
      <trkpt lat="42.53214" lon="2.04884">
        <ele>2033.8750345862</ele>
        <time>2001-05-23T12:59:33.242</time>
      </trkpt>
      <trkpt lat="42.53213" lon="2.04885">
        <ele>2033.5522043854</ele>
        <time>2001-05-23T12:59:34.242</time>
      </trkpt>
      <trkpt lat="42.53213" lon="2.04886">
        <ele>2033.3727751892</ele>
        <time>2001-05-23T12:59:35.242</time>
      </trkpt>
      <trkpt lat="42.53211" lon="2.04886">
        <ele>2033.2802483235</ele>
        <time>2001-05-23T12:59:36.242</time>
      </trkpt>
      <trkpt lat="42.5321" lon="2.04888">
        <ele>2033.2938606979</ele>
        <time>2001-05-23T12:59:37.242</time>
      </trkpt>
      <trkpt lat="42.5321" lon="2.0489">
        <ele>2033.5089811403</ele>
        <time>2001-05-23T12:59:38.242</time>
      </trkpt>
      <trkpt lat="42.53209" lon="2.04891">
        <ele>2034.0446838297</ele>
        <time>2001-05-23T12:59:39.242</time>
      </trkpt>
      <trkpt lat="42.53209" lon="2.04892">
        <ele>2034.4971902873</ele>
        <time>2001-05-23T12:59:40.242</time>
      </trkpt>
      <trkpt lat="42.53208" lon="2.04893">
        <ele>2034.9765377972</ele>
        <time>2001-05-23T12:59:41.242</time>
      </trkpt>
      <trkpt lat="42.53208" lon="2.04894">
        <ele>2035.365267357</ele>
        <time>2001-05-23T12:59:42.242</time>
      </trkpt>
      <trkpt lat="42.53207" lon="2.04895">
        <ele>2035.3175943259</ele>
        <time>2001-05-23T12:59:43.242</time>
      </trkpt>
      <trkpt lat="42.53207" lon="2.04897">
        <ele>2035.2522557989</ele>
        <time>2001-05-23T12:59:44.242</time>
      </trkpt>
      <trkpt lat="42.53207" lon="2.04898">
        <ele>2035.3940879427</ele>
        <time>2001-05-23T12:59:45.242</time>
      </trkpt>
      <trkpt lat="42.53206" lon="2.04899">
        <ele>2035.5463690745</ele>
        <time>2001-05-23T12:59:46.242</time>
      </trkpt>
      <trkpt lat="42.53205" lon="2.049">
        <ele>2035.6576298952</ele>
        <time>2001-05-23T12:59:47.242</time>
      </trkpt>
      <trkpt lat="42.53205" lon="2.04901">
        <ele>2035.9968546331</ele>
        <time>2001-05-23T12:59:48.242</time>
      </trkpt>
      <trkpt lat="42.53205" lon="2.04903">
        <ele>2036.2298533814</ele>
        <time>2001-05-23T12:59:49.242</time>
      </trkpt>
      <trkpt lat="42.53204" lon="2.04903">
        <ele>2035.913055817</ele>
        <time>2001-05-23T12:59:50.242</time>
      </trkpt>
      <trkpt lat="42.53204" lon="2.04904">
        <ele>2035.2962252147</ele>
        <time>2001-05-23T12:59:51.242</time>
      </trkpt>
      <trkpt lat="42.53203" lon="2.04906">
        <ele>2034.662457265</ele>
        <time>2001-05-23T12:59:52.242</time>
      </trkpt>
      <trkpt lat="42.53202" lon="2.04907">
        <ele>2034.0066775799</ele>
        <time>2001-05-23T12:59:53.242</time>
      </trkpt>
      <trkpt lat="42.53202" lon="2.04908">
        <ele>2033.406660261</ele>
        <time>2001-05-23T12:59:54.242</time>
      </trkpt>
      <trkpt lat="42.53201" lon="2.04909">
        <ele>2033.3032449925</ele>
        <time>2001-05-23T12:59:55.242</time>
      </trkpt>
      <trkpt lat="42.53201" lon="2.04911">
        <ele>2033.5900182338</ele>
        <time>2001-05-23T12:59:56.242</time>
      </trkpt>
      <trkpt lat="42.532" lon="2.04912">
        <ele>2033.8890025809</ele>
        <time>2001-05-23T12:59:57.242</time>
      </trkpt>
      <trkpt lat="42.532" lon="2.04913">
        <ele>2033.9762832513</ele>
        <time>2001-05-23T12:59:58.242</time>
      </trkpt>
      <trkpt lat="42.53199" lon="2.04914">
        <ele>2033.7761170782</ele>
        <time>2001-05-23T12:59:59.242</time>
      </trkpt>
      <trkpt lat="42.532" lon="2.04915">
        <ele>2032.6351423338</ele>
        <time>2001-05-23T13:00:00.242</time>
      </trkpt>
      <trkpt lat="42.53199" lon="2.04915">
        <ele>2031.3716567161</ele>
        <time>2001-05-23T13:00:01.242</time>
      </trkpt>
      <trkpt lat="42.53198" lon="2.04917">
        <ele>2030.3463214742</ele>
        <time>2001-05-23T13:00:02.240</time>
      </trkpt>
      <trkpt lat="42.53196" lon="2.04918">
        <ele>2029.9950377595</ele>
        <time>2001-05-23T13:00:03.240</time>
      </trkpt>
      <trkpt lat="42.53195" lon="2.0492">
        <ele>2029.8134621689</ele>
        <time>2001-05-23T13:00:04.240</time>
      </trkpt>
      <trkpt lat="42.53195" lon="2.04921">
        <ele>2030.2170339037</ele>
        <time>2001-05-23T13:00:05.240</time>
      </trkpt>
      <trkpt lat="42.53194" lon="2.04921">
        <ele>2030.6306537418</ele>
        <time>2001-05-23T13:00:06.240</time>
      </trkpt>
      <trkpt lat="42.53194" lon="2.04922">
        <ele>2030.880899247</ele>
        <time>2001-05-23T13:00:07.240</time>
      </trkpt>
      <trkpt lat="42.53194" lon="2.04923">
        <ele>2030.8787328586</ele>
        <time>2001-05-23T13:00:08.240</time>
      </trkpt>
      <trkpt lat="42.53193" lon="2.04927">
        <ele>2031.1459369028</ele>
        <time>2001-05-23T13:00:09.241</time>
      </trkpt>
      <trkpt lat="42.53193" lon="2.04928">
        <ele>2031.6604209026</ele>
        <time>2001-05-23T13:00:10.241</time>
      </trkpt>
      <trkpt lat="42.53193" lon="2.0493">
        <ele>2032.1865174571</ele>
        <time>2001-05-23T13:00:11.241</time>
      </trkpt>
      <trkpt lat="42.53193" lon="2.04931">
        <ele>2032.7180412289</ele>
        <time>2001-05-23T13:00:12.241</time>
      </trkpt>
      <trkpt lat="42.53192" lon="2.04932">
        <ele>2032.8490972456</ele>
        <time>2001-05-23T13:00:13.241</time>
      </trkpt>
      <trkpt lat="42.53192" lon="2.04932">
        <ele>2032.8055420173</ele>
        <time>2001-05-23T13:00:14.241</time>
      </trkpt>
      <trkpt lat="42.53191" lon="2.04934">
        <ele>2032.4822103748</ele>
        <time>2001-05-23T13:00:15.241</time>
      </trkpt>
      <trkpt lat="42.53191" lon="2.04934">
        <ele>2031.9570478434</ele>
        <time>2001-05-23T13:00:16.241</time>
      </trkpt>
      <trkpt lat="42.5319" lon="2.04935">
        <ele>2031.4402231261</ele>
        <time>2001-05-23T13:00:17.241</time>
      </trkpt>
      <trkpt lat="42.5319" lon="2.04936">
        <ele>2031.1273836592</ele>
        <time>2001-05-23T13:00:18.241</time>
      </trkpt>
      <trkpt lat="42.53189" lon="2.04937">
        <ele>2030.9697899925</ele>
        <time>2001-05-23T13:00:19.241</time>
      </trkpt>
      <trkpt lat="42.53189" lon="2.04938">
        <ele>2031.009682888</ele>
        <time>2001-05-23T13:00:20.241</time>
      </trkpt>
      <trkpt lat="42.53189" lon="2.04939">
        <ele>2031.0390382374</ele>
        <time>2001-05-23T13:00:21.241</time>
      </trkpt>
      <trkpt lat="42.53188" lon="2.04941">
        <ele>2030.9462879967</ele>
        <time>2001-05-23T13:00:22.241</time>
      </trkpt>
      <trkpt lat="42.53188" lon="2.04942">
        <ele>2031.1017976005</ele>
        <time>2001-05-23T13:00:23.241</time>
      </trkpt>
      <trkpt lat="42.53188" lon="2.04943">
        <ele>2031.0648496618</ele>
        <time>2001-05-23T13:00:24.241</time>
      </trkpt>
      <trkpt lat="42.53187" lon="2.04944">
        <ele>2030.978420911</ele>
        <time>2001-05-23T13:00:25.241</time>
      </trkpt>
      <trkpt lat="42.53187" lon="2.04945">
        <ele>2030.9543731485</ele>
        <time>2001-05-23T13:00:26.241</time>
      </trkpt>
      <trkpt lat="42.53187" lon="2.04946">
        <ele>2030.9702960661</ele>
        <time>2001-05-23T13:00:27.241</time>
      </trkpt>
      <trkpt lat="42.53186" lon="2.04946">
        <ele>2030.9584279608</ele>
        <time>2001-05-23T13:00:28.241</time>
      </trkpt>
      <trkpt lat="42.53186" lon="2.04947">
        <ele>2031.0477005778</ele>
        <time>2001-05-23T13:00:29.241</time>
      </trkpt>
      <trkpt lat="42.53185" lon="2.04948">
        <ele>2031.265052104</ele>
        <time>2001-05-23T13:00:30.241</time>
      </trkpt>
      <trkpt lat="42.53185" lon="2.0495">
        <ele>2031.3716787132</ele>
        <time>2001-05-23T13:00:31.241</time>
      </trkpt>
      <trkpt lat="42.53184" lon="2.04952">
        <ele>2031.3023088023</ele>
        <time>2001-05-23T13:00:32.241</time>
      </trkpt>
      <trkpt lat="42.53182" lon="2.04952">
        <ele>2030.7466707254</ele>
        <time>2001-05-23T13:00:33.241</time>
      </trkpt>
      <trkpt lat="42.53181" lon="2.04953">
        <ele>2029.8310777782</ele>
        <time>2001-05-23T13:00:34.241</time>
      </trkpt>
      <trkpt lat="42.53181" lon="2.04953">
        <ele>2028.9143272577</ele>
        <time>2001-05-23T13:00:35.241</time>
      </trkpt>
      <trkpt lat="42.53181" lon="2.04954">
        <ele>2028.3113063606</ele>
        <time>2001-05-23T13:00:36.241</time>
      </trkpt>
      <trkpt lat="42.53181" lon="2.04955">
        <ele>2027.9570772329</ele>
        <time>2001-05-23T13:00:37.241</time>
      </trkpt>
      <trkpt lat="42.53179" lon="2.04957">
        <ele>2027.8958978953</ele>
        <time>2001-05-23T13:00:38.241</time>
      </trkpt>
      <trkpt lat="42.53179" lon="2.04958">
        <ele>2028.1124545073</ele>
        <time>2001-05-23T13:00:39.241</time>
      </trkpt>
      <trkpt lat="42.53178" lon="2.04959">
        <ele>2028.404315039</ele>
        <time>2001-05-23T13:00:40.241</time>
      </trkpt>
      <trkpt lat="42.53178" lon="2.04959">
        <ele>2028.8247041348</ele>
        <time>2001-05-23T13:00:41.241</time>
      </trkpt>
      <trkpt lat="42.53177" lon="2.04961">
        <ele>2029.2947859874</ele>
        <time>2001-05-23T13:00:42.241</time>
      </trkpt>
      <trkpt lat="42.53177" lon="2.04962">
        <ele>2029.7502127152</ele>
        <time>2001-05-23T13:00:43.241</time>
      </trkpt>
      <trkpt lat="42.53177" lon="2.04963">
        <ele>2030.0850096432</ele>
        <time>2001-05-23T13:00:44.241</time>
      </trkpt>
      <trkpt lat="42.53176" lon="2.04964">
        <ele>2030.4688349271</ele>
        <time>2001-05-23T13:00:45.241</time>
      </trkpt>
      <trkpt lat="42.53176" lon="2.04966">
        <ele>2030.2951548869</ele>
        <time>2001-05-23T13:00:46.241</time>
      </trkpt>
      <trkpt lat="42.53175" lon="2.04966">
        <ele>2029.996923965</ele>
        <time>2001-05-23T13:00:47.241</time>
      </trkpt>
      <trkpt lat="42.53175" lon="2.04967">
        <ele>2029.5308554882</ele>
        <time>2001-05-23T13:00:48.241</time>
      </trkpt>
      <trkpt lat="42.53175" lon="2.04968">
        <ele>2029.124761066</ele>
        <time>2001-05-23T13:00:49.241</time>
      </trkpt>
      <trkpt lat="42.53174" lon="2.0497">
        <ele>2028.5923517834</ele>
        <time>2001-05-23T13:00:50.243</time>
      </trkpt>
      <trkpt lat="42.53174" lon="2.04971">
        <ele>2028.2141254757</ele>
        <time>2001-05-23T13:00:51.243</time>
      </trkpt>
      <trkpt lat="42.53173" lon="2.04972">
        <ele>2027.8180934893</ele>
        <time>2001-05-23T13:00:52.243</time>
      </trkpt>
      <trkpt lat="42.53173" lon="2.04974">
        <ele>2027.650274512</ele>
        <time>2001-05-23T13:00:53.243</time>
      </trkpt>
      <trkpt lat="42.53172" lon="2.04975">
        <ele>2027.6412017366</ele>
        <time>2001-05-23T13:00:54.243</time>
      </trkpt>
      <trkpt lat="42.53172" lon="2.04977">
        <ele>2027.6727215437</ele>
        <time>2001-05-23T13:00:55.243</time>
      </trkpt>
      <trkpt lat="42.53172" lon="2.04978">
        <ele>2027.7923243137</ele>
        <time>2001-05-23T13:00:56.243</time>
      </trkpt>
      <trkpt lat="42.53171" lon="2.04979">
        <ele>2028.0147026192</ele>
        <time>2001-05-23T13:00:57.243</time>
      </trkpt>
      <trkpt lat="42.5317" lon="2.0498">
        <ele>2028.2315038085</ele>
        <time>2001-05-23T13:00:58.243</time>
      </trkpt>
      <trkpt lat="42.5317" lon="2.04981">
        <ele>2028.2919418244</ele>
        <time>2001-05-23T13:00:59.243</time>
      </trkpt>
      <trkpt lat="42.53169" lon="2.04981">
        <ele>2028.1453824734</ele>
        <time>2001-05-23T13:01:00.243</time>
      </trkpt>
      <trkpt lat="42.53169" lon="2.04982">
        <ele>2028.0400832057</ele>
        <time>2001-05-23T13:01:01.243</time>
      </trkpt>
      <trkpt lat="42.53168" lon="2.04983">
        <ele>2028.0735562019</ele>
        <time>2001-05-23T13:01:02.243</time>
      </trkpt>
      <trkpt lat="42.53167" lon="2.04984">
        <ele>2027.4587146513</ele>
        <time>2001-05-23T13:01:03.242</time>
      </trkpt>
      <trkpt lat="42.53167" lon="2.04985">
        <ele>2026.9364780447</ele>
        <time>2001-05-23T13:01:04.242</time>
      </trkpt>
      <trkpt lat="42.53166" lon="2.04989">
        <ele>2026.4624065015</ele>
        <time>2001-05-23T13:01:05.245</time>
      </trkpt>
      <trkpt lat="42.53165" lon="2.0499">
        <ele>2025.9123677256</ele>
        <time>2001-05-23T13:01:06.245</time>
      </trkpt>
      <trkpt lat="42.53164" lon="2.04991">
        <ele>2025.2821644427</ele>
        <time>2001-05-23T13:01:07.245</time>
      </trkpt>
      <trkpt lat="42.53164" lon="2.04992">
        <ele>2025.1903074274</ele>
        <time>2001-05-23T13:01:08.245</time>
      </trkpt>
      <trkpt lat="42.53162" lon="2.04993">
        <ele>2025.1171501555</ele>
        <time>2001-05-23T13:01:09.245</time>
      </trkpt>
      <trkpt lat="42.53161" lon="2.04993">
        <ele>2025.2210583495</ele>
        <time>2001-05-23T13:01:10.245</time>
      </trkpt>
      <trkpt lat="42.53161" lon="2.04994">
        <ele>2025.5398527266</ele>
        <time>2001-05-23T13:01:11.245</time>
      </trkpt>
      <trkpt lat="42.5316" lon="2.04997">
        <ele>2025.4368705209</ele>
        <time>2001-05-23T13:01:12.245</time>
      </trkpt>
      <trkpt lat="42.53159" lon="2.04998">
        <ele>2025.3914672863</ele>
        <time>2001-05-23T13:01:13.245</time>
      </trkpt>
      <trkpt lat="42.53159" lon="2.04998">
        <ele>2025.3310410485</ele>
        <time>2001-05-23T13:01:14.245</time>
      </trkpt>
      <trkpt lat="42.53158" lon="2.04999">
        <ele>2025.129332561</ele>
        <time>2001-05-23T13:01:15.245</time>
      </trkpt>
      <trkpt lat="42.53158" lon="2.05001">
        <ele>2024.9329294194</ele>
        <time>2001-05-23T13:01:16.245</time>
      </trkpt>
      <trkpt lat="42.53157" lon="2.05002">
        <ele>2024.9803196017</ele>
        <time>2001-05-23T13:01:17.245</time>
      </trkpt>
      <trkpt lat="42.53157" lon="2.05003">
        <ele>2024.9668201094</ele>
        <time>2001-05-23T13:01:18.245</time>
      </trkpt>
      <trkpt lat="42.53156" lon="2.05004">
        <ele>2024.911555439</ele>
        <time>2001-05-23T13:01:19.245</time>
      </trkpt>
      <trkpt lat="42.53156" lon="2.05005">
        <ele>2024.7609871978</ele>
        <time>2001-05-23T13:01:20.245</time>
      </trkpt>
      <trkpt lat="42.53156" lon="2.05006">
        <ele>2024.353190361</ele>
        <time>2001-05-23T13:01:21.245</time>
      </trkpt>
      <trkpt lat="42.53155" lon="2.05006">
        <ele>2024.0317786332</ele>
        <time>2001-05-23T13:01:22.243</time>
      </trkpt>
      <trkpt lat="42.53153" lon="2.05007">
        <ele>2023.6372706227</ele>
        <time>2001-05-23T13:01:23.243</time>
      </trkpt>
      <trkpt lat="42.53152" lon="2.05007">
        <ele>2023.5304655369</ele>
        <time>2001-05-23T13:01:24.243</time>
      </trkpt>
      <trkpt lat="42.53152" lon="2.05008">
        <ele>2023.6203685459</ele>
        <time>2001-05-23T13:01:25.243</time>
      </trkpt>
      <trkpt lat="42.53152" lon="2.05009">
        <ele>2023.953597172</ele>
        <time>2001-05-23T13:01:26.243</time>
      </trkpt>
      <trkpt lat="42.53151" lon="2.05011">
        <ele>2024.3774989219</ele>
        <time>2001-05-23T13:01:27.243</time>
      </trkpt>
      <trkpt lat="42.53151" lon="2.05012">
        <ele>2025.0762494767</ele>
        <time>2001-05-23T13:01:28.243</time>
      </trkpt>
      <trkpt lat="42.53151" lon="2.05013">
        <ele>2025.5572698087</ele>
        <time>2001-05-23T13:01:29.243</time>
      </trkpt>
      <trkpt lat="42.53151" lon="2.05014">
        <ele>2026.0289609816</ele>
        <time>2001-05-23T13:01:30.243</time>
      </trkpt>
      <trkpt lat="42.5315" lon="2.05015">
        <ele>2026.354489347</ele>
        <time>2001-05-23T13:01:31.243</time>
      </trkpt>
      <trkpt lat="42.53149" lon="2.05016">
        <ele>2026.5117500566</ele>
        <time>2001-05-23T13:01:32.243</time>
      </trkpt>
      <trkpt lat="42.53149" lon="2.05017">
        <ele>2026.4865761394</ele>
        <time>2001-05-23T13:01:33.243</time>
      </trkpt>
      <trkpt lat="42.53148" lon="2.05017">
        <ele>2026.3590942986</ele>
        <time>2001-05-23T13:01:34.243</time>
      </trkpt>
      <trkpt lat="42.53147" lon="2.05018">
        <ele>2026.2116846187</ele>
        <time>2001-05-23T13:01:35.243</time>
      </trkpt>
      <trkpt lat="42.53146" lon="2.05019">
        <ele>2025.683473164</ele>
        <time>2001-05-23T13:01:36.243</time>
      </trkpt>
      <trkpt lat="42.53145" lon="2.05021">
        <ele>2025.2904574525</ele>
        <time>2001-05-23T13:01:37.243</time>
      </trkpt>
      <trkpt lat="42.53145" lon="2.05021">
        <ele>2024.8047216609</ele>
        <time>2001-05-23T13:01:38.243</time>
      </trkpt>
      <trkpt lat="42.53145" lon="2.05022">
        <ele>2023.9785903012</ele>
        <time>2001-05-23T13:01:39.243</time>
      </trkpt>
      <trkpt lat="42.53144" lon="2.05024">
        <ele>2022.6127340375</ele>
        <time>2001-05-23T13:01:40.243</time>
      </trkpt>
      <trkpt lat="42.53143" lon="2.05025">
        <ele>2021.630808842</ele>
        <time>2001-05-23T13:01:41.243</time>
      </trkpt>
      <trkpt lat="42.53143" lon="2.05026">
        <ele>2020.6955766032</ele>
        <time>2001-05-23T13:01:42.243</time>
      </trkpt>
      <trkpt lat="42.53142" lon="2.05028">
        <ele>2019.8677918823</ele>
        <time>2001-05-23T13:01:43.243</time>
      </trkpt>
      <trkpt lat="42.53142" lon="2.05029">
        <ele>2019.322624578</ele>
        <time>2001-05-23T13:01:44.243</time>
      </trkpt>
      <trkpt lat="42.53142" lon="2.0503">
        <ele>2019.2915893715</ele>
        <time>2001-05-23T13:01:45.243</time>
      </trkpt>
      <trkpt lat="42.53142" lon="2.05031">
        <ele>2019.3274725813</ele>
        <time>2001-05-23T13:01:46.243</time>
      </trkpt>
      <trkpt lat="42.53141" lon="2.05031">
        <ele>2019.324936673</ele>
        <time>2001-05-23T13:01:47.243</time>
      </trkpt>
      <trkpt lat="42.53141" lon="2.05032">
        <ele>2019.3137266107</ele>
        <time>2001-05-23T13:01:48.243</time>
      </trkpt>
      <trkpt lat="42.53139" lon="2.05033">
        <ele>2019.1476462521</ele>
        <time>2001-05-23T13:01:49.244</time>
      </trkpt>
      <trkpt lat="42.53138" lon="2.05034">
        <ele>2018.8998807145</ele>
        <time>2001-05-23T13:01:50.244</time>
      </trkpt>
      <trkpt lat="42.53137" lon="2.05035">
        <ele>2018.565760514</ele>
        <time>2001-05-23T13:01:51.244</time>
      </trkpt>
      <trkpt lat="42.53137" lon="2.05036">
        <ele>2018.2126606287</ele>
        <time>2001-05-23T13:01:52.244</time>
      </trkpt>
      <trkpt lat="42.53136" lon="2.05036">
        <ele>2018.130293004</ele>
        <time>2001-05-23T13:01:53.244</time>
      </trkpt>
      <trkpt lat="42.53137" lon="2.05035">
        <ele>2018.6176255602</ele>
        <time>2001-05-23T13:01:54.244</time>
      </trkpt>
      <trkpt lat="42.53135" lon="2.05036">
        <ele>2019.0667147245</ele>
        <time>2001-05-23T13:01:55.245</time>
      </trkpt>
      <trkpt lat="42.53135" lon="2.05037">
        <ele>2019.6249044664</ele>
        <time>2001-05-23T13:01:56.245</time>
      </trkpt>
      <trkpt lat="42.53134" lon="2.05037">
        <ele>2020.1557442974</ele>
        <time>2001-05-23T13:01:57.245</time>
      </trkpt>
      <trkpt lat="42.53133" lon="2.05038">
        <ele>2020.5510463571</ele>
        <time>2001-05-23T13:01:58.245</time>
      </trkpt>
      <trkpt lat="42.53134" lon="2.05039">
        <ele>2020.9113929017</ele>
        <time>2001-05-23T13:01:59.245</time>
      </trkpt>
      <trkpt lat="42.53134" lon="2.05039">
        <ele>2021.361680424</ele>
        <time>2001-05-23T13:02:00.245</time>
      </trkpt>
      <trkpt lat="42.53133" lon="2.05039">
        <ele>2021.6225768998</ele>
        <time>2001-05-23T13:02:01.244</time>
      </trkpt>
      <trkpt lat="42.53132" lon="2.0504">
        <ele>2021.8804544991</ele>
        <time>2001-05-23T13:02:02.244</time>
      </trkpt>
      <trkpt lat="42.53131" lon="2.0504">
        <ele>2021.9842162499</ele>
        <time>2001-05-23T13:02:03.244</time>
      </trkpt>
      <trkpt lat="42.5313" lon="2.05041">
        <ele>2021.7347592101</ele>
        <time>2001-05-23T13:02:04.244</time>
      </trkpt>
      <trkpt lat="42.53128" lon="2.05041">
        <ele>2021.3127385393</ele>
        <time>2001-05-23T13:02:05.244</time>
      </trkpt>
      <trkpt lat="42.53128" lon="2.05042">
        <ele>2021.0413655575</ele>
        <time>2001-05-23T13:02:06.244</time>
      </trkpt>
      <trkpt lat="42.53127" lon="2.05042">
        <ele>2020.9153988052</ele>
        <time>2001-05-23T13:02:07.244</time>
      </trkpt>
      <trkpt lat="42.53127" lon="2.05043">
        <ele>2020.7927036513</ele>
        <time>2001-05-23T13:02:08.244</time>
      </trkpt>
      <trkpt lat="42.53126" lon="2.05043">
        <ele>2020.7290597718</ele>
        <time>2001-05-23T13:02:09.244</time>
      </trkpt>
      <trkpt lat="42.53124" lon="2.05045">
        <ele>2020.5725378077</ele>
        <time>2001-05-23T13:02:10.241</time>
      </trkpt>
      <trkpt lat="42.53124" lon="2.05046">
        <ele>2020.326388189</ele>
        <time>2001-05-23T13:02:11.241</time>
      </trkpt>
      <trkpt lat="42.53123" lon="2.05047">
        <ele>2019.783488702</ele>
        <time>2001-05-23T13:02:12.241</time>
      </trkpt>
      <trkpt lat="42.53122" lon="2.05047">
        <ele>2019.1858575284</ele>
        <time>2001-05-23T13:02:13.241</time>
      </trkpt>
      <trkpt lat="42.53121" lon="2.05048">
        <ele>2018.7119919339</ele>
        <time>2001-05-23T13:02:14.241</time>
      </trkpt>
      <trkpt lat="42.53121" lon="2.05049">
        <ele>2018.5480138229</ele>
        <time>2001-05-23T13:02:15.241</time>
      </trkpt>
      <trkpt lat="42.53121" lon="2.05049">
        <ele>2018.4911195822</ele>
        <time>2001-05-23T13:02:16.241</time>
      </trkpt>
      <trkpt lat="42.53119" lon="2.05049">
        <ele>2018.2740801662</ele>
        <time>2001-05-23T13:02:17.239</time>
      </trkpt>
      <trkpt lat="42.53119" lon="2.05049">
        <ele>2018.1754583528</ele>
        <time>2001-05-23T13:02:18.239</time>
      </trkpt>
      <trkpt lat="42.53118" lon="2.0505">
        <ele>2017.8095984856</ele>
        <time>2001-05-23T13:02:19.239</time>
      </trkpt>
      <trkpt lat="42.53117" lon="2.05051">
        <ele>2017.3580170851</ele>
        <time>2001-05-23T13:02:20.239</time>
      </trkpt>
      <trkpt lat="42.53116" lon="2.05051">
        <ele>2016.8283940542</ele>
        <time>2001-05-23T13:02:21.239</time>
      </trkpt>
      <trkpt lat="42.53115" lon="2.05052">
        <ele>2016.5397335475</ele>
        <time>2001-05-23T13:02:22.239</time>
      </trkpt>
      <trkpt lat="42.53115" lon="2.05052">
        <ele>2016.1886435397</ele>
        <time>2001-05-23T13:02:23.239</time>
      </trkpt>
      <trkpt lat="42.53114" lon="2.05053">
        <ele>2016.0235453561</ele>
        <time>2001-05-23T13:02:24.239</time>
      </trkpt>
      <trkpt lat="42.53113" lon="2.05054">
        <ele>2015.9075544976</ele>
        <time>2001-05-23T13:02:25.239</time>
      </trkpt>
      <trkpt lat="42.53112" lon="2.05055">
        <ele>2015.690263655</ele>
        <time>2001-05-23T13:02:26.239</time>
      </trkpt>
      <trkpt lat="42.53111" lon="2.05055">
        <ele>2015.5080956787</ele>
        <time>2001-05-23T13:02:27.239</time>
      </trkpt>
      <trkpt lat="42.53111" lon="2.05055">
        <ele>2015.5722547481</ele>
        <time>2001-05-23T13:02:28.239</time>
      </trkpt>
      <trkpt lat="42.5311" lon="2.05056">
        <ele>2015.8708360044</ele>
        <time>2001-05-23T13:02:29.239</time>
      </trkpt>
      <trkpt lat="42.5311" lon="2.05057">
        <ele>2016.2655208237</ele>
        <time>2001-05-23T13:02:30.239</time>
      </trkpt>
      <trkpt lat="42.53109" lon="2.05057">
        <ele>2016.7335184053</ele>
        <time>2001-05-23T13:02:31.239</time>
      </trkpt>
      <trkpt lat="42.53108" lon="2.05058">
        <ele>2017.0984119514</ele>
        <time>2001-05-23T13:02:32.239</time>
      </trkpt>
      <trkpt lat="42.53108" lon="2.05059">
        <ele>2017.4247536732</ele>
        <time>2001-05-23T13:02:33.239</time>
      </trkpt>
      <trkpt lat="42.53107" lon="2.0506">
        <ele>2017.6153701182</ele>
        <time>2001-05-23T13:02:34.239</time>
      </trkpt>
      <trkpt lat="42.53106" lon="2.0506">
        <ele>2017.8627932092</ele>
        <time>2001-05-23T13:02:35.239</time>
      </trkpt>
      <trkpt lat="42.53106" lon="2.05062">
        <ele>2018.3501124267</ele>
        <time>2001-05-23T13:02:36.239</time>
      </trkpt>
      <trkpt lat="42.53105" lon="2.05063">
        <ele>2018.9586360378</ele>
        <time>2001-05-23T13:02:37.239</time>
      </trkpt>
      <trkpt lat="42.53104" lon="2.05063">
        <ele>2019.3559653621</ele>
        <time>2001-05-23T13:02:38.239</time>
      </trkpt>
      <trkpt lat="42.53103" lon="2.05064">
        <ele>2019.9667016637</ele>
        <time>2001-05-23T13:02:39.239</time>
      </trkpt>
      <trkpt lat="42.53103" lon="2.05065">
        <ele>2020.5124091949</ele>
        <time>2001-05-23T13:02:40.239</time>
      </trkpt>
      <trkpt lat="42.53102" lon="2.05067">
        <ele>2020.8427948182</ele>
        <time>2001-05-23T13:02:41.239</time>
      </trkpt>
      <trkpt lat="42.53101" lon="2.05068">
        <ele>2021.2830720561</ele>
        <time>2001-05-23T13:02:42.239</time>
      </trkpt>
      <trkpt lat="42.531" lon="2.05068">
        <ele>2021.7779604232</ele>
        <time>2001-05-23T13:02:43.239</time>
      </trkpt>
      <trkpt lat="42.53099" lon="2.05069">
        <ele>2021.9396227209</ele>
        <time>2001-05-23T13:02:44.239</time>
      </trkpt>
      <trkpt lat="42.53099" lon="2.0507">
        <ele>2021.8577048084</ele>
        <time>2001-05-23T13:02:45.239</time>
      </trkpt>
      <trkpt lat="42.53099" lon="2.05071">
        <ele>2021.7101777988</ele>
        <time>2001-05-23T13:02:46.239</time>
      </trkpt>
      <trkpt lat="42.53098" lon="2.05071">
        <ele>2021.3262453506</ele>
        <time>2001-05-23T13:02:47.239</time>
      </trkpt>
      <trkpt lat="42.53097" lon="2.05073">
        <ele>2020.8524159245</ele>
        <time>2001-05-23T13:02:48.237</time>
      </trkpt>
      <trkpt lat="42.53096" lon="2.05073">
        <ele>2020.2565011792</ele>
        <time>2001-05-23T13:02:49.237</time>
      </trkpt>
      <trkpt lat="42.53095" lon="2.05075">
        <ele>2020.0741370132</ele>
        <time>2001-05-23T13:02:50.236</time>
      </trkpt>
      <trkpt lat="42.53094" lon="2.05076">
        <ele>2020.0795490338</ele>
        <time>2001-05-23T13:02:51.236</time>
      </trkpt>
      <trkpt lat="42.53094" lon="2.05077">
        <ele>2020.3691884806</ele>
        <time>2001-05-23T13:02:52.236</time>
      </trkpt>
      <trkpt lat="42.53093" lon="2.05077">
        <ele>2020.7405951172</ele>
        <time>2001-05-23T13:02:53.236</time>
      </trkpt>
      <trkpt lat="42.53093" lon="2.05078">
        <ele>2021.1349708116</ele>
        <time>2001-05-23T13:02:54.236</time>
      </trkpt>
      <trkpt lat="42.53092" lon="2.05079">
        <ele>2021.1802295985</ele>
        <time>2001-05-23T13:02:55.236</time>
      </trkpt>
      <trkpt lat="42.53091" lon="2.05079">
        <ele>2021.1280227391</ele>
        <time>2001-05-23T13:02:56.236</time>
      </trkpt>
      <trkpt lat="42.53089" lon="2.05082">
        <ele>2020.4481018415</ele>
        <time>2001-05-23T13:02:57.191</time>
      </trkpt>
      <trkpt lat="42.53088" lon="2.05082">
        <ele>2019.7843365589</ele>
        <time>2001-05-23T13:02:58.191</time>
      </trkpt>
      <trkpt lat="42.53088" lon="2.05083">
        <ele>2018.8996292017</ele>
        <time>2001-05-23T13:02:59.191</time>
      </trkpt>
      <trkpt lat="42.53086" lon="2.05083">
        <ele>2018.1921836497</ele>
        <time>2001-05-23T13:03:00.191</time>
      </trkpt>
      <trkpt lat="42.53084" lon="2.05083">
        <ele>2017.6265913501</ele>
        <time>2001-05-23T13:03:01.191</time>
      </trkpt>
      <trkpt lat="42.53082" lon="2.05083">
        <ele>2017.5577442555</ele>
        <time>2001-05-23T13:03:02.191</time>
      </trkpt>
      <trkpt lat="42.53081" lon="2.05083">
        <ele>2017.5718524506</ele>
        <time>2001-05-23T13:03:03.191</time>
      </trkpt>
      <trkpt lat="42.53081" lon="2.05084">
        <ele>2017.9364665367</ele>
        <time>2001-05-23T13:03:04.191</time>
      </trkpt>
      <trkpt lat="42.5308" lon="2.05085">
        <ele>2018.2553255813</ele>
        <time>2001-05-23T13:03:05.191</time>
      </trkpt>
      <trkpt lat="42.5308" lon="2.05085">
        <ele>2018.4176278627</ele>
        <time>2001-05-23T13:03:06.191</time>
      </trkpt>
      <trkpt lat="42.53079" lon="2.05086">
        <ele>2018.5718261395</ele>
        <time>2001-05-23T13:03:07.191</time>
      </trkpt>
      <trkpt lat="42.53078" lon="2.05087">
        <ele>2018.6774691246</ele>
        <time>2001-05-23T13:03:08.191</time>
      </trkpt>
      <trkpt lat="42.53078" lon="2.05088">
        <ele>2019.0474035721</ele>
        <time>2001-05-23T13:03:09.191</time>
      </trkpt>
      <trkpt lat="42.53077" lon="2.05089">
        <ele>2019.4072407845</ele>
        <time>2001-05-23T13:03:10.191</time>
      </trkpt>
      <trkpt lat="42.53076" lon="2.05089">
        <ele>2019.8491707012</ele>
        <time>2001-05-23T13:03:11.191</time>
      </trkpt>
      <trkpt lat="42.53076" lon="2.05089">
        <ele>2020.5239127083</ele>
        <time>2001-05-23T13:03:12.191</time>
      </trkpt>
      <trkpt lat="42.53076" lon="2.0509">
        <ele>2020.8880688606</ele>
        <time>2001-05-23T13:03:13.191</time>
      </trkpt>
      <trkpt lat="42.53075" lon="2.05092">
        <ele>2020.4609170694</ele>
        <time>2001-05-23T13:03:14.191</time>
      </trkpt>
      <trkpt lat="42.53074" lon="2.05092">
        <ele>2019.9470145851</ele>
        <time>2001-05-23T13:03:15.191</time>
      </trkpt>
      <trkpt lat="42.53073" lon="2.05093">
        <ele>2019.3958383901</ele>
        <time>2001-05-23T13:03:16.192</time>
      </trkpt>
      <trkpt lat="42.53073" lon="2.05093">
        <ele>2018.607071067</ele>
        <time>2001-05-23T13:03:17.192</time>
      </trkpt>
      <trkpt lat="42.53072" lon="2.05093">
        <ele>2018.2599185608</ele>
        <time>2001-05-23T13:03:18.192</time>
      </trkpt>
      <trkpt lat="42.53071" lon="2.05094">
        <ele>2018.3732435001</ele>
        <time>2001-05-23T13:03:19.192</time>
      </trkpt>
      <trkpt lat="42.5307" lon="2.05093">
        <ele>2018.5061400853</ele>
        <time>2001-05-23T13:03:20.192</time>
      </trkpt>
      <trkpt lat="42.5307" lon="2.05093">
        <ele>2018.7020671668</ele>
        <time>2001-05-23T13:03:21.192</time>
      </trkpt>
      <trkpt lat="42.53069" lon="2.05094">
        <ele>2018.7988274742</ele>
        <time>2001-05-23T13:03:22.192</time>
      </trkpt>
      <trkpt lat="42.53069" lon="2.05095">
        <ele>2018.5787859073</ele>
        <time>2001-05-23T13:03:23.192</time>
      </trkpt>
      <trkpt lat="42.53067" lon="2.05096">
        <ele>2018.3416930579</ele>
        <time>2001-05-23T13:03:24.193</time>
      </trkpt>
      <trkpt lat="42.53067" lon="2.05097">
        <ele>2018.1219268089</ele>
        <time>2001-05-23T13:03:25.193</time>
      </trkpt>
      <trkpt lat="42.53066" lon="2.05097">
        <ele>2017.7930813765</ele>
        <time>2001-05-23T13:03:26.193</time>
      </trkpt>
      <trkpt lat="42.53066" lon="2.05098">
        <ele>2017.5226689445</ele>
        <time>2001-05-23T13:03:27.193</time>
      </trkpt>
      <trkpt lat="42.53065" lon="2.05098">
        <ele>2017.3939743632</ele>
        <time>2001-05-23T13:03:28.193</time>
      </trkpt>
      <trkpt lat="42.53065" lon="2.05099">
        <ele>2017.2976940949</ele>
        <time>2001-05-23T13:03:29.193</time>
      </trkpt>
      <trkpt lat="42.53064" lon="2.051">
        <ele>2017.2684738798</ele>
        <time>2001-05-23T13:03:30.193</time>
      </trkpt>
      <trkpt lat="42.53063" lon="2.051">
        <ele>2017.4491155891</ele>
        <time>2001-05-23T13:03:31.193</time>
      </trkpt>
      <trkpt lat="42.53061" lon="2.05101">
        <ele>2017.4648894409</ele>
        <time>2001-05-23T13:03:32.193</time>
      </trkpt>
      <trkpt lat="42.5306" lon="2.05101">
        <ele>2017.0881252874</ele>
        <time>2001-05-23T13:03:33.193</time>
      </trkpt>
      <trkpt lat="42.53059" lon="2.05102">
        <ele>2016.617309705</ele>
        <time>2001-05-23T13:03:34.193</time>
      </trkpt>
      <trkpt lat="42.53058" lon="2.05102">
        <ele>2016.0951557953</ele>
        <time>2001-05-23T13:03:35.193</time>
      </trkpt>
      <trkpt lat="42.53057" lon="2.05103">
        <ele>2015.42710323</ele>
        <time>2001-05-23T13:03:36.193</time>
      </trkpt>
      <trkpt lat="42.53056" lon="2.05103">
        <ele>2014.9065339865</ele>
        <time>2001-05-23T13:03:37.193</time>
      </trkpt>
      <trkpt lat="42.53055" lon="2.05104">
        <ele>2014.7987374119</ele>
        <time>2001-05-23T13:03:38.193</time>
      </trkpt>
      <trkpt lat="42.53054" lon="2.05105">
        <ele>2014.7623933325</ele>
        <time>2001-05-23T13:03:39.193</time>
      </trkpt>
      <trkpt lat="42.53053" lon="2.05105">
        <ele>2015.0050711133</ele>
        <time>2001-05-23T13:03:40.193</time>
      </trkpt>
      <trkpt lat="42.53053" lon="2.05105">
        <ele>2014.8579683438</ele>
        <time>2001-05-23T13:03:41.193</time>
      </trkpt>
      <trkpt lat="42.53053" lon="2.05106">
        <ele>2014.6866555847</ele>
        <time>2001-05-23T13:03:42.193</time>
      </trkpt>
      <trkpt lat="42.53052" lon="2.05107">
        <ele>2014.4765950041</ele>
        <time>2001-05-23T13:03:43.193</time>
      </trkpt>
      <trkpt lat="42.53051" lon="2.05107">
        <ele>2014.3394251892</ele>
        <time>2001-05-23T13:03:44.193</time>
      </trkpt>
      <trkpt lat="42.5305" lon="2.05108">
        <ele>2013.8719447207</ele>
        <time>2001-05-23T13:03:45.193</time>
      </trkpt>
      <trkpt lat="42.5305" lon="2.05109">
        <ele>2013.7072745377</ele>
        <time>2001-05-23T13:03:46.193</time>
      </trkpt>
      <trkpt lat="42.5305" lon="2.0511">
        <ele>2013.5896488648</ele>
        <time>2001-05-23T13:03:47.193</time>
      </trkpt>
      <trkpt lat="42.53048" lon="2.0511">
        <ele>2013.600782802</ele>
        <time>2001-05-23T13:03:48.193</time>
      </trkpt>
      <trkpt lat="42.53047" lon="2.0511">
        <ele>2013.6145629687</ele>
        <time>2001-05-23T13:03:49.193</time>
      </trkpt>
      <trkpt lat="42.53047" lon="2.0511">
        <ele>2013.6975687034</ele>
        <time>2001-05-23T13:03:50.193</time>
      </trkpt>
      <trkpt lat="42.53046" lon="2.05111">
        <ele>2013.8893828828</ele>
        <time>2001-05-23T13:03:51.193</time>
      </trkpt>
      <trkpt lat="42.53045" lon="2.05111">
        <ele>2014.5287762394</ele>
        <time>2001-05-23T13:03:52.193</time>
      </trkpt>
      <trkpt lat="42.53045" lon="2.05111">
        <ele>2015.151295747</ele>
        <time>2001-05-23T13:03:53.193</time>
      </trkpt>
      <trkpt lat="42.53042" lon="2.05113">
        <ele>2014.9706072534</ele>
        <time>2001-05-23T13:03:54.192</time>
      </trkpt>
      <trkpt lat="42.53041" lon="2.05114">
        <ele>2014.6639905838</ele>
        <time>2001-05-23T13:03:55.192</time>
      </trkpt>
      <trkpt lat="42.5304" lon="2.05114">
        <ele>2014.1774931747</ele>
        <time>2001-05-23T13:03:56.192</time>
      </trkpt>
      <trkpt lat="42.53038" lon="2.05115">
        <ele>2013.2698175766</ele>
        <time>2001-05-23T13:03:57.192</time>
      </trkpt>
      <trkpt lat="42.53038" lon="2.05115">
        <ele>2012.1364315907</ele>
        <time>2001-05-23T13:03:58.192</time>
      </trkpt>
      <trkpt lat="42.53037" lon="2.05116">
        <ele>2011.8158326799</ele>
        <time>2001-05-23T13:03:59.192</time>
      </trkpt>
      <trkpt lat="42.53037" lon="2.05116">
        <ele>2011.7166470198</ele>
        <time>2001-05-23T13:04:00.192</time>
      </trkpt>
      <trkpt lat="42.53036" lon="2.05117">
        <ele>2011.7300414979</ele>
        <time>2001-05-23T13:04:01.192</time>
      </trkpt>
      <trkpt lat="42.53035" lon="2.05118">
        <ele>2011.6479568711</ele>
        <time>2001-05-23T13:04:02.192</time>
      </trkpt>
      <trkpt lat="42.53034" lon="2.05118">
        <ele>2011.5652052933</ele>
        <time>2001-05-23T13:04:03.190</time>
      </trkpt>
      <trkpt lat="42.53033" lon="2.05119">
        <ele>2011.4766733609</ele>
        <time>2001-05-23T13:04:04.190</time>
      </trkpt>
      <trkpt lat="42.53032" lon="2.0512">
        <ele>2011.0659504466</ele>
        <time>2001-05-23T13:04:05.190</time>
      </trkpt>
      <trkpt lat="42.53031" lon="2.0512">
        <ele>2010.4008787973</ele>
        <time>2001-05-23T13:04:06.190</time>
      </trkpt>
      <trkpt lat="42.5303" lon="2.05121">
        <ele>2009.6852755921</ele>
        <time>2001-05-23T13:04:07.190</time>
      </trkpt>
      <trkpt lat="42.5303" lon="2.05122">
        <ele>2009.0402162606</ele>
        <time>2001-05-23T13:04:08.190</time>
      </trkpt>
      <trkpt lat="42.5303" lon="2.05122">
        <ele>2008.1299529918</ele>
        <time>2001-05-23T13:04:09.190</time>
      </trkpt>
      <trkpt lat="42.5303" lon="2.05123">
        <ele>2007.507964275</ele>
        <time>2001-05-23T13:04:10.187</time>
      </trkpt>
      <trkpt lat="42.53028" lon="2.05124">
        <ele>2007.4873563368</ele>
        <time>2001-05-23T13:04:11.187</time>
      </trkpt>
      <trkpt lat="42.53026" lon="2.05126">
        <ele>2008.202670767</ele>
        <time>2001-05-23T13:04:12.187</time>
      </trkpt>
      <trkpt lat="42.53025" lon="2.05126">
        <ele>2008.8932318604</ele>
        <time>2001-05-23T13:04:13.187</time>
      </trkpt>
      <trkpt lat="42.53024" lon="2.05126">
        <ele>2009.7119564882</ele>
        <time>2001-05-23T13:04:14.187</time>
      </trkpt>
      <trkpt lat="42.53023" lon="2.05127">
        <ele>2010.5707426997</ele>
        <time>2001-05-23T13:04:15.187</time>
      </trkpt>
      <trkpt lat="42.53022" lon="2.05127">
        <ele>2011.2419451734</ele>
        <time>2001-05-23T13:04:16.187</time>
      </trkpt>
      <trkpt lat="42.53022" lon="2.05128">
        <ele>2011.2949662099</ele>
        <time>2001-05-23T13:04:17.187</time>
      </trkpt>
      <trkpt lat="42.53021" lon="2.05129">
        <ele>2011.5235959582</ele>
        <time>2001-05-23T13:04:18.187</time>
      </trkpt>
      <trkpt lat="42.5302" lon="2.0513">
        <ele>2011.8063280284</ele>
        <time>2001-05-23T13:04:19.187</time>
      </trkpt>
      <trkpt lat="42.53019" lon="2.0513">
        <ele>2011.9258103138</ele>
        <time>2001-05-23T13:04:20.187</time>
      </trkpt>
      <trkpt lat="42.53019" lon="2.05131">
        <ele>2011.3002895337</ele>
        <time>2001-05-23T13:04:21.187</time>
      </trkpt>
      <trkpt lat="42.53018" lon="2.05132">
        <ele>2010.69575409</ele>
        <time>2001-05-23T13:04:22.187</time>
      </trkpt>
      <trkpt lat="42.53018" lon="2.05132">
        <ele>2010.157978959</ele>
        <time>2001-05-23T13:04:23.187</time>
      </trkpt>
      <trkpt lat="42.53015" lon="2.05134">
        <ele>2010.2715512658</ele>
        <time>2001-05-23T13:04:24.187</time>
      </trkpt>
      <trkpt lat="42.53014" lon="2.05134">
        <ele>2010.4035399646</ele>
        <time>2001-05-23T13:04:25.187</time>
      </trkpt>
      <trkpt lat="42.53014" lon="2.05135">
        <ele>2011.0543828934</ele>
        <time>2001-05-23T13:04:26.187</time>
      </trkpt>
      <trkpt lat="42.53013" lon="2.05136">
        <ele>2011.5357473392</ele>
        <time>2001-05-23T13:04:27.187</time>
      </trkpt>
      <trkpt lat="42.53013" lon="2.05137">
        <ele>2011.8273134971</ele>
        <time>2001-05-23T13:04:28.187</time>
      </trkpt>
      <trkpt lat="42.53012" lon="2.05138">
        <ele>2011.3259021718</ele>
        <time>2001-05-23T13:04:29.187</time>
      </trkpt>
      <trkpt lat="42.53011" lon="2.05138">
        <ele>2010.8630819939</ele>
        <time>2001-05-23T13:04:30.187</time>
      </trkpt>
      <trkpt lat="42.53011" lon="2.05139">
        <ele>2010.6925580408</ele>
        <time>2001-05-23T13:04:31.187</time>
      </trkpt>
      <trkpt lat="42.5301" lon="2.0514">
        <ele>2010.8252537955</ele>
        <time>2001-05-23T13:04:32.187</time>
      </trkpt>
      <trkpt lat="42.53009" lon="2.05141">
        <ele>2011.0388064422</ele>
        <time>2001-05-23T13:04:33.187</time>
      </trkpt>
      <trkpt lat="42.53009" lon="2.05142">
        <ele>2011.6641429404</ele>
        <time>2001-05-23T13:04:34.187</time>
      </trkpt>
      <trkpt lat="42.53009" lon="2.05143">
        <ele>2012.2977607366</ele>
        <time>2001-05-23T13:04:35.187</time>
      </trkpt>
      <trkpt lat="42.53008" lon="2.05144">
        <ele>2012.5081357947</ele>
        <time>2001-05-23T13:04:36.187</time>
      </trkpt>
      <trkpt lat="42.53007" lon="2.05144">
        <ele>2012.5850346832</ele>
        <time>2001-05-23T13:04:37.187</time>
      </trkpt>
      <trkpt lat="42.53006" lon="2.05145">
        <ele>2012.4970999636</ele>
        <time>2001-05-23T13:04:38.187</time>
      </trkpt>
      <trkpt lat="42.53006" lon="2.05146">
        <ele>2012.1982187912</ele>
        <time>2001-05-23T13:04:39.187</time>
      </trkpt>
      <trkpt lat="42.53005" lon="2.05147">
        <ele>2012.1078397438</ele>
        <time>2001-05-23T13:04:40.187</time>
      </trkpt>
      <trkpt lat="42.53004" lon="2.05146">
        <ele>2011.9630759029</ele>
        <time>2001-05-23T13:04:41.187</time>
      </trkpt>
      <trkpt lat="42.53004" lon="2.05147">
        <ele>2011.4983340016</ele>
        <time>2001-05-23T13:04:42.187</time>
      </trkpt>
      <trkpt lat="42.53003" lon="2.05147">
        <ele>2010.8651902664</ele>
        <time>2001-05-23T13:04:43.187</time>
      </trkpt>
      <trkpt lat="42.53003" lon="2.05148">
        <ele>2009.9745530955</ele>
        <time>2001-05-23T13:04:44.187</time>
      </trkpt>
      <trkpt lat="42.53002" lon="2.0515">
        <ele>2008.655833168</ele>
        <time>2001-05-23T13:04:45.188</time>
      </trkpt>
      <trkpt lat="42.53002" lon="2.05151">
        <ele>2007.6300687417</ele>
        <time>2001-05-23T13:04:46.188</time>
      </trkpt>
      <trkpt lat="42.53001" lon="2.05152">
        <ele>2006.9820860377</ele>
        <time>2001-05-23T13:04:47.188</time>
      </trkpt>
      <trkpt lat="42.53" lon="2.05154">
        <ele>2006.8913741887</ele>
        <time>2001-05-23T13:04:48.186</time>
      </trkpt>
      <trkpt lat="42.53" lon="2.05155">
        <ele>2007.0701829549</ele>
        <time>2001-05-23T13:04:49.186</time>
      </trkpt>
      <trkpt lat="42.52999" lon="2.05156">
        <ele>2007.2756663937</ele>
        <time>2001-05-23T13:04:50.186</time>
      </trkpt>
      <trkpt lat="42.52999" lon="2.05157">
        <ele>2007.3546569904</ele>
        <time>2001-05-23T13:04:51.186</time>
      </trkpt>
      <trkpt lat="42.52998" lon="2.05158">
        <ele>2007.3154979415</ele>
        <time>2001-05-23T13:04:52.186</time>
      </trkpt>
      <trkpt lat="42.52997" lon="2.05158">
        <ele>2007.0394557754</ele>
        <time>2001-05-23T13:04:53.186</time>
      </trkpt>
      <trkpt lat="42.52997" lon="2.0516">
        <ele>2006.5382123858</ele>
        <time>2001-05-23T13:04:54.186</time>
      </trkpt>
      <trkpt lat="42.52997" lon="2.05161">
        <ele>2006.2328585697</ele>
        <time>2001-05-23T13:04:55.186</time>
      </trkpt>
      <trkpt lat="42.52996" lon="2.05162">
        <ele>2005.977680096</ele>
        <time>2001-05-23T13:04:56.186</time>
      </trkpt>
      <trkpt lat="42.52995" lon="2.05163">
        <ele>2005.7613988101</ele>
        <time>2001-05-23T13:04:57.186</time>
      </trkpt>
      <trkpt lat="42.52994" lon="2.05164">
        <ele>2005.6785462111</ele>
        <time>2001-05-23T13:04:58.186</time>
      </trkpt>
      <trkpt lat="42.52994" lon="2.05166">
        <ele>2005.8367928753</ele>
        <time>2001-05-23T13:04:59.186</time>
      </trkpt>
      <trkpt lat="42.52994" lon="2.05167">
        <ele>2005.8419413287</ele>
        <time>2001-05-23T13:05:00.186</time>
      </trkpt>
      <trkpt lat="42.52993" lon="2.05169">
        <ele>2005.8396635421</ele>
        <time>2001-05-23T13:05:01.186</time>
      </trkpt>
      <trkpt lat="42.52993" lon="2.0517">
        <ele>2005.652194749</ele>
        <time>2001-05-23T13:05:02.186</time>
      </trkpt>
      <trkpt lat="42.52992" lon="2.05171">
        <ele>2005.2832621114</ele>
        <time>2001-05-23T13:05:03.186</time>
      </trkpt>
      <trkpt lat="42.52991" lon="2.05172">
        <ele>2005.0569570469</ele>
        <time>2001-05-23T13:05:04.186</time>
      </trkpt>
      <trkpt lat="42.5299" lon="2.05173">
        <ele>2005.0760941416</ele>
        <time>2001-05-23T13:05:05.186</time>
      </trkpt>
      <trkpt lat="42.5299" lon="2.05173">
        <ele>2005.605019265</ele>
        <time>2001-05-23T13:05:06.186</time>
      </trkpt>
      <trkpt lat="42.5299" lon="2.05173">
        <ele>2006.3168161582</ele>
        <time>2001-05-23T13:05:07.186</time>
      </trkpt>
      <trkpt lat="42.52989" lon="2.05175">
        <ele>2006.9314535707</ele>
        <time>2001-05-23T13:05:08.183</time>
      </trkpt>
      <trkpt lat="42.52989" lon="2.05176">
        <ele>2007.3459649058</ele>
        <time>2001-05-23T13:05:09.183</time>
      </trkpt>
      <trkpt lat="42.52988" lon="2.05177">
        <ele>2007.8439524306</ele>
        <time>2001-05-23T13:05:10.183</time>
      </trkpt>
      <trkpt lat="42.52988" lon="2.05179">
        <ele>2007.6324907757</ele>
        <time>2001-05-23T13:05:11.183</time>
      </trkpt>
      <trkpt lat="42.52987" lon="2.0518">
        <ele>2007.3500611816</ele>
        <time>2001-05-23T13:05:12.183</time>
      </trkpt>
      <trkpt lat="42.52987" lon="2.05181">
        <ele>2007.2329096526</ele>
        <time>2001-05-23T13:05:13.183</time>
      </trkpt>
      <trkpt lat="42.52986" lon="2.05182">
        <ele>2007.1049972033</ele>
        <time>2001-05-23T13:05:14.183</time>
      </trkpt>
      <trkpt lat="42.52986" lon="2.05183">
        <ele>2006.8515470158</ele>
        <time>2001-05-23T13:05:15.183</time>
      </trkpt>
      <trkpt lat="42.52986" lon="2.05183">
        <ele>2006.8016250826</ele>
        <time>2001-05-23T13:05:16.183</time>
      </trkpt>
      <trkpt lat="42.52984" lon="2.05187">
        <ele>2007.1900161043</ele>
        <time>2001-05-23T13:05:17.183</time>
      </trkpt>
      <trkpt lat="42.52984" lon="2.05189">
        <ele>2007.5311544864</ele>
        <time>2001-05-23T13:05:18.183</time>
      </trkpt>
      <trkpt lat="42.52982" lon="2.05189">
        <ele>2007.740345954</ele>
        <time>2001-05-23T13:05:19.183</time>
      </trkpt>
      <trkpt lat="42.52982" lon="2.0519">
        <ele>2007.7838454621</ele>
        <time>2001-05-23T13:05:20.183</time>
      </trkpt>
      <trkpt lat="42.52981" lon="2.05192">
        <ele>2007.7954017723</ele>
        <time>2001-05-23T13:05:21.183</time>
      </trkpt>
      <trkpt lat="42.52981" lon="2.05192">
        <ele>2007.5701906277</ele>
        <time>2001-05-23T13:05:22.183</time>
      </trkpt>
      <trkpt lat="42.5298" lon="2.05194">
        <ele>2007.4755631793</ele>
        <time>2001-05-23T13:05:23.183</time>
      </trkpt>
      <trkpt lat="42.52979" lon="2.05195">
        <ele>2007.785696278</ele>
        <time>2001-05-23T13:05:24.183</time>
      </trkpt>
      <trkpt lat="42.52979" lon="2.05196">
        <ele>2008.5442303844</ele>
        <time>2001-05-23T13:05:25.183</time>
      </trkpt>
      <trkpt lat="42.52978" lon="2.05196">
        <ele>2009.3748525079</ele>
        <time>2001-05-23T13:05:26.183</time>
      </trkpt>
      <trkpt lat="42.52977" lon="2.05196">
        <ele>2009.9692888223</ele>
        <time>2001-05-23T13:05:27.183</time>
      </trkpt>
      <trkpt lat="42.52976" lon="2.05197">
        <ele>2010.4175823165</ele>
        <time>2001-05-23T13:05:28.183</time>
      </trkpt>
      <trkpt lat="42.52975" lon="2.05198">
        <ele>2010.8092342474</ele>
        <time>2001-05-23T13:05:29.183</time>
      </trkpt>
      <trkpt lat="42.52975" lon="2.05198">
        <ele>2010.956141541</ele>
        <time>2001-05-23T13:05:30.183</time>
      </trkpt>
      <trkpt lat="42.52973" lon="2.05199">
        <ele>2011.2268153215</ele>
        <time>2001-05-23T13:05:31.183</time>
      </trkpt>
      <trkpt lat="42.52973" lon="2.05199">
        <ele>2011.6467923235</ele>
        <time>2001-05-23T13:05:32.183</time>
      </trkpt>
      <trkpt lat="42.52973" lon="2.052">
        <ele>2012.1047905371</ele>
        <time>2001-05-23T13:05:33.183</time>
      </trkpt>
      <trkpt lat="42.52972" lon="2.05201">
        <ele>2012.3765183877</ele>
        <time>2001-05-23T13:05:34.183</time>
      </trkpt>
      <trkpt lat="42.52971" lon="2.05203">
        <ele>2012.0557431215</ele>
        <time>2001-05-23T13:05:35.186</time>
      </trkpt>
      <trkpt lat="42.5297" lon="2.05204">
        <ele>2011.3154069616</ele>
        <time>2001-05-23T13:05:36.186</time>
      </trkpt>
      <trkpt lat="42.5297" lon="2.05204">
        <ele>2010.1061421229</ele>
        <time>2001-05-23T13:05:37.186</time>
      </trkpt>
      <trkpt lat="42.5297" lon="2.05206">
        <ele>2008.7820821054</ele>
        <time>2001-05-23T13:05:38.184</time>
      </trkpt>
      <trkpt lat="42.52969" lon="2.05207">
        <ele>2007.2975687623</ele>
        <time>2001-05-23T13:05:39.184</time>
      </trkpt>
      <trkpt lat="42.52969" lon="2.05208">
        <ele>2005.9957803758</ele>
        <time>2001-05-23T13:05:40.184</time>
      </trkpt>
      <trkpt lat="42.52968" lon="2.05209">
        <ele>2004.8683529411</ele>
        <time>2001-05-23T13:05:41.184</time>
      </trkpt>
      <trkpt lat="42.52967" lon="2.0521">
        <ele>2004.0319601139</ele>
        <time>2001-05-23T13:05:42.184</time>
      </trkpt>
      <trkpt lat="42.52967" lon="2.05211">
        <ele>2003.3677791337</ele>
        <time>2001-05-23T13:05:43.184</time>
      </trkpt>
      <trkpt lat="42.52966" lon="2.05212">
        <ele>2003.0249430301</ele>
        <time>2001-05-23T13:05:44.184</time>
      </trkpt>
      <trkpt lat="42.52965" lon="2.05213">
        <ele>2003.1122714588</ele>
        <time>2001-05-23T13:05:45.184</time>
      </trkpt>
      <trkpt lat="42.52964" lon="2.05214">
        <ele>2003.4285356862</ele>
        <time>2001-05-23T13:05:46.184</time>
      </trkpt>
      <trkpt lat="42.52964" lon="2.05215">
        <ele>2003.8921275597</ele>
        <time>2001-05-23T13:05:47.184</time>
      </trkpt>
      <trkpt lat="42.52964" lon="2.05216">
        <ele>2004.024045776</ele>
        <time>2001-05-23T13:05:48.184</time>
      </trkpt>
      <trkpt lat="42.52963" lon="2.05216">
        <ele>2004.0404190041</ele>
        <time>2001-05-23T13:05:49.184</time>
      </trkpt>
      <trkpt lat="42.52963" lon="2.05217">
        <ele>2003.9674588492</ele>
        <time>2001-05-23T13:05:50.184</time>
      </trkpt>
      <trkpt lat="42.52962" lon="2.05217">
        <ele>2003.6886702543</ele>
        <time>2001-05-23T13:05:51.184</time>
      </trkpt>
      <trkpt lat="42.52961" lon="2.05217">
        <ele>2003.4148307141</ele>
        <time>2001-05-23T13:05:52.184</time>
      </trkpt>
      <trkpt lat="42.52961" lon="2.05218">
        <ele>2003.4679089395</ele>
        <time>2001-05-23T13:05:53.184</time>
      </trkpt>
      <trkpt lat="42.5296" lon="2.05219">
        <ele>2003.4866460413</ele>
        <time>2001-05-23T13:05:54.184</time>
      </trkpt>
      <trkpt lat="42.52959" lon="2.05219">
        <ele>2003.6955614125</ele>
        <time>2001-05-23T13:05:55.184</time>
      </trkpt>
      <trkpt lat="42.52958" lon="2.05219">
        <ele>2003.9626818357</ele>
        <time>2001-05-23T13:05:56.184</time>
      </trkpt>
      <trkpt lat="42.52957" lon="2.05219">
        <ele>2004.2209410721</ele>
        <time>2001-05-23T13:05:57.184</time>
      </trkpt>
      <trkpt lat="42.52956" lon="2.0522">
        <ele>2004.410690356</ele>
        <time>2001-05-23T13:05:58.184</time>
      </trkpt>
      <trkpt lat="42.52956" lon="2.05221">
        <ele>2004.5980097843</ele>
        <time>2001-05-23T13:05:59.184</time>
      </trkpt>
      <trkpt lat="42.52955" lon="2.05222">
        <ele>2004.0825496869</ele>
        <time>2001-05-23T13:06:00.184</time>
      </trkpt>
      <trkpt lat="42.52954" lon="2.05222">
        <ele>2003.7394842921</ele>
        <time>2001-05-23T13:06:01.184</time>
      </trkpt>
      <trkpt lat="42.52954" lon="2.05223">
        <ele>2003.4822662182</ele>
        <time>2001-05-23T13:06:02.184</time>
      </trkpt>
      <trkpt lat="42.52953" lon="2.05222">
        <ele>2003.0556621376</ele>
        <time>2001-05-23T13:06:03.184</time>
      </trkpt>
      <trkpt lat="42.52952" lon="2.05223">
        <ele>2002.6245317148</ele>
        <time>2001-05-23T13:06:04.181</time>
      </trkpt>
      <trkpt lat="42.52951" lon="2.05224">
        <ele>2002.6280111173</ele>
        <time>2001-05-23T13:06:05.181</time>
      </trkpt>
      <trkpt lat="42.52949" lon="2.05226">
        <ele>2002.5862141607</ele>
        <time>2001-05-23T13:06:06.181</time>
      </trkpt>
      <trkpt lat="42.52948" lon="2.05227">
        <ele>2002.4345785486</ele>
        <time>2001-05-23T13:06:07.181</time>
      </trkpt>
      <trkpt lat="42.52946" lon="2.05227">
        <ele>2002.595081115</ele>
        <time>2001-05-23T13:06:08.181</time>
      </trkpt>
      <trkpt lat="42.52945" lon="2.05228">
        <ele>2002.7879368983</ele>
        <time>2001-05-23T13:06:09.181</time>
      </trkpt>
      <trkpt lat="42.52944" lon="2.05228">
        <ele>2002.7401806561</ele>
        <time>2001-05-23T13:06:10.181</time>
      </trkpt>
      <trkpt lat="42.52943" lon="2.05228">
        <ele>2002.4139050538</ele>
        <time>2001-05-23T13:06:11.181</time>
      </trkpt>
      <trkpt lat="42.52943" lon="2.05228">
        <ele>2002.0918022379</ele>
        <time>2001-05-23T13:06:12.181</time>
      </trkpt>
      <trkpt lat="42.52942" lon="2.05228">
        <ele>2002.1587280499</ele>
        <time>2001-05-23T13:06:13.181</time>
      </trkpt>
      <trkpt lat="42.52939" lon="2.05231">
        <ele>2002.0735236079</ele>
        <time>2001-05-23T13:06:14.182</time>
      </trkpt>
      <trkpt lat="42.52938" lon="2.05231">
        <ele>2002.0371069025</ele>
        <time>2001-05-23T13:06:15.182</time>
      </trkpt>
      <trkpt lat="42.52938" lon="2.05231">
        <ele>2002.0487970909</ele>
        <time>2001-05-23T13:06:16.182</time>
      </trkpt>
      <trkpt lat="42.52936" lon="2.05232">
        <ele>2002.0413872827</ele>
        <time>2001-05-23T13:06:17.180</time>
      </trkpt>
      <trkpt lat="42.52935" lon="2.05233">
        <ele>2001.6987666657</ele>
        <time>2001-05-23T13:06:18.180</time>
      </trkpt>
      <trkpt lat="42.52935" lon="2.05233">
        <ele>2001.3908693895</ele>
        <time>2001-05-23T13:06:19.180</time>
      </trkpt>
      <trkpt lat="42.52934" lon="2.05234">
        <ele>2001.227827665</ele>
        <time>2001-05-23T13:06:20.180</time>
      </trkpt>
      <trkpt lat="42.52933" lon="2.05234">
        <ele>2001.1073422838</ele>
        <time>2001-05-23T13:06:21.180</time>
      </trkpt>
      <trkpt lat="42.52933" lon="2.05234">
        <ele>2000.9523803378</ele>
        <time>2001-05-23T13:06:22.180</time>
      </trkpt>
      <trkpt lat="42.52932" lon="2.05234">
        <ele>2000.4334063925</ele>
        <time>2001-05-23T13:06:23.180</time>
      </trkpt>
      <trkpt lat="42.52931" lon="2.05234">
        <ele>1999.9098326879</ele>
        <time>2001-05-23T13:06:24.180</time>
      </trkpt>
      <trkpt lat="42.5293" lon="2.05234">
        <ele>1999.2020787518</ele>
        <time>2001-05-23T13:06:25.180</time>
      </trkpt>
      <trkpt lat="42.52931" lon="2.05235">
        <ele>1997.6374648869</ele>
        <time>2001-05-23T13:06:26.178</time>
      </trkpt>
      <trkpt lat="42.52931" lon="2.05236">
        <ele>1995.7200270459</ele>
        <time>2001-05-23T13:06:27.178</time>
      </trkpt>
      <trkpt lat="42.52929" lon="2.05237">
        <ele>1993.5297043107</ele>
        <time>2001-05-23T13:06:28.180</time>
      </trkpt>
      <trkpt lat="42.52928" lon="2.05237">
        <ele>1991.7276219219</ele>
        <time>2001-05-23T13:06:29.180</time>
      </trkpt>
      <trkpt lat="42.52927" lon="2.05238">
        <ele>1990.5378475174</ele>
        <time>2001-05-23T13:06:30.180</time>
      </trkpt>
      <trkpt lat="42.52926" lon="2.05239">
        <ele>1990.5557971815</ele>
        <time>2001-05-23T13:06:31.180</time>
      </trkpt>
      <trkpt lat="42.52925" lon="2.05239">
        <ele>1991.1928147912</ele>
        <time>2001-05-23T13:06:32.180</time>
      </trkpt>
      <trkpt lat="42.52924" lon="2.0524">
        <ele>1992.3588265259</ele>
        <time>2001-05-23T13:06:33.180</time>
      </trkpt>
      <trkpt lat="42.52924" lon="2.0524">
        <ele>1993.160558667</ele>
        <time>2001-05-23T13:06:34.180</time>
      </trkpt>
      <trkpt lat="42.52923" lon="2.05241">
        <ele>1993.5515207462</ele>
        <time>2001-05-23T13:06:35.180</time>
      </trkpt>
      <trkpt lat="42.52922" lon="2.05242">
        <ele>1994.345942382</ele>
        <time>2001-05-23T13:06:36.182</time>
      </trkpt>
      <trkpt lat="42.52919" lon="2.05242">
        <ele>1994.9687557532</ele>
        <time>2001-05-23T13:06:37.182</time>
      </trkpt>
      <trkpt lat="42.52918" lon="2.05243">
        <ele>1995.6125505114</ele>
        <time>2001-05-23T13:06:38.182</time>
      </trkpt>
      <trkpt lat="42.52917" lon="2.05243">
        <ele>1996.3519603813</ele>
        <time>2001-05-23T13:06:39.182</time>
      </trkpt>
      <trkpt lat="42.52916" lon="2.05243">
        <ele>1997.1405745912</ele>
        <time>2001-05-23T13:06:40.182</time>
      </trkpt>
      <trkpt lat="42.52915" lon="2.05243">
        <ele>1997.369113259</ele>
        <time>2001-05-23T13:06:41.182</time>
      </trkpt>
      <trkpt lat="42.52915" lon="2.05243">
        <ele>1997.5249993285</ele>
        <time>2001-05-23T13:06:42.182</time>
      </trkpt>
      <trkpt lat="42.52914" lon="2.05243">
        <ele>1997.6368344523</ele>
        <time>2001-05-23T13:06:43.182</time>
      </trkpt>
      <trkpt lat="42.52913" lon="2.05243">
        <ele>1997.5470321164</ele>
        <time>2001-05-23T13:06:44.182</time>
      </trkpt>
      <trkpt lat="42.52912" lon="2.05244">
        <ele>1997.3249454917</ele>
        <time>2001-05-23T13:06:45.182</time>
      </trkpt>
      <trkpt lat="42.52911" lon="2.05245">
        <ele>1997.113198629</ele>
        <time>2001-05-23T13:06:46.182</time>
      </trkpt>
      <trkpt lat="42.5291" lon="2.05245">
        <ele>1997.2203813089</ele>
        <time>2001-05-23T13:06:47.182</time>
      </trkpt>
      <trkpt lat="42.5291" lon="2.05246">
        <ele>1997.2760488337</ele>
        <time>2001-05-23T13:06:48.182</time>
      </trkpt>
      <trkpt lat="42.52909" lon="2.05247">
        <ele>1997.2683514688</ele>
        <time>2001-05-23T13:06:49.182</time>
      </trkpt>
      <trkpt lat="42.52909" lon="2.05247">
        <ele>1997.2815088542</ele>
        <time>2001-05-23T13:06:50.182</time>
      </trkpt>
      <trkpt lat="42.52908" lon="2.05249">
        <ele>1997.2284838432</ele>
        <time>2001-05-23T13:06:51.182</time>
      </trkpt>
      <trkpt lat="42.52908" lon="2.05249">
        <ele>1996.9144092523</ele>
        <time>2001-05-23T13:06:52.182</time>
      </trkpt>
      <trkpt lat="42.52907" lon="2.05251">
        <ele>1996.5419432046</ele>
        <time>2001-05-23T13:06:53.182</time>
      </trkpt>
      <trkpt lat="42.52906" lon="2.05251">
        <ele>1996.1839570269</ele>
        <time>2001-05-23T13:06:54.182</time>
      </trkpt>
      <trkpt lat="42.52906" lon="2.05251">
        <ele>1995.8384126797</ele>
        <time>2001-05-23T13:06:55.182</time>
      </trkpt>
      <trkpt lat="42.52905" lon="2.0525">
        <ele>1995.268605084</ele>
        <time>2001-05-23T13:06:56.182</time>
      </trkpt>
      <trkpt lat="42.52905" lon="2.0525">
        <ele>1994.6496671403</ele>
        <time>2001-05-23T13:06:57.182</time>
      </trkpt>
      <trkpt lat="42.52903" lon="2.05253">
        <ele>1994.2826115582</ele>
        <time>2001-05-23T13:06:58.182</time>
      </trkpt>
      <trkpt lat="42.52902" lon="2.05253">
        <ele>1993.9198593924</ele>
        <time>2001-05-23T13:06:59.182</time>
      </trkpt>
      <trkpt lat="42.529" lon="2.05255">
        <ele>1993.7590358207</ele>
        <time>2001-05-23T13:07:00.193</time>
      </trkpt>
      <trkpt lat="42.52899" lon="2.05255">
        <ele>1993.847445818</ele>
        <time>2001-05-23T13:07:01.193</time>
      </trkpt>
      <trkpt lat="42.52897" lon="2.05256">
        <ele>1994.1428206649</ele>
        <time>2001-05-23T13:07:02.193</time>
      </trkpt>
      <trkpt lat="42.52896" lon="2.05256">
        <ele>1994.1311071277</ele>
        <time>2001-05-23T13:07:03.193</time>
      </trkpt>
      <trkpt lat="42.52895" lon="2.05257">
        <ele>1994.2779275637</ele>
        <time>2001-05-23T13:07:04.193</time>
      </trkpt>
      <trkpt lat="42.52894" lon="2.05257">
        <ele>1994.3715397211</ele>
        <time>2001-05-23T13:07:05.193</time>
      </trkpt>
      <trkpt lat="42.52893" lon="2.05257">
        <ele>1994.3754413405</ele>
        <time>2001-05-23T13:07:06.193</time>
      </trkpt>
      <trkpt lat="42.52893" lon="2.05258">
        <ele>1994.3355640387</ele>
        <time>2001-05-23T13:07:07.193</time>
      </trkpt>
      <trkpt lat="42.52892" lon="2.05257">
        <ele>1994.6641545692</ele>
        <time>2001-05-23T13:07:08.193</time>
      </trkpt>
      <trkpt lat="42.52891" lon="2.05257">
        <ele>1995.2045907212</ele>
        <time>2001-05-23T13:07:09.193</time>
      </trkpt>
      <trkpt lat="42.5289" lon="2.05259">
        <ele>1996.0085883744</ele>
        <time>2001-05-23T13:07:10.194</time>
      </trkpt>
      <trkpt lat="42.52889" lon="2.05259">
        <ele>1996.6758922251</ele>
        <time>2001-05-23T13:07:11.194</time>
      </trkpt>
      <trkpt lat="42.52887" lon="2.0526">
        <ele>1997.3560305519</ele>
        <time>2001-05-23T13:07:12.194</time>
      </trkpt>
      <trkpt lat="42.52886" lon="2.0526">
        <ele>1997.8499115089</ele>
        <time>2001-05-23T13:07:13.194</time>
      </trkpt>
      <trkpt lat="42.52885" lon="2.0526">
        <ele>1998.4359234963</ele>
        <time>2001-05-23T13:07:14.194</time>
      </trkpt>
      <trkpt lat="42.52884" lon="2.0526">
        <ele>1998.7064532714</ele>
        <time>2001-05-23T13:07:15.194</time>
      </trkpt>
      <trkpt lat="42.52884" lon="2.05261">
        <ele>1998.9281073445</ele>
        <time>2001-05-23T13:07:16.194</time>
      </trkpt>
      <trkpt lat="42.52883" lon="2.05261">
        <ele>1998.8281375419</ele>
        <time>2001-05-23T13:07:17.194</time>
      </trkpt>
      <trkpt lat="42.52882" lon="2.05262">
        <ele>1998.4604278907</ele>
        <time>2001-05-23T13:07:18.194</time>
      </trkpt>
      <trkpt lat="42.52882" lon="2.05262">
        <ele>1997.7395830231</ele>
        <time>2001-05-23T13:07:19.194</time>
      </trkpt>
      <trkpt lat="42.52881" lon="2.05263">
        <ele>1996.9033515029</ele>
        <time>2001-05-23T13:07:20.194</time>
      </trkpt>
      <trkpt lat="42.5288" lon="2.05264">
        <ele>1995.6988533549</ele>
        <time>2001-05-23T13:07:21.194</time>
      </trkpt>
      <trkpt lat="42.5288" lon="2.05265">
        <ele>1994.237539674</ele>
        <time>2001-05-23T13:07:22.194</time>
      </trkpt>
      <trkpt lat="42.52879" lon="2.05265">
        <ele>1992.6024884373</ele>
        <time>2001-05-23T13:07:23.194</time>
      </trkpt>
      <trkpt lat="42.52878" lon="2.05266">
        <ele>1990.868058989</ele>
        <time>2001-05-23T13:07:24.194</time>
      </trkpt>
      <trkpt lat="42.52878" lon="2.05267">
        <ele>1989.1781642206</ele>
        <time>2001-05-23T13:07:25.194</time>
      </trkpt>
      <trkpt lat="42.52877" lon="2.05268">
        <ele>1988.0323407285</ele>
        <time>2001-05-23T13:07:26.194</time>
      </trkpt>
      <trkpt lat="42.52876" lon="2.05269">
        <ele>1987.5005961126</ele>
        <time>2001-05-23T13:07:27.194</time>
      </trkpt>
      <trkpt lat="42.52875" lon="2.0527">
        <ele>1987.3061802542</ele>
        <time>2001-05-23T13:07:28.194</time>
      </trkpt>
      <trkpt lat="42.52874" lon="2.05271">
        <ele>1987.1331186485</ele>
        <time>2001-05-23T13:07:29.194</time>
      </trkpt>
      <trkpt lat="42.52874" lon="2.05272">
        <ele>1986.8421426298</ele>
        <time>2001-05-23T13:07:30.194</time>
      </trkpt>
      <trkpt lat="42.52874" lon="2.05275">
        <ele>1986.8727187382</ele>
        <time>2001-05-23T13:07:31.194</time>
      </trkpt>
      <trkpt lat="42.52874" lon="2.05276">
        <ele>1986.9494942229</ele>
        <time>2001-05-23T13:07:32.194</time>
      </trkpt>
      <trkpt lat="42.52874" lon="2.05277">
        <ele>1986.9683013303</ele>
        <time>2001-05-23T13:07:33.194</time>
      </trkpt>
      <trkpt lat="42.52874" lon="2.05277">
        <ele>1986.9973760972</ele>
        <time>2001-05-23T13:07:34.194</time>
      </trkpt>
      <trkpt lat="42.52874" lon="2.05278">
        <ele>1987.0717102623</ele>
        <time>2001-05-23T13:07:35.194</time>
      </trkpt>
      <trkpt lat="42.52872" lon="2.0528">
        <ele>1986.6958192497</ele>
        <time>2001-05-23T13:07:36.192</time>
      </trkpt>
      <trkpt lat="42.52871" lon="2.05281">
        <ele>1986.2052916789</ele>
        <time>2001-05-23T13:07:37.192</time>
      </trkpt>
      <trkpt lat="42.5287" lon="2.05281">
        <ele>1985.7862529945</ele>
        <time>2001-05-23T13:07:38.192</time>
      </trkpt>
      <trkpt lat="42.5287" lon="2.05282">
        <ele>1985.5842206953</ele>
        <time>2001-05-23T13:07:39.192</time>
      </trkpt>
      <trkpt lat="42.5287" lon="2.05283">
        <ele>1985.4661687084</ele>
        <time>2001-05-23T13:07:40.192</time>
      </trkpt>
      <trkpt lat="42.52869" lon="2.05283">
        <ele>1985.3587475851</ele>
        <time>2001-05-23T13:07:41.192</time>
      </trkpt>
      <trkpt lat="42.52869" lon="2.05284">
        <ele>1985.1657204166</ele>
        <time>2001-05-23T13:07:42.192</time>
      </trkpt>
      <trkpt lat="42.52867" lon="2.05285">
        <ele>1984.7438309684</ele>
        <time>2001-05-23T13:07:43.192</time>
      </trkpt>
      <trkpt lat="42.52867" lon="2.05286">
        <ele>1984.1206335606</ele>
        <time>2001-05-23T13:07:44.192</time>
      </trkpt>
      <trkpt lat="42.52866" lon="2.05287">
        <ele>1983.4135818731</ele>
        <time>2001-05-23T13:07:45.192</time>
      </trkpt>
      <trkpt lat="42.52865" lon="2.05288">
        <ele>1982.8057920523</ele>
        <time>2001-05-23T13:07:46.192</time>
      </trkpt>
      <trkpt lat="42.52865" lon="2.05288">
        <ele>1982.200012419</ele>
        <time>2001-05-23T13:07:47.192</time>
      </trkpt>
      <trkpt lat="42.52864" lon="2.05289">
        <ele>1981.7722494531</ele>
        <time>2001-05-23T13:07:48.192</time>
      </trkpt>
      <trkpt lat="42.52863" lon="2.0529">
        <ele>1981.5451505009</ele>
        <time>2001-05-23T13:07:49.192</time>
      </trkpt>
      <trkpt lat="42.52863" lon="2.0529">
        <ele>1981.6936519161</ele>
        <time>2001-05-23T13:07:50.192</time>
      </trkpt>
      <trkpt lat="42.52862" lon="2.05291">
        <ele>1981.99161346</ele>
        <time>2001-05-23T13:07:51.192</time>
      </trkpt>
      <trkpt lat="42.52862" lon="2.05292">
        <ele>1982.2462218396</ele>
        <time>2001-05-23T13:07:52.192</time>
      </trkpt>
      <trkpt lat="42.52862" lon="2.05293">
        <ele>1982.5427209876</ele>
        <time>2001-05-23T13:07:53.192</time>
      </trkpt>
      <trkpt lat="42.52858" lon="2.05295">
        <ele>1982.4301463015</ele>
        <time>2001-05-23T13:07:54.192</time>
      </trkpt>
      <trkpt lat="42.52857" lon="2.05296">
        <ele>1981.9478835057</ele>
        <time>2001-05-23T13:07:55.192</time>
      </trkpt>
      <trkpt lat="42.52856" lon="2.05296">
        <ele>1981.0789150666</ele>
        <time>2001-05-23T13:07:56.192</time>
      </trkpt>
      <trkpt lat="42.52856" lon="2.05297">
        <ele>1980.3538696369</ele>
        <time>2001-05-23T13:07:57.192</time>
      </trkpt>
      <trkpt lat="42.52855" lon="2.05298">
        <ele>1979.6312873421</ele>
        <time>2001-05-23T13:07:58.192</time>
      </trkpt>
      <trkpt lat="42.52855" lon="2.05299">
        <ele>1979.3351657126</ele>
        <time>2001-05-23T13:07:59.192</time>
      </trkpt>
      <trkpt lat="42.52855" lon="2.053">
        <ele>1979.2262554705</ele>
        <time>2001-05-23T13:08:00.192</time>
      </trkpt>
      <trkpt lat="42.52855" lon="2.05301">
        <ele>1979.4128466904</ele>
        <time>2001-05-23T13:08:01.192</time>
      </trkpt>
      <trkpt lat="42.52856" lon="2.05302">
        <ele>1979.7176462827</ele>
        <time>2001-05-23T13:08:02.192</time>
      </trkpt>
      <trkpt lat="42.52856" lon="2.05303">
        <ele>1979.9748765796</ele>
        <time>2001-05-23T13:08:03.192</time>
      </trkpt>
      <trkpt lat="42.52855" lon="2.05303">
        <ele>1980.1429054718</ele>
        <time>2001-05-23T13:08:04.192</time>
      </trkpt>
      <trkpt lat="42.52854" lon="2.05305">
        <ele>1980.307712332</ele>
        <time>2001-05-23T13:08:05.192</time>
      </trkpt>
      <trkpt lat="42.52853" lon="2.05306">
        <ele>1980.410764344</ele>
        <time>2001-05-23T13:08:06.192</time>
      </trkpt>
      <trkpt lat="42.52853" lon="2.05307">
        <ele>1980.2324824655</ele>
        <time>2001-05-23T13:08:07.192</time>
      </trkpt>
      <trkpt lat="42.52852" lon="2.05308">
        <ele>1980.1379774718</ele>
        <time>2001-05-23T13:08:08.192</time>
      </trkpt>
      <trkpt lat="42.52851" lon="2.05309">
        <ele>1980.4059351666</ele>
        <time>2001-05-23T13:08:09.192</time>
      </trkpt>
      <trkpt lat="42.5285" lon="2.0531">
        <ele>1980.5667614741</ele>
        <time>2001-05-23T13:08:10.192</time>
      </trkpt>
      <trkpt lat="42.5285" lon="2.05311">
        <ele>1980.7029279735</ele>
        <time>2001-05-23T13:08:11.192</time>
      </trkpt>
      <trkpt lat="42.52849" lon="2.05311">
        <ele>1980.7395584302</ele>
        <time>2001-05-23T13:08:12.192</time>
      </trkpt>
      <trkpt lat="42.52848" lon="2.05312">
        <ele>1980.8321867373</ele>
        <time>2001-05-23T13:08:13.192</time>
      </trkpt>
      <trkpt lat="42.52847" lon="2.05313">
        <ele>1980.554204152</ele>
        <time>2001-05-23T13:08:14.192</time>
      </trkpt>
      <trkpt lat="42.52847" lon="2.05314">
        <ele>1980.3628869783</ele>
        <time>2001-05-23T13:08:15.192</time>
      </trkpt>
      <trkpt lat="42.52847" lon="2.05315">
        <ele>1980.3176500015</ele>
        <time>2001-05-23T13:08:16.192</time>
      </trkpt>
      <trkpt lat="42.52846" lon="2.05316">
        <ele>1980.4932976121</ele>
        <time>2001-05-23T13:08:17.192</time>
      </trkpt>
      <trkpt lat="42.52846" lon="2.05316">
        <ele>1980.4563124279</ele>
        <time>2001-05-23T13:08:18.192</time>
      </trkpt>
      <trkpt lat="42.52845" lon="2.05318">
        <ele>1979.9685285669</ele>
        <time>2001-05-23T13:08:19.188</time>
      </trkpt>
      <trkpt lat="42.52844" lon="2.05319">
        <ele>1979.0996286519</ele>
        <time>2001-05-23T13:08:20.188</time>
      </trkpt>
      <trkpt lat="42.52843" lon="2.05321">
        <ele>1978.2140337747</ele>
        <time>2001-05-23T13:08:21.188</time>
      </trkpt>
      <trkpt lat="42.52842" lon="2.05322">
        <ele>1977.4250101101</ele>
        <time>2001-05-23T13:08:22.188</time>
      </trkpt>
      <trkpt lat="42.52842" lon="2.05323">
        <ele>1976.8829071477</ele>
        <time>2001-05-23T13:08:23.188</time>
      </trkpt>
      <trkpt lat="42.52841" lon="2.05324">
        <ele>1977.1251465976</ele>
        <time>2001-05-23T13:08:24.188</time>
      </trkpt>
      <trkpt lat="42.52841" lon="2.05325">
        <ele>1977.9286545796</ele>
        <time>2001-05-23T13:08:25.188</time>
      </trkpt>
      <trkpt lat="42.52842" lon="2.05326">
        <ele>1978.827271702</ele>
        <time>2001-05-23T13:08:26.188</time>
      </trkpt>
      <trkpt lat="42.52842" lon="2.05327">
        <ele>1979.5495582223</ele>
        <time>2001-05-23T13:08:27.188</time>
      </trkpt>
      <trkpt lat="42.52841" lon="2.05328">
        <ele>1980.0565149931</ele>
        <time>2001-05-23T13:08:28.188</time>
      </trkpt>
      <trkpt lat="42.52841" lon="2.05329">
        <ele>1980.3464726968</ele>
        <time>2001-05-23T13:08:29.188</time>
      </trkpt>
      <trkpt lat="42.5284" lon="2.05329">
        <ele>1980.3058591967</ele>
        <time>2001-05-23T13:08:30.188</time>
      </trkpt>
      <trkpt lat="42.5284" lon="2.05331">
        <ele>1980.0647517839</ele>
        <time>2001-05-23T13:08:31.188</time>
      </trkpt>
      <trkpt lat="42.52839" lon="2.05332">
        <ele>1980.0070696089</ele>
        <time>2001-05-23T13:08:32.188</time>
      </trkpt>
      <trkpt lat="42.52839" lon="2.05333">
        <ele>1980.1142647877</ele>
        <time>2001-05-23T13:08:33.188</time>
      </trkpt>
      <trkpt lat="42.52839" lon="2.05334">
        <ele>1980.1612284964</ele>
        <time>2001-05-23T13:08:34.188</time>
      </trkpt>
      <trkpt lat="42.52838" lon="2.05334">
        <ele>1979.9580202609</ele>
        <time>2001-05-23T13:08:35.188</time>
      </trkpt>
      <trkpt lat="42.52837" lon="2.05336">
        <ele>1980.1528158827</ele>
        <time>2001-05-23T13:08:36.186</time>
      </trkpt>
      <trkpt lat="42.52836" lon="2.05336">
        <ele>1980.3428537471</ele>
        <time>2001-05-23T13:08:37.186</time>
      </trkpt>
      <trkpt lat="42.52835" lon="2.05337">
        <ele>1980.3850643344</ele>
        <time>2001-05-23T13:08:38.186</time>
      </trkpt>
      <trkpt lat="42.52834" lon="2.05338">
        <ele>1980.2307529135</ele>
        <time>2001-05-23T13:08:39.186</time>
      </trkpt>
      <trkpt lat="42.52834" lon="2.05338">
        <ele>1980.3131703144</ele>
        <time>2001-05-23T13:08:40.186</time>
      </trkpt>
      <trkpt lat="42.52834" lon="2.05339">
        <ele>1980.1320598921</ele>
        <time>2001-05-23T13:08:41.186</time>
      </trkpt>
      <trkpt lat="42.52833" lon="2.0534">
        <ele>1979.8063981012</ele>
        <time>2001-05-23T13:08:42.186</time>
      </trkpt>
      <trkpt lat="42.52832" lon="2.05342">
        <ele>1979.5082430739</ele>
        <time>2001-05-23T13:08:43.186</time>
      </trkpt>
      <trkpt lat="42.52832" lon="2.05343">
        <ele>1979.5337076392</ele>
        <time>2001-05-23T13:08:44.186</time>
      </trkpt>
      <trkpt lat="42.52831" lon="2.05344">
        <ele>1979.7806096951</ele>
        <time>2001-05-23T13:08:45.186</time>
      </trkpt>
      <trkpt lat="42.52831" lon="2.05345">
        <ele>1980.0109140946</ele>
        <time>2001-05-23T13:08:46.186</time>
      </trkpt>
      <trkpt lat="42.52831" lon="2.05346">
        <ele>1980.300750733</ele>
        <time>2001-05-23T13:08:47.186</time>
      </trkpt>
      <trkpt lat="42.5283" lon="2.05347">
        <ele>1980.5712887978</ele>
        <time>2001-05-23T13:08:48.186</time>
      </trkpt>
      <trkpt lat="42.5283" lon="2.05349">
        <ele>1980.4177756291</ele>
        <time>2001-05-23T13:08:49.186</time>
      </trkpt>
      <trkpt lat="42.52829" lon="2.0535">
        <ele>1980.11455533</ele>
        <time>2001-05-23T13:08:50.186</time>
      </trkpt>
      <trkpt lat="42.52829" lon="2.05351">
        <ele>1979.7560475437</ele>
        <time>2001-05-23T13:08:51.186</time>
      </trkpt>
      <trkpt lat="42.52828" lon="2.05352">
        <ele>1979.2341810167</ele>
        <time>2001-05-23T13:08:52.186</time>
      </trkpt>
      <trkpt lat="42.52828" lon="2.05353">
        <ele>1978.7742865575</ele>
        <time>2001-05-23T13:08:53.186</time>
      </trkpt>
      <trkpt lat="42.52827" lon="2.05354">
        <ele>1978.5272842798</ele>
        <time>2001-05-23T13:08:54.186</time>
      </trkpt>
      <trkpt lat="42.52827" lon="2.05355">
        <ele>1978.4727069199</ele>
        <time>2001-05-23T13:08:55.185</time>
      </trkpt>
      <trkpt lat="42.52826" lon="2.05356">
        <ele>1978.3594934927</ele>
        <time>2001-05-23T13:08:56.185</time>
      </trkpt>
      <trkpt lat="42.52825" lon="2.05357">
        <ele>1978.3159751264</ele>
        <time>2001-05-23T13:08:57.188</time>
      </trkpt>
      <trkpt lat="42.52825" lon="2.05358">
        <ele>1978.0844025295</ele>
        <time>2001-05-23T13:08:58.188</time>
      </trkpt>
      <trkpt lat="42.52825" lon="2.0536">
        <ele>1977.68137004</ele>
        <time>2001-05-23T13:08:59.188</time>
      </trkpt>
      <trkpt lat="42.52825" lon="2.05361">
        <ele>1977.1022846933</ele>
        <time>2001-05-23T13:09:00.188</time>
      </trkpt>
      <trkpt lat="42.52825" lon="2.05362">
        <ele>1976.4551968008</ele>
        <time>2001-05-23T13:09:01.188</time>
      </trkpt>
      <trkpt lat="42.52825" lon="2.05363">
        <ele>1975.8283776984</ele>
        <time>2001-05-23T13:09:02.188</time>
      </trkpt>
      <trkpt lat="42.52824" lon="2.05365">
        <ele>1975.1744237069</ele>
        <time>2001-05-23T13:09:03.188</time>
      </trkpt>
      <trkpt lat="42.52824" lon="2.05366">
        <ele>1974.9051870501</ele>
        <time>2001-05-23T13:09:04.188</time>
      </trkpt>
      <trkpt lat="42.52824" lon="2.05367">
        <ele>1974.6221757725</ele>
        <time>2001-05-23T13:09:05.188</time>
      </trkpt>
      <trkpt lat="42.52824" lon="2.05368">
        <ele>1974.3903288765</ele>
        <time>2001-05-23T13:09:06.188</time>
      </trkpt>
      <trkpt lat="42.52824" lon="2.05369">
        <ele>1974.0212659603</ele>
        <time>2001-05-23T13:09:07.188</time>
      </trkpt>
      <trkpt lat="42.52823" lon="2.0537">
        <ele>1973.911395598</ele>
        <time>2001-05-23T13:09:08.188</time>
      </trkpt>
      <trkpt lat="42.52823" lon="2.05371">
        <ele>1973.7369392013</ele>
        <time>2001-05-23T13:09:09.188</time>
      </trkpt>
      <trkpt lat="42.52822" lon="2.05372">
        <ele>1973.8774200195</ele>
        <time>2001-05-23T13:09:10.188</time>
      </trkpt>
      <trkpt lat="42.52822" lon="2.05374">
        <ele>1974.4334354419</ele>
        <time>2001-05-23T13:09:11.187</time>
      </trkpt>
      <trkpt lat="42.52821" lon="2.05375">
        <ele>1975.1443732291</ele>
        <time>2001-05-23T13:09:12.187</time>
      </trkpt>
      <trkpt lat="42.52818" lon="2.05377">
        <ele>1975.3424124939</ele>
        <time>2001-05-23T13:09:13.188</time>
      </trkpt>
      <trkpt lat="42.52817" lon="2.05377">
        <ele>1975.3308186803</ele>
        <time>2001-05-23T13:09:14.188</time>
      </trkpt>
      <trkpt lat="42.52817" lon="2.05378">
        <ele>1975.09350181</ele>
        <time>2001-05-23T13:09:15.188</time>
      </trkpt>
      <trkpt lat="42.52817" lon="2.05378">
        <ele>1974.4993945455</ele>
        <time>2001-05-23T13:09:16.188</time>
      </trkpt>
      <trkpt lat="42.52814" lon="2.05378">
        <ele>1974.2841266429</ele>
        <time>2001-05-23T13:09:17.188</time>
      </trkpt>
      <trkpt lat="42.52814" lon="2.05378">
        <ele>1974.5538414991</ele>
        <time>2001-05-23T13:09:18.188</time>
      </trkpt>
      <trkpt lat="42.52813" lon="2.05378">
        <ele>1974.6634777555</ele>
        <time>2001-05-23T13:09:19.189</time>
      </trkpt>
      <trkpt lat="42.52813" lon="2.05378">
        <ele>1974.7602307204</ele>
        <time>2001-05-23T13:09:20.189</time>
      </trkpt>
      <trkpt lat="42.52813" lon="2.0538">
        <ele>1974.8908828175</ele>
        <time>2001-05-23T13:09:21.146</time>
      </trkpt>
      <trkpt lat="42.52813" lon="2.0538">
        <ele>1974.6391915765</ele>
        <time>2001-05-23T13:09:22.146</time>
      </trkpt>
      <trkpt lat="42.52814" lon="2.0538">
        <ele>1974.3801079702</ele>
        <time>2001-05-23T13:09:23.178</time>
      </trkpt>
      <trkpt lat="42.52815" lon="2.05381">
        <ele>1974.5287601229</ele>
        <time>2001-05-23T13:09:24.178</time>
      </trkpt>
      <trkpt lat="42.52815" lon="2.05385">
        <ele>1974.6759078743</ele>
        <time>2001-05-23T13:09:25.178</time>
      </trkpt>
      <trkpt lat="42.52816" lon="2.05387">
        <ele>1974.7345662246</ele>
        <time>2001-05-23T13:09:26.178</time>
      </trkpt>
      <trkpt lat="42.52816" lon="2.05388">
        <ele>1974.7405201754</ele>
        <time>2001-05-23T13:09:27.178</time>
      </trkpt>
      <trkpt lat="42.52816" lon="2.05388">
        <ele>1974.6631473536</ele>
        <time>2001-05-23T13:09:28.178</time>
      </trkpt>
      <trkpt lat="42.52816" lon="2.05389">
        <ele>1974.4125139911</ele>
        <time>2001-05-23T13:09:29.178</time>
      </trkpt>
      <trkpt lat="42.52816" lon="2.05391">
        <ele>1973.9848932346</ele>
        <time>2001-05-23T13:09:30.180</time>
      </trkpt>
      <trkpt lat="42.52816" lon="2.05392">
        <ele>1973.4856388208</ele>
        <time>2001-05-23T13:09:31.180</time>
      </trkpt>
      <trkpt lat="42.52815" lon="2.05397">
        <ele>1972.7535391225</ele>
        <time>2001-05-23T13:09:32.178</time>
      </trkpt>
      <trkpt lat="42.52815" lon="2.05398">
        <ele>1972.2020508619</ele>
        <time>2001-05-23T13:09:33.178</time>
      </trkpt>
      <trkpt lat="42.52814" lon="2.054">
        <ele>1971.694074841</ele>
        <time>2001-05-23T13:09:34.178</time>
      </trkpt>
      <trkpt lat="42.52814" lon="2.05402">
        <ele>1971.0819145188</ele>
        <time>2001-05-23T13:09:35.178</time>
      </trkpt>
      <trkpt lat="42.52814" lon="2.05403">
        <ele>1970.4565905325</ele>
        <time>2001-05-23T13:09:36.178</time>
      </trkpt>
      <trkpt lat="42.52814" lon="2.05404">
        <ele>1970.1188579518</ele>
        <time>2001-05-23T13:09:37.178</time>
      </trkpt>
      <trkpt lat="42.52813" lon="2.05405">
        <ele>1969.4800654234</ele>
        <time>2001-05-23T13:09:38.180</time>
      </trkpt>
      <trkpt lat="42.52812" lon="2.05406">
        <ele>1968.7043354155</ele>
        <time>2001-05-23T13:09:39.180</time>
      </trkpt>
      <trkpt lat="42.52812" lon="2.05407">
        <ele>1968.0492988719</ele>
        <time>2001-05-23T13:09:40.180</time>
      </trkpt>
      <trkpt lat="42.52812" lon="2.05408">
        <ele>1967.4784633273</ele>
        <time>2001-05-23T13:09:41.180</time>
      </trkpt>
      <trkpt lat="42.52811" lon="2.05408">
        <ele>1966.9346151447</ele>
        <time>2001-05-23T13:09:42.180</time>
      </trkpt>
      <trkpt lat="42.52811" lon="2.05411">
        <ele>1966.7120024277</ele>
        <time>2001-05-23T13:09:43.184</time>
      </trkpt>
      <trkpt lat="42.5281" lon="2.05412">
        <ele>1966.4727684541</ele>
        <time>2001-05-23T13:09:44.184</time>
      </trkpt>
      <trkpt lat="42.52809" lon="2.05413">
        <ele>1966.2902208719</ele>
        <time>2001-05-23T13:09:45.184</time>
      </trkpt>
      <trkpt lat="42.52809" lon="2.05414">
        <ele>1966.022422458</ele>
        <time>2001-05-23T13:09:46.184</time>
      </trkpt>
      <trkpt lat="42.52809" lon="2.05415">
        <ele>1965.5885013629</ele>
        <time>2001-05-23T13:09:47.184</time>
      </trkpt>
      <trkpt lat="42.5281" lon="2.05417">
        <ele>1965.1534513315</ele>
        <time>2001-05-23T13:09:48.184</time>
      </trkpt>
      <trkpt lat="42.5281" lon="2.05418">
        <ele>1964.9232673554</ele>
        <time>2001-05-23T13:09:49.184</time>
      </trkpt>
      <trkpt lat="42.5281" lon="2.05418">
        <ele>1964.6061329599</ele>
        <time>2001-05-23T13:09:50.184</time>
      </trkpt>
      <trkpt lat="42.5281" lon="2.0542">
        <ele>1964.3841732308</ele>
        <time>2001-05-23T13:09:51.184</time>
      </trkpt>
      <trkpt lat="42.52809" lon="2.05421">
        <ele>1964.2886121979</ele>
        <time>2001-05-23T13:09:52.184</time>
      </trkpt>
      <trkpt lat="42.52809" lon="2.05422">
        <ele>1963.9319741936</ele>
        <time>2001-05-23T13:09:53.184</time>
      </trkpt>
      <trkpt lat="42.52808" lon="2.05423">
        <ele>1963.446826569</ele>
        <time>2001-05-23T13:09:54.184</time>
      </trkpt>
      <trkpt lat="42.52808" lon="2.05424">
        <ele>1963.0269311097</ele>
        <time>2001-05-23T13:09:55.184</time>
      </trkpt>
      <trkpt lat="42.52808" lon="2.05425">
        <ele>1962.5922604589</ele>
        <time>2001-05-23T13:09:56.184</time>
      </trkpt>
      <trkpt lat="42.52807" lon="2.05426">
        <ele>1962.3511452885</ele>
        <time>2001-05-23T13:09:57.184</time>
      </trkpt>
      <trkpt lat="42.52807" lon="2.05428">
        <ele>1962.2651216982</ele>
        <time>2001-05-23T13:09:58.184</time>
      </trkpt>
      <trkpt lat="42.52807" lon="2.05429">
        <ele>1962.3965014551</ele>
        <time>2001-05-23T13:09:59.184</time>
      </trkpt>
      <trkpt lat="42.52806" lon="2.0543">
        <ele>1962.7862206411</ele>
        <time>2001-05-23T13:10:00.184</time>
      </trkpt>
      <trkpt lat="42.52806" lon="2.05431">
        <ele>1963.4377926139</ele>
        <time>2001-05-23T13:10:01.184</time>
      </trkpt>
      <trkpt lat="42.52806" lon="2.05432">
        <ele>1964.1163042495</ele>
        <time>2001-05-23T13:10:02.184</time>
      </trkpt>
      <trkpt lat="42.52806" lon="2.05433">
        <ele>1964.7524291052</ele>
        <time>2001-05-23T13:10:03.184</time>
      </trkpt>
      <trkpt lat="42.52805" lon="2.05434">
        <ele>1965.1758819779</ele>
        <time>2001-05-23T13:10:04.184</time>
      </trkpt>
      <trkpt lat="42.52805" lon="2.05435">
        <ele>1965.5575654367</ele>
        <time>2001-05-23T13:10:05.184</time>
      </trkpt>
      <trkpt lat="42.52804" lon="2.05436">
        <ele>1965.8579376817</ele>
        <time>2001-05-23T13:10:06.184</time>
      </trkpt>
      <trkpt lat="42.52804" lon="2.05437">
        <ele>1966.0533412397</ele>
        <time>2001-05-23T13:10:07.184</time>
      </trkpt>
      <trkpt lat="42.52803" lon="2.05437">
        <ele>1966.0983544972</ele>
        <time>2001-05-23T13:10:08.184</time>
      </trkpt>
      <trkpt lat="42.52802" lon="2.05438">
        <ele>1966.1797344368</ele>
        <time>2001-05-23T13:10:09.184</time>
      </trkpt>
      <trkpt lat="42.52802" lon="2.05439">
        <ele>1966.0930258948</ele>
        <time>2001-05-23T13:10:10.184</time>
      </trkpt>
      <trkpt lat="42.52802" lon="2.0544">
        <ele>1965.8007364308</ele>
        <time>2001-05-23T13:10:11.184</time>
      </trkpt>
      <trkpt lat="42.52801" lon="2.05441">
        <ele>1965.4090274643</ele>
        <time>2001-05-23T13:10:12.184</time>
      </trkpt>
      <trkpt lat="42.52801" lon="2.05442">
        <ele>1965.2293353289</ele>
        <time>2001-05-23T13:10:13.184</time>
      </trkpt>
      <trkpt lat="42.528" lon="2.05444">
        <ele>1964.9983805962</ele>
        <time>2001-05-23T13:10:14.184</time>
      </trkpt>
      <trkpt lat="42.528" lon="2.05445">
        <ele>1964.6871972606</ele>
        <time>2001-05-23T13:10:15.184</time>
      </trkpt>
      <trkpt lat="42.528" lon="2.05445">
        <ele>1964.1896151252</ele>
        <time>2001-05-23T13:10:16.184</time>
      </trkpt>
      <trkpt lat="42.52799" lon="2.05446">
        <ele>1963.4885255095</ele>
        <time>2001-05-23T13:10:17.184</time>
      </trkpt>
      <trkpt lat="42.52799" lon="2.05448">
        <ele>1962.3683965692</ele>
        <time>2001-05-23T13:10:18.184</time>
      </trkpt>
      <trkpt lat="42.52799" lon="2.05449">
        <ele>1961.3498351103</ele>
        <time>2001-05-23T13:10:19.184</time>
      </trkpt>
      <trkpt lat="42.52799" lon="2.05452">
        <ele>1960.3394903146</ele>
        <time>2001-05-23T13:10:20.183</time>
      </trkpt>
      <trkpt lat="42.52798" lon="2.05453">
        <ele>1959.5405497663</ele>
        <time>2001-05-23T13:10:21.183</time>
      </trkpt>
      <trkpt lat="42.52797" lon="2.05455">
        <ele>1958.9305626824</ele>
        <time>2001-05-23T13:10:22.183</time>
      </trkpt>
      <trkpt lat="42.52797" lon="2.05456">
        <ele>1958.684083177</ele>
        <time>2001-05-23T13:10:23.183</time>
      </trkpt>
      <trkpt lat="42.52797" lon="2.05458">
        <ele>1958.592646642</ele>
        <time>2001-05-23T13:10:24.183</time>
      </trkpt>
      <trkpt lat="42.52797" lon="2.05459">
        <ele>1958.722918508</ele>
        <time>2001-05-23T13:10:25.183</time>
      </trkpt>
      <trkpt lat="42.52796" lon="2.0546">
        <ele>1958.9294152003</ele>
        <time>2001-05-23T13:10:26.183</time>
      </trkpt>
      <trkpt lat="42.52796" lon="2.0546">
        <ele>1959.2800274715</ele>
        <time>2001-05-23T13:10:27.183</time>
      </trkpt>
      <trkpt lat="42.52795" lon="2.05461">
        <ele>1959.4490376849</ele>
        <time>2001-05-23T13:10:28.183</time>
      </trkpt>
      <trkpt lat="42.52794" lon="2.05462">
        <ele>1959.5725600643</ele>
        <time>2001-05-23T13:10:29.181</time>
      </trkpt>
      <trkpt lat="42.52794" lon="2.05464">
        <ele>1959.5551381195</ele>
        <time>2001-05-23T13:10:30.181</time>
      </trkpt>
      <trkpt lat="42.52794" lon="2.05465">
        <ele>1959.5124647334</ele>
        <time>2001-05-23T13:10:31.181</time>
      </trkpt>
      <trkpt lat="42.52793" lon="2.05466">
        <ele>1959.4192389391</ele>
        <time>2001-05-23T13:10:32.181</time>
      </trkpt>
      <trkpt lat="42.52793" lon="2.05467">
        <ele>1959.4566645935</ele>
        <time>2001-05-23T13:10:33.181</time>
      </trkpt>
      <trkpt lat="42.52793" lon="2.05468">
        <ele>1959.2818562476</ele>
        <time>2001-05-23T13:10:34.181</time>
      </trkpt>
      <trkpt lat="42.52792" lon="2.05469">
        <ele>1959.1405024631</ele>
        <time>2001-05-23T13:10:35.181</time>
      </trkpt>
      <trkpt lat="42.52792" lon="2.0547">
        <ele>1958.9363262923</ele>
        <time>2001-05-23T13:10:36.181</time>
      </trkpt>
      <trkpt lat="42.52791" lon="2.05471">
        <ele>1958.7472693752</ele>
        <time>2001-05-23T13:10:37.181</time>
      </trkpt>
      <trkpt lat="42.52791" lon="2.05472">
        <ele>1958.7449010096</ele>
        <time>2001-05-23T13:10:38.181</time>
      </trkpt>
      <trkpt lat="42.5279" lon="2.05473">
        <ele>1958.9170916833</ele>
        <time>2001-05-23T13:10:39.181</time>
      </trkpt>
      <trkpt lat="42.52789" lon="2.05474">
        <ele>1959.211320933</ele>
        <time>2001-05-23T13:10:40.181</time>
      </trkpt>
      <trkpt lat="42.52789" lon="2.05475">
        <ele>1959.6129768951</ele>
        <time>2001-05-23T13:10:41.181</time>
      </trkpt>
      <trkpt lat="42.52788" lon="2.05476">
        <ele>1959.9757840503</ele>
        <time>2001-05-23T13:10:42.181</time>
      </trkpt>
      <trkpt lat="42.52787" lon="2.05477">
        <ele>1960.0864228459</ele>
        <time>2001-05-23T13:10:43.181</time>
      </trkpt>
      <trkpt lat="42.52786" lon="2.05477">
        <ele>1960.0273916325</ele>
        <time>2001-05-23T13:10:44.181</time>
      </trkpt>
      <trkpt lat="42.52786" lon="2.05478">
        <ele>1959.8217043912</ele>
        <time>2001-05-23T13:10:45.181</time>
      </trkpt>
      <trkpt lat="42.52785" lon="2.05479">
        <ele>1959.4804039616</ele>
        <time>2001-05-23T13:10:46.181</time>
      </trkpt>
      <trkpt lat="42.52785" lon="2.05479">
        <ele>1959.0036949022</ele>
        <time>2001-05-23T13:10:47.181</time>
      </trkpt>
      <trkpt lat="42.52785" lon="2.0548">
        <ele>1958.6108636128</ele>
        <time>2001-05-23T13:10:48.181</time>
      </trkpt>
      <trkpt lat="42.52784" lon="2.05481">
        <ele>1958.3396635376</ele>
        <time>2001-05-23T13:10:49.181</time>
      </trkpt>
      <trkpt lat="42.52784" lon="2.05482">
        <ele>1958.043917104</ele>
        <time>2001-05-23T13:10:50.181</time>
      </trkpt>
      <trkpt lat="42.52783" lon="2.05483">
        <ele>1957.7627563957</ele>
        <time>2001-05-23T13:10:51.181</time>
      </trkpt>
      <trkpt lat="42.52783" lon="2.05484">
        <ele>1957.4776965486</ele>
        <time>2001-05-23T13:10:52.181</time>
      </trkpt>
      <trkpt lat="42.52783" lon="2.05486">
        <ele>1957.3763803525</ele>
        <time>2001-05-23T13:10:53.181</time>
      </trkpt>
      <trkpt lat="42.52783" lon="2.05487">
        <ele>1957.0987339541</ele>
        <time>2001-05-23T13:10:54.181</time>
      </trkpt>
      <trkpt lat="42.52782" lon="2.05488">
        <ele>1956.9116685601</ele>
        <time>2001-05-23T13:10:55.181</time>
      </trkpt>
      <trkpt lat="42.52781" lon="2.05489">
        <ele>1957.1636925958</ele>
        <time>2001-05-23T13:10:56.181</time>
      </trkpt>
      <trkpt lat="42.5278" lon="2.0549">
        <ele>1957.480580591</ele>
        <time>2001-05-23T13:10:57.181</time>
      </trkpt>
      <trkpt lat="42.52779" lon="2.05491">
        <ele>1957.5883337891</ele>
        <time>2001-05-23T13:10:58.181</time>
      </trkpt>
      <trkpt lat="42.52779" lon="2.05492">
        <ele>1957.7106638469</ele>
        <time>2001-05-23T13:10:59.181</time>
      </trkpt>
      <trkpt lat="42.52778" lon="2.05493">
        <ele>1957.5738471985</ele>
        <time>2001-05-23T13:11:00.181</time>
      </trkpt>
      <trkpt lat="42.52778" lon="2.05493">
        <ele>1956.8186451545</ele>
        <time>2001-05-23T13:11:01.181</time>
      </trkpt>
      <trkpt lat="42.52777" lon="2.05494">
        <ele>1956.1689097093</ele>
        <time>2001-05-23T13:11:02.181</time>
      </trkpt>
      <trkpt lat="42.52776" lon="2.05495">
        <ele>1955.8135162741</ele>
        <time>2001-05-23T13:11:03.181</time>
      </trkpt>
      <trkpt lat="42.52775" lon="2.05496">
        <ele>1955.6745536814</ele>
        <time>2001-05-23T13:11:04.181</time>
      </trkpt>
      <trkpt lat="42.52774" lon="2.05496">
        <ele>1955.6868883884</ele>
        <time>2001-05-23T13:11:05.181</time>
      </trkpt>
      <trkpt lat="42.52774" lon="2.05496">
        <ele>1955.8620339407</ele>
        <time>2001-05-23T13:11:06.181</time>
      </trkpt>
      <trkpt lat="42.52774" lon="2.05496">
        <ele>1955.9184072098</ele>
        <time>2001-05-23T13:11:07.181</time>
      </trkpt>
      <trkpt lat="42.52772" lon="2.05497">
        <ele>1955.4072157731</ele>
        <time>2001-05-23T13:11:08.184</time>
      </trkpt>
      <trkpt lat="42.52771" lon="2.05498">
        <ele>1954.7646880658</ele>
        <time>2001-05-23T13:11:09.184</time>
      </trkpt>
      <trkpt lat="42.52769" lon="2.05499">
        <ele>1954.0505152328</ele>
        <time>2001-05-23T13:11:10.184</time>
      </trkpt>
      <trkpt lat="42.52769" lon="2.055">
        <ele>1953.48664317</ele>
        <time>2001-05-23T13:11:11.184</time>
      </trkpt>
      <trkpt lat="42.52768" lon="2.05501">
        <ele>1953.08953704</ele>
        <time>2001-05-23T13:11:12.184</time>
      </trkpt>
      <trkpt lat="42.52768" lon="2.05503">
        <ele>1953.2707813773</ele>
        <time>2001-05-23T13:11:13.184</time>
      </trkpt>
      <trkpt lat="42.52767" lon="2.05504">
        <ele>1953.5352698935</ele>
        <time>2001-05-23T13:11:14.184</time>
      </trkpt>
      <trkpt lat="42.52767" lon="2.05504">
        <ele>1953.8443793066</ele>
        <time>2001-05-23T13:11:15.184</time>
      </trkpt>
      <trkpt lat="42.52767" lon="2.05505">
        <ele>1954.028462103</ele>
        <time>2001-05-23T13:11:16.184</time>
      </trkpt>
      <trkpt lat="42.52766" lon="2.05506">
        <ele>1953.9496731168</ele>
        <time>2001-05-23T13:11:17.184</time>
      </trkpt>
      <trkpt lat="42.52765" lon="2.05507">
        <ele>1953.6566324005</ele>
        <time>2001-05-23T13:11:18.184</time>
      </trkpt>
      <trkpt lat="42.52764" lon="2.05508">
        <ele>1953.3106366521</ele>
        <time>2001-05-23T13:11:19.184</time>
      </trkpt>
      <trkpt lat="42.52764" lon="2.05508">
        <ele>1953.0749496719</ele>
        <time>2001-05-23T13:11:20.184</time>
      </trkpt>
      <trkpt lat="42.52763" lon="2.05509">
        <ele>1952.8598617749</ele>
        <time>2001-05-23T13:11:21.184</time>
      </trkpt>
      <trkpt lat="42.52762" lon="2.05509">
        <ele>1952.7665543582</ele>
        <time>2001-05-23T13:11:22.184</time>
      </trkpt>
      <trkpt lat="42.52761" lon="2.0551">
        <ele>1952.5756900076</ele>
        <time>2001-05-23T13:11:23.184</time>
      </trkpt>
      <trkpt lat="42.5276" lon="2.05511">
        <ele>1952.4967446495</ele>
        <time>2001-05-23T13:11:24.184</time>
      </trkpt>
      <trkpt lat="42.5276" lon="2.05511">
        <ele>1952.4265330564</ele>
        <time>2001-05-23T13:11:25.184</time>
      </trkpt>
      <trkpt lat="42.52759" lon="2.05512">
        <ele>1952.2868149506</ele>
        <time>2001-05-23T13:11:26.184</time>
      </trkpt>
      <trkpt lat="42.52759" lon="2.05513">
        <ele>1951.8561775191</ele>
        <time>2001-05-23T13:11:27.184</time>
      </trkpt>
      <trkpt lat="42.52758" lon="2.05515">
        <ele>1951.7283158159</ele>
        <time>2001-05-23T13:11:28.184</time>
      </trkpt>
      <trkpt lat="42.52757" lon="2.05516">
        <ele>1951.561206761</ele>
        <time>2001-05-23T13:11:29.184</time>
      </trkpt>
      <trkpt lat="42.52757" lon="2.05517">
        <ele>1951.4661905849</ele>
        <time>2001-05-23T13:11:30.184</time>
      </trkpt>
      <trkpt lat="42.52756" lon="2.05518">
        <ele>1951.5061084798</ele>
        <time>2001-05-23T13:11:31.184</time>
      </trkpt>
      <trkpt lat="42.52756" lon="2.05519">
        <ele>1951.8301635683</ele>
        <time>2001-05-23T13:11:32.184</time>
      </trkpt>
      <trkpt lat="42.52756" lon="2.05519">
        <ele>1951.8608571798</ele>
        <time>2001-05-23T13:11:33.184</time>
      </trkpt>
      <trkpt lat="42.52755" lon="2.0552">
        <ele>1951.8281295652</ele>
        <time>2001-05-23T13:11:34.184</time>
      </trkpt>
      <trkpt lat="42.52754" lon="2.0552">
        <ele>1951.7580943676</ele>
        <time>2001-05-23T13:11:35.184</time>
      </trkpt>
      <trkpt lat="42.52752" lon="2.05522">
        <ele>1952.02943082</ele>
        <time>2001-05-23T13:11:36.184</time>
      </trkpt>
      <trkpt lat="42.52752" lon="2.05523">
        <ele>1952.3673308259</ele>
        <time>2001-05-23T13:11:37.184</time>
      </trkpt>
      <trkpt lat="42.52751" lon="2.05523">
        <ele>1952.5638987668</ele>
        <time>2001-05-23T13:11:38.184</time>
      </trkpt>
      <trkpt lat="42.5275" lon="2.05523">
        <ele>1952.3339155221</ele>
        <time>2001-05-23T13:11:39.184</time>
      </trkpt>
      <trkpt lat="42.5275" lon="2.05524">
        <ele>1951.936533089</ele>
        <time>2001-05-23T13:11:40.184</time>
      </trkpt>
      <trkpt lat="42.52749" lon="2.05524">
        <ele>1951.1672404347</ele>
        <time>2001-05-23T13:11:41.184</time>
      </trkpt>
      <trkpt lat="42.52748" lon="2.05526">
        <ele>1950.462212888</ele>
        <time>2001-05-23T13:11:42.184</time>
      </trkpt>
      <trkpt lat="42.52748" lon="2.05527">
        <ele>1950.0882820796</ele>
        <time>2001-05-23T13:11:43.184</time>
      </trkpt>
      <trkpt lat="42.52747" lon="2.05528">
        <ele>1950.1423118625</ele>
        <time>2001-05-23T13:11:44.184</time>
      </trkpt>
      <trkpt lat="42.52746" lon="2.05529">
        <ele>1950.3632306801</ele>
        <time>2001-05-23T13:11:45.184</time>
      </trkpt>
      <trkpt lat="42.52745" lon="2.05529">
        <ele>1950.6638706964</ele>
        <time>2001-05-23T13:11:46.184</time>
      </trkpt>
      <trkpt lat="42.52745" lon="2.0553">
        <ele>1950.9221322278</ele>
        <time>2001-05-23T13:11:47.184</time>
      </trkpt>
      <trkpt lat="42.52744" lon="2.05531">
        <ele>1951.0170355787</ele>
        <time>2001-05-23T13:11:48.184</time>
      </trkpt>
      <trkpt lat="42.52743" lon="2.05532">
        <ele>1951.1012941519</ele>
        <time>2001-05-23T13:11:49.184</time>
      </trkpt>
      <trkpt lat="42.52743" lon="2.05533">
        <ele>1951.2122355225</ele>
        <time>2001-05-23T13:11:50.184</time>
      </trkpt>
      <trkpt lat="42.52742" lon="2.05534">
        <ele>1951.1965832511</ele>
        <time>2001-05-23T13:11:51.184</time>
      </trkpt>
      <trkpt lat="42.52742" lon="2.05535">
        <ele>1950.7159519937</ele>
        <time>2001-05-23T13:11:52.184</time>
      </trkpt>
      <trkpt lat="42.52741" lon="2.05536">
        <ele>1950.2600626267</ele>
        <time>2001-05-23T13:11:53.184</time>
      </trkpt>
      <trkpt lat="42.52741" lon="2.05537">
        <ele>1949.685912706</ele>
        <time>2001-05-23T13:11:54.184</time>
      </trkpt>
      <trkpt lat="42.5274" lon="2.05538">
        <ele>1948.9712853361</ele>
        <time>2001-05-23T13:11:55.184</time>
      </trkpt>
      <trkpt lat="42.52739" lon="2.05539">
        <ele>1948.2339785805</ele>
        <time>2001-05-23T13:11:56.184</time>
      </trkpt>
      <trkpt lat="42.52739" lon="2.05539">
        <ele>1948.0824622618</ele>
        <time>2001-05-23T13:11:57.184</time>
      </trkpt>
      <trkpt lat="42.52738" lon="2.0554">
        <ele>1948.2394986605</ele>
        <time>2001-05-23T13:11:58.184</time>
      </trkpt>
      <trkpt lat="42.52737" lon="2.0554">
        <ele>1948.4223273778</ele>
        <time>2001-05-23T13:11:59.184</time>
      </trkpt>
      <trkpt lat="42.52737" lon="2.05541">
        <ele>1948.6375801034</ele>
        <time>2001-05-23T13:12:00.184</time>
      </trkpt>
      <trkpt lat="42.52737" lon="2.05542">
        <ele>1948.8195568975</ele>
        <time>2001-05-23T13:12:01.184</time>
      </trkpt>
      <trkpt lat="42.52736" lon="2.05542">
        <ele>1948.7305957589</ele>
        <time>2001-05-23T13:12:02.184</time>
      </trkpt>
      <trkpt lat="42.52735" lon="2.05543">
        <ele>1948.3030807653</ele>
        <time>2001-05-23T13:12:03.184</time>
      </trkpt>
      <trkpt lat="42.52734" lon="2.05544">
        <ele>1947.9374974433</ele>
        <time>2001-05-23T13:12:04.184</time>
      </trkpt>
      <trkpt lat="42.52734" lon="2.05545">
        <ele>1947.4893744512</ele>
        <time>2001-05-23T13:12:05.184</time>
      </trkpt>
      <trkpt lat="42.52733" lon="2.05545">
        <ele>1947.3517577177</ele>
        <time>2001-05-23T13:12:06.184</time>
      </trkpt>
      <trkpt lat="42.52732" lon="2.05545">
        <ele>1947.3825728066</ele>
        <time>2001-05-23T13:12:07.184</time>
      </trkpt>
      <trkpt lat="42.52732" lon="2.05546">
        <ele>1947.4664697349</ele>
        <time>2001-05-23T13:12:08.184</time>
      </trkpt>
      <trkpt lat="42.52731" lon="2.05547">
        <ele>1947.6302693799</ele>
        <time>2001-05-23T13:12:09.184</time>
      </trkpt>
      <trkpt lat="42.5273" lon="2.05547">
        <ele>1947.9140130611</ele>
        <time>2001-05-23T13:12:10.184</time>
      </trkpt>
      <trkpt lat="42.52729" lon="2.05548">
        <ele>1948.1150733503</ele>
        <time>2001-05-23T13:12:11.184</time>
      </trkpt>
      <trkpt lat="42.52728" lon="2.05549">
        <ele>1948.0754921621</ele>
        <time>2001-05-23T13:12:12.184</time>
      </trkpt>
      <trkpt lat="42.52728" lon="2.0555">
        <ele>1948.025664844</ele>
        <time>2001-05-23T13:12:13.184</time>
      </trkpt>
      <trkpt lat="42.52727" lon="2.0555">
        <ele>1947.9153728811</ele>
        <time>2001-05-23T13:12:14.184</time>
      </trkpt>
      <trkpt lat="42.52726" lon="2.05552">
        <ele>1947.930869546</ele>
        <time>2001-05-23T13:12:15.184</time>
      </trkpt>
      <trkpt lat="42.52726" lon="2.05553">
        <ele>1947.8154713932</ele>
        <time>2001-05-23T13:12:16.184</time>
      </trkpt>
      <trkpt lat="42.52725" lon="2.05554">
        <ele>1947.9026068764</ele>
        <time>2001-05-23T13:12:17.184</time>
      </trkpt>
      <trkpt lat="42.52724" lon="2.05555">
        <ele>1947.9197561247</ele>
        <time>2001-05-23T13:12:18.184</time>
      </trkpt>
      <trkpt lat="42.52724" lon="2.05556">
        <ele>1947.9077015594</ele>
        <time>2001-05-23T13:12:19.184</time>
      </trkpt>
      <trkpt lat="42.52723" lon="2.05557">
        <ele>1947.7791992934</ele>
        <time>2001-05-23T13:12:20.184</time>
      </trkpt>
      <trkpt lat="42.52723" lon="2.05558">
        <ele>1947.5838877458</ele>
        <time>2001-05-23T13:12:21.184</time>
      </trkpt>
      <trkpt lat="42.52722" lon="2.05559">
        <ele>1947.311438966</ele>
        <time>2001-05-23T13:12:22.184</time>
      </trkpt>
      <trkpt lat="42.52721" lon="2.05559">
        <ele>1947.1141196154</ele>
        <time>2001-05-23T13:12:23.184</time>
      </trkpt>
      <trkpt lat="42.52719" lon="2.0556">
        <ele>1946.9393813871</ele>
        <time>2001-05-23T13:12:24.184</time>
      </trkpt>
      <trkpt lat="42.52719" lon="2.0556">
        <ele>1947.0385687521</ele>
        <time>2001-05-23T13:12:25.184</time>
      </trkpt>
      <trkpt lat="42.52719" lon="2.0556">
        <ele>1947.1569001231</ele>
        <time>2001-05-23T13:12:26.184</time>
      </trkpt>
      <trkpt lat="42.52718" lon="2.05561">
        <ele>1947.2119473577</ele>
        <time>2001-05-23T13:12:27.184</time>
      </trkpt>
      <trkpt lat="42.52717" lon="2.05562">
        <ele>1947.3792767936</ele>
        <time>2001-05-23T13:12:28.186</time>
      </trkpt>
      <trkpt lat="42.52717" lon="2.05563">
        <ele>1947.6777720837</ele>
        <time>2001-05-23T13:12:29.186</time>
      </trkpt>
      <trkpt lat="42.52716" lon="2.05565">
        <ele>1947.7432913264</ele>
        <time>2001-05-23T13:12:30.186</time>
      </trkpt>
      <trkpt lat="42.52716" lon="2.05565">
        <ele>1947.88205547</ele>
        <time>2001-05-23T13:12:31.186</time>
      </trkpt>
      <trkpt lat="42.52714" lon="2.05566">
        <ele>1948.2396313224</ele>
        <time>2001-05-23T13:12:32.186</time>
      </trkpt>
      <trkpt lat="42.52714" lon="2.05566">
        <ele>1948.4523251411</ele>
        <time>2001-05-23T13:12:33.186</time>
      </trkpt>
      <trkpt lat="42.52713" lon="2.05567">
        <ele>1948.7469044354</ele>
        <time>2001-05-23T13:12:34.186</time>
      </trkpt>
      <trkpt lat="42.52712" lon="2.05568">
        <ele>1949.1266467212</ele>
        <time>2001-05-23T13:12:35.186</time>
      </trkpt>
      <trkpt lat="42.52712" lon="2.05569">
        <ele>1949.3617422676</ele>
        <time>2001-05-23T13:12:36.186</time>
      </trkpt>
      <trkpt lat="42.52711" lon="2.0557">
        <ele>1949.2968347898</ele>
        <time>2001-05-23T13:12:37.186</time>
      </trkpt>
      <trkpt lat="42.52711" lon="2.0557">
        <ele>1949.2373933407</ele>
        <time>2001-05-23T13:12:38.186</time>
      </trkpt>
      <trkpt lat="42.52709" lon="2.05571">
        <ele>1948.8904872993</ele>
        <time>2001-05-23T13:12:39.184</time>
      </trkpt>
      <trkpt lat="42.52708" lon="2.05572">
        <ele>1948.3000763254</ele>
        <time>2001-05-23T13:12:40.184</time>
      </trkpt>
      <trkpt lat="42.52708" lon="2.05573">
        <ele>1947.9519890754</ele>
        <time>2001-05-23T13:12:41.184</time>
      </trkpt>
      <trkpt lat="42.52708" lon="2.05574">
        <ele>1947.9067934847</ele>
        <time>2001-05-23T13:12:42.184</time>
      </trkpt>
      <trkpt lat="42.52707" lon="2.05575">
        <ele>1947.7455520023</ele>
        <time>2001-05-23T13:12:43.135</time>
      </trkpt>
      <trkpt lat="42.52707" lon="2.05576">
        <ele>1947.3712062223</ele>
        <time>2001-05-23T13:12:44.135</time>
      </trkpt>
      <trkpt lat="42.52706" lon="2.05576">
        <ele>1947.1797254549</ele>
        <time>2001-05-23T13:12:45.135</time>
      </trkpt>
      <trkpt lat="42.52705" lon="2.05577">
        <ele>1946.9994900055</ele>
        <time>2001-05-23T13:12:46.135</time>
      </trkpt>
      <trkpt lat="42.52704" lon="2.05577">
        <ele>1946.808505195</ele>
        <time>2001-05-23T13:12:47.135</time>
      </trkpt>
      <trkpt lat="42.52703" lon="2.05578">
        <ele>1946.7758096918</ele>
        <time>2001-05-23T13:12:48.135</time>
      </trkpt>
      <trkpt lat="42.52702" lon="2.05579">
        <ele>1947.0448834918</ele>
        <time>2001-05-23T13:12:49.135</time>
      </trkpt>
      <trkpt lat="42.52701" lon="2.05579">
        <ele>1947.2143611722</ele>
        <time>2001-05-23T13:12:50.135</time>
      </trkpt>
      <trkpt lat="42.52701" lon="2.0558">
        <ele>1947.2360516414</ele>
        <time>2001-05-23T13:12:51.135</time>
      </trkpt>
      <trkpt lat="42.527" lon="2.0558">
        <ele>1947.2558686111</ele>
        <time>2001-05-23T13:12:52.135</time>
      </trkpt>
      <trkpt lat="42.52699" lon="2.05581">
        <ele>1947.322846292</ele>
        <time>2001-05-23T13:12:53.135</time>
      </trkpt>
      <trkpt lat="42.52698" lon="2.05583">
        <ele>1947.484216929</ele>
        <time>2001-05-23T13:12:54.135</time>
      </trkpt>
      <trkpt lat="42.52697" lon="2.05585">
        <ele>1947.732961523</ele>
        <time>2001-05-23T13:12:55.135</time>
      </trkpt>
      <trkpt lat="42.52697" lon="2.05586">
        <ele>1947.9723304456</ele>
        <time>2001-05-23T13:12:56.135</time>
      </trkpt>
      <trkpt lat="42.52696" lon="2.05587">
        <ele>1948.1267317655</ele>
        <time>2001-05-23T13:12:57.135</time>
      </trkpt>
      <trkpt lat="42.52695" lon="2.05587">
        <ele>1948.1285305923</ele>
        <time>2001-05-23T13:12:58.135</time>
      </trkpt>
      <trkpt lat="42.52695" lon="2.05588">
        <ele>1947.853079368</ele>
        <time>2001-05-23T13:12:59.135</time>
      </trkpt>
      <trkpt lat="42.52693" lon="2.05587">
        <ele>1947.5241801016</ele>
        <time>2001-05-23T13:13:00.135</time>
      </trkpt>
      <trkpt lat="42.52693" lon="2.05588">
        <ele>1947.2825008933</ele>
        <time>2001-05-23T13:13:01.135</time>
      </trkpt>
      <trkpt lat="42.52692" lon="2.05589">
        <ele>1947.234938732</ele>
        <time>2001-05-23T13:13:02.135</time>
      </trkpt>
      <trkpt lat="42.52691" lon="2.0559">
        <ele>1947.3330267601</ele>
        <time>2001-05-23T13:13:03.135</time>
      </trkpt>
      <trkpt lat="42.5269" lon="2.05591">
        <ele>1947.6025422491</ele>
        <time>2001-05-23T13:13:04.135</time>
      </trkpt>
      <trkpt lat="42.52689" lon="2.05592">
        <ele>1947.8681288112</ele>
        <time>2001-05-23T13:13:05.135</time>
      </trkpt>
      <trkpt lat="42.52689" lon="2.05593">
        <ele>1948.0898020716</ele>
        <time>2001-05-23T13:13:06.135</time>
      </trkpt>
      <trkpt lat="42.52688" lon="2.05593">
        <ele>1948.0253097307</ele>
        <time>2001-05-23T13:13:07.135</time>
      </trkpt>
      <trkpt lat="42.52687" lon="2.05594">
        <ele>1947.8654832179</ele>
        <time>2001-05-23T13:13:08.135</time>
      </trkpt>
      <trkpt lat="42.52687" lon="2.05595">
        <ele>1947.808177935</ele>
        <time>2001-05-23T13:13:09.135</time>
      </trkpt>
      <trkpt lat="42.52686" lon="2.05595">
        <ele>1947.9658863679</ele>
        <time>2001-05-23T13:13:10.135</time>
      </trkpt>
      <trkpt lat="42.52685" lon="2.05596">
        <ele>1948.1245942499</ele>
        <time>2001-05-23T13:13:11.135</time>
      </trkpt>
      <trkpt lat="42.52685" lon="2.05597">
        <ele>1948.1736287063</ele>
        <time>2001-05-23T13:13:12.135</time>
      </trkpt>
      <trkpt lat="42.52684" lon="2.05597">
        <ele>1948.2056152817</ele>
        <time>2001-05-23T13:13:13.135</time>
      </trkpt>
      <trkpt lat="42.52683" lon="2.05598">
        <ele>1948.1433376161</ele>
        <time>2001-05-23T13:13:14.135</time>
      </trkpt>
      <trkpt lat="42.52682" lon="2.05599">
        <ele>1947.8728373438</ele>
        <time>2001-05-23T13:13:15.135</time>
      </trkpt>
      <trkpt lat="42.52681" lon="2.056">
        <ele>1947.7113877162</ele>
        <time>2001-05-23T13:13:16.135</time>
      </trkpt>
      <trkpt lat="42.5268" lon="2.056">
        <ele>1947.7611389091</ele>
        <time>2001-05-23T13:13:17.135</time>
      </trkpt>
      <trkpt lat="42.52679" lon="2.05601">
        <ele>1947.896719438</ele>
        <time>2001-05-23T13:13:18.135</time>
      </trkpt>
      <trkpt lat="42.52679" lon="2.05601">
        <ele>1947.8322448928</ele>
        <time>2001-05-23T13:13:19.135</time>
      </trkpt>
      <trkpt lat="42.52678" lon="2.05601">
        <ele>1947.920172199</ele>
        <time>2001-05-23T13:13:20.135</time>
      </trkpt>
      <trkpt lat="42.52677" lon="2.05602">
        <ele>1947.9275292484</ele>
        <time>2001-05-23T13:13:21.135</time>
      </trkpt>
      <trkpt lat="42.52675" lon="2.05603">
        <ele>1947.8458291359</ele>
        <time>2001-05-23T13:13:22.135</time>
      </trkpt>
      <trkpt lat="42.52674" lon="2.05604">
        <ele>1947.802045309</ele>
        <time>2001-05-23T13:13:23.135</time>
      </trkpt>
      <trkpt lat="42.52673" lon="2.05604">
        <ele>1947.9361868031</ele>
        <time>2001-05-23T13:13:24.135</time>
      </trkpt>
      <trkpt lat="42.52673" lon="2.05605">
        <ele>1947.8767630922</ele>
        <time>2001-05-23T13:13:25.135</time>
      </trkpt>
      <trkpt lat="42.52672" lon="2.05605">
        <ele>1947.8195238203</ele>
        <time>2001-05-23T13:13:26.135</time>
      </trkpt>
      <trkpt lat="42.52671" lon="2.05606">
        <ele>1947.8265052363</ele>
        <time>2001-05-23T13:13:27.132</time>
      </trkpt>
      <trkpt lat="42.5267" lon="2.05606">
        <ele>1947.9045334011</ele>
        <time>2001-05-23T13:13:28.132</time>
      </trkpt>
      <trkpt lat="42.52669" lon="2.05606">
        <ele>1948.0860726845</ele>
        <time>2001-05-23T13:13:29.132</time>
      </trkpt>
      <trkpt lat="42.52668" lon="2.05607">
        <ele>1948.3237889862</ele>
        <time>2001-05-23T13:13:30.132</time>
      </trkpt>
      <trkpt lat="42.52667" lon="2.05608">
        <ele>1948.6166116992</ele>
        <time>2001-05-23T13:13:31.132</time>
      </trkpt>
      <trkpt lat="42.52666" lon="2.05608">
        <ele>1949.1061907956</ele>
        <time>2001-05-23T13:13:32.132</time>
      </trkpt>
      <trkpt lat="42.52665" lon="2.05609">
        <ele>1949.2944302365</ele>
        <time>2001-05-23T13:13:33.132</time>
      </trkpt>
      <trkpt lat="42.52665" lon="2.05609">
        <ele>1949.4184760405</ele>
        <time>2001-05-23T13:13:34.132</time>
      </trkpt>
      <trkpt lat="42.52664" lon="2.05609">
        <ele>1949.5666957201</ele>
        <time>2001-05-23T13:13:35.132</time>
      </trkpt>
      <trkpt lat="42.52663" lon="2.05608">
        <ele>1949.5336329116</ele>
        <time>2001-05-23T13:13:36.132</time>
      </trkpt>
      <trkpt lat="42.52664" lon="2.05609">
        <ele>1949.411055884</ele>
        <time>2001-05-23T13:13:37.131</time>
      </trkpt>
      <trkpt lat="42.52664" lon="2.05609">
        <ele>1949.4715129647</ele>
        <time>2001-05-23T13:13:38.131</time>
      </trkpt>
      <trkpt lat="42.52663" lon="2.0561">
        <ele>1949.152134729</ele>
        <time>2001-05-23T13:13:39.133</time>
      </trkpt>
      <trkpt lat="42.52662" lon="2.0561">
        <ele>1948.7579137104</ele>
        <time>2001-05-23T13:13:40.133</time>
      </trkpt>
      <trkpt lat="42.52661" lon="2.0561">
        <ele>1948.5547654331</ele>
        <time>2001-05-23T13:13:41.133</time>
      </trkpt>
      <trkpt lat="42.5266" lon="2.05611">
        <ele>1948.3567960832</ele>
        <time>2001-05-23T13:13:42.133</time>
      </trkpt>
      <trkpt lat="42.52659" lon="2.05611">
        <ele>1948.1588365395</ele>
        <time>2001-05-23T13:13:43.133</time>
      </trkpt>
      <trkpt lat="42.52658" lon="2.05611">
        <ele>1948.366311528</ele>
        <time>2001-05-23T13:13:44.133</time>
      </trkpt>
      <trkpt lat="42.52657" lon="2.05611">
        <ele>1948.5525380978</ele>
        <time>2001-05-23T13:13:45.133</time>
      </trkpt>
      <trkpt lat="42.52656" lon="2.05612">
        <ele>1948.8390615115</ele>
        <time>2001-05-23T13:13:46.133</time>
      </trkpt>
      <trkpt lat="42.52655" lon="2.05612">
        <ele>1949.0143868735</ele>
        <time>2001-05-23T13:13:47.133</time>
      </trkpt>
      <trkpt lat="42.52654" lon="2.05612">
        <ele>1949.1026935065</ele>
        <time>2001-05-23T13:13:48.133</time>
      </trkpt>
      <trkpt lat="42.52653" lon="2.05612">
        <ele>1949.1358004643</ele>
        <time>2001-05-23T13:13:49.133</time>
      </trkpt>
      <trkpt lat="42.52653" lon="2.05612">
        <ele>1949.3446642457</ele>
        <time>2001-05-23T13:13:50.133</time>
      </trkpt>
      <trkpt lat="42.52652" lon="2.05612">
        <ele>1949.2206513954</ele>
        <time>2001-05-23T13:13:51.133</time>
      </trkpt>
      <trkpt lat="42.52651" lon="2.05612">
        <ele>1948.9257279806</ele>
        <time>2001-05-23T13:13:52.133</time>
      </trkpt>
      <trkpt lat="42.5265" lon="2.05612">
        <ele>1948.8022247776</ele>
        <time>2001-05-23T13:13:53.133</time>
      </trkpt>
      <trkpt lat="42.52649" lon="2.05612">
        <ele>1948.7431080008</ele>
        <time>2001-05-23T13:13:54.133</time>
      </trkpt>
      <trkpt lat="42.52648" lon="2.05612">
        <ele>1948.6645475481</ele>
        <time>2001-05-23T13:13:55.133</time>
      </trkpt>
      <trkpt lat="42.52647" lon="2.05612">
        <ele>1948.8714729561</ele>
        <time>2001-05-23T13:13:56.133</time>
      </trkpt>
      <trkpt lat="42.52647" lon="2.05612">
        <ele>1949.2357406117</ele>
        <time>2001-05-23T13:13:57.133</time>
      </trkpt>
      <trkpt lat="42.52645" lon="2.05612">
        <ele>1949.5417820958</ele>
        <time>2001-05-23T13:13:58.133</time>
      </trkpt>
      <trkpt lat="42.52643" lon="2.05612">
        <ele>1949.7058463339</ele>
        <time>2001-05-23T13:13:59.133</time>
      </trkpt>
      <trkpt lat="42.52642" lon="2.05612">
        <ele>1949.6838705061</ele>
        <time>2001-05-23T13:14:00.133</time>
      </trkpt>
      <trkpt lat="42.52641" lon="2.05612">
        <ele>1949.5266684473</ele>
        <time>2001-05-23T13:14:01.133</time>
      </trkpt>
      <trkpt lat="42.5264" lon="2.05611">
        <ele>1949.0476843487</ele>
        <time>2001-05-23T13:14:02.133</time>
      </trkpt>
      <trkpt lat="42.52639" lon="2.05611">
        <ele>1948.1723296853</ele>
        <time>2001-05-23T13:14:03.133</time>
      </trkpt>
      <trkpt lat="42.52639" lon="2.05612">
        <ele>1947.2094095146</ele>
        <time>2001-05-23T13:14:04.133</time>
      </trkpt>
      <trkpt lat="42.52639" lon="2.05612">
        <ele>1946.3219489463</ele>
        <time>2001-05-23T13:14:05.133</time>
      </trkpt>
      <trkpt lat="42.52637" lon="2.05612">
        <ele>1945.7606094239</ele>
        <time>2001-05-23T13:14:06.129</time>
      </trkpt>
      <trkpt lat="42.52636" lon="2.05612">
        <ele>1945.5447805319</ele>
        <time>2001-05-23T13:14:07.129</time>
      </trkpt>
      <trkpt lat="42.52635" lon="2.05612">
        <ele>1945.667966445</ele>
        <time>2001-05-23T13:14:08.129</time>
      </trkpt>
      <trkpt lat="42.52634" lon="2.05613">
        <ele>1945.9245226957</ele>
        <time>2001-05-23T13:14:09.129</time>
      </trkpt>
      <trkpt lat="42.52633" lon="2.05614">
        <ele>1946.1601976223</ele>
        <time>2001-05-23T13:14:10.129</time>
      </trkpt>
      <trkpt lat="42.52632" lon="2.05614">
        <ele>1945.9973537436</ele>
        <time>2001-05-23T13:14:11.129</time>
      </trkpt>
      <trkpt lat="42.52632" lon="2.05615">
        <ele>1945.907581027</ele>
        <time>2001-05-23T13:14:12.129</time>
      </trkpt>
      <trkpt lat="42.52631" lon="2.05615">
        <ele>1945.942680187</ele>
        <time>2001-05-23T13:14:13.129</time>
      </trkpt>
      <trkpt lat="42.5263" lon="2.05615">
        <ele>1946.000611506</ele>
        <time>2001-05-23T13:14:14.129</time>
      </trkpt>
      <trkpt lat="42.52629" lon="2.05615">
        <ele>1945.9935263999</ele>
        <time>2001-05-23T13:14:15.129</time>
      </trkpt>
      <trkpt lat="42.52628" lon="2.05615">
        <ele>1946.0825339038</ele>
        <time>2001-05-23T13:14:16.129</time>
      </trkpt>
      <trkpt lat="42.52627" lon="2.05614">
        <ele>1946.1334714286</ele>
        <time>2001-05-23T13:14:17.129</time>
      </trkpt>
      <trkpt lat="42.52626" lon="2.05614">
        <ele>1945.9704392932</ele>
        <time>2001-05-23T13:14:18.129</time>
      </trkpt>
      <trkpt lat="42.52625" lon="2.05614">
        <ele>1945.8202070907</ele>
        <time>2001-05-23T13:14:19.129</time>
      </trkpt>
      <trkpt lat="42.52623" lon="2.05615">
        <ele>1945.9812482342</ele>
        <time>2001-05-23T13:14:20.129</time>
      </trkpt>
      <trkpt lat="42.52622" lon="2.05615">
        <ele>1946.2566768609</ele>
        <time>2001-05-23T13:14:21.129</time>
      </trkpt>
      <trkpt lat="42.52621" lon="2.05615">
        <ele>1946.4145511793</ele>
        <time>2001-05-23T13:14:22.129</time>
      </trkpt>
      <trkpt lat="42.5262" lon="2.05616">
        <ele>1946.7546810228</ele>
        <time>2001-05-23T13:14:23.129</time>
      </trkpt>
      <trkpt lat="42.52619" lon="2.05616">
        <ele>1946.9086449217</ele>
        <time>2001-05-23T13:14:24.129</time>
      </trkpt>
      <trkpt lat="42.52619" lon="2.05615">
        <ele>1946.5471143477</ele>
        <time>2001-05-23T13:14:25.129</time>
      </trkpt>
      <trkpt lat="42.52618" lon="2.05615">
        <ele>1945.6976055296</ele>
        <time>2001-05-23T13:14:26.129</time>
      </trkpt>
      <trkpt lat="42.52617" lon="2.05615">
        <ele>1944.8444969757</ele>
        <time>2001-05-23T13:14:27.129</time>
      </trkpt>
      <trkpt lat="42.52616" lon="2.05615">
        <ele>1943.9091814445</ele>
        <time>2001-05-23T13:14:28.129</time>
      </trkpt>
      <trkpt lat="42.52615" lon="2.05616">
        <ele>1943.4804048784</ele>
        <time>2001-05-23T13:14:29.129</time>
      </trkpt>
      <trkpt lat="42.52614" lon="2.05616">
        <ele>1943.4588355873</ele>
        <time>2001-05-23T13:14:30.129</time>
      </trkpt>
      <trkpt lat="42.52613" lon="2.05616">
        <ele>1943.8844737651</ele>
        <time>2001-05-23T13:14:31.129</time>
      </trkpt>
      <trkpt lat="42.52612" lon="2.05616">
        <ele>1944.3068232005</ele>
        <time>2001-05-23T13:14:32.129</time>
      </trkpt>
      <trkpt lat="42.52612" lon="2.05616">
        <ele>1944.7757895462</ele>
        <time>2001-05-23T13:14:33.129</time>
      </trkpt>
      <trkpt lat="42.52611" lon="2.05616">
        <ele>1944.8708594125</ele>
        <time>2001-05-23T13:14:34.129</time>
      </trkpt>
      <trkpt lat="42.5261" lon="2.05616">
        <ele>1944.7381645905</ele>
        <time>2001-05-23T13:14:35.129</time>
      </trkpt>
      <trkpt lat="42.52609" lon="2.05617">
        <ele>1944.3045866918</ele>
        <time>2001-05-23T13:14:36.129</time>
      </trkpt>
      <trkpt lat="42.52608" lon="2.05617">
        <ele>1943.9419690672</ele>
        <time>2001-05-23T13:14:37.129</time>
      </trkpt>
      <trkpt lat="42.52607" lon="2.05618">
        <ele>1943.7695236562</ele>
        <time>2001-05-23T13:14:38.129</time>
      </trkpt>
      <trkpt lat="42.52606" lon="2.05618">
        <ele>1943.665079139</ele>
        <time>2001-05-23T13:14:39.129</time>
      </trkpt>
      <trkpt lat="42.52606" lon="2.05618">
        <ele>1943.7561542423</ele>
        <time>2001-05-23T13:14:40.129</time>
      </trkpt>
      <trkpt lat="42.52605" lon="2.05618">
        <ele>1944.0236148195</ele>
        <time>2001-05-23T13:14:41.129</time>
      </trkpt>
      <trkpt lat="42.52604" lon="2.05618">
        <ele>1944.2992904129</ele>
        <time>2001-05-23T13:14:42.129</time>
      </trkpt>
      <trkpt lat="42.52603" lon="2.05618">
        <ele>1944.3219816439</ele>
        <time>2001-05-23T13:14:43.129</time>
      </trkpt>
      <trkpt lat="42.52602" lon="2.05618">
        <ele>1944.3289000267</ele>
        <time>2001-05-23T13:14:44.129</time>
      </trkpt>
      <trkpt lat="42.52601" lon="2.05618">
        <ele>1944.3062195623</ele>
        <time>2001-05-23T13:14:45.129</time>
      </trkpt>
      <trkpt lat="42.52601" lon="2.05618">
        <ele>1944.3893287933</ele>
        <time>2001-05-23T13:14:46.129</time>
      </trkpt>
      <trkpt lat="42.52599" lon="2.05618">
        <ele>1944.7272816651</ele>
        <time>2001-05-23T13:14:47.130</time>
      </trkpt>
      <trkpt lat="42.52598" lon="2.05618">
        <ele>1945.0490467127</ele>
        <time>2001-05-23T13:14:48.130</time>
      </trkpt>
      <trkpt lat="42.52596" lon="2.05619">
        <ele>1945.5476876341</ele>
        <time>2001-05-23T13:14:49.129</time>
      </trkpt>
      <trkpt lat="42.52595" lon="2.05619">
        <ele>1946.1145025361</ele>
        <time>2001-05-23T13:14:50.129</time>
      </trkpt>
      <trkpt lat="42.52594" lon="2.05619">
        <ele>1946.7092669567</ele>
        <time>2001-05-23T13:14:51.129</time>
      </trkpt>
      <trkpt lat="42.52593" lon="2.0562">
        <ele>1946.9994679017</ele>
        <time>2001-05-23T13:14:52.129</time>
      </trkpt>
      <trkpt lat="42.52593" lon="2.05619">
        <ele>1947.2321246786</ele>
        <time>2001-05-23T13:14:53.129</time>
      </trkpt>
      <trkpt lat="42.52593" lon="2.05619">
        <ele>1946.9976064112</ele>
        <time>2001-05-23T13:14:54.129</time>
      </trkpt>
      <trkpt lat="42.52591" lon="2.05618">
        <ele>1946.1832852753</ele>
        <time>2001-05-23T13:14:55.127</time>
      </trkpt>
      <trkpt lat="42.5259" lon="2.05619">
        <ele>1945.2888646873</ele>
        <time>2001-05-23T13:14:56.127</time>
      </trkpt>
      <trkpt lat="42.52589" lon="2.05619">
        <ele>1944.4442647111</ele>
        <time>2001-05-23T13:14:57.127</time>
      </trkpt>
      <trkpt lat="42.52587" lon="2.05619">
        <ele>1943.8237169376</ele>
        <time>2001-05-23T13:14:58.127</time>
      </trkpt>
      <trkpt lat="42.52587" lon="2.0562">
        <ele>1943.5390238754</ele>
        <time>2001-05-23T13:14:59.127</time>
      </trkpt>
      <trkpt lat="42.52586" lon="2.05621">
        <ele>1943.9800837059</ele>
        <time>2001-05-23T13:15:00.127</time>
      </trkpt>
      <trkpt lat="42.52585" lon="2.05621">
        <ele>1944.4327417007</ele>
        <time>2001-05-23T13:15:01.127</time>
      </trkpt>
      <trkpt lat="42.52584" lon="2.05622">
        <ele>1945.1470169405</ele>
        <time>2001-05-23T13:15:02.127</time>
      </trkpt>
      <trkpt lat="42.52584" lon="2.05622">
        <ele>1945.8704282869</ele>
        <time>2001-05-23T13:15:03.127</time>
      </trkpt>
      <trkpt lat="42.52583" lon="2.05622">
        <ele>1946.6387351412</ele>
        <time>2001-05-23T13:15:04.127</time>
      </trkpt>
      <trkpt lat="42.52581" lon="2.05623">
        <ele>1947.3481390242</ele>
        <time>2001-05-23T13:15:05.126</time>
      </trkpt>
      <trkpt lat="42.52581" lon="2.05623">
        <ele>1947.9517935639</ele>
        <time>2001-05-23T13:15:06.126</time>
      </trkpt>
      <trkpt lat="42.52579" lon="2.05624">
        <ele>1947.775588928</ele>
        <time>2001-05-23T13:15:07.124</time>
      </trkpt>
      <trkpt lat="42.52577" lon="2.05624">
        <ele>1947.323216787</ele>
        <time>2001-05-23T13:15:08.124</time>
      </trkpt>
      <trkpt lat="42.52575" lon="2.05624">
        <ele>1946.6188982768</ele>
        <time>2001-05-23T13:15:09.124</time>
      </trkpt>
      <trkpt lat="42.52572" lon="2.05624">
        <ele>1945.5551544087</ele>
        <time>2001-05-23T13:15:10.124</time>
      </trkpt>
      <trkpt lat="42.52571" lon="2.05624">
        <ele>1944.3445757376</ele>
        <time>2001-05-23T13:15:11.124</time>
      </trkpt>
      <trkpt lat="42.5257" lon="2.05624">
        <ele>1943.6942385551</ele>
        <time>2001-05-23T13:15:12.124</time>
      </trkpt>
      <trkpt lat="42.52569" lon="2.05624">
        <ele>1943.2745298512</ele>
        <time>2001-05-23T13:15:13.124</time>
      </trkpt>
      <trkpt lat="42.52568" lon="2.05624">
        <ele>1943.1027529368</ele>
        <time>2001-05-23T13:15:14.124</time>
      </trkpt>
      <trkpt lat="42.52566" lon="2.05625">
        <ele>1943.3966085229</ele>
        <time>2001-05-23T13:15:15.124</time>
      </trkpt>
      <trkpt lat="42.52565" lon="2.05624">
        <ele>1943.9034587204</ele>
        <time>2001-05-23T13:15:16.124</time>
      </trkpt>
      <trkpt lat="42.52564" lon="2.05625">
        <ele>1944.3742519736</ele>
        <time>2001-05-23T13:15:17.124</time>
      </trkpt>
      <trkpt lat="42.52563" lon="2.05625">
        <ele>1945.0642531356</ele>
        <time>2001-05-23T13:15:18.124</time>
      </trkpt>
      <trkpt lat="42.52562" lon="2.05625">
        <ele>1945.5874446072</ele>
        <time>2001-05-23T13:15:19.124</time>
      </trkpt>
      <trkpt lat="42.52562" lon="2.05624">
        <ele>1945.4478311187</ele>
        <time>2001-05-23T13:15:20.124</time>
      </trkpt>
      <trkpt lat="42.5256" lon="2.05624">
        <ele>1945.1583758045</ele>
        <time>2001-05-23T13:15:21.124</time>
      </trkpt>
      <trkpt lat="42.5256" lon="2.05624">
        <ele>1945.0602358615</ele>
        <time>2001-05-23T13:15:22.124</time>
      </trkpt>
      <trkpt lat="42.52559" lon="2.05624">
        <ele>1944.7585119857</ele>
        <time>2001-05-23T13:15:23.124</time>
      </trkpt>
      <trkpt lat="42.52557" lon="2.05623">
        <ele>1944.639302133</ele>
        <time>2001-05-23T13:15:24.124</time>
      </trkpt>
      <trkpt lat="42.52555" lon="2.05623">
        <ele>1944.9851934124</ele>
        <time>2001-05-23T13:15:25.124</time>
      </trkpt>
      <trkpt lat="42.52554" lon="2.05622">
        <ele>1945.3356804514</ele>
        <time>2001-05-23T13:15:26.124</time>
      </trkpt>
      <trkpt lat="42.52553" lon="2.05622">
        <ele>1945.4587391036</ele>
        <time>2001-05-23T13:15:27.124</time>
      </trkpt>
      <trkpt lat="42.52553" lon="2.05622">
        <ele>1945.3604675591</ele>
        <time>2001-05-23T13:15:28.124</time>
      </trkpt>
      <trkpt lat="42.52552" lon="2.05621">
        <ele>1945.2335255975</ele>
        <time>2001-05-23T13:15:29.124</time>
      </trkpt>
      <trkpt lat="42.52551" lon="2.05622">
        <ele>1944.7812265938</ele>
        <time>2001-05-23T13:15:30.124</time>
      </trkpt>
      <trkpt lat="42.52549" lon="2.05621">
        <ele>1944.391622255</ele>
        <time>2001-05-23T13:15:31.124</time>
      </trkpt>
      <trkpt lat="42.52549" lon="2.05621">
        <ele>1943.874632116</ele>
        <time>2001-05-23T13:15:32.124</time>
      </trkpt>
      <trkpt lat="42.52549" lon="2.05621">
        <ele>1943.4858460236</ele>
        <time>2001-05-23T13:15:33.124</time>
      </trkpt>
      <trkpt lat="42.52547" lon="2.05622">
        <ele>1943.3417020358</ele>
        <time>2001-05-23T13:15:34.125</time>
      </trkpt>
      <trkpt lat="42.52546" lon="2.05622">
        <ele>1943.3830020713</ele>
        <time>2001-05-23T13:15:35.125</time>
      </trkpt>
      <trkpt lat="42.52545" lon="2.05623">
        <ele>1943.6322800849</ele>
        <time>2001-05-23T13:15:36.125</time>
      </trkpt>
      <trkpt lat="42.52543" lon="2.05624">
        <ele>1944.3246154951</ele>
        <time>2001-05-23T13:15:37.126</time>
      </trkpt>
      <trkpt lat="42.52542" lon="2.05624">
        <ele>1945.075460276</ele>
        <time>2001-05-23T13:15:38.126</time>
      </trkpt>
      <trkpt lat="42.5254" lon="2.05624">
        <ele>1945.6068111792</ele>
        <time>2001-05-23T13:15:39.126</time>
      </trkpt>
      <trkpt lat="42.52539" lon="2.05625">
        <ele>1946.1309840783</ele>
        <time>2001-05-23T13:15:40.126</time>
      </trkpt>
      <trkpt lat="42.52538" lon="2.05626">
        <ele>1946.4016666224</ele>
        <time>2001-05-23T13:15:41.126</time>
      </trkpt>
      <trkpt lat="42.52538" lon="2.05626">
        <ele>1946.3788581509</ele>
        <time>2001-05-23T13:15:42.126</time>
      </trkpt>
      <trkpt lat="42.52537" lon="2.05626">
        <ele>1946.2664300838</ele>
        <time>2001-05-23T13:15:43.126</time>
      </trkpt>
      <trkpt lat="42.52536" lon="2.05627">
        <ele>1945.9608262382</ele>
        <time>2001-05-23T13:15:44.126</time>
      </trkpt>
      <trkpt lat="42.52536" lon="2.05627">
        <ele>1945.1487948107</ele>
        <time>2001-05-23T13:15:45.126</time>
      </trkpt>
      <trkpt lat="42.52536" lon="2.05627">
        <ele>1944.4617635764</ele>
        <time>2001-05-23T13:15:46.126</time>
      </trkpt>
      <trkpt lat="42.52533" lon="2.05627">
        <ele>1943.9389532236</ele>
        <time>2001-05-23T13:15:47.126</time>
      </trkpt>
      <trkpt lat="42.52532" lon="2.05626">
        <ele>1944.0002146436</ele>
        <time>2001-05-23T13:15:48.126</time>
      </trkpt>
      <trkpt lat="42.52532" lon="2.05626">
        <ele>1944.1884528445</ele>
        <time>2001-05-23T13:15:49.126</time>
      </trkpt>
      <trkpt lat="42.52531" lon="2.05626">
        <ele>1944.7326448234</ele>
        <time>2001-05-23T13:15:50.126</time>
      </trkpt>
      <trkpt lat="42.5253" lon="2.05626">
        <ele>1945.0384170741</ele>
        <time>2001-05-23T13:15:51.126</time>
      </trkpt>
      <trkpt lat="42.52529" lon="2.05626">
        <ele>1944.7975682894</ele>
        <time>2001-05-23T13:15:52.126</time>
      </trkpt>
      <trkpt lat="42.52528" lon="2.05626">
        <ele>1943.7020490194</ele>
        <time>2001-05-23T13:15:53.126</time>
      </trkpt>
      <trkpt lat="42.52526" lon="2.05626">
        <ele>1942.9158073725</ele>
        <time>2001-05-23T13:15:54.126</time>
      </trkpt>
      <trkpt lat="42.52525" lon="2.05626">
        <ele>1942.3120217018</ele>
        <time>2001-05-23T13:15:55.126</time>
      </trkpt>
      <trkpt lat="42.52524" lon="2.05626">
        <ele>1941.8476623584</ele>
        <time>2001-05-23T13:15:56.126</time>
      </trkpt>
      <trkpt lat="42.52523" lon="2.05626">
        <ele>1941.8059601219</ele>
        <time>2001-05-23T13:15:57.126</time>
      </trkpt>
      <trkpt lat="42.52522" lon="2.05627">
        <ele>1942.1610589234</ele>
        <time>2001-05-23T13:15:58.126</time>
      </trkpt>
      <trkpt lat="42.52521" lon="2.05627">
        <ele>1942.3319059825</ele>
        <time>2001-05-23T13:15:59.126</time>
      </trkpt>
      <trkpt lat="42.5252" lon="2.05627">
        <ele>1942.7355171442</ele>
        <time>2001-05-23T13:16:00.126</time>
      </trkpt>
      <trkpt lat="42.52519" lon="2.05627">
        <ele>1943.2869752079</ele>
        <time>2001-05-23T13:16:01.126</time>
      </trkpt>
      <trkpt lat="42.52518" lon="2.05627">
        <ele>1943.7238783892</ele>
        <time>2001-05-23T13:16:02.126</time>
      </trkpt>
      <trkpt lat="42.52517" lon="2.05627">
        <ele>1944.2026289236</ele>
        <time>2001-05-23T13:16:03.126</time>
      </trkpt>
      <trkpt lat="42.52515" lon="2.05626">
        <ele>1944.4801836843</ele>
        <time>2001-05-23T13:16:04.126</time>
      </trkpt>
      <trkpt lat="42.52514" lon="2.05626">
        <ele>1944.2539888285</ele>
        <time>2001-05-23T13:16:05.126</time>
      </trkpt>
      <trkpt lat="42.52513" lon="2.05626">
        <ele>1943.6635615589</ele>
        <time>2001-05-23T13:16:06.126</time>
      </trkpt>
      <trkpt lat="42.52513" lon="2.05626">
        <ele>1943.0954878272</ele>
        <time>2001-05-23T13:16:07.126</time>
      </trkpt>
      <trkpt lat="42.52512" lon="2.05625">
        <ele>1942.4300361482</ele>
        <time>2001-05-23T13:16:08.126</time>
      </trkpt>
      <trkpt lat="42.52511" lon="2.05625">
        <ele>1941.8159635784</ele>
        <time>2001-05-23T13:16:09.126</time>
      </trkpt>
      <trkpt lat="42.5251" lon="2.05624">
        <ele>1941.4235613182</ele>
        <time>2001-05-23T13:16:10.126</time>
      </trkpt>
      <trkpt lat="42.52509" lon="2.05624">
        <ele>1941.1657792728</ele>
        <time>2001-05-23T13:16:11.140</time>
      </trkpt>
      <trkpt lat="42.52508" lon="2.05624">
        <ele>1940.8640324581</ele>
        <time>2001-05-23T13:16:12.140</time>
      </trkpt>
      <trkpt lat="42.52506" lon="2.05624">
        <ele>1940.599835214</ele>
        <time>2001-05-23T13:16:13.140</time>
      </trkpt>
      <trkpt lat="42.52505" lon="2.05624">
        <ele>1940.2929798689</ele>
        <time>2001-05-23T13:16:14.140</time>
      </trkpt>
      <trkpt lat="42.52504" lon="2.05624">
        <ele>1939.9550738793</ele>
        <time>2001-05-23T13:16:15.140</time>
      </trkpt>
      <trkpt lat="42.52503" lon="2.05623">
        <ele>1939.5672925122</ele>
        <time>2001-05-23T13:16:16.140</time>
      </trkpt>
      <trkpt lat="42.52502" lon="2.05623">
        <ele>1939.0359485323</ele>
        <time>2001-05-23T13:16:17.140</time>
      </trkpt>
      <trkpt lat="42.52502" lon="2.05623">
        <ele>1938.3995827464</ele>
        <time>2001-05-23T13:16:18.140</time>
      </trkpt>
      <trkpt lat="42.52501" lon="2.05623">
        <ele>1937.790301938</ele>
        <time>2001-05-23T13:16:19.140</time>
      </trkpt>
      <trkpt lat="42.525" lon="2.05622">
        <ele>1937.2288219178</ele>
        <time>2001-05-23T13:16:20.140</time>
      </trkpt>
      <trkpt lat="42.52499" lon="2.05622">
        <ele>1936.8190973356</ele>
        <time>2001-05-23T13:16:21.140</time>
      </trkpt>
      <trkpt lat="42.52498" lon="2.05621">
        <ele>1936.5971105969</ele>
        <time>2001-05-23T13:16:22.140</time>
      </trkpt>
      <trkpt lat="42.52498" lon="2.05621">
        <ele>1936.2991234805</ele>
        <time>2001-05-23T13:16:23.140</time>
      </trkpt>
      <trkpt lat="42.52497" lon="2.05621">
        <ele>1936.0039828032</ele>
        <time>2001-05-23T13:16:24.140</time>
      </trkpt>
      <trkpt lat="42.52496" lon="2.05621">
        <ele>1935.6408292428</ele>
        <time>2001-05-23T13:16:25.140</time>
      </trkpt>
      <trkpt lat="42.52495" lon="2.05621">
        <ele>1935.3603531536</ele>
        <time>2001-05-23T13:16:26.140</time>
      </trkpt>
      <trkpt lat="42.52494" lon="2.05621">
        <ele>1935.0105248008</ele>
        <time>2001-05-23T13:16:27.140</time>
      </trkpt>
      <trkpt lat="42.52493" lon="2.05621">
        <ele>1934.6893930715</ele>
        <time>2001-05-23T13:16:28.140</time>
      </trkpt>
      <trkpt lat="42.52493" lon="2.05621">
        <ele>1934.3981916297</ele>
        <time>2001-05-23T13:16:29.140</time>
      </trkpt>
      <trkpt lat="42.52491" lon="2.0562">
        <ele>1934.2610206921</ele>
        <time>2001-05-23T13:16:30.146</time>
      </trkpt>
      <trkpt lat="42.5249" lon="2.0562">
        <ele>1934.1116368905</ele>
        <time>2001-05-23T13:16:31.146</time>
      </trkpt>
      <trkpt lat="42.52489" lon="2.0562">
        <ele>1934.0592946598</ele>
        <time>2001-05-23T13:16:32.146</time>
      </trkpt>
      <trkpt lat="42.52489" lon="2.0562">
        <ele>1934.2426194292</ele>
        <time>2001-05-23T13:16:33.146</time>
      </trkpt>
      <trkpt lat="42.52488" lon="2.05619">
        <ele>1934.7323269168</ele>
        <time>2001-05-23T13:16:34.145</time>
      </trkpt>
      <trkpt lat="42.52486" lon="2.05619">
        <ele>1935.3809448993</ele>
        <time>2001-05-23T13:16:35.145</time>
      </trkpt>
      <trkpt lat="42.52486" lon="2.05619">
        <ele>1936.3492492383</ele>
        <time>2001-05-23T13:16:36.145</time>
      </trkpt>
      <trkpt lat="42.52485" lon="2.05619">
        <ele>1937.2453969905</ele>
        <time>2001-05-23T13:16:37.145</time>
      </trkpt>
      <trkpt lat="42.52483" lon="2.05619">
        <ele>1937.8396693872</ele>
        <time>2001-05-23T13:16:38.145</time>
      </trkpt>
      <trkpt lat="42.52482" lon="2.05619">
        <ele>1938.2620505933</ele>
        <time>2001-05-23T13:16:39.145</time>
      </trkpt>
      <trkpt lat="42.52481" lon="2.05619">
        <ele>1938.4733131062</ele>
        <time>2001-05-23T13:16:40.145</time>
      </trkpt>
      <trkpt lat="42.5248" lon="2.05619">
        <ele>1938.3467174049</ele>
        <time>2001-05-23T13:16:41.145</time>
      </trkpt>
      <trkpt lat="42.52479" lon="2.05619">
        <ele>1938.3695781263</ele>
        <time>2001-05-23T13:16:42.145</time>
      </trkpt>
      <trkpt lat="42.52478" lon="2.05619">
        <ele>1938.757514926</ele>
        <time>2001-05-23T13:16:43.145</time>
      </trkpt>
      <trkpt lat="42.52478" lon="2.05619">
        <ele>1939.1275296763</ele>
        <time>2001-05-23T13:16:44.145</time>
      </trkpt>
      <trkpt lat="42.52477" lon="2.05619">
        <ele>1939.6428693347</ele>
        <time>2001-05-23T13:16:45.145</time>
      </trkpt>
      <trkpt lat="42.52476" lon="2.05619">
        <ele>1940.242845952</ele>
        <time>2001-05-23T13:16:46.145</time>
      </trkpt>
      <trkpt lat="42.52476" lon="2.05619">
        <ele>1940.7555468136</ele>
        <time>2001-05-23T13:16:47.145</time>
      </trkpt>
      <trkpt lat="42.52474" lon="2.05619">
        <ele>1940.9314721141</ele>
        <time>2001-05-23T13:16:48.143</time>
      </trkpt>
      <trkpt lat="42.52473" lon="2.05619">
        <ele>1940.9029736908</ele>
        <time>2001-05-23T13:16:49.143</time>
      </trkpt>
      <trkpt lat="42.52471" lon="2.05619">
        <ele>1940.7861279802</ele>
        <time>2001-05-23T13:16:50.143</time>
      </trkpt>
      <trkpt lat="42.5247" lon="2.05618">
        <ele>1940.3246134574</ele>
        <time>2001-05-23T13:16:51.143</time>
      </trkpt>
      <trkpt lat="42.52469" lon="2.05618">
        <ele>1939.8537993159</ele>
        <time>2001-05-23T13:16:52.143</time>
      </trkpt>
      <trkpt lat="42.52468" lon="2.05618">
        <ele>1939.3263383657</ele>
        <time>2001-05-23T13:16:53.143</time>
      </trkpt>
      <trkpt lat="42.52468" lon="2.05618">
        <ele>1938.7836407913</ele>
        <time>2001-05-23T13:16:54.143</time>
      </trkpt>
      <trkpt lat="42.52467" lon="2.05617">
        <ele>1938.376105728</ele>
        <time>2001-05-23T13:16:55.143</time>
      </trkpt>
      <trkpt lat="42.52466" lon="2.05617">
        <ele>1938.1348397195</ele>
        <time>2001-05-23T13:16:56.143</time>
      </trkpt>
      <trkpt lat="42.52465" lon="2.05616">
        <ele>1937.2454455152</ele>
        <time>2001-05-23T13:16:57.143</time>
      </trkpt>
      <trkpt lat="42.52464" lon="2.05615">
        <ele>1936.4111020466</ele>
        <time>2001-05-23T13:16:58.143</time>
      </trkpt>
      <trkpt lat="42.52462" lon="2.05614">
        <ele>1935.6041625056</ele>
        <time>2001-05-23T13:16:59.143</time>
      </trkpt>
      <trkpt lat="42.52462" lon="2.05614">
        <ele>1934.6630262699</ele>
        <time>2001-05-23T13:17:00.143</time>
      </trkpt>
      <trkpt lat="42.52461" lon="2.05614">
        <ele>1933.3620873354</ele>
        <time>2001-05-23T13:17:01.143</time>
      </trkpt>
      <trkpt lat="42.52459" lon="2.05615">
        <ele>1932.8439770598</ele>
        <time>2001-05-23T13:17:02.143</time>
      </trkpt>
      <trkpt lat="42.52459" lon="2.05615">
        <ele>1932.57896781</ele>
        <time>2001-05-23T13:17:03.143</time>
      </trkpt>
      <trkpt lat="42.52459" lon="2.05615">
        <ele>1932.3972326834</ele>
        <time>2001-05-23T13:17:04.143</time>
      </trkpt>
      <trkpt lat="42.52457" lon="2.05614">
        <ele>1932.1565984849</ele>
        <time>2001-05-23T13:17:05.141</time>
      </trkpt>
      <trkpt lat="42.52456" lon="2.05613">
        <ele>1932.2813887713</ele>
        <time>2001-05-23T13:17:06.141</time>
      </trkpt>
      <trkpt lat="42.52454" lon="2.05613">
        <ele>1932.3984211547</ele>
        <time>2001-05-23T13:17:07.141</time>
      </trkpt>
      <trkpt lat="42.52453" lon="2.05613">
        <ele>1932.5671312517</ele>
        <time>2001-05-23T13:17:08.141</time>
      </trkpt>
      <trkpt lat="42.52453" lon="2.05613">
        <ele>1932.7358413486</ele>
        <time>2001-05-23T13:17:09.141</time>
      </trkpt>
      <trkpt lat="42.52452" lon="2.05612">
        <ele>1933.1111481693</ele>
        <time>2001-05-23T13:17:10.140</time>
      </trkpt>
      <trkpt lat="42.52451" lon="2.05613">
        <ele>1933.4327059338</ele>
        <time>2001-05-23T13:17:11.140</time>
      </trkpt>
      <trkpt lat="42.5245" lon="2.05612">
        <ele>1933.7038359202</ele>
        <time>2001-05-23T13:17:12.140</time>
      </trkpt>
      <trkpt lat="42.52449" lon="2.05612">
        <ele>1933.6912745751</ele>
        <time>2001-05-23T13:17:13.140</time>
      </trkpt>
      <trkpt lat="42.52448" lon="2.05612">
        <ele>1933.7692202659</ele>
        <time>2001-05-23T13:17:14.140</time>
      </trkpt>
      <trkpt lat="42.52447" lon="2.05612">
        <ele>1933.9296190891</ele>
        <time>2001-05-23T13:17:15.140</time>
      </trkpt>
      <trkpt lat="42.52447" lon="2.05611">
        <ele>1934.2097179806</ele>
        <time>2001-05-23T13:17:16.140</time>
      </trkpt>
      <trkpt lat="42.52447" lon="2.0561">
        <ele>1934.4993507002</ele>
        <time>2001-05-23T13:17:17.140</time>
      </trkpt>
      <trkpt lat="42.52445" lon="2.0561">
        <ele>1934.8188571572</ele>
        <time>2001-05-23T13:17:18.140</time>
      </trkpt>
      <trkpt lat="42.52443" lon="2.05609">
        <ele>1934.8638920266</ele>
        <time>2001-05-23T13:17:19.140</time>
      </trkpt>
      <trkpt lat="42.52442" lon="2.05608">
        <ele>1934.5728033816</ele>
        <time>2001-05-23T13:17:20.140</time>
      </trkpt>
      <trkpt lat="42.5244" lon="2.05608">
        <ele>1934.4260168003</ele>
        <time>2001-05-23T13:17:21.140</time>
      </trkpt>
      <trkpt lat="42.52439" lon="2.05609">
        <ele>1934.5785844138</ele>
        <time>2001-05-23T13:17:22.140</time>
      </trkpt>
      <trkpt lat="42.52439" lon="2.05608">
        <ele>1934.6994752634</ele>
        <time>2001-05-23T13:17:23.140</time>
      </trkpt>
      <trkpt lat="42.52439" lon="2.05606">
        <ele>1934.862156014</ele>
        <time>2001-05-23T13:17:24.140</time>
      </trkpt>
      <trkpt lat="42.52439" lon="2.05605">
        <ele>1934.9096091526</ele>
        <time>2001-05-23T13:17:25.140</time>
      </trkpt>
      <trkpt lat="42.52437" lon="2.05604">
        <ele>1934.9201645508</ele>
        <time>2001-05-23T13:17:26.140</time>
      </trkpt>
      <trkpt lat="42.52438" lon="2.05603">
        <ele>1933.98374121</ele>
        <time>2001-05-23T13:17:27.140</time>
      </trkpt>
      <trkpt lat="42.52437" lon="2.05602">
        <ele>1933.2530388264</ele>
        <time>2001-05-23T13:17:28.140</time>
      </trkpt>
      <trkpt lat="42.52436" lon="2.05601">
        <ele>1932.7517991088</ele>
        <time>2001-05-23T13:17:29.140</time>
      </trkpt>
      <trkpt lat="42.52435" lon="2.05601">
        <ele>1932.5355695758</ele>
        <time>2001-05-23T13:17:30.140</time>
      </trkpt>
      <trkpt lat="42.52435" lon="2.056">
        <ele>1932.1795258617</ele>
        <time>2001-05-23T13:17:31.140</time>
      </trkpt>
      <trkpt lat="42.52433" lon="2.056">
        <ele>1932.4865207227</ele>
        <time>2001-05-23T13:17:32.138</time>
      </trkpt>
      <trkpt lat="42.52432" lon="2.056">
        <ele>1932.5161488138</ele>
        <time>2001-05-23T13:17:33.138</time>
      </trkpt>
      <trkpt lat="42.52431" lon="2.05601">
        <ele>1932.417441831</ele>
        <time>2001-05-23T13:17:34.138</time>
      </trkpt>
      <trkpt lat="42.5243" lon="2.05601">
        <ele>1932.3995070526</ele>
        <time>2001-05-23T13:17:35.138</time>
      </trkpt>
      <trkpt lat="42.5243" lon="2.056">
        <ele>1932.4960271535</ele>
        <time>2001-05-23T13:17:36.138</time>
      </trkpt>
      <trkpt lat="42.52429" lon="2.056">
        <ele>1932.5663409103</ele>
        <time>2001-05-23T13:17:37.138</time>
      </trkpt>
      <trkpt lat="42.52429" lon="2.05599">
        <ele>1932.9166881928</ele>
        <time>2001-05-23T13:17:38.138</time>
      </trkpt>
      <trkpt lat="42.52427" lon="2.05598">
        <ele>1933.2833286926</ele>
        <time>2001-05-23T13:17:39.136</time>
      </trkpt>
      <trkpt lat="42.52427" lon="2.05597">
        <ele>1933.6940406542</ele>
        <time>2001-05-23T13:17:40.136</time>
      </trkpt>
      <trkpt lat="42.52426" lon="2.05597">
        <ele>1934.2825384224</ele>
        <time>2001-05-23T13:17:41.136</time>
      </trkpt>
      <trkpt lat="42.52426" lon="2.05596">
        <ele>1934.9613534842</ele>
        <time>2001-05-23T13:17:42.136</time>
      </trkpt>
      <trkpt lat="42.52425" lon="2.05595">
        <ele>1935.6334033346</ele>
        <time>2001-05-23T13:17:43.136</time>
      </trkpt>
      <trkpt lat="42.52425" lon="2.05594">
        <ele>1936.3405575555</ele>
        <time>2001-05-23T13:17:44.136</time>
      </trkpt>
      <trkpt lat="42.52423" lon="2.05593">
        <ele>1936.6222757537</ele>
        <time>2001-05-23T13:17:45.138</time>
      </trkpt>
      <trkpt lat="42.52422" lon="2.05592">
        <ele>1936.6924519742</ele>
        <time>2001-05-23T13:17:46.138</time>
      </trkpt>
      <trkpt lat="42.52421" lon="2.05592">
        <ele>1936.3691764904</ele>
        <time>2001-05-23T13:17:47.139</time>
      </trkpt>
      <trkpt lat="42.5242" lon="2.05591">
        <ele>1936.0008756591</ele>
        <time>2001-05-23T13:17:48.139</time>
      </trkpt>
      <trkpt lat="42.52419" lon="2.05589">
        <ele>1935.525263313</ele>
        <time>2001-05-23T13:17:49.138</time>
      </trkpt>
      <trkpt lat="42.52418" lon="2.05588">
        <ele>1935.2421447415</ele>
        <time>2001-05-23T13:17:50.138</time>
      </trkpt>
      <trkpt lat="42.52418" lon="2.05587">
        <ele>1934.8545546718</ele>
        <time>2001-05-23T13:17:51.138</time>
      </trkpt>
      <trkpt lat="42.52416" lon="2.05585">
        <ele>1934.8008280093</ele>
        <time>2001-05-23T13:17:52.135</time>
      </trkpt>
      <trkpt lat="42.52415" lon="2.05585">
        <ele>1934.7590120731</ele>
        <time>2001-05-23T13:17:53.135</time>
      </trkpt>
      <trkpt lat="42.52413" lon="2.05583">
        <ele>1934.6485071044</ele>
        <time>2001-05-23T13:17:54.128</time>
      </trkpt>
      <trkpt lat="42.52412" lon="2.05582">
        <ele>1934.6556309329</ele>
        <time>2001-05-23T13:17:55.128</time>
      </trkpt>
      <trkpt lat="42.52412" lon="2.05581">
        <ele>1934.8705780141</ele>
        <time>2001-05-23T13:17:56.128</time>
      </trkpt>
      <trkpt lat="42.52411" lon="2.0558">
        <ele>1934.9990831058</ele>
        <time>2001-05-23T13:17:57.128</time>
      </trkpt>
      <trkpt lat="42.52411" lon="2.05579">
        <ele>1934.9233610552</ele>
        <time>2001-05-23T13:17:58.128</time>
      </trkpt>
      <trkpt lat="42.52411" lon="2.05579">
        <ele>1934.8958689416</ele>
        <time>2001-05-23T13:17:59.128</time>
      </trkpt>
      <trkpt lat="42.5241" lon="2.05577">
        <ele>1934.631210549</ele>
        <time>2001-05-23T13:18:00.128</time>
      </trkpt>
      <trkpt lat="42.5241" lon="2.05576">
        <ele>1934.3492491251</ele>
        <time>2001-05-23T13:18:01.128</time>
      </trkpt>
      <trkpt lat="42.52409" lon="2.05574">
        <ele>1934.1320077732</ele>
        <time>2001-05-23T13:18:02.128</time>
      </trkpt>
      <trkpt lat="42.52408" lon="2.05573">
        <ele>1933.9404769773</ele>
        <time>2001-05-23T13:18:03.128</time>
      </trkpt>
      <trkpt lat="42.52407" lon="2.05572">
        <ele>1933.7281330658</ele>
        <time>2001-05-23T13:18:04.128</time>
      </trkpt>
      <trkpt lat="42.52407" lon="2.05572">
        <ele>1933.5294399343</ele>
        <time>2001-05-23T13:18:05.128</time>
      </trkpt>
      <trkpt lat="42.52406" lon="2.05571">
        <ele>1933.2343407914</ele>
        <time>2001-05-23T13:18:06.128</time>
      </trkpt>
      <trkpt lat="42.52405" lon="2.05571">
        <ele>1933.0308172526</ele>
        <time>2001-05-23T13:18:07.126</time>
      </trkpt>
      <trkpt lat="42.52403" lon="2.0557">
        <ele>1932.9016182959</ele>
        <time>2001-05-23T13:18:08.126</time>
      </trkpt>
      <trkpt lat="42.52403" lon="2.05569">
        <ele>1932.9307795262</ele>
        <time>2001-05-23T13:18:09.126</time>
      </trkpt>
      <trkpt lat="42.52402" lon="2.05569">
        <ele>1932.956364426</ele>
        <time>2001-05-23T13:18:10.129</time>
      </trkpt>
      <trkpt lat="42.52401" lon="2.05569">
        <ele>1932.847534805</ele>
        <time>2001-05-23T13:18:11.129</time>
      </trkpt>
      <trkpt lat="42.524" lon="2.05568">
        <ele>1932.6552875899</ele>
        <time>2001-05-23T13:18:12.129</time>
      </trkpt>
      <trkpt lat="42.524" lon="2.05568">
        <ele>1932.4941585116</ele>
        <time>2001-05-23T13:18:13.129</time>
      </trkpt>
      <trkpt lat="42.52398" lon="2.05568">
        <ele>1932.0767079318</ele>
        <time>2001-05-23T13:18:14.128</time>
      </trkpt>
      <trkpt lat="42.52396" lon="2.05567">
        <ele>1931.7180914164</ele>
        <time>2001-05-23T13:18:15.128</time>
      </trkpt>
      <trkpt lat="42.52395" lon="2.05567">
        <ele>1931.3599301601</ele>
        <time>2001-05-23T13:18:16.128</time>
      </trkpt>
      <trkpt lat="42.52395" lon="2.05567">
        <ele>1930.9306265106</ele>
        <time>2001-05-23T13:18:17.128</time>
      </trkpt>
      <trkpt lat="42.52394" lon="2.05567">
        <ele>1930.5250248116</ele>
        <time>2001-05-23T13:18:18.128</time>
      </trkpt>
      <trkpt lat="42.52394" lon="2.05567">
        <ele>1930.3556176238</ele>
        <time>2001-05-23T13:18:19.128</time>
      </trkpt>
      <trkpt lat="42.52393" lon="2.05564">
        <ele>1929.7814137312</ele>
        <time>2001-05-23T13:18:20.126</time>
      </trkpt>
      <trkpt lat="42.52393" lon="2.05564">
        <ele>1929.3488722892</ele>
        <time>2001-05-23T13:18:21.126</time>
      </trkpt>
      <trkpt lat="42.52393" lon="2.05564">
        <ele>1928.9560325148</ele>
        <time>2001-05-23T13:18:22.127</time>
      </trkpt>
      <trkpt lat="42.52393" lon="2.05564">
        <ele>1928.5394907899</ele>
        <time>2001-05-23T13:18:23.127</time>
      </trkpt>
      <trkpt lat="42.52392" lon="2.05563">
        <ele>1928.1726778241</ele>
        <time>2001-05-23T13:18:24.128</time>
      </trkpt>
      <trkpt lat="42.52392" lon="2.05563">
        <ele>1928.2621082505</ele>
        <time>2001-05-23T13:18:25.128</time>
      </trkpt>
      <trkpt lat="42.52391" lon="2.05564">
        <ele>1927.8887735687</ele>
        <time>2001-05-23T13:18:26.126</time>
      </trkpt>
      <trkpt lat="42.5239" lon="2.05565">
        <ele>1927.2836608756</ele>
        <time>2001-05-23T13:18:27.126</time>
      </trkpt>
      <trkpt lat="42.52388" lon="2.05566">
        <ele>1926.9310333375</ele>
        <time>2001-05-23T13:18:28.133</time>
      </trkpt>
      <trkpt lat="42.52388" lon="2.05565">
        <ele>1926.4566377159</ele>
        <time>2001-05-23T13:18:29.133</time>
      </trkpt>
      <trkpt lat="42.52387" lon="2.05565">
        <ele>1925.8452354006</ele>
        <time>2001-05-23T13:18:30.133</time>
      </trkpt>
      <trkpt lat="42.52386" lon="2.05564">
        <ele>1925.7201779127</ele>
        <time>2001-05-23T13:18:31.133</time>
      </trkpt>
      <trkpt lat="42.52384" lon="2.05563">
        <ele>1925.7421236997</ele>
        <time>2001-05-23T13:18:32.143</time>
      </trkpt>
      <trkpt lat="42.52383" lon="2.05563">
        <ele>1925.409416005</ele>
        <time>2001-05-23T13:18:33.143</time>
      </trkpt>
      <trkpt lat="42.52382" lon="2.05562">
        <ele>1925.036024821</ele>
        <time>2001-05-23T13:18:34.143</time>
      </trkpt>
      <trkpt lat="42.52381" lon="2.05561">
        <ele>1924.9528794393</ele>
        <time>2001-05-23T13:18:35.146</time>
      </trkpt>
      <trkpt lat="42.52381" lon="2.0556">
        <ele>1924.8984016083</ele>
        <time>2001-05-23T13:18:36.146</time>
      </trkpt>
      <trkpt lat="42.52379" lon="2.05559">
        <ele>1924.8753188668</ele>
        <time>2001-05-23T13:18:37.146</time>
      </trkpt>
      <trkpt lat="42.52379" lon="2.05559">
        <ele>1924.7840842966</ele>
        <time>2001-05-23T13:18:38.146</time>
      </trkpt>
      <trkpt lat="42.52379" lon="2.05558">
        <ele>1924.5177455794</ele>
        <time>2001-05-23T13:18:39.146</time>
      </trkpt>
      <trkpt lat="42.52377" lon="2.05557">
        <ele>1924.0470395481</ele>
        <time>2001-05-23T13:18:40.146</time>
      </trkpt>
      <trkpt lat="42.52377" lon="2.05557">
        <ele>1923.524086247</ele>
        <time>2001-05-23T13:18:41.146</time>
      </trkpt>
      <trkpt lat="42.52376" lon="2.05558">
        <ele>1923.1311484246</ele>
        <time>2001-05-23T13:18:42.150</time>
      </trkpt>
      <trkpt lat="42.52376" lon="2.05557">
        <ele>1922.9071824405</ele>
        <time>2001-05-23T13:18:43.150</time>
      </trkpt>
      <trkpt lat="42.52374" lon="2.05556">
        <ele>1922.3507575167</ele>
        <time>2001-05-23T13:18:44.151</time>
      </trkpt>
      <trkpt lat="42.52373" lon="2.05555">
        <ele>1922.0098199122</ele>
        <time>2001-05-23T13:18:45.151</time>
      </trkpt>
      <trkpt lat="42.52371" lon="2.05555">
        <ele>1921.8861184727</ele>
        <time>2001-05-23T13:18:46.151</time>
      </trkpt>
      <trkpt lat="42.5237" lon="2.05555">
        <ele>1921.616404685</ele>
        <time>2001-05-23T13:18:47.151</time>
      </trkpt>
      <trkpt lat="42.5237" lon="2.05555">
        <ele>1921.3480392143</ele>
        <time>2001-05-23T13:18:48.151</time>
      </trkpt>
      <trkpt lat="42.5237" lon="2.05555">
        <ele>1921.6999596441</ele>
        <time>2001-05-23T13:18:49.151</time>
      </trkpt>
      <trkpt lat="42.52369" lon="2.05555">
        <ele>1922.070772152</ele>
        <time>2001-05-23T13:18:50.150</time>
      </trkpt>
      <trkpt lat="42.52369" lon="2.05555">
        <ele>1922.2243484948</ele>
        <time>2001-05-23T13:18:51.150</time>
      </trkpt>
      <trkpt lat="42.52367" lon="2.05555">
        <ele>1922.1989108145</ele>
        <time>2001-05-23T13:18:52.150</time>
      </trkpt>
      <trkpt lat="42.52366" lon="2.05555">
        <ele>1922.2000247931</ele>
        <time>2001-05-23T13:18:53.150</time>
      </trkpt>
      <trkpt lat="42.52364" lon="2.05554">
        <ele>1922.0516185151</ele>
        <time>2001-05-23T13:18:54.150</time>
      </trkpt>
      <trkpt lat="42.52362" lon="2.05554">
        <ele>1921.6815148521</ele>
        <time>2001-05-23T13:18:55.150</time>
      </trkpt>
      <trkpt lat="42.52361" lon="2.05555">
        <ele>1921.2580403559</ele>
        <time>2001-05-23T13:18:56.150</time>
      </trkpt>
      <trkpt lat="42.5236" lon="2.05555">
        <ele>1921.0228693824</ele>
        <time>2001-05-23T13:18:57.150</time>
      </trkpt>
      <trkpt lat="42.52359" lon="2.05556">
        <ele>1920.7048046287</ele>
        <time>2001-05-23T13:18:58.150</time>
      </trkpt>
      <trkpt lat="42.52358" lon="2.05556">
        <ele>1920.7997855838</ele>
        <time>2001-05-23T13:18:59.150</time>
      </trkpt>
      <trkpt lat="42.52358" lon="2.05556">
        <ele>1920.9332127322</ele>
        <time>2001-05-23T13:19:00.150</time>
      </trkpt>
      <trkpt lat="42.52357" lon="2.05556">
        <ele>1921.4657837041</ele>
        <time>2001-05-23T13:19:01.147</time>
      </trkpt>
      <trkpt lat="42.52356" lon="2.05557">
        <ele>1921.9641163858</ele>
        <time>2001-05-23T13:19:02.147</time>
      </trkpt>
      <trkpt lat="42.52355" lon="2.05556">
        <ele>1922.3366333419</ele>
        <time>2001-05-23T13:19:03.147</time>
      </trkpt>
      <trkpt lat="42.52354" lon="2.05557">
        <ele>1922.3763755454</ele>
        <time>2001-05-23T13:19:04.147</time>
      </trkpt>
      <trkpt lat="42.52353" lon="2.05557">
        <ele>1922.1831617123</ele>
        <time>2001-05-23T13:19:05.147</time>
      </trkpt>
      <trkpt lat="42.52352" lon="2.05557">
        <ele>1921.3292740032</ele>
        <time>2001-05-23T13:19:06.147</time>
      </trkpt>
      <trkpt lat="42.5235" lon="2.05556">
        <ele>1920.507324071</ele>
        <time>2001-05-23T13:19:07.147</time>
      </trkpt>
      <trkpt lat="42.5235" lon="2.05556">
        <ele>1919.8675319858</ele>
        <time>2001-05-23T13:19:08.147</time>
      </trkpt>
      <trkpt lat="42.5235" lon="2.05555">
        <ele>1919.1091252806</ele>
        <time>2001-05-23T13:19:09.147</time>
      </trkpt>
      <trkpt lat="42.52348" lon="2.05555">
        <ele>1918.7503504235</ele>
        <time>2001-05-23T13:19:10.147</time>
      </trkpt>
      <trkpt lat="42.52346" lon="2.05555">
        <ele>1919.008482937</ele>
        <time>2001-05-23T13:19:11.147</time>
      </trkpt>
      <trkpt lat="42.52344" lon="2.05556">
        <ele>1919.7319786765</ele>
        <time>2001-05-23T13:19:12.147</time>
      </trkpt>
      <trkpt lat="42.52343" lon="2.05557">
        <ele>1920.7195949759</ele>
        <time>2001-05-23T13:19:13.147</time>
      </trkpt>
      <trkpt lat="42.52342" lon="2.05559">
        <ele>1922.0776200654</ele>
        <time>2001-05-23T13:19:14.147</time>
      </trkpt>
      <trkpt lat="42.52342" lon="2.05559">
        <ele>1923.2689693432</ele>
        <time>2001-05-23T13:19:15.147</time>
      </trkpt>
      <trkpt lat="42.52341" lon="2.05559">
        <ele>1924.3631010199</ele>
        <time>2001-05-23T13:19:16.147</time>
      </trkpt>
      <trkpt lat="42.52339" lon="2.05558">
        <ele>1925.0596678466</ele>
        <time>2001-05-23T13:19:17.147</time>
      </trkpt>
      <trkpt lat="42.52338" lon="2.05558">
        <ele>1925.0396580502</ele>
        <time>2001-05-23T13:19:18.147</time>
      </trkpt>
      <trkpt lat="42.52338" lon="2.05558">
        <ele>1924.4443673739</ele>
        <time>2001-05-23T13:19:19.147</time>
      </trkpt>
      <trkpt lat="42.52338" lon="2.05558">
        <ele>1923.3437445711</ele>
        <time>2001-05-23T13:19:20.147</time>
      </trkpt>
      <trkpt lat="42.52337" lon="2.05558">
        <ele>1922.0146233525</ele>
        <time>2001-05-23T13:19:21.147</time>
      </trkpt>
      <trkpt lat="42.52336" lon="2.05557">
        <ele>1920.8107147202</ele>
        <time>2001-05-23T13:19:22.147</time>
      </trkpt>
      <trkpt lat="42.52334" lon="2.05557">
        <ele>1920.1255645186</ele>
        <time>2001-05-23T13:19:23.147</time>
      </trkpt>
      <trkpt lat="42.52334" lon="2.05557">
        <ele>1919.8331503274</ele>
        <time>2001-05-23T13:19:24.147</time>
      </trkpt>
      <trkpt lat="42.52334" lon="2.05556">
        <ele>1919.9782318102</ele>
        <time>2001-05-23T13:19:25.148</time>
      </trkpt>
      <trkpt lat="42.52333" lon="2.05557">
        <ele>1920.1338964434</ele>
        <time>2001-05-23T13:19:26.148</time>
      </trkpt>
      <trkpt lat="42.52332" lon="2.05556">
        <ele>1919.6195801141</ele>
        <time>2001-05-23T13:19:27.147</time>
      </trkpt>
      <trkpt lat="42.52332" lon="2.05555">
        <ele>1918.8637448439</ele>
        <time>2001-05-23T13:19:28.147</time>
      </trkpt>
      <trkpt lat="42.52331" lon="2.05554">
        <ele>1917.9750882348</ele>
        <time>2001-05-23T13:19:29.147</time>
      </trkpt>
      <trkpt lat="42.5233" lon="2.05553">
        <ele>1917.0691527287</ele>
        <time>2001-05-23T13:19:30.147</time>
      </trkpt>
      <trkpt lat="42.52329" lon="2.05553">
        <ele>1916.3569774168</ele>
        <time>2001-05-23T13:19:31.147</time>
      </trkpt>
      <trkpt lat="42.52328" lon="2.05553">
        <ele>1916.1994291453</ele>
        <time>2001-05-23T13:19:32.147</time>
      </trkpt>
      <trkpt lat="42.52328" lon="2.05553">
        <ele>1916.2170974469</ele>
        <time>2001-05-23T13:19:33.147</time>
      </trkpt>
      <trkpt lat="42.52326" lon="2.05554">
        <ele>1916.2839479072</ele>
        <time>2001-05-23T13:19:34.147</time>
      </trkpt>
      <trkpt lat="42.52325" lon="2.05554">
        <ele>1916.4642268246</ele>
        <time>2001-05-23T13:19:35.147</time>
      </trkpt>
      <trkpt lat="42.52325" lon="2.05554">
        <ele>1916.4638719294</ele>
        <time>2001-05-23T13:19:36.147</time>
      </trkpt>
      <trkpt lat="42.52324" lon="2.05552">
        <ele>1915.583332937</ele>
        <time>2001-05-23T13:19:37.148</time>
      </trkpt>
      <trkpt lat="42.52323" lon="2.05552">
        <ele>1915.0203072086</ele>
        <time>2001-05-23T13:19:38.148</time>
      </trkpt>
      <trkpt lat="42.52322" lon="2.05552">
        <ele>1914.8760971019</ele>
        <time>2001-05-23T13:19:39.148</time>
      </trkpt>
      <trkpt lat="42.52321" lon="2.05552">
        <ele>1914.8770638909</ele>
        <time>2001-05-23T13:19:40.148</time>
      </trkpt>
      <trkpt lat="42.52319" lon="2.05552">
        <ele>1914.8749592114</ele>
        <time>2001-05-23T13:19:41.148</time>
      </trkpt>
      <trkpt lat="42.52318" lon="2.05552">
        <ele>1915.6290190384</ele>
        <time>2001-05-23T13:19:42.148</time>
      </trkpt>
      <trkpt lat="42.52318" lon="2.05552">
        <ele>1916.0655656014</ele>
        <time>2001-05-23T13:19:43.148</time>
      </trkpt>
      <trkpt lat="42.52318" lon="2.05551">
        <ele>1916.0032692077</ele>
        <time>2001-05-23T13:19:44.148</time>
      </trkpt>
      <trkpt lat="42.52317" lon="2.05551">
        <ele>1915.7176590677</ele>
        <time>2001-05-23T13:19:45.151</time>
      </trkpt>
      <trkpt lat="42.52316" lon="2.05551">
        <ele>1915.3286812963</ele>
        <time>2001-05-23T13:19:46.151</time>
      </trkpt>
      <trkpt lat="42.52315" lon="2.05551">
        <ele>1914.5262408746</ele>
        <time>2001-05-23T13:19:47.151</time>
      </trkpt>
      <trkpt lat="42.52314" lon="2.05551">
        <ele>1914.2265990734</ele>
        <time>2001-05-23T13:19:48.155</time>
      </trkpt>
      <trkpt lat="42.52314" lon="2.05551">
        <ele>1914.0906237874</ele>
        <time>2001-05-23T13:19:49.155</time>
      </trkpt>
      <trkpt lat="42.52312" lon="2.0555">
        <ele>1913.9772028171</ele>
        <time>2001-05-23T13:19:50.153</time>
      </trkpt>
      <trkpt lat="42.52311" lon="2.0555">
        <ele>1913.9687233515</ele>
        <time>2001-05-23T13:19:51.153</time>
      </trkpt>
      <trkpt lat="42.5231" lon="2.0555">
        <ele>1914.3841544835</ele>
        <time>2001-05-23T13:19:52.153</time>
      </trkpt>
      <trkpt lat="42.52308" lon="2.05549">
        <ele>1914.162293968</ele>
        <time>2001-05-23T13:19:53.153</time>
      </trkpt>
      <trkpt lat="42.52307" lon="2.0555">
        <ele>1914.0298546229</ele>
        <time>2001-05-23T13:19:54.153</time>
      </trkpt>
      <trkpt lat="42.52306" lon="2.0555">
        <ele>1914.0203898905</ele>
        <time>2001-05-23T13:19:55.153</time>
      </trkpt>
      <trkpt lat="42.52305" lon="2.0555">
        <ele>1914.0568905558</ele>
        <time>2001-05-23T13:19:56.153</time>
      </trkpt>
      <trkpt lat="42.52305" lon="2.0555">
        <ele>1914.1519916872</ele>
        <time>2001-05-23T13:19:57.153</time>
      </trkpt>
      <trkpt lat="42.52304" lon="2.05549">
        <ele>1913.9410623219</ele>
        <time>2001-05-23T13:19:58.153</time>
      </trkpt>
      <trkpt lat="42.52303" lon="2.05548">
        <ele>1913.5441334972</ele>
        <time>2001-05-23T13:19:59.153</time>
      </trkpt>
      <trkpt lat="42.52303" lon="2.05547">
        <ele>1913.1370529797</ele>
        <time>2001-05-23T13:20:00.153</time>
      </trkpt>
      <trkpt lat="42.52301" lon="2.05546">
        <ele>1912.9377628274</ele>
        <time>2001-05-23T13:20:01.153</time>
      </trkpt>
      <trkpt lat="42.523" lon="2.05546">
        <ele>1913.1031541767</ele>
        <time>2001-05-23T13:20:02.153</time>
      </trkpt>
      <trkpt lat="42.52299" lon="2.05547">
        <ele>1913.8280555202</ele>
        <time>2001-05-23T13:20:03.153</time>
      </trkpt>
      <trkpt lat="42.52299" lon="2.05548">
        <ele>1914.8846698839</ele>
        <time>2001-05-23T13:20:04.153</time>
      </trkpt>
      <trkpt lat="42.52299" lon="2.05548">
        <ele>1915.8557307551</ele>
        <time>2001-05-23T13:20:05.153</time>
      </trkpt>
      <trkpt lat="42.52297" lon="2.0555">
        <ele>1916.4153425742</ele>
        <time>2001-05-23T13:20:06.152</time>
      </trkpt>
      <trkpt lat="42.52296" lon="2.0555">
        <ele>1916.7675502537</ele>
        <time>2001-05-23T13:20:07.152</time>
      </trkpt>
      <trkpt lat="42.52295" lon="2.05549">
        <ele>1917.2275909297</ele>
        <time>2001-05-23T13:20:08.152</time>
      </trkpt>
      <trkpt lat="42.52294" lon="2.0555">
        <ele>1917.8796958363</ele>
        <time>2001-05-23T13:20:09.152</time>
      </trkpt>
      <trkpt lat="42.52294" lon="2.0555">
        <ele>1918.5318007428</ele>
        <time>2001-05-23T13:20:10.152</time>
      </trkpt>
      <trkpt lat="42.52293" lon="2.05549">
        <ele>1919.0767308986</ele>
        <time>2001-05-23T13:20:11.149</time>
      </trkpt>
      <trkpt lat="42.52292" lon="2.0555">
        <ele>1919.4357030336</ele>
        <time>2001-05-23T13:20:12.149</time>
      </trkpt>
      <trkpt lat="42.52291" lon="2.05551">
        <ele>1919.6626568101</ele>
        <time>2001-05-23T13:20:13.149</time>
      </trkpt>
      <trkpt lat="42.52289" lon="2.0555">
        <ele>1919.640521536</ele>
        <time>2001-05-23T13:20:14.149</time>
      </trkpt>
      <trkpt lat="42.52287" lon="2.05547">
        <ele>1919.7478768762</ele>
        <time>2001-05-23T13:20:15.149</time>
      </trkpt>
      <trkpt lat="42.52285" lon="2.05546">
        <ele>1920.1242635595</ele>
        <time>2001-05-23T13:20:16.149</time>
      </trkpt>
      <trkpt lat="42.52284" lon="2.05545">
        <ele>1920.4009772956</ele>
        <time>2001-05-23T13:20:17.149</time>
      </trkpt>
      <trkpt lat="42.52284" lon="2.05545">
        <ele>1920.5828899231</ele>
        <time>2001-05-23T13:20:18.149</time>
      </trkpt>
      <trkpt lat="42.52283" lon="2.05547">
        <ele>1920.8977593014</ele>
        <time>2001-05-23T13:20:19.149</time>
      </trkpt>
      <trkpt lat="42.52283" lon="2.05547">
        <ele>1921.0831380654</ele>
        <time>2001-05-23T13:20:20.149</time>
      </trkpt>
      <trkpt lat="42.52282" lon="2.05548">
        <ele>1921.2291653855</ele>
        <time>2001-05-23T13:20:21.149</time>
      </trkpt>
      <trkpt lat="42.52281" lon="2.05549">
        <ele>1921.6032775538</ele>
        <time>2001-05-23T13:20:22.148</time>
      </trkpt>
      <trkpt lat="42.52281" lon="2.05549">
        <ele>1921.9773897221</ele>
        <time>2001-05-23T13:20:23.148</time>
      </trkpt>
      <trkpt lat="42.52279" lon="2.05549">
        <ele>1921.9380531285</ele>
        <time>2001-05-23T13:20:24.149</time>
      </trkpt>
      <trkpt lat="42.52278" lon="2.0555">
        <ele>1922.073747736</ele>
        <time>2001-05-23T13:20:25.149</time>
      </trkpt>
      <trkpt lat="42.52277" lon="2.05549">
        <ele>1922.1539317472</ele>
        <time>2001-05-23T13:20:26.149</time>
      </trkpt>
      <trkpt lat="42.52277" lon="2.05549">
        <ele>1921.9345049448</ele>
        <time>2001-05-23T13:20:27.149</time>
      </trkpt>
      <trkpt lat="42.52275" lon="2.05549">
        <ele>1922.169544296</ele>
        <time>2001-05-23T13:20:28.149</time>
      </trkpt>
      <trkpt lat="42.52273" lon="2.05549">
        <ele>1922.1995712208</ele>
        <time>2001-05-23T13:20:29.149</time>
      </trkpt>
      <trkpt lat="42.52271" lon="2.0555">
        <ele>1921.8702609833</ele>
        <time>2001-05-23T13:20:30.149</time>
      </trkpt>
      <trkpt lat="42.5227" lon="2.0555">
        <ele>1921.4323508551</ele>
        <time>2001-05-23T13:20:31.149</time>
      </trkpt>
      <trkpt lat="42.52271" lon="2.0555">
        <ele>1921.3105122687</ele>
        <time>2001-05-23T13:20:32.149</time>
      </trkpt>
      <trkpt lat="42.52271" lon="2.05552">
        <ele>1920.7917577932</ele>
        <time>2001-05-23T13:20:33.149</time>
      </trkpt>
      <trkpt lat="42.52271" lon="2.05552">
        <ele>1920.5803978439</ele>
        <time>2001-05-23T13:20:34.149</time>
      </trkpt>
      <trkpt lat="42.52269" lon="2.05553">
        <ele>1920.7450023739</ele>
        <time>2001-05-23T13:20:35.149</time>
      </trkpt>
      <trkpt lat="42.52267" lon="2.05553">
        <ele>1921.5328760613</ele>
        <time>2001-05-23T13:20:36.149</time>
      </trkpt>
      <trkpt lat="42.52266" lon="2.05553">
        <ele>1922.2232314283</ele>
        <time>2001-05-23T13:20:37.149</time>
      </trkpt>
      <trkpt lat="42.52266" lon="2.05553">
        <ele>1922.856036531</ele>
        <time>2001-05-23T13:20:38.149</time>
      </trkpt>
      <trkpt lat="42.52266" lon="2.05553">
        <ele>1923.4888416337</ele>
        <time>2001-05-23T13:20:39.149</time>
      </trkpt>
      <trkpt lat="42.52266" lon="2.05553">
        <ele>1923.9299882183</ele>
        <time>2001-05-23T13:20:40.149</time>
      </trkpt>
      <trkpt lat="42.52264" lon="2.05553">
        <ele>1922.9524536969</ele>
        <time>2001-05-23T13:20:41.148</time>
      </trkpt>
      <trkpt lat="42.52263" lon="2.05553">
        <ele>1921.8647009049</ele>
        <time>2001-05-23T13:20:42.148</time>
      </trkpt>
      <trkpt lat="42.52261" lon="2.05554">
        <ele>1921.004169878</ele>
        <time>2001-05-23T13:20:43.148</time>
      </trkpt>
      <trkpt lat="42.5226" lon="2.05554">
        <ele>1920.1975620992</ele>
        <time>2001-05-23T13:20:44.148</time>
      </trkpt>
      <trkpt lat="42.5226" lon="2.05554">
        <ele>1919.3909543205</ele>
        <time>2001-05-23T13:20:45.148</time>
      </trkpt>
      <trkpt lat="42.52259" lon="2.05554">
        <ele>1919.2457554251</ele>
        <time>2001-05-23T13:20:46.148</time>
      </trkpt>
      <trkpt lat="42.52259" lon="2.05552">
        <ele>1918.735490272</ele>
        <time>2001-05-23T13:20:47.148</time>
      </trkpt>
      <trkpt lat="42.52258" lon="2.05552">
        <ele>1918.1146611128</ele>
        <time>2001-05-23T13:20:48.147</time>
      </trkpt>
      <trkpt lat="42.52256" lon="2.05552">
        <ele>1917.6425717548</ele>
        <time>2001-05-23T13:20:49.147</time>
      </trkpt>
      <trkpt lat="42.52255" lon="2.05552">
        <ele>1917.7137140859</ele>
        <time>2001-05-23T13:20:50.147</time>
      </trkpt>
      <trkpt lat="42.52254" lon="2.05552">
        <ele>1918.3151906084</ele>
        <time>2001-05-23T13:20:51.147</time>
      </trkpt>
      <trkpt lat="42.52252" lon="2.05554">
        <ele>1919.673207856</ele>
        <time>2001-05-23T13:20:52.147</time>
      </trkpt>
      <trkpt lat="42.52252" lon="2.05554">
        <ele>1920.8050525136</ele>
        <time>2001-05-23T13:20:53.147</time>
      </trkpt>
      <trkpt lat="42.52252" lon="2.05554">
        <ele>1921.734234122</ele>
        <time>2001-05-23T13:20:54.147</time>
      </trkpt>
      <trkpt lat="42.5225" lon="2.05553">
        <ele>1921.8677407365</ele>
        <time>2001-05-23T13:20:55.148</time>
      </trkpt>
      <trkpt lat="42.52249" lon="2.05553">
        <ele>1921.8517067997</ele>
        <time>2001-05-23T13:20:56.148</time>
      </trkpt>
      <trkpt lat="42.52248" lon="2.05553">
        <ele>1921.5917795584</ele>
        <time>2001-05-23T13:20:57.148</time>
      </trkpt>
      <trkpt lat="42.52247" lon="2.05552">
        <ele>1921.5308347207</ele>
        <time>2001-05-23T13:20:58.148</time>
      </trkpt>
      <trkpt lat="42.52246" lon="2.05551">
        <ele>1921.4794031717</ele>
        <time>2001-05-23T13:20:59.148</time>
      </trkpt>
      <trkpt lat="42.52246" lon="2.05551">
        <ele>1921.3844236288</ele>
        <time>2001-05-23T13:21:00.148</time>
      </trkpt>
      <trkpt lat="42.52244" lon="2.05551">
        <ele>1921.3991882838</ele>
        <time>2001-05-23T13:21:01.148</time>
      </trkpt>
      <trkpt lat="42.52244" lon="2.05551">
        <ele>1921.3579163965</ele>
        <time>2001-05-23T13:21:02.148</time>
      </trkpt>
      <trkpt lat="42.52243" lon="2.05551">
        <ele>1921.3457370961</ele>
        <time>2001-05-23T13:21:03.146</time>
      </trkpt>
      <trkpt lat="42.52241" lon="2.05552">
        <ele>1921.4973126408</ele>
        <time>2001-05-23T13:21:04.146</time>
      </trkpt>
      <trkpt lat="42.5224" lon="2.05552">
        <ele>1921.9562016619</ele>
        <time>2001-05-23T13:21:05.146</time>
      </trkpt>
      <trkpt lat="42.52239" lon="2.05551">
        <ele>1922.1480801841</ele>
        <time>2001-05-23T13:21:06.146</time>
      </trkpt>
      <trkpt lat="42.52238" lon="2.05551">
        <ele>1921.9544059956</ele>
        <time>2001-05-23T13:21:07.146</time>
      </trkpt>
      <trkpt lat="42.52236" lon="2.0555">
        <ele>1921.1906656766</ele>
        <time>2001-05-23T13:21:08.146</time>
      </trkpt>
      <trkpt lat="42.52235" lon="2.05549">
        <ele>1920.1817791805</ele>
        <time>2001-05-23T13:21:09.146</time>
      </trkpt>
      <trkpt lat="42.52234" lon="2.05548">
        <ele>1919.1882548766</ele>
        <time>2001-05-23T13:21:10.146</time>
      </trkpt>
      <trkpt lat="42.52233" lon="2.05548">
        <ele>1918.3402078725</ele>
        <time>2001-05-23T13:21:11.146</time>
      </trkpt>
      <trkpt lat="42.52232" lon="2.05547">
        <ele>1917.7137165906</ele>
        <time>2001-05-23T13:21:12.146</time>
      </trkpt>
      <trkpt lat="42.52232" lon="2.05546">
        <ele>1917.7601064002</ele>
        <time>2001-05-23T13:21:13.146</time>
      </trkpt>
      <trkpt lat="42.52232" lon="2.05546">
        <ele>1917.9461501576</ele>
        <time>2001-05-23T13:21:14.146</time>
      </trkpt>
      <trkpt lat="42.52231" lon="2.05546">
        <ele>1918.2038362663</ele>
        <time>2001-05-23T13:21:15.146</time>
      </trkpt>
      <trkpt lat="42.5223" lon="2.05546">
        <ele>1918.1419012507</ele>
        <time>2001-05-23T13:21:16.145</time>
      </trkpt>
      <trkpt lat="42.52229" lon="2.05546">
        <ele>1918.7755149594</ele>
        <time>2001-05-23T13:21:17.145</time>
      </trkpt>
      <trkpt lat="42.52228" lon="2.05547">
        <ele>1919.2444423664</ele>
        <time>2001-05-23T13:21:18.145</time>
      </trkpt>
      <trkpt lat="42.52228" lon="2.05546">
        <ele>1919.3550846996</ele>
        <time>2001-05-23T13:21:19.145</time>
      </trkpt>
      <trkpt lat="42.52227" lon="2.05546">
        <ele>1918.7913125442</ele>
        <time>2001-05-23T13:21:20.144</time>
      </trkpt>
      <trkpt lat="42.52226" lon="2.05546">
        <ele>1918.4988834631</ele>
        <time>2001-05-23T13:21:21.144</time>
      </trkpt>
      <trkpt lat="42.52224" lon="2.05547">
        <ele>1918.0060795883</ele>
        <time>2001-05-23T13:21:22.144</time>
      </trkpt>
      <trkpt lat="42.52223" lon="2.05548">
        <ele>1917.6735015368</ele>
        <time>2001-05-23T13:21:23.144</time>
      </trkpt>
      <trkpt lat="42.52223" lon="2.05547">
        <ele>1917.7671854317</ele>
        <time>2001-05-23T13:21:24.144</time>
      </trkpt>
      <trkpt lat="42.52222" lon="2.05546">
        <ele>1918.4318430649</ele>
        <time>2001-05-23T13:21:25.144</time>
      </trkpt>
      <trkpt lat="42.52221" lon="2.05547">
        <ele>1918.9404726492</ele>
        <time>2001-05-23T13:21:26.144</time>
      </trkpt>
      <trkpt lat="42.5222" lon="2.05547">
        <ele>1918.7314408761</ele>
        <time>2001-05-23T13:21:27.144</time>
      </trkpt>
      <trkpt lat="42.52219" lon="2.05546">
        <ele>1918.6601213697</ele>
        <time>2001-05-23T13:21:28.142</time>
      </trkpt>
      <trkpt lat="42.52218" lon="2.05546">
        <ele>1918.1930914739</ele>
        <time>2001-05-23T13:21:29.142</time>
      </trkpt>
      <trkpt lat="42.52216" lon="2.05546">
        <ele>1918.0000256663</ele>
        <time>2001-05-23T13:21:30.142</time>
      </trkpt>
      <trkpt lat="42.52215" lon="2.05546">
        <ele>1917.9105200799</ele>
        <time>2001-05-23T13:21:31.142</time>
      </trkpt>
      <trkpt lat="42.52215" lon="2.05547">
        <ele>1918.2960537907</ele>
        <time>2001-05-23T13:21:32.142</time>
      </trkpt>
      <trkpt lat="42.52215" lon="2.05547">
        <ele>1918.326960592</ele>
        <time>2001-05-23T13:21:33.142</time>
      </trkpt>
      <trkpt lat="42.52214" lon="2.05546">
        <ele>1918.6059059907</ele>
        <time>2001-05-23T13:21:34.142</time>
      </trkpt>
      <trkpt lat="42.52213" lon="2.05547">
        <ele>1918.4092008892</ele>
        <time>2001-05-23T13:21:35.142</time>
      </trkpt>
      <trkpt lat="42.52212" lon="2.05547">
        <ele>1918.1172924455</ele>
        <time>2001-05-23T13:21:36.142</time>
      </trkpt>
      <trkpt lat="42.52211" lon="2.05548">
        <ele>1917.9298277387</ele>
        <time>2001-05-23T13:21:37.142</time>
      </trkpt>
      <trkpt lat="42.52209" lon="2.05547">
        <ele>1918.0823429514</ele>
        <time>2001-05-23T13:21:38.142</time>
      </trkpt>
      <trkpt lat="42.52208" lon="2.05547">
        <ele>1918.3141996648</ele>
        <time>2001-05-23T13:21:39.142</time>
      </trkpt>
      <trkpt lat="42.52206" lon="2.05547">
        <ele>1918.9000982447</ele>
        <time>2001-05-23T13:21:40.142</time>
      </trkpt>
      <trkpt lat="42.52206" lon="2.05547">
        <ele>1919.6477406941</ele>
        <time>2001-05-23T13:21:41.142</time>
      </trkpt>
      <trkpt lat="42.52206" lon="2.05547">
        <ele>1920.202384525</ele>
        <time>2001-05-23T13:21:42.142</time>
      </trkpt>
      <trkpt lat="42.52205" lon="2.05547">
        <ele>1920.6210259715</ele>
        <time>2001-05-23T13:21:43.143</time>
      </trkpt>
      <trkpt lat="42.52203" lon="2.05547">
        <ele>1921.0681835983</ele>
        <time>2001-05-23T13:21:44.143</time>
      </trkpt>
      <trkpt lat="42.52202" lon="2.05547">
        <ele>1921.2121058816</ele>
        <time>2001-05-23T13:21:45.143</time>
      </trkpt>
      <trkpt lat="42.52201" lon="2.05548">
        <ele>1921.3763801465</ele>
        <time>2001-05-23T13:21:46.143</time>
      </trkpt>
      <trkpt lat="42.522" lon="2.05547">
        <ele>1921.3058221327</ele>
        <time>2001-05-23T13:21:47.143</time>
      </trkpt>
      <trkpt lat="42.522" lon="2.05547">
        <ele>1921.0312865838</ele>
        <time>2001-05-23T13:21:48.143</time>
      </trkpt>
      <trkpt lat="42.52199" lon="2.05548">
        <ele>1920.978985027</ele>
        <time>2001-05-23T13:21:49.144</time>
      </trkpt>
      <trkpt lat="42.52199" lon="2.05548">
        <ele>1921.0826773878</ele>
        <time>2001-05-23T13:21:50.144</time>
      </trkpt>
      <trkpt lat="42.52199" lon="2.05549">
        <ele>1921.0865614403</ele>
        <time>2001-05-23T13:21:51.155</time>
      </trkpt>
      <trkpt lat="42.52198" lon="2.0555">
        <ele>1921.2954426797</ele>
        <time>2001-05-23T13:21:52.155</time>
      </trkpt>
      <trkpt lat="42.52197" lon="2.05551">
        <ele>1921.5241058471</ele>
        <time>2001-05-23T13:21:53.160</time>
      </trkpt>
      <trkpt lat="42.52196" lon="2.05551">
        <ele>1921.4592392392</ele>
        <time>2001-05-23T13:21:54.160</time>
      </trkpt>
      <trkpt lat="42.52195" lon="2.05552">
        <ele>1920.8936025225</ele>
        <time>2001-05-23T13:21:55.175</time>
      </trkpt>
      <trkpt lat="42.52194" lon="2.05552">
        <ele>1920.0973075215</ele>
        <time>2001-05-23T13:21:56.175</time>
      </trkpt>
      <trkpt lat="42.52193" lon="2.05552">
        <ele>1919.1588781986</ele>
        <time>2001-05-23T13:21:57.174</time>
      </trkpt>
      <trkpt lat="42.52192" lon="2.05553">
        <ele>1918.2414253216</ele>
        <time>2001-05-23T13:21:58.174</time>
      </trkpt>
      <trkpt lat="42.52191" lon="2.05554">
        <ele>1917.2945125531</ele>
        <time>2001-05-23T13:21:59.174</time>
      </trkpt>
      <trkpt lat="42.5219" lon="2.05554">
        <ele>1917.0775588878</ele>
        <time>2001-05-23T13:22:00.174</time>
      </trkpt>
      <trkpt lat="42.52189" lon="2.05555">
        <ele>1917.3052901654</ele>
        <time>2001-05-23T13:22:01.174</time>
      </trkpt>
      <trkpt lat="42.52187" lon="2.05554">
        <ele>1917.6328439794</ele>
        <time>2001-05-23T13:22:02.174</time>
      </trkpt>
      <trkpt lat="42.52186" lon="2.05553">
        <ele>1917.9406024501</ele>
        <time>2001-05-23T13:22:03.174</time>
      </trkpt>
      <trkpt lat="42.52186" lon="2.05553">
        <ele>1918.2531779295</ele>
        <time>2001-05-23T13:22:04.174</time>
      </trkpt>
      <trkpt lat="42.52184" lon="2.05553">
        <ele>1918.1280225663</ele>
        <time>2001-05-23T13:22:05.174</time>
      </trkpt>
      <trkpt lat="42.52182" lon="2.05553">
        <ele>1917.8587462239</ele>
        <time>2001-05-23T13:22:06.174</time>
      </trkpt>
      <trkpt lat="42.52182" lon="2.05553">
        <ele>1917.6616167586</ele>
        <time>2001-05-23T13:22:07.174</time>
      </trkpt>
      <trkpt lat="42.52182" lon="2.05553">
        <ele>1917.4564297244</ele>
        <time>2001-05-23T13:22:08.179</time>
      </trkpt>
      <trkpt lat="42.52182" lon="2.05553">
        <ele>1917.2512426902</ele>
        <time>2001-05-23T13:22:09.179</time>
      </trkpt>
      <trkpt lat="42.5218" lon="2.05553">
        <ele>1917.1063049641</ele>
        <time>2001-05-23T13:22:10.178</time>
      </trkpt>
      <trkpt lat="42.5218" lon="2.05552">
        <ele>1916.9732001811</ele>
        <time>2001-05-23T13:22:11.178</time>
      </trkpt>
      <trkpt lat="42.52178" lon="2.05551">
        <ele>1916.9206239296</ele>
        <time>2001-05-23T13:22:12.178</time>
      </trkpt>
      <trkpt lat="42.52178" lon="2.05551">
        <ele>1916.6560625482</ele>
        <time>2001-05-23T13:22:13.178</time>
      </trkpt>
      <trkpt lat="42.52177" lon="2.05551">
        <ele>1916.1141798016</ele>
        <time>2001-05-23T13:22:14.179</time>
      </trkpt>
      <trkpt lat="42.52177" lon="2.05551">
        <ele>1915.7205895953</ele>
        <time>2001-05-23T13:22:15.179</time>
      </trkpt>
      <trkpt lat="42.52175" lon="2.05552">
        <ele>1915.196842115</ele>
        <time>2001-05-23T13:22:16.180</time>
      </trkpt>
      <trkpt lat="42.52175" lon="2.05552">
        <ele>1914.5925661033</ele>
        <time>2001-05-23T13:22:17.180</time>
      </trkpt>
      <trkpt lat="42.52174" lon="2.05553">
        <ele>1914.1756742759</ele>
        <time>2001-05-23T13:22:18.182</time>
      </trkpt>
      <trkpt lat="42.52173" lon="2.05553">
        <ele>1913.7610952368</ele>
        <time>2001-05-23T13:22:19.182</time>
      </trkpt>
      <trkpt lat="42.52171" lon="2.05552">
        <ele>1913.438069265</ele>
        <time>2001-05-23T13:22:20.182</time>
      </trkpt>
      <trkpt lat="42.5217" lon="2.05553">
        <ele>1913.2560741395</ele>
        <time>2001-05-23T13:22:21.182</time>
      </trkpt>
      <trkpt lat="42.5217" lon="2.05552">
        <ele>1913.0327442717</ele>
        <time>2001-05-23T13:22:22.182</time>
      </trkpt>
      <trkpt lat="42.52168" lon="2.05552">
        <ele>1912.9508715108</ele>
        <time>2001-05-23T13:22:23.182</time>
      </trkpt>
      <trkpt lat="42.52167" lon="2.05551">
        <ele>1913.2029971302</ele>
        <time>2001-05-23T13:22:24.182</time>
      </trkpt>
      <trkpt lat="42.52166" lon="2.05551">
        <ele>1913.1174086066</ele>
        <time>2001-05-23T13:22:25.182</time>
      </trkpt>
      <trkpt lat="42.52166" lon="2.05551">
        <ele>1913.0186642146</ele>
        <time>2001-05-23T13:22:26.182</time>
      </trkpt>
      <trkpt lat="42.52165" lon="2.05551">
        <ele>1912.7466210287</ele>
        <time>2001-05-23T13:22:27.182</time>
      </trkpt>
      <trkpt lat="42.52164" lon="2.05551">
        <ele>1912.2519640317</ele>
        <time>2001-05-23T13:22:28.182</time>
      </trkpt>
      <trkpt lat="42.52163" lon="2.05551">
        <ele>1911.5534177862</ele>
        <time>2001-05-23T13:22:29.182</time>
      </trkpt>
      <trkpt lat="42.52162" lon="2.05551">
        <ele>1910.9971849566</ele>
        <time>2001-05-23T13:22:30.182</time>
      </trkpt>
      <trkpt lat="42.52161" lon="2.05551">
        <ele>1910.3345756644</ele>
        <time>2001-05-23T13:22:31.182</time>
      </trkpt>
      <trkpt lat="42.5216" lon="2.0555">
        <ele>1909.7734355327</ele>
        <time>2001-05-23T13:22:32.182</time>
      </trkpt>
      <trkpt lat="42.5216" lon="2.05549">
        <ele>1908.9829106439</ele>
        <time>2001-05-23T13:22:33.182</time>
      </trkpt>
      <trkpt lat="42.52159" lon="2.05548">
        <ele>1908.0577145977</ele>
        <time>2001-05-23T13:22:34.184</time>
      </trkpt>
      <trkpt lat="42.52158" lon="2.05548">
        <ele>1907.0864112126</ele>
        <time>2001-05-23T13:22:35.184</time>
      </trkpt>
      <trkpt lat="42.52157" lon="2.05547">
        <ele>1906.0907247134</ele>
        <time>2001-05-23T13:22:36.184</time>
      </trkpt>
      <trkpt lat="42.52157" lon="2.05547">
        <ele>1905.0553107277</ele>
        <time>2001-05-23T13:22:37.184</time>
      </trkpt>
      <trkpt lat="42.52156" lon="2.05546">
        <ele>1904.4041373005</ele>
        <time>2001-05-23T13:22:38.184</time>
      </trkpt>
      <trkpt lat="42.52155" lon="2.05546">
        <ele>1904.0368388776</ele>
        <time>2001-05-23T13:22:39.184</time>
      </trkpt>
      <trkpt lat="42.52154" lon="2.05547">
        <ele>1904.0808458552</ele>
        <time>2001-05-23T13:22:40.184</time>
      </trkpt>
      <trkpt lat="42.52153" lon="2.05547">
        <ele>1904.3315522255</ele>
        <time>2001-05-23T13:22:41.184</time>
      </trkpt>
      <trkpt lat="42.52152" lon="2.05548">
        <ele>1904.6150793608</ele>
        <time>2001-05-23T13:22:42.184</time>
      </trkpt>
      <trkpt lat="42.52151" lon="2.05547">
        <ele>1904.8791346522</ele>
        <time>2001-05-23T13:22:43.184</time>
      </trkpt>
      <trkpt lat="42.52151" lon="2.05546">
        <ele>1905.1388944926</ele>
        <time>2001-05-23T13:22:44.184</time>
      </trkpt>
      <trkpt lat="42.5215" lon="2.05547">
        <ele>1905.2767543616</ele>
        <time>2001-05-23T13:22:45.184</time>
      </trkpt>
      <trkpt lat="42.52149" lon="2.05547">
        <ele>1905.6247445941</ele>
        <time>2001-05-23T13:22:46.184</time>
      </trkpt>
      <trkpt lat="42.52149" lon="2.05546">
        <ele>1905.8403799627</ele>
        <time>2001-05-23T13:22:47.183</time>
      </trkpt>
      <trkpt lat="42.52148" lon="2.05545">
        <ele>1905.7765087774</ele>
        <time>2001-05-23T13:22:48.183</time>
      </trkpt>
      <trkpt lat="42.52147" lon="2.05543">
        <ele>1905.9985388502</ele>
        <time>2001-05-23T13:22:49.183</time>
      </trkpt>
      <trkpt lat="42.52145" lon="2.05542">
        <ele>1906.2102690537</ele>
        <time>2001-05-23T13:22:50.183</time>
      </trkpt>
      <trkpt lat="42.52144" lon="2.05541">
        <ele>1906.305704491</ele>
        <time>2001-05-23T13:22:51.183</time>
      </trkpt>
      <trkpt lat="42.52144" lon="2.0554">
        <ele>1906.5950958762</ele>
        <time>2001-05-23T13:22:52.183</time>
      </trkpt>
      <trkpt lat="42.52143" lon="2.05539">
        <ele>1907.0062442163</ele>
        <time>2001-05-23T13:22:53.183</time>
      </trkpt>
      <trkpt lat="42.52143" lon="2.05539">
        <ele>1907.1314823477</ele>
        <time>2001-05-23T13:22:54.183</time>
      </trkpt>
      <trkpt lat="42.52143" lon="2.05538">
        <ele>1906.954729276</ele>
        <time>2001-05-23T13:22:55.183</time>
      </trkpt>
      <trkpt lat="42.52142" lon="2.05538">
        <ele>1906.4628462479</ele>
        <time>2001-05-23T13:22:56.183</time>
      </trkpt>
      <trkpt lat="42.52142" lon="2.05537">
        <ele>1906.2268264521</ele>
        <time>2001-05-23T13:22:57.185</time>
      </trkpt>
      <trkpt lat="42.52141" lon="2.05536">
        <ele>1905.8214753069</ele>
        <time>2001-05-23T13:22:58.185</time>
      </trkpt>
      <trkpt lat="42.5214" lon="2.05535">
        <ele>1905.1602813566</ele>
        <time>2001-05-23T13:22:59.185</time>
      </trkpt>
      <trkpt lat="42.52139" lon="2.05535">
        <ele>1904.3658180615</ele>
        <time>2001-05-23T13:23:00.185</time>
      </trkpt>
      <trkpt lat="42.52138" lon="2.05535">
        <ele>1903.8377684157</ele>
        <time>2001-05-23T13:23:01.185</time>
      </trkpt>
      <trkpt lat="42.52137" lon="2.05534">
        <ele>1903.2724376464</ele>
        <time>2001-05-23T13:23:02.185</time>
      </trkpt>
      <trkpt lat="42.52134" lon="2.05533">
        <ele>1903.1583413539</ele>
        <time>2001-05-23T13:23:03.185</time>
      </trkpt>
      <trkpt lat="42.52134" lon="2.05532">
        <ele>1903.5738308735</ele>
        <time>2001-05-23T13:23:04.185</time>
      </trkpt>
      <trkpt lat="42.52132" lon="2.05531">
        <ele>1904.4988352118</ele>
        <time>2001-05-23T13:23:05.185</time>
      </trkpt>
      <trkpt lat="42.52132" lon="2.05531">
        <ele>1905.3027804436</ele>
        <time>2001-05-23T13:23:06.185</time>
      </trkpt>
      <trkpt lat="42.52132" lon="2.05531">
        <ele>1905.94661358</ele>
        <time>2001-05-23T13:23:07.185</time>
      </trkpt>
      <trkpt lat="42.52132" lon="2.0553">
        <ele>1906.5076343317</ele>
        <time>2001-05-23T13:23:08.185</time>
      </trkpt>
      <trkpt lat="42.52131" lon="2.0553">
        <ele>1906.9730203705</ele>
        <time>2001-05-23T13:23:09.185</time>
      </trkpt>
      <trkpt lat="42.5213" lon="2.05529">
        <ele>1907.1331969695</ele>
        <time>2001-05-23T13:23:10.188</time>
      </trkpt>
      <trkpt lat="42.52128" lon="2.05529">
        <ele>1906.8918095756</ele>
        <time>2001-05-23T13:23:11.188</time>
      </trkpt>
      <trkpt lat="42.52125" lon="2.0553">
        <ele>1906.2045325477</ele>
        <time>2001-05-23T13:23:12.188</time>
      </trkpt>
      <trkpt lat="42.52123" lon="2.05529">
        <ele>1905.2482710075</ele>
        <time>2001-05-23T13:23:13.188</time>
      </trkpt>
      <trkpt lat="42.52122" lon="2.05528">
        <ele>1904.1032053042</ele>
        <time>2001-05-23T13:23:14.188</time>
      </trkpt>
      <trkpt lat="42.52121" lon="2.05528">
        <ele>1902.8410482332</ele>
        <time>2001-05-23T13:23:15.188</time>
      </trkpt>
      <trkpt lat="42.5212" lon="2.05529">
        <ele>1901.8920589169</ele>
        <time>2001-05-23T13:23:16.188</time>
      </trkpt>
      <trkpt lat="42.52118" lon="2.05529">
        <ele>1901.2718293738</ele>
        <time>2001-05-23T13:23:17.188</time>
      </trkpt>
      <trkpt lat="42.52118" lon="2.05529">
        <ele>1900.8332986366</ele>
        <time>2001-05-23T13:23:18.188</time>
      </trkpt>
      <trkpt lat="42.52118" lon="2.05529">
        <ele>1900.2374986028</ele>
        <time>2001-05-23T13:23:19.188</time>
      </trkpt>
      <trkpt lat="42.52117" lon="2.05529">
        <ele>1899.9917396244</ele>
        <time>2001-05-23T13:23:20.188</time>
      </trkpt>
      <trkpt lat="42.52115" lon="2.05528">
        <ele>1899.633916625</ele>
        <time>2001-05-23T13:23:21.190</time>
      </trkpt>
      <trkpt lat="42.52114" lon="2.05527">
        <ele>1899.3598299684</ele>
        <time>2001-05-23T13:23:22.190</time>
      </trkpt>
      <trkpt lat="42.52112" lon="2.05526">
        <ele>1899.5580571767</ele>
        <time>2001-05-23T13:23:23.190</time>
      </trkpt>
      <trkpt lat="42.52111" lon="2.05525">
        <ele>1900.0081802668</ele>
        <time>2001-05-23T13:23:24.190</time>
      </trkpt>
      <trkpt lat="42.5211" lon="2.05525">
        <ele>1900.3144635996</ele>
        <time>2001-05-23T13:23:25.190</time>
      </trkpt>
      <trkpt lat="42.52109" lon="2.05524">
        <ele>1900.8296516318</ele>
        <time>2001-05-23T13:23:26.190</time>
      </trkpt>
      <trkpt lat="42.52108" lon="2.05524">
        <ele>1901.4134065818</ele>
        <time>2001-05-23T13:23:27.190</time>
      </trkpt>
      <trkpt lat="42.52107" lon="2.05523">
        <ele>1901.5516430059</ele>
        <time>2001-05-23T13:23:28.190</time>
      </trkpt>
      <trkpt lat="42.52106" lon="2.05523">
        <ele>1901.353180285</ele>
        <time>2001-05-23T13:23:29.190</time>
      </trkpt>
      <trkpt lat="42.52107" lon="2.05525">
        <ele>1900.8625528166</ele>
        <time>2001-05-23T13:23:30.190</time>
      </trkpt>
      <trkpt lat="42.52106" lon="2.05525">
        <ele>1900.3276423367</ele>
        <time>2001-05-23T13:23:31.190</time>
      </trkpt>
      <trkpt lat="42.52105" lon="2.05526">
        <ele>1899.7116711583</ele>
        <time>2001-05-23T13:23:32.190</time>
      </trkpt>
      <trkpt lat="42.52104" lon="2.05526">
        <ele>1898.9364749789</ele>
        <time>2001-05-23T13:23:33.190</time>
      </trkpt>
      <trkpt lat="42.52102" lon="2.05525">
        <ele>1898.437549099</ele>
        <time>2001-05-23T13:23:34.190</time>
      </trkpt>
      <trkpt lat="42.52101" lon="2.05525">
        <ele>1898.4065470837</ele>
        <time>2001-05-23T13:23:35.190</time>
      </trkpt>
      <trkpt lat="42.52101" lon="2.05525">
        <ele>1898.73076193</ele>
        <time>2001-05-23T13:23:36.190</time>
      </trkpt>
      <trkpt lat="42.521" lon="2.05525">
        <ele>1899.2894616216</ele>
        <time>2001-05-23T13:23:37.190</time>
      </trkpt>
      <trkpt lat="42.52099" lon="2.05525">
        <ele>1900.0246658273</ele>
        <time>2001-05-23T13:23:38.190</time>
      </trkpt>
      <trkpt lat="42.52098" lon="2.05526">
        <ele>1901.0172002923</ele>
        <time>2001-05-23T13:23:39.190</time>
      </trkpt>
      <trkpt lat="42.52097" lon="2.05525">
        <ele>1902.0615176048</ele>
        <time>2001-05-23T13:23:40.190</time>
      </trkpt>
      <trkpt lat="42.52096" lon="2.05525">
        <ele>1902.8197949883</ele>
        <time>2001-05-23T13:23:41.190</time>
      </trkpt>
      <trkpt lat="42.52095" lon="2.05524">
        <ele>1903.4305219194</ele>
        <time>2001-05-23T13:23:42.190</time>
      </trkpt>
      <trkpt lat="42.52094" lon="2.05524">
        <ele>1903.831600173</ele>
        <time>2001-05-23T13:23:43.190</time>
      </trkpt>
      <trkpt lat="42.52094" lon="2.05524">
        <ele>1903.5727894332</ele>
        <time>2001-05-23T13:23:44.190</time>
      </trkpt>
      <trkpt lat="42.52092" lon="2.05523">
        <ele>1902.8231362961</ele>
        <time>2001-05-23T13:23:45.190</time>
      </trkpt>
      <trkpt lat="42.5209" lon="2.05522">
        <ele>1901.8659953434</ele>
        <time>2001-05-23T13:23:46.190</time>
      </trkpt>
      <trkpt lat="42.5209" lon="2.05522">
        <ele>1900.4926663365</ele>
        <time>2001-05-23T13:23:47.190</time>
      </trkpt>
      <trkpt lat="42.5209" lon="2.05522">
        <ele>1899.0623639628</ele>
        <time>2001-05-23T13:23:48.190</time>
      </trkpt>
      <trkpt lat="42.5209" lon="2.05524">
        <ele>1897.7366286812</ele>
        <time>2001-05-23T13:23:49.190</time>
      </trkpt>
      <trkpt lat="42.5209" lon="2.05524">
        <ele>1896.6092179021</ele>
        <time>2001-05-23T13:23:50.190</time>
      </trkpt>
      <trkpt lat="42.52088" lon="2.05525">
        <ele>1896.1673003664</ele>
        <time>2001-05-23T13:23:51.190</time>
      </trkpt>
      <trkpt lat="42.52087" lon="2.05525">
        <ele>1896.3197606722</ele>
        <time>2001-05-23T13:23:52.190</time>
      </trkpt>
      <trkpt lat="42.52086" lon="2.05525">
        <ele>1896.9383768486</ele>
        <time>2001-05-23T13:23:53.190</time>
      </trkpt>
      <trkpt lat="42.52084" lon="2.05525">
        <ele>1897.9513903467</ele>
        <time>2001-05-23T13:23:54.190</time>
      </trkpt>
      <trkpt lat="42.52083" lon="2.05525">
        <ele>1899.1567365624</ele>
        <time>2001-05-23T13:23:55.190</time>
      </trkpt>
      <trkpt lat="42.52084" lon="2.05524">
        <ele>1899.3798150275</ele>
        <time>2001-05-23T13:23:56.190</time>
      </trkpt>
      <trkpt lat="42.52082" lon="2.05523">
        <ele>1899.5142516306</ele>
        <time>2001-05-23T13:23:57.190</time>
      </trkpt>
      <trkpt lat="42.52082" lon="2.05523">
        <ele>1899.3850746371</ele>
        <time>2001-05-23T13:23:58.190</time>
      </trkpt>
      <trkpt lat="42.52081" lon="2.05523">
        <ele>1899.2018373344</ele>
        <time>2001-05-23T13:23:59.190</time>
      </trkpt>
      <trkpt lat="42.52081" lon="2.05524">
        <ele>1898.8980700694</ele>
        <time>2001-05-23T13:24:00.190</time>
      </trkpt>
      <trkpt lat="42.52079" lon="2.05524">
        <ele>1898.9375661511</ele>
        <time>2001-05-23T13:24:01.190</time>
      </trkpt>
      <trkpt lat="42.52078" lon="2.05524">
        <ele>1898.5928896446</ele>
        <time>2001-05-23T13:24:02.190</time>
      </trkpt>
      <trkpt lat="42.52077" lon="2.05524">
        <ele>1898.3844042966</ele>
        <time>2001-05-23T13:24:03.190</time>
      </trkpt>
      <trkpt lat="42.52076" lon="2.05524">
        <ele>1898.3797567885</ele>
        <time>2001-05-23T13:24:04.190</time>
      </trkpt>
      <trkpt lat="42.52075" lon="2.05524">
        <ele>1898.8336244913</ele>
        <time>2001-05-23T13:24:05.190</time>
      </trkpt>
      <trkpt lat="42.52073" lon="2.05524">
        <ele>1900.2908832552</ele>
        <time>2001-05-23T13:24:06.190</time>
      </trkpt>
      <trkpt lat="42.52071" lon="2.05525">
        <ele>1902.1265563264</ele>
        <time>2001-05-23T13:24:07.190</time>
      </trkpt>
      <trkpt lat="42.52071" lon="2.05526">
        <ele>1903.5375078689</ele>
        <time>2001-05-23T13:24:08.190</time>
      </trkpt>
      <trkpt lat="42.52071" lon="2.05527">
        <ele>1904.1851503463</ele>
        <time>2001-05-23T13:24:09.190</time>
      </trkpt>
      <trkpt lat="42.52071" lon="2.05527">
        <ele>1904.2489674969</ele>
        <time>2001-05-23T13:24:10.190</time>
      </trkpt>
      <trkpt lat="42.52071" lon="2.05528">
        <ele>1903.1945947841</ele>
        <time>2001-05-23T13:24:11.190</time>
      </trkpt>
      <trkpt lat="42.52071" lon="2.05529">
        <ele>1901.9715653412</ele>
        <time>2001-05-23T13:24:12.190</time>
      </trkpt>
      <trkpt lat="42.5207" lon="2.0553">
        <ele>1900.6871820293</ele>
        <time>2001-05-23T13:24:13.190</time>
      </trkpt>
      <trkpt lat="42.52069" lon="2.0553">
        <ele>1899.8103216726</ele>
        <time>2001-05-23T13:24:14.190</time>
      </trkpt>
      <trkpt lat="42.52067" lon="2.05528">
        <ele>1899.1374879759</ele>
        <time>2001-05-23T13:24:15.185</time>
      </trkpt>
      <trkpt lat="42.52066" lon="2.05528">
        <ele>1898.7421191107</ele>
        <time>2001-05-23T13:24:16.185</time>
      </trkpt>
      <trkpt lat="42.52065" lon="2.05528">
        <ele>1898.3054312754</ele>
        <time>2001-05-23T13:24:17.185</time>
      </trkpt>
      <trkpt lat="42.52064" lon="2.05528">
        <ele>1898.1603047062</ele>
        <time>2001-05-23T13:24:18.185</time>
      </trkpt>
      <trkpt lat="42.52064" lon="2.05528">
        <ele>1898.1134552428</ele>
        <time>2001-05-23T13:24:19.185</time>
      </trkpt>
      <trkpt lat="42.52063" lon="2.05527">
        <ele>1897.7896124922</ele>
        <time>2001-05-23T13:24:20.185</time>
      </trkpt>
      <trkpt lat="42.52064" lon="2.05528">
        <ele>1897.2933056917</ele>
        <time>2001-05-23T13:24:21.185</time>
      </trkpt>
      <trkpt lat="42.52065" lon="2.0553">
        <ele>1896.8025517328</ele>
        <time>2001-05-23T13:24:22.185</time>
      </trkpt>
      <trkpt lat="42.52065" lon="2.05531">
        <ele>1896.282089255</ele>
        <time>2001-05-23T13:24:23.185</time>
      </trkpt>
      <trkpt lat="42.52064" lon="2.0553">
        <ele>1895.755122409</ele>
        <time>2001-05-23T13:24:24.185</time>
      </trkpt>
      <trkpt lat="42.52063" lon="2.05531">
        <ele>1895.695748483</ele>
        <time>2001-05-23T13:24:25.185</time>
      </trkpt>
      <trkpt lat="42.52063" lon="2.05531">
        <ele>1895.9109096866</ele>
        <time>2001-05-23T13:24:26.185</time>
      </trkpt>
      <trkpt lat="42.52063" lon="2.05533">
        <ele>1896.109193046</ele>
        <time>2001-05-23T13:24:27.185</time>
      </trkpt>
      <trkpt lat="42.52062" lon="2.05534">
        <ele>1896.6418049196</ele>
        <time>2001-05-23T13:24:28.185</time>
      </trkpt>
      <trkpt lat="42.52061" lon="2.05534">
        <ele>1897.0295575211</ele>
        <time>2001-05-23T13:24:29.185</time>
      </trkpt>
      <trkpt lat="42.5206" lon="2.05535">
        <ele>1897.266980955</ele>
        <time>2001-05-23T13:24:30.185</time>
      </trkpt>
      <trkpt lat="42.5206" lon="2.05536">
        <ele>1897.2088295132</ele>
        <time>2001-05-23T13:24:31.185</time>
      </trkpt>
      <trkpt lat="42.5206" lon="2.05535">
        <ele>1897.467304242</ele>
        <time>2001-05-23T13:24:32.185</time>
      </trkpt>
      <trkpt lat="42.52058" lon="2.05537">
        <ele>1897.2068542587</ele>
        <time>2001-05-23T13:24:33.185</time>
      </trkpt>
      <trkpt lat="42.52058" lon="2.05537">
        <ele>1897.0855918385</ele>
        <time>2001-05-23T13:24:34.185</time>
      </trkpt>
      <trkpt lat="42.52058" lon="2.05539">
        <ele>1896.7343089193</ele>
        <time>2001-05-23T13:24:35.187</time>
      </trkpt>
      <trkpt lat="42.52057" lon="2.0554">
        <ele>1896.632576777</ele>
        <time>2001-05-23T13:24:36.187</time>
      </trkpt>
      <trkpt lat="42.52056" lon="2.0554">
        <ele>1896.4483714685</ele>
        <time>2001-05-23T13:24:37.187</time>
      </trkpt>
      <trkpt lat="42.52055" lon="2.05541">
        <ele>1896.2495649876</ele>
        <time>2001-05-23T13:24:38.187</time>
      </trkpt>
      <trkpt lat="42.52054" lon="2.05542">
        <ele>1895.8918178249</ele>
        <time>2001-05-23T13:24:39.187</time>
      </trkpt>
      <trkpt lat="42.52053" lon="2.05542">
        <ele>1895.6513008453</ele>
        <time>2001-05-23T13:24:40.187</time>
      </trkpt>
      <trkpt lat="42.52052" lon="2.05542">
        <ele>1895.2592878897</ele>
        <time>2001-05-23T13:24:41.187</time>
      </trkpt>
      <trkpt lat="42.52051" lon="2.05542">
        <ele>1895.0921864692</ele>
        <time>2001-05-23T13:24:42.187</time>
      </trkpt>
      <trkpt lat="42.52048" lon="2.05542">
        <ele>1895.0294551482</ele>
        <time>2001-05-23T13:24:43.187</time>
      </trkpt>
      <trkpt lat="42.52047" lon="2.05542">
        <ele>1895.0806543116</ele>
        <time>2001-05-23T13:24:44.187</time>
      </trkpt>
      <trkpt lat="42.52046" lon="2.05543">
        <ele>1894.9372260692</ele>
        <time>2001-05-23T13:24:45.187</time>
      </trkpt>
      <trkpt lat="42.52046" lon="2.05544">
        <ele>1894.6617512658</ele>
        <time>2001-05-23T13:24:46.187</time>
      </trkpt>
      <trkpt lat="42.52045" lon="2.05545">
        <ele>1893.7687419491</ele>
        <time>2001-05-23T13:24:47.187</time>
      </trkpt>
      <trkpt lat="42.52045" lon="2.05546">
        <ele>1892.7972939715</ele>
        <time>2001-05-23T13:24:48.187</time>
      </trkpt>
      <trkpt lat="42.52044" lon="2.05546">
        <ele>1892.087598546</ele>
        <time>2001-05-23T13:24:49.185</time>
      </trkpt>
      <trkpt lat="42.52043" lon="2.05547">
        <ele>1891.5417646552</ele>
        <time>2001-05-23T13:24:50.185</time>
      </trkpt>
      <trkpt lat="42.52042" lon="2.05547">
        <ele>1891.0400478885</ele>
        <time>2001-05-23T13:24:51.185</time>
      </trkpt>
      <trkpt lat="42.52041" lon="2.05547">
        <ele>1890.4091597892</ele>
        <time>2001-05-23T13:24:52.185</time>
      </trkpt>
      <trkpt lat="42.5204" lon="2.05547">
        <ele>1890.1457686789</ele>
        <time>2001-05-23T13:24:53.185</time>
      </trkpt>
      <trkpt lat="42.52038" lon="2.05547">
        <ele>1889.6847841419</ele>
        <time>2001-05-23T13:24:54.185</time>
      </trkpt>
      <trkpt lat="42.52037" lon="2.05547">
        <ele>1889.501029975</ele>
        <time>2001-05-23T13:24:55.185</time>
      </trkpt>
      <trkpt lat="42.52036" lon="2.05546">
        <ele>1889.8764122838</ele>
        <time>2001-05-23T13:24:56.185</time>
      </trkpt>
      <trkpt lat="42.52035" lon="2.05546">
        <ele>1890.6292519797</ele>
        <time>2001-05-23T13:24:57.185</time>
      </trkpt>
      <trkpt lat="42.52035" lon="2.05548">
        <ele>1891.0581662375</ele>
        <time>2001-05-23T13:24:58.185</time>
      </trkpt>
      <trkpt lat="42.52035" lon="2.05549">
        <ele>1891.0432700826</ele>
        <time>2001-05-23T13:24:59.185</time>
      </trkpt>
      <trkpt lat="42.52036" lon="2.05549">
        <ele>1890.6492113216</ele>
        <time>2001-05-23T13:25:00.185</time>
      </trkpt>
      <trkpt lat="42.52035" lon="2.05549">
        <ele>1889.8634870602</ele>
        <time>2001-05-23T13:25:01.185</time>
      </trkpt>
      <trkpt lat="42.52033" lon="2.05549">
        <ele>1889.4393574072</ele>
        <time>2001-05-23T13:25:02.189</time>
      </trkpt>
      <trkpt lat="42.52033" lon="2.05549">
        <ele>1889.2563713387</ele>
        <time>2001-05-23T13:25:03.189</time>
      </trkpt>
      <trkpt lat="42.52031" lon="2.05547">
        <ele>1889.6649287719</ele>
        <time>2001-05-23T13:25:04.186</time>
      </trkpt>
      <trkpt lat="42.5203" lon="2.05547">
        <ele>1890.5040506659</ele>
        <time>2001-05-23T13:25:05.186</time>
      </trkpt>
      <trkpt lat="42.5203" lon="2.05547">
        <ele>1891.171012157</ele>
        <time>2001-05-23T13:25:06.186</time>
      </trkpt>
      <trkpt lat="42.52029" lon="2.05548">
        <ele>1891.2880503632</ele>
        <time>2001-05-23T13:25:07.186</time>
      </trkpt>
      <trkpt lat="42.52028" lon="2.05547">
        <ele>1891.1586353838</ele>
        <time>2001-05-23T13:25:08.186</time>
      </trkpt>
      <trkpt lat="42.52027" lon="2.05547">
        <ele>1890.986567005</ele>
        <time>2001-05-23T13:25:09.186</time>
      </trkpt>
      <trkpt lat="42.52025" lon="2.05548">
        <ele>1890.6507307818</ele>
        <time>2001-05-23T13:25:10.186</time>
      </trkpt>
      <trkpt lat="42.52025" lon="2.05548">
        <ele>1890.4609222636</ele>
        <time>2001-05-23T13:25:11.186</time>
      </trkpt>
      <trkpt lat="42.52024" lon="2.05548">
        <ele>1890.4816843214</ele>
        <time>2001-05-23T13:25:12.186</time>
      </trkpt>
      <trkpt lat="42.52022" lon="2.05548">
        <ele>1890.7252216443</ele>
        <time>2001-05-23T13:25:13.186</time>
      </trkpt>
      <trkpt lat="42.52022" lon="2.05548">
        <ele>1890.84453035</ele>
        <time>2001-05-23T13:25:14.186</time>
      </trkpt>
      <trkpt lat="42.5202" lon="2.0555">
        <ele>1890.494124262</ele>
        <time>2001-05-23T13:25:15.184</time>
      </trkpt>
      <trkpt lat="42.52019" lon="2.0555">
        <ele>1889.9884453079</ele>
        <time>2001-05-23T13:25:16.184</time>
      </trkpt>
      <trkpt lat="42.52018" lon="2.0555">
        <ele>1889.3747565305</ele>
        <time>2001-05-23T13:25:17.184</time>
      </trkpt>
      <trkpt lat="42.52017" lon="2.0555">
        <ele>1888.5205200968</ele>
        <time>2001-05-23T13:25:18.184</time>
      </trkpt>
      <trkpt lat="42.52018" lon="2.0555">
        <ele>1887.8224387828</ele>
        <time>2001-05-23T13:25:19.184</time>
      </trkpt>
      <trkpt lat="42.52017" lon="2.05551">
        <ele>1887.6021969724</ele>
        <time>2001-05-23T13:25:20.184</time>
      </trkpt>
      <trkpt lat="42.52016" lon="2.05551">
        <ele>1887.7882979836</ele>
        <time>2001-05-23T13:25:21.191</time>
      </trkpt>
      <trkpt lat="42.52016" lon="2.05551">
        <ele>1888.0668148022</ele>
        <time>2001-05-23T13:25:22.191</time>
      </trkpt>
      <trkpt lat="42.52014" lon="2.05552">
        <ele>1888.5052984059</ele>
        <time>2001-05-23T13:25:23.196</time>
      </trkpt>
      <trkpt lat="42.52014" lon="2.05554">
        <ele>1888.4672057105</ele>
        <time>2001-05-23T13:25:24.196</time>
      </trkpt>
      <trkpt lat="42.52013" lon="2.05555">
        <ele>1888.1129468126</ele>
        <time>2001-05-23T13:25:25.196</time>
      </trkpt>
      <trkpt lat="42.52013" lon="2.05556">
        <ele>1887.6573337208</ele>
        <time>2001-05-23T13:25:26.196</time>
      </trkpt>
      <trkpt lat="42.52012" lon="2.05557">
        <ele>1886.9111606631</ele>
        <time>2001-05-23T13:25:27.196</time>
      </trkpt>
      <trkpt lat="42.52011" lon="2.05559">
        <ele>1886.1713922273</ele>
        <time>2001-05-23T13:25:28.196</time>
      </trkpt>
      <trkpt lat="42.5201" lon="2.0556">
        <ele>1885.7119226784</ele>
        <time>2001-05-23T13:25:29.196</time>
      </trkpt>
      <trkpt lat="42.52009" lon="2.0556">
        <ele>1885.2611412443</ele>
        <time>2001-05-23T13:25:30.196</time>
      </trkpt>
      <trkpt lat="42.52009" lon="2.05561">
        <ele>1884.4295575364</ele>
        <time>2001-05-23T13:25:31.196</time>
      </trkpt>
      <trkpt lat="42.52009" lon="2.05561">
        <ele>1883.8158881921</ele>
        <time>2001-05-23T13:25:32.196</time>
      </trkpt>
      <trkpt lat="42.52008" lon="2.05563">
        <ele>1883.0694998058</ele>
        <time>2001-05-23T13:25:33.191</time>
      </trkpt>
      <trkpt lat="42.52008" lon="2.05564">
        <ele>1882.2609229706</ele>
        <time>2001-05-23T13:25:34.191</time>
      </trkpt>
      <trkpt lat="42.52008" lon="2.05565">
        <ele>1881.5968608195</ele>
        <time>2001-05-23T13:25:35.191</time>
      </trkpt>
      <trkpt lat="42.52007" lon="2.05567">
        <ele>1880.9632967487</ele>
        <time>2001-05-23T13:25:36.193</time>
      </trkpt>
      <trkpt lat="42.52006" lon="2.05568">
        <ele>1880.2885886563</ele>
        <time>2001-05-23T13:25:37.193</time>
      </trkpt>
      <trkpt lat="42.52005" lon="2.05568">
        <ele>1879.8130839996</ele>
        <time>2001-05-23T13:25:38.193</time>
      </trkpt>
      <trkpt lat="42.52003" lon="2.0557">
        <ele>1879.9441666873</ele>
        <time>2001-05-23T13:25:39.193</time>
      </trkpt>
      <trkpt lat="42.52003" lon="2.05571">
        <ele>1880.0656790039</ele>
        <time>2001-05-23T13:25:40.193</time>
      </trkpt>
      <trkpt lat="42.52002" lon="2.05572">
        <ele>1880.3539896455</ele>
        <time>2001-05-23T13:25:41.193</time>
      </trkpt>
      <trkpt lat="42.52002" lon="2.05573">
        <ele>1880.6567606395</ele>
        <time>2001-05-23T13:25:42.193</time>
      </trkpt>
      <trkpt lat="42.52002" lon="2.05573">
        <ele>1880.6933629865</ele>
        <time>2001-05-23T13:25:43.193</time>
      </trkpt>
      <trkpt lat="42.52002" lon="2.05575">
        <ele>1879.9811882783</ele>
        <time>2001-05-23T13:25:44.193</time>
      </trkpt>
      <trkpt lat="42.52003" lon="2.05577">
        <ele>1879.2648315789</ele>
        <time>2001-05-23T13:25:45.193</time>
      </trkpt>
      <trkpt lat="42.52002" lon="2.05577">
        <ele>1878.6346468363</ele>
        <time>2001-05-23T13:25:46.193</time>
      </trkpt>
      <trkpt lat="42.52001" lon="2.05578">
        <ele>1878.3699323677</ele>
        <time>2001-05-23T13:25:47.193</time>
      </trkpt>
      <trkpt lat="42.52001" lon="2.05579">
        <ele>1878.5378105145</ele>
        <time>2001-05-23T13:25:48.193</time>
      </trkpt>
      <trkpt lat="42.52001" lon="2.0558">
        <ele>1879.3090527998</ele>
        <time>2001-05-23T13:25:49.193</time>
      </trkpt>
      <trkpt lat="42.52001" lon="2.05581">
        <ele>1880.0924319923</ele>
        <time>2001-05-23T13:25:50.193</time>
      </trkpt>
      <trkpt lat="42.52" lon="2.05583">
        <ele>1880.7906393353</ele>
        <time>2001-05-23T13:25:51.188</time>
      </trkpt>
      <trkpt lat="42.51999" lon="2.05584">
        <ele>1881.3564399188</ele>
        <time>2001-05-23T13:25:52.188</time>
      </trkpt>
      <trkpt lat="42.51998" lon="2.05585">
        <ele>1882.040619039</ele>
        <time>2001-05-23T13:25:53.188</time>
      </trkpt>
      <trkpt lat="42.51998" lon="2.05585">
        <ele>1882.545065265</ele>
        <time>2001-05-23T13:25:54.188</time>
      </trkpt>
      <trkpt lat="42.51998" lon="2.05586">
        <ele>1882.9655897323</ele>
        <time>2001-05-23T13:25:55.188</time>
      </trkpt>
      <trkpt lat="42.51998" lon="2.05586">
        <ele>1883.3910287954</ele>
        <time>2001-05-23T13:25:56.188</time>
      </trkpt>
      <trkpt lat="42.51996" lon="2.0559">
        <ele>1883.350348635</ele>
        <time>2001-05-23T13:25:57.191</time>
      </trkpt>
      <trkpt lat="42.51995" lon="2.05591">
        <ele>1882.8608556528</ele>
        <time>2001-05-23T13:25:58.191</time>
      </trkpt>
      <trkpt lat="42.51989" lon="2.05586">
        <ele>1881.5472132798</ele>
        <time>2001-05-23T13:25:59.193</time>
      </trkpt>
      <trkpt lat="42.51989" lon="2.05585">
        <ele>1880.2415986186</ele>
        <time>2001-05-23T13:26:00.193</time>
      </trkpt>
      <trkpt lat="42.51987" lon="2.05582">
        <ele>1879.1029295001</ele>
        <time>2001-05-23T13:26:01.195</time>
      </trkpt>
      <trkpt lat="42.51986" lon="2.05581">
        <ele>1878.2510842124</ele>
        <time>2001-05-23T13:26:02.195</time>
      </trkpt>
      <trkpt lat="42.51985" lon="2.0558">
        <ele>1877.6077699177</ele>
        <time>2001-05-23T13:26:03.195</time>
      </trkpt>
      <trkpt lat="42.51985" lon="2.0558">
        <ele>1877.4504572194</ele>
        <time>2001-05-23T13:26:04.195</time>
      </trkpt>
      <trkpt lat="42.51984" lon="2.05578">
        <ele>1876.7302688738</ele>
        <time>2001-05-23T13:26:05.197</time>
      </trkpt>
      <trkpt lat="42.51983" lon="2.05577">
        <ele>1876.1534605719</ele>
        <time>2001-05-23T13:26:06.197</time>
      </trkpt>
      <trkpt lat="42.51982" lon="2.05578">
        <ele>1875.2627647499</ele>
        <time>2001-05-23T13:26:07.197</time>
      </trkpt>
      <trkpt lat="42.5198" lon="2.05577">
        <ele>1874.1880493639</ele>
        <time>2001-05-23T13:26:08.197</time>
      </trkpt>
      <trkpt lat="42.5198" lon="2.05576">
        <ele>1873.2742598562</ele>
        <time>2001-05-23T13:26:09.197</time>
      </trkpt>
      <trkpt lat="42.51981" lon="2.05575">
        <ele>1873.0143104801</ele>
        <time>2001-05-23T13:26:10.197</time>
      </trkpt>
      <trkpt lat="42.51981" lon="2.05574">
        <ele>1872.4751472883</ele>
        <time>2001-05-23T13:26:11.197</time>
      </trkpt>
      <trkpt lat="42.51981" lon="2.05573">
        <ele>1872.2595684854</ele>
        <time>2001-05-23T13:26:12.197</time>
      </trkpt>
      <trkpt lat="42.51981" lon="2.05571">
        <ele>1871.8169220718</ele>
        <time>2001-05-23T13:26:13.197</time>
      </trkpt>
      <trkpt lat="42.51982" lon="2.0557">
        <ele>1871.1848522108</ele>
        <time>2001-05-23T13:26:14.197</time>
      </trkpt>
      <trkpt lat="42.51981" lon="2.05569">
        <ele>1870.4116377737</ele>
        <time>2001-05-23T13:26:15.197</time>
      </trkpt>
      <trkpt lat="42.51982" lon="2.05568">
        <ele>1869.833312008</ele>
        <time>2001-05-23T13:26:16.197</time>
      </trkpt>
      <trkpt lat="42.51981" lon="2.05566">
        <ele>1869.5595177442</ele>
        <time>2001-05-23T13:26:17.197</time>
      </trkpt>
      <trkpt lat="42.51981" lon="2.05564">
        <ele>1869.680704434</ele>
        <time>2001-05-23T13:26:18.197</time>
      </trkpt>
      <trkpt lat="42.51982" lon="2.05563">
        <ele>1869.6919114036</ele>
        <time>2001-05-23T13:26:19.197</time>
      </trkpt>
      <trkpt lat="42.51982" lon="2.05562">
        <ele>1870.1417392964</ele>
        <time>2001-05-23T13:26:20.197</time>
      </trkpt>
      <trkpt lat="42.51981" lon="2.05561">
        <ele>1870.5634038266</ele>
        <time>2001-05-23T13:26:21.197</time>
      </trkpt>
      <trkpt lat="42.5198" lon="2.05561">
        <ele>1870.9009072954</ele>
        <time>2001-05-23T13:26:22.197</time>
      </trkpt>
      <trkpt lat="42.5198" lon="2.0556">
        <ele>1871.297738306</ele>
        <time>2001-05-23T13:26:23.197</time>
      </trkpt>
      <trkpt lat="42.51979" lon="2.05558">
        <ele>1871.8426202884</ele>
        <time>2001-05-23T13:26:24.197</time>
      </trkpt>
      <trkpt lat="42.51979" lon="2.05557">
        <ele>1871.7512993105</ele>
        <time>2001-05-23T13:26:25.197</time>
      </trkpt>
      <trkpt lat="42.51978" lon="2.05556">
        <ele>1871.4435186852</ele>
        <time>2001-05-23T13:26:26.197</time>
      </trkpt>
      <trkpt lat="42.51978" lon="2.05554">
        <ele>1871.0258665303</ele>
        <time>2001-05-23T13:26:27.197</time>
      </trkpt>
      <trkpt lat="42.51977" lon="2.05553">
        <ele>1870.4439568749</ele>
        <time>2001-05-23T13:26:28.197</time>
      </trkpt>
      <trkpt lat="42.51977" lon="2.0555">
        <ele>1870.1708387051</ele>
        <time>2001-05-23T13:26:29.197</time>
      </trkpt>
      <trkpt lat="42.51977" lon="2.05549">
        <ele>1870.1036156395</ele>
        <time>2001-05-23T13:26:30.197</time>
      </trkpt>
      <trkpt lat="42.51977" lon="2.05547">
        <ele>1870.2125014026</ele>
        <time>2001-05-23T13:26:31.197</time>
      </trkpt>
      <trkpt lat="42.51977" lon="2.05545">
        <ele>1870.2858283035</ele>
        <time>2001-05-23T13:26:32.197</time>
      </trkpt>
      <trkpt lat="42.51977" lon="2.05544">
        <ele>1870.3717631688</ele>
        <time>2001-05-23T13:26:33.197</time>
      </trkpt>
      <trkpt lat="42.51976" lon="2.05543">
        <ele>1870.2172181001</ele>
        <time>2001-05-23T13:26:34.197</time>
      </trkpt>
      <trkpt lat="42.51976" lon="2.05541">
        <ele>1869.9005178301</ele>
        <time>2001-05-23T13:26:35.197</time>
      </trkpt>
      <trkpt lat="42.51976" lon="2.0554">
        <ele>1869.3032869283</ele>
        <time>2001-05-23T13:26:36.197</time>
      </trkpt>
      <trkpt lat="42.51976" lon="2.0554">
        <ele>1868.7523890549</ele>
        <time>2001-05-23T13:26:37.197</time>
      </trkpt>
      <trkpt lat="42.51976" lon="2.05539">
        <ele>1868.2499143666</ele>
        <time>2001-05-23T13:26:38.197</time>
      </trkpt>
      <trkpt lat="42.51975" lon="2.05535">
        <ele>1868.0497616239</ele>
        <time>2001-05-23T13:26:39.195</time>
      </trkpt>
      <trkpt lat="42.51974" lon="2.05534">
        <ele>1868.2051675478</ele>
        <time>2001-05-23T13:26:40.195</time>
      </trkpt>
      <trkpt lat="42.51973" lon="2.05533">
        <ele>1868.6448622361</ele>
        <time>2001-05-23T13:26:41.195</time>
      </trkpt>
      <trkpt lat="42.51973" lon="2.05531">
        <ele>1869.0520788774</ele>
        <time>2001-05-23T13:26:42.195</time>
      </trkpt>
      <trkpt lat="42.51973" lon="2.0553">
        <ele>1869.5427291401</ele>
        <time>2001-05-23T13:26:43.195</time>
      </trkpt>
      <trkpt lat="42.51973" lon="2.05529">
        <ele>1869.487042594</ele>
        <time>2001-05-23T13:26:44.195</time>
      </trkpt>
      <trkpt lat="42.51973" lon="2.05528">
        <ele>1869.3316024773</ele>
        <time>2001-05-23T13:26:45.195</time>
      </trkpt>
      <trkpt lat="42.51973" lon="2.05527">
        <ele>1868.9464523794</ele>
        <time>2001-05-23T13:26:46.195</time>
      </trkpt>
      <trkpt lat="42.51973" lon="2.05526">
        <ele>1868.4855542844</ele>
        <time>2001-05-23T13:26:47.195</time>
      </trkpt>
      <trkpt lat="42.51973" lon="2.05524">
        <ele>1868.0166682305</ele>
        <time>2001-05-23T13:26:48.195</time>
      </trkpt>
      <trkpt lat="42.51973" lon="2.05523">
        <ele>1867.8046883408</ele>
        <time>2001-05-23T13:26:49.195</time>
      </trkpt>
      <trkpt lat="42.51973" lon="2.05522">
        <ele>1867.5985138902</ele>
        <time>2001-05-23T13:26:50.195</time>
      </trkpt>
      <trkpt lat="42.51974" lon="2.05521">
        <ele>1867.5711937312</ele>
        <time>2001-05-23T13:26:51.195</time>
      </trkpt>
      <trkpt lat="42.51974" lon="2.05519">
        <ele>1867.5711873442</ele>
        <time>2001-05-23T13:26:52.195</time>
      </trkpt>
      <trkpt lat="42.51974" lon="2.05518">
        <ele>1867.450337008</ele>
        <time>2001-05-23T13:26:53.195</time>
      </trkpt>
      <trkpt lat="42.51974" lon="2.05517">
        <ele>1867.267934286</ele>
        <time>2001-05-23T13:26:54.195</time>
      </trkpt>
      <trkpt lat="42.51974" lon="2.05516">
        <ele>1867.1421615886</ele>
        <time>2001-05-23T13:26:55.195</time>
      </trkpt>
      <trkpt lat="42.51974" lon="2.05515">
        <ele>1866.8391881395</ele>
        <time>2001-05-23T13:26:56.195</time>
      </trkpt>
      <trkpt lat="42.51974" lon="2.05513">
        <ele>1866.2134542881</ele>
        <time>2001-05-23T13:26:57.198</time>
      </trkpt>
      <trkpt lat="42.51973" lon="2.05511">
        <ele>1865.4125599757</ele>
        <time>2001-05-23T13:26:58.198</time>
      </trkpt>
      <trkpt lat="42.51972" lon="2.05509">
        <ele>1865.4029419305</ele>
        <time>2001-05-23T13:26:59.198</time>
      </trkpt>
      <trkpt lat="42.51971" lon="2.05508">
        <ele>1865.5935761897</ele>
        <time>2001-05-23T13:27:00.198</time>
      </trkpt>
      <trkpt lat="42.51971" lon="2.05507">
        <ele>1865.8683149733</ele>
        <time>2001-05-23T13:27:01.198</time>
      </trkpt>
      <trkpt lat="42.51971" lon="2.05505">
        <ele>1866.5606482329</ele>
        <time>2001-05-23T13:27:02.198</time>
      </trkpt>
      <trkpt lat="42.51971" lon="2.05505">
        <ele>1867.6499766549</ele>
        <time>2001-05-23T13:27:03.198</time>
      </trkpt>
      <trkpt lat="42.51971" lon="2.05504">
        <ele>1868.3939593747</ele>
        <time>2001-05-23T13:27:04.198</time>
      </trkpt>
      <trkpt lat="42.51971" lon="2.05504">
        <ele>1868.6221223453</ele>
        <time>2001-05-23T13:27:05.198</time>
      </trkpt>
      <trkpt lat="42.51971" lon="2.05504">
        <ele>1868.8679029832</ele>
        <time>2001-05-23T13:27:06.198</time>
      </trkpt>
      <trkpt lat="42.51975" lon="2.055">
        <ele>1868.4015034717</ele>
        <time>2001-05-23T13:27:07.194</time>
      </trkpt>
      <trkpt lat="42.51976" lon="2.05499">
        <ele>1867.5031693716</ele>
        <time>2001-05-23T13:27:08.194</time>
      </trkpt>
      <trkpt lat="42.51977" lon="2.05499">
        <ele>1866.1166114675</ele>
        <time>2001-05-23T13:27:09.194</time>
      </trkpt>
      <trkpt lat="42.51977" lon="2.05499">
        <ele>1865.0391723569</ele>
        <time>2001-05-23T13:27:10.194</time>
      </trkpt>
      <trkpt lat="42.51975" lon="2.05498">
        <ele>1864.116844237</ele>
        <time>2001-05-23T13:27:11.194</time>
      </trkpt>
      <trkpt lat="42.51975" lon="2.05499">
        <ele>1863.9095748955</ele>
        <time>2001-05-23T13:27:12.194</time>
      </trkpt>
      <trkpt lat="42.51975" lon="2.05499">
        <ele>1864.0046578582</ele>
        <time>2001-05-23T13:27:13.194</time>
      </trkpt>
      <trkpt lat="42.51976" lon="2.05498">
        <ele>1863.9627922306</ele>
        <time>2001-05-23T13:27:14.194</time>
      </trkpt>
      <trkpt lat="42.51977" lon="2.05497">
        <ele>1863.5545524448</ele>
        <time>2001-05-23T13:27:15.194</time>
      </trkpt>
      <trkpt lat="42.51978" lon="2.05496">
        <ele>1862.8786032869</ele>
        <time>2001-05-23T13:27:16.194</time>
      </trkpt>
      <trkpt lat="42.51979" lon="2.05495">
        <ele>1862.1522394771</ele>
        <time>2001-05-23T13:27:17.194</time>
      </trkpt>
      <trkpt lat="42.51979" lon="2.05494">
        <ele>1861.2851088909</ele>
        <time>2001-05-23T13:27:18.194</time>
      </trkpt>
      <trkpt lat="42.51979" lon="2.05493">
        <ele>1860.7101492783</ele>
        <time>2001-05-23T13:27:19.194</time>
      </trkpt>
      <trkpt lat="42.51978" lon="2.05492">
        <ele>1860.6127733599</ele>
        <time>2001-05-23T13:27:20.194</time>
      </trkpt>
      <trkpt lat="42.51977" lon="2.05492">
        <ele>1860.5659235692</ele>
        <time>2001-05-23T13:27:21.194</time>
      </trkpt>
      <trkpt lat="42.51977" lon="2.0549">
        <ele>1860.5998519881</ele>
        <time>2001-05-23T13:27:22.194</time>
      </trkpt>
      <trkpt lat="42.51977" lon="2.05489">
        <ele>1860.8403554583</ele>
        <time>2001-05-23T13:27:23.194</time>
      </trkpt>
      <trkpt lat="42.51975" lon="2.05488">
        <ele>1861.1554346565</ele>
        <time>2001-05-23T13:27:24.190</time>
      </trkpt>
      <trkpt lat="42.51975" lon="2.05488">
        <ele>1861.2934061863</ele>
        <time>2001-05-23T13:27:25.190</time>
      </trkpt>
      <trkpt lat="42.51975" lon="2.05486">
        <ele>1861.3217858313</ele>
        <time>2001-05-23T13:27:26.189</time>
      </trkpt>
      <trkpt lat="42.51975" lon="2.05485">
        <ele>1861.099422187</ele>
        <time>2001-05-23T13:27:27.189</time>
      </trkpt>
      <trkpt lat="42.51973" lon="2.05487">
        <ele>1860.8549435707</ele>
        <time>2001-05-23T13:27:28.191</time>
      </trkpt>
      <trkpt lat="42.51973" lon="2.05488">
        <ele>1860.6139000656</ele>
        <time>2001-05-23T13:27:29.191</time>
      </trkpt>
      <trkpt lat="42.51972" lon="2.05489">
        <ele>1860.4996190641</ele>
        <time>2001-05-23T13:27:30.191</time>
      </trkpt>
      <trkpt lat="42.51971" lon="2.05489">
        <ele>1860.5357156098</ele>
        <time>2001-05-23T13:27:31.191</time>
      </trkpt>
      <trkpt lat="42.51971" lon="2.0549">
        <ele>1860.4636279494</ele>
        <time>2001-05-23T13:27:32.191</time>
      </trkpt>
      <trkpt lat="42.5197" lon="2.05491">
        <ele>1860.7876921097</ele>
        <time>2001-05-23T13:27:33.191</time>
      </trkpt>
      <trkpt lat="42.51969" lon="2.05492">
        <ele>1861.0582346693</ele>
        <time>2001-05-23T13:27:34.191</time>
      </trkpt>
      <trkpt lat="42.51968" lon="2.05493">
        <ele>1861.0879327677</ele>
        <time>2001-05-23T13:27:35.191</time>
      </trkpt>
      <trkpt lat="42.51966" lon="2.05494">
        <ele>1861.1231083661</ele>
        <time>2001-05-23T13:27:36.191</time>
      </trkpt>
      <trkpt lat="42.51965" lon="2.05494">
        <ele>1861.1016297735</ele>
        <time>2001-05-23T13:27:37.191</time>
      </trkpt>
      <trkpt lat="42.51964" lon="2.05495">
        <ele>1860.4034885284</ele>
        <time>2001-05-23T13:27:38.191</time>
      </trkpt>
      <trkpt lat="42.51963" lon="2.05496">
        <ele>1859.6818058036</ele>
        <time>2001-05-23T13:27:39.191</time>
      </trkpt>
      <trkpt lat="42.51962" lon="2.05496">
        <ele>1859.1420623984</ele>
        <time>2001-05-23T13:27:40.191</time>
      </trkpt>
      <trkpt lat="42.51961" lon="2.05497">
        <ele>1858.7082101997</ele>
        <time>2001-05-23T13:27:41.191</time>
      </trkpt>
      <trkpt lat="42.5196" lon="2.05497">
        <ele>1858.8704884868</ele>
        <time>2001-05-23T13:27:42.191</time>
      </trkpt>
      <trkpt lat="42.51959" lon="2.05497">
        <ele>1859.0458976991</ele>
        <time>2001-05-23T13:27:43.191</time>
      </trkpt>
      <trkpt lat="42.51957" lon="2.05498">
        <ele>1859.0891314354</ele>
        <time>2001-05-23T13:27:44.191</time>
      </trkpt>
      <trkpt lat="42.51955" lon="2.05497">
        <ele>1859.1451809352</ele>
        <time>2001-05-23T13:27:45.191</time>
      </trkpt>
      <trkpt lat="42.51954" lon="2.05497">
        <ele>1859.081873518</ele>
        <time>2001-05-23T13:27:46.191</time>
      </trkpt>
      <trkpt lat="42.51954" lon="2.05498">
        <ele>1858.8484607155</ele>
        <time>2001-05-23T13:27:47.191</time>
      </trkpt>
      <trkpt lat="42.51953" lon="2.05499">
        <ele>1858.908967239</ele>
        <time>2001-05-23T13:27:48.191</time>
      </trkpt>
      <trkpt lat="42.51953" lon="2.05499">
        <ele>1859.0819787476</ele>
        <time>2001-05-23T13:27:49.191</time>
      </trkpt>
      <trkpt lat="42.51952" lon="2.055">
        <ele>1859.1881992599</ele>
        <time>2001-05-23T13:27:50.191</time>
      </trkpt>
      <trkpt lat="42.51951" lon="2.055">
        <ele>1859.3103184437</ele>
        <time>2001-05-23T13:27:51.191</time>
      </trkpt>
      <trkpt lat="42.5195" lon="2.05501">
        <ele>1859.2881553741</ele>
        <time>2001-05-23T13:27:52.191</time>
      </trkpt>
      <trkpt lat="42.5195" lon="2.05501">
        <ele>1859.2519477256</ele>
        <time>2001-05-23T13:27:53.191</time>
      </trkpt>
      <trkpt lat="42.51949" lon="2.05501">
        <ele>1859.2748623464</ele>
        <time>2001-05-23T13:27:54.191</time>
      </trkpt>
      <trkpt lat="42.51948" lon="2.05501">
        <ele>1859.3994940627</ele>
        <time>2001-05-23T13:27:55.191</time>
      </trkpt>
      <trkpt lat="42.51947" lon="2.05501">
        <ele>1859.7435610659</ele>
        <time>2001-05-23T13:27:56.195</time>
      </trkpt>
      <trkpt lat="42.51946" lon="2.05501">
        <ele>1860.1965369856</ele>
        <time>2001-05-23T13:27:57.195</time>
      </trkpt>
      <trkpt lat="42.51945" lon="2.05501">
        <ele>1860.5510623896</ele>
        <time>2001-05-23T13:27:58.195</time>
      </trkpt>
      <trkpt lat="42.51944" lon="2.05501">
        <ele>1860.882933089</ele>
        <time>2001-05-23T13:27:59.195</time>
      </trkpt>
      <trkpt lat="42.51943" lon="2.05502">
        <ele>1861.2125556575</ele>
        <time>2001-05-23T13:28:00.195</time>
      </trkpt>
      <trkpt lat="42.51942" lon="2.05502">
        <ele>1861.2938852919</ele>
        <time>2001-05-23T13:28:01.195</time>
      </trkpt>
      <trkpt lat="42.51941" lon="2.05503">
        <ele>1861.2263149384</ele>
        <time>2001-05-23T13:28:02.195</time>
      </trkpt>
      <trkpt lat="42.5194" lon="2.05504">
        <ele>1861.1529148873</ele>
        <time>2001-05-23T13:28:03.195</time>
      </trkpt>
      <trkpt lat="42.51939" lon="2.05505">
        <ele>1861.009286763</ele>
        <time>2001-05-23T13:28:04.195</time>
      </trkpt>
      <trkpt lat="42.51938" lon="2.05506">
        <ele>1860.5910729628</ele>
        <time>2001-05-23T13:28:05.195</time>
      </trkpt>
      <trkpt lat="42.51938" lon="2.05507">
        <ele>1860.0589353109</ele>
        <time>2001-05-23T13:28:06.195</time>
      </trkpt>
      <trkpt lat="42.51937" lon="2.05507">
        <ele>1859.3628706014</ele>
        <time>2001-05-23T13:28:07.195</time>
      </trkpt>
      <trkpt lat="42.51937" lon="2.05507">
        <ele>1858.6641309835</ele>
        <time>2001-05-23T13:28:08.195</time>
      </trkpt>
      <trkpt lat="42.51937" lon="2.05509">
        <ele>1857.8545592962</ele>
        <time>2001-05-23T13:28:09.195</time>
      </trkpt>
      <trkpt lat="42.51936" lon="2.0551">
        <ele>1857.3113036964</ele>
        <time>2001-05-23T13:28:10.195</time>
      </trkpt>
      <trkpt lat="42.51936" lon="2.0551">
        <ele>1856.8918576336</ele>
        <time>2001-05-23T13:28:11.195</time>
      </trkpt>
      <trkpt lat="42.51936" lon="2.05512">
        <ele>1856.5605336113</ele>
        <time>2001-05-23T13:28:12.195</time>
      </trkpt>
      <trkpt lat="42.51936" lon="2.05513">
        <ele>1856.127048542</ele>
        <time>2001-05-23T13:28:13.195</time>
      </trkpt>
      <trkpt lat="42.51936" lon="2.05514">
        <ele>1855.9762341503</ele>
        <time>2001-05-23T13:28:14.195</time>
      </trkpt>
      <trkpt lat="42.51936" lon="2.05516">
        <ele>1855.8193835143</ele>
        <time>2001-05-23T13:28:15.195</time>
      </trkpt>
      <trkpt lat="42.51935" lon="2.05517">
        <ele>1855.7377935318</ele>
        <time>2001-05-23T13:28:16.195</time>
      </trkpt>
      <trkpt lat="42.51935" lon="2.05518">
        <ele>1855.8423733346</ele>
        <time>2001-05-23T13:28:17.195</time>
      </trkpt>
      <trkpt lat="42.51935" lon="2.0552">
        <ele>1856.3810937276</ele>
        <time>2001-05-23T13:28:18.195</time>
      </trkpt>
      <trkpt lat="42.51935" lon="2.05521">
        <ele>1856.7597970197</ele>
        <time>2001-05-23T13:28:19.195</time>
      </trkpt>
      <trkpt lat="42.51935" lon="2.05522">
        <ele>1856.8707821229</ele>
        <time>2001-05-23T13:28:20.195</time>
      </trkpt>
      <trkpt lat="42.51934" lon="2.05524">
        <ele>1857.1420809027</ele>
        <time>2001-05-23T13:28:21.195</time>
      </trkpt>
      <trkpt lat="42.51933" lon="2.05526">
        <ele>1857.1871462451</ele>
        <time>2001-05-23T13:28:22.195</time>
      </trkpt>
      <trkpt lat="42.51932" lon="2.05527">
        <ele>1856.755777221</ele>
        <time>2001-05-23T13:28:23.195</time>
      </trkpt>
      <trkpt lat="42.51931" lon="2.05527">
        <ele>1856.2134003161</ele>
        <time>2001-05-23T13:28:24.195</time>
      </trkpt>
      <trkpt lat="42.5193" lon="2.05528">
        <ele>1855.6782353038</ele>
        <time>2001-05-23T13:28:25.195</time>
      </trkpt>
      <trkpt lat="42.51929" lon="2.05529">
        <ele>1854.8646721505</ele>
        <time>2001-05-23T13:28:26.195</time>
      </trkpt>
      <trkpt lat="42.51928" lon="2.05529">
        <ele>1854.3270117654</ele>
        <time>2001-05-23T13:28:27.195</time>
      </trkpt>
      <trkpt lat="42.51927" lon="2.0553">
        <ele>1854.1389610551</ele>
        <time>2001-05-23T13:28:28.195</time>
      </trkpt>
      <trkpt lat="42.51926" lon="2.0553">
        <ele>1854.2853297152</ele>
        <time>2001-05-23T13:28:29.195</time>
      </trkpt>
      <trkpt lat="42.51926" lon="2.05531">
        <ele>1854.8165878711</ele>
        <time>2001-05-23T13:28:30.195</time>
      </trkpt>
      <trkpt lat="42.51926" lon="2.05532">
        <ele>1855.391969962</ele>
        <time>2001-05-23T13:28:31.195</time>
      </trkpt>
      <trkpt lat="42.51925" lon="2.05536">
        <ele>1855.1857061978</ele>
        <time>2001-05-23T13:28:32.194</time>
      </trkpt>
      <trkpt lat="42.51925" lon="2.05537">
        <ele>1854.9351696718</ele>
        <time>2001-05-23T13:28:33.194</time>
      </trkpt>
      <trkpt lat="42.51924" lon="2.05537">
        <ele>1854.5281512292</ele>
        <time>2001-05-23T13:28:34.192</time>
      </trkpt>
      <trkpt lat="42.51924" lon="2.05537">
        <ele>1853.9537536211</ele>
        <time>2001-05-23T13:28:35.192</time>
      </trkpt>
      <trkpt lat="42.51924" lon="2.05538">
        <ele>1853.4154457953</ele>
        <time>2001-05-23T13:28:36.194</time>
      </trkpt>
      <trkpt lat="42.51924" lon="2.05538">
        <ele>1853.5400068512</ele>
        <time>2001-05-23T13:28:37.194</time>
      </trkpt>
      <trkpt lat="42.51924" lon="2.05539">
        <ele>1853.7900663255</ele>
        <time>2001-05-23T13:28:38.195</time>
      </trkpt>
      <trkpt lat="42.51923" lon="2.0554">
        <ele>1854.3233847244</ele>
        <time>2001-05-23T13:28:39.195</time>
      </trkpt>
      <trkpt lat="42.51923" lon="2.05539">
        <ele>1854.5421722885</ele>
        <time>2001-05-23T13:28:40.193</time>
      </trkpt>
      <trkpt lat="42.51923" lon="2.05539">
        <ele>1854.7559180392</ele>
        <time>2001-05-23T13:28:41.193</time>
      </trkpt>
      <trkpt lat="42.51923" lon="2.0554">
        <ele>1855.2207213044</ele>
        <time>2001-05-23T13:28:42.192</time>
      </trkpt>
      <trkpt lat="42.51923" lon="2.05541">
        <ele>1855.4395253889</ele>
        <time>2001-05-23T13:28:43.192</time>
      </trkpt>
      <trkpt lat="42.51921" lon="2.05541">
        <ele>1855.7259122401</ele>
        <time>2001-05-23T13:28:44.198</time>
      </trkpt>
      <trkpt lat="42.5192" lon="2.05543">
        <ele>1856.4737952949</ele>
        <time>2001-05-23T13:28:45.198</time>
      </trkpt>
      <trkpt lat="42.51919" lon="2.05544">
        <ele>1857.5855047351</ele>
        <time>2001-05-23T13:28:46.198</time>
      </trkpt>
      <trkpt lat="42.51918" lon="2.05544">
        <ele>1858.3784327731</ele>
        <time>2001-05-23T13:28:47.198</time>
      </trkpt>
      <trkpt lat="42.51918" lon="2.05545">
        <ele>1859.2501720715</ele>
        <time>2001-05-23T13:28:48.198</time>
      </trkpt>
      <trkpt lat="42.51918" lon="2.05546">
        <ele>1859.7535287039</ele>
        <time>2001-05-23T13:28:49.198</time>
      </trkpt>
      <trkpt lat="42.51917" lon="2.05548">
        <ele>1860.2611317167</ele>
        <time>2001-05-23T13:28:50.198</time>
      </trkpt>
      <trkpt lat="42.51917" lon="2.05549">
        <ele>1861.0103993179</ele>
        <time>2001-05-23T13:28:51.198</time>
      </trkpt>
      <trkpt lat="42.51916" lon="2.0555">
        <ele>1861.6449442368</ele>
        <time>2001-05-23T13:28:52.198</time>
      </trkpt>
      <trkpt lat="42.51916" lon="2.0555">
        <ele>1862.1791093331</ele>
        <time>2001-05-23T13:28:53.198</time>
      </trkpt>
      <trkpt lat="42.51915" lon="2.05551">
        <ele>1862.8125968559</ele>
        <time>2001-05-23T13:28:54.198</time>
      </trkpt>
      <trkpt lat="42.51914" lon="2.05554">
        <ele>1863.3755315082</ele>
        <time>2001-05-23T13:28:55.196</time>
      </trkpt>
      <trkpt lat="42.51915" lon="2.05555">
        <ele>1863.4898234937</ele>
        <time>2001-05-23T13:28:56.196</time>
      </trkpt>
      <trkpt lat="42.51916" lon="2.05556">
        <ele>1863.6215856975</ele>
        <time>2001-05-23T13:28:57.196</time>
      </trkpt>
      <trkpt lat="42.51916" lon="2.05556">
        <ele>1863.7853021141</ele>
        <time>2001-05-23T13:28:58.196</time>
      </trkpt>
      <trkpt lat="42.51916" lon="2.05559">
        <ele>1863.9856494345</ele>
        <time>2001-05-23T13:28:59.196</time>
      </trkpt>
      <trkpt lat="42.51916" lon="2.0556">
        <ele>1863.9332577147</ele>
        <time>2001-05-23T13:29:00.196</time>
      </trkpt>
      <trkpt lat="42.5192" lon="2.05563">
        <ele>1863.3091078563</ele>
        <time>2001-05-23T13:29:01.196</time>
      </trkpt>
      <trkpt lat="42.5192" lon="2.05564">
        <ele>1862.6467131447</ele>
        <time>2001-05-23T13:29:02.196</time>
      </trkpt>
      <trkpt lat="42.51921" lon="2.05566">
        <ele>1861.8386945656</ele>
        <time>2001-05-23T13:29:03.196</time>
      </trkpt>
      <trkpt lat="42.51922" lon="2.05567">
        <ele>1860.722092263</ele>
        <time>2001-05-23T13:29:04.196</time>
      </trkpt>
      <trkpt lat="42.51923" lon="2.05569">
        <ele>1859.6091646649</ele>
        <time>2001-05-23T13:29:05.196</time>
      </trkpt>
      <trkpt lat="42.51925" lon="2.0557">
        <ele>1858.7344870541</ele>
        <time>2001-05-23T13:29:06.196</time>
      </trkpt>
      <trkpt lat="42.51926" lon="2.05572">
        <ele>1857.7854265662</ele>
        <time>2001-05-23T13:29:07.196</time>
      </trkpt>
      <trkpt lat="42.51927" lon="2.05574">
        <ele>1856.6178471001</ele>
        <time>2001-05-23T13:29:08.196</time>
      </trkpt>
      <trkpt lat="42.51927" lon="2.05576">
        <ele>1855.8214775601</ele>
        <time>2001-05-23T13:29:09.196</time>
      </trkpt>
      <trkpt lat="42.51927" lon="2.05577">
        <ele>1855.2341631042</ele>
        <time>2001-05-23T13:29:10.196</time>
      </trkpt>
      <trkpt lat="42.51926" lon="2.05578">
        <ele>1854.6635562196</ele>
        <time>2001-05-23T13:29:11.196</time>
      </trkpt>
      <trkpt lat="42.51926" lon="2.05579">
        <ele>1854.2244727302</ele>
        <time>2001-05-23T13:29:12.196</time>
      </trkpt>
      <trkpt lat="42.51926" lon="2.0558">
        <ele>1854.0344309555</ele>
        <time>2001-05-23T13:29:13.196</time>
      </trkpt>
      <trkpt lat="42.51926" lon="2.05581">
        <ele>1853.5611371899</ele>
        <time>2001-05-23T13:29:14.196</time>
      </trkpt>
      <trkpt lat="42.51926" lon="2.05582">
        <ele>1852.9957908988</ele>
        <time>2001-05-23T13:29:15.196</time>
      </trkpt>
      <trkpt lat="42.51927" lon="2.05583">
        <ele>1852.4559128521</ele>
        <time>2001-05-23T13:29:16.196</time>
      </trkpt>
      <trkpt lat="42.51927" lon="2.05584">
        <ele>1852.0820092749</ele>
        <time>2001-05-23T13:29:17.196</time>
      </trkpt>
      <trkpt lat="42.51927" lon="2.05585">
        <ele>1851.9669206252</ele>
        <time>2001-05-23T13:29:18.196</time>
      </trkpt>
      <trkpt lat="42.51927" lon="2.05586">
        <ele>1851.9015803125</ele>
        <time>2001-05-23T13:29:19.196</time>
      </trkpt>
      <trkpt lat="42.51927" lon="2.05588">
        <ele>1851.48885384</ele>
        <time>2001-05-23T13:29:20.200</time>
      </trkpt>
      <trkpt lat="42.51928" lon="2.05589">
        <ele>1851.0424624985</ele>
        <time>2001-05-23T13:29:21.200</time>
      </trkpt>
      <trkpt lat="42.51927" lon="2.0559">
        <ele>1850.4871993376</ele>
        <time>2001-05-23T13:29:22.200</time>
      </trkpt>
      <trkpt lat="42.51927" lon="2.05592">
        <ele>1849.7298548795</ele>
        <time>2001-05-23T13:29:23.200</time>
      </trkpt>
      <trkpt lat="42.51927" lon="2.05594">
        <ele>1848.9838885438</ele>
        <time>2001-05-23T13:29:24.200</time>
      </trkpt>
      <trkpt lat="42.51927" lon="2.05595">
        <ele>1848.6930036761</ele>
        <time>2001-05-23T13:29:25.200</time>
      </trkpt>
      <trkpt lat="42.51928" lon="2.05595">
        <ele>1848.8093701147</ele>
        <time>2001-05-23T13:29:26.200</time>
      </trkpt>
      <trkpt lat="42.51928" lon="2.05595">
        <ele>1849.258307012</ele>
        <time>2001-05-23T13:29:27.200</time>
      </trkpt>
      <trkpt lat="42.51929" lon="2.05597">
        <ele>1849.750550288</ele>
        <time>2001-05-23T13:29:28.200</time>
      </trkpt>
      <trkpt lat="42.51929" lon="2.05597">
        <ele>1850.3403353872</ele>
        <time>2001-05-23T13:29:29.200</time>
      </trkpt>
      <trkpt lat="42.5193" lon="2.05599">
        <ele>1851.0158777669</ele>
        <time>2001-05-23T13:29:30.200</time>
      </trkpt>
      <trkpt lat="42.51931" lon="2.05599">
        <ele>1851.5590870662</ele>
        <time>2001-05-23T13:29:31.200</time>
      </trkpt>
      <trkpt lat="42.51932" lon="2.05602">
        <ele>1851.6939716473</ele>
        <time>2001-05-23T13:29:32.201</time>
      </trkpt>
      <trkpt lat="42.51932" lon="2.05604">
        <ele>1851.8541188985</ele>
        <time>2001-05-23T13:29:33.201</time>
      </trkpt>
      <trkpt lat="42.51932" lon="2.05605">
        <ele>1851.8768332656</ele>
        <time>2001-05-23T13:29:34.201</time>
      </trkpt>
      <trkpt lat="42.51933" lon="2.05606">
        <ele>1851.980802119</ele>
        <time>2001-05-23T13:29:35.201</time>
      </trkpt>
      <trkpt lat="42.51933" lon="2.05607">
        <ele>1852.144121604</ele>
        <time>2001-05-23T13:29:36.201</time>
      </trkpt>
      <trkpt lat="42.51934" lon="2.05608">
        <ele>1852.4847468693</ele>
        <time>2001-05-23T13:29:37.201</time>
      </trkpt>
      <trkpt lat="42.51934" lon="2.05609">
        <ele>1852.8509171249</ele>
        <time>2001-05-23T13:29:38.201</time>
      </trkpt>
      <trkpt lat="42.51935" lon="2.0561">
        <ele>1853.4554413958</ele>
        <time>2001-05-23T13:29:39.201</time>
      </trkpt>
      <trkpt lat="42.51935" lon="2.05611">
        <ele>1853.8384822277</ele>
        <time>2001-05-23T13:29:40.201</time>
      </trkpt>
      <trkpt lat="42.51935" lon="2.05612">
        <ele>1854.1623371622</ele>
        <time>2001-05-23T13:29:41.201</time>
      </trkpt>
      <trkpt lat="42.51935" lon="2.05612">
        <ele>1854.6900931742</ele>
        <time>2001-05-23T13:29:42.201</time>
      </trkpt>
      <trkpt lat="42.51934" lon="2.05614">
        <ele>1855.2746094756</ele>
        <time>2001-05-23T13:29:43.200</time>
      </trkpt>
      <trkpt lat="42.51934" lon="2.05615">
        <ele>1855.842723785</ele>
        <time>2001-05-23T13:29:44.200</time>
      </trkpt>
      <trkpt lat="42.51934" lon="2.05616">
        <ele>1856.8565313196</ele>
        <time>2001-05-23T13:29:45.200</time>
      </trkpt>
      <trkpt lat="42.51934" lon="2.05618">
        <ele>1857.8933739938</ele>
        <time>2001-05-23T13:29:46.202</time>
      </trkpt>
      <trkpt lat="42.51935" lon="2.05619">
        <ele>1858.5551029446</ele>
        <time>2001-05-23T13:29:47.202</time>
      </trkpt>
      <trkpt lat="42.51935" lon="2.0562">
        <ele>1858.8708428701</ele>
        <time>2001-05-23T13:29:48.202</time>
      </trkpt>
      <trkpt lat="42.51936" lon="2.05622">
        <ele>1859.1218227008</ele>
        <time>2001-05-23T13:29:49.202</time>
      </trkpt>
      <trkpt lat="42.51937" lon="2.05623">
        <ele>1858.9785603948</ele>
        <time>2001-05-23T13:29:50.202</time>
      </trkpt>
      <trkpt lat="42.51938" lon="2.05625">
        <ele>1858.8322320975</ele>
        <time>2001-05-23T13:29:51.202</time>
      </trkpt>
      <trkpt lat="42.51938" lon="2.05626">
        <ele>1858.8782920299</ele>
        <time>2001-05-23T13:29:52.202</time>
      </trkpt>
      <trkpt lat="42.51938" lon="2.05627">
        <ele>1859.2033411814</ele>
        <time>2001-05-23T13:29:53.202</time>
      </trkpt>
      <trkpt lat="42.51938" lon="2.05627">
        <ele>1859.4551804634</ele>
        <time>2001-05-23T13:29:54.202</time>
      </trkpt>
      <trkpt lat="42.51939" lon="2.05628">
        <ele>1859.8180562139</ele>
        <time>2001-05-23T13:29:55.202</time>
      </trkpt>
      <trkpt lat="42.5194" lon="2.05627">
        <ele>1860.1850485956</ele>
        <time>2001-05-23T13:29:56.204</time>
      </trkpt>
      <trkpt lat="42.5194" lon="2.05627">
        <ele>1860.5182919096</ele>
        <time>2001-05-23T13:29:57.204</time>
      </trkpt>
      <trkpt lat="42.51939" lon="2.05629">
        <ele>1860.6730000118</ele>
        <time>2001-05-23T13:29:58.199</time>
      </trkpt>
      <trkpt lat="42.51939" lon="2.05631">
        <ele>1861.3163081115</ele>
        <time>2001-05-23T13:29:59.199</time>
      </trkpt>
      <trkpt lat="42.51939" lon="2.05632">
        <ele>1861.655513647</ele>
        <time>2001-05-23T13:30:00.199</time>
      </trkpt>
      <trkpt lat="42.51938" lon="2.05633">
        <ele>1861.6122351239</ele>
        <time>2001-05-23T13:30:01.199</time>
      </trkpt>
      <trkpt lat="42.51939" lon="2.05634">
        <ele>1861.5562895352</ele>
        <time>2001-05-23T13:30:02.199</time>
      </trkpt>
      <trkpt lat="42.51939" lon="2.05635">
        <ele>1861.6049033206</ele>
        <time>2001-05-23T13:30:03.199</time>
      </trkpt>
      <trkpt lat="42.51939" lon="2.05636">
        <ele>1861.0643509418</ele>
        <time>2001-05-23T13:30:04.199</time>
      </trkpt>
      <trkpt lat="42.51939" lon="2.05637">
        <ele>1860.2445374822</ele>
        <time>2001-05-23T13:30:05.197</time>
      </trkpt>
      <trkpt lat="42.5194" lon="2.05638">
        <ele>1859.7516520523</ele>
        <time>2001-05-23T13:30:06.197</time>
      </trkpt>
      <trkpt lat="42.5194" lon="2.05639">
        <ele>1859.1723233368</ele>
        <time>2001-05-23T13:30:07.197</time>
      </trkpt>
      <trkpt lat="42.5194" lon="2.0564">
        <ele>1858.6618760437</ele>
        <time>2001-05-23T13:30:08.197</time>
      </trkpt>
      <trkpt lat="42.51941" lon="2.05642">
        <ele>1858.2323672511</ele>
        <time>2001-05-23T13:30:09.197</time>
      </trkpt>
      <trkpt lat="42.51941" lon="2.05642">
        <ele>1858.2602646571</ele>
        <time>2001-05-23T13:30:10.197</time>
      </trkpt>
      <trkpt lat="42.51941" lon="2.05643">
        <ele>1858.1056384478</ele>
        <time>2001-05-23T13:30:11.197</time>
      </trkpt>
      <trkpt lat="42.51941" lon="2.05645">
        <ele>1857.9843396151</ele>
        <time>2001-05-23T13:30:12.197</time>
      </trkpt>
      <trkpt lat="42.5194" lon="2.05646">
        <ele>1857.735998442</ele>
        <time>2001-05-23T13:30:13.197</time>
      </trkpt>
      <trkpt lat="42.5194" lon="2.05647">
        <ele>1857.5389677268</ele>
        <time>2001-05-23T13:30:14.197</time>
      </trkpt>
      <trkpt lat="42.5194" lon="2.05647">
        <ele>1857.2103778128</ele>
        <time>2001-05-23T13:30:15.197</time>
      </trkpt>
      <trkpt lat="42.51941" lon="2.05649">
        <ele>1857.3145389726</ele>
        <time>2001-05-23T13:30:16.197</time>
      </trkpt>
      <trkpt lat="42.51941" lon="2.0565">
        <ele>1857.4691718038</ele>
        <time>2001-05-23T13:30:17.197</time>
      </trkpt>
      <trkpt lat="42.5194" lon="2.05651">
        <ele>1857.7155533301</ele>
        <time>2001-05-23T13:30:18.197</time>
      </trkpt>
      <trkpt lat="42.51941" lon="2.05652">
        <ele>1857.7443308441</ele>
        <time>2001-05-23T13:30:19.197</time>
      </trkpt>
      <trkpt lat="42.51942" lon="2.05653">
        <ele>1857.735156785</ele>
        <time>2001-05-23T13:30:20.197</time>
      </trkpt>
      <trkpt lat="42.51943" lon="2.05654">
        <ele>1857.3862903357</ele>
        <time>2001-05-23T13:30:21.197</time>
      </trkpt>
      <trkpt lat="42.51943" lon="2.05655">
        <ele>1856.9973315928</ele>
        <time>2001-05-23T13:30:22.197</time>
      </trkpt>
      <trkpt lat="42.51944" lon="2.05656">
        <ele>1856.6096710958</ele>
        <time>2001-05-23T13:30:23.197</time>
      </trkpt>
      <trkpt lat="42.51944" lon="2.05657">
        <ele>1856.4938678317</ele>
        <time>2001-05-23T13:30:24.197</time>
      </trkpt>
      <trkpt lat="42.51944" lon="2.05659">
        <ele>1856.624989726</ele>
        <time>2001-05-23T13:30:25.197</time>
      </trkpt>
      <trkpt lat="42.51945" lon="2.0566">
        <ele>1856.7648444898</ele>
        <time>2001-05-23T13:30:26.197</time>
      </trkpt>
      <trkpt lat="42.51944" lon="2.05661">
        <ele>1856.9535543533</ele>
        <time>2001-05-23T13:30:27.197</time>
      </trkpt>
      <trkpt lat="42.51944" lon="2.05662">
        <ele>1856.9088437254</ele>
        <time>2001-05-23T13:30:28.197</time>
      </trkpt>
      <trkpt lat="42.51945" lon="2.05663">
        <ele>1856.7426162574</ele>
        <time>2001-05-23T13:30:29.197</time>
      </trkpt>
      <trkpt lat="42.51945" lon="2.05664">
        <ele>1856.6121154321</ele>
        <time>2001-05-23T13:30:30.197</time>
      </trkpt>
      <trkpt lat="42.51947" lon="2.05665">
        <ele>1856.3092980899</ele>
        <time>2001-05-23T13:30:31.197</time>
      </trkpt>
      <trkpt lat="42.51948" lon="2.05667">
        <ele>1856.1778560227</ele>
        <time>2001-05-23T13:30:32.197</time>
      </trkpt>
      <trkpt lat="42.51948" lon="2.05669">
        <ele>1856.5234618833</ele>
        <time>2001-05-23T13:30:33.197</time>
      </trkpt>
      <trkpt lat="42.51948" lon="2.05669">
        <ele>1856.7780812252</ele>
        <time>2001-05-23T13:30:34.197</time>
      </trkpt>
      <trkpt lat="42.51948" lon="2.05669">
        <ele>1856.8828550214</ele>
        <time>2001-05-23T13:30:35.197</time>
      </trkpt>
      <trkpt lat="42.51947" lon="2.05669">
        <ele>1856.9896613695</ele>
        <time>2001-05-23T13:30:36.197</time>
      </trkpt>
      <trkpt lat="42.51948" lon="2.05673">
        <ele>1857.0777315367</ele>
        <time>2001-05-23T13:30:37.199</time>
      </trkpt>
      <trkpt lat="42.51948" lon="2.05674">
        <ele>1857.0437279057</ele>
        <time>2001-05-23T13:30:38.199</time>
      </trkpt>
      <trkpt lat="42.51948" lon="2.05675">
        <ele>1856.8401907532</ele>
        <time>2001-05-23T13:30:39.199</time>
      </trkpt>
      <trkpt lat="42.51947" lon="2.05676">
        <ele>1856.1496442795</ele>
        <time>2001-05-23T13:30:40.199</time>
      </trkpt>
      <trkpt lat="42.51947" lon="2.05676">
        <ele>1855.5003348701</ele>
        <time>2001-05-23T13:30:41.199</time>
      </trkpt>
      <trkpt lat="42.51947" lon="2.05677">
        <ele>1854.8080603648</ele>
        <time>2001-05-23T13:30:42.199</time>
      </trkpt>
      <trkpt lat="42.51948" lon="2.05678">
        <ele>1854.0833154138</ele>
        <time>2001-05-23T13:30:43.199</time>
      </trkpt>
      <trkpt lat="42.51949" lon="2.05679">
        <ele>1854.0591947546</ele>
        <time>2001-05-23T13:30:44.199</time>
      </trkpt>
      <trkpt lat="42.5195" lon="2.0568">
        <ele>1854.5884265628</ele>
        <time>2001-05-23T13:30:45.199</time>
      </trkpt>
      <trkpt lat="42.5195" lon="2.05681">
        <ele>1855.3198908214</ele>
        <time>2001-05-23T13:30:46.199</time>
      </trkpt>
      <trkpt lat="42.5195" lon="2.05681">
        <ele>1855.9870596699</ele>
        <time>2001-05-23T13:30:47.199</time>
      </trkpt>
      <trkpt lat="42.51951" lon="2.05682">
        <ele>1856.3634729158</ele>
        <time>2001-05-23T13:30:48.199</time>
      </trkpt>
      <trkpt lat="42.51951" lon="2.05684">
        <ele>1856.1133064257</ele>
        <time>2001-05-23T13:30:49.196</time>
      </trkpt>
      <trkpt lat="42.51951" lon="2.05685">
        <ele>1855.6836391037</ele>
        <time>2001-05-23T13:30:50.196</time>
      </trkpt>
      <trkpt lat="42.51952" lon="2.05688">
        <ele>1855.6781248068</ele>
        <time>2001-05-23T13:30:51.193</time>
      </trkpt>
      <trkpt lat="42.51952" lon="2.05691">
        <ele>1856.1178279946</ele>
        <time>2001-05-23T13:30:52.193</time>
      </trkpt>
      <trkpt lat="42.51953" lon="2.05693">
        <ele>1856.9640185919</ele>
        <time>2001-05-23T13:30:53.193</time>
      </trkpt>
      <trkpt lat="42.51953" lon="2.05695">
        <ele>1858.4447238587</ele>
        <time>2001-05-23T13:30:54.193</time>
      </trkpt>
      <trkpt lat="42.51953" lon="2.05696">
        <ele>1860.0115624335</ele>
        <time>2001-05-23T13:30:55.193</time>
      </trkpt>
      <trkpt lat="42.51954" lon="2.05696">
        <ele>1860.9996132499</ele>
        <time>2001-05-23T13:30:56.193</time>
      </trkpt>
      <trkpt lat="42.51954" lon="2.05696">
        <ele>1861.5165120823</ele>
        <time>2001-05-23T13:30:57.193</time>
      </trkpt>
      <trkpt lat="42.51955" lon="2.05697">
        <ele>1861.9113847461</ele>
        <time>2001-05-23T13:30:58.193</time>
      </trkpt>
      <trkpt lat="42.51956" lon="2.05697">
        <ele>1862.2062983295</ele>
        <time>2001-05-23T13:30:59.193</time>
      </trkpt>
      <trkpt lat="42.51956" lon="2.05698">
        <ele>1862.478832119</ele>
        <time>2001-05-23T13:31:00.193</time>
      </trkpt>
      <trkpt lat="42.51956" lon="2.05699">
        <ele>1862.9212776223</ele>
        <time>2001-05-23T13:31:01.193</time>
      </trkpt>
      <trkpt lat="42.51957" lon="2.057">
        <ele>1863.5384968037</ele>
        <time>2001-05-23T13:31:02.193</time>
      </trkpt>
      <trkpt lat="42.51957" lon="2.05702">
        <ele>1864.2073223224</ele>
        <time>2001-05-23T13:31:03.193</time>
      </trkpt>
      <trkpt lat="42.51958" lon="2.05703">
        <ele>1864.5366141284</ele>
        <time>2001-05-23T13:31:04.193</time>
      </trkpt>
      <trkpt lat="42.51959" lon="2.05704">
        <ele>1864.7976582669</ele>
        <time>2001-05-23T13:31:05.193</time>
      </trkpt>
      <trkpt lat="42.51959" lon="2.05704">
        <ele>1864.4679264024</ele>
        <time>2001-05-23T13:31:06.193</time>
      </trkpt>
      <trkpt lat="42.51959" lon="2.05705">
        <ele>1862.9128727827</ele>
        <time>2001-05-23T13:31:07.193</time>
      </trkpt>
      <trkpt lat="42.5196" lon="2.05707">
        <ele>1860.7580015477</ele>
        <time>2001-05-23T13:31:08.193</time>
      </trkpt>
      <trkpt lat="42.51961" lon="2.05709">
        <ele>1858.7856272383</ele>
        <time>2001-05-23T13:31:09.193</time>
      </trkpt>
      <trkpt lat="42.51962" lon="2.05709">
        <ele>1857.1744093912</ele>
        <time>2001-05-23T13:31:10.193</time>
      </trkpt>
      <trkpt lat="42.51963" lon="2.05711">
        <ele>1856.4717277087</ele>
        <time>2001-05-23T13:31:11.193</time>
      </trkpt>
      <trkpt lat="42.51964" lon="2.05712">
        <ele>1857.1467602398</ele>
        <time>2001-05-23T13:31:12.193</time>
      </trkpt>
      <trkpt lat="42.51965" lon="2.05714">
        <ele>1858.4609687779</ele>
        <time>2001-05-23T13:31:13.193</time>
      </trkpt>
      <trkpt lat="42.51966" lon="2.05714">
        <ele>1859.824866841</ele>
        <time>2001-05-23T13:31:14.193</time>
      </trkpt>
      <trkpt lat="42.51967" lon="2.05715">
        <ele>1860.8807431247</ele>
        <time>2001-05-23T13:31:15.193</time>
      </trkpt>
      <trkpt lat="42.51967" lon="2.05716">
        <ele>1861.3697039669</ele>
        <time>2001-05-23T13:31:16.193</time>
      </trkpt>
      <trkpt lat="42.51967" lon="2.05715">
        <ele>1861.1956192853</ele>
        <time>2001-05-23T13:31:17.193</time>
      </trkpt>
      <trkpt lat="42.51969" lon="2.05716">
        <ele>1861.8213069038</ele>
        <time>2001-05-23T13:31:18.192</time>
      </trkpt>
      <trkpt lat="42.5197" lon="2.05717">
        <ele>1862.3245220263</ele>
        <time>2001-05-23T13:31:19.192</time>
      </trkpt>
      <trkpt lat="42.5197" lon="2.05718">
        <ele>1863.0104002329</ele>
        <time>2001-05-23T13:31:20.192</time>
      </trkpt>
      <trkpt lat="42.51971" lon="2.05719">
        <ele>1863.6970545055</ele>
        <time>2001-05-23T13:31:21.192</time>
      </trkpt>
      <trkpt lat="42.51971" lon="2.05721">
        <ele>1864.1241789147</ele>
        <time>2001-05-23T13:31:22.192</time>
      </trkpt>
      <trkpt lat="42.51971" lon="2.05722">
        <ele>1863.4099743959</ele>
        <time>2001-05-23T13:31:23.192</time>
      </trkpt>
      <trkpt lat="42.51971" lon="2.05723">
        <ele>1862.3022345478</ele>
        <time>2001-05-23T13:31:24.192</time>
      </trkpt>
      <trkpt lat="42.51971" lon="2.05723">
        <ele>1861.2902386378</ele>
        <time>2001-05-23T13:31:25.192</time>
      </trkpt>
      <trkpt lat="42.5197" lon="2.05724">
        <ele>1860.331243372</ele>
        <time>2001-05-23T13:31:26.192</time>
      </trkpt>
      <trkpt lat="42.51972" lon="2.05725">
        <ele>1860.0525070267</ele>
        <time>2001-05-23T13:31:27.195</time>
      </trkpt>
      <trkpt lat="42.51972" lon="2.05725">
        <ele>1859.9856112311</ele>
        <time>2001-05-23T13:31:28.195</time>
      </trkpt>
      <trkpt lat="42.51973" lon="2.05726">
        <ele>1860.0900336362</ele>
        <time>2001-05-23T13:31:29.195</time>
      </trkpt>
      <trkpt lat="42.51974" lon="2.05726">
        <ele>1860.0634568837</ele>
        <time>2001-05-23T13:31:30.195</time>
      </trkpt>
      <trkpt lat="42.51975" lon="2.05727">
        <ele>1860.4759143796</ele>
        <time>2001-05-23T13:31:31.195</time>
      </trkpt>
      <trkpt lat="42.51974" lon="2.05728">
        <ele>1860.949782013</ele>
        <time>2001-05-23T13:31:32.195</time>
      </trkpt>
      <trkpt lat="42.51975" lon="2.05729">
        <ele>1861.4389142092</ele>
        <time>2001-05-23T13:31:33.195</time>
      </trkpt>
      <trkpt lat="42.51976" lon="2.0573">
        <ele>1862.1017123859</ele>
        <time>2001-05-23T13:31:34.195</time>
      </trkpt>
      <trkpt lat="42.51975" lon="2.0573">
        <ele>1862.534139972</ele>
        <time>2001-05-23T13:31:35.195</time>
      </trkpt>
      <trkpt lat="42.51976" lon="2.05731">
        <ele>1862.5898252064</ele>
        <time>2001-05-23T13:31:36.195</time>
      </trkpt>
      <trkpt lat="42.51976" lon="2.05732">
        <ele>1862.1246774051</ele>
        <time>2001-05-23T13:31:37.195</time>
      </trkpt>
      <trkpt lat="42.51978" lon="2.05734">
        <ele>1861.3877105789</ele>
        <time>2001-05-23T13:31:38.194</time>
      </trkpt>
      <trkpt lat="42.51979" lon="2.05735">
        <ele>1860.6162433933</ele>
        <time>2001-05-23T13:31:39.194</time>
      </trkpt>
      <trkpt lat="42.51979" lon="2.05735">
        <ele>1860.1058293359</ele>
        <time>2001-05-23T13:31:40.194</time>
      </trkpt>
      <trkpt lat="42.5198" lon="2.05736">
        <ele>1859.4391494406</ele>
        <time>2001-05-23T13:31:41.195</time>
      </trkpt>
      <trkpt lat="42.5198" lon="2.05737">
        <ele>1859.2188730834</ele>
        <time>2001-05-23T13:31:42.195</time>
      </trkpt>
      <trkpt lat="42.51981" lon="2.05738">
        <ele>1859.209579239</ele>
        <time>2001-05-23T13:31:43.195</time>
      </trkpt>
      <trkpt lat="42.51982" lon="2.05739">
        <ele>1859.1517467342</ele>
        <time>2001-05-23T13:31:44.195</time>
      </trkpt>
      <trkpt lat="42.51982" lon="2.05742">
        <ele>1858.9521015877</ele>
        <time>2001-05-23T13:31:45.199</time>
      </trkpt>
      <trkpt lat="42.51981" lon="2.05743">
        <ele>1858.8492907066</ele>
        <time>2001-05-23T13:31:46.199</time>
      </trkpt>
      <trkpt lat="42.51984" lon="2.05744">
        <ele>1858.3657993022</ele>
        <time>2001-05-23T13:31:47.200</time>
      </trkpt>
      <trkpt lat="42.51985" lon="2.05744">
        <ele>1857.5291876115</ele>
        <time>2001-05-23T13:31:48.200</time>
      </trkpt>
      <trkpt lat="42.51986" lon="2.05745">
        <ele>1856.6836902017</ele>
        <time>2001-05-23T13:31:49.200</time>
      </trkpt>
      <trkpt lat="42.51986" lon="2.05746">
        <ele>1855.8554544497</ele>
        <time>2001-05-23T13:31:50.200</time>
      </trkpt>
      <trkpt lat="42.51986" lon="2.05746">
        <ele>1855.0985053163</ele>
        <time>2001-05-23T13:31:51.200</time>
      </trkpt>
      <trkpt lat="42.51987" lon="2.05746">
        <ele>1854.6420834098</ele>
        <time>2001-05-23T13:31:52.200</time>
      </trkpt>
      <trkpt lat="42.51987" lon="2.05749">
        <ele>1854.3394506179</ele>
        <time>2001-05-23T13:31:53.200</time>
      </trkpt>
      <trkpt lat="42.51988" lon="2.0575">
        <ele>1854.0775669666</ele>
        <time>2001-05-23T13:31:54.200</time>
      </trkpt>
      <trkpt lat="42.51989" lon="2.0575">
        <ele>1853.8542936858</ele>
        <time>2001-05-23T13:31:55.200</time>
      </trkpt>
      <trkpt lat="42.5199" lon="2.05751">
        <ele>1853.7090706557</ele>
        <time>2001-05-23T13:31:56.200</time>
      </trkpt>
      <trkpt lat="42.51991" lon="2.05752">
        <ele>1853.6289581226</ele>
        <time>2001-05-23T13:31:57.200</time>
      </trkpt>
      <trkpt lat="42.51991" lon="2.05753">
        <ele>1853.7701463275</ele>
        <time>2001-05-23T13:31:58.200</time>
      </trkpt>
      <trkpt lat="42.51992" lon="2.05756">
        <ele>1854.4247171089</ele>
        <time>2001-05-23T13:31:59.200</time>
      </trkpt>
      <trkpt lat="42.51991" lon="2.05756">
        <ele>1854.7772803759</ele>
        <time>2001-05-23T13:32:00.200</time>
      </trkpt>
      <trkpt lat="42.5199" lon="2.05757">
        <ele>1854.8551404741</ele>
        <time>2001-05-23T13:32:01.200</time>
      </trkpt>
      <trkpt lat="42.5199" lon="2.05758">
        <ele>1854.7926252505</ele>
        <time>2001-05-23T13:32:02.200</time>
      </trkpt>
      <trkpt lat="42.51991" lon="2.05759">
        <ele>1854.7800241472</ele>
        <time>2001-05-23T13:32:03.200</time>
      </trkpt>
      <trkpt lat="42.51991" lon="2.0576">
        <ele>1854.1012430651</ele>
        <time>2001-05-23T13:32:04.200</time>
      </trkpt>
      <trkpt lat="42.51992" lon="2.05761">
        <ele>1853.4642678583</ele>
        <time>2001-05-23T13:32:05.200</time>
      </trkpt>
      <trkpt lat="42.51992" lon="2.05761">
        <ele>1852.9495162174</ele>
        <time>2001-05-23T13:32:06.200</time>
      </trkpt>
      <trkpt lat="42.51991" lon="2.05762">
        <ele>1852.4395967146</ele>
        <time>2001-05-23T13:32:07.200</time>
      </trkpt>
      <trkpt lat="42.51992" lon="2.05764">
        <ele>1851.6139530774</ele>
        <time>2001-05-23T13:32:08.197</time>
      </trkpt>
      <trkpt lat="42.51993" lon="2.05764">
        <ele>1850.9581903566</ele>
        <time>2001-05-23T13:32:09.197</time>
      </trkpt>
      <trkpt lat="42.51995" lon="2.05765">
        <ele>1850.8286297306</ele>
        <time>2001-05-23T13:32:10.197</time>
      </trkpt>
      <trkpt lat="42.51996" lon="2.05766">
        <ele>1850.9399254438</ele>
        <time>2001-05-23T13:32:11.197</time>
      </trkpt>
      <trkpt lat="42.51997" lon="2.05766">
        <ele>1851.0220802974</ele>
        <time>2001-05-23T13:32:12.197</time>
      </trkpt>
      <trkpt lat="42.51997" lon="2.05766">
        <ele>1851.3377781523</ele>
        <time>2001-05-23T13:32:13.197</time>
      </trkpt>
      <trkpt lat="42.51999" lon="2.05768">
        <ele>1851.5337952627</ele>
        <time>2001-05-23T13:32:14.196</time>
      </trkpt>
      <trkpt lat="42.51999" lon="2.05768">
        <ele>1851.4345329531</ele>
        <time>2001-05-23T13:32:15.196</time>
      </trkpt>
      <trkpt lat="42.52001" lon="2.05769">
        <ele>1851.2824982444</ele>
        <time>2001-05-23T13:32:16.197</time>
      </trkpt>
      <trkpt lat="42.52002" lon="2.0577">
        <ele>1851.2214741465</ele>
        <time>2001-05-23T13:32:17.197</time>
      </trkpt>
      <trkpt lat="42.52003" lon="2.0577">
        <ele>1851.3664278459</ele>
        <time>2001-05-23T13:32:18.197</time>
      </trkpt>
      <trkpt lat="42.52004" lon="2.05771">
        <ele>1851.5956826283</ele>
        <time>2001-05-23T13:32:19.197</time>
      </trkpt>
      <trkpt lat="42.52004" lon="2.05772">
        <ele>1851.8121578176</ele>
        <time>2001-05-23T13:32:20.197</time>
      </trkpt>
      <trkpt lat="42.52005" lon="2.05773">
        <ele>1851.8604592962</ele>
        <time>2001-05-23T13:32:21.197</time>
      </trkpt>
      <trkpt lat="42.52004" lon="2.05774">
        <ele>1851.3844695598</ele>
        <time>2001-05-23T13:32:22.197</time>
      </trkpt>
      <trkpt lat="42.52005" lon="2.05775">
        <ele>1850.6713327643</ele>
        <time>2001-05-23T13:32:23.197</time>
      </trkpt>
      <trkpt lat="42.52006" lon="2.05776">
        <ele>1850.070082332</ele>
        <time>2001-05-23T13:32:24.197</time>
      </trkpt>
      <trkpt lat="42.52007" lon="2.05776">
        <ele>1849.4220111556</ele>
        <time>2001-05-23T13:32:25.197</time>
      </trkpt>
      <trkpt lat="42.52007" lon="2.05776">
        <ele>1848.7400003323</ele>
        <time>2001-05-23T13:32:26.197</time>
      </trkpt>
      <trkpt lat="42.52008" lon="2.05777">
        <ele>1848.6187491111</ele>
        <time>2001-05-23T13:32:27.197</time>
      </trkpt>
      <trkpt lat="42.52009" lon="2.05778">
        <ele>1848.4927624084</ele>
        <time>2001-05-23T13:32:28.197</time>
      </trkpt>
      <trkpt lat="42.52012" lon="2.05783">
        <ele>1848.2559219891</ele>
        <time>2001-05-23T13:32:29.199</time>
      </trkpt>
      <trkpt lat="42.52014" lon="2.05783">
        <ele>1847.924742936</ele>
        <time>2001-05-23T13:32:30.199</time>
      </trkpt>
      <trkpt lat="42.52015" lon="2.05783">
        <ele>1847.5056256462</ele>
        <time>2001-05-23T13:32:31.199</time>
      </trkpt>
      <trkpt lat="42.52015" lon="2.05784">
        <ele>1846.637858923</ele>
        <time>2001-05-23T13:32:32.199</time>
      </trkpt>
      <trkpt lat="42.52015" lon="2.05785">
        <ele>1845.7370690709</ele>
        <time>2001-05-23T13:32:33.199</time>
      </trkpt>
      <trkpt lat="42.52015" lon="2.05786">
        <ele>1844.7894239701</ele>
        <time>2001-05-23T13:32:34.199</time>
      </trkpt>
      <trkpt lat="42.52014" lon="2.05787">
        <ele>1843.7237909345</ele>
        <time>2001-05-23T13:32:35.199</time>
      </trkpt>
      <trkpt lat="42.52015" lon="2.05789">
        <ele>1842.2899335351</ele>
        <time>2001-05-23T13:32:36.199</time>
      </trkpt>
      <trkpt lat="42.52015" lon="2.05789">
        <ele>1841.1142323304</ele>
        <time>2001-05-23T13:32:37.199</time>
      </trkpt>
      <trkpt lat="42.52016" lon="2.05791">
        <ele>1840.0433215663</ele>
        <time>2001-05-23T13:32:38.198</time>
      </trkpt>
      <trkpt lat="42.52016" lon="2.05792">
        <ele>1839.0536648024</ele>
        <time>2001-05-23T13:32:39.198</time>
      </trkpt>
      <trkpt lat="42.52015" lon="2.05793">
        <ele>1839.0977378476</ele>
        <time>2001-05-23T13:32:40.197</time>
      </trkpt>
      <trkpt lat="42.52014" lon="2.05794">
        <ele>1839.8572456323</ele>
        <time>2001-05-23T13:32:41.197</time>
      </trkpt>
      <trkpt lat="42.52016" lon="2.05796">
        <ele>1840.6514920104</ele>
        <time>2001-05-23T13:32:42.155</time>
      </trkpt>
      <trkpt lat="42.52017" lon="2.05797">
        <ele>1841.4850115284</ele>
        <time>2001-05-23T13:32:43.155</time>
      </trkpt>
      <trkpt lat="42.52017" lon="2.05798">
        <ele>1842.2907386683</ele>
        <time>2001-05-23T13:32:44.155</time>
      </trkpt>
      <trkpt lat="42.52017" lon="2.05799">
        <ele>1842.637712802</ele>
        <time>2001-05-23T13:32:45.155</time>
      </trkpt>
      <trkpt lat="42.52018" lon="2.05801">
        <ele>1842.9813705184</ele>
        <time>2001-05-23T13:32:46.155</time>
      </trkpt>
      <trkpt lat="42.52019" lon="2.05802">
        <ele>1843.4055573955</ele>
        <time>2001-05-23T13:32:47.155</time>
      </trkpt>
      <trkpt lat="42.5202" lon="2.05804">
        <ele>1843.8189355593</ele>
        <time>2001-05-23T13:32:48.155</time>
      </trkpt>
      <trkpt lat="42.5202" lon="2.05805">
        <ele>1844.2641439442</ele>
        <time>2001-05-23T13:32:49.155</time>
      </trkpt>
      <trkpt lat="42.52022" lon="2.05807">
        <ele>1844.4849757127</ele>
        <time>2001-05-23T13:32:50.155</time>
      </trkpt>
      <trkpt lat="42.52023" lon="2.05808">
        <ele>1844.5813263034</ele>
        <time>2001-05-23T13:32:51.155</time>
      </trkpt>
      <trkpt lat="42.52023" lon="2.05809">
        <ele>1844.4880761687</ele>
        <time>2001-05-23T13:32:52.155</time>
      </trkpt>
      <trkpt lat="42.52023" lon="2.05809">
        <ele>1844.1384464137</ele>
        <time>2001-05-23T13:32:53.155</time>
      </trkpt>
      <trkpt lat="42.52024" lon="2.0581">
        <ele>1843.5613103667</ele>
        <time>2001-05-23T13:32:54.155</time>
      </trkpt>
      <trkpt lat="42.52024" lon="2.05812">
        <ele>1842.1842306472</ele>
        <time>2001-05-23T13:32:55.155</time>
      </trkpt>
      <trkpt lat="42.52025" lon="2.05812">
        <ele>1840.6651918834</ele>
        <time>2001-05-23T13:32:56.155</time>
      </trkpt>
      <trkpt lat="42.52026" lon="2.05813">
        <ele>1839.3074170461</ele>
        <time>2001-05-23T13:32:57.155</time>
      </trkpt>
      <trkpt lat="42.52027" lon="2.05814">
        <ele>1838.1323119245</ele>
        <time>2001-05-23T13:32:58.155</time>
      </trkpt>
      <trkpt lat="42.52027" lon="2.05814">
        <ele>1837.1261586767</ele>
        <time>2001-05-23T13:32:59.155</time>
      </trkpt>
      <trkpt lat="42.52028" lon="2.05815">
        <ele>1836.8524941005</ele>
        <time>2001-05-23T13:33:00.155</time>
      </trkpt>
      <trkpt lat="42.52028" lon="2.05816">
        <ele>1836.6826755477</ele>
        <time>2001-05-23T13:33:01.155</time>
      </trkpt>
      <trkpt lat="42.52029" lon="2.05817">
        <ele>1836.4410468567</ele>
        <time>2001-05-23T13:33:02.155</time>
      </trkpt>
      <trkpt lat="42.52029" lon="2.05819">
        <ele>1836.3169221228</ele>
        <time>2001-05-23T13:33:03.155</time>
      </trkpt>
      <trkpt lat="42.52029" lon="2.0582">
        <ele>1836.2986189611</ele>
        <time>2001-05-23T13:33:04.155</time>
      </trkpt>
      <trkpt lat="42.52029" lon="2.05821">
        <ele>1836.2752733354</ele>
        <time>2001-05-23T13:33:05.155</time>
      </trkpt>
      <trkpt lat="42.5203" lon="2.05822">
        <ele>1836.1001113236</ele>
        <time>2001-05-23T13:33:06.155</time>
      </trkpt>
      <trkpt lat="42.52031" lon="2.05822">
        <ele>1835.9372273723</ele>
        <time>2001-05-23T13:33:07.155</time>
      </trkpt>
      <trkpt lat="42.52032" lon="2.05823">
        <ele>1835.5615164772</ele>
        <time>2001-05-23T13:33:08.155</time>
      </trkpt>
      <trkpt lat="42.52032" lon="2.05824">
        <ele>1835.1574244121</ele>
        <time>2001-05-23T13:33:09.155</time>
      </trkpt>
      <trkpt lat="42.52032" lon="2.05825">
        <ele>1834.5348403731</ele>
        <time>2001-05-23T13:33:10.155</time>
      </trkpt>
      <trkpt lat="42.52032" lon="2.05826">
        <ele>1834.0057111474</ele>
        <time>2001-05-23T13:33:11.155</time>
      </trkpt>
      <trkpt lat="42.52033" lon="2.05827">
        <ele>1833.6157870542</ele>
        <time>2001-05-23T13:33:12.155</time>
      </trkpt>
      <trkpt lat="42.52033" lon="2.05828">
        <ele>1833.2325775707</ele>
        <time>2001-05-23T13:33:13.155</time>
      </trkpt>
      <trkpt lat="42.52034" lon="2.05828">
        <ele>1832.6985283734</ele>
        <time>2001-05-23T13:33:14.155</time>
      </trkpt>
      <trkpt lat="42.52035" lon="2.05828">
        <ele>1832.4355627874</ele>
        <time>2001-05-23T13:33:15.155</time>
      </trkpt>
      <trkpt lat="42.52038" lon="2.05831">
        <ele>1831.8790314917</ele>
        <time>2001-05-23T13:33:16.155</time>
      </trkpt>
      <trkpt lat="42.52038" lon="2.05833">
        <ele>1831.6837183489</ele>
        <time>2001-05-23T13:33:17.155</time>
      </trkpt>
      <trkpt lat="42.52038" lon="2.05834">
        <ele>1831.6186162112</ele>
        <time>2001-05-23T13:33:18.155</time>
      </trkpt>
      <trkpt lat="42.52038" lon="2.05835">
        <ele>1831.6236587837</ele>
        <time>2001-05-23T13:33:19.155</time>
      </trkpt>
      <trkpt lat="42.52039" lon="2.05836">
        <ele>1831.5176665323</ele>
        <time>2001-05-23T13:33:20.155</time>
      </trkpt>
      <trkpt lat="42.52039" lon="2.05837">
        <ele>1831.8222000308</ele>
        <time>2001-05-23T13:33:21.155</time>
      </trkpt>
      <trkpt lat="42.5204" lon="2.05838">
        <ele>1831.7752653455</ele>
        <time>2001-05-23T13:33:22.155</time>
      </trkpt>
      <trkpt lat="42.52041" lon="2.05839">
        <ele>1831.8342234496</ele>
        <time>2001-05-23T13:33:23.155</time>
      </trkpt>
      <trkpt lat="42.52042" lon="2.05839">
        <ele>1832.0651230596</ele>
        <time>2001-05-23T13:33:24.155</time>
      </trkpt>
      <trkpt lat="42.52043" lon="2.0584">
        <ele>1832.7078766976</ele>
        <time>2001-05-23T13:33:25.155</time>
      </trkpt>
      <trkpt lat="42.52044" lon="2.05841">
        <ele>1833.3113758277</ele>
        <time>2001-05-23T13:33:26.155</time>
      </trkpt>
      <trkpt lat="42.52044" lon="2.05841">
        <ele>1833.6951965135</ele>
        <time>2001-05-23T13:33:27.155</time>
      </trkpt>
      <trkpt lat="42.52045" lon="2.05842">
        <ele>1834.0127016593</ele>
        <time>2001-05-23T13:33:28.155</time>
      </trkpt>
      <trkpt lat="42.52045" lon="2.05844">
        <ele>1834.4820851656</ele>
        <time>2001-05-23T13:33:29.151</time>
      </trkpt>
      <trkpt lat="42.52046" lon="2.05845">
        <ele>1834.5808875477</ele>
        <time>2001-05-23T13:33:30.151</time>
      </trkpt>
      <trkpt lat="42.52046" lon="2.05847">
        <ele>1834.5953491619</ele>
        <time>2001-05-23T13:33:31.151</time>
      </trkpt>
      <trkpt lat="42.52046" lon="2.05848">
        <ele>1834.8515627695</ele>
        <time>2001-05-23T13:33:32.151</time>
      </trkpt>
      <trkpt lat="42.52047" lon="2.05849">
        <ele>1834.9359958606</ele>
        <time>2001-05-23T13:33:33.151</time>
      </trkpt>
      <trkpt lat="42.52048" lon="2.0585">
        <ele>1834.6633996142</ele>
        <time>2001-05-23T13:33:34.151</time>
      </trkpt>
      <trkpt lat="42.52048" lon="2.05851">
        <ele>1834.1815394744</ele>
        <time>2001-05-23T13:33:35.151</time>
      </trkpt>
      <trkpt lat="42.52049" lon="2.05852">
        <ele>1833.818818046</ele>
        <time>2001-05-23T13:33:36.151</time>
      </trkpt>
      <trkpt lat="42.5205" lon="2.05852">
        <ele>1833.2979056682</ele>
        <time>2001-05-23T13:33:37.151</time>
      </trkpt>
      <trkpt lat="42.5205" lon="2.05852">
        <ele>1832.9826658135</ele>
        <time>2001-05-23T13:33:38.151</time>
      </trkpt>
      <trkpt lat="42.52051" lon="2.05856">
        <ele>1832.3067723464</ele>
        <time>2001-05-23T13:33:39.153</time>
      </trkpt>
      <trkpt lat="42.52052" lon="2.05857">
        <ele>1831.8873225804</ele>
        <time>2001-05-23T13:33:40.153</time>
      </trkpt>
      <trkpt lat="42.52052" lon="2.05861">
        <ele>1831.3501993485</ele>
        <time>2001-05-23T13:33:41.150</time>
      </trkpt>
      <trkpt lat="42.52052" lon="2.05862">
        <ele>1831.1539347058</ele>
        <time>2001-05-23T13:33:42.150</time>
      </trkpt>
      <trkpt lat="42.52052" lon="2.05863">
        <ele>1830.9873415429</ele>
        <time>2001-05-23T13:33:43.150</time>
      </trkpt>
      <trkpt lat="42.52052" lon="2.05865">
        <ele>1831.3644774511</ele>
        <time>2001-05-23T13:33:44.150</time>
      </trkpt>
      <trkpt lat="42.52052" lon="2.05865">
        <ele>1831.8003651034</ele>
        <time>2001-05-23T13:33:45.150</time>
      </trkpt>
      <trkpt lat="42.52052" lon="2.05866">
        <ele>1832.1065476967</ele>
        <time>2001-05-23T13:33:46.150</time>
      </trkpt>
      <trkpt lat="42.52053" lon="2.05868">
        <ele>1831.8020643979</ele>
        <time>2001-05-23T13:33:47.147</time>
      </trkpt>
      <trkpt lat="42.52054" lon="2.05868">
        <ele>1831.2548513412</ele>
        <time>2001-05-23T13:33:48.147</time>
      </trkpt>
      <trkpt lat="42.52055" lon="2.05869">
        <ele>1830.4949041072</ele>
        <time>2001-05-23T13:33:49.150</time>
      </trkpt>
      <trkpt lat="42.52056" lon="2.05871">
        <ele>1829.7174147099</ele>
        <time>2001-05-23T13:33:50.150</time>
      </trkpt>
      <trkpt lat="42.52056" lon="2.05871">
        <ele>1829.128929613</ele>
        <time>2001-05-23T13:33:51.150</time>
      </trkpt>
      <trkpt lat="42.52057" lon="2.05872">
        <ele>1828.7538714841</ele>
        <time>2001-05-23T13:33:52.150</time>
      </trkpt>
      <trkpt lat="42.52057" lon="2.05873">
        <ele>1828.4054563392</ele>
        <time>2001-05-23T13:33:53.150</time>
      </trkpt>
      <trkpt lat="42.52057" lon="2.05874">
        <ele>1828.3253121499</ele>
        <time>2001-05-23T13:33:54.150</time>
      </trkpt>
      <trkpt lat="42.52057" lon="2.05875">
        <ele>1828.0874048132</ele>
        <time>2001-05-23T13:33:55.150</time>
      </trkpt>
      <trkpt lat="42.52059" lon="2.0588">
        <ele>1827.0639022227</ele>
        <time>2001-05-23T13:33:56.149</time>
      </trkpt>
      <trkpt lat="42.52059" lon="2.05881">
        <ele>1826.2776070341</ele>
        <time>2001-05-23T13:33:57.149</time>
      </trkpt>
      <trkpt lat="42.52059" lon="2.05883">
        <ele>1825.7039318269</ele>
        <time>2001-05-23T13:33:58.149</time>
      </trkpt>
      <trkpt lat="42.52059" lon="2.05884">
        <ele>1824.9204101736</ele>
        <time>2001-05-23T13:33:59.149</time>
      </trkpt>
      <trkpt lat="42.52059" lon="2.05884">
        <ele>1824.1078629239</ele>
        <time>2001-05-23T13:34:00.149</time>
      </trkpt>
      <trkpt lat="42.5206" lon="2.05885">
        <ele>1823.8049578961</ele>
        <time>2001-05-23T13:34:01.149</time>
      </trkpt>
      <trkpt lat="42.52061" lon="2.05886">
        <ele>1823.3265692584</ele>
        <time>2001-05-23T13:34:02.149</time>
      </trkpt>
      <trkpt lat="42.52061" lon="2.05887">
        <ele>1822.7829305032</ele>
        <time>2001-05-23T13:34:03.149</time>
      </trkpt>
      <trkpt lat="42.52061" lon="2.05888">
        <ele>1822.3527486237</ele>
        <time>2001-05-23T13:34:04.149</time>
      </trkpt>
      <trkpt lat="42.5206" lon="2.05889">
        <ele>1821.9383079631</ele>
        <time>2001-05-23T13:34:05.149</time>
      </trkpt>
      <trkpt lat="42.52061" lon="2.0589">
        <ele>1821.6602286868</ele>
        <time>2001-05-23T13:34:06.149</time>
      </trkpt>
      <trkpt lat="42.52061" lon="2.05891">
        <ele>1821.4064327668</ele>
        <time>2001-05-23T13:34:07.149</time>
      </trkpt>
      <trkpt lat="42.5206" lon="2.05893">
        <ele>1821.1714292591</ele>
        <time>2001-05-23T13:34:08.148</time>
      </trkpt>
      <trkpt lat="42.5206" lon="2.05894">
        <ele>1820.7956362179</ele>
        <time>2001-05-23T13:34:09.148</time>
      </trkpt>
      <trkpt lat="42.5206" lon="2.05897">
        <ele>1820.441221258</ele>
        <time>2001-05-23T13:34:10.147</time>
      </trkpt>
      <trkpt lat="42.52061" lon="2.05898">
        <ele>1820.2620987201</ele>
        <time>2001-05-23T13:34:11.147</time>
      </trkpt>
      <trkpt lat="42.52061" lon="2.05898">
        <ele>1820.2085737035</ele>
        <time>2001-05-23T13:34:12.147</time>
      </trkpt>
      <trkpt lat="42.52062" lon="2.059">
        <ele>1819.8724905377</ele>
        <time>2001-05-23T13:34:13.150</time>
      </trkpt>
      <trkpt lat="42.52062" lon="2.05901">
        <ele>1819.4879619103</ele>
        <time>2001-05-23T13:34:14.150</time>
      </trkpt>
      <trkpt lat="42.52063" lon="2.05903">
        <ele>1819.2255367925</ele>
        <time>2001-05-23T13:34:15.148</time>
      </trkpt>
      <trkpt lat="42.52063" lon="2.05904">
        <ele>1818.9674742628</ele>
        <time>2001-05-23T13:34:16.148</time>
      </trkpt>
      <trkpt lat="42.52064" lon="2.05904">
        <ele>1818.6992107257</ele>
        <time>2001-05-23T13:34:17.148</time>
      </trkpt>
      <trkpt lat="42.52064" lon="2.05905">
        <ele>1818.6132812455</ele>
        <time>2001-05-23T13:34:18.148</time>
      </trkpt>
      <trkpt lat="42.52064" lon="2.05907">
        <ele>1818.6398881672</ele>
        <time>2001-05-23T13:34:19.148</time>
      </trkpt>
      <trkpt lat="42.52065" lon="2.05908">
        <ele>1818.551478298</ele>
        <time>2001-05-23T13:34:20.148</time>
      </trkpt>
      <trkpt lat="42.52065" lon="2.05909">
        <ele>1818.3917527208</ele>
        <time>2001-05-23T13:34:21.148</time>
      </trkpt>
      <trkpt lat="42.52065" lon="2.0591">
        <ele>1818.1255760666</ele>
        <time>2001-05-23T13:34:22.148</time>
      </trkpt>
      <trkpt lat="42.52066" lon="2.0591">
        <ele>1817.7456419481</ele>
        <time>2001-05-23T13:34:23.148</time>
      </trkpt>
      <trkpt lat="42.52067" lon="2.05916">
        <ele>1817.3401330916</ele>
        <time>2001-05-23T13:34:24.149</time>
      </trkpt>
      <trkpt lat="42.52067" lon="2.05916">
        <ele>1817.0478244951</ele>
        <time>2001-05-23T13:34:25.149</time>
      </trkpt>
      <trkpt lat="42.52066" lon="2.05921">
        <ele>1817.3429759152</ele>
        <time>2001-05-23T13:34:26.147</time>
      </trkpt>
      <trkpt lat="42.52067" lon="2.05922">
        <ele>1817.7656533562</ele>
        <time>2001-05-23T13:34:27.147</time>
      </trkpt>
      <trkpt lat="42.52067" lon="2.05923">
        <ele>1818.3823296214</ele>
        <time>2001-05-23T13:34:28.147</time>
      </trkpt>
      <trkpt lat="42.52067" lon="2.05924">
        <ele>1818.9485362716</ele>
        <time>2001-05-23T13:34:29.147</time>
      </trkpt>
      <trkpt lat="42.52067" lon="2.05925">
        <ele>1819.4113870855</ele>
        <time>2001-05-23T13:34:30.147</time>
      </trkpt>
      <trkpt lat="42.52067" lon="2.05926">
        <ele>1819.3625315333</ele>
        <time>2001-05-23T13:34:31.147</time>
      </trkpt>
      <trkpt lat="42.52067" lon="2.05927">
        <ele>1819.280894495</ele>
        <time>2001-05-23T13:34:32.147</time>
      </trkpt>
      <trkpt lat="42.52068" lon="2.05928">
        <ele>1818.955516999</ele>
        <time>2001-05-23T13:34:33.150</time>
      </trkpt>
      <trkpt lat="42.52068" lon="2.05928">
        <ele>1818.7191442518</ele>
        <time>2001-05-23T13:34:34.150</time>
      </trkpt>
      <trkpt lat="42.52068" lon="2.0593">
        <ele>1818.6496362209</ele>
        <time>2001-05-23T13:34:35.156</time>
      </trkpt>
      <trkpt lat="42.52068" lon="2.05932">
        <ele>1818.5837499162</ele>
        <time>2001-05-23T13:34:36.156</time>
      </trkpt>
      <trkpt lat="42.52069" lon="2.05933">
        <ele>1818.4106158512</ele>
        <time>2001-05-23T13:34:37.156</time>
      </trkpt>
      <trkpt lat="42.52069" lon="2.05933">
        <ele>1818.3316809881</ele>
        <time>2001-05-23T13:34:38.156</time>
      </trkpt>
      <trkpt lat="42.52069" lon="2.05935">
        <ele>1818.2970747208</ele>
        <time>2001-05-23T13:34:39.156</time>
      </trkpt>
      <trkpt lat="42.52069" lon="2.05936">
        <ele>1818.1145816682</ele>
        <time>2001-05-23T13:34:40.156</time>
      </trkpt>
      <trkpt lat="42.52069" lon="2.05936">
        <ele>1818.0062671615</ele>
        <time>2001-05-23T13:34:41.156</time>
      </trkpt>
      <trkpt lat="42.5207" lon="2.05939">
        <ele>1817.9777966678</ele>
        <time>2001-05-23T13:34:42.153</time>
      </trkpt>
      <trkpt lat="42.52071" lon="2.05939">
        <ele>1817.9438706197</ele>
        <time>2001-05-23T13:34:43.153</time>
      </trkpt>
      <trkpt lat="42.5207" lon="2.0594">
        <ele>1817.9219474671</ele>
        <time>2001-05-23T13:34:44.153</time>
      </trkpt>
      <trkpt lat="42.5207" lon="2.05941">
        <ele>1817.8839595007</ele>
        <time>2001-05-23T13:34:45.153</time>
      </trkpt>
      <trkpt lat="42.5207" lon="2.05942">
        <ele>1817.7617886808</ele>
        <time>2001-05-23T13:34:46.153</time>
      </trkpt>
      <trkpt lat="42.5207" lon="2.05944">
        <ele>1817.5853296911</ele>
        <time>2001-05-23T13:34:47.153</time>
      </trkpt>
      <trkpt lat="42.5207" lon="2.05944">
        <ele>1817.4656625766</ele>
        <time>2001-05-23T13:34:48.153</time>
      </trkpt>
      <trkpt lat="42.5207" lon="2.05945">
        <ele>1817.3714515267</ele>
        <time>2001-05-23T13:34:49.153</time>
      </trkpt>
      <trkpt lat="42.52069" lon="2.05946">
        <ele>1817.4210461486</ele>
        <time>2001-05-23T13:34:50.153</time>
      </trkpt>
      <trkpt lat="42.52068" lon="2.0595">
        <ele>1817.7224780977</ele>
        <time>2001-05-23T13:34:51.157</time>
      </trkpt>
      <trkpt lat="42.52068" lon="2.05951">
        <ele>1818.1601273943</ele>
        <time>2001-05-23T13:34:52.157</time>
      </trkpt>
      <trkpt lat="42.52067" lon="2.05952">
        <ele>1818.6448225398</ele>
        <time>2001-05-23T13:34:53.157</time>
      </trkpt>
      <trkpt lat="42.52066" lon="2.05954">
        <ele>1819.4584078368</ele>
        <time>2001-05-23T13:34:54.157</time>
      </trkpt>
      <trkpt lat="42.52066" lon="2.05955">
        <ele>1820.4056375885</ele>
        <time>2001-05-23T13:34:55.157</time>
      </trkpt>
      <trkpt lat="42.52066" lon="2.05956">
        <ele>1821.2461550362</ele>
        <time>2001-05-23T13:34:56.157</time>
      </trkpt>
      <trkpt lat="42.52066" lon="2.05957">
        <ele>1822.1108873524</ele>
        <time>2001-05-23T13:34:57.157</time>
      </trkpt>
      <trkpt lat="42.52065" lon="2.05958">
        <ele>1823.1140176978</ele>
        <time>2001-05-23T13:34:58.157</time>
      </trkpt>
      <trkpt lat="42.52065" lon="2.05958">
        <ele>1823.8236817749</ele>
        <time>2001-05-23T13:34:59.157</time>
      </trkpt>
      <trkpt lat="42.52064" lon="2.0596">
        <ele>1824.3907562463</ele>
        <time>2001-05-23T13:35:00.157</time>
      </trkpt>
      <trkpt lat="42.52064" lon="2.0596">
        <ele>1824.6820766754</ele>
        <time>2001-05-23T13:35:01.157</time>
      </trkpt>
      <trkpt lat="42.52062" lon="2.05962">
        <ele>1824.7330607736</ele>
        <time>2001-05-23T13:35:02.157</time>
      </trkpt>
      <trkpt lat="42.52063" lon="2.05963">
        <ele>1824.6610843012</ele>
        <time>2001-05-23T13:35:03.157</time>
      </trkpt>
      <trkpt lat="42.52063" lon="2.05967">
        <ele>1824.2338274589</ele>
        <time>2001-05-23T13:35:04.156</time>
      </trkpt>
      <trkpt lat="42.52063" lon="2.05968">
        <ele>1823.6748772545</ele>
        <time>2001-05-23T13:35:05.156</time>
      </trkpt>
      <trkpt lat="42.52063" lon="2.05969">
        <ele>1823.158192616</ele>
        <time>2001-05-23T13:35:06.156</time>
      </trkpt>
      <trkpt lat="42.52063" lon="2.0597">
        <ele>1822.7150870096</ele>
        <time>2001-05-23T13:35:07.156</time>
      </trkpt>
      <trkpt lat="42.52064" lon="2.05969">
        <ele>1822.2442460097</ele>
        <time>2001-05-23T13:35:08.159</time>
      </trkpt>
      <trkpt lat="42.52064" lon="2.05969">
        <ele>1822.0114739407</ele>
        <time>2001-05-23T13:35:09.159</time>
      </trkpt>
      <trkpt lat="42.52064" lon="2.05971">
        <ele>1821.6151087848</ele>
        <time>2001-05-23T13:35:10.165</time>
      </trkpt>
      <trkpt lat="42.52064" lon="2.05971">
        <ele>1821.3063552728</ele>
        <time>2001-05-23T13:35:11.165</time>
      </trkpt>
      <trkpt lat="42.52063" lon="2.05972">
        <ele>1821.2026762208</ele>
        <time>2001-05-23T13:35:12.162</time>
      </trkpt>
      <trkpt lat="42.52063" lon="2.05973">
        <ele>1821.3189088311</ele>
        <time>2001-05-23T13:35:13.162</time>
      </trkpt>
      <trkpt lat="42.52064" lon="2.05973">
        <ele>1821.2739104204</ele>
        <time>2001-05-23T13:35:14.167</time>
      </trkpt>
      <trkpt lat="42.52064" lon="2.05973">
        <ele>1821.4417681998</ele>
        <time>2001-05-23T13:35:15.167</time>
      </trkpt>
      <trkpt lat="42.52065" lon="2.05974">
        <ele>1821.6521294169</ele>
        <time>2001-05-23T13:35:16.168</time>
      </trkpt>
      <trkpt lat="42.52065" lon="2.05974">
        <ele>1821.7298949912</ele>
        <time>2001-05-23T13:35:17.168</time>
      </trkpt>
      <trkpt lat="42.52064" lon="2.05975">
        <ele>1821.6802981654</ele>
        <time>2001-05-23T13:35:18.164</time>
      </trkpt>
      <trkpt lat="42.52064" lon="2.05975">
        <ele>1821.7919323606</ele>
        <time>2001-05-23T13:35:19.164</time>
      </trkpt>
      <trkpt lat="42.52065" lon="2.05976">
        <ele>1821.5232273715</ele>
        <time>2001-05-23T13:35:20.163</time>
      </trkpt>
      <trkpt lat="42.52066" lon="2.05976">
        <ele>1821.0688480383</ele>
        <time>2001-05-23T13:35:21.163</time>
      </trkpt>
      <trkpt lat="42.52066" lon="2.05977">
        <ele>1820.4663896963</ele>
        <time>2001-05-23T13:35:22.163</time>
      </trkpt>
      <trkpt lat="42.52067" lon="2.05978">
        <ele>1819.5768091748</ele>
        <time>2001-05-23T13:35:23.163</time>
      </trkpt>
      <trkpt lat="42.52069" lon="2.05979">
        <ele>1818.3826934058</ele>
        <time>2001-05-23T13:35:24.163</time>
      </trkpt>
      <trkpt lat="42.5207" lon="2.0598">
        <ele>1817.3186119441</ele>
        <time>2001-05-23T13:35:25.163</time>
      </trkpt>
      <trkpt lat="42.52071" lon="2.05981">
        <ele>1816.3220923832</ele>
        <time>2001-05-23T13:35:26.163</time>
      </trkpt>
      <trkpt lat="42.52071" lon="2.05982">
        <ele>1815.457282966</ele>
        <time>2001-05-23T13:35:27.163</time>
      </trkpt>
      <trkpt lat="42.52071" lon="2.05982">
        <ele>1814.6021366382</ele>
        <time>2001-05-23T13:35:28.163</time>
      </trkpt>
      <trkpt lat="42.52071" lon="2.05982">
        <ele>1814.0515255578</ele>
        <time>2001-05-23T13:35:29.163</time>
      </trkpt>
      <trkpt lat="42.5207" lon="2.05983">
        <ele>1813.6838751189</ele>
        <time>2001-05-23T13:35:30.164</time>
      </trkpt>
      <trkpt lat="42.5207" lon="2.05983">
        <ele>1813.3918336855</ele>
        <time>2001-05-23T13:35:31.164</time>
      </trkpt>
      <trkpt lat="42.5207" lon="2.05984">
        <ele>1813.1357847285</ele>
        <time>2001-05-23T13:35:32.178</time>
      </trkpt>
      <trkpt lat="42.5207" lon="2.05986">
        <ele>1813.3796093402</ele>
        <time>2001-05-23T13:35:33.178</time>
      </trkpt>
      <trkpt lat="42.5207" lon="2.05986">
        <ele>1813.3869427824</ele>
        <time>2001-05-23T13:35:34.116</time>
      </trkpt>
      <trkpt lat="42.5207" lon="2.05986">
        <ele>1813.4616204603</ele>
        <time>2001-05-23T13:35:35.116</time>
      </trkpt>
    </trkseg>
  </trk>
</gpx>